<?xml version='1.0' encoding='UTF-8'?><gpx version="1.1" creator="JPX - https://github.com/jenetics/jpx" xmlns="http://www.topografix.com/GPX/1/1"><trk><trkseg><trkpt lat="37.7053633" lon="15.17378"><ele>173.0</ele><time>2026-05-05T08:28:13.175Z</time></trkpt><trkpt lat="37.7052567" lon="15.1737067"><ele>173.0</ele><time>2026-05-05T08:28:17.175Z</time></trkpt><trkpt lat="37.7052883" lon="15.1737833"><ele>173.0</ele><time>2026-05-05T08:28:25.175Z</time></trkpt><trkpt lat="37.7053417" lon="15.1738283"><ele>173.0</ele><time>2026-05-05T08:28:31.175Z</time></trkpt><trkpt lat="37.705425" lon="15.173835"><ele>173.0</ele><time>2026-05-05T08:29:01.175Z</time></trkpt><trkpt lat="37.7054667" lon="15.1739383"><ele>173.0</ele><time>2026-05-05T08:31:33.175Z</time></trkpt><trkpt lat="37.7054267" lon="15.1738533"><ele>173.0</ele><time>2026-05-05T08:33:45.175Z</time></trkpt><trkpt lat="37.70534" lon="15.1738383"><ele>173.0</ele><time>2026-05-05T08:33:47.175Z</time></trkpt><trkpt lat="37.7052217" lon="15.1738467"><ele>173.0</ele><time>2026-05-05T08:33:49.175Z</time></trkpt><trkpt lat="37.7051017" lon="15.1738717"><ele>173.0</ele><time>2026-05-05T08:33:51.175Z</time></trkpt><trkpt lat="37.70498" lon="15.1739033"><ele>172.83333333333331</ele><time>2026-05-05T08:33:53.175Z</time></trkpt><trkpt lat="37.704905" lon="15.173915"><ele>172.66666666666666</ele><time>2026-05-05T08:33:54.176Z</time></trkpt><trkpt lat="37.7048233" lon="15.1739133"><ele>172.5</ele><time>2026-05-05T08:33:55.176Z</time></trkpt><trkpt lat="37.7047483" lon="15.1739233"><ele>172.33333333333334</ele><time>2026-05-05T08:33:56.175Z</time></trkpt><trkpt lat="37.7046667" lon="15.1739167"><ele>172.16666666666669</ele><time>2026-05-05T08:33:57.176Z</time></trkpt><trkpt lat="37.7046" lon="15.1739133"><ele>172.0</ele><time>2026-05-05T08:33:58.175Z</time></trkpt><trkpt lat="37.7044967" lon="15.17388"><ele>172.0</ele><time>2026-05-05T08:34:00.175Z</time></trkpt><trkpt lat="37.7044283" lon="15.1737333"><ele>172.0</ele><time>2026-05-05T08:34:02.175Z</time></trkpt><trkpt lat="37.7044117" lon="15.1736317"><ele>172.0</ele><time>2026-05-05T08:34:03.175Z</time></trkpt><trkpt lat="37.7043967" lon="15.17353"><ele>172.0</ele><time>2026-05-05T08:34:04.175Z</time></trkpt><trkpt lat="37.7043783" lon="15.1734417"><ele>172.0</ele><time>2026-05-05T08:34:05.175Z</time></trkpt><trkpt lat="37.70435" lon="15.1733117"><ele>172.2</ele><time>2026-05-05T08:34:07.175Z</time></trkpt><trkpt lat="37.7043133" lon="15.1731967"><ele>172.39999999999998</ele><time>2026-05-05T08:34:09.175Z</time></trkpt><trkpt lat="37.70427" lon="15.173065"><ele>172.60000000000002</ele><time>2026-05-05T08:34:11.175Z</time></trkpt><trkpt lat="37.7042417" lon="15.172985"><ele>172.8</ele><time>2026-05-05T08:34:12.175Z</time></trkpt><trkpt lat="37.7042117" lon="15.1728833"><ele>173.0</ele><time>2026-05-05T08:34:13.175Z</time></trkpt><trkpt lat="37.7041733" lon="15.1727717"><ele>173.8</ele><time>2026-05-05T08:34:14.175Z</time></trkpt><trkpt lat="37.7041583" lon="15.1726617"><ele>174.60000000000002</ele><time>2026-05-05T08:34:15.175Z</time></trkpt><trkpt lat="37.7041333" lon="15.172575"><ele>175.39999999999998</ele><time>2026-05-05T08:34:16.175Z</time></trkpt><trkpt lat="37.70412" lon="15.172495"><ele>176.2</ele><time>2026-05-05T08:34:17.174Z</time></trkpt><trkpt lat="37.7040767" lon="15.1723533"><ele>177.0</ele><time>2026-05-05T08:34:19.174Z</time></trkpt><trkpt lat="37.7040033" lon="15.17223"><ele>177.16666666666666</ele><time>2026-05-05T08:34:21.174Z</time></trkpt><trkpt lat="37.7039667" lon="15.1721633"><ele>177.33333333333334</ele><time>2026-05-05T08:34:22.175Z</time></trkpt><trkpt lat="37.70396" lon="15.1720183"><ele>177.5</ele><time>2026-05-05T08:34:24.175Z</time></trkpt><trkpt lat="37.7039867" lon="15.1719317"><ele>177.66666666666669</ele><time>2026-05-05T08:34:25.175Z</time></trkpt><trkpt lat="37.7040083" lon="15.1718267"><ele>177.83333333333334</ele><time>2026-05-05T08:34:26.174Z</time></trkpt><trkpt lat="37.70403" lon="15.1717183"><ele>178.0</ele><time>2026-05-05T08:34:27.174Z</time></trkpt><trkpt lat="37.7040517" lon="15.1716"><ele>178.33333333333334</ele><time>2026-05-05T08:34:28.174Z</time></trkpt><trkpt lat="37.7040733" lon="15.1714783"><ele>178.66666666666669</ele><time>2026-05-05T08:34:29.174Z</time></trkpt><trkpt lat="37.70409" lon="15.171365"><ele>179.0</ele><time>2026-05-05T08:34:30.174Z</time></trkpt><trkpt lat="37.7041067" lon="15.1712667"><ele>179.33333333333334</ele><time>2026-05-05T08:34:31.174Z</time></trkpt><trkpt lat="37.7041217" lon="15.1711833"><ele>179.66666666666666</ele><time>2026-05-05T08:34:32.174Z</time></trkpt><trkpt lat="37.70414" lon="15.1710783"><ele>180.0</ele><time>2026-05-05T08:34:34.174Z</time></trkpt><trkpt lat="37.70417" lon="15.1709717"><ele>180.0</ele><time>2026-05-05T08:34:38.174Z</time></trkpt><trkpt lat="37.7042267" lon="15.170845"><ele>180.0</ele><time>2026-05-05T08:34:40.174Z</time></trkpt><trkpt lat="37.7042433" lon="15.1707617"><ele>180.0</ele><time>2026-05-05T08:34:41.175Z</time></trkpt><trkpt lat="37.704255" lon="15.1706683"><ele>180.0</ele><time>2026-05-05T08:34:42.174Z</time></trkpt><trkpt lat="37.704265" lon="15.1705767"><ele>180.0</ele><time>2026-05-05T08:34:43.174Z</time></trkpt><trkpt lat="37.7042817" lon="15.170425"><ele>181.0</ele><time>2026-05-05T08:34:45.174Z</time></trkpt><trkpt lat="37.7043017" lon="15.17028"><ele>182.0</ele><time>2026-05-05T08:34:47.174Z</time></trkpt><trkpt lat="37.7043167" lon="15.1701983"><ele>183.0</ele><time>2026-05-05T08:34:48.174Z</time></trkpt><trkpt lat="37.70434" lon="15.170115"><ele>184.0</ele><time>2026-05-05T08:34:49.174Z</time></trkpt><trkpt lat="37.7043583" lon="15.17002"><ele>185.0</ele><time>2026-05-05T08:34:50.174Z</time></trkpt><trkpt lat="37.704375" lon="15.1699183"><ele>186.0</ele><time>2026-05-05T08:34:51.174Z</time></trkpt><trkpt lat="37.70439" lon="15.1698317"><ele>186.33333333333334</ele><time>2026-05-05T08:34:52.174Z</time></trkpt><trkpt lat="37.704405" lon="15.1697533"><ele>186.66666666666666</ele><time>2026-05-05T08:34:53.174Z</time></trkpt><trkpt lat="37.7044267" lon="15.16965"><ele>187.0</ele><time>2026-05-05T08:34:55.175Z</time></trkpt><trkpt lat="37.704475" lon="15.1695917"><ele>187.33333333333331</ele><time>2026-05-05T08:58:03.173Z</time></trkpt><trkpt lat="37.7044433" lon="15.1695133"><ele>187.66666666666666</ele><time>2026-05-05T08:58:34.172Z</time></trkpt><trkpt lat="37.7044567" lon="15.16935"><ele>188.0</ele><time>2026-05-05T08:58:36.172Z</time></trkpt><trkpt lat="37.7044733" lon="15.1692383"><ele>188.0</ele><time>2026-05-05T08:58:37.172Z</time></trkpt><trkpt lat="37.7044933" lon="15.1691233"><ele>188.0</ele><time>2026-05-05T08:58:38.172Z</time></trkpt><trkpt lat="37.70451" lon="15.1690283"><ele>188.0</ele><time>2026-05-05T08:58:39.172Z</time></trkpt><trkpt lat="37.7045417" lon="15.1688917"><ele>188.0</ele><time>2026-05-05T08:58:41.172Z</time></trkpt><trkpt lat="37.704565" lon="15.1687783"><ele>188.0</ele><time>2026-05-05T08:58:43.172Z</time></trkpt><trkpt lat="37.7045983" lon="15.16864"><ele>188.16666666666666</ele><time>2026-05-05T08:58:45.172Z</time></trkpt><trkpt lat="37.70461" lon="15.16856"><ele>188.33333333333331</ele><time>2026-05-05T08:58:46.172Z</time></trkpt><trkpt lat="37.7046217" lon="15.1684767"><ele>188.5</ele><time>2026-05-05T08:58:47.172Z</time></trkpt><trkpt lat="37.70464" lon="15.1683917"><ele>188.66666666666666</ele><time>2026-05-05T08:58:48.172Z</time></trkpt><trkpt lat="37.7046617" lon="15.1682817"><ele>188.83333333333334</ele><time>2026-05-05T08:58:49.171Z</time></trkpt><trkpt lat="37.7046883" lon="15.16816"><ele>189.0</ele><time>2026-05-05T08:58:50.171Z</time></trkpt><trkpt lat="37.7047183" lon="15.168025"><ele>189.0</ele><time>2026-05-05T08:58:51.171Z</time></trkpt><trkpt lat="37.70475" lon="15.1678867"><ele>189.0</ele><time>2026-05-05T08:58:52.171Z</time></trkpt><trkpt lat="37.7047767" lon="15.167735"><ele>189.0</ele><time>2026-05-05T08:58:53.171Z</time></trkpt><trkpt lat="37.7048133" lon="15.1675917"><ele>189.0</ele><time>2026-05-05T08:58:54.171Z</time></trkpt><trkpt lat="37.704845" lon="15.1674483"><ele>189.5</ele><time>2026-05-05T08:58:55.171Z</time></trkpt><trkpt lat="37.7048717" lon="15.1672967"><ele>190.0</ele><time>2026-05-05T08:58:56.171Z</time></trkpt><trkpt lat="37.704905" lon="15.1671583"><ele>190.5</ele><time>2026-05-05T08:58:57.171Z</time></trkpt><trkpt lat="37.7049233" lon="15.167015"><ele>191.0</ele><time>2026-05-05T08:58:58.171Z</time></trkpt><trkpt lat="37.70495" lon="15.1668767"><ele>191.0</ele><time>2026-05-05T08:58:59.171Z</time></trkpt><trkpt lat="37.7049767" lon="15.1667417"><ele>191.0</ele><time>2026-05-05T08:59:00.171Z</time></trkpt><trkpt lat="37.705" lon="15.1666"><ele>191.0</ele><time>2026-05-05T08:59:01.171Z</time></trkpt><trkpt lat="37.70503" lon="15.1664467"><ele>191.0</ele><time>2026-05-05T08:59:02.171Z</time></trkpt><trkpt lat="37.7050667" lon="15.1663"><ele>191.0</ele><time>2026-05-05T08:59:03.171Z</time></trkpt><trkpt lat="37.7051033" lon="15.166125"><ele>191.0</ele><time>2026-05-05T08:59:04.171Z</time></trkpt><trkpt lat="37.7051367" lon="15.1659417"><ele>191.0</ele><time>2026-05-05T08:59:05.172Z</time></trkpt><trkpt lat="37.7051517" lon="15.16577"><ele>191.0</ele><time>2026-05-05T08:59:06.171Z</time></trkpt><trkpt lat="37.7051567" lon="15.1656067"><ele>192.25</ele><time>2026-05-05T08:59:07.171Z</time></trkpt><trkpt lat="37.705145" lon="15.16544"><ele>193.5</ele><time>2026-05-05T08:59:08.171Z</time></trkpt><trkpt lat="37.70512" lon="15.1652883"><ele>194.75</ele><time>2026-05-05T08:59:09.171Z</time></trkpt><trkpt lat="37.7050783" lon="15.165145"><ele>196.0</ele><time>2026-05-05T08:59:10.171Z</time></trkpt><trkpt lat="37.70503" lon="15.1650117"><ele>196.0</ele><time>2026-05-05T08:59:11.172Z</time></trkpt><trkpt lat="37.70494" lon="15.1648967"><ele>196.0</ele><time>2026-05-05T08:59:12.171Z</time></trkpt><trkpt lat="37.70483" lon="15.1648067"><ele>196.0</ele><time>2026-05-05T08:59:13.171Z</time></trkpt><trkpt lat="37.704715" lon="15.1647567"><ele>196.0</ele><time>2026-05-05T08:59:14.171Z</time></trkpt><trkpt lat="37.7045833" lon="15.1647233"><ele>196.5</ele><time>2026-05-05T08:59:15.172Z</time></trkpt><trkpt lat="37.704455" lon="15.1647233"><ele>197.0</ele><time>2026-05-05T08:59:16.171Z</time></trkpt><trkpt lat="37.7043267" lon="15.164765"><ele>197.5</ele><time>2026-05-05T08:59:17.171Z</time></trkpt><trkpt lat="37.704215" lon="15.164845"><ele>198.0</ele><time>2026-05-05T08:59:18.172Z</time></trkpt><trkpt lat="37.7041117" lon="15.1649617"><ele>198.0</ele><time>2026-05-05T08:59:19.171Z</time></trkpt><trkpt lat="37.7040283" lon="15.1650967"><ele>198.0</ele><time>2026-05-05T08:59:20.172Z</time></trkpt><trkpt lat="37.70396" lon="15.1652467"><ele>198.0</ele><time>2026-05-05T08:59:21.171Z</time></trkpt><trkpt lat="37.703895" lon="15.1653983"><ele>198.0</ele><time>2026-05-05T08:59:22.171Z</time></trkpt><trkpt lat="37.703825" lon="15.1655383"><ele>198.0</ele><time>2026-05-05T08:59:23.172Z</time></trkpt><trkpt lat="37.7037467" lon="15.165675"><ele>198.0</ele><time>2026-05-05T08:59:24.171Z</time></trkpt><trkpt lat="37.703635" lon="15.165775"><ele>198.0</ele><time>2026-05-05T08:59:25.171Z</time></trkpt><trkpt lat="37.70351" lon="15.1658567"><ele>198.0</ele><time>2026-05-05T08:59:26.171Z</time></trkpt><trkpt lat="37.703375" lon="15.1659133"><ele>198.33333333333331</ele><time>2026-05-05T08:59:27.172Z</time></trkpt><trkpt lat="37.7032217" lon="15.1659633"><ele>198.66666666666666</ele><time>2026-05-05T08:59:28.171Z</time></trkpt><trkpt lat="37.7030583" lon="15.1659917"><ele>199.0</ele><time>2026-05-05T08:59:29.171Z</time></trkpt><trkpt lat="37.7029" lon="15.1660017"><ele>195.66666666666666</ele><time>2026-05-05T08:59:30.171Z</time></trkpt><trkpt lat="37.7027467" lon="15.1660117"><ele>192.33333333333331</ele><time>2026-05-05T08:59:31.171Z</time></trkpt><trkpt lat="37.7025967" lon="15.1660267"><ele>189.0</ele><time>2026-05-05T08:59:32.171Z</time></trkpt><trkpt lat="37.7024483" lon="15.1660417"><ele>189.0</ele><time>2026-05-05T08:59:33.171Z</time></trkpt><trkpt lat="37.7022967" lon="15.16606"><ele>189.0</ele><time>2026-05-05T08:59:34.172Z</time></trkpt><trkpt lat="37.7021367" lon="15.166085"><ele>189.0</ele><time>2026-05-05T08:59:35.172Z</time></trkpt><trkpt lat="37.7019733" lon="15.1661117"><ele>191.66666666666669</ele><time>2026-05-05T08:59:36.171Z</time></trkpt><trkpt lat="37.7018" lon="15.1661417"><ele>194.33333333333334</ele><time>2026-05-05T08:59:37.172Z</time></trkpt><trkpt lat="37.7016217" lon="15.166175"><ele>197.0</ele><time>2026-05-05T08:59:38.171Z</time></trkpt><trkpt lat="37.7014417" lon="15.1662133"><ele>197.0</ele><time>2026-05-05T08:59:39.171Z</time></trkpt><trkpt lat="37.701265" lon="15.1662467"><ele>197.0</ele><time>2026-05-05T08:59:40.171Z</time></trkpt><trkpt lat="37.7010867" lon="15.1662883"><ele>197.0</ele><time>2026-05-05T08:59:41.172Z</time></trkpt><trkpt lat="37.7009083" lon="15.1663333"><ele>200.0</ele><time>2026-05-05T08:59:42.171Z</time></trkpt><trkpt lat="37.7007267" lon="15.1663717"><ele>203.0</ele><time>2026-05-05T08:59:43.171Z</time></trkpt><trkpt lat="37.7005467" lon="15.166415"><ele>206.0</ele><time>2026-05-05T08:59:44.171Z</time></trkpt><trkpt lat="37.70036" lon="15.1664583"><ele>205.33333333333334</ele><time>2026-05-05T08:59:45.171Z</time></trkpt><trkpt lat="37.7001767" lon="15.1664983"><ele>204.66666666666669</ele><time>2026-05-05T08:59:46.171Z</time></trkpt><trkpt lat="37.6999917" lon="15.1665433"><ele>204.0</ele><time>2026-05-05T08:59:47.171Z</time></trkpt><trkpt lat="37.6998083" lon="15.1665867"><ele>201.66666666666669</ele><time>2026-05-05T08:59:48.171Z</time></trkpt><trkpt lat="37.6996233" lon="15.166635"><ele>199.33333333333334</ele><time>2026-05-05T08:59:49.171Z</time></trkpt><trkpt lat="37.6994333" lon="15.1666817"><ele>197.0</ele><time>2026-05-05T08:59:50.172Z</time></trkpt><trkpt lat="37.6992417" lon="15.1667217"><ele>197.0</ele><time>2026-05-05T08:59:51.171Z</time></trkpt><trkpt lat="37.699055" lon="15.1667617"><ele>197.0</ele><time>2026-05-05T08:59:52.171Z</time></trkpt><trkpt lat="37.698865" lon="15.1668117"><ele>197.0</ele><time>2026-05-05T08:59:53.172Z</time></trkpt><trkpt lat="37.698675" lon="15.1668517"><ele>199.0</ele><time>2026-05-05T08:59:54.171Z</time></trkpt><trkpt lat="37.6984883" lon="15.1668783"><ele>201.0</ele><time>2026-05-05T08:59:55.171Z</time></trkpt><trkpt lat="37.6983" lon="15.166905"><ele>203.0</ele><time>2026-05-05T08:59:56.171Z</time></trkpt><trkpt lat="37.69811" lon="15.166925"><ele>203.0</ele><time>2026-05-05T08:59:57.171Z</time></trkpt><trkpt lat="37.6979183" lon="15.1669383"><ele>203.0</ele><time>2026-05-05T08:59:58.171Z</time></trkpt><trkpt lat="37.6977217" lon="15.1669467"><ele>203.0</ele><time>2026-05-05T08:59:59.171Z</time></trkpt><trkpt lat="37.69753" lon="15.1669533"><ele>205.0</ele><time>2026-05-05T09:00:00.171Z</time></trkpt><trkpt lat="37.69734" lon="15.166955"><ele>207.0</ele><time>2026-05-05T09:00:01.171Z</time></trkpt><trkpt lat="37.6971433" lon="15.166945"><ele>209.0</ele><time>2026-05-05T09:00:02.171Z</time></trkpt><trkpt lat="37.6969467" lon="15.1669333"><ele>209.66666666666669</ele><time>2026-05-05T09:00:03.171Z</time></trkpt><trkpt lat="37.6967467" lon="15.166915"><ele>210.33333333333331</ele><time>2026-05-05T09:00:04.171Z</time></trkpt><trkpt lat="37.6965483" lon="15.1668867"><ele>211.0</ele><time>2026-05-05T09:00:05.171Z</time></trkpt><trkpt lat="37.6963567" lon="15.1668583"><ele>211.0</ele><time>2026-05-05T09:00:06.171Z</time></trkpt><trkpt lat="37.6961583" lon="15.1668367"><ele>211.0</ele><time>2026-05-05T09:00:07.172Z</time></trkpt><trkpt lat="37.6959533" lon="15.1668067"><ele>211.0</ele><time>2026-05-05T09:00:08.171Z</time></trkpt><trkpt lat="37.6957417" lon="15.1667683"><ele>208.0</ele><time>2026-05-05T09:00:09.171Z</time></trkpt><trkpt lat="37.6955217" lon="15.1667167"><ele>205.0</ele><time>2026-05-05T09:00:10.171Z</time></trkpt><trkpt lat="37.6952967" lon="15.1666567"><ele>205.5</ele><time>2026-05-05T09:00:11.171Z</time></trkpt><trkpt lat="37.6950717" lon="15.1665867"><ele>206.0</ele><time>2026-05-05T09:00:12.171Z</time></trkpt><trkpt lat="37.6948467" lon="15.166505"><ele>206.0</ele><time>2026-05-05T09:00:13.171Z</time></trkpt><trkpt lat="37.6946183" lon="15.1664067"><ele>206.0</ele><time>2026-05-05T09:00:14.171Z</time></trkpt><trkpt lat="37.6943917" lon="15.1663017"><ele>205.0</ele><time>2026-05-05T09:00:15.171Z</time></trkpt><trkpt lat="37.6941683" lon="15.1661983"><ele>204.0</ele><time>2026-05-05T09:00:16.171Z</time></trkpt><trkpt lat="37.6939383" lon="15.1660917"><ele>204.0</ele><time>2026-05-05T09:00:17.171Z</time></trkpt><trkpt lat="37.693705" lon="15.1659817"><ele>204.0</ele><time>2026-05-05T09:00:18.171Z</time></trkpt><trkpt lat="37.6934683" lon="15.1658733"><ele>204.0</ele><time>2026-05-05T09:00:19.171Z</time></trkpt><trkpt lat="37.69323" lon="15.165765"><ele>204.0</ele><time>2026-05-05T09:00:20.171Z</time></trkpt><trkpt lat="37.6929917" lon="15.16566"><ele>206.0</ele><time>2026-05-05T09:00:21.171Z</time></trkpt><trkpt lat="37.69275" lon="15.1655567"><ele>208.0</ele><time>2026-05-05T09:00:22.171Z</time></trkpt><trkpt lat="37.69251" lon="15.1654567"><ele>208.0</ele><time>2026-05-05T09:00:23.172Z</time></trkpt><trkpt lat="37.692275" lon="15.1653567"><ele>208.0</ele><time>2026-05-05T09:00:24.171Z</time></trkpt><trkpt lat="37.6920367" lon="15.16526"><ele>209.5</ele><time>2026-05-05T09:00:25.171Z</time></trkpt><trkpt lat="37.6917917" lon="15.1651467"><ele>211.0</ele><time>2026-05-05T09:00:26.171Z</time></trkpt><trkpt lat="37.691545" lon="15.1650383"><ele>211.0</ele><time>2026-05-05T09:00:27.171Z</time></trkpt><trkpt lat="37.6913033" lon="15.1649333"><ele>211.0</ele><time>2026-05-05T09:00:28.172Z</time></trkpt><trkpt lat="37.69106" lon="15.1648283"><ele>210.0</ele><time>2026-05-05T09:00:29.171Z</time></trkpt><trkpt lat="37.6908167" lon="15.164725"><ele>209.0</ele><time>2026-05-05T09:00:30.171Z</time></trkpt><trkpt lat="37.6905733" lon="15.1646267"><ele>209.0</ele><time>2026-05-05T09:00:31.171Z</time></trkpt><trkpt lat="37.69033" lon="15.1645183"><ele>209.0</ele><time>2026-05-05T09:00:32.172Z</time></trkpt><trkpt lat="37.6900867" lon="15.1644067"><ele>208.0</ele><time>2026-05-05T09:00:33.171Z</time></trkpt><trkpt lat="37.6898367" lon="15.164305"><ele>207.0</ele><time>2026-05-05T09:00:34.172Z</time></trkpt><trkpt lat="37.68959" lon="15.164195"><ele>209.0</ele><time>2026-05-05T09:00:35.171Z</time></trkpt><trkpt lat="37.689345" lon="15.1640917"><ele>211.0</ele><time>2026-05-05T09:00:36.171Z</time></trkpt><trkpt lat="37.6890983" lon="15.1639833"><ele>212.0</ele><time>2026-05-05T09:00:37.171Z</time></trkpt><trkpt lat="37.6888583" lon="15.163875"><ele>213.0</ele><time>2026-05-05T09:00:38.171Z</time></trkpt><trkpt lat="37.6886167" lon="15.1637633"><ele>215.5</ele><time>2026-05-05T09:00:39.171Z</time></trkpt><trkpt lat="37.6883767" lon="15.16365"><ele>218.0</ele><time>2026-05-05T09:00:40.171Z</time></trkpt><trkpt lat="37.68814" lon="15.16353"><ele>218.0</ele><time>2026-05-05T09:00:41.171Z</time></trkpt><trkpt lat="37.687905" lon="15.1634"><ele>218.0</ele><time>2026-05-05T09:00:42.171Z</time></trkpt><trkpt lat="37.6876733" lon="15.1632617"><ele>219.0</ele><time>2026-05-05T09:00:43.171Z</time></trkpt><trkpt lat="37.6874433" lon="15.1631233"><ele>220.0</ele><time>2026-05-05T09:00:44.171Z</time></trkpt><trkpt lat="37.6872133" lon="15.162985"><ele>220.0</ele><time>2026-05-05T09:00:45.171Z</time></trkpt><trkpt lat="37.686985" lon="15.162835"><ele>220.0</ele><time>2026-05-05T09:00:46.172Z</time></trkpt><trkpt lat="37.686755" lon="15.1626733"><ele>218.5</ele><time>2026-05-05T09:00:47.171Z</time></trkpt><trkpt lat="37.6865333" lon="15.1625217"><ele>217.0</ele><time>2026-05-05T09:00:48.171Z</time></trkpt><trkpt lat="37.68631" lon="15.162365"><ele>216.0</ele><time>2026-05-05T09:00:49.171Z</time></trkpt><trkpt lat="37.686085" lon="15.1622067"><ele>215.0</ele><time>2026-05-05T09:00:50.171Z</time></trkpt><trkpt lat="37.6858533" lon="15.1620533"><ele>215.0</ele><time>2026-05-05T09:00:51.171Z</time></trkpt><trkpt lat="37.6856267" lon="15.1619"><ele>215.0</ele><time>2026-05-05T09:00:52.171Z</time></trkpt><trkpt lat="37.6853983" lon="15.1617433"><ele>216.5</ele><time>2026-05-05T09:00:53.171Z</time></trkpt><trkpt lat="37.6851683" lon="15.1615917"><ele>218.0</ele><time>2026-05-05T09:00:54.171Z</time></trkpt><trkpt lat="37.6849433" lon="15.1614367"><ele>218.0</ele><time>2026-05-05T09:00:55.171Z</time></trkpt><trkpt lat="37.6847217" lon="15.16128"><ele>218.0</ele><time>2026-05-05T09:00:56.172Z</time></trkpt><trkpt lat="37.6844917" lon="15.16113"><ele>222.0</ele><time>2026-05-05T09:00:57.171Z</time></trkpt><trkpt lat="37.6842733" lon="15.1609683"><ele>226.0</ele><time>2026-05-05T09:00:58.171Z</time></trkpt><trkpt lat="37.6840533" lon="15.16082"><ele>225.5</ele><time>2026-05-05T09:00:59.171Z</time></trkpt><trkpt lat="37.6838183" lon="15.1606617"><ele>225.0</ele><time>2026-05-05T09:01:00.171Z</time></trkpt><trkpt lat="37.68359" lon="15.1605067"><ele>224.5</ele><time>2026-05-05T09:01:01.171Z</time></trkpt><trkpt lat="37.6833633" lon="15.1603433"><ele>224.0</ele><time>2026-05-05T09:01:02.171Z</time></trkpt><trkpt lat="37.6831383" lon="15.1601833"><ele>224.0</ele><time>2026-05-05T09:01:03.171Z</time></trkpt><trkpt lat="37.6829117" lon="15.1600283"><ele>224.0</ele><time>2026-05-05T09:01:04.172Z</time></trkpt><trkpt lat="37.6826817" lon="15.1598767"><ele>225.5</ele><time>2026-05-05T09:01:05.171Z</time></trkpt><trkpt lat="37.682455" lon="15.1597233"><ele>227.0</ele><time>2026-05-05T09:01:06.171Z</time></trkpt><trkpt lat="37.682225" lon="15.1595683"><ele>227.0</ele><time>2026-05-05T09:01:07.171Z</time></trkpt><trkpt lat="37.681995" lon="15.1594167"><ele>227.0</ele><time>2026-05-05T09:01:08.171Z</time></trkpt><trkpt lat="37.681775" lon="15.1592583"><ele>226.5</ele><time>2026-05-05T09:01:09.171Z</time></trkpt><trkpt lat="37.6815483" lon="15.1591033"><ele>226.0</ele><time>2026-05-05T09:01:10.171Z</time></trkpt><trkpt lat="37.6813217" lon="15.1589533"><ele>227.5</ele><time>2026-05-05T09:01:11.171Z</time></trkpt><trkpt lat="37.6810867" lon="15.1588067"><ele>229.0</ele><time>2026-05-05T09:01:12.171Z</time></trkpt><trkpt lat="37.6808483" lon="15.15866"><ele>229.0</ele><time>2026-05-05T09:01:13.171Z</time></trkpt><trkpt lat="37.6806083" lon="15.1585267"><ele>229.0</ele><time>2026-05-05T09:01:14.171Z</time></trkpt><trkpt lat="37.680365" lon="15.1584017"><ele>226.0</ele><time>2026-05-05T09:01:15.171Z</time></trkpt><trkpt lat="37.6801267" lon="15.15828"><ele>223.0</ele><time>2026-05-05T09:01:16.171Z</time></trkpt><trkpt lat="37.679885" lon="15.1581733"><ele>222.5</ele><time>2026-05-05T09:01:17.171Z</time></trkpt><trkpt lat="37.67964" lon="15.1580667"><ele>222.0</ele><time>2026-05-05T09:01:18.172Z</time></trkpt><trkpt lat="37.679395" lon="15.15797"><ele>219.5</ele><time>2026-05-05T09:01:19.171Z</time></trkpt><trkpt lat="37.679145" lon="15.1578783"><ele>217.0</ele><time>2026-05-05T09:01:20.171Z</time></trkpt><trkpt lat="37.678895" lon="15.1577983"><ele>217.0</ele><time>2026-05-05T09:01:21.171Z</time></trkpt><trkpt lat="37.678645" lon="15.1577183"><ele>217.0</ele><time>2026-05-05T09:01:22.171Z</time></trkpt><trkpt lat="37.67839" lon="15.1576383"><ele>217.0</ele><time>2026-05-05T09:01:23.171Z</time></trkpt><trkpt lat="37.6781383" lon="15.157565"><ele>217.0</ele><time>2026-05-05T09:01:24.172Z</time></trkpt><trkpt lat="37.6778917" lon="15.1574833"><ele>215.0</ele><time>2026-05-05T09:01:25.171Z</time></trkpt><trkpt lat="37.6776467" lon="15.1574033"><ele>213.0</ele><time>2026-05-05T09:01:26.171Z</time></trkpt><trkpt lat="37.6773917" lon="15.15732"><ele>217.5</ele><time>2026-05-05T09:01:27.171Z</time></trkpt><trkpt lat="37.67714" lon="15.15724"><ele>222.0</ele><time>2026-05-05T09:01:28.171Z</time></trkpt><trkpt lat="37.67689" lon="15.157155"><ele>222.0</ele><time>2026-05-05T09:01:29.172Z</time></trkpt><trkpt lat="37.6766417" lon="15.1570633"><ele>222.0</ele><time>2026-05-05T09:01:30.171Z</time></trkpt><trkpt lat="37.676395" lon="15.1569633"><ele>222.0</ele><time>2026-05-05T09:01:31.172Z</time></trkpt><trkpt lat="37.6761567" lon="15.1568583"><ele>222.0</ele><time>2026-05-05T09:01:32.171Z</time></trkpt><trkpt lat="37.6759267" lon="15.1567333"><ele>221.0</ele><time>2026-05-05T09:01:33.171Z</time></trkpt><trkpt lat="37.6756933" lon="15.1566"><ele>220.0</ele><time>2026-05-05T09:01:34.171Z</time></trkpt><trkpt lat="37.6754567" lon="15.1564617"><ele>218.0</ele><time>2026-05-05T09:01:35.171Z</time></trkpt><trkpt lat="37.6752267" lon="15.1563133"><ele>216.0</ele><time>2026-05-05T09:01:36.171Z</time></trkpt><trkpt lat="37.675" lon="15.1561583"><ele>216.0</ele><time>2026-05-05T09:01:37.171Z</time></trkpt><trkpt lat="37.6747783" lon="15.1559917"><ele>216.0</ele><time>2026-05-05T09:01:38.172Z</time></trkpt><trkpt lat="37.674555" lon="15.1558317"><ele>214.0</ele><time>2026-05-05T09:01:39.171Z</time></trkpt><trkpt lat="37.6743383" lon="15.1556583"><ele>212.0</ele><time>2026-05-05T09:01:40.171Z</time></trkpt><trkpt lat="37.6741233" lon="15.1554817"><ele>212.0</ele><time>2026-05-05T09:01:41.172Z</time></trkpt><trkpt lat="37.6739067" lon="15.1553067"><ele>212.0</ele><time>2026-05-05T09:01:42.171Z</time></trkpt><trkpt lat="37.67369" lon="15.1551317"><ele>212.0</ele><time>2026-05-05T09:01:43.172Z</time></trkpt><trkpt lat="37.6734633" lon="15.1549633"><ele>212.0</ele><time>2026-05-05T09:01:44.172Z</time></trkpt><trkpt lat="37.67324" lon="15.1547933"><ele>211.5</ele><time>2026-05-05T09:01:45.171Z</time></trkpt><trkpt lat="37.673025" lon="15.154625"><ele>211.0</ele><time>2026-05-05T09:01:46.171Z</time></trkpt><trkpt lat="37.6728017" lon="15.1544533"><ele>210.0</ele><time>2026-05-05T09:01:47.171Z</time></trkpt><trkpt lat="37.672585" lon="15.15428"><ele>209.0</ele><time>2026-05-05T09:01:48.171Z</time></trkpt><trkpt lat="37.6723667" lon="15.1540983"><ele>210.0</ele><time>2026-05-05T09:01:49.172Z</time></trkpt><trkpt lat="37.6721517" lon="15.15392"><ele>211.0</ele><time>2026-05-05T09:01:50.171Z</time></trkpt><trkpt lat="37.6719317" lon="15.15375"><ele>211.5</ele><time>2026-05-05T09:01:51.171Z</time></trkpt><trkpt lat="37.6717167" lon="15.1535733"><ele>212.0</ele><time>2026-05-05T09:01:52.171Z</time></trkpt><trkpt lat="37.6715033" lon="15.1534033"><ele>212.0</ele><time>2026-05-05T09:01:53.171Z</time></trkpt><trkpt lat="37.6712833" lon="15.1532267"><ele>212.0</ele><time>2026-05-05T09:01:54.171Z</time></trkpt><trkpt lat="37.67107" lon="15.1530483"><ele>212.0</ele><time>2026-05-05T09:01:55.171Z</time></trkpt><trkpt lat="37.67085" lon="15.1528717"><ele>212.0</ele><time>2026-05-05T09:01:56.171Z</time></trkpt><trkpt lat="37.6706433" lon="15.1526983"><ele>212.0</ele><time>2026-05-05T09:01:57.171Z</time></trkpt><trkpt lat="37.6704217" lon="15.1525233"><ele>212.0</ele><time>2026-05-05T09:01:58.171Z</time></trkpt><trkpt lat="37.6702033" lon="15.152355"><ele>213.5</ele><time>2026-05-05T09:01:59.171Z</time></trkpt><trkpt lat="37.6699817" lon="15.1521883"><ele>215.0</ele><time>2026-05-05T09:02:00.171Z</time></trkpt><trkpt lat="37.6697667" lon="15.1520267"><ele>215.0</ele><time>2026-05-05T09:02:01.171Z</time></trkpt><trkpt lat="37.66954" lon="15.1518683"><ele>215.0</ele><time>2026-05-05T09:02:02.171Z</time></trkpt><trkpt lat="37.6693117" lon="15.1517217"><ele>217.0</ele><time>2026-05-05T09:02:03.171Z</time></trkpt><trkpt lat="37.6690783" lon="15.1515767"><ele>219.0</ele><time>2026-05-05T09:02:04.172Z</time></trkpt><trkpt lat="37.6688433" lon="15.1514383"><ele>221.5</ele><time>2026-05-05T09:02:05.171Z</time></trkpt><trkpt lat="37.668605" lon="15.1513067"><ele>224.0</ele><time>2026-05-05T09:02:06.172Z</time></trkpt><trkpt lat="37.66837" lon="15.151175"><ele>224.0</ele><time>2026-05-05T09:02:07.171Z</time></trkpt><trkpt lat="37.6681317" lon="15.1510533"><ele>224.0</ele><time>2026-05-05T09:02:08.171Z</time></trkpt><trkpt lat="37.66789" lon="15.15094"><ele>223.0</ele><time>2026-05-05T09:02:09.172Z</time></trkpt><trkpt lat="37.66765" lon="15.15083"><ele>222.0</ele><time>2026-05-05T09:02:10.172Z</time></trkpt><trkpt lat="37.6674083" lon="15.150725"><ele>224.5</ele><time>2026-05-05T09:02:11.171Z</time></trkpt><trkpt lat="37.6671633" lon="15.1506233"><ele>227.0</ele><time>2026-05-05T09:02:12.171Z</time></trkpt><trkpt lat="37.666915" lon="15.1505333"><ele>228.0</ele><time>2026-05-05T09:02:13.171Z</time></trkpt><trkpt lat="37.6666633" lon="15.1504467"><ele>229.0</ele><time>2026-05-05T09:02:14.171Z</time></trkpt><trkpt lat="37.666415" lon="15.1503683"><ele>229.0</ele><time>2026-05-05T09:02:15.171Z</time></trkpt><trkpt lat="37.6661667" lon="15.15029"><ele>229.0</ele><time>2026-05-05T09:02:16.171Z</time></trkpt><trkpt lat="37.66592" lon="15.1502217"><ele>229.5</ele><time>2026-05-05T09:02:17.171Z</time></trkpt><trkpt lat="37.66567" lon="15.150165"><ele>230.0</ele><time>2026-05-05T09:02:18.171Z</time></trkpt><trkpt lat="37.6654267" lon="15.1501117"><ele>228.5</ele><time>2026-05-05T09:02:19.171Z</time></trkpt><trkpt lat="37.6651883" lon="15.150065"><ele>227.0</ele><time>2026-05-05T09:02:20.172Z</time></trkpt><trkpt lat="37.6649533" lon="15.15003"><ele>227.0</ele><time>2026-05-05T09:02:21.171Z</time></trkpt><trkpt lat="37.6647183" lon="15.1499967"><ele>227.0</ele><time>2026-05-05T09:02:22.171Z</time></trkpt><trkpt lat="37.6644867" lon="15.1499717"><ele>230.0</ele><time>2026-05-05T09:02:23.171Z</time></trkpt><trkpt lat="37.6642567" lon="15.1499483"><ele>233.0</ele><time>2026-05-05T09:02:24.172Z</time></trkpt><trkpt lat="37.66402" lon="15.1499283"><ele>233.0</ele><time>2026-05-05T09:02:25.171Z</time></trkpt><trkpt lat="37.66379" lon="15.1499067"><ele>233.0</ele><time>2026-05-05T09:02:26.171Z</time></trkpt><trkpt lat="37.66356" lon="15.149895"><ele>235.5</ele><time>2026-05-05T09:02:27.171Z</time></trkpt><trkpt lat="37.6633283" lon="15.1498817"><ele>238.0</ele><time>2026-05-05T09:02:28.171Z</time></trkpt><trkpt lat="37.6630983" lon="15.149875"><ele>238.5</ele><time>2026-05-05T09:02:29.171Z</time></trkpt><trkpt lat="37.6628733" lon="15.1498733"><ele>239.0</ele><time>2026-05-05T09:02:30.172Z</time></trkpt><trkpt lat="37.6626483" lon="15.1498683"><ele>241.33333333333334</ele><time>2026-05-05T09:02:31.171Z</time></trkpt><trkpt lat="37.66243" lon="15.149865"><ele>243.66666666666669</ele><time>2026-05-05T09:02:32.171Z</time></trkpt><trkpt lat="37.6622017" lon="15.1498633"><ele>246.0</ele><time>2026-05-05T09:02:33.171Z</time></trkpt><trkpt lat="37.66198" lon="15.1498583"><ele>247.0</ele><time>2026-05-05T09:02:34.171Z</time></trkpt><trkpt lat="37.661755" lon="15.1498583"><ele>248.0</ele><time>2026-05-05T09:02:35.171Z</time></trkpt><trkpt lat="37.6615317" lon="15.14985"><ele>249.0</ele><time>2026-05-05T09:02:36.171Z</time></trkpt><trkpt lat="37.661305" lon="15.1498467"><ele>250.0</ele><time>2026-05-05T09:02:37.171Z</time></trkpt><trkpt lat="37.6610767" lon="15.1498467"><ele>251.0</ele><time>2026-05-05T09:02:38.171Z</time></trkpt><trkpt lat="37.6608467" lon="15.1498483"><ele>251.0</ele><time>2026-05-05T09:02:39.171Z</time></trkpt><trkpt lat="37.6606167" lon="15.1498417"><ele>251.0</ele><time>2026-05-05T09:02:40.171Z</time></trkpt><trkpt lat="37.660385" lon="15.1498333"><ele>251.5</ele><time>2026-05-05T09:02:41.171Z</time></trkpt><trkpt lat="37.660155" lon="15.14983"><ele>252.0</ele><time>2026-05-05T09:02:42.171Z</time></trkpt><trkpt lat="37.6599283" lon="15.149825"><ele>252.0</ele><time>2026-05-05T09:02:43.172Z</time></trkpt><trkpt lat="37.659695" lon="15.14982"><ele>252.0</ele><time>2026-05-05T09:02:44.171Z</time></trkpt><trkpt lat="37.6594667" lon="15.149815"><ele>251.0</ele><time>2026-05-05T09:02:45.171Z</time></trkpt><trkpt lat="37.6592283" lon="15.14981"><ele>250.0</ele><time>2026-05-05T09:02:46.171Z</time></trkpt><trkpt lat="37.6589883" lon="15.1498067"><ele>250.0</ele><time>2026-05-05T09:02:47.171Z</time></trkpt><trkpt lat="37.65874" lon="15.1498083"><ele>250.0</ele><time>2026-05-05T09:02:48.171Z</time></trkpt><trkpt lat="37.658485" lon="15.14981"><ele>250.0</ele><time>2026-05-05T09:02:49.171Z</time></trkpt><trkpt lat="37.65822" lon="15.1498"><ele>250.0</ele><time>2026-05-05T09:02:50.171Z</time></trkpt><trkpt lat="37.6579517" lon="15.1497967"><ele>249.5</ele><time>2026-05-05T09:02:51.171Z</time></trkpt><trkpt lat="37.6576867" lon="15.149795"><ele>249.0</ele><time>2026-05-05T09:02:52.171Z</time></trkpt><trkpt lat="37.65741" lon="15.1497867"><ele>249.0</ele><time>2026-05-05T09:02:53.171Z</time></trkpt><trkpt lat="37.6571367" lon="15.1497867"><ele>249.0</ele><time>2026-05-05T09:02:54.171Z</time></trkpt><trkpt lat="37.6568633" lon="15.1497783"><ele>248.5</ele><time>2026-05-05T09:02:55.172Z</time></trkpt><trkpt lat="37.6565933" lon="15.1497683"><ele>248.0</ele><time>2026-05-05T09:02:56.171Z</time></trkpt><trkpt lat="37.65632" lon="15.149755"><ele>251.0</ele><time>2026-05-05T09:02:57.171Z</time></trkpt><trkpt lat="37.6560417" lon="15.149745"><ele>254.0</ele><time>2026-05-05T09:02:58.171Z</time></trkpt><trkpt lat="37.6557567" lon="15.1497383"><ele>254.0</ele><time>2026-05-05T09:02:59.171Z</time></trkpt><trkpt lat="37.6554733" lon="15.1497283"><ele>254.0</ele><time>2026-05-05T09:03:00.171Z</time></trkpt><trkpt lat="37.6551933" lon="15.14972"><ele>254.0</ele><time>2026-05-05T09:03:01.171Z</time></trkpt><trkpt lat="37.6549167" lon="15.1497033"><ele>254.0</ele><time>2026-05-05T09:03:02.171Z</time></trkpt><trkpt lat="37.65464" lon="15.1496783"><ele>257.0</ele><time>2026-05-05T09:03:03.171Z</time></trkpt><trkpt lat="37.6543633" lon="15.1496483"><ele>260.0</ele><time>2026-05-05T09:03:04.172Z</time></trkpt><trkpt lat="37.6541" lon="15.1496083"><ele>260.0</ele><time>2026-05-05T09:03:05.172Z</time></trkpt><trkpt lat="37.6538317" lon="15.1495733"><ele>260.0</ele><time>2026-05-05T09:03:06.171Z</time></trkpt><trkpt lat="37.65357" lon="15.1495267"><ele>259.5</ele><time>2026-05-05T09:03:07.171Z</time></trkpt><trkpt lat="37.653305" lon="15.1494717"><ele>259.0</ele><time>2026-05-05T09:03:08.171Z</time></trkpt><trkpt lat="37.6530383" lon="15.149425"><ele>257.5</ele><time>2026-05-05T09:03:09.171Z</time></trkpt><trkpt lat="37.652775" lon="15.149365"><ele>256.0</ele><time>2026-05-05T09:03:10.171Z</time></trkpt><trkpt lat="37.6525167" lon="15.1493033"><ele>256.0</ele><time>2026-05-05T09:03:11.171Z</time></trkpt><trkpt lat="37.652255" lon="15.1492433"><ele>256.0</ele><time>2026-05-05T09:03:12.171Z</time></trkpt><trkpt lat="37.6519983" lon="15.1491767"><ele>255.5</ele><time>2026-05-05T09:03:13.171Z</time></trkpt><trkpt lat="37.651745" lon="15.1491033"><ele>255.0</ele><time>2026-05-05T09:03:14.171Z</time></trkpt><trkpt lat="37.65148" lon="15.149025"><ele>256.0</ele><time>2026-05-05T09:03:15.172Z</time></trkpt><trkpt lat="37.6512217" lon="15.1489383"><ele>257.0</ele><time>2026-05-05T09:03:16.171Z</time></trkpt><trkpt lat="37.6509667" lon="15.1488533"><ele>257.0</ele><time>2026-05-05T09:03:17.171Z</time></trkpt><trkpt lat="37.650705" lon="15.1487717"><ele>257.0</ele><time>2026-05-05T09:03:18.171Z</time></trkpt><trkpt lat="37.65044" lon="15.14869"><ele>257.0</ele><time>2026-05-05T09:03:19.171Z</time></trkpt><trkpt lat="37.6501767" lon="15.1486083"><ele>257.0</ele><time>2026-05-05T09:03:20.171Z</time></trkpt><trkpt lat="37.6499167" lon="15.1485283"><ele>257.0</ele><time>2026-05-05T09:03:21.171Z</time></trkpt><trkpt lat="37.6496533" lon="15.14845"><ele>257.0</ele><time>2026-05-05T09:03:22.171Z</time></trkpt><trkpt lat="37.6493967" lon="15.1483717"><ele>256.0</ele><time>2026-05-05T09:03:23.171Z</time></trkpt><trkpt lat="37.64914" lon="15.1482833"><ele>255.0</ele><time>2026-05-05T09:03:24.171Z</time></trkpt><trkpt lat="37.6488817" lon="15.1482"><ele>258.0</ele><time>2026-05-05T09:03:25.171Z</time></trkpt><trkpt lat="37.6486217" lon="15.1481167"><ele>261.0</ele><time>2026-05-05T09:03:26.171Z</time></trkpt><trkpt lat="37.6483617" lon="15.148035"><ele>261.0</ele><time>2026-05-05T09:03:27.171Z</time></trkpt><trkpt lat="37.6481017" lon="15.1479483"><ele>261.0</ele><time>2026-05-05T09:03:28.172Z</time></trkpt><trkpt lat="37.647845" lon="15.1478617"><ele>260.5</ele><time>2026-05-05T09:03:29.171Z</time></trkpt><trkpt lat="37.6475883" lon="15.1477733"><ele>260.0</ele><time>2026-05-05T09:03:30.172Z</time></trkpt><trkpt lat="37.6473283" lon="15.1476917"><ele>260.0</ele><time>2026-05-05T09:03:31.171Z</time></trkpt><trkpt lat="37.64707" lon="15.1476067"><ele>260.0</ele><time>2026-05-05T09:03:32.171Z</time></trkpt><trkpt lat="37.6468133" lon="15.1475267"><ele>261.0</ele><time>2026-05-05T09:03:33.171Z</time></trkpt><trkpt lat="37.6465567" lon="15.1474417"><ele>262.0</ele><time>2026-05-05T09:03:34.171Z</time></trkpt><trkpt lat="37.646295" lon="15.147355"><ele>265.0</ele><time>2026-05-05T09:03:35.171Z</time></trkpt><trkpt lat="37.646035" lon="15.1472717"><ele>268.0</ele><time>2026-05-05T09:03:36.171Z</time></trkpt><trkpt lat="37.6457767" lon="15.1471883"><ele>268.0</ele><time>2026-05-05T09:03:37.171Z</time></trkpt><trkpt lat="37.64552" lon="15.147105"><ele>268.0</ele><time>2026-05-05T09:03:38.171Z</time></trkpt><trkpt lat="37.64526" lon="15.1470217"><ele>267.5</ele><time>2026-05-05T09:03:39.171Z</time></trkpt><trkpt lat="37.6450017" lon="15.1469433"><ele>267.0</ele><time>2026-05-05T09:03:40.171Z</time></trkpt><trkpt lat="37.6447383" lon="15.1468633"><ele>267.0</ele><time>2026-05-05T09:03:41.171Z</time></trkpt><trkpt lat="37.6444783" lon="15.1467767"><ele>267.0</ele><time>2026-05-05T09:03:42.171Z</time></trkpt><trkpt lat="37.6442167" lon="15.1466917"><ele>264.5</ele><time>2026-05-05T09:03:43.171Z</time></trkpt><trkpt lat="37.6439583" lon="15.1466083"><ele>262.0</ele><time>2026-05-05T09:03:44.171Z</time></trkpt><trkpt lat="37.6437" lon="15.146525"><ele>263.0</ele><time>2026-05-05T09:03:45.171Z</time></trkpt><trkpt lat="37.6434483" lon="15.1464433"><ele>264.0</ele><time>2026-05-05T09:03:46.171Z</time></trkpt><trkpt lat="37.643195" lon="15.146355"><ele>264.0</ele><time>2026-05-05T09:03:47.171Z</time></trkpt><trkpt lat="37.6429383" lon="15.1462733"><ele>264.0</ele><time>2026-05-05T09:03:48.171Z</time></trkpt><trkpt lat="37.6426817" lon="15.1461867"><ele>261.5</ele><time>2026-05-05T09:03:49.172Z</time></trkpt><trkpt lat="37.6424217" lon="15.1460983"><ele>259.0</ele><time>2026-05-05T09:03:50.171Z</time></trkpt><trkpt lat="37.6421583" lon="15.1460167"><ele>259.5</ele><time>2026-05-05T09:03:51.171Z</time></trkpt><trkpt lat="37.6419" lon="15.1459317"><ele>260.0</ele><time>2026-05-05T09:03:52.171Z</time></trkpt><trkpt lat="37.6416433" lon="15.14585"><ele>260.0</ele><time>2026-05-05T09:03:53.171Z</time></trkpt><trkpt lat="37.641385" lon="15.1457717"><ele>260.0</ele><time>2026-05-05T09:03:54.171Z</time></trkpt><trkpt lat="37.6411283" lon="15.1456883"><ele>262.0</ele><time>2026-05-05T09:03:55.171Z</time></trkpt><trkpt lat="37.6408733" lon="15.1456"><ele>264.0</ele><time>2026-05-05T09:03:56.171Z</time></trkpt><trkpt lat="37.64062" lon="15.1455083"><ele>264.0</ele><time>2026-05-05T09:03:57.171Z</time></trkpt><trkpt lat="37.6403633" lon="15.145415"><ele>264.0</ele><time>2026-05-05T09:03:58.171Z</time></trkpt><trkpt lat="37.6401083" lon="15.1453317"><ele>267.0</ele><time>2026-05-05T09:03:59.171Z</time></trkpt><trkpt lat="37.63985" lon="15.1452417"><ele>270.0</ele><time>2026-05-05T09:04:00.171Z</time></trkpt><trkpt lat="37.6395917" lon="15.1451517"><ele>269.5</ele><time>2026-05-05T09:04:01.171Z</time></trkpt><trkpt lat="37.6393317" lon="15.1450767"><ele>269.0</ele><time>2026-05-05T09:04:02.171Z</time></trkpt><trkpt lat="37.6390733" lon="15.1450117"><ele>269.0</ele><time>2026-05-05T09:04:03.171Z</time></trkpt><trkpt lat="37.638815" lon="15.1449533"><ele>269.0</ele><time>2026-05-05T09:04:04.171Z</time></trkpt><trkpt lat="37.6385533" lon="15.1448917"><ele>274.5</ele><time>2026-05-05T09:04:05.171Z</time></trkpt><trkpt lat="37.6382883" lon="15.1448417"><ele>280.0</ele><time>2026-05-05T09:04:06.171Z</time></trkpt><trkpt lat="37.63802" lon="15.1448067"><ele>281.5</ele><time>2026-05-05T09:04:07.171Z</time></trkpt><trkpt lat="37.63775" lon="15.1447767"><ele>283.0</ele><time>2026-05-05T09:04:08.171Z</time></trkpt><trkpt lat="37.6374817" lon="15.14475"><ele>283.0</ele><time>2026-05-05T09:04:09.171Z</time></trkpt><trkpt lat="37.637215" lon="15.1447233"><ele>283.0</ele><time>2026-05-05T09:04:10.171Z</time></trkpt><trkpt lat="37.6369467" lon="15.1447017"><ele>283.0</ele><time>2026-05-05T09:04:11.171Z</time></trkpt><trkpt lat="37.6366817" lon="15.144685"><ele>283.0</ele><time>2026-05-05T09:04:12.171Z</time></trkpt><trkpt lat="37.636415" lon="15.1446683"><ele>283.0</ele><time>2026-05-05T09:04:13.171Z</time></trkpt><trkpt lat="37.6361483" lon="15.14464"><ele>283.0</ele><time>2026-05-05T09:04:14.171Z</time></trkpt><trkpt lat="37.63588" lon="15.14461"><ele>285.5</ele><time>2026-05-05T09:04:15.172Z</time></trkpt><trkpt lat="37.635615" lon="15.144585"><ele>288.0</ele><time>2026-05-05T09:04:16.171Z</time></trkpt><trkpt lat="37.635345" lon="15.1445633"><ele>288.0</ele><time>2026-05-05T09:04:17.172Z</time></trkpt><trkpt lat="37.6350833" lon="15.1445417"><ele>288.0</ele><time>2026-05-05T09:04:18.171Z</time></trkpt><trkpt lat="37.63481" lon="15.1445183"><ele>288.0</ele><time>2026-05-05T09:04:19.172Z</time></trkpt><trkpt lat="37.6345433" lon="15.14448"><ele>288.0</ele><time>2026-05-05T09:04:20.171Z</time></trkpt><trkpt lat="37.6342817" lon="15.1444317"><ele>286.0</ele><time>2026-05-05T09:04:21.171Z</time></trkpt><trkpt lat="37.634025" lon="15.14437"><ele>284.0</ele><time>2026-05-05T09:04:22.171Z</time></trkpt><trkpt lat="37.6337617" lon="15.1442967"><ele>283.0</ele><time>2026-05-05T09:04:23.172Z</time></trkpt><trkpt lat="37.6335033" lon="15.1442083"><ele>282.0</ele><time>2026-05-05T09:04:24.171Z</time></trkpt><trkpt lat="37.6332417" lon="15.14412"><ele>282.5</ele><time>2026-05-05T09:04:25.171Z</time></trkpt><trkpt lat="37.632985" lon="15.144025"><ele>283.0</ele><time>2026-05-05T09:04:26.171Z</time></trkpt><trkpt lat="37.63273" lon="15.1439183"><ele>281.5</ele><time>2026-05-05T09:04:27.171Z</time></trkpt><trkpt lat="37.6324817" lon="15.143795"><ele>280.0</ele><time>2026-05-05T09:04:28.171Z</time></trkpt><trkpt lat="37.6322417" lon="15.14367"><ele>280.0</ele><time>2026-05-05T09:04:29.171Z</time></trkpt><trkpt lat="37.631995" lon="15.1435383"><ele>280.0</ele><time>2026-05-05T09:04:30.171Z</time></trkpt><trkpt lat="37.6317467" lon="15.1434133"><ele>279.0</ele><time>2026-05-05T09:04:31.171Z</time></trkpt><trkpt lat="37.6315017" lon="15.1432833"><ele>278.0</ele><time>2026-05-05T09:04:32.171Z</time></trkpt><trkpt lat="37.6312583" lon="15.14316"><ele>281.5</ele><time>2026-05-05T09:04:33.171Z</time></trkpt><trkpt lat="37.631015" lon="15.1430383"><ele>285.0</ele><time>2026-05-05T09:04:34.171Z</time></trkpt><trkpt lat="37.63077" lon="15.14291"><ele>285.0</ele><time>2026-05-05T09:04:35.171Z</time></trkpt><trkpt lat="37.6305233" lon="15.1427767"><ele>285.0</ele><time>2026-05-05T09:04:36.171Z</time></trkpt><trkpt lat="37.6302717" lon="15.1426533"><ele>286.5</ele><time>2026-05-05T09:04:37.171Z</time></trkpt><trkpt lat="37.6300267" lon="15.1425367"><ele>288.0</ele><time>2026-05-05T09:04:38.171Z</time></trkpt><trkpt lat="37.6297767" lon="15.1424233"><ele>288.5</ele><time>2026-05-05T09:04:39.171Z</time></trkpt><trkpt lat="37.6295233" lon="15.1423117"><ele>289.0</ele><time>2026-05-05T09:04:40.171Z</time></trkpt><trkpt lat="37.629265" lon="15.1422167"><ele>289.5</ele><time>2026-05-05T09:04:41.171Z</time></trkpt><trkpt lat="37.629005" lon="15.1421183"><ele>290.0</ele><time>2026-05-05T09:04:42.171Z</time></trkpt><trkpt lat="37.628745" lon="15.1420283"><ele>290.5</ele><time>2026-05-05T09:04:43.171Z</time></trkpt><trkpt lat="37.628485" lon="15.141945"><ele>291.0</ele><time>2026-05-05T09:04:44.172Z</time></trkpt><trkpt lat="37.6282283" lon="15.1418733"><ele>291.0</ele><time>2026-05-05T09:04:45.171Z</time></trkpt><trkpt lat="37.62797" lon="15.1418033"><ele>291.0</ele><time>2026-05-05T09:04:46.171Z</time></trkpt><trkpt lat="37.62771" lon="15.141745"><ele>291.0</ele><time>2026-05-05T09:04:47.171Z</time></trkpt><trkpt lat="37.627445" lon="15.1416867"><ele>291.0</ele><time>2026-05-05T09:04:48.171Z</time></trkpt><trkpt lat="37.6271733" lon="15.141615"><ele>290.5</ele><time>2026-05-05T09:04:49.171Z</time></trkpt><trkpt lat="37.626905" lon="15.141555"><ele>290.0</ele><time>2026-05-05T09:04:50.171Z</time></trkpt><trkpt lat="37.6266433" lon="15.1414867"><ele>292.0</ele><time>2026-05-05T09:04:51.171Z</time></trkpt><trkpt lat="37.6263783" lon="15.1414217"><ele>294.0</ele><time>2026-05-05T09:04:52.172Z</time></trkpt><trkpt lat="37.6261167" lon="15.1413533"><ele>290.0</ele><time>2026-05-05T09:04:53.171Z</time></trkpt><trkpt lat="37.6258483" lon="15.1412967"><ele>286.0</ele><time>2026-05-05T09:04:54.171Z</time></trkpt><trkpt lat="37.6255883" lon="15.14122"><ele>286.0</ele><time>2026-05-05T09:04:55.172Z</time></trkpt><trkpt lat="37.6253283" lon="15.1411533"><ele>286.0</ele><time>2026-05-05T09:04:56.171Z</time></trkpt><trkpt lat="37.6250633" lon="15.1410683"><ele>285.0</ele><time>2026-05-05T09:04:57.171Z</time></trkpt><trkpt lat="37.6248083" lon="15.1409767"><ele>284.0</ele><time>2026-05-05T09:04:58.172Z</time></trkpt><trkpt lat="37.6245567" lon="15.1408783"><ele>282.5</ele><time>2026-05-05T09:04:59.172Z</time></trkpt><trkpt lat="37.6243017" lon="15.1407567"><ele>281.0</ele><time>2026-05-05T09:05:00.171Z</time></trkpt><trkpt lat="37.624055" lon="15.1406317"><ele>280.5</ele><time>2026-05-05T09:05:01.172Z</time></trkpt><trkpt lat="37.6238133" lon="15.1405033"><ele>280.0</ele><time>2026-05-05T09:05:02.172Z</time></trkpt><trkpt lat="37.623575" lon="15.140355"><ele>280.0</ele><time>2026-05-05T09:05:03.171Z</time></trkpt><trkpt lat="37.6233417" lon="15.140195"><ele>280.0</ele><time>2026-05-05T09:05:04.171Z</time></trkpt><trkpt lat="37.623105" lon="15.140035"><ele>280.0</ele><time>2026-05-05T09:05:05.172Z</time></trkpt><trkpt lat="37.6228683" lon="15.139865"><ele>280.0</ele><time>2026-05-05T09:05:06.172Z</time></trkpt><trkpt lat="37.6226467" lon="15.1396867"><ele>280.0</ele><time>2026-05-05T09:05:07.171Z</time></trkpt><trkpt lat="37.6224317" lon="15.139485"><ele>280.0</ele><time>2026-05-05T09:05:08.172Z</time></trkpt><trkpt lat="37.622225" lon="15.1392817"><ele>280.0</ele><time>2026-05-05T09:05:09.171Z</time></trkpt><trkpt lat="37.62201" lon="15.1390733"><ele>280.0</ele><time>2026-05-05T09:05:10.171Z</time></trkpt><trkpt lat="37.6218067" lon="15.1388617"><ele>279.0</ele><time>2026-05-05T09:05:11.171Z</time></trkpt><trkpt lat="37.6216083" lon="15.1386433"><ele>278.0</ele><time>2026-05-05T09:05:12.171Z</time></trkpt><trkpt lat="37.621415" lon="15.1384167"><ele>277.5</ele><time>2026-05-05T09:05:13.171Z</time></trkpt><trkpt lat="37.6212217" lon="15.13819"><ele>277.0</ele><time>2026-05-05T09:05:14.171Z</time></trkpt><trkpt lat="37.6210233" lon="15.137975"><ele>275.5</ele><time>2026-05-05T09:05:15.172Z</time></trkpt><trkpt lat="37.6208183" lon="15.1377467"><ele>274.0</ele><time>2026-05-05T09:05:16.171Z</time></trkpt><trkpt lat="37.620615" lon="15.1375383"><ele>277.5</ele><time>2026-05-05T09:05:17.171Z</time></trkpt><trkpt lat="37.6204033" lon="15.1373317"><ele>281.0</ele><time>2026-05-05T09:05:18.171Z</time></trkpt><trkpt lat="37.620195" lon="15.1371183"><ele>281.0</ele><time>2026-05-05T09:05:19.171Z</time></trkpt><trkpt lat="37.619995" lon="15.1368917"><ele>281.0</ele><time>2026-05-05T09:05:20.171Z</time></trkpt><trkpt lat="37.6197933" lon="15.136675"><ele>282.5</ele><time>2026-05-05T09:05:21.171Z</time></trkpt><trkpt lat="37.6195833" lon="15.136465"><ele>284.0</ele><time>2026-05-05T09:05:22.171Z</time></trkpt><trkpt lat="37.6193667" lon="15.1362583"><ele>284.0</ele><time>2026-05-05T09:05:23.171Z</time></trkpt><trkpt lat="37.61915" lon="15.1360667"><ele>284.0</ele><time>2026-05-05T09:05:24.171Z</time></trkpt><trkpt lat="37.618925" lon="15.135885"><ele>283.5</ele><time>2026-05-05T09:05:25.171Z</time></trkpt><trkpt lat="37.618705" lon="15.135715"><ele>283.0</ele><time>2026-05-05T09:05:26.171Z</time></trkpt><trkpt lat="37.6184767" lon="15.1355383"><ele>283.0</ele><time>2026-05-05T09:05:27.171Z</time></trkpt><trkpt lat="37.6182383" lon="15.13538"><ele>283.0</ele><time>2026-05-05T09:05:28.172Z</time></trkpt><trkpt lat="37.6180083" lon="15.1352383"><ele>282.0</ele><time>2026-05-05T09:05:29.172Z</time></trkpt><trkpt lat="37.617785" lon="15.135105"><ele>281.0</ele><time>2026-05-05T09:05:30.171Z</time></trkpt><trkpt lat="37.6175617" lon="15.134985"><ele>282.5</ele><time>2026-05-05T09:05:31.171Z</time></trkpt><trkpt lat="37.6173283" lon="15.13487"><ele>284.0</ele><time>2026-05-05T09:05:32.171Z</time></trkpt><trkpt lat="37.6170917" lon="15.1347633"><ele>283.5</ele><time>2026-05-05T09:05:33.171Z</time></trkpt><trkpt lat="37.6168433" lon="15.1346433"><ele>283.0</ele><time>2026-05-05T09:05:34.171Z</time></trkpt><trkpt lat="37.6165917" lon="15.1345533"><ele>283.0</ele><time>2026-05-05T09:05:35.171Z</time></trkpt><trkpt lat="37.61634" lon="15.1344717"><ele>283.0</ele><time>2026-05-05T09:05:36.172Z</time></trkpt><trkpt lat="37.6160817" lon="15.1343833"><ele>283.5</ele><time>2026-05-05T09:05:37.171Z</time></trkpt><trkpt lat="37.61582" lon="15.134315"><ele>284.0</ele><time>2026-05-05T09:05:38.172Z</time></trkpt><trkpt lat="37.6155533" lon="15.1342533"><ele>286.0</ele><time>2026-05-05T09:05:39.172Z</time></trkpt><trkpt lat="37.6152783" lon="15.1341933"><ele>288.0</ele><time>2026-05-05T09:05:40.171Z</time></trkpt><trkpt lat="37.6149967" lon="15.1341483"><ele>288.0</ele><time>2026-05-05T09:05:41.171Z</time></trkpt><trkpt lat="37.6147217" lon="15.1341167"><ele>288.0</ele><time>2026-05-05T09:05:42.171Z</time></trkpt><trkpt lat="37.61444" lon="15.1340967"><ele>287.5</ele><time>2026-05-05T09:05:43.171Z</time></trkpt><trkpt lat="37.61416" lon="15.13408"><ele>287.0</ele><time>2026-05-05T09:05:44.171Z</time></trkpt><trkpt lat="37.61388" lon="15.13408"><ele>287.5</ele><time>2026-05-05T09:05:45.171Z</time></trkpt><trkpt lat="37.613595" lon="15.1340967"><ele>288.0</ele><time>2026-05-05T09:05:46.171Z</time></trkpt><trkpt lat="37.6133117" lon="15.13412"><ele>288.0</ele><time>2026-05-05T09:05:47.171Z</time></trkpt><trkpt lat="37.6130267" lon="15.1341533"><ele>288.0</ele><time>2026-05-05T09:05:48.171Z</time></trkpt><trkpt lat="37.61274" lon="15.134195"><ele>287.0</ele><time>2026-05-05T09:05:49.172Z</time></trkpt><trkpt lat="37.612455" lon="15.1342433"><ele>286.0</ele><time>2026-05-05T09:05:50.171Z</time></trkpt><trkpt lat="37.6121667" lon="15.1342933"><ele>286.0</ele><time>2026-05-05T09:05:51.171Z</time></trkpt><trkpt lat="37.6118783" lon="15.1343367"><ele>286.0</ele><time>2026-05-05T09:05:52.171Z</time></trkpt><trkpt lat="37.6115917" lon="15.134365"><ele>286.0</ele><time>2026-05-05T09:05:53.171Z</time></trkpt><trkpt lat="37.6113117" lon="15.1343933"><ele>286.0</ele><time>2026-05-05T09:05:54.171Z</time></trkpt><trkpt lat="37.6110417" lon="15.134425"><ele>286.5</ele><time>2026-05-05T09:05:55.171Z</time></trkpt><trkpt lat="37.610775" lon="15.1344567"><ele>287.0</ele><time>2026-05-05T09:05:56.171Z</time></trkpt><trkpt lat="37.6105167" lon="15.13449"><ele>285.0</ele><time>2026-05-05T09:05:57.171Z</time></trkpt><trkpt lat="37.6102583" lon="15.1345133"><ele>283.0</ele><time>2026-05-05T09:05:58.171Z</time></trkpt><trkpt lat="37.61" lon="15.1345333"><ele>283.0</ele><time>2026-05-05T09:05:59.171Z</time></trkpt><trkpt lat="37.6097467" lon="15.13454"><ele>283.0</ele><time>2026-05-05T09:06:00.171Z</time></trkpt><trkpt lat="37.6094983" lon="15.13454"><ele>282.5</ele><time>2026-05-05T09:06:01.171Z</time></trkpt><trkpt lat="37.6092417" lon="15.13453"><ele>282.0</ele><time>2026-05-05T09:06:02.172Z</time></trkpt><trkpt lat="37.60899" lon="15.1345067"><ele>282.0</ele><time>2026-05-05T09:06:03.171Z</time></trkpt><trkpt lat="37.6087333" lon="15.134475"><ele>282.0</ele><time>2026-05-05T09:06:04.171Z</time></trkpt><trkpt lat="37.6084833" lon="15.1344433"><ele>281.0</ele><time>2026-05-05T09:06:05.171Z</time></trkpt><trkpt lat="37.6082317" lon="15.1344"><ele>280.0</ele><time>2026-05-05T09:06:06.171Z</time></trkpt><trkpt lat="37.607985" lon="15.13434"><ele>280.5</ele><time>2026-05-05T09:06:07.171Z</time></trkpt><trkpt lat="37.60773" lon="15.1342733"><ele>281.0</ele><time>2026-05-05T09:06:08.172Z</time></trkpt><trkpt lat="37.6074767" lon="15.1342"><ele>281.0</ele><time>2026-05-05T09:06:09.171Z</time></trkpt><trkpt lat="37.60722" lon="15.134125"><ele>281.0</ele><time>2026-05-05T09:06:10.171Z</time></trkpt><trkpt lat="37.6069583" lon="15.1340233"><ele>282.0</ele><time>2026-05-05T09:06:11.171Z</time></trkpt><trkpt lat="37.606685" lon="15.133905"><ele>283.0</ele><time>2026-05-05T09:06:12.171Z</time></trkpt><trkpt lat="37.606415" lon="15.133785"><ele>280.5</ele><time>2026-05-05T09:06:13.171Z</time></trkpt><trkpt lat="37.6061433" lon="15.1336533"><ele>278.0</ele><time>2026-05-05T09:06:14.171Z</time></trkpt><trkpt lat="37.605865" lon="15.1335183"><ele>278.0</ele><time>2026-05-05T09:06:15.171Z</time></trkpt><trkpt lat="37.6055933" lon="15.1333867"><ele>278.0</ele><time>2026-05-05T09:06:16.172Z</time></trkpt><trkpt lat="37.6053167" lon="15.1332533"><ele>279.5</ele><time>2026-05-05T09:06:17.171Z</time></trkpt><trkpt lat="37.6050483" lon="15.1331283"><ele>281.0</ele><time>2026-05-05T09:06:18.171Z</time></trkpt><trkpt lat="37.6047867" lon="15.132995"><ele>281.0</ele><time>2026-05-05T09:06:19.172Z</time></trkpt><trkpt lat="37.604525" lon="15.1328617"><ele>281.0</ele><time>2026-05-05T09:06:20.171Z</time></trkpt><trkpt lat="37.6042717" lon="15.1327333"><ele>280.0</ele><time>2026-05-05T09:06:21.171Z</time></trkpt><trkpt lat="37.6040167" lon="15.1326167"><ele>279.0</ele><time>2026-05-05T09:06:22.171Z</time></trkpt><trkpt lat="37.6037733" lon="15.1325017"><ele>282.0</ele><time>2026-05-05T09:06:23.171Z</time></trkpt><trkpt lat="37.6035383" lon="15.1323883"><ele>285.0</ele><time>2026-05-05T09:06:24.171Z</time></trkpt><trkpt lat="37.6032983" lon="15.13228"><ele>285.0</ele><time>2026-05-05T09:06:25.172Z</time></trkpt><trkpt lat="37.6030683" lon="15.1321733"><ele>285.0</ele><time>2026-05-05T09:06:26.17Z</time></trkpt><trkpt lat="37.60284" lon="15.1320633"><ele>288.0</ele><time>2026-05-05T09:06:27.17Z</time></trkpt><trkpt lat="37.6026117" lon="15.1319583"><ele>291.0</ele><time>2026-05-05T09:06:28.17Z</time></trkpt><trkpt lat="37.6023817" lon="15.131855"><ele>291.0</ele><time>2026-05-05T09:06:29.17Z</time></trkpt><trkpt lat="37.6021467" lon="15.1317467"><ele>291.0</ele><time>2026-05-05T09:06:30.17Z</time></trkpt><trkpt lat="37.601915" lon="15.1316333"><ele>292.5</ele><time>2026-05-05T09:06:31.171Z</time></trkpt><trkpt lat="37.6016867" lon="15.1315233"><ele>294.0</ele><time>2026-05-05T09:06:32.17Z</time></trkpt><trkpt lat="37.6014567" lon="15.1314083"><ele>294.0</ele><time>2026-05-05T09:06:33.171Z</time></trkpt><trkpt lat="37.601215" lon="15.1313017"><ele>294.0</ele><time>2026-05-05T09:06:34.17Z</time></trkpt><trkpt lat="37.6009833" lon="15.1312"><ele>294.5</ele><time>2026-05-05T09:06:35.17Z</time></trkpt><trkpt lat="37.6007483" lon="15.1310967"><ele>295.0</ele><time>2026-05-05T09:06:36.17Z</time></trkpt><trkpt lat="37.6005133" lon="15.1309867"><ele>293.5</ele><time>2026-05-05T09:06:37.171Z</time></trkpt><trkpt lat="37.6002867" lon="15.1308783"><ele>292.0</ele><time>2026-05-05T09:06:38.17Z</time></trkpt><trkpt lat="37.6000567" lon="15.1307667"><ele>292.5</ele><time>2026-05-05T09:06:39.17Z</time></trkpt><trkpt lat="37.5998217" lon="15.1306533"><ele>293.0</ele><time>2026-05-05T09:06:40.17Z</time></trkpt><trkpt lat="37.5995867" lon="15.1305433"><ele>292.0</ele><time>2026-05-05T09:06:41.17Z</time></trkpt><trkpt lat="37.599355" lon="15.130435"><ele>291.0</ele><time>2026-05-05T09:06:42.171Z</time></trkpt><trkpt lat="37.59912" lon="15.13032"><ele>291.0</ele><time>2026-05-05T09:06:43.17Z</time></trkpt><trkpt lat="37.59889" lon="15.1302167"><ele>291.0</ele><time>2026-05-05T09:06:44.17Z</time></trkpt><trkpt lat="37.5986533" lon="15.1301133"><ele>292.0</ele><time>2026-05-05T09:06:45.17Z</time></trkpt><trkpt lat="37.598415" lon="15.13001"><ele>293.0</ele><time>2026-05-05T09:06:46.17Z</time></trkpt><trkpt lat="37.5981733" lon="15.1299117"><ele>294.0</ele><time>2026-05-05T09:06:47.17Z</time></trkpt><trkpt lat="37.59793" lon="15.1298183"><ele>295.0</ele><time>2026-05-05T09:06:48.17Z</time></trkpt><trkpt lat="37.5976783" lon="15.1297333"><ele>295.5</ele><time>2026-05-05T09:06:49.17Z</time></trkpt><trkpt lat="37.5974283" lon="15.1296583"><ele>296.0</ele><time>2026-05-05T09:06:50.17Z</time></trkpt><trkpt lat="37.597175" lon="15.1295867"><ele>297.0</ele><time>2026-05-05T09:06:51.17Z</time></trkpt><trkpt lat="37.59692" lon="15.129525"><ele>298.0</ele><time>2026-05-05T09:06:52.17Z</time></trkpt><trkpt lat="37.5966617" lon="15.1294683"><ele>298.0</ele><time>2026-05-05T09:06:53.17Z</time></trkpt><trkpt lat="37.5964067" lon="15.129405"><ele>298.0</ele><time>2026-05-05T09:06:54.17Z</time></trkpt><trkpt lat="37.5961483" lon="15.1293583"><ele>297.5</ele><time>2026-05-05T09:06:55.17Z</time></trkpt><trkpt lat="37.5958867" lon="15.12932"><ele>297.0</ele><time>2026-05-05T09:06:56.17Z</time></trkpt><trkpt lat="37.5956267" lon="15.12927"><ele>297.0</ele><time>2026-05-05T09:06:57.17Z</time></trkpt><trkpt lat="37.5953683" lon="15.1292267"><ele>297.0</ele><time>2026-05-05T09:06:58.17Z</time></trkpt><trkpt lat="37.5951133" lon="15.1291883"><ele>299.5</ele><time>2026-05-05T09:06:59.17Z</time></trkpt><trkpt lat="37.594855" lon="15.1291533"><ele>302.0</ele><time>2026-05-05T09:07:00.17Z</time></trkpt><trkpt lat="37.5945967" lon="15.129125"><ele>302.5</ele><time>2026-05-05T09:07:01.17Z</time></trkpt><trkpt lat="37.594345" lon="15.1290933"><ele>303.0</ele><time>2026-05-05T09:07:02.17Z</time></trkpt><trkpt lat="37.5940883" lon="15.1290583"><ele>306.0</ele><time>2026-05-05T09:07:03.17Z</time></trkpt><trkpt lat="37.5938333" lon="15.1290217"><ele>309.0</ele><time>2026-05-05T09:07:04.17Z</time></trkpt><trkpt lat="37.5935783" lon="15.1289817"><ele>309.0</ele><time>2026-05-05T09:07:05.17Z</time></trkpt><trkpt lat="37.5933217" lon="15.12893"><ele>309.0</ele><time>2026-05-05T09:07:06.17Z</time></trkpt><trkpt lat="37.593065" lon="15.1288733"><ele>311.0</ele><time>2026-05-05T09:07:07.17Z</time></trkpt><trkpt lat="37.59281" lon="15.1288183"><ele>313.0</ele><time>2026-05-05T09:07:08.17Z</time></trkpt><trkpt lat="37.5925567" lon="15.1287583"><ele>313.0</ele><time>2026-05-05T09:07:09.17Z</time></trkpt><trkpt lat="37.592305" lon="15.1286967"><ele>313.0</ele><time>2026-05-05T09:07:10.17Z</time></trkpt><trkpt lat="37.59205" lon="15.1286233"><ele>314.5</ele><time>2026-05-05T09:07:11.17Z</time></trkpt><trkpt lat="37.5917983" lon="15.12855"><ele>316.0</ele><time>2026-05-05T09:07:12.17Z</time></trkpt><trkpt lat="37.5915467" lon="15.1284683"><ele>316.0</ele><time>2026-05-05T09:07:13.17Z</time></trkpt><trkpt lat="37.5912917" lon="15.1283917"><ele>316.0</ele><time>2026-05-05T09:07:14.17Z</time></trkpt><trkpt lat="37.5910333" lon="15.1283067"><ele>318.5</ele><time>2026-05-05T09:07:15.171Z</time></trkpt><trkpt lat="37.5907833" lon="15.12821"><ele>321.0</ele><time>2026-05-05T09:07:16.17Z</time></trkpt><trkpt lat="37.59054" lon="15.1281033"><ele>320.5</ele><time>2026-05-05T09:07:17.17Z</time></trkpt><trkpt lat="37.5902917" lon="15.1279917"><ele>320.0</ele><time>2026-05-05T09:07:18.17Z</time></trkpt><trkpt lat="37.59005" lon="15.127875"><ele>320.0</ele><time>2026-05-05T09:07:19.17Z</time></trkpt><trkpt lat="37.58981" lon="15.1277517"><ele>320.0</ele><time>2026-05-05T09:07:20.17Z</time></trkpt><trkpt lat="37.589575" lon="15.1276117"><ele>319.0</ele><time>2026-05-05T09:07:21.17Z</time></trkpt><trkpt lat="37.5893383" lon="15.1274767"><ele>318.0</ele><time>2026-05-05T09:07:22.17Z</time></trkpt><trkpt lat="37.5891033" lon="15.12733"><ele>317.5</ele><time>2026-05-05T09:07:23.17Z</time></trkpt><trkpt lat="37.58887" lon="15.127185"><ele>317.0</ele><time>2026-05-05T09:07:24.17Z</time></trkpt><trkpt lat="37.58864" lon="15.127035"><ele>317.0</ele><time>2026-05-05T09:07:25.17Z</time></trkpt><trkpt lat="37.588405" lon="15.126875"><ele>317.0</ele><time>2026-05-05T09:07:26.17Z</time></trkpt><trkpt lat="37.58818" lon="15.1267083"><ele>317.0</ele><time>2026-05-05T09:07:27.17Z</time></trkpt><trkpt lat="37.5879567" lon="15.1265417"><ele>317.0</ele><time>2026-05-05T09:07:28.17Z</time></trkpt><trkpt lat="37.587735" lon="15.1263667"><ele>315.0</ele><time>2026-05-05T09:07:29.17Z</time></trkpt><trkpt lat="37.58751" lon="15.1261867"><ele>313.0</ele><time>2026-05-05T09:07:30.17Z</time></trkpt><trkpt lat="37.5872933" lon="15.12601"><ele>313.0</ele><time>2026-05-05T09:07:31.17Z</time></trkpt><trkpt lat="37.5870767" lon="15.1258367"><ele>313.0</ele><time>2026-05-05T09:07:32.17Z</time></trkpt><trkpt lat="37.5868633" lon="15.1256683"><ele>314.0</ele><time>2026-05-05T09:07:33.171Z</time></trkpt><trkpt lat="37.58666" lon="15.1255"><ele>315.0</ele><time>2026-05-05T09:07:34.171Z</time></trkpt><trkpt lat="37.586455" lon="15.1253333"><ele>315.0</ele><time>2026-05-05T09:07:35.17Z</time></trkpt><trkpt lat="37.5862533" lon="15.12517"><ele>315.0</ele><time>2026-05-05T09:07:36.171Z</time></trkpt><trkpt lat="37.5860617" lon="15.125005"><ele>318.5</ele><time>2026-05-05T09:07:37.17Z</time></trkpt><trkpt lat="37.5858717" lon="15.124845"><ele>322.0</ele><time>2026-05-05T09:07:38.17Z</time></trkpt><trkpt lat="37.5856717" lon="15.1246867"><ele>322.0</ele><time>2026-05-05T09:07:39.17Z</time></trkpt><trkpt lat="37.5854683" lon="15.12452"><ele>322.0</ele><time>2026-05-05T09:07:40.17Z</time></trkpt><trkpt lat="37.5852633" lon="15.124345"><ele>324.0</ele><time>2026-05-05T09:07:41.171Z</time></trkpt><trkpt lat="37.5850533" lon="15.1241667"><ele>326.0</ele><time>2026-05-05T09:07:42.17Z</time></trkpt><trkpt lat="37.5848417" lon="15.123985"><ele>330.5</ele><time>2026-05-05T09:07:43.17Z</time></trkpt><trkpt lat="37.5846267" lon="15.12381"><ele>335.0</ele><time>2026-05-05T09:07:44.17Z</time></trkpt><trkpt lat="37.58441" lon="15.1236233"><ele>335.0</ele><time>2026-05-05T09:07:45.17Z</time></trkpt><trkpt lat="37.584195" lon="15.1234417"><ele>335.0</ele><time>2026-05-05T09:07:46.17Z</time></trkpt><trkpt lat="37.583975" lon="15.1232467"><ele>334.5</ele><time>2026-05-05T09:07:47.171Z</time></trkpt><trkpt lat="37.5837567" lon="15.1230483"><ele>334.0</ele><time>2026-05-05T09:07:48.17Z</time></trkpt><trkpt lat="37.5835417" lon="15.1228617"><ele>334.0</ele><time>2026-05-05T09:07:49.17Z</time></trkpt><trkpt lat="37.583325" lon="15.12267"><ele>334.0</ele><time>2026-05-05T09:07:50.17Z</time></trkpt><trkpt lat="37.583115" lon="15.1224667"><ele>335.0</ele><time>2026-05-05T09:07:51.17Z</time></trkpt><trkpt lat="37.5829017" lon="15.1222533"><ele>336.0</ele><time>2026-05-05T09:07:52.17Z</time></trkpt><trkpt lat="37.5826933" lon="15.12204"><ele>336.0</ele><time>2026-05-05T09:07:53.171Z</time></trkpt><trkpt lat="37.58249" lon="15.1218133"><ele>336.0</ele><time>2026-05-05T09:07:54.17Z</time></trkpt><trkpt lat="37.58229" lon="15.12159"><ele>338.0</ele><time>2026-05-05T09:07:55.17Z</time></trkpt><trkpt lat="37.582095" lon="15.1213667"><ele>340.0</ele><time>2026-05-05T09:07:56.17Z</time></trkpt><trkpt lat="37.581905" lon="15.1211383"><ele>336.0</ele><time>2026-05-05T09:07:57.171Z</time></trkpt><trkpt lat="37.5817183" lon="15.1209"><ele>332.0</ele><time>2026-05-05T09:07:58.17Z</time></trkpt><trkpt lat="37.581535" lon="15.1206517"><ele>331.5</ele><time>2026-05-05T09:07:59.17Z</time></trkpt><trkpt lat="37.5813617" lon="15.1204033"><ele>331.0</ele><time>2026-05-05T09:08:00.17Z</time></trkpt><trkpt lat="37.5811883" lon="15.1201517"><ele>332.0</ele><time>2026-05-05T09:08:01.17Z</time></trkpt><trkpt lat="37.58103" lon="15.1199067"><ele>333.0</ele><time>2026-05-05T09:08:02.17Z</time></trkpt><trkpt lat="37.5808783" lon="15.1196783"><ele>335.0</ele><time>2026-05-05T09:08:03.17Z</time></trkpt><trkpt lat="37.58073" lon="15.119445"><ele>337.0</ele><time>2026-05-05T09:08:04.17Z</time></trkpt><trkpt lat="37.5805917" lon="15.1192167"><ele>337.0</ele><time>2026-05-05T09:08:05.171Z</time></trkpt><trkpt lat="37.580455" lon="15.1189867"><ele>337.0</ele><time>2026-05-05T09:08:06.17Z</time></trkpt><trkpt lat="37.5803233" lon="15.1187667"><ele>337.0</ele><time>2026-05-05T09:08:07.17Z</time></trkpt><trkpt lat="37.5801917" lon="15.1185483"><ele>337.0</ele><time>2026-05-05T09:08:08.17Z</time></trkpt><trkpt lat="37.58007" lon="15.1183283"><ele>337.0</ele><time>2026-05-05T09:08:09.17Z</time></trkpt><trkpt lat="37.5799533" lon="15.1181133"><ele>337.0</ele><time>2026-05-05T09:08:10.17Z</time></trkpt><trkpt lat="37.5798333" lon="15.1179033"><ele>337.0</ele><time>2026-05-05T09:08:11.17Z</time></trkpt><trkpt lat="37.5797167" lon="15.117695"><ele>337.0</ele><time>2026-05-05T09:08:12.17Z</time></trkpt><trkpt lat="37.5795967" lon="15.1174917"><ele>337.0</ele><time>2026-05-05T09:08:13.171Z</time></trkpt><trkpt lat="37.5794917" lon="15.1172867"><ele>337.0</ele><time>2026-05-05T09:08:14.17Z</time></trkpt><trkpt lat="37.5793683" lon="15.117095"><ele>337.0</ele><time>2026-05-05T09:08:15.17Z</time></trkpt><trkpt lat="37.57925" lon="15.116905"><ele>337.0</ele><time>2026-05-05T09:08:16.171Z</time></trkpt><trkpt lat="37.57913" lon="15.1167033"><ele>337.0</ele><time>2026-05-05T09:08:17.17Z</time></trkpt><trkpt lat="37.5790217" lon="15.1164967"><ele>337.0</ele><time>2026-05-05T09:08:18.17Z</time></trkpt><trkpt lat="37.5788983" lon="15.11628"><ele>337.0</ele><time>2026-05-05T09:08:19.17Z</time></trkpt><trkpt lat="37.5787733" lon="15.1160633"><ele>337.0</ele><time>2026-05-05T09:08:20.171Z</time></trkpt><trkpt lat="37.5786417" lon="15.115835"><ele>337.0</ele><time>2026-05-05T09:08:21.17Z</time></trkpt><trkpt lat="37.5785083" lon="15.1156117"><ele>337.0</ele><time>2026-05-05T09:08:22.17Z</time></trkpt><trkpt lat="37.57838" lon="15.1153833"><ele>337.0</ele><time>2026-05-05T09:08:23.17Z</time></trkpt><trkpt lat="37.5782467" lon="15.1151583"><ele>337.0</ele><time>2026-05-05T09:08:24.17Z</time></trkpt><trkpt lat="37.57812" lon="15.11492"><ele>337.5</ele><time>2026-05-05T09:08:25.17Z</time></trkpt><trkpt lat="37.57799" lon="15.1146883"><ele>338.0</ele><time>2026-05-05T09:08:26.17Z</time></trkpt><trkpt lat="37.577855" lon="15.1144517"><ele>338.0</ele><time>2026-05-05T09:08:27.171Z</time></trkpt><trkpt lat="37.5777233" lon="15.1142167"><ele>338.0</ele><time>2026-05-05T09:08:28.17Z</time></trkpt><trkpt lat="37.577585" lon="15.113985"><ele>339.0</ele><time>2026-05-05T09:08:29.17Z</time></trkpt><trkpt lat="37.5774533" lon="15.1137483"><ele>340.0</ele><time>2026-05-05T09:08:30.17Z</time></trkpt><trkpt lat="37.5773167" lon="15.1135117"><ele>340.0</ele><time>2026-05-05T09:08:31.17Z</time></trkpt><trkpt lat="37.577175" lon="15.1132717"><ele>340.0</ele><time>2026-05-05T09:08:32.17Z</time></trkpt><trkpt lat="37.5770333" lon="15.113035"><ele>340.0</ele><time>2026-05-05T09:08:33.17Z</time></trkpt><trkpt lat="37.57689" lon="15.1128"><ele>340.0</ele><time>2026-05-05T09:08:34.17Z</time></trkpt><trkpt lat="37.57674" lon="15.11257"><ele>339.5</ele><time>2026-05-05T09:08:35.171Z</time></trkpt><trkpt lat="37.5765817" lon="15.1123433"><ele>339.0</ele><time>2026-05-05T09:08:36.17Z</time></trkpt><trkpt lat="37.5764167" lon="15.1121183"><ele>339.0</ele><time>2026-05-05T09:08:37.17Z</time></trkpt><trkpt lat="37.5762483" lon="15.111895"><ele>339.0</ele><time>2026-05-05T09:08:38.17Z</time></trkpt><trkpt lat="37.576075" lon="15.1116783"><ele>338.5</ele><time>2026-05-05T09:08:39.17Z</time></trkpt><trkpt lat="37.5759" lon="15.1114683"><ele>338.0</ele><time>2026-05-05T09:08:40.17Z</time></trkpt><trkpt lat="37.5757183" lon="15.11126"><ele>338.0</ele><time>2026-05-05T09:08:41.17Z</time></trkpt><trkpt lat="37.5755417" lon="15.1110517"><ele>338.0</ele><time>2026-05-05T09:08:42.17Z</time></trkpt><trkpt lat="37.57536" lon="15.110835"><ele>336.5</ele><time>2026-05-05T09:08:43.17Z</time></trkpt><trkpt lat="37.575175" lon="15.1106233"><ele>335.0</ele><time>2026-05-05T09:08:44.171Z</time></trkpt><trkpt lat="37.5749867" lon="15.1104133"><ele>335.0</ele><time>2026-05-05T09:08:45.17Z</time></trkpt><trkpt lat="37.5747933" lon="15.1102133"><ele>335.0</ele><time>2026-05-05T09:08:46.17Z</time></trkpt><trkpt lat="37.574605" lon="15.110025"><ele>333.5</ele><time>2026-05-05T09:08:47.17Z</time></trkpt><trkpt lat="37.5744067" lon="15.1098433"><ele>332.0</ele><time>2026-05-05T09:08:48.17Z</time></trkpt><trkpt lat="37.5742067" lon="15.109665"><ele>332.0</ele><time>2026-05-05T09:08:49.17Z</time></trkpt><trkpt lat="37.5740033" lon="15.1094867"><ele>332.0</ele><time>2026-05-05T09:08:50.17Z</time></trkpt><trkpt lat="37.5738033" lon="15.109305"><ele>332.0</ele><time>2026-05-05T09:08:51.17Z</time></trkpt><trkpt lat="37.5736017" lon="15.1091233"><ele>332.0</ele><time>2026-05-05T09:08:52.17Z</time></trkpt><trkpt lat="37.5734017" lon="15.10894"><ele>332.0</ele><time>2026-05-05T09:08:53.17Z</time></trkpt><trkpt lat="37.5731917" lon="15.108745"><ele>332.0</ele><time>2026-05-05T09:08:54.17Z</time></trkpt><trkpt lat="37.5729817" lon="15.10855"><ele>331.5</ele><time>2026-05-05T09:08:55.17Z</time></trkpt><trkpt lat="37.572775" lon="15.108345"><ele>331.0</ele><time>2026-05-05T09:08:56.17Z</time></trkpt><trkpt lat="37.57255" lon="15.10813"><ele>331.0</ele><time>2026-05-05T09:08:57.17Z</time></trkpt><trkpt lat="37.5723067" lon="15.1079067"><ele>331.0</ele><time>2026-05-05T09:08:58.171Z</time></trkpt><trkpt lat="37.57205" lon="15.107665"><ele>332.0</ele><time>2026-05-05T09:08:59.17Z</time></trkpt><trkpt lat="37.57179" lon="15.1074217"><ele>333.0</ele><time>2026-05-05T09:09:00.17Z</time></trkpt><trkpt lat="37.5715267" lon="15.1071717"><ele>333.5</ele><time>2026-05-05T09:09:01.17Z</time></trkpt><trkpt lat="37.5712617" lon="15.10693"><ele>334.0</ele><time>2026-05-05T09:09:02.17Z</time></trkpt><trkpt lat="37.5710133" lon="15.106695"><ele>334.5</ele><time>2026-05-05T09:09:03.17Z</time></trkpt><trkpt lat="37.57077" lon="15.106465"><ele>335.0</ele><time>2026-05-05T09:09:04.17Z</time></trkpt><trkpt lat="37.5705383" lon="15.10625"><ele>335.0</ele><time>2026-05-05T09:09:05.17Z</time></trkpt><trkpt lat="37.5703167" lon="15.106045"><ele>335.0</ele><time>2026-05-05T09:09:06.17Z</time></trkpt><trkpt lat="37.5700983" lon="15.1058433"><ele>335.0</ele><time>2026-05-05T09:09:07.17Z</time></trkpt><trkpt lat="37.56989" lon="15.1056433"><ele>335.0</ele><time>2026-05-05T09:09:08.17Z</time></trkpt><trkpt lat="37.56968" lon="15.1054483"><ele>335.5</ele><time>2026-05-05T09:09:09.171Z</time></trkpt><trkpt lat="37.569475" lon="15.1052617"><ele>336.0</ele><time>2026-05-05T09:09:10.17Z</time></trkpt><trkpt lat="37.5692817" lon="15.105075"><ele>335.0</ele><time>2026-05-05T09:09:11.17Z</time></trkpt><trkpt lat="37.5690917" lon="15.1048983"><ele>334.0</ele><time>2026-05-05T09:09:12.17Z</time></trkpt><trkpt lat="37.5689017" lon="15.104725"><ele>334.0</ele><time>2026-05-05T09:09:13.17Z</time></trkpt><trkpt lat="37.568725" lon="15.104555"><ele>334.0</ele><time>2026-05-05T09:09:14.17Z</time></trkpt><trkpt lat="37.56855" lon="15.1043883"><ele>334.0</ele><time>2026-05-05T09:09:15.17Z</time></trkpt><trkpt lat="37.5683867" lon="15.1042383"><ele>334.0</ele><time>2026-05-05T09:09:16.17Z</time></trkpt><trkpt lat="37.56823" lon="15.104095"><ele>334.0</ele><time>2026-05-05T09:09:17.17Z</time></trkpt><trkpt lat="37.56808" lon="15.1039633"><ele>334.0</ele><time>2026-05-05T09:09:18.17Z</time></trkpt><trkpt lat="37.5679383" lon="15.10385"><ele>335.0</ele><time>2026-05-05T09:09:19.17Z</time></trkpt><trkpt lat="37.5678083" lon="15.1037417"><ele>336.0</ele><time>2026-05-05T09:09:20.17Z</time></trkpt><trkpt lat="37.5676933" lon="15.1036383"><ele>337.0</ele><time>2026-05-05T09:09:21.17Z</time></trkpt><trkpt lat="37.5675883" lon="15.1035433"><ele>338.0</ele><time>2026-05-05T09:09:22.17Z</time></trkpt><trkpt lat="37.5675" lon="15.103465"><ele>338.0</ele><time>2026-05-05T09:09:23.17Z</time></trkpt><trkpt lat="37.56742" lon="15.1033917"><ele>338.0</ele><time>2026-05-05T09:09:24.17Z</time></trkpt><trkpt lat="37.5673567" lon="15.1033267"><ele>338.0</ele><time>2026-05-05T09:09:25.17Z</time></trkpt><trkpt lat="37.5672967" lon="15.1032683"><ele>338.0</ele><time>2026-05-05T09:09:26.17Z</time></trkpt><trkpt lat="37.5672383" lon="15.1032133"><ele>338.0</ele><time>2026-05-05T09:09:27.17Z</time></trkpt><trkpt lat="37.5671733" lon="15.1031533"><ele>338.0</ele><time>2026-05-05T09:09:28.171Z</time></trkpt><trkpt lat="37.5671017" lon="15.1030917"><ele>338.2</ele><time>2026-05-05T09:09:29.17Z</time></trkpt><trkpt lat="37.5670267" lon="15.1030183"><ele>338.4</ele><time>2026-05-05T09:09:30.17Z</time></trkpt><trkpt lat="37.5669433" lon="15.1029433"><ele>338.59999999999997</ele><time>2026-05-05T09:09:31.17Z</time></trkpt><trkpt lat="37.5668517" lon="15.102855"><ele>338.79999999999995</ele><time>2026-05-05T09:09:32.17Z</time></trkpt><trkpt lat="37.5667583" lon="15.10276"><ele>339.0</ele><time>2026-05-05T09:09:33.17Z</time></trkpt><trkpt lat="37.56666" lon="15.1026667"><ele>339.0</ele><time>2026-05-05T09:09:34.17Z</time></trkpt><trkpt lat="37.5665533" lon="15.1025683"><ele>339.0</ele><time>2026-05-05T09:09:35.17Z</time></trkpt><trkpt lat="37.566455" lon="15.1024583"><ele>339.0</ele><time>2026-05-05T09:09:36.17Z</time></trkpt><trkpt lat="37.566355" lon="15.1023583"><ele>339.0</ele><time>2026-05-05T09:09:37.17Z</time></trkpt><trkpt lat="37.5662533" lon="15.1022483"><ele>339.0</ele><time>2026-05-05T09:09:38.17Z</time></trkpt><trkpt lat="37.5661517" lon="15.10214"><ele>339.0</ele><time>2026-05-05T09:09:39.17Z</time></trkpt><trkpt lat="37.56605" lon="15.1020283"><ele>339.0</ele><time>2026-05-05T09:09:40.17Z</time></trkpt><trkpt lat="37.56594" lon="15.1019167"><ele>339.0</ele><time>2026-05-05T09:09:41.17Z</time></trkpt><trkpt lat="37.5658317" lon="15.1018067"><ele>339.0</ele><time>2026-05-05T09:09:42.17Z</time></trkpt><trkpt lat="37.5657133" lon="15.1016917"><ele>339.0</ele><time>2026-05-05T09:09:43.171Z</time></trkpt><trkpt lat="37.5655933" lon="15.101575"><ele>339.0</ele><time>2026-05-05T09:09:44.17Z</time></trkpt><trkpt lat="37.5654833" lon="15.10145"><ele>339.0</ele><time>2026-05-05T09:09:45.17Z</time></trkpt><trkpt lat="37.565375" lon="15.1013317"><ele>339.25</ele><time>2026-05-05T09:09:46.17Z</time></trkpt><trkpt lat="37.5652667" lon="15.10121"><ele>339.5</ele><time>2026-05-05T09:09:47.17Z</time></trkpt><trkpt lat="37.5651533" lon="15.101085"><ele>339.75</ele><time>2026-05-05T09:09:48.17Z</time></trkpt><trkpt lat="37.5650417" lon="15.1009583"><ele>340.0</ele><time>2026-05-05T09:09:49.17Z</time></trkpt><trkpt lat="37.56493" lon="15.1008283"><ele>342.0</ele><time>2026-05-05T09:09:50.17Z</time></trkpt><trkpt lat="37.5648183" lon="15.1007017"><ele>344.0</ele><time>2026-05-05T09:09:51.17Z</time></trkpt><trkpt lat="37.5647017" lon="15.100565"><ele>346.0</ele><time>2026-05-05T09:09:52.171Z</time></trkpt><trkpt lat="37.5645917" lon="15.1004167"><ele>341.66666666666663</ele><time>2026-05-05T09:09:53.17Z</time></trkpt><trkpt lat="37.5644833" lon="15.1002717"><ele>337.3333333333333</ele><time>2026-05-05T09:09:54.17Z</time></trkpt><trkpt lat="37.5643783" lon="15.1001167"><ele>333.0</ele><time>2026-05-05T09:09:55.17Z</time></trkpt><trkpt lat="37.5642733" lon="15.0999567"><ele>334.0</ele><time>2026-05-05T09:09:56.17Z</time></trkpt><trkpt lat="37.564165" lon="15.0998"><ele>335.0</ele><time>2026-05-05T09:09:57.17Z</time></trkpt><trkpt lat="37.564055" lon="15.0996367"><ele>336.0</ele><time>2026-05-05T09:09:58.17Z</time></trkpt><trkpt lat="37.563945" lon="15.0994733"><ele>336.0</ele><time>2026-05-05T09:09:59.17Z</time></trkpt><trkpt lat="37.5638267" lon="15.09931"><ele>336.0</ele><time>2026-05-05T09:10:00.17Z</time></trkpt><trkpt lat="37.5637133" lon="15.0991417"><ele>336.0</ele><time>2026-05-05T09:10:01.17Z</time></trkpt><trkpt lat="37.5635983" lon="15.0989717"><ele>332.3333333333333</ele><time>2026-05-05T09:10:02.17Z</time></trkpt><trkpt lat="37.5634783" lon="15.0988067"><ele>328.66666666666663</ele><time>2026-05-05T09:10:03.17Z</time></trkpt><trkpt lat="37.5633583" lon="15.09864"><ele>325.0</ele><time>2026-05-05T09:10:04.17Z</time></trkpt><trkpt lat="37.5632383" lon="15.09846"><ele>325.0</ele><time>2026-05-05T09:10:05.17Z</time></trkpt><trkpt lat="37.563125" lon="15.0982833"><ele>325.0</ele><time>2026-05-05T09:10:06.17Z</time></trkpt><trkpt lat="37.5630133" lon="15.0981117"><ele>325.0</ele><time>2026-05-05T09:10:07.17Z</time></trkpt><trkpt lat="37.5628933" lon="15.0979467"><ele>322.0</ele><time>2026-05-05T09:10:08.17Z</time></trkpt><trkpt lat="37.5627767" lon="15.0977867"><ele>319.0</ele><time>2026-05-05T09:10:09.17Z</time></trkpt><trkpt lat="37.5626633" lon="15.0976167"><ele>316.0</ele><time>2026-05-05T09:10:10.171Z</time></trkpt><trkpt lat="37.5625467" lon="15.0974483"><ele>316.3333333333333</ele><time>2026-05-05T09:10:11.17Z</time></trkpt><trkpt lat="37.5624317" lon="15.0972767"><ele>316.6666666666667</ele><time>2026-05-05T09:10:12.17Z</time></trkpt><trkpt lat="37.5623183" lon="15.0971083"><ele>317.0</ele><time>2026-05-05T09:10:13.17Z</time></trkpt><trkpt lat="37.5622033" lon="15.0969367"><ele>317.0</ele><time>2026-05-05T09:10:14.17Z</time></trkpt><trkpt lat="37.5620883" lon="15.09677"><ele>317.0</ele><time>2026-05-05T09:10:15.17Z</time></trkpt><trkpt lat="37.5619717" lon="15.0966017"><ele>317.0</ele><time>2026-05-05T09:10:16.171Z</time></trkpt><trkpt lat="37.56186" lon="15.0964267"><ele>316.6666666666667</ele><time>2026-05-05T09:10:17.17Z</time></trkpt><trkpt lat="37.561745" lon="15.0962583"><ele>316.3333333333333</ele><time>2026-05-05T09:10:18.17Z</time></trkpt><trkpt lat="37.5616267" lon="15.0960833"><ele>316.0</ele><time>2026-05-05T09:10:19.17Z</time></trkpt><trkpt lat="37.5615133" lon="15.0959133"><ele>316.66666666666663</ele><time>2026-05-05T09:10:20.17Z</time></trkpt><trkpt lat="37.5614" lon="15.095745"><ele>317.3333333333333</ele><time>2026-05-05T09:10:21.171Z</time></trkpt><trkpt lat="37.5612783" lon="15.0955717"><ele>318.0</ele><time>2026-05-05T09:10:22.17Z</time></trkpt><trkpt lat="37.5611683" lon="15.0954067"><ele>315.6666666666667</ele><time>2026-05-05T09:10:23.17Z</time></trkpt><trkpt lat="37.5610583" lon="15.09524"><ele>313.33333333333337</ele><time>2026-05-05T09:10:24.17Z</time></trkpt><trkpt lat="37.5609367" lon="15.0950717"><ele>311.0</ele><time>2026-05-05T09:10:25.171Z</time></trkpt><trkpt lat="37.56082" lon="15.094905"><ele>311.0</ele><time>2026-05-05T09:10:26.17Z</time></trkpt><trkpt lat="37.5607" lon="15.0947383"><ele>311.0</ele><time>2026-05-05T09:10:27.17Z</time></trkpt><trkpt lat="37.5605867" lon="15.0945733"><ele>311.0</ele><time>2026-05-05T09:10:28.171Z</time></trkpt><trkpt lat="37.56047" lon="15.0943983"><ele>310.33333333333337</ele><time>2026-05-05T09:10:29.17Z</time></trkpt><trkpt lat="37.5603533" lon="15.0942267"><ele>309.6666666666667</ele><time>2026-05-05T09:10:30.17Z</time></trkpt><trkpt lat="37.5602367" lon="15.09405"><ele>309.0</ele><time>2026-05-05T09:10:31.171Z</time></trkpt><trkpt lat="37.5601217" lon="15.093875"><ele>309.0</ele><time>2026-05-05T09:10:32.17Z</time></trkpt><trkpt lat="37.56001" lon="15.0937067"><ele>309.0</ele><time>2026-05-05T09:10:33.17Z</time></trkpt><trkpt lat="37.5598967" lon="15.0935317"><ele>309.0</ele><time>2026-05-05T09:10:34.17Z</time></trkpt><trkpt lat="37.5597783" lon="15.0933617"><ele>309.6666666666667</ele><time>2026-05-05T09:10:35.17Z</time></trkpt><trkpt lat="37.5596633" lon="15.093195"><ele>310.33333333333337</ele><time>2026-05-05T09:10:36.171Z</time></trkpt><trkpt lat="37.5595467" lon="15.09302"><ele>311.0</ele><time>2026-05-05T09:10:37.17Z</time></trkpt><trkpt lat="37.5594317" lon="15.0928517"><ele>311.33333333333337</ele><time>2026-05-05T09:10:38.17Z</time></trkpt><trkpt lat="37.55932" lon="15.0926817"><ele>311.6666666666667</ele><time>2026-05-05T09:10:39.17Z</time></trkpt><trkpt lat="37.55921" lon="15.0925033"><ele>312.0</ele><time>2026-05-05T09:10:40.17Z</time></trkpt><trkpt lat="37.5591017" lon="15.0923283"><ele>312.0</ele><time>2026-05-05T09:10:41.17Z</time></trkpt><trkpt lat="37.558995" lon="15.09215"><ele>312.0</ele><time>2026-05-05T09:10:42.171Z</time></trkpt><trkpt lat="37.5588983" lon="15.0919583"><ele>312.0</ele><time>2026-05-05T09:10:43.17Z</time></trkpt><trkpt lat="37.5588017" lon="15.0917683"><ele>312.6666666666667</ele><time>2026-05-05T09:10:44.17Z</time></trkpt><trkpt lat="37.5587033" lon="15.09158"><ele>313.33333333333337</ele><time>2026-05-05T09:10:45.17Z</time></trkpt><trkpt lat="37.5586067" lon="15.0913983"><ele>314.0</ele><time>2026-05-05T09:10:46.171Z</time></trkpt><trkpt lat="37.558515" lon="15.0912133"><ele>312.33333333333337</ele><time>2026-05-05T09:10:47.17Z</time></trkpt><trkpt lat="37.558425" lon="15.0910233"><ele>310.6666666666667</ele><time>2026-05-05T09:10:48.17Z</time></trkpt><trkpt lat="37.5583333" lon="15.09084"><ele>309.0</ele><time>2026-05-05T09:10:49.17Z</time></trkpt><trkpt lat="37.5582033" lon="15.0906283"><ele>309.0</ele><time>2026-05-05T09:10:50.17Z</time></trkpt><trkpt lat="37.5580567" lon="15.0903267"><ele>309.0</ele><time>2026-05-05T09:10:51.17Z</time></trkpt><trkpt lat="37.5579383" lon="15.090075"><ele>308.0</ele><time>2026-05-05T09:10:52.17Z</time></trkpt><trkpt lat="37.557835" lon="15.0897817"><ele>307.0</ele><time>2026-05-05T09:10:53.17Z</time></trkpt><trkpt lat="37.55774" lon="15.0895333"><ele>307.0</ele><time>2026-05-05T09:10:54.17Z</time></trkpt><trkpt lat="37.5576217" lon="15.08927"><ele>307.0</ele><time>2026-05-05T09:10:55.171Z</time></trkpt><trkpt lat="37.5575033" lon="15.0890117"><ele>308.5</ele><time>2026-05-05T09:10:56.171Z</time></trkpt><trkpt lat="37.55738" lon="15.0887517"><ele>310.0</ele><time>2026-05-05T09:10:57.17Z</time></trkpt><trkpt lat="37.5572483" lon="15.088515"><ele>310.0</ele><time>2026-05-05T09:10:58.17Z</time></trkpt><trkpt lat="37.55711" lon="15.0882817"><ele>310.0</ele><time>2026-05-05T09:10:59.17Z</time></trkpt><trkpt lat="37.5569617" lon="15.0880567"><ele>306.5</ele><time>2026-05-05T09:11:00.17Z</time></trkpt><trkpt lat="37.5568017" lon="15.08783"><ele>303.0</ele><time>2026-05-05T09:11:01.17Z</time></trkpt><trkpt lat="37.5566283" lon="15.0876067"><ele>303.0</ele><time>2026-05-05T09:11:02.17Z</time></trkpt><trkpt lat="37.55625" lon="15.0875333"><ele>303.0</ele><time>2026-05-05T09:11:05.176Z</time></trkpt><trkpt lat="37.5563017" lon="15.0876267"><ele>302.3333333333333</ele><time>2026-05-05T09:11:06.176Z</time></trkpt><trkpt lat="37.5562017" lon="15.0875067"><ele>301.66666666666663</ele><time>2026-05-05T09:11:07.176Z</time></trkpt><trkpt lat="37.5560717" lon="15.0873717"><ele>301.0</ele><time>2026-05-05T09:11:08.176Z</time></trkpt><trkpt lat="37.5559433" lon="15.08722"><ele>301.0</ele><time>2026-05-05T09:11:09.176Z</time></trkpt><trkpt lat="37.5558117" lon="15.08708"><ele>301.0</ele><time>2026-05-05T09:11:10.176Z</time></trkpt><trkpt lat="37.5556683" lon="15.086945"><ele>301.0</ele><time>2026-05-05T09:11:11.176Z</time></trkpt><trkpt lat="37.555525" lon="15.0868083"><ele>301.0</ele><time>2026-05-05T09:11:12.176Z</time></trkpt><trkpt lat="37.5553817" lon="15.0866833"><ele>301.0</ele><time>2026-05-05T09:11:13.176Z</time></trkpt><trkpt lat="37.5552367" lon="15.08655"><ele>301.0</ele><time>2026-05-05T09:11:14.176Z</time></trkpt><trkpt lat="37.5550867" lon="15.0864283"><ele>299.66666666666663</ele><time>2026-05-05T09:11:15.176Z</time></trkpt><trkpt lat="37.5549433" lon="15.0862967"><ele>298.3333333333333</ele><time>2026-05-05T09:11:16.176Z</time></trkpt><trkpt lat="37.5547983" lon="15.0861733"><ele>297.0</ele><time>2026-05-05T09:11:17.176Z</time></trkpt><trkpt lat="37.554655" lon="15.08604"><ele>296.3333333333333</ele><time>2026-05-05T09:11:18.176Z</time></trkpt><trkpt lat="37.5545067" lon="15.0859033"><ele>295.66666666666663</ele><time>2026-05-05T09:11:19.176Z</time></trkpt><trkpt lat="37.5543583" lon="15.0857717"><ele>295.0</ele><time>2026-05-05T09:11:20.176Z</time></trkpt><trkpt lat="37.5542133" lon="15.085645"><ele>295.0</ele><time>2026-05-05T09:11:21.176Z</time></trkpt><trkpt lat="37.554065" lon="15.085515"><ele>295.0</ele><time>2026-05-05T09:11:22.177Z</time></trkpt><trkpt lat="37.5539167" lon="15.0853817"><ele>295.0</ele><time>2026-05-05T09:11:23.176Z</time></trkpt><trkpt lat="37.5537733" lon="15.0852567"><ele>292.3333333333333</ele><time>2026-05-05T09:11:24.177Z</time></trkpt><trkpt lat="37.5536333" lon="15.0851233"><ele>289.6666666666667</ele><time>2026-05-05T09:11:25.176Z</time></trkpt><trkpt lat="37.5535017" lon="15.0849817"><ele>287.0</ele><time>2026-05-05T09:11:26.176Z</time></trkpt><trkpt lat="37.5533633" lon="15.08484"><ele>287.0</ele><time>2026-05-05T09:11:27.176Z</time></trkpt><trkpt lat="37.5532317" lon="15.084695"><ele>287.0</ele><time>2026-05-05T09:11:28.176Z</time></trkpt><trkpt lat="37.55309" lon="15.0845417"><ele>287.0</ele><time>2026-05-05T09:11:29.176Z</time></trkpt><trkpt lat="37.5529633" lon="15.0843917"><ele>285.33333333333337</ele><time>2026-05-05T09:11:30.176Z</time></trkpt><trkpt lat="37.55283" lon="15.084235"><ele>283.6666666666667</ele><time>2026-05-05T09:11:31.177Z</time></trkpt><trkpt lat="37.5527067" lon="15.0840717"><ele>282.0</ele><time>2026-05-05T09:11:32.176Z</time></trkpt><trkpt lat="37.5525833" lon="15.083905"><ele>282.0</ele><time>2026-05-05T09:11:33.176Z</time></trkpt><trkpt lat="37.55247" lon="15.08374"><ele>282.0</ele><time>2026-05-05T09:11:34.176Z</time></trkpt><trkpt lat="37.552365" lon="15.0835717"><ele>282.0</ele><time>2026-05-05T09:11:35.176Z</time></trkpt><trkpt lat="37.5522533" lon="15.0834033"><ele>281.6666666666667</ele><time>2026-05-05T09:11:36.176Z</time></trkpt><trkpt lat="37.5521383" lon="15.083225"><ele>281.33333333333337</ele><time>2026-05-05T09:11:37.177Z</time></trkpt><trkpt lat="37.5520417" lon="15.08305"><ele>281.0</ele><time>2026-05-05T09:11:38.176Z</time></trkpt><trkpt lat="37.5519333" lon="15.0828667"><ele>281.0</ele><time>2026-05-05T09:11:39.176Z</time></trkpt><trkpt lat="37.5518267" lon="15.08268"><ele>281.0</ele><time>2026-05-05T09:11:40.176Z</time></trkpt><trkpt lat="37.55173" lon="15.0824933"><ele>281.0</ele><time>2026-05-05T09:11:41.176Z</time></trkpt><trkpt lat="37.551635" lon="15.0823017"><ele>281.33333333333337</ele><time>2026-05-05T09:11:42.176Z</time></trkpt><trkpt lat="37.55154" lon="15.082105"><ele>281.6666666666667</ele><time>2026-05-05T09:11:43.176Z</time></trkpt><trkpt lat="37.5514517" lon="15.0819333"><ele>282.0</ele><time>2026-05-05T09:11:44.177Z</time></trkpt><trkpt lat="37.5513567" lon="15.081735"><ele>282.6666666666667</ele><time>2026-05-05T09:11:45.176Z</time></trkpt><trkpt lat="37.5512633" lon="15.0815417"><ele>283.33333333333337</ele><time>2026-05-05T09:11:46.176Z</time></trkpt><trkpt lat="37.55117" lon="15.0813633"><ele>284.0</ele><time>2026-05-05T09:11:47.176Z</time></trkpt><trkpt lat="37.55107" lon="15.0811917"><ele>283.33333333333337</ele><time>2026-05-05T09:11:48.176Z</time></trkpt><trkpt lat="37.550965" lon="15.08103"><ele>282.6666666666667</ele><time>2026-05-05T09:11:49.176Z</time></trkpt><trkpt lat="37.550875" lon="15.0808633"><ele>282.0</ele><time>2026-05-05T09:11:50.176Z</time></trkpt><trkpt lat="37.5508" lon="15.0806983"><ele>282.0</ele><time>2026-05-05T09:11:51.176Z</time></trkpt><trkpt lat="37.55071" lon="15.08053"><ele>282.0</ele><time>2026-05-05T09:11:52.177Z</time></trkpt><trkpt lat="37.55062" lon="15.0803617"><ele>282.0</ele><time>2026-05-05T09:11:53.176Z</time></trkpt><trkpt lat="37.5505317" lon="15.0801983"><ele>282.0</ele><time>2026-05-05T09:11:54.176Z</time></trkpt><trkpt lat="37.5504433" lon="15.0800333"><ele>282.0</ele><time>2026-05-05T09:11:55.176Z</time></trkpt><trkpt lat="37.55046" lon="15.0777217"><ele>282.6666666666667</ele><time>2026-05-05T09:12:04.177Z</time></trkpt><trkpt lat="37.5504917" lon="15.0775083"><ele>283.33333333333337</ele><time>2026-05-05T09:12:05.177Z</time></trkpt><trkpt lat="37.55046" lon="15.07728"><ele>284.0</ele><time>2026-05-05T09:12:06.177Z</time></trkpt><trkpt lat="37.5504283" lon="15.0770517"><ele>284.6666666666667</ele><time>2026-05-05T09:12:07.177Z</time></trkpt><trkpt lat="37.5503917" lon="15.07681"><ele>285.3333333333333</ele><time>2026-05-05T09:12:08.177Z</time></trkpt><trkpt lat="37.550375" lon="15.0765817"><ele>286.0</ele><time>2026-05-05T09:12:09.178Z</time></trkpt><trkpt lat="37.5503683" lon="15.07635"><ele>288.3333333333333</ele><time>2026-05-05T09:12:10.177Z</time></trkpt><trkpt lat="37.5503633" lon="15.076115"><ele>290.6666666666667</ele><time>2026-05-05T09:12:11.178Z</time></trkpt><trkpt lat="37.550365" lon="15.0758867"><ele>293.0</ele><time>2026-05-05T09:12:12.177Z</time></trkpt><trkpt lat="37.55038" lon="15.0756683"><ele>293.0</ele><time>2026-05-05T09:12:13.177Z</time></trkpt><trkpt lat="37.5504083" lon="15.0754567"><ele>293.0</ele><time>2026-05-05T09:12:14.177Z</time></trkpt><trkpt lat="37.5504433" lon="15.075235"><ele>293.0</ele><time>2026-05-05T09:12:15.177Z</time></trkpt><trkpt lat="37.5504983" lon="15.075005"><ele>291.6666666666667</ele><time>2026-05-05T09:12:16.177Z</time></trkpt><trkpt lat="37.55057" lon="15.0748017"><ele>290.3333333333333</ele><time>2026-05-05T09:12:17.178Z</time></trkpt><trkpt lat="37.550605" lon="15.07459"><ele>289.0</ele><time>2026-05-05T09:12:18.177Z</time></trkpt><trkpt lat="37.5506767" lon="15.0740533"><ele>283.0</ele><time>2026-05-05T09:12:21.176Z</time></trkpt><trkpt lat="37.5502767" lon="15.0739833"><ele>277.0</ele><time>2026-05-05T09:12:22.176Z</time></trkpt><trkpt lat="37.5501383" lon="15.0736833"><ele>277.0</ele><time>2026-05-05T09:12:23.176Z</time></trkpt><trkpt lat="37.5500383" lon="15.0734033"><ele>277.0</ele><time>2026-05-05T09:12:24.176Z</time></trkpt><trkpt lat="37.5499383" lon="15.0731433"><ele>276.3333333333333</ele><time>2026-05-05T09:12:25.176Z</time></trkpt><trkpt lat="37.5498317" lon="15.072925"><ele>275.6666666666667</ele><time>2026-05-05T09:12:26.176Z</time></trkpt><trkpt lat="37.549755" lon="15.0727033"><ele>275.0</ele><time>2026-05-05T09:12:27.176Z</time></trkpt><trkpt lat="37.5496933" lon="15.07248"><ele>273.0</ele><time>2026-05-05T09:12:28.176Z</time></trkpt><trkpt lat="37.5496567" lon="15.0722583"><ele>271.0</ele><time>2026-05-05T09:12:29.176Z</time></trkpt><trkpt lat="37.5496233" lon="15.072035"><ele>269.0</ele><time>2026-05-05T09:12:30.176Z</time></trkpt><trkpt lat="37.5496" lon="15.0718183"><ele>268.0</ele><time>2026-05-05T09:12:31.176Z</time></trkpt><trkpt lat="37.5495883" lon="15.0715933"><ele>267.0</ele><time>2026-05-05T09:12:32.176Z</time></trkpt><trkpt lat="37.5495767" lon="15.0713717"><ele>266.0</ele><time>2026-05-05T09:12:33.176Z</time></trkpt><trkpt lat="37.549565" lon="15.07115"><ele>266.0</ele><time>2026-05-05T09:12:34.176Z</time></trkpt><trkpt lat="37.549565" lon="15.070935"><ele>266.0</ele><time>2026-05-05T09:12:35.176Z</time></trkpt><trkpt lat="37.549565" lon="15.0707167"><ele>266.0</ele><time>2026-05-05T09:12:36.176Z</time></trkpt><trkpt lat="37.5495617" lon="15.0704933"><ele>267.33333333333337</ele><time>2026-05-05T09:12:37.177Z</time></trkpt><trkpt lat="37.5495733" lon="15.0702767"><ele>268.6666666666667</ele><time>2026-05-05T09:12:38.176Z</time></trkpt><trkpt lat="37.5495967" lon="15.070065"><ele>270.0</ele><time>2026-05-05T09:12:39.176Z</time></trkpt><trkpt lat="37.5496133" lon="15.0698517"><ele>270.3333333333333</ele><time>2026-05-05T09:12:40.176Z</time></trkpt><trkpt lat="37.54963" lon="15.0696333"><ele>270.66666666666663</ele><time>2026-05-05T09:12:41.177Z</time></trkpt><trkpt lat="37.5496483" lon="15.0694133"><ele>271.0</ele><time>2026-05-05T09:12:42.176Z</time></trkpt><trkpt lat="37.5496617" lon="15.0692017"><ele>271.25</ele><time>2026-05-05T09:12:43.176Z</time></trkpt><trkpt lat="37.5496867" lon="15.068995"><ele>271.5</ele><time>2026-05-05T09:12:44.176Z</time></trkpt><trkpt lat="37.5497083" lon="15.0688067"><ele>271.75</ele><time>2026-05-05T09:12:45.176Z</time></trkpt><trkpt lat="37.54972" lon="15.068645"><ele>272.0</ele><time>2026-05-05T09:12:46.176Z</time></trkpt><trkpt lat="37.549725" lon="15.068515"><ele>272.0</ele><time>2026-05-05T09:12:47.176Z</time></trkpt><trkpt lat="37.5497267" lon="15.0684117"><ele>272.0</ele><time>2026-05-05T09:12:48.176Z</time></trkpt><trkpt lat="37.54973" lon="15.068285"><ele>272.0</ele><time>2026-05-05T09:12:50.176Z</time></trkpt><trkpt lat="37.54972" lon="15.06816"><ele>272.0</ele><time>2026-05-05T09:17:15.176Z</time></trkpt><trkpt lat="37.5497317" lon="15.0680467"><ele>272.0</ele><time>2026-05-05T09:17:16.176Z</time></trkpt><trkpt lat="37.5497383" lon="15.0678833"><ele>272.33333333333337</ele><time>2026-05-05T09:17:17.176Z</time></trkpt><trkpt lat="37.54974" lon="15.0676667"><ele>272.6666666666667</ele><time>2026-05-05T09:17:18.176Z</time></trkpt><trkpt lat="37.54973" lon="15.0673867"><ele>273.0</ele><time>2026-05-05T09:17:19.176Z</time></trkpt><trkpt lat="37.549715" lon="15.0670583"><ele>273.5</ele><time>2026-05-05T09:17:20.176Z</time></trkpt><trkpt lat="37.5496833" lon="15.0667183"><ele>274.0</ele><time>2026-05-05T09:17:21.176Z</time></trkpt><trkpt lat="37.54965" lon="15.0664017"><ele>275.0</ele><time>2026-05-05T09:17:22.176Z</time></trkpt><trkpt lat="37.5496167" lon="15.0661017"><ele>276.0</ele><time>2026-05-05T09:17:23.176Z</time></trkpt><trkpt lat="37.5495567" lon="15.0658267"><ele>273.0</ele><time>2026-05-05T09:17:24.176Z</time></trkpt><trkpt lat="37.549495" lon="15.0655533"><ele>270.0</ele><time>2026-05-05T09:17:25.176Z</time></trkpt><trkpt lat="37.5494333" lon="15.065275"><ele>270.0</ele><time>2026-05-05T09:17:26.176Z</time></trkpt><trkpt lat="37.5493517" lon="15.0649883"><ele>270.0</ele><time>2026-05-05T09:17:27.177Z</time></trkpt><trkpt lat="37.549265" lon="15.064715"><ele>271.0</ele><time>2026-05-05T09:17:28.176Z</time></trkpt><trkpt lat="37.5491583" lon="15.0644333"><ele>272.0</ele><time>2026-05-05T09:17:29.176Z</time></trkpt><trkpt lat="37.5490533" lon="15.0641583"><ele>272.5</ele><time>2026-05-05T09:17:30.176Z</time></trkpt><trkpt lat="37.5489317" lon="15.0638783"><ele>273.0</ele><time>2026-05-05T09:17:31.177Z</time></trkpt><trkpt lat="37.548795" lon="15.0636117"><ele>272.0</ele><time>2026-05-05T09:17:32.176Z</time></trkpt><trkpt lat="37.54866" lon="15.06336"><ele>271.0</ele><time>2026-05-05T09:17:33.176Z</time></trkpt><trkpt lat="37.54853" lon="15.0631117"><ele>271.0</ele><time>2026-05-05T09:17:34.176Z</time></trkpt><trkpt lat="37.5483933" lon="15.06286"><ele>271.0</ele><time>2026-05-05T09:17:35.176Z</time></trkpt><trkpt lat="37.5482483" lon="15.062625"><ele>272.5</ele><time>2026-05-05T09:17:36.176Z</time></trkpt><trkpt lat="37.5480983" lon="15.0624067"><ele>274.0</ele><time>2026-05-05T09:17:37.176Z</time></trkpt><trkpt lat="37.54794" lon="15.0621817"><ele>273.0</ele><time>2026-05-05T09:17:38.176Z</time></trkpt><trkpt lat="37.547775" lon="15.0619683"><ele>272.0</ele><time>2026-05-05T09:17:39.176Z</time></trkpt><trkpt lat="37.54761" lon="15.0617467"><ele>274.0</ele><time>2026-05-05T09:17:40.176Z</time></trkpt><trkpt lat="37.5474433" lon="15.0615317"><ele>276.0</ele><time>2026-05-05T09:17:41.176Z</time></trkpt><trkpt lat="37.5472733" lon="15.0613117"><ele>276.0</ele><time>2026-05-05T09:17:42.176Z</time></trkpt><trkpt lat="37.5471" lon="15.0610917"><ele>276.0</ele><time>2026-05-05T09:17:43.177Z</time></trkpt><trkpt lat="37.5469267" lon="15.06087"><ele>275.5</ele><time>2026-05-05T09:17:44.176Z</time></trkpt><trkpt lat="37.5467533" lon="15.06064"><ele>275.0</ele><time>2026-05-05T09:17:45.176Z</time></trkpt><trkpt lat="37.5465767" lon="15.0604133"><ele>275.0</ele><time>2026-05-05T09:17:46.176Z</time></trkpt><trkpt lat="37.546395" lon="15.0601867"><ele>275.0</ele><time>2026-05-05T09:17:47.176Z</time></trkpt><trkpt lat="37.546215" lon="15.05995"><ele>274.5</ele><time>2026-05-05T09:17:48.176Z</time></trkpt><trkpt lat="37.54603" lon="15.059715"><ele>274.0</ele><time>2026-05-05T09:17:49.176Z</time></trkpt><trkpt lat="37.545855" lon="15.0594817"><ele>274.0</ele><time>2026-05-05T09:17:50.177Z</time></trkpt><trkpt lat="37.5456733" lon="15.0592433"><ele>274.0</ele><time>2026-05-05T09:17:51.176Z</time></trkpt><trkpt lat="37.5454783" lon="15.0590083"><ele>271.5</ele><time>2026-05-05T09:17:52.176Z</time></trkpt><trkpt lat="37.5452917" lon="15.058775"><ele>269.0</ele><time>2026-05-05T09:17:53.177Z</time></trkpt><trkpt lat="37.5451067" lon="15.0585383"><ele>269.0</ele><time>2026-05-05T09:17:54.176Z</time></trkpt><trkpt lat="37.5449267" lon="15.058305"><ele>269.0</ele><time>2026-05-05T09:17:55.176Z</time></trkpt><trkpt lat="37.5447333" lon="15.0580517"><ele>269.0</ele><time>2026-05-05T09:17:56.176Z</time></trkpt><trkpt lat="37.5445467" lon="15.0578033"><ele>269.0</ele><time>2026-05-05T09:17:57.176Z</time></trkpt><trkpt lat="37.5443517" lon="15.0575533"><ele>269.5</ele><time>2026-05-05T09:17:58.177Z</time></trkpt><trkpt lat="37.5441567" lon="15.057295"><ele>270.0</ele><time>2026-05-05T09:17:59.176Z</time></trkpt><trkpt lat="37.5439567" lon="15.05703"><ele>270.0</ele><time>2026-05-05T09:18:00.176Z</time></trkpt><trkpt lat="37.5437633" lon="15.0567567"><ele>270.0</ele><time>2026-05-05T09:18:01.176Z</time></trkpt><trkpt lat="37.5435717" lon="15.0564867"><ele>268.0</ele><time>2026-05-05T09:18:02.176Z</time></trkpt><trkpt lat="37.5433717" lon="15.05621"><ele>266.0</ele><time>2026-05-05T09:18:03.176Z</time></trkpt><trkpt lat="37.54318" lon="15.05593"><ele>266.5</ele><time>2026-05-05T09:18:04.176Z</time></trkpt><trkpt lat="37.5429917" lon="15.0556383"><ele>267.0</ele><time>2026-05-05T09:18:05.176Z</time></trkpt><trkpt lat="37.5428067" lon="15.05535"><ele>265.5</ele><time>2026-05-05T09:18:06.176Z</time></trkpt><trkpt lat="37.5426283" lon="15.0550533"><ele>264.0</ele><time>2026-05-05T09:18:07.176Z</time></trkpt><trkpt lat="37.5424517" lon="15.05476"><ele>264.0</ele><time>2026-05-05T09:18:08.176Z</time></trkpt><trkpt lat="37.5422967" lon="15.054445"><ele>264.0</ele><time>2026-05-05T09:18:09.177Z</time></trkpt><trkpt lat="37.5421283" lon="15.05414"><ele>260.0</ele><time>2026-05-05T09:18:10.176Z</time></trkpt><trkpt lat="37.5419567" lon="15.0538333"><ele>256.0</ele><time>2026-05-05T09:18:11.176Z</time></trkpt><trkpt lat="37.541805" lon="15.05352"><ele>256.0</ele><time>2026-05-05T09:18:12.176Z</time></trkpt><trkpt lat="37.54165" lon="15.0532017"><ele>256.0</ele><time>2026-05-05T09:18:13.176Z</time></trkpt><trkpt lat="37.5415083" lon="15.0528733"><ele>256.0</ele><time>2026-05-05T09:18:14.176Z</time></trkpt><trkpt lat="37.5413783" lon="15.05255"><ele>256.0</ele><time>2026-05-05T09:18:15.176Z</time></trkpt><trkpt lat="37.5412483" lon="15.052225"><ele>255.0</ele><time>2026-05-05T09:18:16.176Z</time></trkpt><trkpt lat="37.5411183" lon="15.0519067"><ele>254.0</ele><time>2026-05-05T09:18:17.176Z</time></trkpt><trkpt lat="37.54099" lon="15.051585"><ele>256.0</ele><time>2026-05-05T09:18:18.176Z</time></trkpt><trkpt lat="37.540865" lon="15.0512667"><ele>258.0</ele><time>2026-05-05T09:18:19.177Z</time></trkpt><trkpt lat="37.5407333" lon="15.0509467"><ele>258.0</ele><time>2026-05-05T09:18:20.176Z</time></trkpt><trkpt lat="37.540605" lon="15.0506217"><ele>258.0</ele><time>2026-05-05T09:18:21.176Z</time></trkpt><trkpt lat="37.54048" lon="15.0502983"><ele>256.5</ele><time>2026-05-05T09:18:22.176Z</time></trkpt><trkpt lat="37.540345" lon="15.0499767"><ele>255.0</ele><time>2026-05-05T09:18:23.176Z</time></trkpt><trkpt lat="37.540215" lon="15.0496533"><ele>253.5</ele><time>2026-05-05T09:18:24.176Z</time></trkpt><trkpt lat="37.5400783" lon="15.0493267"><ele>252.0</ele><time>2026-05-05T09:18:25.176Z</time></trkpt><trkpt lat="37.5399367" lon="15.0489967"><ele>250.0</ele><time>2026-05-05T09:18:26.176Z</time></trkpt><trkpt lat="37.5398017" lon="15.0486667"><ele>248.0</ele><time>2026-05-05T09:18:27.177Z</time></trkpt><trkpt lat="37.5396583" lon="15.0483367"><ele>245.5</ele><time>2026-05-05T09:18:28.176Z</time></trkpt><trkpt lat="37.5395067" lon="15.0480217"><ele>243.0</ele><time>2026-05-05T09:18:29.176Z</time></trkpt><trkpt lat="37.5393583" lon="15.0477"><ele>243.5</ele><time>2026-05-05T09:18:30.176Z</time></trkpt><trkpt lat="37.5392033" lon="15.047375"><ele>244.0</ele><time>2026-05-05T09:18:31.176Z</time></trkpt><trkpt lat="37.5390433" lon="15.04705"><ele>244.0</ele><time>2026-05-05T09:18:32.176Z</time></trkpt><trkpt lat="37.5388667" lon="15.0467283"><ele>244.0</ele><time>2026-05-05T09:18:33.176Z</time></trkpt><trkpt lat="37.538685" lon="15.0464067"><ele>242.5</ele><time>2026-05-05T09:18:34.176Z</time></trkpt><trkpt lat="37.53849" lon="15.0460917"><ele>241.0</ele><time>2026-05-05T09:18:35.176Z</time></trkpt><trkpt lat="37.5382883" lon="15.0457817"><ele>241.0</ele><time>2026-05-05T09:18:36.176Z</time></trkpt><trkpt lat="37.5380767" lon="15.0454717"><ele>241.0</ele><time>2026-05-05T09:18:37.176Z</time></trkpt><trkpt lat="37.537865" lon="15.0451733"><ele>240.0</ele><time>2026-05-05T09:18:38.176Z</time></trkpt><trkpt lat="37.5376517" lon="15.0448717"><ele>239.0</ele><time>2026-05-05T09:18:39.176Z</time></trkpt><trkpt lat="37.537435" lon="15.04459"><ele>239.0</ele><time>2026-05-05T09:18:40.176Z</time></trkpt><trkpt lat="37.5372133" lon="15.0443083"><ele>239.0</ele><time>2026-05-05T09:18:41.176Z</time></trkpt><trkpt lat="37.5369867" lon="15.044025"><ele>235.5</ele><time>2026-05-05T09:18:42.176Z</time></trkpt><trkpt lat="37.53675" lon="15.0437583"><ele>232.0</ele><time>2026-05-05T09:18:43.176Z</time></trkpt><trkpt lat="37.5365133" lon="15.0434917"><ele>232.0</ele><time>2026-05-05T09:18:44.176Z</time></trkpt><trkpt lat="37.5362633" lon="15.04324"><ele>232.0</ele><time>2026-05-05T09:18:45.176Z</time></trkpt><trkpt lat="37.5360183" lon="15.042985"><ele>230.0</ele><time>2026-05-05T09:18:46.176Z</time></trkpt><trkpt lat="37.5357783" lon="15.04274"><ele>228.0</ele><time>2026-05-05T09:18:47.176Z</time></trkpt><trkpt lat="37.5355417" lon="15.0425017"><ele>228.5</ele><time>2026-05-05T09:18:48.176Z</time></trkpt><trkpt lat="37.535295" lon="15.042265"><ele>229.0</ele><time>2026-05-05T09:18:49.176Z</time></trkpt><trkpt lat="37.5350517" lon="15.0420283"><ele>229.0</ele><time>2026-05-05T09:18:50.176Z</time></trkpt><trkpt lat="37.5348083" lon="15.0417817"><ele>229.0</ele><time>2026-05-05T09:18:51.176Z</time></trkpt><trkpt lat="37.5345683" lon="15.0415383"><ele>228.5</ele><time>2026-05-05T09:18:52.176Z</time></trkpt><trkpt lat="37.53433" lon="15.041295"><ele>228.0</ele><time>2026-05-05T09:18:53.176Z</time></trkpt><trkpt lat="37.5340833" lon="15.041055"><ele>228.0</ele><time>2026-05-05T09:18:54.176Z</time></trkpt><trkpt lat="37.5338317" lon="15.0408133"><ele>228.0</ele><time>2026-05-05T09:18:55.176Z</time></trkpt><trkpt lat="37.533585" lon="15.04057"><ele>226.0</ele><time>2026-05-05T09:18:56.176Z</time></trkpt><trkpt lat="37.5333433" lon="15.0403167"><ele>224.0</ele><time>2026-05-05T09:18:57.177Z</time></trkpt><trkpt lat="37.5331033" lon="15.0400667"><ele>222.0</ele><time>2026-05-05T09:18:58.176Z</time></trkpt><trkpt lat="37.5328617" lon="15.0398167"><ele>220.0</ele><time>2026-05-05T09:18:59.176Z</time></trkpt><trkpt lat="37.5326233" lon="15.03957"><ele>220.0</ele><time>2026-05-05T09:19:00.176Z</time></trkpt><trkpt lat="37.5323933" lon="15.0393267"><ele>220.0</ele><time>2026-05-05T09:19:01.176Z</time></trkpt><trkpt lat="37.5321733" lon="15.039085"><ele>216.5</ele><time>2026-05-05T09:19:02.176Z</time></trkpt><trkpt lat="37.5319517" lon="15.038845"><ele>213.0</ele><time>2026-05-05T09:19:03.176Z</time></trkpt><trkpt lat="37.5317317" lon="15.0385933"><ele>213.0</ele><time>2026-05-05T09:19:04.176Z</time></trkpt><trkpt lat="37.5315117" lon="15.038335"><ele>213.0</ele><time>2026-05-05T09:19:05.176Z</time></trkpt><trkpt lat="37.5313017" lon="15.0380767"><ele>210.0</ele><time>2026-05-05T09:19:06.176Z</time></trkpt><trkpt lat="37.5311" lon="15.03782"><ele>207.0</ele><time>2026-05-05T09:19:07.176Z</time></trkpt><trkpt lat="37.5308917" lon="15.0375667"><ele>208.5</ele><time>2026-05-05T09:19:08.176Z</time></trkpt><trkpt lat="37.5306867" lon="15.03731"><ele>210.0</ele><time>2026-05-05T09:19:09.175Z</time></trkpt><trkpt lat="37.5304817" lon="15.03705"><ele>208.5</ele><time>2026-05-05T09:19:10.175Z</time></trkpt><trkpt lat="37.53029" lon="15.03678"><ele>207.0</ele><time>2026-05-05T09:19:11.175Z</time></trkpt><trkpt lat="37.5300967" lon="15.0365117"><ele>207.0</ele><time>2026-05-05T09:19:12.175Z</time></trkpt><trkpt lat="37.529905" lon="15.0362383"><ele>207.0</ele><time>2026-05-05T09:19:13.175Z</time></trkpt><trkpt lat="37.52972" lon="15.0359617"><ele>206.5</ele><time>2026-05-05T09:19:14.175Z</time></trkpt><trkpt lat="37.5295333" lon="15.0356767"><ele>206.0</ele><time>2026-05-05T09:19:15.176Z</time></trkpt><trkpt lat="37.5293517" lon="15.0353967"><ele>206.0</ele><time>2026-05-05T09:19:16.175Z</time></trkpt><trkpt lat="37.52917" lon="15.03511"><ele>206.0</ele><time>2026-05-05T09:19:17.175Z</time></trkpt><trkpt lat="37.5289983" lon="15.03481"><ele>207.0</ele><time>2026-05-05T09:19:18.175Z</time></trkpt><trkpt lat="37.5288217" lon="15.03452"><ele>208.0</ele><time>2026-05-05T09:19:19.175Z</time></trkpt><trkpt lat="37.5286467" lon="15.034225"><ele>206.0</ele><time>2026-05-05T09:19:20.175Z</time></trkpt><trkpt lat="37.528485" lon="15.0339217"><ele>204.0</ele><time>2026-05-05T09:19:21.175Z</time></trkpt><trkpt lat="37.5283267" lon="15.033615"><ele>204.0</ele><time>2026-05-05T09:19:22.176Z</time></trkpt><trkpt lat="37.5281717" lon="15.0333083"><ele>204.0</ele><time>2026-05-05T09:19:23.176Z</time></trkpt><trkpt lat="37.5280117" lon="15.0329967"><ele>202.5</ele><time>2026-05-05T09:19:24.175Z</time></trkpt><trkpt lat="37.52786" lon="15.0326867"><ele>201.0</ele><time>2026-05-05T09:19:25.175Z</time></trkpt><trkpt lat="37.5276983" lon="15.032375"><ele>200.5</ele><time>2026-05-05T09:19:26.175Z</time></trkpt><trkpt lat="37.527545" lon="15.032065"><ele>200.0</ele><time>2026-05-05T09:19:27.175Z</time></trkpt><trkpt lat="37.5273983" lon="15.0317483"><ele>201.5</ele><time>2026-05-05T09:19:28.175Z</time></trkpt><trkpt lat="37.527235" lon="15.0314333"><ele>203.0</ele><time>2026-05-05T09:19:29.175Z</time></trkpt><trkpt lat="37.5270817" lon="15.0311333"><ele>199.5</ele><time>2026-05-05T09:19:30.176Z</time></trkpt><trkpt lat="37.5269283" lon="15.0308217"><ele>196.0</ele><time>2026-05-05T09:19:31.175Z</time></trkpt><trkpt lat="37.52678" lon="15.03051"><ele>196.0</ele><time>2026-05-05T09:19:32.175Z</time></trkpt><trkpt lat="37.5266283" lon="15.0301967"><ele>196.0</ele><time>2026-05-05T09:19:33.175Z</time></trkpt><trkpt lat="37.5264717" lon="15.0298883"><ele>195.5</ele><time>2026-05-05T09:19:34.175Z</time></trkpt><trkpt lat="37.526315" lon="15.0295767"><ele>195.0</ele><time>2026-05-05T09:19:35.175Z</time></trkpt><trkpt lat="37.5261567" lon="15.0292683"><ele>190.5</ele><time>2026-05-05T09:19:36.175Z</time></trkpt><trkpt lat="37.526" lon="15.0289583"><ele>186.0</ele><time>2026-05-05T09:19:37.175Z</time></trkpt><trkpt lat="37.5258483" lon="15.028645"><ele>186.0</ele><time>2026-05-05T09:19:38.175Z</time></trkpt><trkpt lat="37.525695" lon="15.0283317"><ele>186.0</ele><time>2026-05-05T09:19:39.175Z</time></trkpt><trkpt lat="37.5255433" lon="15.0280233"><ele>181.5</ele><time>2026-05-05T09:19:40.175Z</time></trkpt><trkpt lat="37.52539" lon="15.0277117"><ele>177.0</ele><time>2026-05-05T09:19:41.175Z</time></trkpt><trkpt lat="37.5252383" lon="15.0274033"><ele>177.0</ele><time>2026-05-05T09:19:42.175Z</time></trkpt><trkpt lat="37.52509" lon="15.0270933"><ele>177.0</ele><time>2026-05-05T09:19:43.175Z</time></trkpt><trkpt lat="37.5249367" lon="15.026785"><ele>179.0</ele><time>2026-05-05T09:19:44.175Z</time></trkpt><trkpt lat="37.5247933" lon="15.0264667"><ele>181.0</ele><time>2026-05-05T09:19:45.176Z</time></trkpt><trkpt lat="37.5246467" lon="15.0261533"><ele>179.5</ele><time>2026-05-05T09:19:46.175Z</time></trkpt><trkpt lat="37.5244933" lon="15.0258483"><ele>178.0</ele><time>2026-05-05T09:19:47.175Z</time></trkpt><trkpt lat="37.5243367" lon="15.02554"><ele>178.0</ele><time>2026-05-05T09:19:48.175Z</time></trkpt><trkpt lat="37.5241783" lon="15.02523"><ele>178.0</ele><time>2026-05-05T09:19:49.175Z</time></trkpt><trkpt lat="37.5240183" lon="15.0249267"><ele>177.0</ele><time>2026-05-05T09:19:50.175Z</time></trkpt><trkpt lat="37.5238517" lon="15.0246317"><ele>176.0</ele><time>2026-05-05T09:19:51.175Z</time></trkpt><trkpt lat="37.5236767" lon="15.024345"><ele>179.0</ele><time>2026-05-05T09:19:52.175Z</time></trkpt><trkpt lat="37.5234983" lon="15.0240633"><ele>182.0</ele><time>2026-05-05T09:19:53.175Z</time></trkpt><trkpt lat="37.5233183" lon="15.0237967"><ele>182.0</ele><time>2026-05-05T09:19:54.175Z</time></trkpt><trkpt lat="37.523125" lon="15.0235417"><ele>182.0</ele><time>2026-05-05T09:19:55.175Z</time></trkpt><trkpt lat="37.5229333" lon="15.0232933"><ele>183.0</ele><time>2026-05-05T09:19:56.175Z</time></trkpt><trkpt lat="37.5227333" lon="15.0230533"><ele>184.0</ele><time>2026-05-05T09:19:57.175Z</time></trkpt><trkpt lat="37.5225283" lon="15.0228267"><ele>184.0</ele><time>2026-05-05T09:19:58.175Z</time></trkpt><trkpt lat="37.52232" lon="15.0226067"><ele>184.0</ele><time>2026-05-05T09:19:59.175Z</time></trkpt><trkpt lat="37.5221" lon="15.0223933"><ele>186.0</ele><time>2026-05-05T09:20:00.175Z</time></trkpt><trkpt lat="37.5218783" lon="15.022185"><ele>188.0</ele><time>2026-05-05T09:20:01.175Z</time></trkpt><trkpt lat="37.52165" lon="15.021985"><ele>188.0</ele><time>2026-05-05T09:20:02.175Z</time></trkpt><trkpt lat="37.5214183" lon="15.0217983"><ele>188.0</ele><time>2026-05-05T09:20:03.175Z</time></trkpt><trkpt lat="37.5211833" lon="15.0216267"><ele>189.5</ele><time>2026-05-05T09:20:04.175Z</time></trkpt><trkpt lat="37.5209383" lon="15.021465"><ele>191.0</ele><time>2026-05-05T09:20:05.175Z</time></trkpt><trkpt lat="37.5206967" lon="15.02131"><ele>191.0</ele><time>2026-05-05T09:20:06.175Z</time></trkpt><trkpt lat="37.52045" lon="15.0211583"><ele>191.0</ele><time>2026-05-05T09:20:07.175Z</time></trkpt><trkpt lat="37.5202" lon="15.0210033"><ele>190.5</ele><time>2026-05-05T09:20:08.176Z</time></trkpt><trkpt lat="37.5199483" lon="15.0208733"><ele>190.0</ele><time>2026-05-05T09:20:09.175Z</time></trkpt><trkpt lat="37.5196933" lon="15.0207633"><ele>191.0</ele><time>2026-05-05T09:20:10.175Z</time></trkpt><trkpt lat="37.519425" lon="15.0206617"><ele>192.0</ele><time>2026-05-05T09:20:11.175Z</time></trkpt><trkpt lat="37.5191617" lon="15.0205567"><ele>192.0</ele><time>2026-05-05T09:20:12.175Z</time></trkpt><trkpt lat="37.5188917" lon="15.02046"><ele>192.0</ele><time>2026-05-05T09:20:13.175Z</time></trkpt><trkpt lat="37.5186217" lon="15.02037"><ele>192.5</ele><time>2026-05-05T09:20:14.175Z</time></trkpt><trkpt lat="37.51835" lon="15.0202917"><ele>193.0</ele><time>2026-05-05T09:20:15.175Z</time></trkpt><trkpt lat="37.51808" lon="15.02023"><ele>189.5</ele><time>2026-05-05T09:20:16.175Z</time></trkpt><trkpt lat="37.5178217" lon="15.020185"><ele>186.0</ele><time>2026-05-05T09:20:17.175Z</time></trkpt><trkpt lat="37.5175717" lon="15.0201483"><ele>186.0</ele><time>2026-05-05T09:20:18.175Z</time></trkpt><trkpt lat="37.51733" lon="15.02012"><ele>186.0</ele><time>2026-05-05T09:20:19.175Z</time></trkpt><trkpt lat="37.5170917" lon="15.0200817"><ele>182.5</ele><time>2026-05-05T09:20:20.175Z</time></trkpt><trkpt lat="37.516855" lon="15.020045"><ele>179.0</ele><time>2026-05-05T09:20:21.176Z</time></trkpt><trkpt lat="37.5166217" lon="15.0200083"><ele>180.5</ele><time>2026-05-05T09:20:22.175Z</time></trkpt><trkpt lat="37.5163883" lon="15.0199633"><ele>182.0</ele><time>2026-05-05T09:20:23.175Z</time></trkpt><trkpt lat="37.5161567" lon="15.0199183"><ele>175.5</ele><time>2026-05-05T09:20:24.175Z</time></trkpt><trkpt lat="37.51593" lon="15.0198783"><ele>169.0</ele><time>2026-05-05T09:20:25.176Z</time></trkpt><trkpt lat="37.515705" lon="15.0198433"><ele>169.0</ele><time>2026-05-05T09:20:26.175Z</time></trkpt><trkpt lat="37.51548" lon="15.01981"><ele>169.0</ele><time>2026-05-05T09:20:27.175Z</time></trkpt><trkpt lat="37.515255" lon="15.0197717"><ele>166.66666666666669</ele><time>2026-05-05T09:20:28.176Z</time></trkpt><trkpt lat="37.5150383" lon="15.019735"><ele>164.33333333333334</ele><time>2026-05-05T09:20:29.175Z</time></trkpt><trkpt lat="37.51483" lon="15.0197033"><ele>162.0</ele><time>2026-05-05T09:20:30.175Z</time></trkpt><trkpt lat="37.5146233" lon="15.01967"><ele>161.33333333333334</ele><time>2026-05-05T09:20:31.175Z</time></trkpt><trkpt lat="37.51442" lon="15.0196333"><ele>160.66666666666669</ele><time>2026-05-05T09:20:32.175Z</time></trkpt><trkpt lat="37.5142233" lon="15.0196033"><ele>160.0</ele><time>2026-05-05T09:20:33.175Z</time></trkpt><trkpt lat="37.5140217" lon="15.019575"><ele>160.0</ele><time>2026-05-05T09:20:34.175Z</time></trkpt><trkpt lat="37.51382" lon="15.019545"><ele>160.0</ele><time>2026-05-05T09:20:35.175Z</time></trkpt><trkpt lat="37.5136233" lon="15.019515"><ele>160.0</ele><time>2026-05-05T09:20:36.175Z</time></trkpt><trkpt lat="37.51342" lon="15.0194783"><ele>160.0</ele><time>2026-05-05T09:20:37.175Z</time></trkpt><trkpt lat="37.5132167" lon="15.0194467"><ele>160.0</ele><time>2026-05-05T09:20:38.175Z</time></trkpt><trkpt lat="37.5130117" lon="15.01941"><ele>160.0</ele><time>2026-05-05T09:20:39.175Z</time></trkpt><trkpt lat="37.5128083" lon="15.019375"><ele>160.33333333333334</ele><time>2026-05-05T09:20:40.175Z</time></trkpt><trkpt lat="37.5126033" lon="15.0193417"><ele>160.66666666666666</ele><time>2026-05-05T09:20:41.176Z</time></trkpt><trkpt lat="37.5124017" lon="15.0193083"><ele>161.0</ele><time>2026-05-05T09:20:42.175Z</time></trkpt><trkpt lat="37.512205" lon="15.0192783"><ele>161.66666666666666</ele><time>2026-05-05T09:20:43.175Z</time></trkpt><trkpt lat="37.5120083" lon="15.0192517"><ele>162.33333333333334</ele><time>2026-05-05T09:20:44.175Z</time></trkpt><trkpt lat="37.5118117" lon="15.01922"><ele>163.0</ele><time>2026-05-05T09:20:45.175Z</time></trkpt><trkpt lat="37.51162" lon="15.0191867"><ele>163.0</ele><time>2026-05-05T09:20:46.175Z</time></trkpt><trkpt lat="37.5114383" lon="15.0191567"><ele>163.0</ele><time>2026-05-05T09:20:47.176Z</time></trkpt><trkpt lat="37.5112633" lon="15.0191267"><ele>163.0</ele><time>2026-05-05T09:20:48.175Z</time></trkpt><trkpt lat="37.5110883" lon="15.0191017"><ele>161.66666666666669</ele><time>2026-05-05T09:20:49.175Z</time></trkpt><trkpt lat="37.510915" lon="15.01907"><ele>160.33333333333334</ele><time>2026-05-05T09:20:50.175Z</time></trkpt><trkpt lat="37.5107433" lon="15.01904"><ele>159.0</ele><time>2026-05-05T09:20:51.175Z</time></trkpt><trkpt lat="37.51056" lon="15.0190233"><ele>160.0</ele><time>2026-05-05T09:20:52.175Z</time></trkpt><trkpt lat="37.510375" lon="15.019"><ele>161.0</ele><time>2026-05-05T09:20:53.175Z</time></trkpt><trkpt lat="37.5101883" lon="15.018985"><ele>162.0</ele><time>2026-05-05T09:20:54.175Z</time></trkpt><trkpt lat="37.5100067" lon="15.01897"><ele>162.0</ele><time>2026-05-05T09:20:55.175Z</time></trkpt><trkpt lat="37.5098283" lon="15.0189683"><ele>162.0</ele><time>2026-05-05T09:20:56.175Z</time></trkpt><trkpt lat="37.5096617" lon="15.01897"><ele>162.0</ele><time>2026-05-05T09:20:57.175Z</time></trkpt><trkpt lat="37.5094917" lon="15.0189717"><ele>162.33333333333334</ele><time>2026-05-05T09:20:58.175Z</time></trkpt><trkpt lat="37.509325" lon="15.0189717"><ele>162.66666666666669</ele><time>2026-05-05T09:20:59.175Z</time></trkpt><trkpt lat="37.509165" lon="15.01898"><ele>163.0</ele><time>2026-05-05T09:21:00.176Z</time></trkpt><trkpt lat="37.5090067" lon="15.0189867"><ele>163.0</ele><time>2026-05-05T09:21:01.175Z</time></trkpt><trkpt lat="37.5088533" lon="15.0189817"><ele>163.0</ele><time>2026-05-05T09:21:02.175Z</time></trkpt><trkpt lat="37.50871" lon="15.01897"><ele>163.0</ele><time>2026-05-05T09:21:03.175Z</time></trkpt><trkpt lat="37.5085767" lon="15.0189517"><ele>163.0</ele><time>2026-05-05T09:21:04.175Z</time></trkpt><trkpt lat="37.508445" lon="15.0189233"><ele>164.25</ele><time>2026-05-05T09:21:05.175Z</time></trkpt><trkpt lat="37.50832" lon="15.0188833"><ele>165.5</ele><time>2026-05-05T09:21:06.175Z</time></trkpt><trkpt lat="37.508195" lon="15.01884"><ele>166.75</ele><time>2026-05-05T09:21:07.175Z</time></trkpt><trkpt lat="37.508075" lon="15.0187933"><ele>168.0</ele><time>2026-05-05T09:21:08.175Z</time></trkpt><trkpt lat="37.5079533" lon="15.0187383"><ele>168.25</ele><time>2026-05-05T09:21:09.175Z</time></trkpt><trkpt lat="37.50784" lon="15.0186817"><ele>168.5</ele><time>2026-05-05T09:21:10.175Z</time></trkpt><trkpt lat="37.5077267" lon="15.0186283"><ele>168.75</ele><time>2026-05-05T09:21:11.175Z</time></trkpt><trkpt lat="37.5076017" lon="15.01859"><ele>169.0</ele><time>2026-05-05T09:21:12.175Z</time></trkpt><trkpt lat="37.5074717" lon="15.0185767"><ele>169.0</ele><time>2026-05-05T09:21:13.175Z</time></trkpt><trkpt lat="37.5073567" lon="15.0185767"><ele>169.0</ele><time>2026-05-05T09:21:14.175Z</time></trkpt><trkpt lat="37.5072417" lon="15.0186033"><ele>169.0</ele><time>2026-05-05T09:21:15.175Z</time></trkpt><trkpt lat="37.507135" lon="15.0186417"><ele>169.0</ele><time>2026-05-05T09:21:16.175Z</time></trkpt><trkpt lat="37.5070333" lon="15.0186917"><ele>170.6</ele><time>2026-05-05T09:21:17.175Z</time></trkpt><trkpt lat="37.5069433" lon="15.01876"><ele>172.2</ele><time>2026-05-05T09:21:18.176Z</time></trkpt><trkpt lat="37.5068567" lon="15.01884"><ele>173.79999999999998</ele><time>2026-05-05T09:21:19.176Z</time></trkpt><trkpt lat="37.5067717" lon="15.0189383"><ele>175.39999999999998</ele><time>2026-05-05T09:21:20.175Z</time></trkpt><trkpt lat="37.5066933" lon="15.0190367"><ele>177.0</ele><time>2026-05-05T09:21:21.176Z</time></trkpt><trkpt lat="37.5066267" lon="15.0191567"><ele>177.0</ele><time>2026-05-05T09:21:22.175Z</time></trkpt><trkpt lat="37.50658" lon="15.0192867"><ele>177.0</ele><time>2026-05-05T09:21:23.175Z</time></trkpt><trkpt lat="37.5065433" lon="15.01942"><ele>177.0</ele><time>2026-05-05T09:21:24.175Z</time></trkpt><trkpt lat="37.506525" lon="15.0195517"><ele>177.0</ele><time>2026-05-05T09:21:25.175Z</time></trkpt><trkpt lat="37.50652" lon="15.019675"><ele>177.0</ele><time>2026-05-05T09:21:26.175Z</time></trkpt><trkpt lat="37.5065083" lon="15.0197967"><ele>177.0</ele><time>2026-05-05T09:21:27.175Z</time></trkpt><trkpt lat="37.5065017" lon="15.0199317"><ele>177.0</ele><time>2026-05-05T09:21:28.175Z</time></trkpt><trkpt lat="37.5064917" lon="15.0200433"><ele>177.0</ele><time>2026-05-05T09:21:29.175Z</time></trkpt><trkpt lat="37.5065017" lon="15.0201867"><ele>177.0</ele><time>2026-05-05T09:21:30.176Z</time></trkpt><trkpt lat="37.5066067" lon="15.0203367"><ele>176.0</ele><time>2026-05-05T09:21:31.175Z</time></trkpt><trkpt lat="37.5067" lon="15.0204683"><ele>175.0</ele><time>2026-05-05T09:21:32.175Z</time></trkpt><trkpt lat="37.5067833" lon="15.0205733"><ele>174.0</ele><time>2026-05-05T09:21:33.175Z</time></trkpt><trkpt lat="37.5068717" lon="15.0206533"><ele>173.0</ele><time>2026-05-05T09:21:34.175Z</time></trkpt><trkpt lat="37.5069633" lon="15.0207267"><ele>173.0</ele><time>2026-05-05T09:21:35.176Z</time></trkpt><trkpt lat="37.507065" lon="15.020795"><ele>173.0</ele><time>2026-05-05T09:21:36.175Z</time></trkpt><trkpt lat="37.5071767" lon="15.0208617"><ele>173.0</ele><time>2026-05-05T09:21:37.175Z</time></trkpt><trkpt lat="37.5072917" lon="15.0209333"><ele>173.0</ele><time>2026-05-05T09:21:38.175Z</time></trkpt><trkpt lat="37.5074" lon="15.0210167"><ele>172.25</ele><time>2026-05-05T09:21:39.175Z</time></trkpt><trkpt lat="37.5075033" lon="15.021115"><ele>171.5</ele><time>2026-05-05T09:21:40.175Z</time></trkpt><trkpt lat="37.5075983" lon="15.02122"><ele>170.75</ele><time>2026-05-05T09:21:41.176Z</time></trkpt><trkpt lat="37.5076883" lon="15.0213317"><ele>170.0</ele><time>2026-05-05T09:21:42.175Z</time></trkpt><trkpt lat="37.507775" lon="15.0214517"><ele>170.0</ele><time>2026-05-05T09:21:43.175Z</time></trkpt><trkpt lat="37.5078483" lon="15.0215933"><ele>170.0</ele><time>2026-05-05T09:21:44.175Z</time></trkpt><trkpt lat="37.50792" lon="15.0217383"><ele>170.0</ele><time>2026-05-05T09:21:45.175Z</time></trkpt><trkpt lat="37.5079817" lon="15.0218933"><ele>170.0</ele><time>2026-05-05T09:21:46.175Z</time></trkpt><trkpt lat="37.5080333" lon="15.0220517"><ele>169.0</ele><time>2026-05-05T09:21:47.175Z</time></trkpt><trkpt lat="37.5080767" lon="15.0222167"><ele>168.0</ele><time>2026-05-05T09:21:48.175Z</time></trkpt><trkpt lat="37.508115" lon="15.0223717"><ele>167.0</ele><time>2026-05-05T09:21:49.175Z</time></trkpt><trkpt lat="37.508145" lon="15.0225233"><ele>166.0</ele><time>2026-05-05T09:21:50.175Z</time></trkpt><trkpt lat="37.50817" lon="15.0226683"><ele>165.75</ele><time>2026-05-05T09:21:51.175Z</time></trkpt><trkpt lat="37.508195" lon="15.0228167"><ele>165.5</ele><time>2026-05-05T09:21:52.175Z</time></trkpt><trkpt lat="37.50822" lon="15.0229583"><ele>165.25</ele><time>2026-05-05T09:21:53.176Z</time></trkpt><trkpt lat="37.508245" lon="15.0231"><ele>165.0</ele><time>2026-05-05T09:21:54.175Z</time></trkpt><trkpt lat="37.5082667" lon="15.0232333"><ele>164.4</ele><time>2026-05-05T09:21:55.175Z</time></trkpt><trkpt lat="37.5082883" lon="15.0233567"><ele>163.8</ele><time>2026-05-05T09:21:56.176Z</time></trkpt><trkpt lat="37.50831" lon="15.0234833"><ele>163.2</ele><time>2026-05-05T09:21:57.175Z</time></trkpt><trkpt lat="37.5083367" lon="15.02361"><ele>162.6</ele><time>2026-05-05T09:21:58.175Z</time></trkpt><trkpt lat="37.5083667" lon="15.0237433"><ele>162.0</ele><time>2026-05-05T09:21:59.175Z</time></trkpt><trkpt lat="37.508395" lon="15.023885"><ele>162.0</ele><time>2026-05-05T09:22:00.176Z</time></trkpt><trkpt lat="37.508425" lon="15.0240233"><ele>162.0</ele><time>2026-05-05T09:22:01.175Z</time></trkpt><trkpt lat="37.5084483" lon="15.024155"><ele>162.0</ele><time>2026-05-05T09:22:02.175Z</time></trkpt><trkpt lat="37.50848" lon="15.0242833"><ele>162.0</ele><time>2026-05-05T09:22:03.176Z</time></trkpt><trkpt lat="37.5085067" lon="15.024415"><ele>162.0</ele><time>2026-05-05T09:22:04.175Z</time></trkpt><trkpt lat="37.5085217" lon="15.0245483"><ele>162.33333333333334</ele><time>2026-05-05T09:22:05.175Z</time></trkpt><trkpt lat="37.50853" lon="15.02467"><ele>162.66666666666666</ele><time>2026-05-05T09:22:06.175Z</time></trkpt><trkpt lat="37.5085417" lon="15.024765"><ele>163.0</ele><time>2026-05-05T09:22:07.175Z</time></trkpt><trkpt lat="37.50856" lon="15.0248733"><ele>163.33333333333331</ele><time>2026-05-05T09:22:09.175Z</time></trkpt><trkpt lat="37.5085583" lon="15.024985"><ele>163.66666666666666</ele><time>2026-05-05T09:22:12.175Z</time></trkpt><trkpt lat="37.5085683" lon="15.025095"><ele>164.0</ele><time>2026-05-05T09:22:14.175Z</time></trkpt><trkpt lat="37.5085767" lon="15.0252417"><ele>164.2</ele><time>2026-05-05T09:22:16.175Z</time></trkpt><trkpt lat="37.5085817" lon="15.0254017"><ele>164.39999999999998</ele><time>2026-05-05T09:22:18.175Z</time></trkpt><trkpt lat="37.5085817" lon="15.02549"><ele>164.6</ele><time>2026-05-05T09:22:19.175Z</time></trkpt><trkpt lat="37.5085767" lon="15.0255983"><ele>164.8</ele><time>2026-05-05T09:22:20.175Z</time></trkpt><trkpt lat="37.5085717" lon="15.0257033"><ele>165.0</ele><time>2026-05-05T09:22:21.176Z</time></trkpt><trkpt lat="37.508565" lon="15.0258083"><ele>165.2</ele><time>2026-05-05T09:22:22.175Z</time></trkpt><trkpt lat="37.5085533" lon="15.0259217"><ele>165.4</ele><time>2026-05-05T09:22:23.175Z</time></trkpt><trkpt lat="37.5085417" lon="15.0260483"><ele>165.60000000000002</ele><time>2026-05-05T09:22:24.175Z</time></trkpt><trkpt lat="37.508535" lon="15.026175"><ele>165.8</ele><time>2026-05-05T09:22:25.175Z</time></trkpt><trkpt lat="37.5085283" lon="15.0262917"><ele>166.0</ele><time>2026-05-05T09:22:26.175Z</time></trkpt><trkpt lat="37.50852" lon="15.0264033"><ele>166.0</ele><time>2026-05-05T09:22:27.175Z</time></trkpt><trkpt lat="37.5085167" lon="15.0265133"><ele>166.0</ele><time>2026-05-05T09:22:28.175Z</time></trkpt><trkpt lat="37.5085067" lon="15.02662"><ele>166.0</ele><time>2026-05-05T09:22:29.175Z</time></trkpt><trkpt lat="37.508495" lon="15.0267167"><ele>166.0</ele><time>2026-05-05T09:22:30.176Z</time></trkpt><trkpt lat="37.508485" lon="15.0268217"><ele>166.0</ele><time>2026-05-05T09:22:31.175Z</time></trkpt><trkpt lat="37.5084817" lon="15.0269233"><ele>166.0</ele><time>2026-05-05T09:22:32.176Z</time></trkpt><trkpt lat="37.5084883" lon="15.02704"><ele>166.0</ele><time>2026-05-05T09:22:33.175Z</time></trkpt><trkpt lat="37.5085067" lon="15.027175"><ele>166.0</ele><time>2026-05-05T09:22:34.175Z</time></trkpt><trkpt lat="37.508535" lon="15.0273233"><ele>166.0</ele><time>2026-05-05T09:22:35.175Z</time></trkpt><trkpt lat="37.5085733" lon="15.0274717"><ele>166.0</ele><time>2026-05-05T09:22:36.175Z</time></trkpt><trkpt lat="37.5086267" lon="15.0276283"><ele>166.0</ele><time>2026-05-05T09:22:37.175Z</time></trkpt><trkpt lat="37.5086967" lon="15.02776"><ele>166.0</ele><time>2026-05-05T09:22:38.175Z</time></trkpt><trkpt lat="37.5087867" lon="15.0278817"><ele>166.0</ele><time>2026-05-05T09:22:39.175Z</time></trkpt><trkpt lat="37.50889" lon="15.0279933"><ele>166.0</ele><time>2026-05-05T09:22:40.175Z</time></trkpt><trkpt lat="37.5090067" lon="15.02809"><ele>165.0</ele><time>2026-05-05T09:22:41.175Z</time></trkpt><trkpt lat="37.5091383" lon="15.0281583"><ele>164.0</ele><time>2026-05-05T09:22:42.175Z</time></trkpt><trkpt lat="37.5092717" lon="15.02821"><ele>163.0</ele><time>2026-05-05T09:22:43.175Z</time></trkpt><trkpt lat="37.5093983" lon="15.02826"><ele>162.0</ele><time>2026-05-05T09:22:44.175Z</time></trkpt><trkpt lat="37.5095467" lon="15.028245"><ele>160.75</ele><time>2026-05-05T09:22:45.175Z</time></trkpt><trkpt lat="37.5096833" lon="15.0281633"><ele>159.5</ele><time>2026-05-05T09:22:46.175Z</time></trkpt><trkpt lat="37.5098067" lon="15.028085"><ele>158.25</ele><time>2026-05-05T09:22:47.175Z</time></trkpt><trkpt lat="37.5099217" lon="15.02799"><ele>157.0</ele><time>2026-05-05T09:22:48.175Z</time></trkpt><trkpt lat="37.5100217" lon="15.0278817"><ele>157.0</ele><time>2026-05-05T09:22:49.175Z</time></trkpt><trkpt lat="37.510105" lon="15.0277583"><ele>157.0</ele><time>2026-05-05T09:22:50.175Z</time></trkpt><trkpt lat="37.5101817" lon="15.0276217"><ele>157.0</ele><time>2026-05-05T09:22:51.175Z</time></trkpt><trkpt lat="37.5102533" lon="15.02747"><ele>157.0</ele><time>2026-05-05T09:22:52.175Z</time></trkpt><trkpt lat="37.5103117" lon="15.0273083"><ele>156.25</ele><time>2026-05-05T09:22:53.175Z</time></trkpt><trkpt lat="37.5103667" lon="15.0271433"><ele>155.5</ele><time>2026-05-05T09:22:54.175Z</time></trkpt><trkpt lat="37.5104283" lon="15.02698"><ele>154.75</ele><time>2026-05-05T09:22:55.175Z</time></trkpt><trkpt lat="37.5104867" lon="15.0268117"><ele>154.0</ele><time>2026-05-05T09:22:56.175Z</time></trkpt><trkpt lat="37.5105383" lon="15.0266367"><ele>154.0</ele><time>2026-05-05T09:22:57.176Z</time></trkpt><trkpt lat="37.51058" lon="15.0264567"><ele>154.0</ele><time>2026-05-05T09:22:58.175Z</time></trkpt><trkpt lat="37.5106183" lon="15.0262667"><ele>154.0</ele><time>2026-05-05T09:22:59.175Z</time></trkpt><trkpt lat="37.5106567" lon="15.0260733"><ele>154.0</ele><time>2026-05-05T09:23:00.175Z</time></trkpt><trkpt lat="37.5106883" lon="15.025875"><ele>154.0</ele><time>2026-05-05T09:23:01.175Z</time></trkpt><trkpt lat="37.510725" lon="15.0256833"><ele>154.0</ele><time>2026-05-05T09:23:02.175Z</time></trkpt><trkpt lat="37.5107533" lon="15.0254867"><ele>154.0</ele><time>2026-05-05T09:23:03.175Z</time></trkpt><trkpt lat="37.510785" lon="15.02528"><ele>154.0</ele><time>2026-05-05T09:23:04.175Z</time></trkpt><trkpt lat="37.51081" lon="15.0250783"><ele>154.0</ele><time>2026-05-05T09:23:05.175Z</time></trkpt><trkpt lat="37.5108333" lon="15.02488"><ele>154.66666666666669</ele><time>2026-05-05T09:23:06.176Z</time></trkpt><trkpt lat="37.5108467" lon="15.0246783"><ele>155.33333333333334</ele><time>2026-05-05T09:23:07.175Z</time></trkpt><trkpt lat="37.51085" lon="15.024475"><ele>156.0</ele><time>2026-05-05T09:23:08.175Z</time></trkpt><trkpt lat="37.510845" lon="15.0242733"><ele>155.33333333333334</ele><time>2026-05-05T09:23:09.175Z</time></trkpt><trkpt lat="37.5108433" lon="15.0240633"><ele>154.66666666666669</ele><time>2026-05-05T09:23:10.175Z</time></trkpt><trkpt lat="37.5108433" lon="15.02385"><ele>154.0</ele><time>2026-05-05T09:23:11.175Z</time></trkpt><trkpt lat="37.5108433" lon="15.02364"><ele>154.0</ele><time>2026-05-05T09:23:12.176Z</time></trkpt><trkpt lat="37.5108433" lon="15.0234317"><ele>154.0</ele><time>2026-05-05T09:23:13.175Z</time></trkpt><trkpt lat="37.5108417" lon="15.0232167"><ele>154.0</ele><time>2026-05-05T09:23:14.175Z</time></trkpt><trkpt lat="37.5108467" lon="15.023005"><ele>154.33333333333334</ele><time>2026-05-05T09:23:15.176Z</time></trkpt><trkpt lat="37.5108467" lon="15.0228017"><ele>154.66666666666666</ele><time>2026-05-05T09:23:16.175Z</time></trkpt><trkpt lat="37.510855" lon="15.0225867"><ele>155.0</ele><time>2026-05-05T09:23:17.175Z</time></trkpt><trkpt lat="37.5108717" lon="15.02238"><ele>155.0</ele><time>2026-05-05T09:23:18.176Z</time></trkpt><trkpt lat="37.5108883" lon="15.022165"><ele>155.0</ele><time>2026-05-05T09:23:19.175Z</time></trkpt><trkpt lat="37.5109067" lon="15.02195"><ele>155.0</ele><time>2026-05-05T09:23:20.175Z</time></trkpt><trkpt lat="37.51092" lon="15.0217367"><ele>156.66666666666666</ele><time>2026-05-05T09:23:21.175Z</time></trkpt><trkpt lat="37.5109383" lon="15.021525"><ele>158.33333333333334</ele><time>2026-05-05T09:23:22.175Z</time></trkpt><trkpt lat="37.5109583" lon="15.0213233"><ele>160.0</ele><time>2026-05-05T09:23:23.175Z</time></trkpt><trkpt lat="37.510995" lon="15.021115"><ele>160.0</ele><time>2026-05-05T09:23:24.175Z</time></trkpt><trkpt lat="37.5110317" lon="15.020905"><ele>160.0</ele><time>2026-05-05T09:23:25.175Z</time></trkpt><trkpt lat="37.5110683" lon="15.0207"><ele>160.0</ele><time>2026-05-05T09:23:26.175Z</time></trkpt><trkpt lat="37.5111133" lon="15.0204917"><ele>159.66666666666669</ele><time>2026-05-05T09:23:27.175Z</time></trkpt><trkpt lat="37.5111433" lon="15.0202883"><ele>159.33333333333334</ele><time>2026-05-05T09:23:28.175Z</time></trkpt><trkpt lat="37.51118" lon="15.0200883"><ele>159.0</ele><time>2026-05-05T09:23:29.175Z</time></trkpt><trkpt lat="37.5112217" lon="15.0198933"><ele>160.33333333333334</ele><time>2026-05-05T09:23:30.175Z</time></trkpt><trkpt lat="37.5112683" lon="15.0196867"><ele>161.66666666666669</ele><time>2026-05-05T09:23:31.175Z</time></trkpt><trkpt lat="37.5113167" lon="15.0194967"><ele>163.0</ele><time>2026-05-05T09:23:32.175Z</time></trkpt><trkpt lat="37.5113667" lon="15.01931"><ele>162.0</ele><time>2026-05-05T09:23:33.175Z</time></trkpt><trkpt lat="37.5114267" lon="15.01912"><ele>161.0</ele><time>2026-05-05T09:23:34.175Z</time></trkpt><trkpt lat="37.5114817" lon="15.0189317"><ele>160.0</ele><time>2026-05-05T09:23:35.175Z</time></trkpt><trkpt lat="37.511545" lon="15.0187483"><ele>160.0</ele><time>2026-05-05T09:23:36.176Z</time></trkpt><trkpt lat="37.511615" lon="15.0185617"><ele>160.0</ele><time>2026-05-05T09:23:37.176Z</time></trkpt><trkpt lat="37.51168" lon="15.0183767"><ele>160.0</ele><time>2026-05-05T09:23:38.175Z</time></trkpt><trkpt lat="37.5117467" lon="15.0181933"><ele>160.33333333333334</ele><time>2026-05-05T09:23:39.175Z</time></trkpt><trkpt lat="37.5118117" lon="15.0180083"><ele>160.66666666666666</ele><time>2026-05-05T09:23:40.175Z</time></trkpt><trkpt lat="37.51187" lon="15.0178217"><ele>161.0</ele><time>2026-05-05T09:23:41.175Z</time></trkpt><trkpt lat="37.51192" lon="15.017635"><ele>161.0</ele><time>2026-05-05T09:23:42.175Z</time></trkpt><trkpt lat="37.5119783" lon="15.017445"><ele>161.0</ele><time>2026-05-05T09:23:43.175Z</time></trkpt><trkpt lat="37.5120367" lon="15.0172567"><ele>161.0</ele><time>2026-05-05T09:23:44.175Z</time></trkpt><trkpt lat="37.5120883" lon="15.01707"><ele>161.0</ele><time>2026-05-05T09:23:45.175Z</time></trkpt><trkpt lat="37.51214" lon="15.01688"><ele>161.0</ele><time>2026-05-05T09:23:46.175Z</time></trkpt><trkpt lat="37.5121967" lon="15.016695"><ele>161.0</ele><time>2026-05-05T09:23:47.175Z</time></trkpt><trkpt lat="37.5122583" lon="15.0165083"><ele>161.0</ele><time>2026-05-05T09:23:48.175Z</time></trkpt><trkpt lat="37.5123283" lon="15.0163267"><ele>161.0</ele><time>2026-05-05T09:23:49.175Z</time></trkpt><trkpt lat="37.512395" lon="15.0161467"><ele>161.0</ele><time>2026-05-05T09:23:50.176Z</time></trkpt><trkpt lat="37.51247" lon="15.0159683"><ele>161.0</ele><time>2026-05-05T09:23:51.175Z</time></trkpt><trkpt lat="37.5125467" lon="15.0157883"><ele>161.0</ele><time>2026-05-05T09:23:52.175Z</time></trkpt><trkpt lat="37.512625" lon="15.0156167"><ele>161.0</ele><time>2026-05-05T09:23:53.175Z</time></trkpt><trkpt lat="37.5127" lon="15.015445"><ele>161.0</ele><time>2026-05-05T09:23:54.175Z</time></trkpt><trkpt lat="37.5127783" lon="15.0152783"><ele>161.0</ele><time>2026-05-05T09:23:55.175Z</time></trkpt><trkpt lat="37.5128617" lon="15.015115"><ele>161.0</ele><time>2026-05-05T09:23:56.175Z</time></trkpt><trkpt lat="37.5129383" lon="15.0149567"><ele>161.5</ele><time>2026-05-05T09:23:57.175Z</time></trkpt><trkpt lat="37.5130133" lon="15.0148"><ele>162.0</ele><time>2026-05-05T09:23:58.175Z</time></trkpt><trkpt lat="37.5130833" lon="15.0146433"><ele>162.5</ele><time>2026-05-05T09:23:59.176Z</time></trkpt><trkpt lat="37.51315" lon="15.0144917"><ele>163.0</ele><time>2026-05-05T09:24:00.175Z</time></trkpt><trkpt lat="37.5132183" lon="15.014335"><ele>163.0</ele><time>2026-05-05T09:24:01.175Z</time></trkpt><trkpt lat="37.5132867" lon="15.0141667"><ele>163.0</ele><time>2026-05-05T09:24:02.175Z</time></trkpt><trkpt lat="37.51335" lon="15.014005"><ele>163.0</ele><time>2026-05-05T09:24:03.175Z</time></trkpt><trkpt lat="37.5134117" lon="15.0138333"><ele>163.0</ele><time>2026-05-05T09:24:04.175Z</time></trkpt><trkpt lat="37.5134783" lon="15.013655"><ele>162.75</ele><time>2026-05-05T09:24:05.175Z</time></trkpt><trkpt lat="37.5135367" lon="15.01348"><ele>162.5</ele><time>2026-05-05T09:24:06.175Z</time></trkpt><trkpt lat="37.513585" lon="15.0133083"><ele>162.25</ele><time>2026-05-05T09:24:07.176Z</time></trkpt><trkpt lat="37.51362" lon="15.0131383"><ele>162.0</ele><time>2026-05-05T09:24:08.175Z</time></trkpt><trkpt lat="37.513655" lon="15.01296"><ele>162.75</ele><time>2026-05-05T09:24:09.176Z</time></trkpt><trkpt lat="37.5136867" lon="15.0127817"><ele>163.5</ele><time>2026-05-05T09:24:10.175Z</time></trkpt><trkpt lat="37.5137117" lon="15.0126017"><ele>164.25</ele><time>2026-05-05T09:24:11.175Z</time></trkpt><trkpt lat="37.5137317" lon="15.0124267"><ele>165.0</ele><time>2026-05-05T09:24:12.175Z</time></trkpt><trkpt lat="37.5137483" lon="15.0122433"><ele>165.0</ele><time>2026-05-05T09:24:13.175Z</time></trkpt><trkpt lat="37.51376" lon="15.0120667"><ele>165.0</ele><time>2026-05-05T09:24:14.175Z</time></trkpt><trkpt lat="37.5137667" lon="15.0118933"><ele>165.0</ele><time>2026-05-05T09:24:15.175Z</time></trkpt><trkpt lat="37.5137683" lon="15.0117217"><ele>165.0</ele><time>2026-05-05T09:24:16.175Z</time></trkpt><trkpt lat="37.51377" lon="15.0115517"><ele>165.25</ele><time>2026-05-05T09:24:17.175Z</time></trkpt><trkpt lat="37.513765" lon="15.0113783"><ele>165.5</ele><time>2026-05-05T09:24:18.175Z</time></trkpt><trkpt lat="37.513755" lon="15.0112033"><ele>165.75</ele><time>2026-05-05T09:24:19.175Z</time></trkpt><trkpt lat="37.5137467" lon="15.0110283"><ele>166.0</ele><time>2026-05-05T09:24:20.175Z</time></trkpt><trkpt lat="37.5137383" lon="15.0108467"><ele>168.33333333333334</ele><time>2026-05-05T09:24:21.175Z</time></trkpt><trkpt lat="37.5137233" lon="15.0106583"><ele>170.66666666666666</ele><time>2026-05-05T09:24:22.175Z</time></trkpt><trkpt lat="37.5137183" lon="15.0104667"><ele>173.0</ele><time>2026-05-05T09:24:23.176Z</time></trkpt><trkpt lat="37.51371" lon="15.0102733"><ele>173.0</ele><time>2026-05-05T09:24:24.175Z</time></trkpt><trkpt lat="37.5137017" lon="15.0100833"><ele>173.0</ele><time>2026-05-05T09:24:25.175Z</time></trkpt><trkpt lat="37.513695" lon="15.009885"><ele>173.0</ele><time>2026-05-05T09:24:26.175Z</time></trkpt><trkpt lat="37.51368" lon="15.0096683"><ele>173.0</ele><time>2026-05-05T09:24:27.175Z</time></trkpt><trkpt lat="37.5136617" lon="15.0094433"><ele>173.0</ele><time>2026-05-05T09:24:28.175Z</time></trkpt><trkpt lat="37.513645" lon="15.0092117"><ele>173.0</ele><time>2026-05-05T09:24:29.176Z</time></trkpt><trkpt lat="37.513635" lon="15.0089917"><ele>176.0</ele><time>2026-05-05T09:24:30.175Z</time></trkpt><trkpt lat="37.51362" lon="15.0087783"><ele>179.0</ele><time>2026-05-05T09:24:31.175Z</time></trkpt><trkpt lat="37.5136067" lon="15.008565"><ele>182.0</ele><time>2026-05-05T09:24:32.175Z</time></trkpt><trkpt lat="37.5135983" lon="15.0083467"><ele>183.66666666666666</ele><time>2026-05-05T09:24:33.175Z</time></trkpt><trkpt lat="37.5135917" lon="15.00814"><ele>185.33333333333334</ele><time>2026-05-05T09:24:34.175Z</time></trkpt><trkpt lat="37.51359" lon="15.0079317"><ele>187.0</ele><time>2026-05-05T09:24:35.175Z</time></trkpt><trkpt lat="37.5136017" lon="15.0077133"><ele>187.33333333333334</ele><time>2026-05-05T09:24:36.175Z</time></trkpt><trkpt lat="37.513625" lon="15.0074917"><ele>187.66666666666666</ele><time>2026-05-05T09:24:37.175Z</time></trkpt><trkpt lat="37.51366" lon="15.0072767"><ele>188.0</ele><time>2026-05-05T09:24:38.175Z</time></trkpt><trkpt lat="37.5137017" lon="15.0070567"><ele>192.0</ele><time>2026-05-05T09:24:39.175Z</time></trkpt><trkpt lat="37.513765" lon="15.0068467"><ele>196.0</ele><time>2026-05-05T09:24:40.175Z</time></trkpt><trkpt lat="37.51382" lon="15.00663"><ele>200.0</ele><time>2026-05-05T09:24:41.175Z</time></trkpt><trkpt lat="37.5138967" lon="15.0064267"><ele>200.33333333333334</ele><time>2026-05-05T09:24:42.175Z</time></trkpt><trkpt lat="37.51399" lon="15.0062267"><ele>200.66666666666669</ele><time>2026-05-05T09:24:43.175Z</time></trkpt><trkpt lat="37.51409" lon="15.0060333"><ele>201.0</ele><time>2026-05-05T09:24:44.175Z</time></trkpt><trkpt lat="37.5142" lon="15.0058517"><ele>203.0</ele><time>2026-05-05T09:24:45.175Z</time></trkpt><trkpt lat="37.5143233" lon="15.0056817"><ele>205.0</ele><time>2026-05-05T09:24:46.175Z</time></trkpt><trkpt lat="37.51446" lon="15.00551"><ele>207.0</ele><time>2026-05-05T09:24:47.175Z</time></trkpt><trkpt lat="37.5146033" lon="15.0053467"><ele>207.0</ele><time>2026-05-05T09:24:48.175Z</time></trkpt><trkpt lat="37.5147533" lon="15.005195"><ele>207.0</ele><time>2026-05-05T09:24:49.176Z</time></trkpt><trkpt lat="37.5148967" lon="15.00504"><ele>207.0</ele><time>2026-05-05T09:24:50.175Z</time></trkpt><trkpt lat="37.51504" lon="15.004885"><ele>207.66666666666669</ele><time>2026-05-05T09:24:51.175Z</time></trkpt><trkpt lat="37.5151783" lon="15.0047367"><ele>208.33333333333334</ele><time>2026-05-05T09:24:52.175Z</time></trkpt><trkpt lat="37.5153217" lon="15.004585"><ele>209.0</ele><time>2026-05-05T09:24:53.175Z</time></trkpt><trkpt lat="37.51547" lon="15.0044367"><ele>209.0</ele><time>2026-05-05T09:24:54.175Z</time></trkpt><trkpt lat="37.5156117" lon="15.004285"><ele>209.0</ele><time>2026-05-05T09:24:55.175Z</time></trkpt><trkpt lat="37.51576" lon="15.0041383"><ele>209.0</ele><time>2026-05-05T09:24:56.175Z</time></trkpt><trkpt lat="37.515905" lon="15.0039933"><ele>207.66666666666669</ele><time>2026-05-05T09:24:57.175Z</time></trkpt><trkpt lat="37.5160467" lon="15.0038483"><ele>206.33333333333331</ele><time>2026-05-05T09:24:58.175Z</time></trkpt><trkpt lat="37.5161867" lon="15.0036933"><ele>205.0</ele><time>2026-05-05T09:24:59.175Z</time></trkpt><trkpt lat="37.5163283" lon="15.0035467"><ele>206.66666666666666</ele><time>2026-05-05T09:25:00.175Z</time></trkpt><trkpt lat="37.5164717" lon="15.003405"><ele>208.33333333333331</ele><time>2026-05-05T09:25:01.175Z</time></trkpt><trkpt lat="37.5166167" lon="15.0032617"><ele>210.0</ele><time>2026-05-05T09:25:02.176Z</time></trkpt><trkpt lat="37.51676" lon="15.0031167"><ele>210.0</ele><time>2026-05-05T09:25:03.175Z</time></trkpt><trkpt lat="37.5169083" lon="15.0029733"><ele>210.0</ele><time>2026-05-05T09:25:04.175Z</time></trkpt><trkpt lat="37.51706" lon="15.00283"><ele>210.0</ele><time>2026-05-05T09:25:05.175Z</time></trkpt><trkpt lat="37.51721" lon="15.002685"><ele>211.66666666666669</ele><time>2026-05-05T09:25:06.175Z</time></trkpt><trkpt lat="37.517355" lon="15.0025317"><ele>213.33333333333334</ele><time>2026-05-05T09:25:07.175Z</time></trkpt><trkpt lat="37.5175083" lon="15.0023817"><ele>215.0</ele><time>2026-05-05T09:25:08.175Z</time></trkpt><trkpt lat="37.51766" lon="15.0022383"><ele>215.0</ele><time>2026-05-05T09:25:09.175Z</time></trkpt><trkpt lat="37.51781" lon="15.0020883"><ele>215.0</ele><time>2026-05-05T09:25:10.175Z</time></trkpt><trkpt lat="37.5179483" lon="15.0019333"><ele>215.0</ele><time>2026-05-05T09:25:11.175Z</time></trkpt><trkpt lat="37.5180883" lon="15.00177"><ele>217.66666666666669</ele><time>2026-05-05T09:25:12.175Z</time></trkpt><trkpt lat="37.5182117" lon="15.0016117"><ele>220.33333333333331</ele><time>2026-05-05T09:25:13.175Z</time></trkpt><trkpt lat="37.51833" lon="15.0014517"><ele>223.0</ele><time>2026-05-05T09:25:14.175Z</time></trkpt><trkpt lat="37.5184417" lon="15.0012967"><ele>223.0</ele><time>2026-05-05T09:25:15.175Z</time></trkpt><trkpt lat="37.51854" lon="15.0011283"><ele>223.0</ele><time>2026-05-05T09:25:16.175Z</time></trkpt><trkpt lat="37.51863" lon="15.0009667"><ele>223.0</ele><time>2026-05-05T09:25:17.175Z</time></trkpt><trkpt lat="37.5187167" lon="15.0008"><ele>229.0</ele><time>2026-05-05T09:25:18.175Z</time></trkpt><trkpt lat="37.5188033" lon="15.0006383"><ele>235.0</ele><time>2026-05-05T09:25:19.176Z</time></trkpt><trkpt lat="37.51889" lon="15.0004717"><ele>241.0</ele><time>2026-05-05T09:25:20.175Z</time></trkpt><trkpt lat="37.5189733" lon="15.0003"><ele>241.0</ele><time>2026-05-05T09:25:21.175Z</time></trkpt><trkpt lat="37.5190533" lon="15.0001167"><ele>241.0</ele><time>2026-05-05T09:25:22.175Z</time></trkpt><trkpt lat="37.5191367" lon="14.9999367"><ele>241.0</ele><time>2026-05-05T09:25:23.175Z</time></trkpt><trkpt lat="37.5192183" lon="14.999755"><ele>241.0</ele><time>2026-05-05T09:25:24.175Z</time></trkpt><trkpt lat="37.5193" lon="14.9995717"><ele>241.0</ele><time>2026-05-05T09:25:25.175Z</time></trkpt><trkpt lat="37.5193867" lon="14.9993867"><ele>241.0</ele><time>2026-05-05T09:25:26.175Z</time></trkpt><trkpt lat="37.51947" lon="14.9991983"><ele>238.66666666666666</ele><time>2026-05-05T09:25:27.175Z</time></trkpt><trkpt lat="37.5195633" lon="14.9990133"><ele>236.33333333333331</ele><time>2026-05-05T09:25:28.175Z</time></trkpt><trkpt lat="37.5196567" lon="14.9988283"><ele>234.0</ele><time>2026-05-05T09:25:29.175Z</time></trkpt><trkpt lat="37.5197583" lon="14.9986517"><ele>238.0</ele><time>2026-05-05T09:25:30.175Z</time></trkpt><trkpt lat="37.5198667" lon="14.9984533"><ele>242.0</ele><time>2026-05-05T09:25:31.175Z</time></trkpt><trkpt lat="37.51998" lon="14.9982733"><ele>246.0</ele><time>2026-05-05T09:25:32.175Z</time></trkpt><trkpt lat="37.5201017" lon="14.9981"><ele>246.0</ele><time>2026-05-05T09:25:33.175Z</time></trkpt><trkpt lat="37.5202433" lon="14.99794"><ele>246.0</ele><time>2026-05-05T09:25:34.175Z</time></trkpt><trkpt lat="37.520395" lon="14.9977767"><ele>246.0</ele><time>2026-05-05T09:25:35.175Z</time></trkpt><trkpt lat="37.5205517" lon="14.9976267"><ele>246.33333333333331</ele><time>2026-05-05T09:25:36.175Z</time></trkpt><trkpt lat="37.5207133" lon="14.9974933"><ele>246.66666666666666</ele><time>2026-05-05T09:25:37.176Z</time></trkpt><trkpt lat="37.5208733" lon="14.997375"><ele>247.0</ele><time>2026-05-05T09:25:38.175Z</time></trkpt><trkpt lat="37.521045" lon="14.9972533"><ele>247.0</ele><time>2026-05-05T09:25:39.175Z</time></trkpt><trkpt lat="37.5212167" lon="14.9971433"><ele>247.0</ele><time>2026-05-05T09:25:40.175Z</time></trkpt><trkpt lat="37.5213883" lon="14.997035"><ele>247.0</ele><time>2026-05-05T09:25:41.175Z</time></trkpt><trkpt lat="37.5215483" lon="14.9969417"><ele>247.0</ele><time>2026-05-05T09:25:42.175Z</time></trkpt><trkpt lat="37.5217083" lon="14.9968517"><ele>247.0</ele><time>2026-05-05T09:25:43.175Z</time></trkpt><trkpt lat="37.5218583" lon="14.9967517"><ele>247.0</ele><time>2026-05-05T09:25:44.176Z</time></trkpt><trkpt lat="37.5220217" lon="14.9966667"><ele>248.0</ele><time>2026-05-05T09:25:45.175Z</time></trkpt><trkpt lat="37.52217" lon="14.9965717"><ele>249.0</ele><time>2026-05-05T09:25:46.175Z</time></trkpt><trkpt lat="37.5223233" lon="14.9964883"><ele>250.0</ele><time>2026-05-05T09:25:47.175Z</time></trkpt><trkpt lat="37.5224833" lon="14.9963967"><ele>250.0</ele><time>2026-05-05T09:25:48.175Z</time></trkpt><trkpt lat="37.5226333" lon="14.9963083"><ele>250.0</ele><time>2026-05-05T09:25:49.175Z</time></trkpt><trkpt lat="37.5227867" lon="14.996215"><ele>250.0</ele><time>2026-05-05T09:25:50.175Z</time></trkpt><trkpt lat="37.52294" lon="14.9961233"><ele>250.66666666666666</ele><time>2026-05-05T09:25:51.175Z</time></trkpt><trkpt lat="37.5230967" lon="14.9960333"><ele>251.33333333333331</ele><time>2026-05-05T09:25:52.175Z</time></trkpt><trkpt lat="37.52325" lon="14.9959467"><ele>252.0</ele><time>2026-05-05T09:25:53.175Z</time></trkpt><trkpt lat="37.52341" lon="14.9958583"><ele>252.33333333333331</ele><time>2026-05-05T09:25:54.175Z</time></trkpt><trkpt lat="37.523565" lon="14.9957767"><ele>252.66666666666666</ele><time>2026-05-05T09:25:55.175Z</time></trkpt><trkpt lat="37.5237233" lon="14.9957"><ele>253.0</ele><time>2026-05-05T09:25:56.175Z</time></trkpt><trkpt lat="37.52389" lon="14.99563"><ele>253.0</ele><time>2026-05-05T09:25:57.175Z</time></trkpt><trkpt lat="37.52405" lon="14.9955617"><ele>253.0</ele><time>2026-05-05T09:25:58.175Z</time></trkpt><trkpt lat="37.52422" lon="14.9954933"><ele>253.0</ele><time>2026-05-05T09:25:59.175Z</time></trkpt><trkpt lat="37.5243833" lon="14.99542"><ele>253.0</ele><time>2026-05-05T09:26:00.175Z</time></trkpt><trkpt lat="37.5245467" lon="14.995355"><ele>253.0</ele><time>2026-05-05T09:26:01.175Z</time></trkpt><trkpt lat="37.524705" lon="14.99529"><ele>253.0</ele><time>2026-05-05T09:26:02.175Z</time></trkpt><trkpt lat="37.52487" lon="14.9952233"><ele>253.66666666666666</ele><time>2026-05-05T09:26:03.175Z</time></trkpt><trkpt lat="37.5250283" lon="14.9951633"><ele>254.33333333333331</ele><time>2026-05-05T09:26:04.175Z</time></trkpt><trkpt lat="37.5251933" lon="14.9950967"><ele>255.0</ele><time>2026-05-05T09:26:05.176Z</time></trkpt><trkpt lat="37.5253567" lon="14.9950283"><ele>255.33333333333331</ele><time>2026-05-05T09:26:06.175Z</time></trkpt><trkpt lat="37.5255283" lon="14.9949533"><ele>255.66666666666666</ele><time>2026-05-05T09:26:07.176Z</time></trkpt><trkpt lat="37.5256983" lon="14.9948733"><ele>256.0</ele><time>2026-05-05T09:26:08.175Z</time></trkpt><trkpt lat="37.5258733" lon="14.9947883"><ele>256.0</ele><time>2026-05-05T09:26:09.175Z</time></trkpt><trkpt lat="37.5260533" lon="14.9946967"><ele>256.0</ele><time>2026-05-05T09:26:10.175Z</time></trkpt><trkpt lat="37.5262317" lon="14.9946033"><ele>256.0</ele><time>2026-05-05T09:26:11.175Z</time></trkpt><trkpt lat="37.52641" lon="14.9945067"><ele>255.66666666666666</ele><time>2026-05-05T09:26:12.175Z</time></trkpt><trkpt lat="37.5265833" lon="14.9944083"><ele>255.33333333333331</ele><time>2026-05-05T09:26:13.175Z</time></trkpt><trkpt lat="37.5267567" lon="14.9942967"><ele>255.0</ele><time>2026-05-05T09:26:14.176Z</time></trkpt><trkpt lat="37.52693" lon="14.994185"><ele>254.33333333333331</ele><time>2026-05-05T09:26:15.175Z</time></trkpt><trkpt lat="37.5271033" lon="14.9940667"><ele>253.66666666666666</ele><time>2026-05-05T09:26:16.175Z</time></trkpt><trkpt lat="37.5272683" lon="14.9939367"><ele>253.0</ele><time>2026-05-05T09:26:17.176Z</time></trkpt><trkpt lat="37.5274317" lon="14.9938"><ele>253.0</ele><time>2026-05-05T09:26:18.175Z</time></trkpt><trkpt lat="37.5275883" lon="14.9936567"><ele>253.0</ele><time>2026-05-05T09:26:19.175Z</time></trkpt><trkpt lat="37.5277467" lon="14.99351"><ele>253.0</ele><time>2026-05-05T09:26:20.175Z</time></trkpt><trkpt lat="37.5279017" lon="14.9933533"><ele>253.33333333333331</ele><time>2026-05-05T09:26:21.175Z</time></trkpt><trkpt lat="37.5280567" lon="14.9931933"><ele>253.66666666666669</ele><time>2026-05-05T09:26:22.175Z</time></trkpt><trkpt lat="37.5282067" lon="14.993045"><ele>254.0</ele><time>2026-05-05T09:26:23.175Z</time></trkpt><trkpt lat="37.52835" lon="14.9929"><ele>254.0</ele><time>2026-05-05T09:26:24.175Z</time></trkpt><trkpt lat="37.5284867" lon="14.99275"><ele>254.0</ele><time>2026-05-05T09:26:25.175Z</time></trkpt><trkpt lat="37.5286283" lon="14.9926033"><ele>254.0</ele><time>2026-05-05T09:26:26.175Z</time></trkpt><trkpt lat="37.52877" lon="14.9924533"><ele>253.66666666666669</ele><time>2026-05-05T09:26:27.175Z</time></trkpt><trkpt lat="37.5289067" lon="14.9923067"><ele>253.33333333333331</ele><time>2026-05-05T09:26:28.175Z</time></trkpt><trkpt lat="37.5290417" lon="14.9921583"><ele>253.0</ele><time>2026-05-05T09:26:29.175Z</time></trkpt><trkpt lat="37.52918" lon="14.9920083"><ele>253.0</ele><time>2026-05-05T09:26:30.175Z</time></trkpt><trkpt lat="37.52932" lon="14.9918567"><ele>253.0</ele><time>2026-05-05T09:26:31.175Z</time></trkpt><trkpt lat="37.529465" lon="14.991705"><ele>253.0</ele><time>2026-05-05T09:26:32.176Z</time></trkpt><trkpt lat="37.52961" lon="14.9915567"><ele>252.66666666666666</ele><time>2026-05-05T09:26:33.175Z</time></trkpt><trkpt lat="37.5297567" lon="14.9914083"><ele>252.33333333333331</ele><time>2026-05-05T09:26:34.175Z</time></trkpt><trkpt lat="37.5299" lon="14.9912583"><ele>252.0</ele><time>2026-05-05T09:26:35.175Z</time></trkpt><trkpt lat="37.530045" lon="14.991105"><ele>252.0</ele><time>2026-05-05T09:26:36.175Z</time></trkpt><trkpt lat="37.5301917" lon="14.99096"><ele>252.0</ele><time>2026-05-05T09:26:37.175Z</time></trkpt><trkpt lat="37.5303383" lon="14.9908067"><ele>252.0</ele><time>2026-05-05T09:26:38.175Z</time></trkpt><trkpt lat="37.5304833" lon="14.9906517"><ele>251.0</ele><time>2026-05-05T09:26:39.175Z</time></trkpt><trkpt lat="37.5306267" lon="14.9905033"><ele>250.0</ele><time>2026-05-05T09:26:40.175Z</time></trkpt><trkpt lat="37.5307683" lon="14.99036"><ele>249.0</ele><time>2026-05-05T09:26:41.175Z</time></trkpt><trkpt lat="37.530915" lon="14.9902067"><ele>249.0</ele><time>2026-05-05T09:26:42.175Z</time></trkpt><trkpt lat="37.5310617" lon="14.9900617"><ele>249.0</ele><time>2026-05-05T09:26:43.175Z</time></trkpt><trkpt lat="37.5312017" lon="14.98991"><ele>249.0</ele><time>2026-05-05T09:26:44.175Z</time></trkpt><trkpt lat="37.5313417" lon="14.989765"><ele>249.33333333333331</ele><time>2026-05-05T09:26:45.175Z</time></trkpt><trkpt lat="37.5314833" lon="14.989615"><ele>249.66666666666666</ele><time>2026-05-05T09:26:46.175Z</time></trkpt><trkpt lat="37.5316283" lon="14.9894633"><ele>250.0</ele><time>2026-05-05T09:26:47.175Z</time></trkpt><trkpt lat="37.5317667" lon="14.98932"><ele>250.0</ele><time>2026-05-05T09:26:48.175Z</time></trkpt><trkpt lat="37.5318933" lon="14.98918"><ele>250.0</ele><time>2026-05-05T09:26:49.175Z</time></trkpt><trkpt lat="37.5320167" lon="14.9890517"><ele>250.0</ele><time>2026-05-05T09:26:50.175Z</time></trkpt><trkpt lat="37.532135" lon="14.9889183"><ele>250.33333333333331</ele><time>2026-05-05T09:26:51.175Z</time></trkpt><trkpt lat="37.532255" lon="14.9887883"><ele>250.66666666666669</ele><time>2026-05-05T09:26:52.175Z</time></trkpt><trkpt lat="37.5323717" lon="14.9886617"><ele>251.0</ele><time>2026-05-05T09:26:53.175Z</time></trkpt><trkpt lat="37.53249" lon="14.9885317"><ele>251.0</ele><time>2026-05-05T09:26:54.176Z</time></trkpt><trkpt lat="37.5326133" lon="14.9883967"><ele>251.0</ele><time>2026-05-05T09:26:55.176Z</time></trkpt><trkpt lat="37.532725" lon="14.988265"><ele>251.0</ele><time>2026-05-05T09:26:56.175Z</time></trkpt><trkpt lat="37.53283" lon="14.988135"><ele>252.0</ele><time>2026-05-05T09:26:57.175Z</time></trkpt><trkpt lat="37.5329383" lon="14.987995"><ele>253.0</ele><time>2026-05-05T09:26:58.176Z</time></trkpt><trkpt lat="37.533045" lon="14.9878517"><ele>254.0</ele><time>2026-05-05T09:26:59.176Z</time></trkpt><trkpt lat="37.5331517" lon="14.9877017"><ele>254.0</ele><time>2026-05-05T09:27:00.175Z</time></trkpt><trkpt lat="37.5332633" lon="14.9875483"><ele>254.0</ele><time>2026-05-05T09:27:01.175Z</time></trkpt><trkpt lat="37.53337" lon="14.9873933"><ele>254.0</ele><time>2026-05-05T09:27:02.175Z</time></trkpt><trkpt lat="37.533475" lon="14.9872317"><ele>254.33333333333334</ele><time>2026-05-05T09:27:03.175Z</time></trkpt><trkpt lat="37.53358" lon="14.9870633"><ele>254.66666666666669</ele><time>2026-05-05T09:27:04.175Z</time></trkpt><trkpt lat="37.533675" lon="14.9868917"><ele>255.0</ele><time>2026-05-05T09:27:05.175Z</time></trkpt><trkpt lat="37.53377" lon="14.986715"><ele>254.33333333333331</ele><time>2026-05-05T09:27:06.175Z</time></trkpt><trkpt lat="37.5338633" lon="14.9865417"><ele>253.66666666666666</ele><time>2026-05-05T09:27:07.175Z</time></trkpt><trkpt lat="37.5339517" lon="14.9863617"><ele>253.0</ele><time>2026-05-05T09:27:08.175Z</time></trkpt><trkpt lat="37.5340367" lon="14.9861783"><ele>253.0</ele><time>2026-05-05T09:27:09.175Z</time></trkpt><trkpt lat="37.5341233" lon="14.9859933"><ele>253.0</ele><time>2026-05-05T09:27:10.175Z</time></trkpt><trkpt lat="37.5342067" lon="14.9858017"><ele>253.0</ele><time>2026-05-05T09:27:11.175Z</time></trkpt><trkpt lat="37.5342917" lon="14.9856017"><ele>253.66666666666666</ele><time>2026-05-05T09:27:12.175Z</time></trkpt><trkpt lat="37.5343717" lon="14.985405"><ele>254.33333333333331</ele><time>2026-05-05T09:27:13.175Z</time></trkpt><trkpt lat="37.5344533" lon="14.985205"><ele>255.0</ele><time>2026-05-05T09:27:14.175Z</time></trkpt><trkpt lat="37.5345367" lon="14.9850017"><ele>255.0</ele><time>2026-05-05T09:27:15.175Z</time></trkpt><trkpt lat="37.53462" lon="14.9847967"><ele>255.0</ele><time>2026-05-05T09:27:16.175Z</time></trkpt><trkpt lat="37.5346917" lon="14.9845983"><ele>255.0</ele><time>2026-05-05T09:27:17.175Z</time></trkpt><trkpt lat="37.53478" lon="14.9843883"><ele>255.0</ele><time>2026-05-05T09:27:18.175Z</time></trkpt><trkpt lat="37.5348583" lon="14.9841833"><ele>255.0</ele><time>2026-05-05T09:27:19.175Z</time></trkpt><trkpt lat="37.53494" lon="14.9839767"><ele>255.0</ele><time>2026-05-05T09:27:20.175Z</time></trkpt><trkpt lat="37.5350167" lon="14.9837683"><ele>255.33333333333331</ele><time>2026-05-05T09:27:21.175Z</time></trkpt><trkpt lat="37.5350967" lon="14.9835617"><ele>255.66666666666666</ele><time>2026-05-05T09:27:22.175Z</time></trkpt><trkpt lat="37.5351783" lon="14.9833517"><ele>256.0</ele><time>2026-05-05T09:27:23.175Z</time></trkpt><trkpt lat="37.5352633" lon="14.9831417"><ele>256.0</ele><time>2026-05-05T09:27:24.175Z</time></trkpt><trkpt lat="37.53535" lon="14.9829283"><ele>256.0</ele><time>2026-05-05T09:27:25.175Z</time></trkpt><trkpt lat="37.5354267" lon="14.9827167"><ele>256.0</ele><time>2026-05-05T09:27:26.175Z</time></trkpt><trkpt lat="37.5355167" lon="14.98251"><ele>256.0</ele><time>2026-05-05T09:27:27.175Z</time></trkpt><trkpt lat="37.5355983" lon="14.9823017"><ele>256.0</ele><time>2026-05-05T09:27:28.175Z</time></trkpt><trkpt lat="37.5356783" lon="14.9820933"><ele>256.0</ele><time>2026-05-05T09:27:29.175Z</time></trkpt><trkpt lat="37.5357583" lon="14.9818783"><ele>255.66666666666666</ele><time>2026-05-05T09:27:30.175Z</time></trkpt><trkpt lat="37.5358383" lon="14.9816667"><ele>255.33333333333331</ele><time>2026-05-05T09:27:31.175Z</time></trkpt><trkpt lat="37.5359167" lon="14.9814633"><ele>255.0</ele><time>2026-05-05T09:27:32.175Z</time></trkpt><trkpt lat="37.536" lon="14.981255"><ele>255.0</ele><time>2026-05-05T09:27:33.175Z</time></trkpt><trkpt lat="37.5360817" lon="14.981045"><ele>255.0</ele><time>2026-05-05T09:27:34.175Z</time></trkpt><trkpt lat="37.5361683" lon="14.9808333"><ele>255.0</ele><time>2026-05-05T09:27:35.175Z</time></trkpt><trkpt lat="37.5362467" lon="14.9806233"><ele>255.33333333333331</ele><time>2026-05-05T09:27:36.175Z</time></trkpt><trkpt lat="37.5363167" lon="14.980415"><ele>255.66666666666666</ele><time>2026-05-05T09:27:37.176Z</time></trkpt><trkpt lat="37.5363883" lon="14.9801983"><ele>256.0</ele><time>2026-05-05T09:27:38.175Z</time></trkpt><trkpt lat="37.5364567" lon="14.9799817"><ele>256.3333333333333</ele><time>2026-05-05T09:27:39.175Z</time></trkpt><trkpt lat="37.53652" lon="14.9797667"><ele>256.6666666666667</ele><time>2026-05-05T09:27:40.175Z</time></trkpt><trkpt lat="37.53658" lon="14.97955"><ele>257.0</ele><time>2026-05-05T09:27:41.175Z</time></trkpt><trkpt lat="37.5366367" lon="14.9793317"><ele>256.33333333333337</ele><time>2026-05-05T09:27:42.176Z</time></trkpt><trkpt lat="37.5366883" lon="14.9791067"><ele>255.66666666666669</ele><time>2026-05-05T09:27:43.175Z</time></trkpt><trkpt lat="37.5367317" lon="14.9788767"><ele>255.0</ele><time>2026-05-05T09:27:44.175Z</time></trkpt><trkpt lat="37.536775" lon="14.97865"><ele>255.0</ele><time>2026-05-05T09:27:45.175Z</time></trkpt><trkpt lat="37.536815" lon="14.9784217"><ele>255.0</ele><time>2026-05-05T09:27:46.175Z</time></trkpt><trkpt lat="37.53685" lon="14.97819"><ele>255.0</ele><time>2026-05-05T09:27:47.175Z</time></trkpt><trkpt lat="37.5368867" lon="14.9779633"><ele>254.66666666666669</ele><time>2026-05-05T09:27:48.175Z</time></trkpt><trkpt lat="37.5369217" lon="14.977735"><ele>254.33333333333334</ele><time>2026-05-05T09:27:49.175Z</time></trkpt><trkpt lat="37.5369533" lon="14.9775083"><ele>254.0</ele><time>2026-05-05T09:27:50.175Z</time></trkpt><trkpt lat="37.5369867" lon="14.97728"><ele>254.0</ele><time>2026-05-05T09:27:51.175Z</time></trkpt><trkpt lat="37.5370267" lon="14.9770467"><ele>254.0</ele><time>2026-05-05T09:27:52.176Z</time></trkpt><trkpt lat="37.5370567" lon="14.9768217"><ele>254.0</ele><time>2026-05-05T09:27:53.175Z</time></trkpt><trkpt lat="37.5370883" lon="14.9765917"><ele>254.66666666666669</ele><time>2026-05-05T09:27:54.175Z</time></trkpt><trkpt lat="37.537125" lon="14.97636"><ele>255.33333333333331</ele><time>2026-05-05T09:27:55.175Z</time></trkpt><trkpt lat="37.5371583" lon="14.97613"><ele>256.0</ele><time>2026-05-05T09:27:56.175Z</time></trkpt><trkpt lat="37.5371917" lon="14.975905"><ele>255.33333333333331</ele><time>2026-05-05T09:27:57.175Z</time></trkpt><trkpt lat="37.537225" lon="14.975675"><ele>254.66666666666669</ele><time>2026-05-05T09:27:58.175Z</time></trkpt><trkpt lat="37.5372567" lon="14.9754517"><ele>254.0</ele><time>2026-05-05T09:27:59.175Z</time></trkpt><trkpt lat="37.5372883" lon="14.9752183"><ele>254.66666666666669</ele><time>2026-05-05T09:28:00.175Z</time></trkpt><trkpt lat="37.537325" lon="14.974985"><ele>255.33333333333331</ele><time>2026-05-05T09:28:01.175Z</time></trkpt><trkpt lat="37.53736" lon="14.9747583"><ele>256.0</ele><time>2026-05-05T09:28:02.175Z</time></trkpt><trkpt lat="37.5373917" lon="14.9745333"><ele>256.0</ele><time>2026-05-05T09:28:03.175Z</time></trkpt><trkpt lat="37.537425" lon="14.97431"><ele>256.0</ele><time>2026-05-05T09:28:04.175Z</time></trkpt><trkpt lat="37.53746" lon="14.9740817"><ele>256.0</ele><time>2026-05-05T09:28:05.175Z</time></trkpt><trkpt lat="37.5374967" lon="14.9738483"><ele>256.0</ele><time>2026-05-05T09:28:06.176Z</time></trkpt><trkpt lat="37.5375283" lon="14.9736117"><ele>256.0</ele><time>2026-05-05T09:28:07.175Z</time></trkpt><trkpt lat="37.53756" lon="14.9733683"><ele>256.0</ele><time>2026-05-05T09:28:08.175Z</time></trkpt><trkpt lat="37.5375883" lon="14.97313"><ele>256.0</ele><time>2026-05-05T09:28:09.175Z</time></trkpt><trkpt lat="37.5376167" lon="14.97289"><ele>256.0</ele><time>2026-05-05T09:28:10.175Z</time></trkpt><trkpt lat="37.5376517" lon="14.9726367"><ele>256.0</ele><time>2026-05-05T09:28:11.176Z</time></trkpt><trkpt lat="37.537685" lon="14.9724083"><ele>255.66666666666666</ele><time>2026-05-05T09:28:12.176Z</time></trkpt><trkpt lat="37.5377267" lon="14.9721583"><ele>255.33333333333331</ele><time>2026-05-05T09:28:13.175Z</time></trkpt><trkpt lat="37.5377667" lon="14.971915"><ele>255.0</ele><time>2026-05-05T09:28:14.175Z</time></trkpt><trkpt lat="37.537805" lon="14.9716717"><ele>254.66666666666669</ele><time>2026-05-05T09:28:15.175Z</time></trkpt><trkpt lat="37.53783" lon="14.97143"><ele>254.33333333333334</ele><time>2026-05-05T09:28:16.175Z</time></trkpt><trkpt lat="37.5378717" lon="14.9711867"><ele>254.0</ele><time>2026-05-05T09:28:17.175Z</time></trkpt><trkpt lat="37.53791" lon="14.97094"><ele>254.33333333333334</ele><time>2026-05-05T09:28:18.175Z</time></trkpt><trkpt lat="37.537945" lon="14.9707017"><ele>254.66666666666669</ele><time>2026-05-05T09:28:19.175Z</time></trkpt><trkpt lat="37.537985" lon="14.97046"><ele>255.0</ele><time>2026-05-05T09:28:20.176Z</time></trkpt><trkpt lat="37.538025" lon="14.97022"><ele>254.33333333333331</ele><time>2026-05-05T09:28:21.175Z</time></trkpt><trkpt lat="37.538065" lon="14.9699817"><ele>253.66666666666666</ele><time>2026-05-05T09:28:22.175Z</time></trkpt><trkpt lat="37.5381" lon="14.9697417"><ele>253.0</ele><time>2026-05-05T09:28:23.176Z</time></trkpt><trkpt lat="37.5381433" lon="14.969495"><ele>253.0</ele><time>2026-05-05T09:28:24.175Z</time></trkpt><trkpt lat="37.5381817" lon="14.96925"><ele>253.0</ele><time>2026-05-05T09:28:25.176Z</time></trkpt><trkpt lat="37.5382217" lon="14.969005"><ele>253.0</ele><time>2026-05-05T09:28:26.175Z</time></trkpt><trkpt lat="37.5382667" lon="14.9687567"><ele>252.33333333333331</ele><time>2026-05-05T09:28:27.175Z</time></trkpt><trkpt lat="37.5383017" lon="14.9685183"><ele>251.66666666666669</ele><time>2026-05-05T09:28:28.175Z</time></trkpt><trkpt lat="37.5383383" lon="14.9682717"><ele>251.0</ele><time>2026-05-05T09:28:29.175Z</time></trkpt><trkpt lat="37.5383783" lon="14.9680283"><ele>250.33333333333334</ele><time>2026-05-05T09:28:30.175Z</time></trkpt><trkpt lat="37.53841" lon="14.9677833"><ele>249.66666666666669</ele><time>2026-05-05T09:28:31.175Z</time></trkpt><trkpt lat="37.5384467" lon="14.9675433"><ele>249.0</ele><time>2026-05-05T09:28:32.175Z</time></trkpt><trkpt lat="37.5384833" lon="14.967305"><ele>248.33333333333331</ele><time>2026-05-05T09:28:33.175Z</time></trkpt><trkpt lat="37.538525" lon="14.9670667"><ele>247.66666666666666</ele><time>2026-05-05T09:28:34.175Z</time></trkpt><trkpt lat="37.53856" lon="14.96682"><ele>247.0</ele><time>2026-05-05T09:28:35.175Z</time></trkpt><trkpt lat="37.5385967" lon="14.9665767"><ele>246.66666666666666</ele><time>2026-05-05T09:28:36.175Z</time></trkpt><trkpt lat="37.5386333" lon="14.9663317"><ele>246.33333333333331</ele><time>2026-05-05T09:28:37.175Z</time></trkpt><trkpt lat="37.5386667" lon="14.96609"><ele>246.0</ele><time>2026-05-05T09:28:38.175Z</time></trkpt><trkpt lat="37.538705" lon="14.96585"><ele>245.0</ele><time>2026-05-05T09:28:39.175Z</time></trkpt><trkpt lat="37.5387467" lon="14.9656083"><ele>244.0</ele><time>2026-05-05T09:28:40.175Z</time></trkpt><trkpt lat="37.5387783" lon="14.9653667"><ele>243.0</ele><time>2026-05-05T09:28:41.175Z</time></trkpt><trkpt lat="37.5388117" lon="14.9651267"><ele>242.66666666666669</ele><time>2026-05-05T09:28:42.174Z</time></trkpt><trkpt lat="37.5388517" lon="14.9648833"><ele>242.33333333333334</ele><time>2026-05-05T09:28:43.174Z</time></trkpt><trkpt lat="37.5388967" lon="14.9646417"><ele>242.0</ele><time>2026-05-05T09:28:44.175Z</time></trkpt><trkpt lat="37.538935" lon="14.9644017"><ele>241.66666666666669</ele><time>2026-05-05T09:28:45.174Z</time></trkpt><trkpt lat="37.53897" lon="14.9641617"><ele>241.33333333333331</ele><time>2026-05-05T09:28:46.174Z</time></trkpt><trkpt lat="37.539005" lon="14.9639217"><ele>241.0</ele><time>2026-05-05T09:28:47.174Z</time></trkpt><trkpt lat="37.539035" lon="14.96368"><ele>241.0</ele><time>2026-05-05T09:28:48.175Z</time></trkpt><trkpt lat="37.5390667" lon="14.96344"><ele>241.0</ele><time>2026-05-05T09:28:49.174Z</time></trkpt><trkpt lat="37.5390983" lon="14.9632"><ele>241.0</ele><time>2026-05-05T09:28:50.174Z</time></trkpt><trkpt lat="37.5391333" lon="14.9629583"><ele>241.33333333333331</ele><time>2026-05-05T09:28:51.174Z</time></trkpt><trkpt lat="37.5391717" lon="14.962715"><ele>241.66666666666669</ele><time>2026-05-05T09:28:52.174Z</time></trkpt><trkpt lat="37.539205" lon="14.9624717"><ele>242.0</ele><time>2026-05-05T09:28:53.174Z</time></trkpt><trkpt lat="37.5392467" lon="14.9622317"><ele>243.33333333333334</ele><time>2026-05-05T09:28:54.174Z</time></trkpt><trkpt lat="37.5392817" lon="14.9619883"><ele>244.66666666666669</ele><time>2026-05-05T09:28:55.174Z</time></trkpt><trkpt lat="37.5393217" lon="14.9617433"><ele>246.0</ele><time>2026-05-05T09:28:56.174Z</time></trkpt><trkpt lat="37.53936" lon="14.9614967"><ele>246.66666666666669</ele><time>2026-05-05T09:28:57.174Z</time></trkpt><trkpt lat="37.5393933" lon="14.9612567"><ele>247.33333333333334</ele><time>2026-05-05T09:28:58.174Z</time></trkpt><trkpt lat="37.5394267" lon="14.961015"><ele>248.0</ele><time>2026-05-05T09:28:59.174Z</time></trkpt><trkpt lat="37.5394633" lon="14.9607733"><ele>248.0</ele><time>2026-05-05T09:29:00.174Z</time></trkpt><trkpt lat="37.5395017" lon="14.9605317"><ele>248.0</ele><time>2026-05-05T09:29:01.174Z</time></trkpt><trkpt lat="37.5395383" lon="14.96029"><ele>248.0</ele><time>2026-05-05T09:29:02.174Z</time></trkpt><trkpt lat="37.5395733" lon="14.9600483"><ele>248.66666666666669</ele><time>2026-05-05T09:29:03.174Z</time></trkpt><trkpt lat="37.5396083" lon="14.959805"><ele>249.33333333333331</ele><time>2026-05-05T09:29:04.174Z</time></trkpt><trkpt lat="37.5396433" lon="14.959565"><ele>250.0</ele><time>2026-05-05T09:29:05.174Z</time></trkpt><trkpt lat="37.539685" lon="14.9593217"><ele>249.66666666666666</ele><time>2026-05-05T09:29:06.174Z</time></trkpt><trkpt lat="37.5397267" lon="14.959085"><ele>249.33333333333331</ele><time>2026-05-05T09:29:07.174Z</time></trkpt><trkpt lat="37.5397683" lon="14.9588433"><ele>249.0</ele><time>2026-05-05T09:29:08.174Z</time></trkpt><trkpt lat="37.5398183" lon="14.9586"><ele>249.0</ele><time>2026-05-05T09:29:09.173Z</time></trkpt><trkpt lat="37.53987" lon="14.9583617"><ele>249.0</ele><time>2026-05-05T09:29:10.175Z</time></trkpt><trkpt lat="37.53993" lon="14.9581233"><ele>249.0</ele><time>2026-05-05T09:29:11.174Z</time></trkpt><trkpt lat="37.5399883" lon="14.95789"><ele>249.0</ele><time>2026-05-05T09:29:12.174Z</time></trkpt><trkpt lat="37.540055" lon="14.95766"><ele>249.0</ele><time>2026-05-05T09:29:13.174Z</time></trkpt><trkpt lat="37.5401283" lon="14.9574283"><ele>249.0</ele><time>2026-05-05T09:29:14.174Z</time></trkpt><trkpt lat="37.5402067" lon="14.9572017"><ele>249.0</ele><time>2026-05-05T09:29:15.174Z</time></trkpt><trkpt lat="37.5402917" lon="14.9569767"><ele>249.0</ele><time>2026-05-05T09:29:16.174Z</time></trkpt><trkpt lat="37.5403767" lon="14.9567517"><ele>249.0</ele><time>2026-05-05T09:29:17.174Z</time></trkpt><trkpt lat="37.5404683" lon="14.956525"><ele>249.0</ele><time>2026-05-05T09:29:18.174Z</time></trkpt><trkpt lat="37.5405583" lon="14.9563083"><ele>249.0</ele><time>2026-05-05T09:29:19.175Z</time></trkpt><trkpt lat="37.5406567" lon="14.9560917"><ele>249.0</ele><time>2026-05-05T09:29:20.175Z</time></trkpt><trkpt lat="37.5407567" lon="14.9558833"><ele>248.66666666666669</ele><time>2026-05-05T09:29:21.174Z</time></trkpt><trkpt lat="37.5408633" lon="14.9556733"><ele>248.33333333333334</ele><time>2026-05-05T09:29:22.174Z</time></trkpt><trkpt lat="37.5409717" lon="14.9554667"><ele>248.0</ele><time>2026-05-05T09:29:23.175Z</time></trkpt><trkpt lat="37.541085" lon="14.9552617"><ele>248.0</ele><time>2026-05-05T09:29:24.174Z</time></trkpt><trkpt lat="37.5412" lon="14.9550617"><ele>248.0</ele><time>2026-05-05T09:29:25.175Z</time></trkpt><trkpt lat="37.5413167" lon="14.95486"><ele>248.0</ele><time>2026-05-05T09:29:26.175Z</time></trkpt><trkpt lat="37.5414317" lon="14.954665"><ele>248.33333333333334</ele><time>2026-05-05T09:29:27.174Z</time></trkpt><trkpt lat="37.5415467" lon="14.954465"><ele>248.66666666666669</ele><time>2026-05-05T09:29:28.174Z</time></trkpt><trkpt lat="37.541665" lon="14.9542617"><ele>249.0</ele><time>2026-05-05T09:29:29.174Z</time></trkpt><trkpt lat="37.5417867" lon="14.95406"><ele>249.0</ele><time>2026-05-05T09:29:30.174Z</time></trkpt><trkpt lat="37.5419083" lon="14.95386"><ele>249.0</ele><time>2026-05-05T09:29:31.174Z</time></trkpt><trkpt lat="37.54203" lon="14.953665"><ele>249.0</ele><time>2026-05-05T09:29:32.174Z</time></trkpt><trkpt lat="37.5421467" lon="14.9534733"><ele>248.0</ele><time>2026-05-05T09:29:33.175Z</time></trkpt><trkpt lat="37.5422633" lon="14.9532767"><ele>247.0</ele><time>2026-05-05T09:29:34.174Z</time></trkpt><trkpt lat="37.5423833" lon="14.9530767"><ele>246.0</ele><time>2026-05-05T09:29:35.174Z</time></trkpt><trkpt lat="37.5424933" lon="14.9528783"><ele>246.0</ele><time>2026-05-05T09:29:36.174Z</time></trkpt><trkpt lat="37.54261" lon="14.9526783"><ele>246.0</ele><time>2026-05-05T09:29:37.174Z</time></trkpt><trkpt lat="37.5427267" lon="14.9524767"><ele>246.0</ele><time>2026-05-05T09:29:38.175Z</time></trkpt><trkpt lat="37.5428433" lon="14.9522767"><ele>246.0</ele><time>2026-05-05T09:29:39.174Z</time></trkpt><trkpt lat="37.542955" lon="14.952075"><ele>246.0</ele><time>2026-05-05T09:29:40.174Z</time></trkpt><trkpt lat="37.5430683" lon="14.9518817"><ele>246.0</ele><time>2026-05-05T09:29:41.174Z</time></trkpt><trkpt lat="37.5431817" lon="14.9516833"><ele>246.66666666666669</ele><time>2026-05-05T09:29:42.174Z</time></trkpt><trkpt lat="37.5432867" lon="14.951485"><ele>247.33333333333334</ele><time>2026-05-05T09:29:43.174Z</time></trkpt><trkpt lat="37.5433967" lon="14.9512917"><ele>248.0</ele><time>2026-05-05T09:29:44.174Z</time></trkpt><trkpt lat="37.543515" lon="14.9510917"><ele>248.0</ele><time>2026-05-05T09:29:45.174Z</time></trkpt><trkpt lat="37.54363" lon="14.950895"><ele>248.0</ele><time>2026-05-05T09:29:46.174Z</time></trkpt><trkpt lat="37.5437483" lon="14.9506967"><ele>248.0</ele><time>2026-05-05T09:29:47.174Z</time></trkpt><trkpt lat="37.5438633" lon="14.9505"><ele>248.0</ele><time>2026-05-05T09:29:48.174Z</time></trkpt><trkpt lat="37.54398" lon="14.9503017"><ele>248.0</ele><time>2026-05-05T09:29:49.174Z</time></trkpt><trkpt lat="37.5441017" lon="14.9501083"><ele>248.0</ele><time>2026-05-05T09:29:50.174Z</time></trkpt><trkpt lat="37.5442283" lon="14.9499167"><ele>248.0</ele><time>2026-05-05T09:29:51.174Z</time></trkpt><trkpt lat="37.5443467" lon="14.9497217"><ele>248.0</ele><time>2026-05-05T09:29:52.174Z</time></trkpt><trkpt lat="37.5444617" lon="14.9495267"><ele>248.0</ele><time>2026-05-05T09:29:53.174Z</time></trkpt><trkpt lat="37.5445817" lon="14.9493267"><ele>248.66666666666669</ele><time>2026-05-05T09:29:54.174Z</time></trkpt><trkpt lat="37.544695" lon="14.94913"><ele>249.33333333333331</ele><time>2026-05-05T09:29:55.174Z</time></trkpt><trkpt lat="37.544815" lon="14.9489333"><ele>250.0</ele><time>2026-05-05T09:29:56.174Z</time></trkpt><trkpt lat="37.5449333" lon="14.948735"><ele>250.0</ele><time>2026-05-05T09:29:57.175Z</time></trkpt><trkpt lat="37.5450483" lon="14.9485367"><ele>250.0</ele><time>2026-05-05T09:29:58.174Z</time></trkpt><trkpt lat="37.5451683" lon="14.9483367"><ele>250.0</ele><time>2026-05-05T09:29:59.175Z</time></trkpt><trkpt lat="37.545285" lon="14.9481367"><ele>249.66666666666666</ele><time>2026-05-05T09:30:00.174Z</time></trkpt><trkpt lat="37.5454017" lon="14.947935"><ele>249.33333333333331</ele><time>2026-05-05T09:30:01.174Z</time></trkpt><trkpt lat="37.5455167" lon="14.9477333"><ele>249.0</ele><time>2026-05-05T09:30:02.174Z</time></trkpt><trkpt lat="37.5456333" lon="14.947535"><ele>249.66666666666669</ele><time>2026-05-05T09:30:03.174Z</time></trkpt><trkpt lat="37.5457517" lon="14.94734"><ele>250.33333333333334</ele><time>2026-05-05T09:30:04.173Z</time></trkpt><trkpt lat="37.5458683" lon="14.9471383"><ele>251.0</ele><time>2026-05-05T09:30:05.174Z</time></trkpt><trkpt lat="37.545985" lon="14.9469433"><ele>251.0</ele><time>2026-05-05T09:30:06.174Z</time></trkpt><trkpt lat="37.546105" lon="14.9467433"><ele>251.0</ele><time>2026-05-05T09:30:07.174Z</time></trkpt><trkpt lat="37.5462183" lon="14.9465417"><ele>251.0</ele><time>2026-05-05T09:30:08.174Z</time></trkpt><trkpt lat="37.5463367" lon="14.9463433"><ele>250.0</ele><time>2026-05-05T09:30:09.174Z</time></trkpt><trkpt lat="37.5464517" lon="14.9461433"><ele>249.0</ele><time>2026-05-05T09:30:10.174Z</time></trkpt><trkpt lat="37.5465733" lon="14.9459417"><ele>248.0</ele><time>2026-05-05T09:30:11.175Z</time></trkpt><trkpt lat="37.5466883" lon="14.9457467"><ele>248.0</ele><time>2026-05-05T09:30:12.174Z</time></trkpt><trkpt lat="37.5468083" lon="14.9455467"><ele>248.0</ele><time>2026-05-05T09:30:13.174Z</time></trkpt><trkpt lat="37.5469233" lon="14.94535"><ele>248.0</ele><time>2026-05-05T09:30:14.174Z</time></trkpt><trkpt lat="37.54704" lon="14.94515"><ele>248.66666666666669</ele><time>2026-05-05T09:30:15.174Z</time></trkpt><trkpt lat="37.5471583" lon="14.94495"><ele>249.33333333333331</ele><time>2026-05-05T09:30:16.174Z</time></trkpt><trkpt lat="37.54728" lon="14.944755"><ele>250.0</ele><time>2026-05-05T09:30:17.174Z</time></trkpt><trkpt lat="37.5473933" lon="14.9445583"><ele>250.0</ele><time>2026-05-05T09:30:18.175Z</time></trkpt><trkpt lat="37.54751" lon="14.9443617"><ele>250.0</ele><time>2026-05-05T09:30:19.174Z</time></trkpt><trkpt lat="37.5476283" lon="14.9441683"><ele>250.0</ele><time>2026-05-05T09:30:20.174Z</time></trkpt><trkpt lat="37.5477467" lon="14.9439733"><ele>250.0</ele><time>2026-05-05T09:30:21.174Z</time></trkpt><trkpt lat="37.5478617" lon="14.943775"><ele>250.0</ele><time>2026-05-05T09:30:22.174Z</time></trkpt><trkpt lat="37.5479783" lon="14.943575"><ele>250.0</ele><time>2026-05-05T09:30:23.174Z</time></trkpt><trkpt lat="37.5480967" lon="14.943375"><ele>251.66666666666666</ele><time>2026-05-05T09:30:24.174Z</time></trkpt><trkpt lat="37.54821" lon="14.943175"><ele>253.33333333333331</ele><time>2026-05-05T09:30:25.174Z</time></trkpt><trkpt lat="37.54832" lon="14.9429767"><ele>255.0</ele><time>2026-05-05T09:30:26.174Z</time></trkpt><trkpt lat="37.5484333" lon="14.94277"><ele>255.0</ele><time>2026-05-05T09:30:27.174Z</time></trkpt><trkpt lat="37.5485467" lon="14.9425633"><ele>255.0</ele><time>2026-05-05T09:30:28.174Z</time></trkpt><trkpt lat="37.5486667" lon="14.9423533"><ele>255.0</ele><time>2026-05-05T09:30:29.174Z</time></trkpt><trkpt lat="37.548785" lon="14.9421417"><ele>256.0</ele><time>2026-05-05T09:30:30.175Z</time></trkpt><trkpt lat="37.5489083" lon="14.94193"><ele>257.0</ele><time>2026-05-05T09:30:31.174Z</time></trkpt><trkpt lat="37.54903" lon="14.9417233"><ele>258.0</ele><time>2026-05-05T09:30:32.175Z</time></trkpt><trkpt lat="37.5491483" lon="14.9415167"><ele>258.0</ele><time>2026-05-05T09:30:33.174Z</time></trkpt><trkpt lat="37.5492817" lon="14.941305"><ele>258.0</ele><time>2026-05-05T09:30:34.174Z</time></trkpt><trkpt lat="37.5494017" lon="14.9411"><ele>258.0</ele><time>2026-05-05T09:30:35.174Z</time></trkpt><trkpt lat="37.5495267" lon="14.9408917"><ele>260.3333333333333</ele><time>2026-05-05T09:30:36.174Z</time></trkpt><trkpt lat="37.5496567" lon="14.9406833"><ele>262.66666666666663</ele><time>2026-05-05T09:30:37.174Z</time></trkpt><trkpt lat="37.5497817" lon="14.940475"><ele>265.0</ele><time>2026-05-05T09:30:38.174Z</time></trkpt><trkpt lat="37.5499033" lon="14.9402683"><ele>264.66666666666663</ele><time>2026-05-05T09:30:39.174Z</time></trkpt><trkpt lat="37.5500283" lon="14.9400483"><ele>264.3333333333333</ele><time>2026-05-05T09:30:40.174Z</time></trkpt><trkpt lat="37.55016" lon="14.9398283"><ele>264.0</ele><time>2026-05-05T09:30:41.175Z</time></trkpt><trkpt lat="37.5502883" lon="14.9396083"><ele>266.6666666666667</ele><time>2026-05-05T09:30:42.174Z</time></trkpt><trkpt lat="37.5504183" lon="14.9393867"><ele>269.33333333333337</ele><time>2026-05-05T09:30:43.174Z</time></trkpt><trkpt lat="37.5505483" lon="14.9391617"><ele>272.0</ele><time>2026-05-05T09:30:44.174Z</time></trkpt><trkpt lat="37.5506817" lon="14.93894"><ele>272.0</ele><time>2026-05-05T09:30:45.174Z</time></trkpt><trkpt lat="37.550805" lon="14.9387233"><ele>272.0</ele><time>2026-05-05T09:30:46.174Z</time></trkpt><trkpt lat="37.550945" lon="14.9385067"><ele>272.0</ele><time>2026-05-05T09:30:47.174Z</time></trkpt><trkpt lat="37.5510817" lon="14.9382967"><ele>273.33333333333337</ele><time>2026-05-05T09:30:48.174Z</time></trkpt><trkpt lat="37.5512117" lon="14.93809"><ele>274.6666666666667</ele><time>2026-05-05T09:30:49.174Z</time></trkpt><trkpt lat="37.5513383" lon="14.9378883"><ele>276.0</ele><time>2026-05-05T09:30:50.174Z</time></trkpt><trkpt lat="37.55146" lon="14.9376867"><ele>275.0</ele><time>2026-05-05T09:30:51.174Z</time></trkpt><trkpt lat="37.551575" lon="14.937485"><ele>274.0</ele><time>2026-05-05T09:30:52.174Z</time></trkpt><trkpt lat="37.5516933" lon="14.937285"><ele>273.0</ele><time>2026-05-05T09:30:53.174Z</time></trkpt><trkpt lat="37.5518117" lon="14.9370833"><ele>273.0</ele><time>2026-05-05T09:30:54.175Z</time></trkpt><trkpt lat="37.55193" lon="14.936885"><ele>273.0</ele><time>2026-05-05T09:30:55.174Z</time></trkpt><trkpt lat="37.552045" lon="14.93669"><ele>273.0</ele><time>2026-05-05T09:30:56.174Z</time></trkpt><trkpt lat="37.5521633" lon="14.9364967"><ele>274.6666666666667</ele><time>2026-05-05T09:30:57.174Z</time></trkpt><trkpt lat="37.55228" lon="14.9363033"><ele>276.33333333333337</ele><time>2026-05-05T09:30:58.174Z</time></trkpt><trkpt lat="37.5523967" lon="14.9361067"><ele>278.0</ele><time>2026-05-05T09:30:59.174Z</time></trkpt><trkpt lat="37.55251" lon="14.9359083"><ele>277.6666666666667</ele><time>2026-05-05T09:31:00.174Z</time></trkpt><trkpt lat="37.5526233" lon="14.9357117"><ele>277.3333333333333</ele><time>2026-05-05T09:31:01.174Z</time></trkpt><trkpt lat="37.5527333" lon="14.935515"><ele>277.0</ele><time>2026-05-05T09:31:02.175Z</time></trkpt><trkpt lat="37.55285" lon="14.9353217"><ele>279.3333333333333</ele><time>2026-05-05T09:31:03.174Z</time></trkpt><trkpt lat="37.55297" lon="14.9351233"><ele>281.6666666666667</ele><time>2026-05-05T09:31:04.174Z</time></trkpt><trkpt lat="37.5530867" lon="14.9349217"><ele>284.0</ele><time>2026-05-05T09:31:05.174Z</time></trkpt><trkpt lat="37.5532017" lon="14.9347217"><ele>284.0</ele><time>2026-05-05T09:31:06.174Z</time></trkpt><trkpt lat="37.55332" lon="14.934525"><ele>284.0</ele><time>2026-05-05T09:31:07.174Z</time></trkpt><trkpt lat="37.5534333" lon="14.9343283"><ele>284.0</ele><time>2026-05-05T09:31:08.174Z</time></trkpt><trkpt lat="37.553555" lon="14.9341283"><ele>283.33333333333337</ele><time>2026-05-05T09:31:09.174Z</time></trkpt><trkpt lat="37.55367" lon="14.9339317"><ele>282.6666666666667</ele><time>2026-05-05T09:31:10.174Z</time></trkpt><trkpt lat="37.5537817" lon="14.933735"><ele>282.0</ele><time>2026-05-05T09:31:11.174Z</time></trkpt><trkpt lat="37.5538983" lon="14.9335417"><ele>284.3333333333333</ele><time>2026-05-05T09:31:12.174Z</time></trkpt><trkpt lat="37.55402" lon="14.9333417"><ele>286.66666666666663</ele><time>2026-05-05T09:31:13.174Z</time></trkpt><trkpt lat="37.55414" lon="14.9331433"><ele>289.0</ele><time>2026-05-05T09:31:14.174Z</time></trkpt><trkpt lat="37.5542567" lon="14.932945"><ele>289.0</ele><time>2026-05-05T09:31:15.174Z</time></trkpt><trkpt lat="37.5543717" lon="14.9327467"><ele>289.0</ele><time>2026-05-05T09:31:16.175Z</time></trkpt><trkpt lat="37.5544883" lon="14.93255"><ele>289.0</ele><time>2026-05-05T09:31:17.174Z</time></trkpt><trkpt lat="37.5546067" lon="14.93235"><ele>290.3333333333333</ele><time>2026-05-05T09:31:18.174Z</time></trkpt><trkpt lat="37.554725" lon="14.9321467"><ele>291.6666666666667</ele><time>2026-05-05T09:31:19.174Z</time></trkpt><trkpt lat="37.55484" lon="14.9319483"><ele>293.0</ele><time>2026-05-05T09:31:20.175Z</time></trkpt><trkpt lat="37.5549567" lon="14.9317533"><ele>293.0</ele><time>2026-05-05T09:31:21.175Z</time></trkpt><trkpt lat="37.5550783" lon="14.9315567"><ele>293.0</ele><time>2026-05-05T09:31:22.174Z</time></trkpt><trkpt lat="37.555195" lon="14.93136"><ele>293.0</ele><time>2026-05-05T09:31:23.174Z</time></trkpt><trkpt lat="37.5553117" lon="14.93116"><ele>297.0</ele><time>2026-05-05T09:31:24.174Z</time></trkpt><trkpt lat="37.55543" lon="14.93096"><ele>301.0</ele><time>2026-05-05T09:31:25.175Z</time></trkpt><trkpt lat="37.5555517" lon="14.9307617"><ele>305.0</ele><time>2026-05-05T09:31:26.174Z</time></trkpt><trkpt lat="37.55567" lon="14.9305633"><ele>305.0</ele><time>2026-05-05T09:31:27.174Z</time></trkpt><trkpt lat="37.5557917" lon="14.930365"><ele>305.0</ele><time>2026-05-05T09:31:28.174Z</time></trkpt><trkpt lat="37.5559083" lon="14.9301667"><ele>305.0</ele><time>2026-05-05T09:31:29.174Z</time></trkpt><trkpt lat="37.5560217" lon="14.92997"><ele>304.6666666666667</ele><time>2026-05-05T09:31:30.174Z</time></trkpt><trkpt lat="37.556135" lon="14.929775"><ele>304.3333333333333</ele><time>2026-05-05T09:31:31.175Z</time></trkpt><trkpt lat="37.5562533" lon="14.9295717"><ele>304.0</ele><time>2026-05-05T09:31:32.174Z</time></trkpt><trkpt lat="37.5563717" lon="14.92937"><ele>305.0</ele><time>2026-05-05T09:31:33.175Z</time></trkpt><trkpt lat="37.5564867" lon="14.92917"><ele>306.0</ele><time>2026-05-05T09:31:34.174Z</time></trkpt><trkpt lat="37.5565983" lon="14.92897"><ele>307.0</ele><time>2026-05-05T09:31:35.174Z</time></trkpt><trkpt lat="37.5567117" lon="14.9287717"><ele>307.0</ele><time>2026-05-05T09:31:36.174Z</time></trkpt><trkpt lat="37.55683" lon="14.9285733"><ele>307.0</ele><time>2026-05-05T09:31:37.174Z</time></trkpt><trkpt lat="37.556945" lon="14.928375"><ele>307.0</ele><time>2026-05-05T09:31:38.174Z</time></trkpt><trkpt lat="37.5570633" lon="14.9281717"><ele>307.66666666666663</ele><time>2026-05-05T09:31:39.175Z</time></trkpt><trkpt lat="37.5571833" lon="14.927975"><ele>308.3333333333333</ele><time>2026-05-05T09:31:40.174Z</time></trkpt><trkpt lat="37.5573017" lon="14.9277717"><ele>309.0</ele><time>2026-05-05T09:31:41.175Z</time></trkpt><trkpt lat="37.5574183" lon="14.9275733"><ele>308.6666666666667</ele><time>2026-05-05T09:31:42.174Z</time></trkpt><trkpt lat="37.557535" lon="14.9273733"><ele>308.33333333333337</ele><time>2026-05-05T09:31:43.174Z</time></trkpt><trkpt lat="37.5576483" lon="14.92718"><ele>308.0</ele><time>2026-05-05T09:31:44.174Z</time></trkpt><trkpt lat="37.557765" lon="14.9269817"><ele>308.33333333333337</ele><time>2026-05-05T09:31:45.175Z</time></trkpt><trkpt lat="37.5578817" lon="14.9267817"><ele>308.6666666666667</ele><time>2026-05-05T09:31:46.175Z</time></trkpt><trkpt lat="37.5580033" lon="14.926585"><ele>309.0</ele><time>2026-05-05T09:31:47.174Z</time></trkpt><trkpt lat="37.5581233" lon="14.926385"><ele>309.3333333333333</ele><time>2026-05-05T09:31:48.175Z</time></trkpt><trkpt lat="37.5582467" lon="14.9261833"><ele>309.66666666666663</ele><time>2026-05-05T09:31:49.174Z</time></trkpt><trkpt lat="37.5583667" lon="14.9259833"><ele>310.0</ele><time>2026-05-05T09:31:50.175Z</time></trkpt><trkpt lat="37.5584833" lon="14.9257867"><ele>309.66666666666663</ele><time>2026-05-05T09:31:51.174Z</time></trkpt><trkpt lat="37.5586017" lon="14.9255933"><ele>309.3333333333333</ele><time>2026-05-05T09:31:52.174Z</time></trkpt><trkpt lat="37.5587183" lon="14.9253967"><ele>309.0</ele><time>2026-05-05T09:31:53.175Z</time></trkpt><trkpt lat="37.5588333" lon="14.9251967"><ele>308.6666666666667</ele><time>2026-05-05T09:31:54.174Z</time></trkpt><trkpt lat="37.558955" lon="14.9249967"><ele>308.33333333333337</ele><time>2026-05-05T09:31:55.174Z</time></trkpt><trkpt lat="37.55907" lon="14.9247933"><ele>308.0</ele><time>2026-05-05T09:31:56.174Z</time></trkpt><trkpt lat="37.559185" lon="14.9245967"><ele>308.0</ele><time>2026-05-05T09:31:57.174Z</time></trkpt><trkpt lat="37.559305" lon="14.9244017"><ele>308.0</ele><time>2026-05-05T09:31:58.174Z</time></trkpt><trkpt lat="37.5594233" lon="14.9242033"><ele>308.0</ele><time>2026-05-05T09:31:59.174Z</time></trkpt><trkpt lat="37.5595383" lon="14.9240067"><ele>307.33333333333337</ele><time>2026-05-05T09:32:00.175Z</time></trkpt><trkpt lat="37.559655" lon="14.9238033"><ele>306.6666666666667</ele><time>2026-05-05T09:32:01.174Z</time></trkpt><trkpt lat="37.559775" lon="14.923605"><ele>306.0</ele><time>2026-05-05T09:32:02.174Z</time></trkpt><trkpt lat="37.5598917" lon="14.923405"><ele>305.3333333333333</ele><time>2026-05-05T09:32:03.174Z</time></trkpt><trkpt lat="37.5600067" lon="14.9232033"><ele>304.66666666666663</ele><time>2026-05-05T09:32:04.174Z</time></trkpt><trkpt lat="37.5601217" lon="14.9230067"><ele>304.0</ele><time>2026-05-05T09:32:05.174Z</time></trkpt><trkpt lat="37.560235" lon="14.92281"><ele>304.0</ele><time>2026-05-05T09:32:06.175Z</time></trkpt><trkpt lat="37.560355" lon="14.9226117"><ele>304.0</ele><time>2026-05-05T09:32:07.174Z</time></trkpt><trkpt lat="37.560475" lon="14.9224117"><ele>304.0</ele><time>2026-05-05T09:32:08.174Z</time></trkpt><trkpt lat="37.560595" lon="14.9222233"><ele>305.0</ele><time>2026-05-05T09:32:09.174Z</time></trkpt><trkpt lat="37.5607217" lon="14.922035"><ele>306.0</ele><time>2026-05-05T09:32:10.174Z</time></trkpt><trkpt lat="37.56085" lon="14.9218517"><ele>307.0</ele><time>2026-05-05T09:32:11.174Z</time></trkpt><trkpt lat="37.5609833" lon="14.9216717"><ele>307.0</ele><time>2026-05-05T09:32:12.174Z</time></trkpt><trkpt lat="37.56113" lon="14.9215033"><ele>307.0</ele><time>2026-05-05T09:32:13.174Z</time></trkpt><trkpt lat="37.561275" lon="14.9213417"><ele>307.0</ele><time>2026-05-05T09:32:14.174Z</time></trkpt><trkpt lat="37.5614267" lon="14.9211833"><ele>306.3333333333333</ele><time>2026-05-05T09:32:15.174Z</time></trkpt><trkpt lat="37.5615817" lon="14.9210333"><ele>305.6666666666667</ele><time>2026-05-05T09:32:16.174Z</time></trkpt><trkpt lat="37.561745" lon="14.9208883"><ele>305.0</ele><time>2026-05-05T09:32:17.174Z</time></trkpt><trkpt lat="37.5619117" lon="14.9207567"><ele>304.0</ele><time>2026-05-05T09:32:18.174Z</time></trkpt><trkpt lat="37.56208" lon="14.920625"><ele>303.0</ele><time>2026-05-05T09:32:19.174Z</time></trkpt><trkpt lat="37.5622467" lon="14.9204883"><ele>302.0</ele><time>2026-05-05T09:32:20.174Z</time></trkpt><trkpt lat="37.562415" lon="14.9203533"><ele>302.0</ele><time>2026-05-05T09:32:21.174Z</time></trkpt><trkpt lat="37.5625833" lon="14.9202167"><ele>302.0</ele><time>2026-05-05T09:32:22.175Z</time></trkpt><trkpt lat="37.5627517" lon="14.92008"><ele>302.0</ele><time>2026-05-05T09:32:23.174Z</time></trkpt><trkpt lat="37.5629167" lon="14.91994"><ele>301.6666666666667</ele><time>2026-05-05T09:32:24.174Z</time></trkpt><trkpt lat="37.563085" lon="14.9197983"><ele>301.3333333333333</ele><time>2026-05-05T09:32:25.175Z</time></trkpt><trkpt lat="37.56325" lon="14.9196617"><ele>301.0</ele><time>2026-05-05T09:32:26.174Z</time></trkpt><trkpt lat="37.5634167" lon="14.9195283"><ele>301.0</ele><time>2026-05-05T09:32:27.174Z</time></trkpt><trkpt lat="37.5635867" lon="14.9193967"><ele>301.0</ele><time>2026-05-05T09:32:28.174Z</time></trkpt><trkpt lat="37.5637567" lon="14.9192633"><ele>301.0</ele><time>2026-05-05T09:32:29.174Z</time></trkpt><trkpt lat="37.5639233" lon="14.9191367"><ele>299.0</ele><time>2026-05-05T09:32:30.174Z</time></trkpt><trkpt lat="37.5640883" lon="14.9190067"><ele>297.0</ele><time>2026-05-05T09:32:31.174Z</time></trkpt><trkpt lat="37.56426" lon="14.9188733"><ele>295.0</ele><time>2026-05-05T09:32:32.174Z</time></trkpt><trkpt lat="37.5644233" lon="14.9187367"><ele>294.0</ele><time>2026-05-05T09:32:33.175Z</time></trkpt><trkpt lat="37.5645867" lon="14.9185933"><ele>293.0</ele><time>2026-05-05T09:32:34.174Z</time></trkpt><trkpt lat="37.5647567" lon="14.918465"><ele>292.0</ele><time>2026-05-05T09:32:35.174Z</time></trkpt><trkpt lat="37.5649217" lon="14.91833"><ele>288.0</ele><time>2026-05-05T09:32:36.174Z</time></trkpt><trkpt lat="37.5650833" lon="14.9181933"><ele>284.0</ele><time>2026-05-05T09:32:37.175Z</time></trkpt><trkpt lat="37.5652483" lon="14.9180583"><ele>280.0</ele><time>2026-05-05T09:32:38.174Z</time></trkpt><trkpt lat="37.565415" lon="14.9179283"><ele>279.66666666666663</ele><time>2026-05-05T09:32:39.174Z</time></trkpt><trkpt lat="37.565585" lon="14.9178"><ele>279.3333333333333</ele><time>2026-05-05T09:32:40.174Z</time></trkpt><trkpt lat="37.56575" lon="14.9176717"><ele>279.0</ele><time>2026-05-05T09:32:41.174Z</time></trkpt><trkpt lat="37.5659183" lon="14.917545"><ele>278.6666666666667</ele><time>2026-05-05T09:32:42.174Z</time></trkpt><trkpt lat="37.5660883" lon="14.9174267"><ele>278.33333333333337</ele><time>2026-05-05T09:32:43.174Z</time></trkpt><trkpt lat="37.56626" lon="14.9173233"><ele>278.0</ele><time>2026-05-05T09:32:44.174Z</time></trkpt><trkpt lat="37.5664267" lon="14.9172333"><ele>278.0</ele><time>2026-05-05T09:32:45.175Z</time></trkpt><trkpt lat="37.5665883" lon="14.9171517"><ele>278.0</ele><time>2026-05-05T09:32:46.174Z</time></trkpt><trkpt lat="37.5667483" lon="14.9170833"><ele>278.0</ele><time>2026-05-05T09:32:47.174Z</time></trkpt><trkpt lat="37.5669117" lon="14.9170217"><ele>278.33333333333337</ele><time>2026-05-05T09:32:48.175Z</time></trkpt><trkpt lat="37.5670667" lon="14.91697"><ele>278.6666666666667</ele><time>2026-05-05T09:32:49.174Z</time></trkpt><trkpt lat="37.5672117" lon="14.91692"><ele>279.0</ele><time>2026-05-05T09:32:50.174Z</time></trkpt><trkpt lat="37.5673617" lon="14.9168783"><ele>279.0</ele><time>2026-05-05T09:32:51.174Z</time></trkpt><trkpt lat="37.5675083" lon="14.9168383"><ele>279.0</ele><time>2026-05-05T09:32:52.174Z</time></trkpt><trkpt lat="37.56765" lon="14.9168017"><ele>279.0</ele><time>2026-05-05T09:32:53.174Z</time></trkpt><trkpt lat="37.5678067" lon="14.9167583"><ele>278.6666666666667</ele><time>2026-05-05T09:32:54.174Z</time></trkpt><trkpt lat="37.5679583" lon="14.9167217"><ele>278.33333333333337</ele><time>2026-05-05T09:32:55.175Z</time></trkpt><trkpt lat="37.568115" lon="14.91668"><ele>278.0</ele><time>2026-05-05T09:32:56.174Z</time></trkpt><trkpt lat="37.568265" lon="14.91664"><ele>278.0</ele><time>2026-05-05T09:32:57.174Z</time></trkpt><trkpt lat="37.5684167" lon="14.9166017"><ele>278.0</ele><time>2026-05-05T09:32:58.174Z</time></trkpt><trkpt lat="37.5685717" lon="14.916565"><ele>278.0</ele><time>2026-05-05T09:32:59.174Z</time></trkpt><trkpt lat="37.5687283" lon="14.9165167"><ele>280.6666666666667</ele><time>2026-05-05T09:33:00.175Z</time></trkpt><trkpt lat="37.5688867" lon="14.9164667"><ele>283.3333333333333</ele><time>2026-05-05T09:33:01.174Z</time></trkpt><trkpt lat="37.5690383" lon="14.9164217"><ele>286.0</ele><time>2026-05-05T09:33:02.175Z</time></trkpt><trkpt lat="37.56919" lon="14.9163833"><ele>286.0</ele><time>2026-05-05T09:33:03.174Z</time></trkpt><trkpt lat="37.5693317" lon="14.9163433"><ele>286.0</ele><time>2026-05-05T09:33:04.174Z</time></trkpt><trkpt lat="37.569475" lon="14.9163083"><ele>286.0</ele><time>2026-05-05T09:33:05.174Z</time></trkpt><trkpt lat="37.5696233" lon="14.916265"><ele>286.0</ele><time>2026-05-05T09:33:06.174Z</time></trkpt><trkpt lat="37.569765" lon="14.9162333"><ele>286.0</ele><time>2026-05-05T09:33:07.174Z</time></trkpt><trkpt lat="37.56991" lon="14.9161917"><ele>286.0</ele><time>2026-05-05T09:33:08.174Z</time></trkpt><trkpt lat="37.5700517" lon="14.9161533"><ele>286.0</ele><time>2026-05-05T09:33:09.174Z</time></trkpt><trkpt lat="37.5701917" lon="14.916125"><ele>286.0</ele><time>2026-05-05T09:33:10.174Z</time></trkpt><trkpt lat="37.5703367" lon="14.9161083"><ele>285.25</ele><time>2026-05-05T09:33:11.174Z</time></trkpt><trkpt lat="37.570475" lon="14.9160917"><ele>284.5</ele><time>2026-05-05T09:33:12.174Z</time></trkpt><trkpt lat="37.570595" lon="14.916075"><ele>283.75</ele><time>2026-05-05T09:33:13.175Z</time></trkpt><trkpt lat="37.5707133" lon="14.9160667"><ele>283.0</ele><time>2026-05-05T09:33:14.174Z</time></trkpt><trkpt lat="37.57082" lon="14.9160783"><ele>283.0</ele><time>2026-05-05T09:33:15.174Z</time></trkpt><trkpt lat="37.5709183" lon="14.9161267"><ele>283.0</ele><time>2026-05-05T09:33:16.174Z</time></trkpt><trkpt lat="37.5710167" lon="14.9161767"><ele>283.0</ele><time>2026-05-05T09:33:17.174Z</time></trkpt><trkpt lat="37.571115" lon="14.9162083"><ele>283.0</ele><time>2026-05-05T09:33:18.174Z</time></trkpt><trkpt lat="37.5712217" lon="14.9162367"><ele>283.0</ele><time>2026-05-05T09:33:19.175Z</time></trkpt><trkpt lat="37.5713283" lon="14.9162733"><ele>282.8333333333333</ele><time>2026-05-05T09:33:20.174Z</time></trkpt><trkpt lat="37.5714267" lon="14.9163017"><ele>282.66666666666663</ele><time>2026-05-05T09:33:21.174Z</time></trkpt><trkpt lat="37.5715067" lon="14.9163217"><ele>282.5</ele><time>2026-05-05T09:33:22.174Z</time></trkpt><trkpt lat="37.5716217" lon="14.916305"><ele>282.3333333333333</ele><time>2026-05-05T09:33:24.174Z</time></trkpt><trkpt lat="37.5716817" lon="14.9162633"><ele>282.1666666666667</ele><time>2026-05-05T09:33:25.174Z</time></trkpt><trkpt lat="37.57171" lon="14.9161883"><ele>282.0</ele><time>2026-05-05T09:33:26.174Z</time></trkpt><trkpt lat="37.5717083" lon="14.9160917"><ele>282.0</ele><time>2026-05-05T09:33:27.174Z</time></trkpt><trkpt lat="37.57166" lon="14.9159867"><ele>282.0</ele><time>2026-05-05T09:33:28.174Z</time></trkpt><trkpt lat="37.5715917" lon="14.9159317"><ele>282.0</ele><time>2026-05-05T09:33:29.174Z</time></trkpt><trkpt lat="37.5714967" lon="14.915885"><ele>282.0</ele><time>2026-05-05T09:33:30.174Z</time></trkpt><trkpt lat="37.571395" lon="14.9158433"><ele>282.0</ele><time>2026-05-05T09:33:31.174Z</time></trkpt><trkpt lat="37.571295" lon="14.9158133"><ele>280.8333333333333</ele><time>2026-05-05T09:33:32.174Z</time></trkpt><trkpt lat="37.571195" lon="14.915795"><ele>279.6666666666667</ele><time>2026-05-05T09:33:33.174Z</time></trkpt><trkpt lat="37.57111" lon="14.9157767"><ele>278.5</ele><time>2026-05-05T09:33:34.174Z</time></trkpt><trkpt lat="37.5710467" lon="14.9157567"><ele>277.33333333333337</ele><time>2026-05-05T09:33:35.174Z</time></trkpt><trkpt lat="37.571" lon="14.9156617"><ele>276.1666666666667</ele><time>2026-05-05T09:33:37.174Z</time></trkpt><trkpt lat="37.57104" lon="14.9155867"><ele>275.0</ele><time>2026-05-05T09:33:39.174Z</time></trkpt><trkpt lat="37.5711017" lon="14.9155567"><ele>275.0</ele><time>2026-05-05T09:33:40.174Z</time></trkpt><trkpt lat="37.5711833" lon="14.9155383"><ele>275.0</ele><time>2026-05-05T09:33:41.174Z</time></trkpt><trkpt lat="37.57128" lon="14.91552"><ele>275.0</ele><time>2026-05-05T09:33:42.174Z</time></trkpt><trkpt lat="37.571385" lon="14.915495"><ele>275.0</ele><time>2026-05-05T09:33:43.175Z</time></trkpt><trkpt lat="37.5714917" lon="14.9154667"><ele>275.0</ele><time>2026-05-05T09:33:44.174Z</time></trkpt><trkpt lat="37.571595" lon="14.9154467"><ele>274.4</ele><time>2026-05-05T09:33:45.174Z</time></trkpt><trkpt lat="37.57169" lon="14.9154233"><ele>273.8</ele><time>2026-05-05T09:33:46.174Z</time></trkpt><trkpt lat="37.5717883" lon="14.9153967"><ele>273.2</ele><time>2026-05-05T09:33:47.174Z</time></trkpt><trkpt lat="37.57189" lon="14.9153733"><ele>272.6</ele><time>2026-05-05T09:33:48.174Z</time></trkpt><trkpt lat="37.5719933" lon="14.915345"><ele>272.0</ele><time>2026-05-05T09:33:49.174Z</time></trkpt><trkpt lat="37.5720933" lon="14.9153183"><ele>270.75</ele><time>2026-05-05T09:33:50.174Z</time></trkpt><trkpt lat="37.5722033" lon="14.9152817"><ele>269.5</ele><time>2026-05-05T09:33:51.174Z</time></trkpt><trkpt lat="37.5723133" lon="14.9152433"><ele>268.25</ele><time>2026-05-05T09:33:52.174Z</time></trkpt><trkpt lat="37.57242" lon="14.9151883"><ele>267.0</ele><time>2026-05-05T09:33:53.174Z</time></trkpt><trkpt lat="37.572525" lon="14.915125"><ele>265.75</ele><time>2026-05-05T09:33:54.174Z</time></trkpt><trkpt lat="37.57263" lon="14.915045"><ele>264.5</ele><time>2026-05-05T09:33:55.174Z</time></trkpt><trkpt lat="37.57272" lon="14.9149533"><ele>263.25</ele><time>2026-05-05T09:33:56.175Z</time></trkpt><trkpt lat="37.5728083" lon="14.9148583"><ele>262.0</ele><time>2026-05-05T09:33:57.175Z</time></trkpt><trkpt lat="37.5728867" lon="14.9147617"><ele>262.0</ele><time>2026-05-05T09:33:58.174Z</time></trkpt><trkpt lat="37.5729617" lon="14.9146467"><ele>262.0</ele><time>2026-05-05T09:33:59.174Z</time></trkpt><trkpt lat="37.5730317" lon="14.914525"><ele>262.0</ele><time>2026-05-05T09:34:00.174Z</time></trkpt><trkpt lat="37.57309" lon="14.9143967"><ele>262.0</ele><time>2026-05-05T09:34:01.175Z</time></trkpt><trkpt lat="37.5731383" lon="14.9142617"><ele>261.25</ele><time>2026-05-05T09:34:02.174Z</time></trkpt><trkpt lat="37.5731733" lon="14.9141233"><ele>260.5</ele><time>2026-05-05T09:34:03.174Z</time></trkpt><trkpt lat="37.5732033" lon="14.9139783"><ele>259.75</ele><time>2026-05-05T09:34:04.174Z</time></trkpt><trkpt lat="37.5732267" lon="14.91383"><ele>259.0</ele><time>2026-05-05T09:34:05.174Z</time></trkpt><trkpt lat="37.57325" lon="14.9136733"><ele>259.0</ele><time>2026-05-05T09:34:06.174Z</time></trkpt><trkpt lat="37.57327" lon="14.91351"><ele>259.0</ele><time>2026-05-05T09:34:07.174Z</time></trkpt><trkpt lat="37.5732883" lon="14.9133533"><ele>259.0</ele><time>2026-05-05T09:34:08.174Z</time></trkpt><trkpt lat="37.573305" lon="14.913205"><ele>259.0</ele><time>2026-05-05T09:34:09.174Z</time></trkpt><trkpt lat="37.57333" lon="14.9130633"><ele>258.8</ele><time>2026-05-05T09:34:10.174Z</time></trkpt><trkpt lat="37.5733433" lon="14.912935"><ele>258.59999999999997</ele><time>2026-05-05T09:34:11.174Z</time></trkpt><trkpt lat="37.5733617" lon="14.9128183"><ele>258.4</ele><time>2026-05-05T09:34:12.174Z</time></trkpt><trkpt lat="37.5733933" lon="14.912715"><ele>258.2</ele><time>2026-05-05T09:34:13.174Z</time></trkpt><trkpt lat="37.57343" lon="14.9126133"><ele>258.0</ele><time>2026-05-05T09:34:14.174Z</time></trkpt><trkpt lat="37.5734567" lon="14.9125133"><ele>258.0</ele><time>2026-05-05T09:34:15.175Z</time></trkpt><trkpt lat="37.57347" lon="14.9124183"><ele>258.0</ele><time>2026-05-05T09:34:16.174Z</time></trkpt><trkpt lat="37.5734683" lon="14.9123183"><ele>258.0</ele><time>2026-05-05T09:34:17.174Z</time></trkpt><trkpt lat="37.57346" lon="14.9122117"><ele>258.0</ele><time>2026-05-05T09:34:18.174Z</time></trkpt><trkpt lat="37.573465" lon="14.9120883"><ele>258.0</ele><time>2026-05-05T09:34:19.174Z</time></trkpt><trkpt lat="37.573475" lon="14.9119617"><ele>258.0</ele><time>2026-05-05T09:34:20.174Z</time></trkpt><trkpt lat="37.5734967" lon="14.9118283"><ele>257.75</ele><time>2026-05-05T09:34:21.174Z</time></trkpt><trkpt lat="37.573515" lon="14.9116883"><ele>257.5</ele><time>2026-05-05T09:34:22.174Z</time></trkpt><trkpt lat="37.5735333" lon="14.9115417"><ele>257.25</ele><time>2026-05-05T09:34:23.174Z</time></trkpt><trkpt lat="37.5735567" lon="14.9113933"><ele>257.0</ele><time>2026-05-05T09:34:24.175Z</time></trkpt><trkpt lat="37.573575" lon="14.911245"><ele>257.0</ele><time>2026-05-05T09:34:25.175Z</time></trkpt><trkpt lat="37.5735967" lon="14.91109"><ele>257.0</ele><time>2026-05-05T09:34:26.174Z</time></trkpt><trkpt lat="37.57362" lon="14.9109383"><ele>257.0</ele><time>2026-05-05T09:34:27.174Z</time></trkpt><trkpt lat="37.573645" lon="14.9107783"><ele>257.0</ele><time>2026-05-05T09:34:28.174Z</time></trkpt><trkpt lat="37.5736667" lon="14.91063"><ele>256.75</ele><time>2026-05-05T09:34:29.174Z</time></trkpt><trkpt lat="37.5736783" lon="14.910475"><ele>256.5</ele><time>2026-05-05T09:34:30.175Z</time></trkpt><trkpt lat="37.5736933" lon="14.9103217"><ele>256.25</ele><time>2026-05-05T09:34:31.175Z</time></trkpt><trkpt lat="37.5737017" lon="14.91016"><ele>256.0</ele><time>2026-05-05T09:34:32.174Z</time></trkpt><trkpt lat="37.5737183" lon="14.9100017"><ele>256.5</ele><time>2026-05-05T09:34:33.174Z</time></trkpt><trkpt lat="37.5737367" lon="14.9098467"><ele>257.0</ele><time>2026-05-05T09:34:34.174Z</time></trkpt><trkpt lat="37.573745" lon="14.90969"><ele>257.5</ele><time>2026-05-05T09:34:35.174Z</time></trkpt><trkpt lat="37.5737483" lon="14.90953"><ele>258.0</ele><time>2026-05-05T09:34:36.174Z</time></trkpt><trkpt lat="37.5737533" lon="14.9093717"><ele>258.75</ele><time>2026-05-05T09:34:37.174Z</time></trkpt><trkpt lat="37.5737567" lon="14.9092133"><ele>259.5</ele><time>2026-05-05T09:34:38.174Z</time></trkpt><trkpt lat="37.5737583" lon="14.909065"><ele>260.25</ele><time>2026-05-05T09:34:39.174Z</time></trkpt><trkpt lat="37.573755" lon="14.908925"><ele>261.0</ele><time>2026-05-05T09:34:40.174Z</time></trkpt><trkpt lat="37.5737583" lon="14.9087917"><ele>261.0</ele><time>2026-05-05T09:34:41.174Z</time></trkpt><trkpt lat="37.5737517" lon="14.9086717"><ele>261.0</ele><time>2026-05-05T09:34:42.175Z</time></trkpt><trkpt lat="37.5737517" lon="14.9085583"><ele>261.0</ele><time>2026-05-05T09:34:43.174Z</time></trkpt><trkpt lat="37.5737467" lon="14.9084467"><ele>261.0</ele><time>2026-05-05T09:34:44.174Z</time></trkpt><trkpt lat="37.57374" lon="14.9083533"><ele>261.0</ele><time>2026-05-05T09:34:45.175Z</time></trkpt><trkpt lat="37.5737367" lon="14.9082133"><ele>261.0</ele><time>2026-05-05T09:34:47.175Z</time></trkpt><trkpt lat="37.57378" lon="14.908105"><ele>261.0</ele><time>2026-05-05T09:34:49.174Z</time></trkpt><trkpt lat="37.573845" lon="14.908005"><ele>261.0</ele><time>2026-05-05T09:34:51.174Z</time></trkpt><trkpt lat="37.573865" lon="14.9079167"><ele>261.0</ele><time>2026-05-05T09:34:53.174Z</time></trkpt><trkpt lat="37.5738383" lon="14.9078383"><ele>261.0</ele><time>2026-05-05T09:34:55.174Z</time></trkpt><trkpt lat="37.57378" lon="14.9077517"><ele>261.0</ele><time>2026-05-05T09:34:57.174Z</time></trkpt><trkpt lat="37.5737183" lon="14.9076467"><ele>261.0</ele><time>2026-05-05T09:34:59.174Z</time></trkpt><trkpt lat="37.57369" lon="14.9075267"><ele>261.0</ele><time>2026-05-05T09:35:01.174Z</time></trkpt><trkpt lat="37.5736717" lon="14.9073967"><ele>261.0</ele><time>2026-05-05T09:35:03.174Z</time></trkpt><trkpt lat="37.5736717" lon="14.9072817"><ele>261.0</ele><time>2026-05-05T09:35:05.175Z</time></trkpt><trkpt lat="37.5736683" lon="14.90719"><ele>261.0</ele><time>2026-05-05T09:35:07.174Z</time></trkpt><trkpt lat="37.573675" lon="14.907065"><ele>261.75</ele><time>2026-05-05T09:35:21.174Z</time></trkpt><trkpt lat="37.5736633" lon="14.9069383"><ele>262.5</ele><time>2026-05-05T09:35:23.174Z</time></trkpt><trkpt lat="37.57364" lon="14.9067883"><ele>263.25</ele><time>2026-05-05T09:35:25.174Z</time></trkpt><trkpt lat="37.5736183" lon="14.9066367"><ele>264.0</ele><time>2026-05-05T09:35:27.174Z</time></trkpt><trkpt lat="37.5735967" lon="14.9064833"><ele>264.0</ele><time>2026-05-05T09:35:29.175Z</time></trkpt><trkpt lat="37.5736" lon="14.9064"><ele>264.0</ele><time>2026-05-05T09:35:30.174Z</time></trkpt><trkpt lat="37.5736067" lon="14.90625"><ele>264.0</ele><time>2026-05-05T09:35:32.174Z</time></trkpt><trkpt lat="37.5736017" lon="14.90611"><ele>264.0</ele><time>2026-05-05T09:35:34.174Z</time></trkpt><trkpt lat="37.5735933" lon="14.905985"><ele>264.0</ele><time>2026-05-05T09:35:36.174Z</time></trkpt><trkpt lat="37.5735867" lon="14.90585"><ele>264.0</ele><time>2026-05-05T09:35:38.174Z</time></trkpt><trkpt lat="37.5735767" lon="14.90572"><ele>264.0</ele><time>2026-05-05T09:35:40.174Z</time></trkpt><trkpt lat="37.5735667" lon="14.9055917"><ele>264.0</ele><time>2026-05-05T09:35:42.174Z</time></trkpt><trkpt lat="37.5735633" lon="14.9054667"><ele>264.0</ele><time>2026-05-05T09:35:44.174Z</time></trkpt><trkpt lat="37.57355" lon="14.90535"><ele>264.0</ele><time>2026-05-05T09:35:46.174Z</time></trkpt><trkpt lat="37.57354" lon="14.905255"><ele>264.0</ele><time>2026-05-05T09:35:48.174Z</time></trkpt><trkpt lat="37.5735333" lon="14.905155"><ele>264.0</ele><time>2026-05-05T09:35:50.174Z</time></trkpt><trkpt lat="37.5735183" lon="14.90505"><ele>264.0</ele><time>2026-05-05T09:35:52.174Z</time></trkpt><trkpt lat="37.5735083" lon="14.90494"><ele>264.0</ele><time>2026-05-05T09:35:54.174Z</time></trkpt><trkpt lat="37.5735017" lon="14.9048217"><ele>264.0</ele><time>2026-05-05T09:35:56.174Z</time></trkpt><trkpt lat="37.5735" lon="14.9046933"><ele>264.0</ele><time>2026-05-05T09:35:58.174Z</time></trkpt><trkpt lat="37.57348" lon="14.90455"><ele>263.8</ele><time>2026-05-05T09:36:00.175Z</time></trkpt><trkpt lat="37.57347" lon="14.90439"><ele>263.59999999999997</ele><time>2026-05-05T09:36:02.175Z</time></trkpt><trkpt lat="37.5734533" lon="14.90424"><ele>263.4</ele><time>2026-05-05T09:36:04.174Z</time></trkpt><trkpt lat="37.573445" lon="14.90416"><ele>263.2</ele><time>2026-05-05T09:36:05.175Z</time></trkpt><trkpt lat="37.5734433" lon="14.9040017"><ele>263.0</ele><time>2026-05-05T09:36:07.174Z</time></trkpt><trkpt lat="37.57344" lon="14.903905"><ele>261.33333333333337</ele><time>2026-05-05T09:36:08.174Z</time></trkpt><trkpt lat="37.573425" lon="14.9038083"><ele>259.6666666666667</ele><time>2026-05-05T09:36:09.174Z</time></trkpt><trkpt lat="37.5734167" lon="14.9037117"><ele>258.0</ele><time>2026-05-05T09:36:10.174Z</time></trkpt><trkpt lat="37.573415" lon="14.9036067"><ele>256.3333333333333</ele><time>2026-05-05T09:36:11.174Z</time></trkpt><trkpt lat="37.5734133" lon="14.9034867"><ele>254.66666666666666</ele><time>2026-05-05T09:36:12.174Z</time></trkpt><trkpt lat="37.573405" lon="14.9033667"><ele>253.0</ele><time>2026-05-05T09:36:13.175Z</time></trkpt><trkpt lat="37.5734" lon="14.9032467"><ele>252.16666666666666</ele><time>2026-05-05T09:36:14.174Z</time></trkpt><trkpt lat="37.5733967" lon="14.90313"><ele>251.33333333333331</ele><time>2026-05-05T09:36:15.175Z</time></trkpt><trkpt lat="37.5733933" lon="14.9030167"><ele>250.5</ele><time>2026-05-05T09:36:16.174Z</time></trkpt><trkpt lat="37.5733917" lon="14.9029083"><ele>249.66666666666669</ele><time>2026-05-05T09:36:17.174Z</time></trkpt><trkpt lat="37.5733817" lon="14.902805"><ele>248.83333333333334</ele><time>2026-05-05T09:36:18.174Z</time></trkpt><trkpt lat="37.5733833" lon="14.9026983"><ele>248.0</ele><time>2026-05-05T09:36:19.174Z</time></trkpt><trkpt lat="37.5733983" lon="14.9025967"><ele>247.33333333333334</ele><time>2026-05-05T09:36:20.174Z</time></trkpt><trkpt lat="37.573435" lon="14.9025083"><ele>246.66666666666669</ele><time>2026-05-05T09:36:21.174Z</time></trkpt><trkpt lat="37.573475" lon="14.9024233"><ele>246.0</ele><time>2026-05-05T09:36:22.174Z</time></trkpt><trkpt lat="37.5734967" lon="14.902325"><ele>245.33333333333331</ele><time>2026-05-05T09:36:23.174Z</time></trkpt><trkpt lat="37.5734917" lon="14.902225"><ele>244.66666666666666</ele><time>2026-05-05T09:36:24.174Z</time></trkpt><trkpt lat="37.5734583" lon="14.9021183"><ele>244.0</ele><time>2026-05-05T09:36:25.174Z</time></trkpt><trkpt lat="37.5734267" lon="14.9020233"><ele>243.99999999999997</ele><time>2026-05-05T09:36:26.174Z</time></trkpt><trkpt lat="37.573385" lon="14.9019283"><ele>244.0</ele><time>2026-05-05T09:36:27.175Z</time></trkpt><trkpt lat="37.5733483" lon="14.9018367"><ele>244.0</ele><time>2026-05-05T09:36:28.174Z</time></trkpt><trkpt lat="37.573315" lon="14.9017433"><ele>244.0</ele><time>2026-05-05T09:36:29.174Z</time></trkpt><trkpt lat="37.5733017" lon="14.9016467"><ele>243.99999999999997</ele><time>2026-05-05T09:36:30.174Z</time></trkpt><trkpt lat="37.573295" lon="14.9015467"><ele>244.0</ele><time>2026-05-05T09:36:31.174Z</time></trkpt><trkpt lat="37.5733033" lon="14.90145"><ele>243.66666666666666</ele><time>2026-05-05T09:36:32.175Z</time></trkpt><trkpt lat="37.573315" lon="14.901355"><ele>243.33333333333331</ele><time>2026-05-05T09:36:33.174Z</time></trkpt><trkpt lat="37.57333" lon="14.9012583"><ele>243.0</ele><time>2026-05-05T09:36:34.174Z</time></trkpt><trkpt lat="37.5733567" lon="14.901155"><ele>242.66666666666669</ele><time>2026-05-05T09:36:35.174Z</time></trkpt><trkpt lat="37.57338" lon="14.9010567"><ele>242.33333333333334</ele><time>2026-05-05T09:36:36.174Z</time></trkpt><trkpt lat="37.5734083" lon="14.9009483"><ele>242.0</ele><time>2026-05-05T09:36:37.174Z</time></trkpt><trkpt lat="37.5734417" lon="14.9008367"><ele>241.0</ele><time>2026-05-05T09:36:38.174Z</time></trkpt><trkpt lat="37.573475" lon="14.900725"><ele>240.0</ele><time>2026-05-05T09:36:39.174Z</time></trkpt><trkpt lat="37.5735083" lon="14.9006083"><ele>239.0</ele><time>2026-05-05T09:36:40.174Z</time></trkpt><trkpt lat="37.5735433" lon="14.90049"><ele>238.0</ele><time>2026-05-05T09:36:41.174Z</time></trkpt><trkpt lat="37.5735883" lon="14.90037"><ele>237.0</ele><time>2026-05-05T09:36:42.174Z</time></trkpt><trkpt lat="37.5736333" lon="14.90025"><ele>237.0</ele><time>2026-05-05T09:36:43.174Z</time></trkpt><trkpt lat="37.5736783" lon="14.900125"><ele>237.0</ele><time>2026-05-05T09:36:44.174Z</time></trkpt><trkpt lat="37.5737217" lon="14.9000033"><ele>237.0</ele><time>2026-05-05T09:36:45.174Z</time></trkpt><trkpt lat="37.573755" lon="14.899875"><ele>237.0</ele><time>2026-05-05T09:36:46.174Z</time></trkpt><trkpt lat="37.5738" lon="14.89974"><ele>237.0</ele><time>2026-05-05T09:36:47.175Z</time></trkpt><trkpt lat="37.5738533" lon="14.8996067"><ele>236.0</ele><time>2026-05-05T09:36:48.174Z</time></trkpt><trkpt lat="37.5739067" lon="14.89948"><ele>235.0</ele><time>2026-05-05T09:36:49.174Z</time></trkpt><trkpt lat="37.573955" lon="14.8993483"><ele>234.0</ele><time>2026-05-05T09:36:50.174Z</time></trkpt><trkpt lat="37.5740067" lon="14.8992183"><ele>233.0</ele><time>2026-05-05T09:36:51.174Z</time></trkpt><trkpt lat="37.5740567" lon="14.89909"><ele>232.0</ele><time>2026-05-05T09:36:52.174Z</time></trkpt><trkpt lat="37.5741017" lon="14.8989683"><ele>231.0</ele><time>2026-05-05T09:36:53.174Z</time></trkpt><trkpt lat="37.5741367" lon="14.8988467"><ele>230.0</ele><time>2026-05-05T09:36:54.174Z</time></trkpt><trkpt lat="37.57418" lon="14.898725"><ele>229.0</ele><time>2026-05-05T09:36:55.174Z</time></trkpt><trkpt lat="37.574225" lon="14.898595"><ele>228.0</ele><time>2026-05-05T09:36:56.174Z</time></trkpt><trkpt lat="37.57427" lon="14.8984683"><ele>227.4</ele><time>2026-05-05T09:36:57.174Z</time></trkpt><trkpt lat="37.5743183" lon="14.8983433"><ele>226.8</ele><time>2026-05-05T09:36:58.174Z</time></trkpt><trkpt lat="37.5743633" lon="14.89821"><ele>226.2</ele><time>2026-05-05T09:36:59.174Z</time></trkpt><trkpt lat="37.5744" lon="14.898085"><ele>225.6</ele><time>2026-05-05T09:37:00.174Z</time></trkpt><trkpt lat="37.5744383" lon="14.897965"><ele>225.0</ele><time>2026-05-05T09:37:01.175Z</time></trkpt><trkpt lat="37.57448" lon="14.897845"><ele>225.2</ele><time>2026-05-05T09:37:02.174Z</time></trkpt><trkpt lat="37.5745217" lon="14.897725"><ele>225.4</ele><time>2026-05-05T09:37:03.174Z</time></trkpt><trkpt lat="37.57457" lon="14.8976033"><ele>225.60000000000002</ele><time>2026-05-05T09:37:04.174Z</time></trkpt><trkpt lat="37.5746167" lon="14.8974767"><ele>225.8</ele><time>2026-05-05T09:37:05.174Z</time></trkpt><trkpt lat="37.5746683" lon="14.89735"><ele>226.0</ele><time>2026-05-05T09:37:06.174Z</time></trkpt><trkpt lat="37.5747217" lon="14.8972317"><ele>225.99999999999997</ele><time>2026-05-05T09:37:07.174Z</time></trkpt><trkpt lat="37.5747667" lon="14.897115"><ele>226.0</ele><time>2026-05-05T09:37:08.174Z</time></trkpt><trkpt lat="37.574805" lon="14.8970017"><ele>226.0</ele><time>2026-05-05T09:37:09.174Z</time></trkpt><trkpt lat="37.5748417" lon="14.8968983"><ele>226.0</ele><time>2026-05-05T09:37:10.174Z</time></trkpt><trkpt lat="37.5748817" lon="14.896805"><ele>225.99999999999997</ele><time>2026-05-05T09:37:11.174Z</time></trkpt><trkpt lat="37.5749217" lon="14.8967283"><ele>226.0</ele><time>2026-05-05T09:37:12.174Z</time></trkpt><trkpt lat="37.5749583" lon="14.8966583"><ele>225.49999999999997</ele><time>2026-05-05T09:37:13.174Z</time></trkpt><trkpt lat="37.5750633" lon="14.8965733"><ele>225.0</ele><time>2026-05-05T09:37:15.174Z</time></trkpt><trkpt lat="37.5751317" lon="14.8965483"><ele>224.5</ele><time>2026-05-05T09:37:16.174Z</time></trkpt><trkpt lat="37.575195" lon="14.8965033"><ele>224.0</ele><time>2026-05-05T09:37:17.174Z</time></trkpt><trkpt lat="37.5752433" lon="14.896435"><ele>223.49999999999997</ele><time>2026-05-05T09:37:18.173Z</time></trkpt><trkpt lat="37.5752783" lon="14.896355"><ele>223.0</ele><time>2026-05-05T09:37:19.173Z</time></trkpt><trkpt lat="37.575315" lon="14.896285"><ele>223.0</ele><time>2026-05-05T09:37:20.173Z</time></trkpt><trkpt lat="37.5754167" lon="14.8962017"><ele>223.0</ele><time>2026-05-05T09:37:22.173Z</time></trkpt><trkpt lat="37.57549" lon="14.8961933"><ele>223.0</ele><time>2026-05-05T09:37:23.173Z</time></trkpt><trkpt lat="37.57558" lon="14.8962183"><ele>223.0</ele><time>2026-05-05T09:37:24.173Z</time></trkpt><trkpt lat="37.57569" lon="14.8962733"><ele>223.0</ele><time>2026-05-05T09:37:25.173Z</time></trkpt><trkpt lat="37.575815" lon="14.8963133"><ele>223.0</ele><time>2026-05-05T09:37:26.173Z</time></trkpt><trkpt lat="37.5759333" lon="14.896335"><ele>223.0</ele><time>2026-05-05T09:37:27.173Z</time></trkpt><trkpt lat="37.5760817" lon="14.8963317"><ele>223.0</ele><time>2026-05-05T09:37:28.173Z</time></trkpt><trkpt lat="37.5762333" lon="14.8963017"><ele>223.0</ele><time>2026-05-05T09:37:29.173Z</time></trkpt><trkpt lat="37.576385" lon="14.8962483"><ele>222.33333333333331</ele><time>2026-05-05T09:37:30.174Z</time></trkpt><trkpt lat="37.57653" lon="14.896175"><ele>221.66666666666669</ele><time>2026-05-05T09:37:31.173Z</time></trkpt><trkpt lat="37.5766667" lon="14.896085"><ele>221.0</ele><time>2026-05-05T09:37:32.173Z</time></trkpt><trkpt lat="37.5768" lon="14.8959883"><ele>220.66666666666669</ele><time>2026-05-05T09:37:33.173Z</time></trkpt><trkpt lat="37.576935" lon="14.8958933"><ele>220.33333333333331</ele><time>2026-05-05T09:37:34.173Z</time></trkpt><trkpt lat="37.577065" lon="14.8957867"><ele>220.0</ele><time>2026-05-05T09:37:35.174Z</time></trkpt><trkpt lat="37.577185" lon="14.8956683"><ele>220.0</ele><time>2026-05-05T09:37:36.174Z</time></trkpt><trkpt lat="37.5773017" lon="14.895525"><ele>220.0</ele><time>2026-05-05T09:37:37.173Z</time></trkpt><trkpt lat="37.5774167" lon="14.895365"><ele>220.0</ele><time>2026-05-05T09:37:38.173Z</time></trkpt><trkpt lat="37.5775233" lon="14.8951917"><ele>219.33333333333331</ele><time>2026-05-05T09:37:39.173Z</time></trkpt><trkpt lat="37.5776317" lon="14.8950167"><ele>218.66666666666669</ele><time>2026-05-05T09:37:40.173Z</time></trkpt><trkpt lat="37.5777367" lon="14.8948533"><ele>218.0</ele><time>2026-05-05T09:37:41.173Z</time></trkpt><trkpt lat="37.5778383" lon="14.8946817"><ele>219.0</ele><time>2026-05-05T09:37:42.173Z</time></trkpt><trkpt lat="37.5779383" lon="14.8945083"><ele>220.0</ele><time>2026-05-05T09:37:43.173Z</time></trkpt><trkpt lat="37.578015" lon="14.8943133"><ele>221.0</ele><time>2026-05-05T09:37:44.173Z</time></trkpt><trkpt lat="37.5780733" lon="14.8940967"><ele>221.0</ele><time>2026-05-05T09:37:45.173Z</time></trkpt><trkpt lat="37.5781017" lon="14.89387"><ele>221.0</ele><time>2026-05-05T09:37:46.174Z</time></trkpt><trkpt lat="37.5781267" lon="14.8936533"><ele>221.0</ele><time>2026-05-05T09:37:47.173Z</time></trkpt><trkpt lat="37.57815" lon="14.8934417"><ele>221.33333333333334</ele><time>2026-05-05T09:37:48.173Z</time></trkpt><trkpt lat="37.5781883" lon="14.8932317"><ele>221.66666666666669</ele><time>2026-05-05T09:37:49.173Z</time></trkpt><trkpt lat="37.578255" lon="14.893025"><ele>222.0</ele><time>2026-05-05T09:37:50.174Z</time></trkpt><trkpt lat="37.5783517" lon="14.8928283"><ele>222.0</ele><time>2026-05-05T09:37:51.173Z</time></trkpt><trkpt lat="37.57846" lon="14.892645"><ele>222.0</ele><time>2026-05-05T09:37:52.173Z</time></trkpt><trkpt lat="37.57861" lon="14.8924883"><ele>222.0</ele><time>2026-05-05T09:37:53.173Z</time></trkpt><trkpt lat="37.5787733" lon="14.892355"><ele>221.33333333333331</ele><time>2026-05-05T09:37:54.173Z</time></trkpt><trkpt lat="37.5789417" lon="14.8922583"><ele>220.66666666666666</ele><time>2026-05-05T09:37:55.173Z</time></trkpt><trkpt lat="37.5791117" lon="14.892175"><ele>220.0</ele><time>2026-05-05T09:37:56.173Z</time></trkpt><trkpt lat="37.5792867" lon="14.8920917"><ele>220.0</ele><time>2026-05-05T09:37:57.173Z</time></trkpt><trkpt lat="37.57946" lon="14.8920033"><ele>220.0</ele><time>2026-05-05T09:37:58.173Z</time></trkpt><trkpt lat="37.5796317" lon="14.89192"><ele>220.0</ele><time>2026-05-05T09:37:59.173Z</time></trkpt><trkpt lat="37.579805" lon="14.8918333"><ele>221.33333333333331</ele><time>2026-05-05T09:38:00.173Z</time></trkpt><trkpt lat="37.5799783" lon="14.89175"><ele>222.66666666666669</ele><time>2026-05-05T09:38:01.173Z</time></trkpt><trkpt lat="37.5801483" lon="14.891665"><ele>224.0</ele><time>2026-05-05T09:38:02.173Z</time></trkpt><trkpt lat="37.58032" lon="14.8915833"><ele>225.66666666666669</ele><time>2026-05-05T09:38:03.173Z</time></trkpt><trkpt lat="37.5804867" lon="14.8915017"><ele>227.33333333333331</ele><time>2026-05-05T09:38:04.173Z</time></trkpt><trkpt lat="37.5806633" lon="14.89141"><ele>229.0</ele><time>2026-05-05T09:38:05.173Z</time></trkpt><trkpt lat="37.5808333" lon="14.8913283"><ele>229.0</ele><time>2026-05-05T09:38:06.173Z</time></trkpt><trkpt lat="37.5810017" lon="14.89124"><ele>229.0</ele><time>2026-05-05T09:38:07.173Z</time></trkpt><trkpt lat="37.58117" lon="14.8911583"><ele>229.0</ele><time>2026-05-05T09:38:08.173Z</time></trkpt><trkpt lat="37.5813283" lon="14.8910833"><ele>229.33333333333331</ele><time>2026-05-05T09:38:09.173Z</time></trkpt><trkpt lat="37.5814917" lon="14.8910033"><ele>229.66666666666669</ele><time>2026-05-05T09:38:10.173Z</time></trkpt><trkpt lat="37.581655" lon="14.8909133"><ele>230.0</ele><time>2026-05-05T09:38:11.173Z</time></trkpt><trkpt lat="37.5818183" lon="14.890835"><ele>227.66666666666669</ele><time>2026-05-05T09:38:12.173Z</time></trkpt><trkpt lat="37.5819783" lon="14.8907517"><ele>225.33333333333331</ele><time>2026-05-05T09:38:13.173Z</time></trkpt><trkpt lat="37.5821367" lon="14.8906733"><ele>223.0</ele><time>2026-05-05T09:38:14.173Z</time></trkpt><trkpt lat="37.58229" lon="14.890595"><ele>223.0</ele><time>2026-05-05T09:38:15.173Z</time></trkpt><trkpt lat="37.58243" lon="14.8904983"><ele>223.0</ele><time>2026-05-05T09:38:16.174Z</time></trkpt><trkpt lat="37.5825633" lon="14.8903667"><ele>223.0</ele><time>2026-05-05T09:38:17.173Z</time></trkpt><trkpt lat="37.582685" lon="14.8902233"><ele>221.66666666666666</ele><time>2026-05-05T09:38:18.173Z</time></trkpt><trkpt lat="37.582795" lon="14.890055"><ele>220.33333333333331</ele><time>2026-05-05T09:38:19.173Z</time></trkpt><trkpt lat="37.5828917" lon="14.889875"><ele>219.0</ele><time>2026-05-05T09:38:20.173Z</time></trkpt><trkpt lat="37.5829767" lon="14.889685"><ele>217.66666666666669</ele><time>2026-05-05T09:38:21.173Z</time></trkpt><trkpt lat="37.583045" lon="14.8894933"><ele>216.33333333333334</ele><time>2026-05-05T09:38:22.173Z</time></trkpt><trkpt lat="37.5830817" lon="14.889285"><ele>215.0</ele><time>2026-05-05T09:38:23.173Z</time></trkpt><trkpt lat="37.583095" lon="14.8890683"><ele>213.0</ele><time>2026-05-05T09:38:24.173Z</time></trkpt><trkpt lat="37.583095" lon="14.88885"><ele>211.0</ele><time>2026-05-05T09:38:25.173Z</time></trkpt><trkpt lat="37.583095" lon="14.88863"><ele>209.0</ele><time>2026-05-05T09:38:26.173Z</time></trkpt><trkpt lat="37.5830983" lon="14.8884167"><ele>207.33333333333334</ele><time>2026-05-05T09:38:27.173Z</time></trkpt><trkpt lat="37.5831067" lon="14.8882033"><ele>205.66666666666669</ele><time>2026-05-05T09:38:28.173Z</time></trkpt><trkpt lat="37.5831117" lon="14.8879817"><ele>204.0</ele><time>2026-05-05T09:38:29.173Z</time></trkpt><trkpt lat="37.583115" lon="14.8877583"><ele>204.0</ele><time>2026-05-05T09:38:30.173Z</time></trkpt><trkpt lat="37.5831183" lon="14.8875367"><ele>204.0</ele><time>2026-05-05T09:38:31.173Z</time></trkpt><trkpt lat="37.583115" lon="14.887325"><ele>204.0</ele><time>2026-05-05T09:38:32.173Z</time></trkpt><trkpt lat="37.5831033" lon="14.8871133"><ele>204.0</ele><time>2026-05-05T09:38:33.173Z</time></trkpt><trkpt lat="37.58308" lon="14.8869067"><ele>204.0</ele><time>2026-05-05T09:38:34.173Z</time></trkpt><trkpt lat="37.5830567" lon="14.8866883"><ele>204.0</ele><time>2026-05-05T09:38:35.173Z</time></trkpt><trkpt lat="37.5830683" lon="14.8864833"><ele>202.66666666666669</ele><time>2026-05-05T09:38:36.173Z</time></trkpt><trkpt lat="37.5831033" lon="14.88628"><ele>201.33333333333334</ele><time>2026-05-05T09:38:37.173Z</time></trkpt><trkpt lat="37.5831783" lon="14.886085"><ele>200.0</ele><time>2026-05-05T09:38:38.173Z</time></trkpt><trkpt lat="37.5832967" lon="14.8859083"><ele>199.66666666666669</ele><time>2026-05-05T09:38:39.174Z</time></trkpt><trkpt lat="37.5834267" lon="14.8857467"><ele>199.33333333333331</ele><time>2026-05-05T09:38:40.173Z</time></trkpt><trkpt lat="37.5835517" lon="14.8855933"><ele>199.0</ele><time>2026-05-05T09:38:41.173Z</time></trkpt><trkpt lat="37.58368" lon="14.885445"><ele>199.0</ele><time>2026-05-05T09:38:42.173Z</time></trkpt><trkpt lat="37.58381" lon="14.8852983"><ele>199.0</ele><time>2026-05-05T09:38:43.173Z</time></trkpt><trkpt lat="37.5839567" lon="14.8851767"><ele>199.0</ele><time>2026-05-05T09:38:44.173Z</time></trkpt><trkpt lat="37.5841133" lon="14.88507"><ele>200.0</ele><time>2026-05-05T09:38:45.173Z</time></trkpt><trkpt lat="37.5842817" lon="14.8849967"><ele>201.0</ele><time>2026-05-05T09:38:46.173Z</time></trkpt><trkpt lat="37.58445" lon="14.8849317"><ele>202.0</ele><time>2026-05-05T09:38:47.173Z</time></trkpt><trkpt lat="37.5846233" lon="14.8848767"><ele>204.33333333333331</ele><time>2026-05-05T09:38:48.173Z</time></trkpt><trkpt lat="37.58479" lon="14.8848067"><ele>206.66666666666669</ele><time>2026-05-05T09:38:49.173Z</time></trkpt><trkpt lat="37.584945" lon="14.8847217"><ele>209.0</ele><time>2026-05-05T09:38:50.173Z</time></trkpt><trkpt lat="37.5851017" lon="14.8846333"><ele>209.0</ele><time>2026-05-05T09:38:51.173Z</time></trkpt><trkpt lat="37.5852567" lon="14.884525"><ele>209.0</ele><time>2026-05-05T09:38:52.174Z</time></trkpt><trkpt lat="37.5853983" lon="14.8843983"><ele>209.0</ele><time>2026-05-05T09:38:53.173Z</time></trkpt><trkpt lat="37.5855367" lon="14.88426"><ele>208.66666666666669</ele><time>2026-05-05T09:38:54.173Z</time></trkpt><trkpt lat="37.5856667" lon="14.8841083"><ele>208.33333333333331</ele><time>2026-05-05T09:38:55.173Z</time></trkpt><trkpt lat="37.5857883" lon="14.8839483"><ele>208.0</ele><time>2026-05-05T09:38:56.173Z</time></trkpt><trkpt lat="37.5859133" lon="14.88379"><ele>208.0</ele><time>2026-05-05T09:38:57.173Z</time></trkpt><trkpt lat="37.58603" lon="14.8836367"><ele>208.0</ele><time>2026-05-05T09:38:58.173Z</time></trkpt><trkpt lat="37.5861433" lon="14.8834917"><ele>208.0</ele><time>2026-05-05T09:38:59.173Z</time></trkpt><trkpt lat="37.5862517" lon="14.88335"><ele>208.25</ele><time>2026-05-05T09:39:00.173Z</time></trkpt><trkpt lat="37.58636" lon="14.883215"><ele>208.5</ele><time>2026-05-05T09:39:01.173Z</time></trkpt><trkpt lat="37.5864533" lon="14.883085"><ele>208.75</ele><time>2026-05-05T09:39:02.173Z</time></trkpt><trkpt lat="37.5865567" lon="14.8829717"><ele>209.0</ele><time>2026-05-05T09:39:03.173Z</time></trkpt><trkpt lat="37.5866667" lon="14.8828783"><ele>209.0</ele><time>2026-05-05T09:39:04.173Z</time></trkpt><trkpt lat="37.5867767" lon="14.8827983"><ele>209.0</ele><time>2026-05-05T09:39:05.174Z</time></trkpt><trkpt lat="37.5868917" lon="14.8827217"><ele>209.0</ele><time>2026-05-05T09:39:06.174Z</time></trkpt><trkpt lat="37.587005" lon="14.8826483"><ele>209.0</ele><time>2026-05-05T09:39:07.173Z</time></trkpt><trkpt lat="37.587115" lon="14.882575"><ele>209.2</ele><time>2026-05-05T09:39:08.173Z</time></trkpt><trkpt lat="37.5872183" lon="14.8825033"><ele>209.39999999999998</ele><time>2026-05-05T09:39:09.173Z</time></trkpt><trkpt lat="37.5873167" lon="14.882445"><ele>209.6</ele><time>2026-05-05T09:39:10.173Z</time></trkpt><trkpt lat="37.5874167" lon="14.8823783"><ele>209.8</ele><time>2026-05-05T09:39:11.173Z</time></trkpt><trkpt lat="37.5875083" lon="14.88231"><ele>210.0</ele><time>2026-05-05T09:39:12.174Z</time></trkpt><trkpt lat="37.587595" lon="14.8822433"><ele>210.0</ele><time>2026-05-05T09:39:13.173Z</time></trkpt><trkpt lat="37.58768" lon="14.8821817"><ele>210.0</ele><time>2026-05-05T09:39:14.174Z</time></trkpt><trkpt lat="37.5877667" lon="14.8821083"><ele>210.0</ele><time>2026-05-05T09:39:15.173Z</time></trkpt><trkpt lat="37.5878617" lon="14.8820183"><ele>210.0</ele><time>2026-05-05T09:39:16.174Z</time></trkpt><trkpt lat="37.58795" lon="14.8819183"><ele>210.0</ele><time>2026-05-05T09:39:17.173Z</time></trkpt><trkpt lat="37.588025" lon="14.881815"><ele>208.2</ele><time>2026-05-05T09:39:18.174Z</time></trkpt><trkpt lat="37.5881" lon="14.8817117"><ele>206.4</ele><time>2026-05-05T09:39:19.174Z</time></trkpt><trkpt lat="37.58817" lon="14.88161"><ele>204.60000000000002</ele><time>2026-05-05T09:39:20.173Z</time></trkpt><trkpt lat="37.588235" lon="14.8815067"><ele>202.8</ele><time>2026-05-05T09:39:21.173Z</time></trkpt><trkpt lat="37.588295" lon="14.8813983"><ele>201.0</ele><time>2026-05-05T09:39:22.173Z</time></trkpt><trkpt lat="37.5883567" lon="14.8812833"><ele>201.0</ele><time>2026-05-05T09:39:23.174Z</time></trkpt><trkpt lat="37.588415" lon="14.8811633"><ele>201.0</ele><time>2026-05-05T09:39:24.173Z</time></trkpt><trkpt lat="37.5884667" lon="14.8810367"><ele>201.0</ele><time>2026-05-05T09:39:25.173Z</time></trkpt><trkpt lat="37.5885233" lon="14.880905"><ele>201.0</ele><time>2026-05-05T09:39:26.173Z</time></trkpt><trkpt lat="37.5885783" lon="14.8807783"><ele>199.25</ele><time>2026-05-05T09:39:27.173Z</time></trkpt><trkpt lat="37.5886333" lon="14.8806517"><ele>197.5</ele><time>2026-05-05T09:39:28.173Z</time></trkpt><trkpt lat="37.5886917" lon="14.8805217"><ele>195.75</ele><time>2026-05-05T09:39:29.173Z</time></trkpt><trkpt lat="37.588745" lon="14.88039"><ele>194.0</ele><time>2026-05-05T09:39:30.173Z</time></trkpt><trkpt lat="37.5888" lon="14.880255"><ele>194.0</ele><time>2026-05-05T09:39:31.173Z</time></trkpt><trkpt lat="37.5888533" lon="14.8801217"><ele>194.0</ele><time>2026-05-05T09:39:32.173Z</time></trkpt><trkpt lat="37.5889083" lon="14.87999"><ele>194.0</ele><time>2026-05-05T09:39:33.173Z</time></trkpt><trkpt lat="37.58897" lon="14.879855"><ele>194.0</ele><time>2026-05-05T09:39:34.173Z</time></trkpt><trkpt lat="37.58903" lon="14.8797183"><ele>193.25</ele><time>2026-05-05T09:39:35.173Z</time></trkpt><trkpt lat="37.5890933" lon="14.8795783"><ele>192.5</ele><time>2026-05-05T09:39:36.173Z</time></trkpt><trkpt lat="37.5891567" lon="14.8794383"><ele>191.75</ele><time>2026-05-05T09:39:37.174Z</time></trkpt><trkpt lat="37.5892183" lon="14.8792867"><ele>191.0</ele><time>2026-05-05T09:39:38.173Z</time></trkpt><trkpt lat="37.5892933" lon="14.8791267"><ele>190.33333333333331</ele><time>2026-05-05T09:39:39.174Z</time></trkpt><trkpt lat="37.58937" lon="14.8789533"><ele>189.66666666666666</ele><time>2026-05-05T09:39:40.173Z</time></trkpt><trkpt lat="37.5894433" lon="14.878775"><ele>189.0</ele><time>2026-05-05T09:39:41.173Z</time></trkpt><trkpt lat="37.5895167" lon="14.8785967"><ele>188.0</ele><time>2026-05-05T09:39:42.173Z</time></trkpt><trkpt lat="37.5895967" lon="14.878415"><ele>187.0</ele><time>2026-05-05T09:39:43.173Z</time></trkpt><trkpt lat="37.589675" lon="14.8782367"><ele>186.0</ele><time>2026-05-05T09:39:44.173Z</time></trkpt><trkpt lat="37.589745" lon="14.8780633"><ele>186.0</ele><time>2026-05-05T09:39:45.174Z</time></trkpt><trkpt lat="37.5898167" lon="14.877895"><ele>186.0</ele><time>2026-05-05T09:39:46.173Z</time></trkpt><trkpt lat="37.5898883" lon="14.8777233"><ele>186.0</ele><time>2026-05-05T09:39:47.173Z</time></trkpt><trkpt lat="37.5899633" lon="14.8775583"><ele>186.0</ele><time>2026-05-05T09:39:48.174Z</time></trkpt><trkpt lat="37.5900383" lon="14.8773967"><ele>186.0</ele><time>2026-05-05T09:39:49.173Z</time></trkpt><trkpt lat="37.5901133" lon="14.8772333"><ele>186.0</ele><time>2026-05-05T09:39:50.173Z</time></trkpt><trkpt lat="37.5901883" lon="14.8770667"><ele>186.0</ele><time>2026-05-05T09:39:51.173Z</time></trkpt><trkpt lat="37.5902733" lon="14.8769083"><ele>186.0</ele><time>2026-05-05T09:39:52.174Z</time></trkpt><trkpt lat="37.5903667" lon="14.8767633"><ele>186.0</ele><time>2026-05-05T09:39:53.173Z</time></trkpt><trkpt lat="37.5904633" lon="14.8766217"><ele>186.0</ele><time>2026-05-05T09:39:54.173Z</time></trkpt><trkpt lat="37.5905783" lon="14.8764867"><ele>186.33333333333334</ele><time>2026-05-05T09:39:55.173Z</time></trkpt><trkpt lat="37.5907033" lon="14.8763617"><ele>186.66666666666669</ele><time>2026-05-05T09:39:56.173Z</time></trkpt><trkpt lat="37.5908283" lon="14.8762317"><ele>187.0</ele><time>2026-05-05T09:39:57.173Z</time></trkpt><trkpt lat="37.59094" lon="14.8760883"><ele>187.0</ele><time>2026-05-05T09:39:58.173Z</time></trkpt><trkpt lat="37.591065" lon="14.8759567"><ele>187.0</ele><time>2026-05-05T09:39:59.173Z</time></trkpt><trkpt lat="37.5912017" lon="14.8758267"><ele>187.0</ele><time>2026-05-05T09:40:00.173Z</time></trkpt><trkpt lat="37.5913267" lon="14.8756983"><ele>187.0</ele><time>2026-05-05T09:40:01.174Z</time></trkpt><trkpt lat="37.5914533" lon="14.8755667"><ele>187.0</ele><time>2026-05-05T09:40:02.173Z</time></trkpt><trkpt lat="37.5915833" lon="14.875435"><ele>187.0</ele><time>2026-05-05T09:40:03.173Z</time></trkpt><trkpt lat="37.5917133" lon="14.8752983"><ele>187.0</ele><time>2026-05-05T09:40:04.173Z</time></trkpt><trkpt lat="37.5918383" lon="14.8751567"><ele>187.0</ele><time>2026-05-05T09:40:05.173Z</time></trkpt><trkpt lat="37.59196" lon="14.8750167"><ele>187.0</ele><time>2026-05-05T09:40:06.173Z</time></trkpt><trkpt lat="37.592085" lon="14.874875"><ele>187.0</ele><time>2026-05-05T09:40:07.173Z</time></trkpt><trkpt lat="37.5922083" lon="14.8747283"><ele>187.0</ele><time>2026-05-05T09:40:08.174Z</time></trkpt><trkpt lat="37.5923233" lon="14.8745833"><ele>187.0</ele><time>2026-05-05T09:40:09.174Z</time></trkpt><trkpt lat="37.5924317" lon="14.8744267"><ele>186.33333333333334</ele><time>2026-05-05T09:40:10.173Z</time></trkpt><trkpt lat="37.5925367" lon="14.87427"><ele>185.66666666666666</ele><time>2026-05-05T09:40:11.173Z</time></trkpt><trkpt lat="37.59264" lon="14.8741167"><ele>185.0</ele><time>2026-05-05T09:40:12.173Z</time></trkpt><trkpt lat="37.5927283" lon="14.8739583"><ele>185.0</ele><time>2026-05-05T09:40:13.173Z</time></trkpt><trkpt lat="37.5928183" lon="14.8738"><ele>185.0</ele><time>2026-05-05T09:40:14.173Z</time></trkpt><trkpt lat="37.5929183" lon="14.8736417"><ele>185.0</ele><time>2026-05-05T09:40:15.173Z</time></trkpt><trkpt lat="37.59302" lon="14.8734817"><ele>184.0</ele><time>2026-05-05T09:40:16.173Z</time></trkpt><trkpt lat="37.5931217" lon="14.8733133"><ele>183.0</ele><time>2026-05-05T09:40:17.173Z</time></trkpt><trkpt lat="37.5932283" lon="14.8731567"><ele>182.0</ele><time>2026-05-05T09:40:18.173Z</time></trkpt><trkpt lat="37.5933333" lon="14.8730033"><ele>182.0</ele><time>2026-05-05T09:40:19.173Z</time></trkpt><trkpt lat="37.59344" lon="14.872845"><ele>182.0</ele><time>2026-05-05T09:40:20.173Z</time></trkpt><trkpt lat="37.5935517" lon="14.872685"><ele>182.0</ele><time>2026-05-05T09:40:21.173Z</time></trkpt><trkpt lat="37.5936583" lon="14.872525"><ele>182.66666666666666</ele><time>2026-05-05T09:40:22.174Z</time></trkpt><trkpt lat="37.59376" lon="14.872365"><ele>183.33333333333334</ele><time>2026-05-05T09:40:23.173Z</time></trkpt><trkpt lat="37.5938583" lon="14.8722083"><ele>184.0</ele><time>2026-05-05T09:40:24.173Z</time></trkpt><trkpt lat="37.593955" lon="14.87205"><ele>184.0</ele><time>2026-05-05T09:40:25.173Z</time></trkpt><trkpt lat="37.59405" lon="14.8718883"><ele>184.0</ele><time>2026-05-05T09:40:26.173Z</time></trkpt><trkpt lat="37.5941383" lon="14.8717267"><ele>184.0</ele><time>2026-05-05T09:40:27.173Z</time></trkpt><trkpt lat="37.5942317" lon="14.8715667"><ele>182.66666666666669</ele><time>2026-05-05T09:40:28.173Z</time></trkpt><trkpt lat="37.59433" lon="14.8714117"><ele>181.33333333333334</ele><time>2026-05-05T09:40:29.173Z</time></trkpt><trkpt lat="37.59443" lon="14.8712517"><ele>180.0</ele><time>2026-05-05T09:40:30.173Z</time></trkpt><trkpt lat="37.59453" lon="14.871105"><ele>180.0</ele><time>2026-05-05T09:40:31.173Z</time></trkpt><trkpt lat="37.59464" lon="14.8709683"><ele>180.0</ele><time>2026-05-05T09:40:32.173Z</time></trkpt><trkpt lat="37.5947533" lon="14.8708433"><ele>180.0</ele><time>2026-05-05T09:40:33.173Z</time></trkpt><trkpt lat="37.59487" lon="14.8707233"><ele>179.0</ele><time>2026-05-05T09:40:34.173Z</time></trkpt><trkpt lat="37.5949783" lon="14.8706083"><ele>178.0</ele><time>2026-05-05T09:40:35.173Z</time></trkpt><trkpt lat="37.59509" lon="14.8704883"><ele>177.0</ele><time>2026-05-05T09:40:36.174Z</time></trkpt><trkpt lat="37.5952033" lon="14.870365"><ele>176.0</ele><time>2026-05-05T09:40:37.174Z</time></trkpt><trkpt lat="37.5953167" lon="14.8702367"><ele>176.66666666666666</ele><time>2026-05-05T09:40:38.173Z</time></trkpt><trkpt lat="37.59543" lon="14.8701117"><ele>177.33333333333334</ele><time>2026-05-05T09:40:39.174Z</time></trkpt><trkpt lat="37.59554" lon="14.8699817"><ele>178.0</ele><time>2026-05-05T09:40:40.173Z</time></trkpt><trkpt lat="37.59564" lon="14.8698433"><ele>178.0</ele><time>2026-05-05T09:40:41.173Z</time></trkpt><trkpt lat="37.5957217" lon="14.869685"><ele>178.0</ele><time>2026-05-05T09:40:42.173Z</time></trkpt><trkpt lat="37.59579" lon="14.869515"><ele>178.0</ele><time>2026-05-05T09:40:43.173Z</time></trkpt><trkpt lat="37.59584" lon="14.869345"><ele>178.0</ele><time>2026-05-05T09:40:44.173Z</time></trkpt><trkpt lat="37.5958783" lon="14.86917"><ele>178.25</ele><time>2026-05-05T09:40:45.173Z</time></trkpt><trkpt lat="37.5959033" lon="14.8689967"><ele>178.5</ele><time>2026-05-05T09:40:46.173Z</time></trkpt><trkpt lat="37.5959083" lon="14.8688317"><ele>178.75</ele><time>2026-05-05T09:40:47.173Z</time></trkpt><trkpt lat="37.5959083" lon="14.8686783"><ele>179.0</ele><time>2026-05-05T09:40:48.173Z</time></trkpt><trkpt lat="37.5959067" lon="14.86852"><ele>179.75</ele><time>2026-05-05T09:40:49.173Z</time></trkpt><trkpt lat="37.5959" lon="14.8683667"><ele>180.5</ele><time>2026-05-05T09:40:50.173Z</time></trkpt><trkpt lat="37.595895" lon="14.8682183"><ele>181.25</ele><time>2026-05-05T09:40:51.173Z</time></trkpt><trkpt lat="37.59589" lon="14.86806"><ele>182.0</ele><time>2026-05-05T09:40:52.173Z</time></trkpt><trkpt lat="37.5958917" lon="14.8678967"><ele>182.0</ele><time>2026-05-05T09:40:53.173Z</time></trkpt><trkpt lat="37.5958883" lon="14.8677433"><ele>182.0</ele><time>2026-05-05T09:40:54.174Z</time></trkpt><trkpt lat="37.5958883" lon="14.8675833"><ele>182.0</ele><time>2026-05-05T09:40:55.174Z</time></trkpt><trkpt lat="37.5958867" lon="14.8674133"><ele>182.0</ele><time>2026-05-05T09:40:56.173Z</time></trkpt><trkpt lat="37.5958883" lon="14.8672417"><ele>182.25</ele><time>2026-05-05T09:40:57.174Z</time></trkpt><trkpt lat="37.5958933" lon="14.8670767"><ele>182.5</ele><time>2026-05-05T09:40:58.173Z</time></trkpt><trkpt lat="37.5958983" lon="14.8669033"><ele>182.75</ele><time>2026-05-05T09:40:59.173Z</time></trkpt><trkpt lat="37.5959017" lon="14.8667317"><ele>183.0</ele><time>2026-05-05T09:41:00.173Z</time></trkpt><trkpt lat="37.5959033" lon="14.8665533"><ele>183.0</ele><time>2026-05-05T09:41:01.173Z</time></trkpt><trkpt lat="37.5959067" lon="14.8663817"><ele>183.0</ele><time>2026-05-05T09:41:02.173Z</time></trkpt><trkpt lat="37.5959233" lon="14.8662083"><ele>183.0</ele><time>2026-05-05T09:41:03.173Z</time></trkpt><trkpt lat="37.5959417" lon="14.8660367"><ele>183.0</ele><time>2026-05-05T09:41:04.173Z</time></trkpt><trkpt lat="37.5959717" lon="14.8658683"><ele>183.25</ele><time>2026-05-05T09:41:05.173Z</time></trkpt><trkpt lat="37.5959967" lon="14.865705"><ele>183.5</ele><time>2026-05-05T09:41:06.173Z</time></trkpt><trkpt lat="37.59603" lon="14.8655517"><ele>183.75</ele><time>2026-05-05T09:41:07.173Z</time></trkpt><trkpt lat="37.5960733" lon="14.8654017"><ele>184.0</ele><time>2026-05-05T09:41:08.174Z</time></trkpt><trkpt lat="37.5961083" lon="14.86525"><ele>184.25</ele><time>2026-05-05T09:41:09.173Z</time></trkpt><trkpt lat="37.5961283" lon="14.865095"><ele>184.5</ele><time>2026-05-05T09:41:10.173Z</time></trkpt><trkpt lat="37.5961333" lon="14.86494"><ele>184.75</ele><time>2026-05-05T09:41:11.173Z</time></trkpt><trkpt lat="37.5961367" lon="14.8647783"><ele>185.0</ele><time>2026-05-05T09:41:12.173Z</time></trkpt><trkpt lat="37.596145" lon="14.8646217"><ele>185.0</ele><time>2026-05-05T09:41:13.173Z</time></trkpt><trkpt lat="37.596165" lon="14.8644667"><ele>185.0</ele><time>2026-05-05T09:41:14.173Z</time></trkpt><trkpt lat="37.5961883" lon="14.86431"><ele>185.0</ele><time>2026-05-05T09:41:15.173Z</time></trkpt><trkpt lat="37.59623" lon="14.864165"><ele>185.0</ele><time>2026-05-05T09:41:16.173Z</time></trkpt><trkpt lat="37.5962833" lon="14.8640317"><ele>187.75</ele><time>2026-05-05T09:41:17.173Z</time></trkpt><trkpt lat="37.5963383" lon="14.8639017"><ele>190.5</ele><time>2026-05-05T09:41:18.173Z</time></trkpt><trkpt lat="37.5964" lon="14.863775"><ele>193.25</ele><time>2026-05-05T09:41:19.173Z</time></trkpt><trkpt lat="37.59646" lon="14.8636467"><ele>196.0</ele><time>2026-05-05T09:41:20.173Z</time></trkpt><trkpt lat="37.5965217" lon="14.8635217"><ele>193.75</ele><time>2026-05-05T09:41:21.173Z</time></trkpt><trkpt lat="37.5965767" lon="14.8634"><ele>191.5</ele><time>2026-05-05T09:41:22.173Z</time></trkpt><trkpt lat="37.5966333" lon="14.8632667"><ele>189.25</ele><time>2026-05-05T09:41:23.174Z</time></trkpt><trkpt lat="37.5966867" lon="14.8631233"><ele>187.0</ele><time>2026-05-05T09:41:24.173Z</time></trkpt><trkpt lat="37.5967467" lon="14.8629717"><ele>187.0</ele><time>2026-05-05T09:41:25.173Z</time></trkpt><trkpt lat="37.5968083" lon="14.8628117"><ele>187.0</ele><time>2026-05-05T09:41:26.173Z</time></trkpt><trkpt lat="37.59687" lon="14.8626533"><ele>187.0</ele><time>2026-05-05T09:41:27.173Z</time></trkpt><trkpt lat="37.59693" lon="14.8625"><ele>187.0</ele><time>2026-05-05T09:41:28.173Z</time></trkpt><trkpt lat="37.5969867" lon="14.8623533"><ele>186.75</ele><time>2026-05-05T09:41:29.174Z</time></trkpt><trkpt lat="37.597045" lon="14.8622117"><ele>186.5</ele><time>2026-05-05T09:41:30.173Z</time></trkpt><trkpt lat="37.5971033" lon="14.8620717"><ele>186.25</ele><time>2026-05-05T09:41:31.173Z</time></trkpt><trkpt lat="37.59716" lon="14.8619383"><ele>186.0</ele><time>2026-05-05T09:41:32.172Z</time></trkpt><trkpt lat="37.59722" lon="14.8618017"><ele>185.5</ele><time>2026-05-05T09:41:33.173Z</time></trkpt><trkpt lat="37.597285" lon="14.8616667"><ele>185.0</ele><time>2026-05-05T09:41:34.173Z</time></trkpt><trkpt lat="37.5973583" lon="14.8615317"><ele>184.5</ele><time>2026-05-05T09:41:35.173Z</time></trkpt><trkpt lat="37.5974333" lon="14.8614"><ele>184.0</ele><time>2026-05-05T09:41:36.173Z</time></trkpt><trkpt lat="37.59751" lon="14.8612667"><ele>184.0</ele><time>2026-05-05T09:41:37.173Z</time></trkpt><trkpt lat="37.59759" lon="14.8611517"><ele>184.0</ele><time>2026-05-05T09:41:38.173Z</time></trkpt><trkpt lat="37.59767" lon="14.8610483"><ele>184.0</ele><time>2026-05-05T09:41:39.173Z</time></trkpt><trkpt lat="37.5977483" lon="14.86095"><ele>184.0</ele><time>2026-05-05T09:41:40.174Z</time></trkpt><trkpt lat="37.5978317" lon="14.8608467"><ele>184.0</ele><time>2026-05-05T09:41:41.173Z</time></trkpt><trkpt lat="37.5979217" lon="14.8607283"><ele>184.0</ele><time>2026-05-05T09:41:42.173Z</time></trkpt><trkpt lat="37.5980117" lon="14.8606"><ele>184.0</ele><time>2026-05-05T09:41:43.173Z</time></trkpt><trkpt lat="37.5980983" lon="14.8604633"><ele>184.0</ele><time>2026-05-05T09:41:44.173Z</time></trkpt><trkpt lat="37.5981817" lon="14.8603133"><ele>184.0</ele><time>2026-05-05T09:41:45.173Z</time></trkpt><trkpt lat="37.5982583" lon="14.8601533"><ele>184.0</ele><time>2026-05-05T09:41:46.173Z</time></trkpt><trkpt lat="37.5983283" lon="14.859995"><ele>184.0</ele><time>2026-05-05T09:41:47.174Z</time></trkpt><trkpt lat="37.5984033" lon="14.859835"><ele>184.0</ele><time>2026-05-05T09:41:48.173Z</time></trkpt><trkpt lat="37.5984617" lon="14.8596817"><ele>183.5</ele><time>2026-05-05T09:41:49.174Z</time></trkpt><trkpt lat="37.59852" lon="14.8595317"><ele>183.0</ele><time>2026-05-05T09:41:50.173Z</time></trkpt><trkpt lat="37.598585" lon="14.8593767"><ele>182.5</ele><time>2026-05-05T09:41:51.174Z</time></trkpt><trkpt lat="37.59865" lon="14.8592117"><ele>182.0</ele><time>2026-05-05T09:41:52.173Z</time></trkpt><trkpt lat="37.5987167" lon="14.859045"><ele>183.66666666666666</ele><time>2026-05-05T09:41:53.174Z</time></trkpt><trkpt lat="37.5987817" lon="14.8588783"><ele>185.33333333333334</ele><time>2026-05-05T09:41:54.173Z</time></trkpt><trkpt lat="37.5988533" lon="14.8587117"><ele>187.0</ele><time>2026-05-05T09:41:55.173Z</time></trkpt><trkpt lat="37.5989383" lon="14.8585433"><ele>185.33333333333334</ele><time>2026-05-05T09:41:56.173Z</time></trkpt><trkpt lat="37.5990267" lon="14.8583817"><ele>183.66666666666666</ele><time>2026-05-05T09:41:57.173Z</time></trkpt><trkpt lat="37.5991233" lon="14.85822"><ele>182.0</ele><time>2026-05-05T09:41:58.173Z</time></trkpt><trkpt lat="37.5992283" lon="14.8580617"><ele>182.0</ele><time>2026-05-05T09:41:59.173Z</time></trkpt><trkpt lat="37.59934" lon="14.857905"><ele>182.0</ele><time>2026-05-05T09:42:00.173Z</time></trkpt><trkpt lat="37.59945" lon="14.8577567"><ele>182.0</ele><time>2026-05-05T09:42:01.173Z</time></trkpt><trkpt lat="37.599565" lon="14.8576067"><ele>183.33333333333331</ele><time>2026-05-05T09:42:02.173Z</time></trkpt><trkpt lat="37.5996783" lon="14.85746"><ele>184.66666666666666</ele><time>2026-05-05T09:42:03.173Z</time></trkpt><trkpt lat="37.5997883" lon="14.8573133"><ele>186.0</ele><time>2026-05-05T09:42:04.173Z</time></trkpt><trkpt lat="37.5998983" lon="14.85717"><ele>186.0</ele><time>2026-05-05T09:42:05.173Z</time></trkpt><trkpt lat="37.60001" lon="14.8570217"><ele>186.0</ele><time>2026-05-05T09:42:06.174Z</time></trkpt><trkpt lat="37.600115" lon="14.8568817"><ele>186.0</ele><time>2026-05-05T09:42:07.174Z</time></trkpt><trkpt lat="37.6002233" lon="14.8567417"><ele>185.0</ele><time>2026-05-05T09:42:08.173Z</time></trkpt><trkpt lat="37.6003333" lon="14.8565983"><ele>184.0</ele><time>2026-05-05T09:42:09.173Z</time></trkpt><trkpt lat="37.60044" lon="14.8564617"><ele>183.0</ele><time>2026-05-05T09:42:10.173Z</time></trkpt><trkpt lat="37.6005517" lon="14.85632"><ele>183.0</ele><time>2026-05-05T09:42:11.173Z</time></trkpt><trkpt lat="37.6006783" lon="14.856195"><ele>183.0</ele><time>2026-05-05T09:42:12.173Z</time></trkpt><trkpt lat="37.6008067" lon="14.8560817"><ele>183.0</ele><time>2026-05-05T09:42:13.173Z</time></trkpt><trkpt lat="37.600935" lon="14.8559817"><ele>183.25</ele><time>2026-05-05T09:42:14.173Z</time></trkpt><trkpt lat="37.6010717" lon="14.855905"><ele>183.5</ele><time>2026-05-05T09:42:15.174Z</time></trkpt><trkpt lat="37.60121" lon="14.85584"><ele>183.75</ele><time>2026-05-05T09:42:16.173Z</time></trkpt><trkpt lat="37.60135" lon="14.8557683"><ele>184.0</ele><time>2026-05-05T09:42:17.173Z</time></trkpt><trkpt lat="37.6014883" lon="14.85569"><ele>184.0</ele><time>2026-05-05T09:42:18.173Z</time></trkpt><trkpt lat="37.601615" lon="14.8555867"><ele>184.0</ele><time>2026-05-05T09:42:19.173Z</time></trkpt><trkpt lat="37.6017333" lon="14.855475"><ele>184.0</ele><time>2026-05-05T09:42:20.173Z</time></trkpt><trkpt lat="37.6018383" lon="14.85534"><ele>184.0</ele><time>2026-05-05T09:42:21.174Z</time></trkpt><trkpt lat="37.601925" lon="14.8551917"><ele>184.25</ele><time>2026-05-05T09:42:22.173Z</time></trkpt><trkpt lat="37.6019983" lon="14.8550317"><ele>184.5</ele><time>2026-05-05T09:42:23.173Z</time></trkpt><trkpt lat="37.602055" lon="14.8548633"><ele>184.75</ele><time>2026-05-05T09:42:24.174Z</time></trkpt><trkpt lat="37.6021117" lon="14.8546983"><ele>185.0</ele><time>2026-05-05T09:42:25.173Z</time></trkpt><trkpt lat="37.6021717" lon="14.854535"><ele>185.75</ele><time>2026-05-05T09:42:26.173Z</time></trkpt><trkpt lat="37.602245" lon="14.8543817"><ele>186.5</ele><time>2026-05-05T09:42:27.173Z</time></trkpt><trkpt lat="37.60233" lon="14.8542383"><ele>187.25</ele><time>2026-05-05T09:42:28.173Z</time></trkpt><trkpt lat="37.6024283" lon="14.8541133"><ele>188.0</ele><time>2026-05-05T09:42:29.173Z</time></trkpt><trkpt lat="37.6025417" lon="14.8539933"><ele>188.0</ele><time>2026-05-05T09:42:30.173Z</time></trkpt><trkpt lat="37.60266" lon="14.8538883"><ele>188.0</ele><time>2026-05-05T09:42:31.173Z</time></trkpt><trkpt lat="37.6027817" lon="14.853785"><ele>188.0</ele><time>2026-05-05T09:42:32.173Z</time></trkpt><trkpt lat="37.6029067" lon="14.853685"><ele>188.0</ele><time>2026-05-05T09:42:33.173Z</time></trkpt><trkpt lat="37.60304" lon="14.8535767"><ele>189.0</ele><time>2026-05-05T09:42:34.173Z</time></trkpt><trkpt lat="37.6031783" lon="14.853465"><ele>190.0</ele><time>2026-05-05T09:42:35.173Z</time></trkpt><trkpt lat="37.6033167" lon="14.85335"><ele>191.0</ele><time>2026-05-05T09:42:36.173Z</time></trkpt><trkpt lat="37.6034583" lon="14.8532333"><ele>191.0</ele><time>2026-05-05T09:42:37.173Z</time></trkpt><trkpt lat="37.60361" lon="14.8531133"><ele>191.0</ele><time>2026-05-05T09:42:38.173Z</time></trkpt><trkpt lat="37.6037733" lon="14.8529833"><ele>191.0</ele><time>2026-05-05T09:42:39.173Z</time></trkpt><trkpt lat="37.6039333" lon="14.8528533"><ele>190.33333333333331</ele><time>2026-05-05T09:42:40.173Z</time></trkpt><trkpt lat="37.6041" lon="14.8527267"><ele>189.66666666666666</ele><time>2026-05-05T09:42:41.173Z</time></trkpt><trkpt lat="37.6042567" lon="14.85261"><ele>189.0</ele><time>2026-05-05T09:42:42.173Z</time></trkpt><trkpt lat="37.604405" lon="14.8524883"><ele>189.0</ele><time>2026-05-05T09:42:43.173Z</time></trkpt><trkpt lat="37.6045517" lon="14.8523767"><ele>189.0</ele><time>2026-05-05T09:42:44.173Z</time></trkpt><trkpt lat="37.6046967" lon="14.8522617"><ele>189.0</ele><time>2026-05-05T09:42:45.174Z</time></trkpt><trkpt lat="37.6048367" lon="14.852155"><ele>189.0</ele><time>2026-05-05T09:42:46.173Z</time></trkpt><trkpt lat="37.604975" lon="14.8520467"><ele>189.0</ele><time>2026-05-05T09:42:47.173Z</time></trkpt><trkpt lat="37.6051067" lon="14.85194"><ele>189.0</ele><time>2026-05-05T09:42:48.173Z</time></trkpt><trkpt lat="37.605235" lon="14.85184"><ele>189.25</ele><time>2026-05-05T09:42:49.173Z</time></trkpt><trkpt lat="37.60536" lon="14.8517367"><ele>189.5</ele><time>2026-05-05T09:42:50.173Z</time></trkpt><trkpt lat="37.605485" lon="14.8516367"><ele>189.75</ele><time>2026-05-05T09:42:51.173Z</time></trkpt><trkpt lat="37.6056083" lon="14.85154"><ele>190.0</ele><time>2026-05-05T09:42:52.173Z</time></trkpt><trkpt lat="37.6057317" lon="14.85144"><ele>190.0</ele><time>2026-05-05T09:42:53.173Z</time></trkpt><trkpt lat="37.60586" lon="14.85134"><ele>190.0</ele><time>2026-05-05T09:42:54.173Z</time></trkpt><trkpt lat="37.6059733" lon="14.8512317"><ele>190.0</ele><time>2026-05-05T09:42:55.174Z</time></trkpt><trkpt lat="37.606085" lon="14.8511183"><ele>190.0</ele><time>2026-05-05T09:42:56.173Z</time></trkpt><trkpt lat="37.6061967" lon="14.8509933"><ele>191.0</ele><time>2026-05-05T09:42:57.173Z</time></trkpt><trkpt lat="37.60631" lon="14.85087"><ele>192.0</ele><time>2026-05-05T09:42:58.173Z</time></trkpt><trkpt lat="37.606425" lon="14.8507467"><ele>193.0</ele><time>2026-05-05T09:42:59.173Z</time></trkpt><trkpt lat="37.6065367" lon="14.8506167"><ele>193.0</ele><time>2026-05-05T09:43:00.173Z</time></trkpt><trkpt lat="37.6066467" lon="14.8504867"><ele>193.0</ele><time>2026-05-05T09:43:01.173Z</time></trkpt><trkpt lat="37.6067567" lon="14.8503583"><ele>193.0</ele><time>2026-05-05T09:43:02.173Z</time></trkpt><trkpt lat="37.606865" lon="14.8502283"><ele>192.33333333333331</ele><time>2026-05-05T09:43:03.173Z</time></trkpt><trkpt lat="37.6069767" lon="14.8501"><ele>191.66666666666666</ele><time>2026-05-05T09:43:04.174Z</time></trkpt><trkpt lat="37.6071" lon="14.8499883"><ele>191.0</ele><time>2026-05-05T09:43:05.173Z</time></trkpt><trkpt lat="37.6072283" lon="14.8498983"><ele>192.33333333333331</ele><time>2026-05-05T09:43:06.173Z</time></trkpt><trkpt lat="37.6073583" lon="14.8498183"><ele>193.66666666666666</ele><time>2026-05-05T09:43:07.173Z</time></trkpt><trkpt lat="37.6074983" lon="14.8497383"><ele>195.0</ele><time>2026-05-05T09:43:08.173Z</time></trkpt><trkpt lat="37.6076367" lon="14.8496567"><ele>195.0</ele><time>2026-05-05T09:43:09.174Z</time></trkpt><trkpt lat="37.6077783" lon="14.8495817"><ele>195.0</ele><time>2026-05-05T09:43:10.173Z</time></trkpt><trkpt lat="37.6079183" lon="14.849495"><ele>195.0</ele><time>2026-05-05T09:43:11.173Z</time></trkpt><trkpt lat="37.6080667" lon="14.84941"><ele>194.66666666666669</ele><time>2026-05-05T09:43:12.173Z</time></trkpt><trkpt lat="37.608225" lon="14.8493167"><ele>194.33333333333334</ele><time>2026-05-05T09:43:13.174Z</time></trkpt><trkpt lat="37.6083933" lon="14.84921"><ele>194.0</ele><time>2026-05-05T09:43:14.173Z</time></trkpt><trkpt lat="37.6085767" lon="14.8490967"><ele>195.33333333333334</ele><time>2026-05-05T09:43:15.174Z</time></trkpt><trkpt lat="37.60877" lon="14.848985"><ele>196.66666666666669</ele><time>2026-05-05T09:43:16.173Z</time></trkpt><trkpt lat="37.6089667" lon="14.848885"><ele>198.0</ele><time>2026-05-05T09:43:17.173Z</time></trkpt><trkpt lat="37.609165" lon="14.8487817"><ele>198.0</ele><time>2026-05-05T09:43:18.173Z</time></trkpt><trkpt lat="37.6093583" lon="14.84868"><ele>198.0</ele><time>2026-05-05T09:43:19.173Z</time></trkpt><trkpt lat="37.6095433" lon="14.8485733"><ele>198.0</ele><time>2026-05-05T09:43:20.174Z</time></trkpt><trkpt lat="37.609725" lon="14.8484733"><ele>198.66666666666669</ele><time>2026-05-05T09:43:21.173Z</time></trkpt><trkpt lat="37.6099033" lon="14.8483717"><ele>199.33333333333334</ele><time>2026-05-05T09:43:22.173Z</time></trkpt><trkpt lat="37.61008" lon="14.8482733"><ele>200.0</ele><time>2026-05-05T09:43:23.173Z</time></trkpt><trkpt lat="37.6102483" lon="14.8481783"><ele>201.0</ele><time>2026-05-05T09:43:24.174Z</time></trkpt><trkpt lat="37.6104133" lon="14.848085"><ele>202.0</ele><time>2026-05-05T09:43:25.174Z</time></trkpt><trkpt lat="37.6105767" lon="14.84799"><ele>203.0</ele><time>2026-05-05T09:43:26.173Z</time></trkpt><trkpt lat="37.6107433" lon="14.8479"><ele>203.0</ele><time>2026-05-05T09:43:27.173Z</time></trkpt><trkpt lat="37.6109033" lon="14.84781"><ele>203.0</ele><time>2026-05-05T09:43:28.173Z</time></trkpt><trkpt lat="37.61106" lon="14.8477183"><ele>203.0</ele><time>2026-05-05T09:43:29.173Z</time></trkpt><trkpt lat="37.6112183" lon="14.8476233"><ele>204.33333333333334</ele><time>2026-05-05T09:43:30.173Z</time></trkpt><trkpt lat="37.6113667" lon="14.847525"><ele>205.66666666666669</ele><time>2026-05-05T09:43:31.173Z</time></trkpt><trkpt lat="37.6115117" lon="14.8474133"><ele>207.0</ele><time>2026-05-05T09:43:32.174Z</time></trkpt><trkpt lat="37.6116467" lon="14.847295"><ele>207.0</ele><time>2026-05-05T09:43:33.173Z</time></trkpt><trkpt lat="37.6117783" lon="14.8471667"><ele>207.0</ele><time>2026-05-05T09:43:34.174Z</time></trkpt><trkpt lat="37.6119133" lon="14.8470367"><ele>207.0</ele><time>2026-05-05T09:43:35.173Z</time></trkpt><trkpt lat="37.612045" lon="14.8469017"><ele>207.66666666666669</ele><time>2026-05-05T09:43:36.173Z</time></trkpt><trkpt lat="37.6121817" lon="14.8467667"><ele>208.33333333333334</ele><time>2026-05-05T09:43:37.174Z</time></trkpt><trkpt lat="37.6123117" lon="14.8466283"><ele>209.0</ele><time>2026-05-05T09:43:38.173Z</time></trkpt><trkpt lat="37.6124483" lon="14.8464867"><ele>209.0</ele><time>2026-05-05T09:43:39.173Z</time></trkpt><trkpt lat="37.6125833" lon="14.8463433"><ele>209.0</ele><time>2026-05-05T09:43:40.174Z</time></trkpt><trkpt lat="37.6127183" lon="14.8461967"><ele>209.0</ele><time>2026-05-05T09:43:41.174Z</time></trkpt><trkpt lat="37.6128583" lon="14.846055"><ele>210.0</ele><time>2026-05-05T09:43:42.173Z</time></trkpt><trkpt lat="37.6129983" lon="14.84591"><ele>211.0</ele><time>2026-05-05T09:43:43.173Z</time></trkpt><trkpt lat="37.6131417" lon="14.8457633"><ele>212.0</ele><time>2026-05-05T09:43:44.173Z</time></trkpt><trkpt lat="37.6132883" lon="14.8456133"><ele>212.0</ele><time>2026-05-05T09:43:45.173Z</time></trkpt><trkpt lat="37.6134317" lon="14.8454617"><ele>212.0</ele><time>2026-05-05T09:43:46.173Z</time></trkpt><trkpt lat="37.613575" lon="14.8453"><ele>212.0</ele><time>2026-05-05T09:43:47.174Z</time></trkpt><trkpt lat="37.6137167" lon="14.8451267"><ele>213.0</ele><time>2026-05-05T09:43:48.173Z</time></trkpt><trkpt lat="37.613855" lon="14.84495"><ele>214.0</ele><time>2026-05-05T09:43:49.173Z</time></trkpt><trkpt lat="37.61399" lon="14.8447633"><ele>215.0</ele><time>2026-05-05T09:43:50.173Z</time></trkpt><trkpt lat="37.61412" lon="14.8445667"><ele>215.0</ele><time>2026-05-05T09:43:51.173Z</time></trkpt><trkpt lat="37.6142533" lon="14.844365"><ele>215.0</ele><time>2026-05-05T09:43:52.173Z</time></trkpt><trkpt lat="37.6143817" lon="14.84416"><ele>215.0</ele><time>2026-05-05T09:43:53.173Z</time></trkpt><trkpt lat="37.6145117" lon="14.843955"><ele>216.0</ele><time>2026-05-05T09:43:54.173Z</time></trkpt><trkpt lat="37.6146483" lon="14.8437483"><ele>217.0</ele><time>2026-05-05T09:43:55.173Z</time></trkpt><trkpt lat="37.6147817" lon="14.8435467"><ele>218.0</ele><time>2026-05-05T09:43:56.174Z</time></trkpt><trkpt lat="37.614915" lon="14.8433417"><ele>218.0</ele><time>2026-05-05T09:43:57.173Z</time></trkpt><trkpt lat="37.6150483" lon="14.843135"><ele>218.0</ele><time>2026-05-05T09:43:58.171Z</time></trkpt><trkpt lat="37.61518" lon="14.8429283"><ele>218.0</ele><time>2026-05-05T09:43:59.173Z</time></trkpt><trkpt lat="37.6153117" lon="14.8427217"><ele>217.33333333333334</ele><time>2026-05-05T09:44:00.173Z</time></trkpt><trkpt lat="37.6154433" lon="14.842515"><ele>216.66666666666669</ele><time>2026-05-05T09:44:01.173Z</time></trkpt><trkpt lat="37.615575" lon="14.8423133"><ele>216.0</ele><time>2026-05-05T09:44:02.173Z</time></trkpt><trkpt lat="37.6157067" lon="14.8421083"><ele>216.0</ele><time>2026-05-05T09:44:03.173Z</time></trkpt><trkpt lat="37.6158383" lon="14.841905"><ele>216.0</ele><time>2026-05-05T09:44:04.173Z</time></trkpt><trkpt lat="37.6159733" lon="14.8417"><ele>216.0</ele><time>2026-05-05T09:44:05.173Z</time></trkpt><trkpt lat="37.6161083" lon="14.8414967"><ele>216.0</ele><time>2026-05-05T09:44:06.173Z</time></trkpt><trkpt lat="37.6162417" lon="14.8412983"><ele>216.0</ele><time>2026-05-05T09:44:07.173Z</time></trkpt><trkpt lat="37.6163683" lon="14.8411067"><ele>216.0</ele><time>2026-05-05T09:44:08.173Z</time></trkpt><trkpt lat="37.616485" lon="14.8409233"><ele>215.33333333333331</ele><time>2026-05-05T09:44:09.173Z</time></trkpt><trkpt lat="37.6166" lon="14.8407417"><ele>214.66666666666666</ele><time>2026-05-05T09:44:10.173Z</time></trkpt><trkpt lat="37.61671" lon="14.84057"><ele>214.0</ele><time>2026-05-05T09:44:11.173Z</time></trkpt><trkpt lat="37.6168183" lon="14.8404"><ele>214.0</ele><time>2026-05-05T09:44:12.174Z</time></trkpt><trkpt lat="37.616925" lon="14.8402367"><ele>214.0</ele><time>2026-05-05T09:44:13.174Z</time></trkpt><trkpt lat="37.6170283" lon="14.840075"><ele>214.0</ele><time>2026-05-05T09:44:14.173Z</time></trkpt><trkpt lat="37.6171283" lon="14.8399133"><ele>213.33333333333331</ele><time>2026-05-05T09:44:15.174Z</time></trkpt><trkpt lat="37.6172283" lon="14.83976"><ele>212.66666666666669</ele><time>2026-05-05T09:44:16.173Z</time></trkpt><trkpt lat="37.6173283" lon="14.839615"><ele>212.0</ele><time>2026-05-05T09:44:17.174Z</time></trkpt><trkpt lat="37.6174233" lon="14.8394783"><ele>212.0</ele><time>2026-05-05T09:44:18.173Z</time></trkpt><trkpt lat="37.6175067" lon="14.8393583"><ele>212.0</ele><time>2026-05-05T09:44:19.173Z</time></trkpt><trkpt lat="37.6175783" lon="14.8392567"><ele>212.0</ele><time>2026-05-05T09:44:20.173Z</time></trkpt><trkpt lat="37.617635" lon="14.83917"><ele>212.0</ele><time>2026-05-05T09:44:21.173Z</time></trkpt><trkpt lat="37.6176767" lon="14.8391017"><ele>212.0</ele><time>2026-05-05T09:44:22.173Z</time></trkpt><trkpt lat="37.6177217" lon="14.8390383"><ele>211.2</ele><time>2026-05-05T09:44:24.173Z</time></trkpt><trkpt lat="37.617785" lon="14.8389433"><ele>210.39999999999998</ele><time>2026-05-05T09:46:30.172Z</time></trkpt><trkpt lat="37.6178667" lon="14.8388383"><ele>209.60000000000002</ele><time>2026-05-05T09:46:32.172Z</time></trkpt><trkpt lat="37.6179233" lon="14.8387633"><ele>208.8</ele><time>2026-05-05T09:46:33.172Z</time></trkpt><trkpt lat="37.6180033" lon="14.8386867"><ele>208.0</ele><time>2026-05-05T09:46:34.172Z</time></trkpt><trkpt lat="37.618085" lon="14.8386117"><ele>208.0</ele><time>2026-05-05T09:46:35.172Z</time></trkpt><trkpt lat="37.618175" lon="14.8385267"><ele>208.0</ele><time>2026-05-05T09:46:36.172Z</time></trkpt><trkpt lat="37.6182783" lon="14.8384433"><ele>208.0</ele><time>2026-05-05T09:46:37.172Z</time></trkpt><trkpt lat="37.618395" lon="14.8383567"><ele>208.0</ele><time>2026-05-05T09:46:38.173Z</time></trkpt><trkpt lat="37.6185183" lon="14.83827"><ele>206.66666666666666</ele><time>2026-05-05T09:46:39.173Z</time></trkpt><trkpt lat="37.6186533" lon="14.83818"><ele>205.33333333333331</ele><time>2026-05-05T09:46:40.172Z</time></trkpt><trkpt lat="37.6187867" lon="14.83809"><ele>204.0</ele><time>2026-05-05T09:46:41.172Z</time></trkpt><trkpt lat="37.618925" lon="14.8379917"><ele>204.0</ele><time>2026-05-05T09:46:42.172Z</time></trkpt><trkpt lat="37.619075" lon="14.837885"><ele>204.0</ele><time>2026-05-05T09:46:43.172Z</time></trkpt><trkpt lat="37.6192317" lon="14.8377833"><ele>204.0</ele><time>2026-05-05T09:46:44.172Z</time></trkpt><trkpt lat="37.6193967" lon="14.8376717"><ele>202.66666666666669</ele><time>2026-05-05T09:46:45.173Z</time></trkpt><trkpt lat="37.6195683" lon="14.837555"><ele>201.33333333333334</ele><time>2026-05-05T09:46:46.172Z</time></trkpt><trkpt lat="37.6197433" lon="14.8374367"><ele>200.0</ele><time>2026-05-05T09:46:47.172Z</time></trkpt><trkpt lat="37.61992" lon="14.8373117"><ele>200.0</ele><time>2026-05-05T09:46:48.172Z</time></trkpt><trkpt lat="37.6201017" lon="14.83719"><ele>200.0</ele><time>2026-05-05T09:46:49.172Z</time></trkpt><trkpt lat="37.6202867" lon="14.8370617"><ele>200.0</ele><time>2026-05-05T09:46:50.172Z</time></trkpt><trkpt lat="37.62047" lon="14.8369367"><ele>200.66666666666669</ele><time>2026-05-05T09:46:51.173Z</time></trkpt><trkpt lat="37.6206483" lon="14.8368133"><ele>201.33333333333331</ele><time>2026-05-05T09:46:52.172Z</time></trkpt><trkpt lat="37.6208283" lon="14.8366883"><ele>202.0</ele><time>2026-05-05T09:46:53.172Z</time></trkpt><trkpt lat="37.6210017" lon="14.8365667"><ele>202.66666666666666</ele><time>2026-05-05T09:46:54.172Z</time></trkpt><trkpt lat="37.6211767" lon="14.83645"><ele>203.33333333333331</ele><time>2026-05-05T09:46:55.172Z</time></trkpt><trkpt lat="37.6213483" lon="14.8363383"><ele>204.0</ele><time>2026-05-05T09:46:56.172Z</time></trkpt><trkpt lat="37.621525" lon="14.8362367"><ele>204.0</ele><time>2026-05-05T09:46:57.172Z</time></trkpt><trkpt lat="37.6217033" lon="14.8361517"><ele>204.0</ele><time>2026-05-05T09:46:58.172Z</time></trkpt><trkpt lat="37.6218833" lon="14.8360817"><ele>204.0</ele><time>2026-05-05T09:46:59.172Z</time></trkpt><trkpt lat="37.6220667" lon="14.8360283"><ele>204.66666666666669</ele><time>2026-05-05T09:47:00.172Z</time></trkpt><trkpt lat="37.62225" lon="14.835975"><ele>205.33333333333334</ele><time>2026-05-05T09:47:01.172Z</time></trkpt><trkpt lat="37.6224367" lon="14.8359167"><ele>206.0</ele><time>2026-05-05T09:47:02.172Z</time></trkpt><trkpt lat="37.6226217" lon="14.8358583"><ele>206.0</ele><time>2026-05-05T09:47:03.172Z</time></trkpt><trkpt lat="37.6227983" lon="14.8358083"><ele>206.0</ele><time>2026-05-05T09:47:04.172Z</time></trkpt><trkpt lat="37.622975" lon="14.8357733"><ele>206.0</ele><time>2026-05-05T09:47:05.173Z</time></trkpt><trkpt lat="37.623155" lon="14.8357583"><ele>206.33333333333334</ele><time>2026-05-05T09:47:06.172Z</time></trkpt><trkpt lat="37.6233383" lon="14.8357567"><ele>206.66666666666669</ele><time>2026-05-05T09:47:07.172Z</time></trkpt><trkpt lat="37.6235133" lon="14.8357467"><ele>207.0</ele><time>2026-05-05T09:47:08.172Z</time></trkpt><trkpt lat="37.623695" lon="14.835705"><ele>207.33333333333331</ele><time>2026-05-05T09:47:09.172Z</time></trkpt><trkpt lat="37.6238683" lon="14.83564"><ele>207.66666666666666</ele><time>2026-05-05T09:47:10.172Z</time></trkpt><trkpt lat="37.6240317" lon="14.8355517"><ele>208.0</ele><time>2026-05-05T09:47:11.172Z</time></trkpt><trkpt lat="37.6241967" lon="14.835445"><ele>208.0</ele><time>2026-05-05T09:47:12.172Z</time></trkpt><trkpt lat="37.6243633" lon="14.8353367"><ele>208.0</ele><time>2026-05-05T09:47:13.172Z</time></trkpt><trkpt lat="37.6245267" lon="14.8352317"><ele>208.0</ele><time>2026-05-05T09:47:14.173Z</time></trkpt><trkpt lat="37.6246917" lon="14.835125"><ele>208.0</ele><time>2026-05-05T09:47:15.172Z</time></trkpt><trkpt lat="37.624855" lon="14.83502"><ele>208.0</ele><time>2026-05-05T09:47:16.172Z</time></trkpt><trkpt lat="37.6250183" lon="14.8349167"><ele>208.0</ele><time>2026-05-05T09:47:17.172Z</time></trkpt><trkpt lat="37.62518" lon="14.83481"><ele>208.33333333333331</ele><time>2026-05-05T09:47:18.172Z</time></trkpt><trkpt lat="37.6253417" lon="14.8347033"><ele>208.66666666666669</ele><time>2026-05-05T09:47:19.172Z</time></trkpt><trkpt lat="37.6255067" lon="14.8345967"><ele>209.0</ele><time>2026-05-05T09:47:20.172Z</time></trkpt><trkpt lat="37.62567" lon="14.8344867"><ele>209.0</ele><time>2026-05-05T09:47:21.172Z</time></trkpt><trkpt lat="37.6258367" lon="14.8343817"><ele>209.0</ele><time>2026-05-05T09:47:22.172Z</time></trkpt><trkpt lat="37.6260017" lon="14.834275"><ele>209.0</ele><time>2026-05-05T09:47:23.172Z</time></trkpt><trkpt lat="37.6261683" lon="14.83417"><ele>209.0</ele><time>2026-05-05T09:47:24.172Z</time></trkpt><trkpt lat="37.6263383" lon="14.8340617"><ele>209.0</ele><time>2026-05-05T09:47:25.172Z</time></trkpt><trkpt lat="37.6265133" lon="14.83395"><ele>209.0</ele><time>2026-05-05T09:47:26.172Z</time></trkpt><trkpt lat="37.6266833" lon="14.8338433"><ele>209.0</ele><time>2026-05-05T09:47:27.172Z</time></trkpt><trkpt lat="37.626855" lon="14.83373"><ele>209.0</ele><time>2026-05-05T09:47:28.172Z</time></trkpt><trkpt lat="37.6270267" lon="14.8336217"><ele>209.0</ele><time>2026-05-05T09:47:29.172Z</time></trkpt><trkpt lat="37.6271983" lon="14.8335133"><ele>209.66666666666669</ele><time>2026-05-05T09:47:30.172Z</time></trkpt><trkpt lat="37.6273667" lon="14.8334033"><ele>210.33333333333331</ele><time>2026-05-05T09:47:31.172Z</time></trkpt><trkpt lat="37.627535" lon="14.833295"><ele>211.0</ele><time>2026-05-05T09:47:32.172Z</time></trkpt><trkpt lat="37.627705" lon="14.833185"><ele>211.33333333333331</ele><time>2026-05-05T09:47:33.173Z</time></trkpt><trkpt lat="37.62788" lon="14.8330733"><ele>211.66666666666669</ele><time>2026-05-05T09:47:34.172Z</time></trkpt><trkpt lat="37.6280567" lon="14.83296"><ele>212.0</ele><time>2026-05-05T09:47:35.172Z</time></trkpt><trkpt lat="37.62823" lon="14.8328567"><ele>212.0</ele><time>2026-05-05T09:47:36.172Z</time></trkpt><trkpt lat="37.628405" lon="14.8327533"><ele>212.0</ele><time>2026-05-05T09:47:37.172Z</time></trkpt><trkpt lat="37.6285833" lon="14.832645"><ele>212.0</ele><time>2026-05-05T09:47:38.172Z</time></trkpt><trkpt lat="37.6287617" lon="14.8325367"><ele>212.66666666666669</ele><time>2026-05-05T09:47:39.172Z</time></trkpt><trkpt lat="37.6289417" lon="14.832425"><ele>213.33333333333331</ele><time>2026-05-05T09:47:40.172Z</time></trkpt><trkpt lat="37.62912" lon="14.8323167"><ele>214.0</ele><time>2026-05-05T09:47:41.172Z</time></trkpt><trkpt lat="37.6292983" lon="14.8322067"><ele>214.0</ele><time>2026-05-05T09:47:42.172Z</time></trkpt><trkpt lat="37.629475" lon="14.8320983"><ele>214.0</ele><time>2026-05-05T09:47:43.172Z</time></trkpt><trkpt lat="37.6296533" lon="14.831995"><ele>214.0</ele><time>2026-05-05T09:47:44.172Z</time></trkpt><trkpt lat="37.6298333" lon="14.8318867"><ele>214.33333333333331</ele><time>2026-05-05T09:47:45.172Z</time></trkpt><trkpt lat="37.6300117" lon="14.831775"><ele>214.66666666666669</ele><time>2026-05-05T09:47:46.172Z</time></trkpt><trkpt lat="37.63019" lon="14.831665"><ele>215.0</ele><time>2026-05-05T09:47:47.172Z</time></trkpt><trkpt lat="37.6303667" lon="14.8315583"><ele>215.0</ele><time>2026-05-05T09:47:48.172Z</time></trkpt><trkpt lat="37.6305383" lon="14.83146"><ele>215.0</ele><time>2026-05-05T09:47:49.172Z</time></trkpt><trkpt lat="37.6307133" lon="14.8313483"><ele>215.0</ele><time>2026-05-05T09:47:50.172Z</time></trkpt><trkpt lat="37.6308917" lon="14.83124"><ele>215.0</ele><time>2026-05-05T09:47:51.172Z</time></trkpt><trkpt lat="37.6310667" lon="14.8311367"><ele>215.0</ele><time>2026-05-05T09:47:52.172Z</time></trkpt><trkpt lat="37.6312467" lon="14.8310383"><ele>215.0</ele><time>2026-05-05T09:47:53.173Z</time></trkpt><trkpt lat="37.631425" lon="14.8309483"><ele>215.0</ele><time>2026-05-05T09:47:54.172Z</time></trkpt><trkpt lat="37.6316083" lon="14.8308733"><ele>215.0</ele><time>2026-05-05T09:47:55.172Z</time></trkpt><trkpt lat="37.6317883" lon="14.8308"><ele>215.0</ele><time>2026-05-05T09:47:56.172Z</time></trkpt><trkpt lat="37.6319733" lon="14.83073"><ele>215.33333333333334</ele><time>2026-05-05T09:47:57.172Z</time></trkpt><trkpt lat="37.6321567" lon="14.8306633"><ele>215.66666666666669</ele><time>2026-05-05T09:47:58.172Z</time></trkpt><trkpt lat="37.6323367" lon="14.8306033"><ele>216.0</ele><time>2026-05-05T09:47:59.173Z</time></trkpt><trkpt lat="37.63252" lon="14.830535"><ele>216.0</ele><time>2026-05-05T09:48:00.172Z</time></trkpt><trkpt lat="37.6327067" lon="14.8304717"><ele>216.0</ele><time>2026-05-05T09:48:01.172Z</time></trkpt><trkpt lat="37.6328883" lon="14.8304217"><ele>216.0</ele><time>2026-05-05T09:48:02.172Z</time></trkpt><trkpt lat="37.6330717" lon="14.8303833"><ele>215.33333333333331</ele><time>2026-05-05T09:48:03.172Z</time></trkpt><trkpt lat="37.6332433" lon="14.8303567"><ele>214.66666666666666</ele><time>2026-05-05T09:48:04.172Z</time></trkpt><trkpt lat="37.6334167" lon="14.83033"><ele>214.0</ele><time>2026-05-05T09:48:05.172Z</time></trkpt><trkpt lat="37.6335967" lon="14.8302917"><ele>214.0</ele><time>2026-05-05T09:48:06.172Z</time></trkpt><trkpt lat="37.633775" lon="14.8302233"><ele>214.0</ele><time>2026-05-05T09:48:07.172Z</time></trkpt><trkpt lat="37.6339433" lon="14.8301333"><ele>214.0</ele><time>2026-05-05T09:48:08.172Z</time></trkpt><trkpt lat="37.6341017" lon="14.8300233"><ele>212.66666666666666</ele><time>2026-05-05T09:48:09.172Z</time></trkpt><trkpt lat="37.6342633" lon="14.8299033"><ele>211.33333333333331</ele><time>2026-05-05T09:48:10.172Z</time></trkpt><trkpt lat="37.6344267" lon="14.8297817"><ele>210.0</ele><time>2026-05-05T09:48:11.172Z</time></trkpt><trkpt lat="37.63459" lon="14.8296667"><ele>209.66666666666669</ele><time>2026-05-05T09:48:12.172Z</time></trkpt><trkpt lat="37.6347467" lon="14.82954"><ele>209.33333333333334</ele><time>2026-05-05T09:48:13.172Z</time></trkpt><trkpt lat="37.63489" lon="14.829395"><ele>209.0</ele><time>2026-05-05T09:48:14.172Z</time></trkpt><trkpt lat="37.6350167" lon="14.8292267"><ele>210.33333333333334</ele><time>2026-05-05T09:48:15.172Z</time></trkpt><trkpt lat="37.635125" lon="14.8290467"><ele>211.66666666666669</ele><time>2026-05-05T09:48:16.173Z</time></trkpt><trkpt lat="37.6352317" lon="14.828865"><ele>213.0</ele><time>2026-05-05T09:48:17.172Z</time></trkpt><trkpt lat="37.63534" lon="14.8286917"><ele>213.0</ele><time>2026-05-05T09:48:18.172Z</time></trkpt><trkpt lat="37.6354567" lon="14.8285183"><ele>213.0</ele><time>2026-05-05T09:48:19.172Z</time></trkpt><trkpt lat="37.635585" lon="14.8283583"><ele>213.0</ele><time>2026-05-05T09:48:20.172Z</time></trkpt><trkpt lat="37.6357317" lon="14.828225"><ele>211.0</ele><time>2026-05-05T09:48:21.172Z</time></trkpt><trkpt lat="37.63589" lon="14.8281117"><ele>209.0</ele><time>2026-05-05T09:48:22.172Z</time></trkpt><trkpt lat="37.6360533" lon="14.828015"><ele>207.0</ele><time>2026-05-05T09:48:23.172Z</time></trkpt><trkpt lat="37.63621" lon="14.8279383"><ele>211.0</ele><time>2026-05-05T09:48:24.172Z</time></trkpt><trkpt lat="37.63638" lon="14.8279"><ele>215.0</ele><time>2026-05-05T09:48:25.172Z</time></trkpt><trkpt lat="37.6365583" lon="14.82788"><ele>219.0</ele><time>2026-05-05T09:48:26.172Z</time></trkpt><trkpt lat="37.6367367" lon="14.827885"><ele>219.0</ele><time>2026-05-05T09:48:27.173Z</time></trkpt><trkpt lat="37.6369167" lon="14.82791"><ele>219.0</ele><time>2026-05-05T09:48:28.172Z</time></trkpt><trkpt lat="37.6370983" lon="14.827915"><ele>219.0</ele><time>2026-05-05T09:48:29.173Z</time></trkpt><trkpt lat="37.6372833" lon="14.82789"><ele>221.33333333333331</ele><time>2026-05-05T09:48:30.172Z</time></trkpt><trkpt lat="37.6374667" lon="14.8278417"><ele>223.66666666666666</ele><time>2026-05-05T09:48:31.172Z</time></trkpt><trkpt lat="37.637655" lon="14.8277883"><ele>226.0</ele><time>2026-05-05T09:48:32.172Z</time></trkpt><trkpt lat="37.6378283" lon="14.82773"><ele>226.33333333333331</ele><time>2026-05-05T09:48:33.172Z</time></trkpt><trkpt lat="37.6379933" lon="14.82769"><ele>226.66666666666669</ele><time>2026-05-05T09:48:34.172Z</time></trkpt><trkpt lat="37.638145" lon="14.827655"><ele>227.0</ele><time>2026-05-05T09:48:35.172Z</time></trkpt><trkpt lat="37.638295" lon="14.8276283"><ele>227.0</ele><time>2026-05-05T09:48:36.172Z</time></trkpt><trkpt lat="37.6384483" lon="14.8276367"><ele>227.0</ele><time>2026-05-05T09:48:37.172Z</time></trkpt><trkpt lat="37.6385933" lon="14.8276767"><ele>227.0</ele><time>2026-05-05T09:48:38.172Z</time></trkpt><trkpt lat="37.63873" lon="14.8277333"><ele>227.0</ele><time>2026-05-05T09:48:39.172Z</time></trkpt><trkpt lat="37.6388533" lon="14.8278133"><ele>225.5</ele><time>2026-05-05T09:48:40.173Z</time></trkpt><trkpt lat="37.638975" lon="14.8278817"><ele>224.0</ele><time>2026-05-05T09:48:41.173Z</time></trkpt><trkpt lat="37.6391017" lon="14.8279283"><ele>222.5</ele><time>2026-05-05T09:48:42.172Z</time></trkpt><trkpt lat="37.6392217" lon="14.8279483"><ele>221.0</ele><time>2026-05-05T09:48:43.172Z</time></trkpt><trkpt lat="37.6393467" lon="14.82794"><ele>220.0</ele><time>2026-05-05T09:48:44.172Z</time></trkpt><trkpt lat="37.63947" lon="14.8279017"><ele>219.0</ele><time>2026-05-05T09:48:45.172Z</time></trkpt><trkpt lat="37.6395883" lon="14.82784"><ele>218.0</ele><time>2026-05-05T09:48:46.172Z</time></trkpt><trkpt lat="37.6397067" lon="14.8277567"><ele>217.0</ele><time>2026-05-05T09:48:47.172Z</time></trkpt><trkpt lat="37.6398167" lon="14.8276567"><ele>215.75</ele><time>2026-05-05T09:48:48.172Z</time></trkpt><trkpt lat="37.6399167" lon="14.82754"><ele>214.5</ele><time>2026-05-05T09:48:49.172Z</time></trkpt><trkpt lat="37.6399933" lon="14.8274017"><ele>213.25</ele><time>2026-05-05T09:48:50.172Z</time></trkpt><trkpt lat="37.64005" lon="14.8272317"><ele>212.0</ele><time>2026-05-05T09:48:51.172Z</time></trkpt><trkpt lat="37.6400867" lon="14.8270617"><ele>212.0</ele><time>2026-05-05T09:48:52.172Z</time></trkpt><trkpt lat="37.64011" lon="14.8268883"><ele>212.0</ele><time>2026-05-05T09:48:53.172Z</time></trkpt><trkpt lat="37.6401183" lon="14.8267083"><ele>212.0</ele><time>2026-05-05T09:48:54.172Z</time></trkpt><trkpt lat="37.6401217" lon="14.8265417"><ele>212.0</ele><time>2026-05-05T09:48:55.172Z</time></trkpt><trkpt lat="37.6401267" lon="14.8263767"><ele>211.25</ele><time>2026-05-05T09:48:56.172Z</time></trkpt><trkpt lat="37.6401333" lon="14.826225"><ele>210.5</ele><time>2026-05-05T09:48:57.172Z</time></trkpt><trkpt lat="37.6401367" lon="14.8260783"><ele>209.75</ele><time>2026-05-05T09:48:58.172Z</time></trkpt><trkpt lat="37.6401417" lon="14.825925"><ele>209.0</ele><time>2026-05-05T09:48:59.172Z</time></trkpt><trkpt lat="37.640145" lon="14.8257717"><ele>208.75</ele><time>2026-05-05T09:49:00.172Z</time></trkpt><trkpt lat="37.6401517" lon="14.825605"><ele>208.5</ele><time>2026-05-05T09:49:01.172Z</time></trkpt><trkpt lat="37.6401583" lon="14.825435"><ele>208.25</ele><time>2026-05-05T09:49:02.172Z</time></trkpt><trkpt lat="37.640165" lon="14.8252733"><ele>208.0</ele><time>2026-05-05T09:49:03.172Z</time></trkpt><trkpt lat="37.6401633" lon="14.8251083"><ele>208.0</ele><time>2026-05-05T09:49:04.172Z</time></trkpt><trkpt lat="37.64017" lon="14.8249483"><ele>208.0</ele><time>2026-05-05T09:49:05.172Z</time></trkpt><trkpt lat="37.64017" lon="14.8247883"><ele>208.0</ele><time>2026-05-05T09:49:06.172Z</time></trkpt><trkpt lat="37.6401717" lon="14.8246233"><ele>208.0</ele><time>2026-05-05T09:49:07.173Z</time></trkpt><trkpt lat="37.6401783" lon="14.824455"><ele>207.25</ele><time>2026-05-05T09:49:08.172Z</time></trkpt><trkpt lat="37.6401817" lon="14.8242783"><ele>206.5</ele><time>2026-05-05T09:49:09.172Z</time></trkpt><trkpt lat="37.6401817" lon="14.8240983"><ele>205.75</ele><time>2026-05-05T09:49:10.172Z</time></trkpt><trkpt lat="37.640185" lon="14.8239217"><ele>205.0</ele><time>2026-05-05T09:49:11.172Z</time></trkpt><trkpt lat="37.6401933" lon="14.82373"><ele>205.0</ele><time>2026-05-05T09:49:12.172Z</time></trkpt><trkpt lat="37.64021" lon="14.823535"><ele>205.0</ele><time>2026-05-05T09:49:13.172Z</time></trkpt><trkpt lat="37.640235" lon="14.8233317"><ele>205.0</ele><time>2026-05-05T09:49:14.173Z</time></trkpt><trkpt lat="37.64027" lon="14.82312"><ele>206.66666666666666</ele><time>2026-05-05T09:49:15.172Z</time></trkpt><trkpt lat="37.64032" lon="14.8229067"><ele>208.33333333333331</ele><time>2026-05-05T09:49:16.172Z</time></trkpt><trkpt lat="37.6403817" lon="14.8226967"><ele>210.0</ele><time>2026-05-05T09:49:17.172Z</time></trkpt><trkpt lat="37.6404417" lon="14.8224767"><ele>210.0</ele><time>2026-05-05T09:49:18.173Z</time></trkpt><trkpt lat="37.64049" lon="14.82226"><ele>210.0</ele><time>2026-05-05T09:49:19.172Z</time></trkpt><trkpt lat="37.640545" lon="14.82204"><ele>210.0</ele><time>2026-05-05T09:49:20.172Z</time></trkpt><trkpt lat="37.6406" lon="14.8218183"><ele>209.33333333333331</ele><time>2026-05-05T09:49:21.172Z</time></trkpt><trkpt lat="37.6406533" lon="14.8215967"><ele>208.66666666666666</ele><time>2026-05-05T09:49:22.172Z</time></trkpt><trkpt lat="37.6407133" lon="14.8213783"><ele>208.0</ele><time>2026-05-05T09:49:23.172Z</time></trkpt><trkpt lat="37.6407683" lon="14.8211567"><ele>207.0</ele><time>2026-05-05T09:49:24.172Z</time></trkpt><trkpt lat="37.6408283" lon="14.820935"><ele>206.0</ele><time>2026-05-05T09:49:25.172Z</time></trkpt><trkpt lat="37.640885" lon="14.8207133"><ele>205.0</ele><time>2026-05-05T09:49:26.172Z</time></trkpt><trkpt lat="37.64094" lon="14.820495"><ele>205.0</ele><time>2026-05-05T09:49:27.173Z</time></trkpt><trkpt lat="37.640995" lon="14.8202817"><ele>205.0</ele><time>2026-05-05T09:49:28.172Z</time></trkpt><trkpt lat="37.6410667" lon="14.820075"><ele>205.0</ele><time>2026-05-05T09:49:29.172Z</time></trkpt><trkpt lat="37.6411533" lon="14.8198683"><ele>208.33333333333331</ele><time>2026-05-05T09:49:30.172Z</time></trkpt><trkpt lat="37.6412583" lon="14.8196683"><ele>211.66666666666669</ele><time>2026-05-05T09:49:31.172Z</time></trkpt><trkpt lat="37.6413833" lon="14.8194917"><ele>215.0</ele><time>2026-05-05T09:49:32.172Z</time></trkpt><trkpt lat="37.64153" lon="14.8193333"><ele>214.0</ele><time>2026-05-05T09:49:33.172Z</time></trkpt><trkpt lat="37.6416933" lon="14.81919"><ele>213.0</ele><time>2026-05-05T09:49:34.172Z</time></trkpt><trkpt lat="37.6418667" lon="14.8190667"><ele>212.0</ele><time>2026-05-05T09:49:35.172Z</time></trkpt><trkpt lat="37.642045" lon="14.81896"><ele>212.0</ele><time>2026-05-05T09:49:36.172Z</time></trkpt><trkpt lat="37.6422317" lon="14.8188633"><ele>212.0</ele><time>2026-05-05T09:49:37.172Z</time></trkpt><trkpt lat="37.6424183" lon="14.818765"><ele>212.0</ele><time>2026-05-05T09:49:38.172Z</time></trkpt><trkpt lat="37.6426117" lon="14.81866"><ele>212.0</ele><time>2026-05-05T09:49:39.172Z</time></trkpt><trkpt lat="37.6427967" lon="14.8185717"><ele>212.0</ele><time>2026-05-05T09:49:40.173Z</time></trkpt><trkpt lat="37.6429833" lon="14.8184833"><ele>212.0</ele><time>2026-05-05T09:49:41.172Z</time></trkpt><trkpt lat="37.6431633" lon="14.8184067"><ele>211.66666666666669</ele><time>2026-05-05T09:49:42.172Z</time></trkpt><trkpt lat="37.6433367" lon="14.8183283"><ele>211.33333333333331</ele><time>2026-05-05T09:49:43.172Z</time></trkpt><trkpt lat="37.643505" lon="14.818255"><ele>211.0</ele><time>2026-05-05T09:49:44.172Z</time></trkpt><trkpt lat="37.6436567" lon="14.818185"><ele>211.0</ele><time>2026-05-05T09:49:45.172Z</time></trkpt><trkpt lat="37.6438083" lon="14.8181183"><ele>211.0</ele><time>2026-05-05T09:49:46.172Z</time></trkpt><trkpt lat="37.6439467" lon="14.8180467"><ele>211.0</ele><time>2026-05-05T09:49:47.172Z</time></trkpt><trkpt lat="37.6440683" lon="14.81796"><ele>211.0</ele><time>2026-05-05T09:49:48.172Z</time></trkpt><trkpt lat="37.6441683" lon="14.817845"><ele>211.0</ele><time>2026-05-05T09:49:49.173Z</time></trkpt><trkpt lat="37.644245" lon="14.8176933"><ele>211.0</ele><time>2026-05-05T09:49:50.172Z</time></trkpt><trkpt lat="37.6442967" lon="14.8175167"><ele>211.0</ele><time>2026-05-05T09:49:51.172Z</time></trkpt><trkpt lat="37.6443267" lon="14.817325"><ele>210.33333333333331</ele><time>2026-05-05T09:49:52.173Z</time></trkpt><trkpt lat="37.6443333" lon="14.8171267"><ele>209.66666666666669</ele><time>2026-05-05T09:49:53.172Z</time></trkpt><trkpt lat="37.644335" lon="14.81694"><ele>209.0</ele><time>2026-05-05T09:49:54.172Z</time></trkpt><trkpt lat="37.6443583" lon="14.8167517"><ele>206.33333333333334</ele><time>2026-05-05T09:49:55.172Z</time></trkpt><trkpt lat="37.6444083" lon="14.8165633"><ele>203.66666666666669</ele><time>2026-05-05T09:49:56.173Z</time></trkpt><trkpt lat="37.644485" lon="14.81639"><ele>201.0</ele><time>2026-05-05T09:49:57.173Z</time></trkpt><trkpt lat="37.64459" lon="14.8162267"><ele>205.33333333333331</ele><time>2026-05-05T09:49:58.172Z</time></trkpt><trkpt lat="37.644715" lon="14.81608"><ele>209.66666666666666</ele><time>2026-05-05T09:49:59.172Z</time></trkpt><trkpt lat="37.6448467" lon="14.8159383"><ele>214.0</ele><time>2026-05-05T09:50:00.173Z</time></trkpt><trkpt lat="37.644975" lon="14.8157883"><ele>214.0</ele><time>2026-05-05T09:50:01.173Z</time></trkpt><trkpt lat="37.6451" lon="14.81563"><ele>214.0</ele><time>2026-05-05T09:50:02.172Z</time></trkpt><trkpt lat="37.645215" lon="14.8154617"><ele>214.0</ele><time>2026-05-05T09:50:03.172Z</time></trkpt><trkpt lat="37.6453233" lon="14.8152867"><ele>216.33333333333331</ele><time>2026-05-05T09:50:04.172Z</time></trkpt><trkpt lat="37.6454233" lon="14.8151033"><ele>218.66666666666669</ele><time>2026-05-05T09:50:05.172Z</time></trkpt><trkpt lat="37.6455133" lon="14.8149033"><ele>221.0</ele><time>2026-05-05T09:50:06.172Z</time></trkpt><trkpt lat="37.6455983" lon="14.814705"><ele>221.0</ele><time>2026-05-05T09:50:07.172Z</time></trkpt><trkpt lat="37.6456833" lon="14.8145083"><ele>221.0</ele><time>2026-05-05T09:50:08.172Z</time></trkpt><trkpt lat="37.6457583" lon="14.8143017"><ele>221.0</ele><time>2026-05-05T09:50:09.172Z</time></trkpt><trkpt lat="37.6458217" lon="14.814075"><ele>219.33333333333334</ele><time>2026-05-05T09:50:10.172Z</time></trkpt><trkpt lat="37.6458633" lon="14.8138417"><ele>217.66666666666669</ele><time>2026-05-05T09:50:11.172Z</time></trkpt><trkpt lat="37.6458833" lon="14.8136117"><ele>216.0</ele><time>2026-05-05T09:50:12.172Z</time></trkpt><trkpt lat="37.6458867" lon="14.8133733"><ele>216.0</ele><time>2026-05-05T09:50:13.172Z</time></trkpt><trkpt lat="37.645895" lon="14.8131333"><ele>216.0</ele><time>2026-05-05T09:50:14.172Z</time></trkpt><trkpt lat="37.6459183" lon="14.812905"><ele>216.0</ele><time>2026-05-05T09:50:15.172Z</time></trkpt><trkpt lat="37.6459517" lon="14.8126717"><ele>215.0</ele><time>2026-05-05T09:50:16.172Z</time></trkpt><trkpt lat="37.646005" lon="14.812435"><ele>214.0</ele><time>2026-05-05T09:50:17.172Z</time></trkpt><trkpt lat="37.64608" lon="14.8122033"><ele>213.0</ele><time>2026-05-05T09:50:18.172Z</time></trkpt><trkpt lat="37.6461767" lon="14.81198"><ele>215.66666666666669</ele><time>2026-05-05T09:50:19.172Z</time></trkpt><trkpt lat="37.6462783" lon="14.8117617"><ele>218.33333333333334</ele><time>2026-05-05T09:50:20.172Z</time></trkpt><trkpt lat="37.6463883" lon="14.8115417"><ele>221.0</ele><time>2026-05-05T09:50:21.173Z</time></trkpt><trkpt lat="37.6464967" lon="14.8113217"><ele>221.0</ele><time>2026-05-05T09:50:22.172Z</time></trkpt><trkpt lat="37.646605" lon="14.8111"><ele>221.0</ele><time>2026-05-05T09:50:23.172Z</time></trkpt><trkpt lat="37.6467167" lon="14.8108817"><ele>221.0</ele><time>2026-05-05T09:50:24.173Z</time></trkpt><trkpt lat="37.64683" lon="14.8106667"><ele>221.0</ele><time>2026-05-05T09:50:25.172Z</time></trkpt><trkpt lat="37.6469367" lon="14.8104467"><ele>221.0</ele><time>2026-05-05T09:50:26.173Z</time></trkpt><trkpt lat="37.6470483" lon="14.8102283"><ele>221.0</ele><time>2026-05-05T09:50:27.172Z</time></trkpt><trkpt lat="37.64716" lon="14.8100083"><ele>221.0</ele><time>2026-05-05T09:50:28.172Z</time></trkpt><trkpt lat="37.6472683" lon="14.8097867"><ele>221.0</ele><time>2026-05-05T09:50:29.172Z</time></trkpt><trkpt lat="37.6473783" lon="14.8095667"><ele>221.0</ele><time>2026-05-05T09:50:30.172Z</time></trkpt><trkpt lat="37.647485" lon="14.80935"><ele>220.33333333333334</ele><time>2026-05-05T09:50:31.172Z</time></trkpt><trkpt lat="37.6475883" lon="14.80913"><ele>219.66666666666669</ele><time>2026-05-05T09:50:32.172Z</time></trkpt><trkpt lat="37.6476983" lon="14.8089083"><ele>219.0</ele><time>2026-05-05T09:50:33.172Z</time></trkpt><trkpt lat="37.6477983" lon="14.8086867"><ele>221.33333333333331</ele><time>2026-05-05T09:50:34.172Z</time></trkpt><trkpt lat="37.6479067" lon="14.80846"><ele>223.66666666666666</ele><time>2026-05-05T09:50:35.172Z</time></trkpt><trkpt lat="37.6480217" lon="14.8082333"><ele>226.0</ele><time>2026-05-05T09:50:36.172Z</time></trkpt><trkpt lat="37.6481317" lon="14.8080117"><ele>226.0</ele><time>2026-05-05T09:50:37.172Z</time></trkpt><trkpt lat="37.648245" lon="14.8077867"><ele>226.0</ele><time>2026-05-05T09:50:38.172Z</time></trkpt><trkpt lat="37.648355" lon="14.8075667"><ele>226.0</ele><time>2026-05-05T09:50:39.172Z</time></trkpt><trkpt lat="37.6484617" lon="14.8073417"><ele>225.33333333333331</ele><time>2026-05-05T09:50:40.172Z</time></trkpt><trkpt lat="37.648565" lon="14.8071167"><ele>224.66666666666669</ele><time>2026-05-05T09:50:41.172Z</time></trkpt><trkpt lat="37.64867" lon="14.8068867"><ele>224.0</ele><time>2026-05-05T09:50:42.172Z</time></trkpt><trkpt lat="37.6487783" lon="14.8066567"><ele>225.0</ele><time>2026-05-05T09:50:43.172Z</time></trkpt><trkpt lat="37.6488933" lon="14.80643"><ele>226.0</ele><time>2026-05-05T09:50:44.172Z</time></trkpt><trkpt lat="37.6490067" lon="14.8062"><ele>227.0</ele><time>2026-05-05T09:50:45.172Z</time></trkpt><trkpt lat="37.649115" lon="14.8059717"><ele>227.0</ele><time>2026-05-05T09:50:46.172Z</time></trkpt><trkpt lat="37.649225" lon="14.8057517"><ele>227.0</ele><time>2026-05-05T09:50:47.172Z</time></trkpt><trkpt lat="37.6493317" lon="14.8055317"><ele>227.0</ele><time>2026-05-05T09:50:48.172Z</time></trkpt><trkpt lat="37.6494383" lon="14.8053217"><ele>227.66666666666669</ele><time>2026-05-05T09:50:49.172Z</time></trkpt><trkpt lat="37.649555" lon="14.8051167"><ele>228.33333333333331</ele><time>2026-05-05T09:50:50.173Z</time></trkpt><trkpt lat="37.64968" lon="14.8049217"><ele>229.0</ele><time>2026-05-05T09:50:51.172Z</time></trkpt><trkpt lat="37.6498117" lon="14.804735"><ele>229.0</ele><time>2026-05-05T09:50:52.172Z</time></trkpt><trkpt lat="37.6499517" lon="14.8045567"><ele>229.0</ele><time>2026-05-05T09:50:53.172Z</time></trkpt><trkpt lat="37.6500917" lon="14.80438"><ele>229.0</ele><time>2026-05-05T09:50:54.172Z</time></trkpt><trkpt lat="37.6502233" lon="14.8042117"><ele>229.33333333333331</ele><time>2026-05-05T09:50:55.172Z</time></trkpt><trkpt lat="37.6503633" lon="14.8040367"><ele>229.66666666666669</ele><time>2026-05-05T09:50:56.172Z</time></trkpt><trkpt lat="37.650505" lon="14.80386"><ele>230.0</ele><time>2026-05-05T09:50:57.172Z</time></trkpt><trkpt lat="37.650645" lon="14.8036817"><ele>230.0</ele><time>2026-05-05T09:50:58.172Z</time></trkpt><trkpt lat="37.6507817" lon="14.8035033"><ele>230.0</ele><time>2026-05-05T09:50:59.172Z</time></trkpt><trkpt lat="37.650925" lon="14.8033217"><ele>230.0</ele><time>2026-05-05T09:51:00.172Z</time></trkpt><trkpt lat="37.6510733" lon="14.8031383"><ele>230.66666666666669</ele><time>2026-05-05T09:51:01.172Z</time></trkpt><trkpt lat="37.6512183" lon="14.8029583"><ele>231.33333333333331</ele><time>2026-05-05T09:51:02.172Z</time></trkpt><trkpt lat="37.6513633" lon="14.8027817"><ele>232.0</ele><time>2026-05-05T09:51:03.172Z</time></trkpt><trkpt lat="37.6515083" lon="14.8026"><ele>232.0</ele><time>2026-05-05T09:51:04.172Z</time></trkpt><trkpt lat="37.651655" lon="14.8024167"><ele>232.0</ele><time>2026-05-05T09:51:05.172Z</time></trkpt><trkpt lat="37.6518033" lon="14.802235"><ele>232.0</ele><time>2026-05-05T09:51:06.172Z</time></trkpt><trkpt lat="37.6519517" lon="14.80205"><ele>232.33333333333331</ele><time>2026-05-05T09:51:07.173Z</time></trkpt><trkpt lat="37.6520967" lon="14.80187"><ele>232.66666666666669</ele><time>2026-05-05T09:51:08.172Z</time></trkpt><trkpt lat="37.6522417" lon="14.8016867"><ele>233.0</ele><time>2026-05-05T09:51:09.172Z</time></trkpt><trkpt lat="37.6523867" lon="14.8015083"><ele>234.0</ele><time>2026-05-05T09:51:10.172Z</time></trkpt><trkpt lat="37.65253" lon="14.8013283"><ele>235.0</ele><time>2026-05-05T09:51:11.173Z</time></trkpt><trkpt lat="37.6526633" lon="14.8011583"><ele>236.0</ele><time>2026-05-05T09:51:12.172Z</time></trkpt><trkpt lat="37.652795" lon="14.8009883"><ele>236.0</ele><time>2026-05-05T09:51:13.172Z</time></trkpt><trkpt lat="37.6529283" lon="14.8008233"><ele>236.0</ele><time>2026-05-05T09:51:14.173Z</time></trkpt><trkpt lat="37.6530567" lon="14.8006583"><ele>236.0</ele><time>2026-05-05T09:51:15.173Z</time></trkpt><trkpt lat="37.6531817" lon="14.8005017"><ele>236.0</ele><time>2026-05-05T09:51:16.172Z</time></trkpt><trkpt lat="37.6532967" lon="14.80035"><ele>236.0</ele><time>2026-05-05T09:51:17.172Z</time></trkpt><trkpt lat="37.653415" lon="14.800205"><ele>236.0</ele><time>2026-05-05T09:51:18.173Z</time></trkpt><trkpt lat="37.6535267" lon="14.80006"><ele>235.5</ele><time>2026-05-05T09:51:19.172Z</time></trkpt><trkpt lat="37.6536317" lon="14.7999283"><ele>235.0</ele><time>2026-05-05T09:51:20.172Z</time></trkpt><trkpt lat="37.6537367" lon="14.7997967"><ele>234.5</ele><time>2026-05-05T09:51:21.173Z</time></trkpt><trkpt lat="37.6538383" lon="14.799675"><ele>234.0</ele><time>2026-05-05T09:51:22.172Z</time></trkpt><trkpt lat="37.6539317" lon="14.7995667"><ele>234.0</ele><time>2026-05-05T09:51:23.173Z</time></trkpt><trkpt lat="37.654015" lon="14.7994717"><ele>233.99999999999997</ele><time>2026-05-05T09:51:24.172Z</time></trkpt><trkpt lat="37.6540917" lon="14.7993983"><ele>233.99999999999997</ele><time>2026-05-05T09:51:25.172Z</time></trkpt><trkpt lat="37.654165" lon="14.7993283"><ele>234.0</ele><time>2026-05-05T09:51:26.173Z</time></trkpt><trkpt lat="37.65422" lon="14.7992683"><ele>234.0</ele><time>2026-05-05T09:51:27.172Z</time></trkpt><trkpt lat="37.6542767" lon="14.7991733"><ele>234.2</ele><time>2026-05-05T09:51:29.173Z</time></trkpt><trkpt lat="37.65427" lon="14.7990767"><ele>234.39999999999998</ele><time>2026-05-05T09:51:33.172Z</time></trkpt><trkpt lat="37.6542183" lon="14.7989417"><ele>234.6</ele><time>2026-05-05T09:51:35.172Z</time></trkpt><trkpt lat="37.654175" lon="14.7988417"><ele>234.8</ele><time>2026-05-05T09:51:36.172Z</time></trkpt><trkpt lat="37.6541267" lon="14.7987233"><ele>235.0</ele><time>2026-05-05T09:51:37.173Z</time></trkpt><trkpt lat="37.654095" lon="14.7985783"><ele>234.75</ele><time>2026-05-05T09:51:38.172Z</time></trkpt><trkpt lat="37.65409" lon="14.7984133"><ele>234.5</ele><time>2026-05-05T09:51:39.172Z</time></trkpt><trkpt lat="37.6541067" lon="14.7982467"><ele>234.25</ele><time>2026-05-05T09:51:40.172Z</time></trkpt><trkpt lat="37.6541417" lon="14.7980767"><ele>234.0</ele><time>2026-05-05T09:51:41.172Z</time></trkpt><trkpt lat="37.654195" lon="14.7978983"><ele>234.0</ele><time>2026-05-05T09:51:42.173Z</time></trkpt><trkpt lat="37.654255" lon="14.797715"><ele>234.0</ele><time>2026-05-05T09:51:43.172Z</time></trkpt><trkpt lat="37.6543083" lon="14.7975333"><ele>234.0</ele><time>2026-05-05T09:51:44.172Z</time></trkpt><trkpt lat="37.654355" lon="14.7973583"><ele>233.5</ele><time>2026-05-05T09:51:45.172Z</time></trkpt><trkpt lat="37.6544" lon="14.7971867"><ele>233.0</ele><time>2026-05-05T09:51:46.173Z</time></trkpt><trkpt lat="37.6544483" lon="14.7970217"><ele>232.5</ele><time>2026-05-05T09:51:47.172Z</time></trkpt><trkpt lat="37.6544967" lon="14.7968567"><ele>232.0</ele><time>2026-05-05T09:51:48.173Z</time></trkpt><trkpt lat="37.65454" lon="14.796705"><ele>232.0</ele><time>2026-05-05T09:51:49.172Z</time></trkpt><trkpt lat="37.65459" lon="14.7965617"><ele>232.0</ele><time>2026-05-05T09:51:50.172Z</time></trkpt><trkpt lat="37.654635" lon="14.7964167"><ele>232.0</ele><time>2026-05-05T09:51:51.172Z</time></trkpt><trkpt lat="37.6546833" lon="14.7962717"><ele>232.0</ele><time>2026-05-05T09:51:52.172Z</time></trkpt><trkpt lat="37.6547333" lon="14.7961133"><ele>231.25</ele><time>2026-05-05T09:51:53.172Z</time></trkpt><trkpt lat="37.6547833" lon="14.7959533"><ele>230.5</ele><time>2026-05-05T09:51:54.172Z</time></trkpt><trkpt lat="37.6548183" lon="14.795785"><ele>229.75</ele><time>2026-05-05T09:51:55.173Z</time></trkpt><trkpt lat="37.65484" lon="14.7956183"><ele>229.0</ele><time>2026-05-05T09:51:56.171Z</time></trkpt><trkpt lat="37.654865" lon="14.795455"><ele>229.0</ele><time>2026-05-05T09:51:57.171Z</time></trkpt><trkpt lat="37.6548933" lon="14.795295"><ele>229.0</ele><time>2026-05-05T09:51:58.171Z</time></trkpt><trkpt lat="37.65492" lon="14.79514"><ele>229.0</ele><time>2026-05-05T09:51:59.171Z</time></trkpt><trkpt lat="37.65495" lon="14.7950017"><ele>229.0</ele><time>2026-05-05T09:52:00.171Z</time></trkpt><trkpt lat="37.6549967" lon="14.79487"><ele>227.5</ele><time>2026-05-05T09:52:01.171Z</time></trkpt><trkpt lat="37.65506" lon="14.79475"><ele>226.0</ele><time>2026-05-05T09:52:02.171Z</time></trkpt><trkpt lat="37.6551567" lon="14.7946517"><ele>224.5</ele><time>2026-05-05T09:52:03.171Z</time></trkpt><trkpt lat="37.65527" lon="14.7945933"><ele>223.0</ele><time>2026-05-05T09:52:04.172Z</time></trkpt><trkpt lat="37.6554033" lon="14.7945617"><ele>223.0</ele><time>2026-05-05T09:52:05.171Z</time></trkpt><trkpt lat="37.6555283" lon="14.7945217"><ele>223.0</ele><time>2026-05-05T09:52:06.171Z</time></trkpt><trkpt lat="37.655645" lon="14.7944767"><ele>223.0</ele><time>2026-05-05T09:52:07.171Z</time></trkpt><trkpt lat="37.6557433" lon="14.7944267"><ele>223.0</ele><time>2026-05-05T09:52:08.171Z</time></trkpt><trkpt lat="37.6558167" lon="14.7943233"><ele>219.5</ele><time>2026-05-05T09:52:09.172Z</time></trkpt><trkpt lat="37.6558767" lon="14.7942"><ele>216.0</ele><time>2026-05-05T09:52:10.171Z</time></trkpt><trkpt lat="37.6559183" lon="14.7940667"><ele>212.5</ele><time>2026-05-05T09:52:11.171Z</time></trkpt><trkpt lat="37.65597" lon="14.7939333"><ele>209.0</ele><time>2026-05-05T09:52:12.171Z</time></trkpt><trkpt lat="37.6560233" lon="14.7937983"><ele>209.0</ele><time>2026-05-05T09:52:13.171Z</time></trkpt><trkpt lat="37.6560683" lon="14.79367"><ele>209.0</ele><time>2026-05-05T09:52:14.171Z</time></trkpt><trkpt lat="37.656115" lon="14.793545"><ele>209.0</ele><time>2026-05-05T09:52:15.171Z</time></trkpt><trkpt lat="37.6561567" lon="14.793415"><ele>209.0</ele><time>2026-05-05T09:52:16.171Z</time></trkpt><trkpt lat="37.6562017" lon="14.793285"><ele>209.0</ele><time>2026-05-05T09:52:17.171Z</time></trkpt><trkpt lat="37.6562517" lon="14.7931567"><ele>209.0</ele><time>2026-05-05T09:52:18.169Z</time></trkpt><trkpt lat="37.6563" lon="14.79303"><ele>209.0</ele><time>2026-05-05T09:52:19.171Z</time></trkpt><trkpt lat="37.6563483" lon="14.7929183"><ele>209.0</ele><time>2026-05-05T09:52:20.171Z</time></trkpt><trkpt lat="37.6564067" lon="14.79283"><ele>209.0</ele><time>2026-05-05T09:52:21.172Z</time></trkpt><trkpt lat="37.6564917" lon="14.79278"><ele>209.0</ele><time>2026-05-05T09:52:22.171Z</time></trkpt><trkpt lat="37.6565967" lon="14.7927517"><ele>209.0</ele><time>2026-05-05T09:52:23.172Z</time></trkpt><trkpt lat="37.65671" lon="14.7927317"><ele>209.0</ele><time>2026-05-05T09:52:24.171Z</time></trkpt><trkpt lat="37.65683" lon="14.7927033"><ele>209.0</ele><time>2026-05-05T09:52:25.171Z</time></trkpt><trkpt lat="37.65695" lon="14.7926817"><ele>209.0</ele><time>2026-05-05T09:52:26.171Z</time></trkpt><trkpt lat="37.6570667" lon="14.79266"><ele>211.00000000000003</ele><time>2026-05-05T09:52:27.171Z</time></trkpt><trkpt lat="37.657165" lon="14.79263"><ele>213.0</ele><time>2026-05-05T09:52:28.172Z</time></trkpt><trkpt lat="37.657245" lon="14.7925783"><ele>215.0</ele><time>2026-05-05T09:52:29.171Z</time></trkpt><trkpt lat="37.6573033" lon="14.7925033"><ele>217.0</ele><time>2026-05-05T09:52:30.171Z</time></trkpt><trkpt lat="37.6573267" lon="14.792405"><ele>219.00000000000003</ele><time>2026-05-05T09:52:31.171Z</time></trkpt><trkpt lat="37.6573117" lon="14.7923017"><ele>221.0</ele><time>2026-05-05T09:52:32.171Z</time></trkpt><trkpt lat="37.6572617" lon="14.7921917"><ele>221.0</ele><time>2026-05-05T09:52:33.171Z</time></trkpt><trkpt lat="37.6571717" lon="14.792065"><ele>221.0</ele><time>2026-05-05T09:52:34.171Z</time></trkpt><trkpt lat="37.6570567" lon="14.79194"><ele>221.0</ele><time>2026-05-05T09:52:35.172Z</time></trkpt><trkpt lat="37.65694" lon="14.791825"><ele>221.0</ele><time>2026-05-05T09:52:36.171Z</time></trkpt><trkpt lat="37.6568033" lon="14.791755"><ele>225.33333333333334</ele><time>2026-05-05T09:52:37.171Z</time></trkpt><trkpt lat="37.656655" lon="14.79172"><ele>229.66666666666669</ele><time>2026-05-05T09:52:38.172Z</time></trkpt><trkpt lat="37.6565033" lon="14.7916967"><ele>234.0</ele><time>2026-05-05T09:52:39.171Z</time></trkpt><trkpt lat="37.6563567" lon="14.79166"><ele>234.0</ele><time>2026-05-05T09:52:40.171Z</time></trkpt><trkpt lat="37.65621" lon="14.7916067"><ele>234.0</ele><time>2026-05-05T09:52:41.171Z</time></trkpt><trkpt lat="37.6560683" lon="14.7915283"><ele>234.0</ele><time>2026-05-05T09:52:42.171Z</time></trkpt><trkpt lat="37.6559467" lon="14.791435"><ele>235.0</ele><time>2026-05-05T09:52:43.172Z</time></trkpt><trkpt lat="37.65586" lon="14.7913183"><ele>236.0</ele><time>2026-05-05T09:52:44.172Z</time></trkpt><trkpt lat="37.6558033" lon="14.7911633"><ele>237.0</ele><time>2026-05-05T09:52:45.171Z</time></trkpt><trkpt lat="37.6557583" lon="14.7909917"><ele>238.0</ele><time>2026-05-05T09:52:46.171Z</time></trkpt><trkpt lat="37.6557017" lon="14.7908233"><ele>238.0</ele><time>2026-05-05T09:52:47.171Z</time></trkpt><trkpt lat="37.6556183" lon="14.7906983"><ele>238.0</ele><time>2026-05-05T09:52:48.171Z</time></trkpt><trkpt lat="37.6555033" lon="14.79061"><ele>238.0</ele><time>2026-05-05T09:52:49.171Z</time></trkpt><trkpt lat="37.65537" lon="14.7905717"><ele>238.0</ele><time>2026-05-05T09:52:50.171Z</time></trkpt><trkpt lat="37.6552333" lon="14.7905767"><ele>237.0</ele><time>2026-05-05T09:52:51.171Z</time></trkpt><trkpt lat="37.6550983" lon="14.7905833"><ele>236.0</ele><time>2026-05-05T09:52:52.171Z</time></trkpt><trkpt lat="37.6549783" lon="14.790555"><ele>235.0</ele><time>2026-05-05T09:52:53.171Z</time></trkpt><trkpt lat="37.654875" lon="14.79048"><ele>234.0</ele><time>2026-05-05T09:52:54.171Z</time></trkpt><trkpt lat="37.654795" lon="14.79037"><ele>234.0</ele><time>2026-05-05T09:52:55.171Z</time></trkpt><trkpt lat="37.6547333" lon="14.79022"><ele>234.0</ele><time>2026-05-05T09:52:56.171Z</time></trkpt><trkpt lat="37.6546767" lon="14.7900567"><ele>234.0</ele><time>2026-05-05T09:52:57.171Z</time></trkpt><trkpt lat="37.654615" lon="14.7898833"><ele>234.0</ele><time>2026-05-05T09:52:58.171Z</time></trkpt><trkpt lat="37.6545533" lon="14.7896967"><ele>237.0</ele><time>2026-05-05T09:52:59.172Z</time></trkpt><trkpt lat="37.6544833" lon="14.7895067"><ele>240.0</ele><time>2026-05-05T09:53:00.171Z</time></trkpt><trkpt lat="37.6544183" lon="14.7893133"><ele>243.0</ele><time>2026-05-05T09:53:01.171Z</time></trkpt><trkpt lat="37.6543517" lon="14.7891133"><ele>243.0</ele><time>2026-05-05T09:53:02.171Z</time></trkpt><trkpt lat="37.654275" lon="14.7889033"><ele>243.0</ele><time>2026-05-05T09:53:03.172Z</time></trkpt><trkpt lat="37.654205" lon="14.788685"><ele>243.0</ele><time>2026-05-05T09:53:04.171Z</time></trkpt><trkpt lat="37.6541333" lon="14.7884633"><ele>243.0</ele><time>2026-05-05T09:53:05.171Z</time></trkpt><trkpt lat="37.65406" lon="14.7882417"><ele>243.0</ele><time>2026-05-05T09:53:06.171Z</time></trkpt><trkpt lat="37.653985" lon="14.7880167"><ele>243.0</ele><time>2026-05-05T09:53:07.171Z</time></trkpt><trkpt lat="37.6539033" lon="14.7877933"><ele>243.33333333333331</ele><time>2026-05-05T09:53:08.172Z</time></trkpt><trkpt lat="37.6538233" lon="14.7875583"><ele>243.66666666666666</ele><time>2026-05-05T09:53:09.172Z</time></trkpt><trkpt lat="37.6537417" lon="14.7873233"><ele>244.0</ele><time>2026-05-05T09:53:10.172Z</time></trkpt><trkpt lat="37.6536567" lon="14.78709"><ele>243.66666666666666</ele><time>2026-05-05T09:53:11.171Z</time></trkpt><trkpt lat="37.65357" lon="14.7868483"><ele>243.33333333333331</ele><time>2026-05-05T09:53:12.171Z</time></trkpt><trkpt lat="37.653485" lon="14.7865833"><ele>243.0</ele><time>2026-05-05T09:53:13.171Z</time></trkpt><trkpt lat="37.6534017" lon="14.7863317"><ele>243.0</ele><time>2026-05-05T09:53:14.171Z</time></trkpt><trkpt lat="37.6533217" lon="14.7860917"><ele>243.0</ele><time>2026-05-05T09:53:15.171Z</time></trkpt><trkpt lat="37.6532433" lon="14.7858517"><ele>243.0</ele><time>2026-05-05T09:53:16.171Z</time></trkpt><trkpt lat="37.6531533" lon="14.7856083"><ele>243.33333333333331</ele><time>2026-05-05T09:53:17.171Z</time></trkpt><trkpt lat="37.6530667" lon="14.7853783"><ele>243.66666666666666</ele><time>2026-05-05T09:53:18.171Z</time></trkpt><trkpt lat="37.6529833" lon="14.785145"><ele>244.0</ele><time>2026-05-05T09:53:19.172Z</time></trkpt><trkpt lat="37.6529083" lon="14.784905"><ele>243.66666666666666</ele><time>2026-05-05T09:53:20.171Z</time></trkpt><trkpt lat="37.6528233" lon="14.7846617"><ele>243.33333333333331</ele><time>2026-05-05T09:53:21.171Z</time></trkpt><trkpt lat="37.6527317" lon="14.784415"><ele>243.0</ele><time>2026-05-05T09:53:22.171Z</time></trkpt><trkpt lat="37.6526533" lon="14.7841667"><ele>242.66666666666669</ele><time>2026-05-05T09:53:23.171Z</time></trkpt><trkpt lat="37.6525633" lon="14.7839317"><ele>242.33333333333334</ele><time>2026-05-05T09:53:24.172Z</time></trkpt><trkpt lat="37.65248" lon="14.7836867"><ele>242.0</ele><time>2026-05-05T09:53:25.171Z</time></trkpt><trkpt lat="37.6524017" lon="14.7834383"><ele>241.33333333333334</ele><time>2026-05-05T09:53:26.171Z</time></trkpt><trkpt lat="37.6523217" lon="14.7831967"><ele>240.66666666666669</ele><time>2026-05-05T09:53:27.172Z</time></trkpt><trkpt lat="37.6522383" lon="14.78295"><ele>240.0</ele><time>2026-05-05T09:53:28.171Z</time></trkpt><trkpt lat="37.6521583" lon="14.7827083"><ele>240.33333333333331</ele><time>2026-05-05T09:53:29.171Z</time></trkpt><trkpt lat="37.6520733" lon="14.782465"><ele>240.66666666666666</ele><time>2026-05-05T09:53:30.172Z</time></trkpt><trkpt lat="37.651985" lon="14.7822217"><ele>241.0</ele><time>2026-05-05T09:53:31.171Z</time></trkpt><trkpt lat="37.6519017" lon="14.78198"><ele>240.0</ele><time>2026-05-05T09:53:32.171Z</time></trkpt><trkpt lat="37.6518233" lon="14.7817483"><ele>239.0</ele><time>2026-05-05T09:53:33.172Z</time></trkpt><trkpt lat="37.6517417" lon="14.7815167"><ele>238.0</ele><time>2026-05-05T09:53:34.171Z</time></trkpt><trkpt lat="37.6516633" lon="14.7812867"><ele>238.0</ele><time>2026-05-05T09:53:35.171Z</time></trkpt><trkpt lat="37.6515833" lon="14.78105"><ele>238.0</ele><time>2026-05-05T09:53:36.171Z</time></trkpt><trkpt lat="37.6515017" lon="14.7808183"><ele>238.0</ele><time>2026-05-05T09:53:37.171Z</time></trkpt><trkpt lat="37.6514117" lon="14.7806033"><ele>237.66666666666666</ele><time>2026-05-05T09:53:38.171Z</time></trkpt><trkpt lat="37.6513133" lon="14.7803883"><ele>237.33333333333331</ele><time>2026-05-05T09:53:39.171Z</time></trkpt><trkpt lat="37.6512083" lon="14.7801833"><ele>237.0</ele><time>2026-05-05T09:53:40.171Z</time></trkpt><trkpt lat="37.6510933" lon="14.7799817"><ele>236.66666666666669</ele><time>2026-05-05T09:53:41.171Z</time></trkpt><trkpt lat="37.650975" lon="14.7797783"><ele>236.33333333333334</ele><time>2026-05-05T09:53:42.171Z</time></trkpt><trkpt lat="37.65085" lon="14.779575"><ele>236.0</ele><time>2026-05-05T09:53:43.171Z</time></trkpt><trkpt lat="37.65073" lon="14.7793683"><ele>235.66666666666669</ele><time>2026-05-05T09:53:44.171Z</time></trkpt><trkpt lat="37.650615" lon="14.7791583"><ele>235.33333333333331</ele><time>2026-05-05T09:53:45.171Z</time></trkpt><trkpt lat="37.650495" lon="14.778955"><ele>235.0</ele><time>2026-05-05T09:53:46.171Z</time></trkpt><trkpt lat="37.6503767" lon="14.778745"><ele>234.66666666666666</ele><time>2026-05-05T09:53:47.171Z</time></trkpt><trkpt lat="37.6502567" lon="14.778535"><ele>234.33333333333331</ele><time>2026-05-05T09:53:48.171Z</time></trkpt><trkpt lat="37.6501383" lon="14.778325"><ele>234.0</ele><time>2026-05-05T09:53:49.171Z</time></trkpt><trkpt lat="37.6500117" lon="14.77811"><ele>232.33333333333331</ele><time>2026-05-05T09:53:50.171Z</time></trkpt><trkpt lat="37.6498867" lon="14.777895"><ele>230.66666666666666</ele><time>2026-05-05T09:53:51.171Z</time></trkpt><trkpt lat="37.6497583" lon="14.7776767"><ele>229.0</ele><time>2026-05-05T09:53:52.171Z</time></trkpt><trkpt lat="37.6496333" lon="14.7774517"><ele>228.0</ele><time>2026-05-05T09:53:53.171Z</time></trkpt><trkpt lat="37.6495083" lon="14.7772283"><ele>227.0</ele><time>2026-05-05T09:53:54.171Z</time></trkpt><trkpt lat="37.6493867" lon="14.7770067"><ele>226.0</ele><time>2026-05-05T09:53:55.171Z</time></trkpt><trkpt lat="37.6492667" lon="14.7767783"><ele>224.66666666666666</ele><time>2026-05-05T09:53:56.171Z</time></trkpt><trkpt lat="37.649135" lon="14.776565"><ele>223.33333333333331</ele><time>2026-05-05T09:53:57.172Z</time></trkpt><trkpt lat="37.6490117" lon="14.7763433"><ele>222.0</ele><time>2026-05-05T09:53:58.172Z</time></trkpt><trkpt lat="37.6488867" lon="14.7761217"><ele>221.0</ele><time>2026-05-05T09:53:59.171Z</time></trkpt><trkpt lat="37.6487617" lon="14.7759017"><ele>220.0</ele><time>2026-05-05T09:54:00.172Z</time></trkpt><trkpt lat="37.6486433" lon="14.7756817"><ele>219.0</ele><time>2026-05-05T09:54:01.171Z</time></trkpt><trkpt lat="37.6485183" lon="14.7754617"><ele>218.66666666666669</ele><time>2026-05-05T09:54:02.171Z</time></trkpt><trkpt lat="37.6483933" lon="14.775245"><ele>218.33333333333334</ele><time>2026-05-05T09:54:03.171Z</time></trkpt><trkpt lat="37.6482683" lon="14.7750333"><ele>218.0</ele><time>2026-05-05T09:54:04.171Z</time></trkpt><trkpt lat="37.6481517" lon="14.7748183"><ele>217.66666666666669</ele><time>2026-05-05T09:54:05.172Z</time></trkpt><trkpt lat="37.6480367" lon="14.774615"><ele>217.33333333333331</ele><time>2026-05-05T09:54:06.171Z</time></trkpt><trkpt lat="37.6479317" lon="14.7743983"><ele>217.0</ele><time>2026-05-05T09:54:07.172Z</time></trkpt><trkpt lat="37.6478333" lon="14.774165"><ele>215.33333333333331</ele><time>2026-05-05T09:54:08.171Z</time></trkpt><trkpt lat="37.6477433" lon="14.77393"><ele>213.66666666666669</ele><time>2026-05-05T09:54:09.171Z</time></trkpt><trkpt lat="37.647655" lon="14.7736983"><ele>212.0</ele><time>2026-05-05T09:54:10.171Z</time></trkpt><trkpt lat="37.6475733" lon="14.7734583"><ele>209.66666666666669</ele><time>2026-05-05T09:54:11.172Z</time></trkpt><trkpt lat="37.647495" lon="14.7732233"><ele>207.33333333333331</ele><time>2026-05-05T09:54:12.171Z</time></trkpt><trkpt lat="37.6474133" lon="14.7729767"><ele>205.0</ele><time>2026-05-05T09:54:13.171Z</time></trkpt><trkpt lat="37.6473267" lon="14.7727383"><ele>203.66666666666666</ele><time>2026-05-05T09:54:14.171Z</time></trkpt><trkpt lat="37.6472433" lon="14.7725117"><ele>202.33333333333331</ele><time>2026-05-05T09:54:15.171Z</time></trkpt><trkpt lat="37.647165" lon="14.7722783"><ele>201.0</ele><time>2026-05-05T09:54:16.171Z</time></trkpt><trkpt lat="37.6470833" lon="14.7720483"><ele>202.33333333333331</ele><time>2026-05-05T09:54:17.171Z</time></trkpt><trkpt lat="37.6469917" lon="14.771825"><ele>203.66666666666666</ele><time>2026-05-05T09:54:18.171Z</time></trkpt><trkpt lat="37.6469167" lon="14.7716033"><ele>205.0</ele><time>2026-05-05T09:54:19.172Z</time></trkpt><trkpt lat="37.646835" lon="14.7713833"><ele>206.0</ele><time>2026-05-05T09:54:20.171Z</time></trkpt><trkpt lat="37.6467583" lon="14.7711583"><ele>207.0</ele><time>2026-05-05T09:54:21.171Z</time></trkpt><trkpt lat="37.646685" lon="14.7709317"><ele>208.0</ele><time>2026-05-05T09:54:22.171Z</time></trkpt><trkpt lat="37.6466183" lon="14.770695"><ele>210.33333333333331</ele><time>2026-05-05T09:54:23.171Z</time></trkpt><trkpt lat="37.6465683" lon="14.770455"><ele>212.66666666666669</ele><time>2026-05-05T09:54:24.171Z</time></trkpt><trkpt lat="37.6465317" lon="14.7702083"><ele>215.0</ele><time>2026-05-05T09:54:25.171Z</time></trkpt><trkpt lat="37.6465033" lon="14.7699617"><ele>216.0</ele><time>2026-05-05T09:54:26.172Z</time></trkpt><trkpt lat="37.6464783" lon="14.769705"><ele>217.0</ele><time>2026-05-05T09:54:27.171Z</time></trkpt><trkpt lat="37.6464483" lon="14.7694533"><ele>218.0</ele><time>2026-05-05T09:54:28.171Z</time></trkpt><trkpt lat="37.64642" lon="14.7691983"><ele>219.33333333333334</ele><time>2026-05-05T09:54:29.171Z</time></trkpt><trkpt lat="37.6464" lon="14.7689467"><ele>220.66666666666669</ele><time>2026-05-05T09:54:30.171Z</time></trkpt><trkpt lat="37.6463717" lon="14.7687033"><ele>222.0</ele><time>2026-05-05T09:54:31.171Z</time></trkpt><trkpt lat="37.6463267" lon="14.7684667"><ele>223.33333333333331</ele><time>2026-05-05T09:54:32.171Z</time></trkpt><trkpt lat="37.6462667" lon="14.7682383"><ele>224.66666666666666</ele><time>2026-05-05T09:54:33.171Z</time></trkpt><trkpt lat="37.6461933" lon="14.7680233"><ele>226.0</ele><time>2026-05-05T09:54:34.171Z</time></trkpt><trkpt lat="37.6461183" lon="14.7677917"><ele>228.66666666666666</ele><time>2026-05-05T09:54:35.171Z</time></trkpt><trkpt lat="37.6460517" lon="14.767555"><ele>231.33333333333331</ele><time>2026-05-05T09:54:36.171Z</time></trkpt><trkpt lat="37.64599" lon="14.76732"><ele>234.0</ele><time>2026-05-05T09:54:37.171Z</time></trkpt><trkpt lat="37.6459483" lon="14.7670733"><ele>234.66666666666669</ele><time>2026-05-05T09:54:38.172Z</time></trkpt><trkpt lat="37.6459233" lon="14.766825"><ele>235.33333333333334</ele><time>2026-05-05T09:54:39.171Z</time></trkpt><trkpt lat="37.645905" lon="14.766565"><ele>236.0</ele><time>2026-05-05T09:54:40.171Z</time></trkpt><trkpt lat="37.6458967" lon="14.7663067"><ele>236.0</ele><time>2026-05-05T09:54:41.171Z</time></trkpt><trkpt lat="37.6458967" lon="14.7660483"><ele>236.0</ele><time>2026-05-05T09:54:42.171Z</time></trkpt><trkpt lat="37.6459" lon="14.76579"><ele>236.0</ele><time>2026-05-05T09:54:43.171Z</time></trkpt><trkpt lat="37.6459" lon="14.7655333"><ele>235.66666666666669</ele><time>2026-05-05T09:54:44.171Z</time></trkpt><trkpt lat="37.6459017" lon="14.7652733"><ele>235.33333333333331</ele><time>2026-05-05T09:54:45.171Z</time></trkpt><trkpt lat="37.6458967" lon="14.76502"><ele>235.0</ele><time>2026-05-05T09:54:46.172Z</time></trkpt><trkpt lat="37.6458817" lon="14.7647583"><ele>236.66666666666666</ele><time>2026-05-05T09:54:47.171Z</time></trkpt><trkpt lat="37.64585" lon="14.764505"><ele>238.33333333333331</ele><time>2026-05-05T09:54:48.171Z</time></trkpt><trkpt lat="37.64581" lon="14.7642533"><ele>240.0</ele><time>2026-05-05T09:54:49.171Z</time></trkpt><trkpt lat="37.6457733" lon="14.7640017"><ele>240.0</ele><time>2026-05-05T09:54:50.171Z</time></trkpt><trkpt lat="37.645745" lon="14.763755"><ele>240.0</ele><time>2026-05-05T09:54:51.171Z</time></trkpt><trkpt lat="37.64571" lon="14.7635133"><ele>240.0</ele><time>2026-05-05T09:54:52.171Z</time></trkpt><trkpt lat="37.6456783" lon="14.7632767"><ele>239.33333333333331</ele><time>2026-05-05T09:54:53.171Z</time></trkpt><trkpt lat="37.6456333" lon="14.7630517"><ele>238.66666666666666</ele><time>2026-05-05T09:54:54.171Z</time></trkpt><trkpt lat="37.64559" lon="14.7628383"><ele>238.0</ele><time>2026-05-05T09:54:55.171Z</time></trkpt><trkpt lat="37.6455483" lon="14.7626317"><ele>236.66666666666666</ele><time>2026-05-05T09:54:56.171Z</time></trkpt><trkpt lat="37.6455033" lon="14.7624367"><ele>235.33333333333331</ele><time>2026-05-05T09:54:57.171Z</time></trkpt><trkpt lat="37.6454783" lon="14.7622283"><ele>234.0</ele><time>2026-05-05T09:54:58.171Z</time></trkpt><trkpt lat="37.6454817" lon="14.76202"><ele>233.0</ele><time>2026-05-05T09:54:59.171Z</time></trkpt><trkpt lat="37.6454883" lon="14.7618267"><ele>232.0</ele><time>2026-05-05T09:55:00.171Z</time></trkpt><trkpt lat="37.6454783" lon="14.761635"><ele>231.0</ele><time>2026-05-05T09:55:01.171Z</time></trkpt><trkpt lat="37.6454717" lon="14.7614433"><ele>231.0</ele><time>2026-05-05T09:55:02.171Z</time></trkpt><trkpt lat="37.6454867" lon="14.7612633"><ele>231.0</ele><time>2026-05-05T09:55:03.171Z</time></trkpt><trkpt lat="37.64554" lon="14.7610883"><ele>231.0</ele><time>2026-05-05T09:55:04.171Z</time></trkpt><trkpt lat="37.645635" lon="14.7609267"><ele>231.33333333333331</ele><time>2026-05-05T09:55:05.171Z</time></trkpt><trkpt lat="37.645765" lon="14.760775"><ele>231.66666666666666</ele><time>2026-05-05T09:55:06.171Z</time></trkpt><trkpt lat="37.6458683" lon="14.7606083"><ele>232.0</ele><time>2026-05-05T09:55:07.172Z</time></trkpt><trkpt lat="37.6459517" lon="14.7604033"><ele>233.0</ele><time>2026-05-05T09:55:08.171Z</time></trkpt><trkpt lat="37.6460283" lon="14.7601817"><ele>234.0</ele><time>2026-05-05T09:55:09.172Z</time></trkpt><trkpt lat="37.6461067" lon="14.7599733"><ele>235.0</ele><time>2026-05-05T09:55:10.171Z</time></trkpt><trkpt lat="37.6462167" lon="14.7597867"><ele>234.66666666666666</ele><time>2026-05-05T09:55:11.171Z</time></trkpt><trkpt lat="37.6463367" lon="14.75961"><ele>234.33333333333331</ele><time>2026-05-05T09:55:12.171Z</time></trkpt><trkpt lat="37.6464467" lon="14.7594167"><ele>234.0</ele><time>2026-05-05T09:55:13.171Z</time></trkpt><trkpt lat="37.6465417" lon="14.7591967"><ele>234.0</ele><time>2026-05-05T09:55:14.171Z</time></trkpt><trkpt lat="37.6466183" lon="14.75896"><ele>234.0</ele><time>2026-05-05T09:55:15.171Z</time></trkpt><trkpt lat="37.6466967" lon="14.7587167"><ele>234.0</ele><time>2026-05-05T09:55:16.171Z</time></trkpt><trkpt lat="37.6467783" lon="14.7584733"><ele>234.66666666666669</ele><time>2026-05-05T09:55:17.171Z</time></trkpt><trkpt lat="37.6468617" lon="14.7582333"><ele>235.33333333333334</ele><time>2026-05-05T09:55:18.171Z</time></trkpt><trkpt lat="37.6469383" lon="14.7579983"><ele>236.0</ele><time>2026-05-05T09:55:19.171Z</time></trkpt><trkpt lat="37.647015" lon="14.75776"><ele>236.66666666666669</ele><time>2026-05-05T09:55:20.171Z</time></trkpt><trkpt lat="37.6471" lon="14.7575233"><ele>237.33333333333331</ele><time>2026-05-05T09:55:21.171Z</time></trkpt><trkpt lat="37.6471917" lon="14.757295"><ele>238.0</ele><time>2026-05-05T09:55:22.171Z</time></trkpt><trkpt lat="37.6472883" lon="14.7570633"><ele>238.0</ele><time>2026-05-05T09:55:23.171Z</time></trkpt><trkpt lat="37.64739" lon="14.7568233"><ele>238.0</ele><time>2026-05-05T09:55:24.171Z</time></trkpt><trkpt lat="37.64749" lon="14.7565883"><ele>238.0</ele><time>2026-05-05T09:55:25.171Z</time></trkpt><trkpt lat="37.6475883" lon="14.7563567"><ele>238.0</ele><time>2026-05-05T09:55:26.171Z</time></trkpt><trkpt lat="37.64769" lon="14.7561183"><ele>238.0</ele><time>2026-05-05T09:55:27.172Z</time></trkpt><trkpt lat="37.6477983" lon="14.7558767"><ele>238.0</ele><time>2026-05-05T09:55:28.171Z</time></trkpt><trkpt lat="37.6479033" lon="14.755635"><ele>236.66666666666666</ele><time>2026-05-05T09:55:29.171Z</time></trkpt><trkpt lat="37.6480117" lon="14.7553933"><ele>235.33333333333331</ele><time>2026-05-05T09:55:30.171Z</time></trkpt><trkpt lat="37.64812" lon="14.7551533"><ele>234.0</ele><time>2026-05-05T09:55:31.171Z</time></trkpt><trkpt lat="37.6482333" lon="14.7549083"><ele>233.5</ele><time>2026-05-05T09:55:32.172Z</time></trkpt><trkpt lat="37.6483467" lon="14.75466"><ele>233.0</ele><time>2026-05-05T09:55:33.171Z</time></trkpt><trkpt lat="37.6484567" lon="14.754415"><ele>234.0</ele><time>2026-05-05T09:55:34.171Z</time></trkpt><trkpt lat="37.6485667" lon="14.754165"><ele>235.0</ele><time>2026-05-05T09:55:35.171Z</time></trkpt><trkpt lat="37.6486783" lon="14.7539167"><ele>233.66666666666666</ele><time>2026-05-05T09:55:36.171Z</time></trkpt><trkpt lat="37.6487867" lon="14.75367"><ele>232.33333333333331</ele><time>2026-05-05T09:55:37.171Z</time></trkpt><trkpt lat="37.6488967" lon="14.753425"><ele>231.0</ele><time>2026-05-05T09:55:38.171Z</time></trkpt><trkpt lat="37.6490067" lon="14.7531733"><ele>231.0</ele><time>2026-05-05T09:55:39.171Z</time></trkpt><trkpt lat="37.64912" lon="14.7529217"><ele>231.0</ele><time>2026-05-05T09:55:40.171Z</time></trkpt><trkpt lat="37.6492317" lon="14.7526583"><ele>230.0</ele><time>2026-05-05T09:55:41.171Z</time></trkpt><trkpt lat="37.64935" lon="14.7523833"><ele>229.0</ele><time>2026-05-05T09:55:42.171Z</time></trkpt><trkpt lat="37.64947" lon="14.7521167"><ele>227.5</ele><time>2026-05-05T09:55:43.171Z</time></trkpt><trkpt lat="37.6495917" lon="14.7518517"><ele>226.0</ele><time>2026-05-05T09:55:44.171Z</time></trkpt><trkpt lat="37.6497083" lon="14.7515883"><ele>226.0</ele><time>2026-05-05T09:55:45.171Z</time></trkpt><trkpt lat="37.649825" lon="14.7513283"><ele>226.0</ele><time>2026-05-05T09:55:46.172Z</time></trkpt><trkpt lat="37.64994" lon="14.75107"><ele>225.5</ele><time>2026-05-05T09:55:47.171Z</time></trkpt><trkpt lat="37.6500483" lon="14.7508183"><ele>225.0</ele><time>2026-05-05T09:55:48.171Z</time></trkpt><trkpt lat="37.6501583" lon="14.7505683"><ele>225.0</ele><time>2026-05-05T09:55:49.171Z</time></trkpt><trkpt lat="37.6502667" lon="14.750315"><ele>225.0</ele><time>2026-05-05T09:55:50.171Z</time></trkpt><trkpt lat="37.6503767" lon="14.7500667"><ele>225.0</ele><time>2026-05-05T09:55:51.171Z</time></trkpt><trkpt lat="37.6504833" lon="14.7498217"><ele>225.0</ele><time>2026-05-05T09:55:52.171Z</time></trkpt><trkpt lat="37.650585" lon="14.7495783"><ele>225.0</ele><time>2026-05-05T09:55:53.172Z</time></trkpt><trkpt lat="37.6506717" lon="14.7493383"><ele>225.0</ele><time>2026-05-05T09:55:54.171Z</time></trkpt><trkpt lat="37.6507433" lon="14.7490883"><ele>225.0</ele><time>2026-05-05T09:55:55.172Z</time></trkpt><trkpt lat="37.6508167" lon="14.7488383"><ele>225.0</ele><time>2026-05-05T09:55:56.171Z</time></trkpt><trkpt lat="37.6508917" lon="14.7486067"><ele>227.0</ele><time>2026-05-05T09:55:57.171Z</time></trkpt><trkpt lat="37.6509667" lon="14.7483883"><ele>229.0</ele><time>2026-05-05T09:55:58.171Z</time></trkpt><trkpt lat="37.6510483" lon="14.7481733"><ele>231.0</ele><time>2026-05-05T09:55:59.171Z</time></trkpt><trkpt lat="37.65115" lon="14.7479633"><ele>228.33333333333331</ele><time>2026-05-05T09:56:00.171Z</time></trkpt><trkpt lat="37.65127" lon="14.7477567"><ele>225.66666666666666</ele><time>2026-05-05T09:56:01.171Z</time></trkpt><trkpt lat="37.6513917" lon="14.7475517"><ele>223.0</ele><time>2026-05-05T09:56:02.171Z</time></trkpt><trkpt lat="37.6515117" lon="14.7473433"><ele>223.0</ele><time>2026-05-05T09:56:03.171Z</time></trkpt><trkpt lat="37.6516333" lon="14.747125"><ele>223.0</ele><time>2026-05-05T09:56:04.171Z</time></trkpt><trkpt lat="37.6517467" lon="14.746905"><ele>223.0</ele><time>2026-05-05T09:56:05.171Z</time></trkpt><trkpt lat="37.6518567" lon="14.7466817"><ele>221.66666666666666</ele><time>2026-05-05T09:56:06.171Z</time></trkpt><trkpt lat="37.65196" lon="14.7464517"><ele>220.33333333333331</ele><time>2026-05-05T09:56:07.171Z</time></trkpt><trkpt lat="37.65206" lon="14.7462217"><ele>219.0</ele><time>2026-05-05T09:56:08.171Z</time></trkpt><trkpt lat="37.65216" lon="14.74599"><ele>221.66666666666669</ele><time>2026-05-05T09:56:09.171Z</time></trkpt><trkpt lat="37.6522617" lon="14.7457533"><ele>224.33333333333334</ele><time>2026-05-05T09:56:10.171Z</time></trkpt><trkpt lat="37.6523567" lon="14.7455233"><ele>227.0</ele><time>2026-05-05T09:56:11.171Z</time></trkpt><trkpt lat="37.6524567" lon="14.7453033"><ele>229.33333333333334</ele><time>2026-05-05T09:56:12.171Z</time></trkpt><trkpt lat="37.6525583" lon="14.7450917"><ele>231.66666666666669</ele><time>2026-05-05T09:56:13.171Z</time></trkpt><trkpt lat="37.652655" lon="14.7448983"><ele>234.0</ele><time>2026-05-05T09:56:14.171Z</time></trkpt><trkpt lat="37.652735" lon="14.7447117"><ele>231.33333333333331</ele><time>2026-05-05T09:56:15.171Z</time></trkpt><trkpt lat="37.6527983" lon="14.7445117"><ele>228.66666666666666</ele><time>2026-05-05T09:56:16.172Z</time></trkpt><trkpt lat="37.652845" lon="14.7442917"><ele>226.0</ele><time>2026-05-05T09:56:17.172Z</time></trkpt><trkpt lat="37.6528567" lon="14.7440683"><ele>226.0</ele><time>2026-05-05T09:56:18.171Z</time></trkpt><trkpt lat="37.6528633" lon="14.7438283"><ele>226.0</ele><time>2026-05-05T09:56:19.171Z</time></trkpt><trkpt lat="37.6528717" lon="14.7435867"><ele>226.0</ele><time>2026-05-05T09:56:20.172Z</time></trkpt><trkpt lat="37.6528783" lon="14.7433533"><ele>226.66666666666666</ele><time>2026-05-05T09:56:21.171Z</time></trkpt><trkpt lat="37.65289" lon="14.743135"><ele>227.33333333333331</ele><time>2026-05-05T09:56:22.172Z</time></trkpt><trkpt lat="37.6529033" lon="14.742935"><ele>228.0</ele><time>2026-05-05T09:56:23.171Z</time></trkpt><trkpt lat="37.6529117" lon="14.742745"><ele>228.25</ele><time>2026-05-05T09:56:24.171Z</time></trkpt><trkpt lat="37.6529167" lon="14.7425717"><ele>228.5</ele><time>2026-05-05T09:56:25.171Z</time></trkpt><trkpt lat="37.6529167" lon="14.7424117"><ele>228.75</ele><time>2026-05-05T09:56:26.171Z</time></trkpt><trkpt lat="37.6529" lon="14.7422817"><ele>229.0</ele><time>2026-05-05T09:56:27.172Z</time></trkpt><trkpt lat="37.652865" lon="14.74217"><ele>228.99999999999997</ele><time>2026-05-05T09:56:28.171Z</time></trkpt><trkpt lat="37.6528067" lon="14.7420883"><ele>229.0</ele><time>2026-05-05T09:56:29.171Z</time></trkpt><trkpt lat="37.6527367" lon="14.7420517"><ele>229.0</ele><time>2026-05-05T09:56:30.171Z</time></trkpt><trkpt lat="37.6526633" lon="14.74207"><ele>229.0</ele><time>2026-05-05T09:56:31.171Z</time></trkpt><trkpt lat="37.6525883" lon="14.742135"><ele>228.99999999999997</ele><time>2026-05-05T09:56:32.171Z</time></trkpt><trkpt lat="37.6525183" lon="14.742255"><ele>229.0</ele><time>2026-05-05T09:56:33.171Z</time></trkpt><trkpt lat="37.652455" lon="14.7424117"><ele>232.25</ele><time>2026-05-05T09:56:34.172Z</time></trkpt><trkpt lat="37.65239" lon="14.7425733"><ele>235.5</ele><time>2026-05-05T09:56:35.171Z</time></trkpt><trkpt lat="37.6523217" lon="14.7427217"><ele>238.75</ele><time>2026-05-05T09:56:36.171Z</time></trkpt><trkpt lat="37.65225" lon="14.74283"><ele>242.0</ele><time>2026-05-05T09:56:37.171Z</time></trkpt><trkpt lat="37.652165" lon="14.742895"><ele>242.0</ele><time>2026-05-05T09:56:38.171Z</time></trkpt><trkpt lat="37.6520733" lon="14.7429033"><ele>242.0</ele><time>2026-05-05T09:56:39.171Z</time></trkpt><trkpt lat="37.6520017" lon="14.7428483"><ele>242.0</ele><time>2026-05-05T09:56:40.171Z</time></trkpt><trkpt lat="37.6519333" lon="14.742755"><ele>242.0</ele><time>2026-05-05T09:56:41.171Z</time></trkpt><trkpt lat="37.6518917" lon="14.7426133"><ele>242.0</ele><time>2026-05-05T09:56:42.171Z</time></trkpt><trkpt lat="37.6518683" lon="14.742445"><ele>248.0</ele><time>2026-05-05T09:56:43.171Z</time></trkpt><trkpt lat="37.6518567" lon="14.7422567"><ele>254.0</ele><time>2026-05-05T09:56:44.171Z</time></trkpt><trkpt lat="37.65184" lon="14.74206"><ele>260.0</ele><time>2026-05-05T09:56:45.172Z</time></trkpt><trkpt lat="37.6518133" lon="14.7418483"><ele>261.0</ele><time>2026-05-05T09:56:46.172Z</time></trkpt><trkpt lat="37.6517833" lon="14.7416267"><ele>262.0</ele><time>2026-05-05T09:56:47.171Z</time></trkpt><trkpt lat="37.6517533" lon="14.741395"><ele>263.0</ele><time>2026-05-05T09:56:48.171Z</time></trkpt><trkpt lat="37.6517167" lon="14.7411583"><ele>264.33333333333337</ele><time>2026-05-05T09:56:49.171Z</time></trkpt><trkpt lat="37.65168" lon="14.7409117"><ele>265.6666666666667</ele><time>2026-05-05T09:56:50.171Z</time></trkpt><trkpt lat="37.6516383" lon="14.7406567"><ele>267.0</ele><time>2026-05-05T09:56:51.171Z</time></trkpt><trkpt lat="37.6515967" lon="14.7403967"><ele>265.6666666666667</ele><time>2026-05-05T09:56:52.171Z</time></trkpt><trkpt lat="37.6515483" lon="14.7401267"><ele>264.33333333333337</ele><time>2026-05-05T09:56:53.172Z</time></trkpt><trkpt lat="37.6515083" lon="14.7398533"><ele>263.0</ele><time>2026-05-05T09:56:54.171Z</time></trkpt><trkpt lat="37.6514717" lon="14.7395767"><ele>262.5</ele><time>2026-05-05T09:56:55.171Z</time></trkpt><trkpt lat="37.6514417" lon="14.7392867"><ele>262.0</ele><time>2026-05-05T09:56:56.171Z</time></trkpt><trkpt lat="37.65141" lon="14.7390083"><ele>262.0</ele><time>2026-05-05T09:56:57.171Z</time></trkpt><trkpt lat="37.6513783" lon="14.7387333"><ele>262.0</ele><time>2026-05-05T09:56:58.172Z</time></trkpt><trkpt lat="37.6513433" lon="14.7384683"><ele>262.0</ele><time>2026-05-05T09:56:59.171Z</time></trkpt><trkpt lat="37.651315" lon="14.738205"><ele>262.3333333333333</ele><time>2026-05-05T09:57:00.172Z</time></trkpt><trkpt lat="37.6512867" lon="14.7379483"><ele>262.6666666666667</ele><time>2026-05-05T09:57:01.171Z</time></trkpt><trkpt lat="37.6512517" lon="14.7377067"><ele>263.0</ele><time>2026-05-05T09:57:02.171Z</time></trkpt><trkpt lat="37.6512217" lon="14.73748"><ele>263.0</ele><time>2026-05-05T09:57:03.172Z</time></trkpt><trkpt lat="37.651195" lon="14.737265"><ele>263.0</ele><time>2026-05-05T09:57:04.172Z</time></trkpt><trkpt lat="37.651175" lon="14.7370433"><ele>263.0</ele><time>2026-05-05T09:57:05.171Z</time></trkpt><trkpt lat="37.6511733" lon="14.7368167"><ele>263.0</ele><time>2026-05-05T09:57:06.172Z</time></trkpt><trkpt lat="37.6512033" lon="14.73658"><ele>263.0</ele><time>2026-05-05T09:57:07.171Z</time></trkpt><trkpt lat="37.6512533" lon="14.736345"><ele>263.0</ele><time>2026-05-05T09:57:08.171Z</time></trkpt><trkpt lat="37.6513083" lon="14.7361167"><ele>264.33333333333337</ele><time>2026-05-05T09:57:09.171Z</time></trkpt><trkpt lat="37.6513667" lon="14.7359"><ele>265.6666666666667</ele><time>2026-05-05T09:57:10.171Z</time></trkpt><trkpt lat="37.6514317" lon="14.735695"><ele>267.0</ele><time>2026-05-05T09:57:11.171Z</time></trkpt><trkpt lat="37.651505" lon="14.7355083"><ele>267.0</ele><time>2026-05-05T09:57:12.171Z</time></trkpt><trkpt lat="37.651595" lon="14.7353483"><ele>267.0</ele><time>2026-05-05T09:57:13.172Z</time></trkpt><trkpt lat="37.6516967" lon="14.7352017"><ele>267.0</ele><time>2026-05-05T09:57:14.171Z</time></trkpt><trkpt lat="37.6517833" lon="14.735055"><ele>269.0</ele><time>2026-05-05T09:57:15.171Z</time></trkpt><trkpt lat="37.65184" lon="14.7348933"><ele>271.0</ele><time>2026-05-05T09:57:16.171Z</time></trkpt><trkpt lat="37.6518417" lon="14.7347217"><ele>273.0</ele><time>2026-05-05T09:57:17.171Z</time></trkpt><trkpt lat="37.6518183" lon="14.7345483"><ele>275.0</ele><time>2026-05-05T09:57:18.171Z</time></trkpt><trkpt lat="37.6517967" lon="14.7343833"><ele>275.0</ele><time>2026-05-05T09:57:19.171Z</time></trkpt><trkpt lat="37.6518167" lon="14.7342267"><ele>275.0</ele><time>2026-05-05T09:57:20.171Z</time></trkpt><trkpt lat="37.6518733" lon="14.73407"><ele>275.0</ele><time>2026-05-05T09:57:21.171Z</time></trkpt><trkpt lat="37.6519133" lon="14.733895"><ele>275.0</ele><time>2026-05-05T09:57:22.171Z</time></trkpt><trkpt lat="37.6519183" lon="14.7337067"><ele>275.5</ele><time>2026-05-05T09:57:23.171Z</time></trkpt><trkpt lat="37.6518983" lon="14.733525"><ele>276.0</ele><time>2026-05-05T09:57:24.171Z</time></trkpt><trkpt lat="37.6518667" lon="14.7333517"><ele>276.5</ele><time>2026-05-05T09:57:25.171Z</time></trkpt><trkpt lat="37.65185" lon="14.7331817"><ele>277.0</ele><time>2026-05-05T09:57:26.171Z</time></trkpt><trkpt lat="37.6518483" lon="14.7330317"><ele>277.0</ele><time>2026-05-05T09:57:27.171Z</time></trkpt><trkpt lat="37.651895" lon="14.7328967"><ele>277.0</ele><time>2026-05-05T09:57:28.171Z</time></trkpt><trkpt lat="37.6519933" lon="14.73279"><ele>277.0</ele><time>2026-05-05T09:57:29.171Z</time></trkpt><trkpt lat="37.652115" lon="14.7326917"><ele>277.0</ele><time>2026-05-05T09:57:30.171Z</time></trkpt><trkpt lat="37.6522483" lon="14.7325917"><ele>275.0</ele><time>2026-05-05T09:57:31.171Z</time></trkpt><trkpt lat="37.652395" lon="14.7325"><ele>273.0</ele><time>2026-05-05T09:57:32.171Z</time></trkpt><trkpt lat="37.6525433" lon="14.7324417"><ele>271.0</ele><time>2026-05-05T09:57:33.171Z</time></trkpt><trkpt lat="37.6526917" lon="14.7323883"><ele>267.66666666666663</ele><time>2026-05-05T09:57:34.171Z</time></trkpt><trkpt lat="37.6528317" lon="14.732305"><ele>264.3333333333333</ele><time>2026-05-05T09:57:35.171Z</time></trkpt><trkpt lat="37.6529567" lon="14.732185"><ele>261.0</ele><time>2026-05-05T09:57:36.171Z</time></trkpt><trkpt lat="37.6530567" lon="14.7320267"><ele>262.6666666666667</ele><time>2026-05-05T09:57:37.171Z</time></trkpt><trkpt lat="37.653115" lon="14.7318317"><ele>264.33333333333337</ele><time>2026-05-05T09:57:38.171Z</time></trkpt><trkpt lat="37.6531383" lon="14.731605"><ele>266.0</ele><time>2026-05-05T09:57:39.171Z</time></trkpt><trkpt lat="37.65316" lon="14.7313667"><ele>266.0</ele><time>2026-05-05T09:57:40.171Z</time></trkpt><trkpt lat="37.6531883" lon="14.73113"><ele>266.0</ele><time>2026-05-05T09:57:41.171Z</time></trkpt><trkpt lat="37.6532067" lon="14.73089"><ele>266.0</ele><time>2026-05-05T09:57:42.171Z</time></trkpt><trkpt lat="37.6532383" lon="14.7306483"><ele>267.33333333333337</ele><time>2026-05-05T09:57:43.171Z</time></trkpt><trkpt lat="37.6532667" lon="14.73041"><ele>268.6666666666667</ele><time>2026-05-05T09:57:44.171Z</time></trkpt><trkpt lat="37.6532917" lon="14.730175"><ele>270.0</ele><time>2026-05-05T09:57:45.171Z</time></trkpt><trkpt lat="37.65332" lon="14.7299433"><ele>270.6666666666667</ele><time>2026-05-05T09:57:46.171Z</time></trkpt><trkpt lat="37.6533483" lon="14.7297183"><ele>271.33333333333337</ele><time>2026-05-05T09:57:47.172Z</time></trkpt><trkpt lat="37.65337" lon="14.7295117"><ele>272.0</ele><time>2026-05-05T09:57:48.171Z</time></trkpt><trkpt lat="37.6533867" lon="14.729315"><ele>272.0</ele><time>2026-05-05T09:57:49.171Z</time></trkpt><trkpt lat="37.6534067" lon="14.7291367"><ele>272.0</ele><time>2026-05-05T09:57:50.171Z</time></trkpt><trkpt lat="37.65344" lon="14.7289817"><ele>272.0</ele><time>2026-05-05T09:57:51.171Z</time></trkpt><trkpt lat="37.6535083" lon="14.728855"><ele>272.0</ele><time>2026-05-05T09:57:52.171Z</time></trkpt><trkpt lat="37.6536217" lon="14.7287717"><ele>271.5</ele><time>2026-05-05T09:57:53.171Z</time></trkpt><trkpt lat="37.653755" lon="14.728715"><ele>271.0</ele><time>2026-05-05T09:57:54.172Z</time></trkpt><trkpt lat="37.6538983" lon="14.72867"><ele>270.5</ele><time>2026-05-05T09:57:55.172Z</time></trkpt><trkpt lat="37.654035" lon="14.7285983"><ele>270.0</ele><time>2026-05-05T09:57:56.172Z</time></trkpt><trkpt lat="37.6541667" lon="14.7284933"><ele>270.0</ele><time>2026-05-05T09:57:57.171Z</time></trkpt><trkpt lat="37.6542933" lon="14.7283683"><ele>270.0</ele><time>2026-05-05T09:57:58.171Z</time></trkpt><trkpt lat="37.6544133" lon="14.7282333"><ele>270.0</ele><time>2026-05-05T09:57:59.171Z</time></trkpt><trkpt lat="37.6545133" lon="14.7281083"><ele>270.0</ele><time>2026-05-05T09:58:00.171Z</time></trkpt><trkpt lat="37.6545967" lon="14.7279867"><ele>270.0</ele><time>2026-05-05T09:58:01.171Z</time></trkpt><trkpt lat="37.6546533" lon="14.7278467"><ele>270.0</ele><time>2026-05-05T09:58:02.171Z</time></trkpt><trkpt lat="37.6546833" lon="14.7276733"><ele>270.0</ele><time>2026-05-05T09:58:03.171Z</time></trkpt><trkpt lat="37.6546617" lon="14.7275083"><ele>274.3333333333333</ele><time>2026-05-05T09:58:04.171Z</time></trkpt><trkpt lat="37.654605" lon="14.7273283"><ele>278.66666666666663</ele><time>2026-05-05T09:58:05.171Z</time></trkpt><trkpt lat="37.6545383" lon="14.7271483"><ele>283.0</ele><time>2026-05-05T09:58:06.171Z</time></trkpt><trkpt lat="37.6544517" lon="14.72698"><ele>283.0</ele><time>2026-05-05T09:58:07.171Z</time></trkpt><trkpt lat="37.6543433" lon="14.726835"><ele>283.0</ele><time>2026-05-05T09:58:08.171Z</time></trkpt><trkpt lat="37.65423" lon="14.7267017"><ele>283.0</ele><time>2026-05-05T09:58:09.171Z</time></trkpt><trkpt lat="37.65415" lon="14.726555"><ele>283.0</ele><time>2026-05-05T09:58:10.171Z</time></trkpt><trkpt lat="37.6540867" lon="14.7263783"><ele>283.0</ele><time>2026-05-05T09:58:11.171Z</time></trkpt><trkpt lat="37.6540433" lon="14.7261917"><ele>283.0</ele><time>2026-05-05T09:58:12.172Z</time></trkpt><trkpt lat="37.6540117" lon="14.7259967"><ele>282.3333333333333</ele><time>2026-05-05T09:58:13.172Z</time></trkpt><trkpt lat="37.6540083" lon="14.7257983"><ele>281.6666666666667</ele><time>2026-05-05T09:58:14.171Z</time></trkpt><trkpt lat="37.65402" lon="14.725595"><ele>281.0</ele><time>2026-05-05T09:58:15.171Z</time></trkpt><trkpt lat="37.6540433" lon="14.72539"><ele>281.6666666666667</ele><time>2026-05-05T09:58:16.171Z</time></trkpt><trkpt lat="37.6540667" lon="14.7251867"><ele>282.3333333333333</ele><time>2026-05-05T09:58:17.171Z</time></trkpt><trkpt lat="37.6540917" lon="14.7249867"><ele>283.0</ele><time>2026-05-05T09:58:18.171Z</time></trkpt><trkpt lat="37.65412" lon="14.72479"><ele>283.0</ele><time>2026-05-05T09:58:19.171Z</time></trkpt><trkpt lat="37.6541583" lon="14.7246017"><ele>283.0</ele><time>2026-05-05T09:58:20.172Z</time></trkpt><trkpt lat="37.654195" lon="14.7244267"><ele>283.0</ele><time>2026-05-05T09:58:21.172Z</time></trkpt><trkpt lat="37.6542483" lon="14.7242433"><ele>284.0</ele><time>2026-05-05T09:58:22.171Z</time></trkpt><trkpt lat="37.6543317" lon="14.72406"><ele>285.0</ele><time>2026-05-05T09:58:23.171Z</time></trkpt><trkpt lat="37.6544383" lon="14.7238767"><ele>286.0</ele><time>2026-05-05T09:58:24.171Z</time></trkpt><trkpt lat="37.6545567" lon="14.7237"><ele>288.3333333333333</ele><time>2026-05-05T09:58:25.171Z</time></trkpt><trkpt lat="37.6546817" lon="14.7235233"><ele>290.6666666666667</ele><time>2026-05-05T09:58:26.171Z</time></trkpt><trkpt lat="37.654805" lon="14.723345"><ele>293.0</ele><time>2026-05-05T09:58:27.172Z</time></trkpt><trkpt lat="37.654935" lon="14.7231783"><ele>293.0</ele><time>2026-05-05T09:58:28.171Z</time></trkpt><trkpt lat="37.6550667" lon="14.72303"><ele>293.0</ele><time>2026-05-05T09:58:29.171Z</time></trkpt><trkpt lat="37.65519" lon="14.7228633"><ele>293.0</ele><time>2026-05-05T09:58:30.171Z</time></trkpt><trkpt lat="37.655305" lon="14.7226833"><ele>291.0</ele><time>2026-05-05T09:58:31.171Z</time></trkpt><trkpt lat="37.655415" lon="14.722495"><ele>289.0</ele><time>2026-05-05T09:58:32.171Z</time></trkpt><trkpt lat="37.655525" lon="14.7223183"><ele>287.0</ele><time>2026-05-05T09:58:33.171Z</time></trkpt><trkpt lat="37.6556267" lon="14.7221567"><ele>287.0</ele><time>2026-05-05T09:58:34.171Z</time></trkpt><trkpt lat="37.65573" lon="14.721995"><ele>287.0</ele><time>2026-05-05T09:58:35.171Z</time></trkpt><trkpt lat="37.6558133" lon="14.7218317"><ele>287.0</ele><time>2026-05-05T09:58:36.171Z</time></trkpt><trkpt lat="37.65587" lon="14.72166"><ele>287.6666666666667</ele><time>2026-05-05T09:58:37.171Z</time></trkpt><trkpt lat="37.6558917" lon="14.7214683"><ele>288.3333333333333</ele><time>2026-05-05T09:58:38.171Z</time></trkpt><trkpt lat="37.6558983" lon="14.7212733"><ele>289.0</ele><time>2026-05-05T09:58:39.172Z</time></trkpt><trkpt lat="37.65589" lon="14.7210767"><ele>288.3333333333333</ele><time>2026-05-05T09:58:40.171Z</time></trkpt><trkpt lat="37.6558733" lon="14.72088"><ele>287.6666666666667</ele><time>2026-05-05T09:58:41.171Z</time></trkpt><trkpt lat="37.6558417" lon="14.7206683"><ele>287.0</ele><time>2026-05-05T09:58:42.171Z</time></trkpt><trkpt lat="37.6557783" lon="14.72045"><ele>287.0</ele><time>2026-05-05T09:58:43.171Z</time></trkpt><trkpt lat="37.6556983" lon="14.7202433"><ele>287.0</ele><time>2026-05-05T09:58:44.171Z</time></trkpt><trkpt lat="37.6556117" lon="14.72004"><ele>287.0</ele><time>2026-05-05T09:58:45.171Z</time></trkpt><trkpt lat="37.65553" lon="14.7198517"><ele>284.33333333333337</ele><time>2026-05-05T09:58:46.171Z</time></trkpt><trkpt lat="37.6554517" lon="14.719665"><ele>281.6666666666667</ele><time>2026-05-05T09:58:47.171Z</time></trkpt><trkpt lat="37.6553817" lon="14.71948"><ele>279.0</ele><time>2026-05-05T09:58:48.171Z</time></trkpt><trkpt lat="37.655305" lon="14.7193017"><ele>279.3333333333333</ele><time>2026-05-05T09:58:49.171Z</time></trkpt><trkpt lat="37.65523" lon="14.7191117"><ele>279.66666666666663</ele><time>2026-05-05T09:58:50.172Z</time></trkpt><trkpt lat="37.6551517" lon="14.7189217"><ele>280.0</ele><time>2026-05-05T09:58:51.171Z</time></trkpt><trkpt lat="37.6550683" lon="14.71872"><ele>278.66666666666663</ele><time>2026-05-05T09:58:52.171Z</time></trkpt><trkpt lat="37.6549833" lon="14.718515"><ele>277.3333333333333</ele><time>2026-05-05T09:58:53.172Z</time></trkpt><trkpt lat="37.6548967" lon="14.7183167"><ele>276.0</ele><time>2026-05-05T09:58:54.171Z</time></trkpt><trkpt lat="37.654805" lon="14.71812"><ele>276.0</ele><time>2026-05-05T09:58:55.171Z</time></trkpt><trkpt lat="37.6547283" lon="14.717925"><ele>276.0</ele><time>2026-05-05T09:58:56.171Z</time></trkpt><trkpt lat="37.65465" lon="14.7177433"><ele>276.0</ele><time>2026-05-05T09:58:57.171Z</time></trkpt><trkpt lat="37.6545783" lon="14.7175633"><ele>276.0</ele><time>2026-05-05T09:58:58.171Z</time></trkpt><trkpt lat="37.6545183" lon="14.7173917"><ele>276.0</ele><time>2026-05-05T09:58:59.171Z</time></trkpt><trkpt lat="37.6544683" lon="14.7172217"><ele>276.0</ele><time>2026-05-05T09:59:00.171Z</time></trkpt><trkpt lat="37.6544433" lon="14.717035"><ele>276.0</ele><time>2026-05-05T09:59:01.171Z</time></trkpt><trkpt lat="37.6544467" lon="14.7168567"><ele>275.5</ele><time>2026-05-05T09:59:02.171Z</time></trkpt><trkpt lat="37.6544883" lon="14.7167067"><ele>275.0</ele><time>2026-05-05T09:59:03.171Z</time></trkpt><trkpt lat="37.6545867" lon="14.7165683"><ele>274.5</ele><time>2026-05-05T09:59:04.171Z</time></trkpt><trkpt lat="37.6547083" lon="14.7164383"><ele>274.0</ele><time>2026-05-05T09:59:05.171Z</time></trkpt><trkpt lat="37.654825" lon="14.7162917"><ele>274.0</ele><time>2026-05-05T09:59:06.171Z</time></trkpt><trkpt lat="37.654925" lon="14.716115"><ele>274.0</ele><time>2026-05-05T09:59:07.171Z</time></trkpt><trkpt lat="37.6550217" lon="14.71593"><ele>274.0</ele><time>2026-05-05T09:59:08.171Z</time></trkpt><trkpt lat="37.6551133" lon="14.7157417"><ele>275.0</ele><time>2026-05-05T09:59:09.172Z</time></trkpt><trkpt lat="37.6552133" lon="14.7155583"><ele>276.0</ele><time>2026-05-05T09:59:10.171Z</time></trkpt><trkpt lat="37.6553183" lon="14.7153667"><ele>277.0</ele><time>2026-05-05T09:59:11.171Z</time></trkpt><trkpt lat="37.6554233" lon="14.7151667"><ele>278.66666666666663</ele><time>2026-05-05T09:59:12.171Z</time></trkpt><trkpt lat="37.6555233" lon="14.7149633"><ele>280.3333333333333</ele><time>2026-05-05T09:59:13.171Z</time></trkpt><trkpt lat="37.655615" lon="14.7147533"><ele>282.0</ele><time>2026-05-05T09:59:14.171Z</time></trkpt><trkpt lat="37.6557" lon="14.71454"><ele>282.6666666666667</ele><time>2026-05-05T09:59:15.171Z</time></trkpt><trkpt lat="37.65578" lon="14.71432"><ele>283.33333333333337</ele><time>2026-05-05T09:59:16.171Z</time></trkpt><trkpt lat="37.6558533" lon="14.7140867"><ele>284.0</ele><time>2026-05-05T09:59:17.171Z</time></trkpt><trkpt lat="37.655915" lon="14.7138533"><ele>284.0</ele><time>2026-05-05T09:59:18.171Z</time></trkpt><trkpt lat="37.655975" lon="14.7136117"><ele>284.0</ele><time>2026-05-05T09:59:19.172Z</time></trkpt><trkpt lat="37.6560317" lon="14.7133633"><ele>284.0</ele><time>2026-05-05T09:59:20.171Z</time></trkpt><trkpt lat="37.6560867" lon="14.7131183"><ele>284.6666666666667</ele><time>2026-05-05T09:59:21.171Z</time></trkpt><trkpt lat="37.656145" lon="14.7128717"><ele>285.3333333333333</ele><time>2026-05-05T09:59:22.171Z</time></trkpt><trkpt lat="37.656205" lon="14.7126217"><ele>286.0</ele><time>2026-05-05T09:59:23.171Z</time></trkpt><trkpt lat="37.6562667" lon="14.7123733"><ele>286.0</ele><time>2026-05-05T09:59:24.171Z</time></trkpt><trkpt lat="37.6563267" lon="14.7121267"><ele>286.0</ele><time>2026-05-05T09:59:25.171Z</time></trkpt><trkpt lat="37.6563933" lon="14.7118783"><ele>286.0</ele><time>2026-05-05T09:59:26.172Z</time></trkpt><trkpt lat="37.656455" lon="14.7116267"><ele>286.0</ele><time>2026-05-05T09:59:27.171Z</time></trkpt><trkpt lat="37.6565167" lon="14.7113717"><ele>286.0</ele><time>2026-05-05T09:59:28.171Z</time></trkpt><trkpt lat="37.6565833" lon="14.711115"><ele>286.0</ele><time>2026-05-05T09:59:29.171Z</time></trkpt><trkpt lat="37.656645" lon="14.7108617"><ele>287.0</ele><time>2026-05-05T09:59:30.171Z</time></trkpt><trkpt lat="37.6567117" lon="14.710605"><ele>288.0</ele><time>2026-05-05T09:59:31.171Z</time></trkpt><trkpt lat="37.6567783" lon="14.71035"><ele>289.0</ele><time>2026-05-05T09:59:32.171Z</time></trkpt><trkpt lat="37.656845" lon="14.7100917"><ele>289.3333333333333</ele><time>2026-05-05T09:59:33.171Z</time></trkpt><trkpt lat="37.6569083" lon="14.7098383"><ele>289.6666666666667</ele><time>2026-05-05T09:59:34.171Z</time></trkpt><trkpt lat="37.6569667" lon="14.7096"><ele>290.0</ele><time>2026-05-05T09:59:35.171Z</time></trkpt><trkpt lat="37.6570217" lon="14.709375"><ele>291.0</ele><time>2026-05-05T09:59:36.171Z</time></trkpt><trkpt lat="37.6570667" lon="14.709155"><ele>292.0</ele><time>2026-05-05T09:59:37.171Z</time></trkpt><trkpt lat="37.6571167" lon="14.7089383"><ele>293.0</ele><time>2026-05-05T09:59:38.171Z</time></trkpt><trkpt lat="37.6571717" lon="14.708725"><ele>293.0</ele><time>2026-05-05T09:59:39.171Z</time></trkpt><trkpt lat="37.6572317" lon="14.708515"><ele>293.0</ele><time>2026-05-05T09:59:40.171Z</time></trkpt><trkpt lat="37.657285" lon="14.7082967"><ele>293.0</ele><time>2026-05-05T09:59:41.171Z</time></trkpt><trkpt lat="37.6573417" lon="14.708075"><ele>293.0</ele><time>2026-05-05T09:59:42.171Z</time></trkpt><trkpt lat="37.6573967" lon="14.707845"><ele>293.0</ele><time>2026-05-05T09:59:43.171Z</time></trkpt><trkpt lat="37.6574533" lon="14.7076167"><ele>293.0</ele><time>2026-05-05T09:59:44.171Z</time></trkpt><trkpt lat="37.6575067" lon="14.70739"><ele>294.0</ele><time>2026-05-05T09:59:45.171Z</time></trkpt><trkpt lat="37.6575633" lon="14.7071617"><ele>295.0</ele><time>2026-05-05T09:59:46.171Z</time></trkpt><trkpt lat="37.6576183" lon="14.7069333"><ele>296.0</ele><time>2026-05-05T09:59:47.171Z</time></trkpt><trkpt lat="37.6576783" lon="14.7066967"><ele>296.0</ele><time>2026-05-05T09:59:48.171Z</time></trkpt><trkpt lat="37.657735" lon="14.7064633"><ele>296.0</ele><time>2026-05-05T09:59:49.171Z</time></trkpt><trkpt lat="37.6577917" lon="14.70623"><ele>296.0</ele><time>2026-05-05T09:59:50.171Z</time></trkpt><trkpt lat="37.6578483" lon="14.705995"><ele>296.6666666666667</ele><time>2026-05-05T09:59:51.171Z</time></trkpt><trkpt lat="37.657905" lon="14.705765"><ele>297.3333333333333</ele><time>2026-05-05T09:59:52.171Z</time></trkpt><trkpt lat="37.6579667" lon="14.7055233"><ele>298.0</ele><time>2026-05-05T09:59:53.171Z</time></trkpt><trkpt lat="37.6580233" lon="14.7052967"><ele>298.3333333333333</ele><time>2026-05-05T09:59:54.171Z</time></trkpt><trkpt lat="37.6580733" lon="14.7050867"><ele>298.6666666666667</ele><time>2026-05-05T09:59:55.172Z</time></trkpt><trkpt lat="37.6581217" lon="14.7048867"><ele>299.0</ele><time>2026-05-05T09:59:56.171Z</time></trkpt><trkpt lat="37.6581683" lon="14.704695"><ele>299.0</ele><time>2026-05-05T09:59:57.17Z</time></trkpt><trkpt lat="37.658215" lon="14.7045083"><ele>299.0</ele><time>2026-05-05T09:59:58.17Z</time></trkpt><trkpt lat="37.6582633" lon="14.704325"><ele>299.0</ele><time>2026-05-05T09:59:59.17Z</time></trkpt><trkpt lat="37.658325" lon="14.70415"><ele>298.6666666666667</ele><time>2026-05-05T10:00:00.17Z</time></trkpt><trkpt lat="37.6584233" lon="14.7039883"><ele>298.3333333333333</ele><time>2026-05-05T10:00:01.17Z</time></trkpt><trkpt lat="37.6585483" lon="14.7038467"><ele>298.0</ele><time>2026-05-05T10:00:02.17Z</time></trkpt><trkpt lat="37.658685" lon="14.7037133"><ele>300.66666666666663</ele><time>2026-05-05T10:00:03.17Z</time></trkpt><trkpt lat="37.6588167" lon="14.703575"><ele>303.3333333333333</ele><time>2026-05-05T10:00:04.17Z</time></trkpt><trkpt lat="37.6589467" lon="14.7034283"><ele>306.0</ele><time>2026-05-05T10:00:05.17Z</time></trkpt><trkpt lat="37.6590833" lon="14.70328"><ele>306.0</ele><time>2026-05-05T10:00:06.17Z</time></trkpt><trkpt lat="37.6592367" lon="14.703135"><ele>306.0</ele><time>2026-05-05T10:00:07.17Z</time></trkpt><trkpt lat="37.65939" lon="14.7030117"><ele>306.0</ele><time>2026-05-05T10:00:08.17Z</time></trkpt><trkpt lat="37.6595517" lon="14.7029"><ele>305.0</ele><time>2026-05-05T10:00:09.17Z</time></trkpt><trkpt lat="37.659715" lon="14.702805"><ele>304.0</ele><time>2026-05-05T10:00:10.17Z</time></trkpt><trkpt lat="37.659875" lon="14.7027067"><ele>303.0</ele><time>2026-05-05T10:00:11.171Z</time></trkpt><trkpt lat="37.6600183" lon="14.702595"><ele>306.3333333333333</ele><time>2026-05-05T10:00:12.17Z</time></trkpt><trkpt lat="37.66013" lon="14.7024667"><ele>309.66666666666663</ele><time>2026-05-05T10:00:13.17Z</time></trkpt><trkpt lat="37.6602033" lon="14.70231"><ele>313.0</ele><time>2026-05-05T10:00:14.17Z</time></trkpt><trkpt lat="37.6602367" lon="14.7021167"><ele>313.0</ele><time>2026-05-05T10:00:15.17Z</time></trkpt><trkpt lat="37.6602283" lon="14.7019183"><ele>313.0</ele><time>2026-05-05T10:00:16.17Z</time></trkpt><trkpt lat="37.6602117" lon="14.7017033"><ele>313.0</ele><time>2026-05-05T10:00:17.17Z</time></trkpt><trkpt lat="37.6601933" lon="14.701485"><ele>314.66666666666663</ele><time>2026-05-05T10:00:18.17Z</time></trkpt><trkpt lat="37.66017" lon="14.70126"><ele>316.3333333333333</ele><time>2026-05-05T10:00:19.171Z</time></trkpt><trkpt lat="37.660145" lon="14.7010283"><ele>318.0</ele><time>2026-05-05T10:00:20.17Z</time></trkpt><trkpt lat="37.6601133" lon="14.7007933"><ele>319.6666666666667</ele><time>2026-05-05T10:00:21.17Z</time></trkpt><trkpt lat="37.6600783" lon="14.70056"><ele>321.33333333333337</ele><time>2026-05-05T10:00:22.17Z</time></trkpt><trkpt lat="37.6600467" lon="14.7003217"><ele>323.0</ele><time>2026-05-05T10:00:23.17Z</time></trkpt><trkpt lat="37.66002" lon="14.7000867"><ele>323.0</ele><time>2026-05-05T10:00:24.171Z</time></trkpt><trkpt lat="37.6599917" lon="14.69987"><ele>323.0</ele><time>2026-05-05T10:00:25.17Z</time></trkpt><trkpt lat="37.6599667" lon="14.699665"><ele>323.0</ele><time>2026-05-05T10:00:26.17Z</time></trkpt><trkpt lat="37.65994" lon="14.6994833"><ele>322.75</ele><time>2026-05-05T10:00:27.17Z</time></trkpt><trkpt lat="37.6599067" lon="14.6993283"><ele>322.5</ele><time>2026-05-05T10:00:28.17Z</time></trkpt><trkpt lat="37.6598433" lon="14.6992017"><ele>322.25</ele><time>2026-05-05T10:00:29.17Z</time></trkpt><trkpt lat="37.6597733" lon="14.6990917"><ele>322.0</ele><time>2026-05-05T10:00:30.17Z</time></trkpt><trkpt lat="37.6597167" lon="14.6989817"><ele>322.0</ele><time>2026-05-05T10:00:31.17Z</time></trkpt><trkpt lat="37.6596933" lon="14.69886"><ele>322.0</ele><time>2026-05-05T10:00:32.17Z</time></trkpt><trkpt lat="37.6597183" lon="14.6987467"><ele>322.0</ele><time>2026-05-05T10:00:33.171Z</time></trkpt><trkpt lat="37.65978" lon="14.6986367"><ele>322.0</ele><time>2026-05-05T10:00:34.17Z</time></trkpt><trkpt lat="37.6598417" lon="14.6985033"><ele>322.0</ele><time>2026-05-05T10:00:35.17Z</time></trkpt><trkpt lat="37.6598767" lon="14.6983383"><ele>324.3333333333333</ele><time>2026-05-05T10:00:36.17Z</time></trkpt><trkpt lat="37.6598967" lon="14.69816"><ele>326.6666666666667</ele><time>2026-05-05T10:00:37.17Z</time></trkpt><trkpt lat="37.659905" lon="14.6979633"><ele>329.0</ele><time>2026-05-05T10:00:38.17Z</time></trkpt><trkpt lat="37.6599283" lon="14.6977567"><ele>330.0</ele><time>2026-05-05T10:00:39.17Z</time></trkpt><trkpt lat="37.6599533" lon="14.6975617"><ele>331.0</ele><time>2026-05-05T10:00:40.17Z</time></trkpt><trkpt lat="37.6599667" lon="14.697355"><ele>332.0</ele><time>2026-05-05T10:00:41.17Z</time></trkpt><trkpt lat="37.6600017" lon="14.69717"><ele>332.0</ele><time>2026-05-05T10:00:42.17Z</time></trkpt><trkpt lat="37.66005" lon="14.6969917"><ele>332.0</ele><time>2026-05-05T10:00:43.17Z</time></trkpt><trkpt lat="37.6601433" lon="14.69684"><ele>332.0</ele><time>2026-05-05T10:00:44.17Z</time></trkpt><trkpt lat="37.6602667" lon="14.6966967"><ele>332.33333333333337</ele><time>2026-05-05T10:00:45.171Z</time></trkpt><trkpt lat="37.66039" lon="14.6965517"><ele>332.6666666666667</ele><time>2026-05-05T10:00:46.17Z</time></trkpt><trkpt lat="37.6605133" lon="14.6963917"><ele>333.0</ele><time>2026-05-05T10:00:47.17Z</time></trkpt><trkpt lat="37.6606333" lon="14.6962317"><ele>336.3333333333333</ele><time>2026-05-05T10:00:48.17Z</time></trkpt><trkpt lat="37.6607483" lon="14.69606"><ele>339.66666666666663</ele><time>2026-05-05T10:00:49.171Z</time></trkpt><trkpt lat="37.66085" lon="14.69587"><ele>343.0</ele><time>2026-05-05T10:00:50.17Z</time></trkpt><trkpt lat="37.6609317" lon="14.6956617"><ele>343.0</ele><time>2026-05-05T10:00:51.17Z</time></trkpt><trkpt lat="37.6609983" lon="14.6954467"><ele>343.0</ele><time>2026-05-05T10:00:52.17Z</time></trkpt><trkpt lat="37.6610583" lon="14.6952267"><ele>343.0</ele><time>2026-05-05T10:00:53.171Z</time></trkpt><trkpt lat="37.6611167" lon="14.6950117"><ele>341.66666666666663</ele><time>2026-05-05T10:00:54.17Z</time></trkpt><trkpt lat="37.66119" lon="14.694815"><ele>340.3333333333333</ele><time>2026-05-05T10:00:55.17Z</time></trkpt><trkpt lat="37.6612883" lon="14.69465"><ele>339.0</ele><time>2026-05-05T10:00:56.17Z</time></trkpt><trkpt lat="37.6613983" lon="14.694515"><ele>342.0</ele><time>2026-05-05T10:00:57.17Z</time></trkpt><trkpt lat="37.661495" lon="14.694385"><ele>345.0</ele><time>2026-05-05T10:00:58.17Z</time></trkpt><trkpt lat="37.6615667" lon="14.6942267"><ele>348.0</ele><time>2026-05-05T10:00:59.17Z</time></trkpt><trkpt lat="37.6616133" lon="14.6940467"><ele>351.0</ele><time>2026-05-05T10:01:00.17Z</time></trkpt><trkpt lat="37.66162" lon="14.69386"><ele>351.0</ele><time>2026-05-05T10:01:01.171Z</time></trkpt><trkpt lat="37.6615867" lon="14.693675"><ele>351.0</ele><time>2026-05-05T10:01:02.17Z</time></trkpt><trkpt lat="37.6615183" lon="14.6934933"><ele>351.0</ele><time>2026-05-05T10:01:03.17Z</time></trkpt><trkpt lat="37.66144" lon="14.69331"><ele>352.3333333333333</ele><time>2026-05-05T10:01:04.17Z</time></trkpt><trkpt lat="37.661355" lon="14.6931183"><ele>353.66666666666663</ele><time>2026-05-05T10:01:05.171Z</time></trkpt><trkpt lat="37.6612617" lon="14.692925"><ele>355.0</ele><time>2026-05-05T10:01:06.171Z</time></trkpt><trkpt lat="37.6611667" lon="14.6927267"><ele>360.0</ele><time>2026-05-05T10:01:07.17Z</time></trkpt><trkpt lat="37.661065" lon="14.6925267"><ele>365.0</ele><time>2026-05-05T10:01:08.17Z</time></trkpt><trkpt lat="37.6609733" lon="14.69233"><ele>370.0</ele><time>2026-05-05T10:01:09.17Z</time></trkpt><trkpt lat="37.660885" lon="14.6921317"><ele>370.0</ele><time>2026-05-05T10:01:10.17Z</time></trkpt><trkpt lat="37.6608117" lon="14.6919367"><ele>370.0</ele><time>2026-05-05T10:01:11.171Z</time></trkpt><trkpt lat="37.6607567" lon="14.69173"><ele>370.0</ele><time>2026-05-05T10:01:12.17Z</time></trkpt><trkpt lat="37.660725" lon="14.69152"><ele>370.3333333333333</ele><time>2026-05-05T10:01:13.171Z</time></trkpt><trkpt lat="37.6607133" lon="14.6912983"><ele>370.6666666666667</ele><time>2026-05-05T10:01:14.17Z</time></trkpt><trkpt lat="37.6607217" lon="14.69107"><ele>371.0</ele><time>2026-05-05T10:01:15.17Z</time></trkpt><trkpt lat="37.6607283" lon="14.6908467"><ele>372.33333333333337</ele><time>2026-05-05T10:01:16.171Z</time></trkpt><trkpt lat="37.6607433" lon="14.69063"><ele>373.6666666666667</ele><time>2026-05-05T10:01:17.17Z</time></trkpt><trkpt lat="37.66075" lon="14.69043"><ele>375.0</ele><time>2026-05-05T10:01:18.17Z</time></trkpt><trkpt lat="37.66075" lon="14.6902383"><ele>376.75</ele><time>2026-05-05T10:01:19.17Z</time></trkpt><trkpt lat="37.6607483" lon="14.69007"><ele>378.5</ele><time>2026-05-05T10:01:20.171Z</time></trkpt><trkpt lat="37.6607567" lon="14.6899317"><ele>380.25</ele><time>2026-05-05T10:01:21.17Z</time></trkpt><trkpt lat="37.6607917" lon="14.6898017"><ele>382.0</ele><time>2026-05-05T10:01:22.17Z</time></trkpt><trkpt lat="37.6608667" lon="14.6897"><ele>382.0</ele><time>2026-05-05T10:01:23.171Z</time></trkpt><trkpt lat="37.6609783" lon="14.6896183"><ele>382.0</ele><time>2026-05-05T10:01:24.17Z</time></trkpt><trkpt lat="37.6611" lon="14.6895417"><ele>382.0</ele><time>2026-05-05T10:01:25.17Z</time></trkpt><trkpt lat="37.6612217" lon="14.6894533"><ele>382.0</ele><time>2026-05-05T10:01:26.17Z</time></trkpt><trkpt lat="37.6613483" lon="14.6893533"><ele>383.3333333333333</ele><time>2026-05-05T10:01:27.17Z</time></trkpt><trkpt lat="37.66146" lon="14.6892383"><ele>384.66666666666663</ele><time>2026-05-05T10:01:28.17Z</time></trkpt><trkpt lat="37.6615533" lon="14.6890917"><ele>386.0</ele><time>2026-05-05T10:01:29.17Z</time></trkpt><trkpt lat="37.6616333" lon="14.688915"><ele>386.0</ele><time>2026-05-05T10:01:30.17Z</time></trkpt><trkpt lat="37.6616933" lon="14.6887233"><ele>386.0</ele><time>2026-05-05T10:01:31.171Z</time></trkpt><trkpt lat="37.6617383" lon="14.6885233"><ele>386.0</ele><time>2026-05-05T10:01:32.17Z</time></trkpt><trkpt lat="37.6617767" lon="14.6883133"><ele>390.0</ele><time>2026-05-05T10:01:33.17Z</time></trkpt><trkpt lat="37.661825" lon="14.6881083"><ele>394.0</ele><time>2026-05-05T10:01:34.171Z</time></trkpt><trkpt lat="37.6618633" lon="14.6879167"><ele>398.0</ele><time>2026-05-05T10:01:35.17Z</time></trkpt><trkpt lat="37.661885" lon="14.6877417"><ele>396.5</ele><time>2026-05-05T10:01:36.17Z</time></trkpt><trkpt lat="37.661925" lon="14.6875767"><ele>395.0</ele><time>2026-05-05T10:01:37.17Z</time></trkpt><trkpt lat="37.6619717" lon="14.68743"><ele>393.5</ele><time>2026-05-05T10:01:38.171Z</time></trkpt><trkpt lat="37.662055" lon="14.6873"><ele>392.0</ele><time>2026-05-05T10:01:39.17Z</time></trkpt><trkpt lat="37.6621583" lon="14.6871967"><ele>392.0</ele><time>2026-05-05T10:01:40.17Z</time></trkpt><trkpt lat="37.6622667" lon="14.6871133"><ele>392.0</ele><time>2026-05-05T10:01:41.17Z</time></trkpt><trkpt lat="37.6623583" lon="14.687025"><ele>392.0</ele><time>2026-05-05T10:01:42.17Z</time></trkpt><trkpt lat="37.6624367" lon="14.6869117"><ele>392.0</ele><time>2026-05-05T10:01:43.17Z</time></trkpt><trkpt lat="37.6624833" lon="14.6867667"><ele>395.0</ele><time>2026-05-05T10:01:44.17Z</time></trkpt><trkpt lat="37.662495" lon="14.6865967"><ele>398.0</ele><time>2026-05-05T10:01:45.17Z</time></trkpt><trkpt lat="37.6624867" lon="14.6864017"><ele>401.0</ele><time>2026-05-05T10:01:46.17Z</time></trkpt><trkpt lat="37.6624633" lon="14.6862083"><ele>404.0</ele><time>2026-05-05T10:01:47.17Z</time></trkpt><trkpt lat="37.6624383" lon="14.6860183"><ele>404.3333333333333</ele><time>2026-05-05T10:01:48.17Z</time></trkpt><trkpt lat="37.66241" lon="14.6858333"><ele>404.66666666666663</ele><time>2026-05-05T10:01:49.17Z</time></trkpt><trkpt lat="37.6623633" lon="14.6856483"><ele>405.0</ele><time>2026-05-05T10:01:50.171Z</time></trkpt><trkpt lat="37.662285" lon="14.68546"><ele>405.0</ele><time>2026-05-05T10:01:51.17Z</time></trkpt><trkpt lat="37.6621883" lon="14.6852833"><ele>405.0</ele><time>2026-05-05T10:01:52.17Z</time></trkpt><trkpt lat="37.6620817" lon="14.6851017"><ele>405.0</ele><time>2026-05-05T10:01:53.17Z</time></trkpt><trkpt lat="37.6619733" lon="14.6849167"><ele>406.66666666666663</ele><time>2026-05-05T10:01:54.17Z</time></trkpt><trkpt lat="37.6618617" lon="14.6847233"><ele>408.3333333333333</ele><time>2026-05-05T10:01:55.17Z</time></trkpt><trkpt lat="37.6617517" lon="14.68452"><ele>410.0</ele><time>2026-05-05T10:01:56.17Z</time></trkpt><trkpt lat="37.6616467" lon="14.68434"><ele>410.0</ele><time>2026-05-05T10:01:57.17Z</time></trkpt><trkpt lat="37.6615433" lon="14.68417"><ele>410.0</ele><time>2026-05-05T10:01:58.17Z</time></trkpt><trkpt lat="37.66145" lon="14.6839867"><ele>410.0</ele><time>2026-05-05T10:01:59.171Z</time></trkpt><trkpt lat="37.6613667" lon="14.6837967"><ele>408.66666666666663</ele><time>2026-05-05T10:02:00.17Z</time></trkpt><trkpt lat="37.6613" lon="14.683595"><ele>407.33333333333337</ele><time>2026-05-05T10:02:01.17Z</time></trkpt><trkpt lat="37.661245" lon="14.6833917"><ele>406.0</ele><time>2026-05-05T10:02:02.17Z</time></trkpt><trkpt lat="37.6612" lon="14.6831783"><ele>406.0</ele><time>2026-05-05T10:02:03.17Z</time></trkpt><trkpt lat="37.6611633" lon="14.6829567"><ele>406.0</ele><time>2026-05-05T10:02:04.17Z</time></trkpt><trkpt lat="37.6611483" lon="14.6827517"><ele>406.0</ele><time>2026-05-05T10:02:05.171Z</time></trkpt><trkpt lat="37.6611333" lon="14.68256"><ele>410.6666666666667</ele><time>2026-05-05T10:02:06.171Z</time></trkpt><trkpt lat="37.6611067" lon="14.68237"><ele>415.33333333333337</ele><time>2026-05-05T10:02:07.17Z</time></trkpt><trkpt lat="37.66105" lon="14.6821833"><ele>420.0</ele><time>2026-05-05T10:02:08.17Z</time></trkpt><trkpt lat="37.66098" lon="14.6820133"><ele>420.0</ele><time>2026-05-05T10:02:09.17Z</time></trkpt><trkpt lat="37.660915" lon="14.6818533"><ele>420.0</ele><time>2026-05-05T10:02:10.17Z</time></trkpt><trkpt lat="37.6608583" lon="14.6817083"><ele>420.0</ele><time>2026-05-05T10:02:11.17Z</time></trkpt><trkpt lat="37.6608183" lon="14.6815633"><ele>420.0</ele><time>2026-05-05T10:02:12.171Z</time></trkpt><trkpt lat="37.66081" lon="14.6814183"><ele>420.0</ele><time>2026-05-05T10:02:13.17Z</time></trkpt><trkpt lat="37.6608267" lon="14.681285"><ele>420.0</ele><time>2026-05-05T10:02:14.17Z</time></trkpt><trkpt lat="37.6609033" lon="14.6811617"><ele>420.0</ele><time>2026-05-05T10:02:15.17Z</time></trkpt><trkpt lat="37.66101" lon="14.68104"><ele>420.0</ele><time>2026-05-05T10:02:16.171Z</time></trkpt><trkpt lat="37.6611083" lon="14.68091"><ele>418.25</ele><time>2026-05-05T10:02:17.171Z</time></trkpt><trkpt lat="37.661185" lon="14.6807617"><ele>416.5</ele><time>2026-05-05T10:02:18.17Z</time></trkpt><trkpt lat="37.6612367" lon="14.680595"><ele>414.75</ele><time>2026-05-05T10:02:19.17Z</time></trkpt><trkpt lat="37.66127" lon="14.6803983"><ele>413.0</ele><time>2026-05-05T10:02:20.17Z</time></trkpt><trkpt lat="37.6612867" lon="14.6801967"><ele>413.0</ele><time>2026-05-05T10:02:21.17Z</time></trkpt><trkpt lat="37.6612933" lon="14.679985"><ele>413.0</ele><time>2026-05-05T10:02:22.17Z</time></trkpt><trkpt lat="37.661295" lon="14.6797717"><ele>413.0</ele><time>2026-05-05T10:02:23.17Z</time></trkpt><trkpt lat="37.6613067" lon="14.679575"><ele>413.25</ele><time>2026-05-05T10:02:24.17Z</time></trkpt><trkpt lat="37.66132" lon="14.6794017"><ele>413.5</ele><time>2026-05-05T10:02:25.17Z</time></trkpt><trkpt lat="37.66131" lon="14.67925"><ele>413.75</ele><time>2026-05-05T10:02:26.171Z</time></trkpt><trkpt lat="37.6612667" lon="14.6791083"><ele>414.0</ele><time>2026-05-05T10:02:27.17Z</time></trkpt><trkpt lat="37.66118" lon="14.678985"><ele>420.33333333333337</ele><time>2026-05-05T10:02:28.171Z</time></trkpt><trkpt lat="37.661055" lon="14.6788783"><ele>426.6666666666667</ele><time>2026-05-05T10:02:29.17Z</time></trkpt><trkpt lat="37.6609167" lon="14.6788017"><ele>433.0</ele><time>2026-05-05T10:02:30.17Z</time></trkpt><trkpt lat="37.66076" lon="14.6787417"><ele>433.0</ele><time>2026-05-05T10:02:31.17Z</time></trkpt><trkpt lat="37.6606" lon="14.6786767"><ele>433.0</ele><time>2026-05-05T10:02:32.171Z</time></trkpt><trkpt lat="37.66044" lon="14.6786133"><ele>433.0</ele><time>2026-05-05T10:02:33.17Z</time></trkpt><trkpt lat="37.660295" lon="14.6785467"><ele>434.0</ele><time>2026-05-05T10:02:34.17Z</time></trkpt><trkpt lat="37.6601517" lon="14.6784667"><ele>435.0</ele><time>2026-05-05T10:02:35.171Z</time></trkpt><trkpt lat="37.6600283" lon="14.678355"><ele>436.0</ele><time>2026-05-05T10:02:36.17Z</time></trkpt><trkpt lat="37.6599183" lon="14.678215"><ele>436.0</ele><time>2026-05-05T10:02:37.17Z</time></trkpt><trkpt lat="37.6598133" lon="14.678065"><ele>436.0</ele><time>2026-05-05T10:02:38.17Z</time></trkpt><trkpt lat="37.65971" lon="14.6779167"><ele>436.0</ele><time>2026-05-05T10:02:39.17Z</time></trkpt><trkpt lat="37.6596167" lon="14.6777783"><ele>436.25</ele><time>2026-05-05T10:02:40.17Z</time></trkpt><trkpt lat="37.6595283" lon="14.67766"><ele>436.5</ele><time>2026-05-05T10:02:41.17Z</time></trkpt><trkpt lat="37.659455" lon="14.6775417"><ele>436.75</ele><time>2026-05-05T10:02:42.17Z</time></trkpt><trkpt lat="37.6594033" lon="14.6774033"><ele>437.0</ele><time>2026-05-05T10:02:43.17Z</time></trkpt><trkpt lat="37.65938" lon="14.6772633"><ele>437.0</ele><time>2026-05-05T10:02:44.17Z</time></trkpt><trkpt lat="37.6593933" lon="14.6771367"><ele>437.00000000000006</ele><time>2026-05-05T10:02:45.17Z</time></trkpt><trkpt lat="37.6594417" lon="14.677035"><ele>437.00000000000006</ele><time>2026-05-05T10:02:46.17Z</time></trkpt><trkpt lat="37.659525" lon="14.6769583"><ele>437.0</ele><time>2026-05-05T10:02:47.17Z</time></trkpt><trkpt lat="37.65963" lon="14.6768967"><ele>437.0</ele><time>2026-05-05T10:02:48.171Z</time></trkpt><trkpt lat="37.659715" lon="14.67682"><ele>438.8</ele><time>2026-05-05T10:02:49.17Z</time></trkpt><trkpt lat="37.6597683" lon="14.6767067"><ele>440.6</ele><time>2026-05-05T10:02:50.17Z</time></trkpt><trkpt lat="37.6597783" lon="14.6765667"><ele>442.40000000000003</ele><time>2026-05-05T10:02:51.17Z</time></trkpt><trkpt lat="37.6597383" lon="14.67646"><ele>444.20000000000005</ele><time>2026-05-05T10:02:52.17Z</time></trkpt><trkpt lat="37.6596617" lon="14.6763967"><ele>446.0</ele><time>2026-05-05T10:02:53.17Z</time></trkpt><trkpt lat="37.659575" lon="14.676375"><ele>446.0</ele><time>2026-05-05T10:02:54.17Z</time></trkpt><trkpt lat="37.65949" lon="14.6763683"><ele>446.0</ele><time>2026-05-05T10:02:55.17Z</time></trkpt><trkpt lat="37.6594217" lon="14.67633"><ele>446.0</ele><time>2026-05-05T10:02:56.17Z</time></trkpt><trkpt lat="37.6593617" lon="14.6762467"><ele>446.0</ele><time>2026-05-05T10:02:57.17Z</time></trkpt><trkpt lat="37.6593183" lon="14.6761183"><ele>446.0</ele><time>2026-05-05T10:02:58.17Z</time></trkpt><trkpt lat="37.65928" lon="14.67595"><ele>450.66666666666663</ele><time>2026-05-05T10:02:59.17Z</time></trkpt><trkpt lat="37.659235" lon="14.6757717"><ele>455.33333333333337</ele><time>2026-05-05T10:03:00.17Z</time></trkpt><trkpt lat="37.6591833" lon="14.6755783"><ele>460.0</ele><time>2026-05-05T10:03:01.17Z</time></trkpt><trkpt lat="37.659135" lon="14.67537"><ele>461.0</ele><time>2026-05-05T10:03:02.17Z</time></trkpt><trkpt lat="37.6590767" lon="14.675155"><ele>462.0</ele><time>2026-05-05T10:03:03.17Z</time></trkpt><trkpt lat="37.65902" lon="14.6749433"><ele>463.0</ele><time>2026-05-05T10:03:04.17Z</time></trkpt><trkpt lat="37.65896" lon="14.6747217"><ele>463.0</ele><time>2026-05-05T10:03:05.171Z</time></trkpt><trkpt lat="37.6588967" lon="14.674505"><ele>463.0</ele><time>2026-05-05T10:03:06.17Z</time></trkpt><trkpt lat="37.6588333" lon="14.6742717"><ele>463.0</ele><time>2026-05-05T10:03:07.17Z</time></trkpt><trkpt lat="37.658765" lon="14.6740483"><ele>463.33333333333337</ele><time>2026-05-05T10:03:08.17Z</time></trkpt><trkpt lat="37.6587033" lon="14.6738233"><ele>463.66666666666663</ele><time>2026-05-05T10:03:09.17Z</time></trkpt><trkpt lat="37.65865" lon="14.6735983"><ele>464.0</ele><time>2026-05-05T10:03:10.171Z</time></trkpt><trkpt lat="37.6586017" lon="14.6733767"><ele>469.66666666666663</ele><time>2026-05-05T10:03:11.17Z</time></trkpt><trkpt lat="37.6585617" lon="14.6731417"><ele>475.33333333333337</ele><time>2026-05-05T10:03:12.17Z</time></trkpt><trkpt lat="37.6585283" lon="14.6729033"><ele>481.0</ele><time>2026-05-05T10:03:13.17Z</time></trkpt><trkpt lat="37.658505" lon="14.6726533"><ele>481.6666666666667</ele><time>2026-05-05T10:03:14.17Z</time></trkpt><trkpt lat="37.658485" lon="14.67241"><ele>482.33333333333337</ele><time>2026-05-05T10:03:15.17Z</time></trkpt><trkpt lat="37.658475" lon="14.6721817"><ele>483.0</ele><time>2026-05-05T10:03:16.17Z</time></trkpt><trkpt lat="37.65847" lon="14.67197"><ele>484.25</ele><time>2026-05-05T10:03:17.17Z</time></trkpt><trkpt lat="37.6584567" lon="14.67178"><ele>485.5</ele><time>2026-05-05T10:03:18.17Z</time></trkpt><trkpt lat="37.6584133" lon="14.6716233"><ele>486.75</ele><time>2026-05-05T10:03:19.17Z</time></trkpt><trkpt lat="37.6583433" lon="14.671485"><ele>488.0</ele><time>2026-05-05T10:03:20.17Z</time></trkpt><trkpt lat="37.6582267" lon="14.6713783"><ele>488.0</ele><time>2026-05-05T10:03:21.17Z</time></trkpt><trkpt lat="37.6580933" lon="14.6713017"><ele>488.0</ele><time>2026-05-05T10:03:22.17Z</time></trkpt><trkpt lat="37.6579483" lon="14.67126"><ele>488.0</ele><time>2026-05-05T10:03:23.17Z</time></trkpt><trkpt lat="37.65781" lon="14.6712367"><ele>488.0</ele><time>2026-05-05T10:03:24.17Z</time></trkpt><trkpt lat="37.6576817" lon="14.6711967"><ele>487.75</ele><time>2026-05-05T10:03:25.17Z</time></trkpt><trkpt lat="37.6575617" lon="14.6711117"><ele>487.5</ele><time>2026-05-05T10:03:26.17Z</time></trkpt><trkpt lat="37.657465" lon="14.6709867"><ele>487.25</ele><time>2026-05-05T10:03:27.17Z</time></trkpt><trkpt lat="37.65738" lon="14.67083"><ele>487.0</ele><time>2026-05-05T10:03:28.17Z</time></trkpt><trkpt lat="37.6573083" lon="14.670665"><ele>487.0</ele><time>2026-05-05T10:03:29.17Z</time></trkpt><trkpt lat="37.6572683" lon="14.670485"><ele>487.0</ele><time>2026-05-05T10:03:30.171Z</time></trkpt><trkpt lat="37.65726" lon="14.6702933"><ele>487.0</ele><time>2026-05-05T10:03:31.17Z</time></trkpt><trkpt lat="37.6572567" lon="14.6701083"><ele>487.0</ele><time>2026-05-05T10:03:32.17Z</time></trkpt><trkpt lat="37.6572517" lon="14.6699217"><ele>486.0</ele><time>2026-05-05T10:03:33.17Z</time></trkpt><trkpt lat="37.6572383" lon="14.6697367"><ele>485.0</ele><time>2026-05-05T10:03:34.17Z</time></trkpt><trkpt lat="37.6571917" lon="14.66957"><ele>484.0</ele><time>2026-05-05T10:03:35.171Z</time></trkpt><trkpt lat="37.6571067" lon="14.6694267"><ele>483.0</ele><time>2026-05-05T10:03:36.17Z</time></trkpt><trkpt lat="37.6569883" lon="14.669295"><ele>485.66666666666663</ele><time>2026-05-05T10:03:37.17Z</time></trkpt><trkpt lat="37.6568683" lon="14.66917"><ele>488.3333333333333</ele><time>2026-05-05T10:03:38.171Z</time></trkpt><trkpt lat="37.6567633" lon="14.6690117"><ele>491.0</ele><time>2026-05-05T10:03:39.171Z</time></trkpt><trkpt lat="37.6566617" lon="14.6688333"><ele>491.0</ele><time>2026-05-05T10:03:40.17Z</time></trkpt><trkpt lat="37.65656" lon="14.6686583"><ele>491.0</ele><time>2026-05-05T10:03:41.17Z</time></trkpt><trkpt lat="37.656445" lon="14.66848"><ele>491.0</ele><time>2026-05-05T10:03:42.17Z</time></trkpt><trkpt lat="37.65631" lon="14.66831"><ele>491.3333333333333</ele><time>2026-05-05T10:03:43.171Z</time></trkpt><trkpt lat="37.656165" lon="14.668145"><ele>491.66666666666663</ele><time>2026-05-05T10:03:44.17Z</time></trkpt><trkpt lat="37.6560217" lon="14.6680017"><ele>492.0</ele><time>2026-05-05T10:03:45.171Z</time></trkpt><trkpt lat="37.6558767" lon="14.6678783"><ele>488.0</ele><time>2026-05-05T10:03:46.171Z</time></trkpt><trkpt lat="37.655725" lon="14.6677733"><ele>484.0</ele><time>2026-05-05T10:03:47.17Z</time></trkpt><trkpt lat="37.6555833" lon="14.66769"><ele>480.0</ele><time>2026-05-05T10:03:48.17Z</time></trkpt><trkpt lat="37.6554417" lon="14.6676117"><ele>480.0</ele><time>2026-05-05T10:03:49.17Z</time></trkpt><trkpt lat="37.6553067" lon="14.667535"><ele>480.0</ele><time>2026-05-05T10:03:50.17Z</time></trkpt><trkpt lat="37.65518" lon="14.66746"><ele>480.0</ele><time>2026-05-05T10:03:51.17Z</time></trkpt><trkpt lat="37.6550733" lon="14.6673783"><ele>480.0</ele><time>2026-05-05T10:03:52.17Z</time></trkpt><trkpt lat="37.6549833" lon="14.667275"><ele>481.25</ele><time>2026-05-05T10:03:53.171Z</time></trkpt><trkpt lat="37.6549317" lon="14.6671383"><ele>482.5</ele><time>2026-05-05T10:03:54.17Z</time></trkpt><trkpt lat="37.6549233" lon="14.666985"><ele>483.75</ele><time>2026-05-05T10:03:55.17Z</time></trkpt><trkpt lat="37.6549467" lon="14.66682"><ele>485.0</ele><time>2026-05-05T10:03:56.17Z</time></trkpt><trkpt lat="37.6549483" lon="14.6666617"><ele>485.0</ele><time>2026-05-05T10:03:57.17Z</time></trkpt><trkpt lat="37.6549067" lon="14.6665133"><ele>485.0</ele><time>2026-05-05T10:03:58.17Z</time></trkpt><trkpt lat="37.6548317" lon="14.6663833"><ele>485.0</ele><time>2026-05-05T10:03:59.17Z</time></trkpt><trkpt lat="37.654715" lon="14.6662783"><ele>485.0</ele><time>2026-05-05T10:04:00.17Z</time></trkpt><trkpt lat="37.6545833" lon="14.6662133"><ele>485.0</ele><time>2026-05-05T10:04:01.17Z</time></trkpt><trkpt lat="37.654455" lon="14.6661733"><ele>485.0</ele><time>2026-05-05T10:04:02.17Z</time></trkpt><trkpt lat="37.6543433" lon="14.6661283"><ele>485.0</ele><time>2026-05-05T10:04:03.17Z</time></trkpt><trkpt lat="37.6542583" lon="14.666035"><ele>485.0</ele><time>2026-05-05T10:04:04.171Z</time></trkpt><trkpt lat="37.6542017" lon="14.6658983"><ele>484.25</ele><time>2026-05-05T10:04:05.17Z</time></trkpt><trkpt lat="37.6541683" lon="14.665745"><ele>483.5</ele><time>2026-05-05T10:04:06.17Z</time></trkpt><trkpt lat="37.65413" lon="14.6655833"><ele>482.75</ele><time>2026-05-05T10:04:07.17Z</time></trkpt><trkpt lat="37.6540583" lon="14.66542"><ele>482.0</ele><time>2026-05-05T10:04:08.17Z</time></trkpt><trkpt lat="37.6539633" lon="14.6652617"><ele>482.0</ele><time>2026-05-05T10:04:09.17Z</time></trkpt><trkpt lat="37.6538667" lon="14.6650983"><ele>482.0</ele><time>2026-05-05T10:04:10.17Z</time></trkpt><trkpt lat="37.65376" lon="14.6649383"><ele>482.0</ele><time>2026-05-05T10:04:11.17Z</time></trkpt><trkpt lat="37.653645" lon="14.6647917"><ele>488.0</ele><time>2026-05-05T10:04:12.17Z</time></trkpt><trkpt lat="37.6535117" lon="14.6646617"><ele>494.0</ele><time>2026-05-05T10:04:13.17Z</time></trkpt><trkpt lat="37.65335" lon="14.6645583"><ele>500.0</ele><time>2026-05-05T10:04:14.17Z</time></trkpt><trkpt lat="37.6531833" lon="14.6644567"><ele>500.3333333333333</ele><time>2026-05-05T10:04:15.17Z</time></trkpt><trkpt lat="37.6530167" lon="14.6643567"><ele>500.66666666666663</ele><time>2026-05-05T10:04:16.17Z</time></trkpt><trkpt lat="37.652865" lon="14.6642683"><ele>501.0</ele><time>2026-05-05T10:04:17.17Z</time></trkpt><trkpt lat="37.6527217" lon="14.6641883"><ele>501.0</ele><time>2026-05-05T10:04:18.171Z</time></trkpt><trkpt lat="37.6526033" lon="14.6641183"><ele>501.0</ele><time>2026-05-05T10:04:19.171Z</time></trkpt><trkpt lat="37.6525" lon="14.66402"><ele>501.0</ele><time>2026-05-05T10:04:20.17Z</time></trkpt><trkpt lat="37.6524217" lon="14.6638867"><ele>501.0</ele><time>2026-05-05T10:04:21.17Z</time></trkpt><trkpt lat="37.6523667" lon="14.663725"><ele>499.33333333333337</ele><time>2026-05-05T10:04:22.171Z</time></trkpt><trkpt lat="37.652315" lon="14.6635483"><ele>497.6666666666667</ele><time>2026-05-05T10:04:23.171Z</time></trkpt><trkpt lat="37.652255" lon="14.6633683"><ele>496.0</ele><time>2026-05-05T10:04:24.17Z</time></trkpt><trkpt lat="37.6521867" lon="14.6631967"><ele>496.0</ele><time>2026-05-05T10:04:25.17Z</time></trkpt><trkpt lat="37.6521133" lon="14.6630483"><ele>496.0</ele><time>2026-05-05T10:04:26.17Z</time></trkpt><trkpt lat="37.6520367" lon="14.662925"><ele>496.0</ele><time>2026-05-05T10:04:27.17Z</time></trkpt><trkpt lat="37.6519517" lon="14.662825"><ele>496.0</ele><time>2026-05-05T10:04:28.17Z</time></trkpt><trkpt lat="37.6518483" lon="14.6627383"><ele>497.25</ele><time>2026-05-05T10:04:29.17Z</time></trkpt><trkpt lat="37.6517267" lon="14.6626733"><ele>498.5</ele><time>2026-05-05T10:04:30.17Z</time></trkpt><trkpt lat="37.6515833" lon="14.6626333"><ele>499.75</ele><time>2026-05-05T10:04:31.17Z</time></trkpt><trkpt lat="37.6514433" lon="14.6626033"><ele>501.0</ele><time>2026-05-05T10:04:32.17Z</time></trkpt><trkpt lat="37.6512983" lon="14.6625683"><ele>501.0</ele><time>2026-05-05T10:04:33.17Z</time></trkpt><trkpt lat="37.6511683" lon="14.6625183"><ele>501.0</ele><time>2026-05-05T10:04:34.17Z</time></trkpt><trkpt lat="37.6510383" lon="14.662425"><ele>501.0</ele><time>2026-05-05T10:04:35.17Z</time></trkpt><trkpt lat="37.6509267" lon="14.6622983"><ele>501.0</ele><time>2026-05-05T10:04:36.17Z</time></trkpt><trkpt lat="37.650825" lon="14.6621717"><ele>501.25</ele><time>2026-05-05T10:04:37.17Z</time></trkpt><trkpt lat="37.6507467" lon="14.662045"><ele>501.5</ele><time>2026-05-05T10:04:38.17Z</time></trkpt><trkpt lat="37.6506783" lon="14.6619283"><ele>501.75</ele><time>2026-05-05T10:04:39.17Z</time></trkpt><trkpt lat="37.650615" lon="14.66182"><ele>502.0</ele><time>2026-05-05T10:04:40.17Z</time></trkpt><trkpt lat="37.6505533" lon="14.661705"><ele>502.0</ele><time>2026-05-05T10:04:41.17Z</time></trkpt><trkpt lat="37.6504917" lon="14.6615883"><ele>502.0</ele><time>2026-05-05T10:04:42.17Z</time></trkpt><trkpt lat="37.6504283" lon="14.6614733"><ele>502.0</ele><time>2026-05-05T10:04:43.17Z</time></trkpt><trkpt lat="37.65036" lon="14.661355"><ele>502.0</ele><time>2026-05-05T10:04:44.171Z</time></trkpt><trkpt lat="37.6502833" lon="14.6612367"><ele>504.0</ele><time>2026-05-05T10:04:45.17Z</time></trkpt><trkpt lat="37.6502033" lon="14.6611133"><ele>506.0</ele><time>2026-05-05T10:04:46.17Z</time></trkpt><trkpt lat="37.6501233" lon="14.6609833"><ele>508.0</ele><time>2026-05-05T10:04:47.17Z</time></trkpt><trkpt lat="37.6500483" lon="14.6608683"><ele>510.0</ele><time>2026-05-05T10:04:48.17Z</time></trkpt><trkpt lat="37.6499783" lon="14.6607467"><ele>510.0</ele><time>2026-05-05T10:04:49.17Z</time></trkpt><trkpt lat="37.6499183" lon="14.6606117"><ele>510.0</ele><time>2026-05-05T10:04:50.17Z</time></trkpt><trkpt lat="37.6498867" lon="14.6604667"><ele>510.0</ele><time>2026-05-05T10:04:51.171Z</time></trkpt><trkpt lat="37.649905" lon="14.6603033"><ele>510.0</ele><time>2026-05-05T10:04:52.17Z</time></trkpt><trkpt lat="37.649955" lon="14.6601317"><ele>508.33333333333337</ele><time>2026-05-05T10:04:53.17Z</time></trkpt><trkpt lat="37.650015" lon="14.6599483"><ele>506.6666666666667</ele><time>2026-05-05T10:04:54.17Z</time></trkpt><trkpt lat="37.6500783" lon="14.65975"><ele>505.0</ele><time>2026-05-05T10:04:55.17Z</time></trkpt><trkpt lat="37.6501433" lon="14.6595417"><ele>508.0</ele><time>2026-05-05T10:04:56.17Z</time></trkpt><trkpt lat="37.6502133" lon="14.6593317"><ele>511.0</ele><time>2026-05-05T10:04:57.17Z</time></trkpt><trkpt lat="37.6503017" lon="14.6591283"><ele>514.0</ele><time>2026-05-05T10:04:58.17Z</time></trkpt><trkpt lat="37.6504033" lon="14.6589417"><ele>512.0</ele><time>2026-05-05T10:04:59.17Z</time></trkpt><trkpt lat="37.6505033" lon="14.658755"><ele>510.0</ele><time>2026-05-05T10:05:00.17Z</time></trkpt><trkpt lat="37.650585" lon="14.65856"><ele>508.0</ele><time>2026-05-05T10:05:01.171Z</time></trkpt><trkpt lat="37.650655" lon="14.6583583"><ele>508.0</ele><time>2026-05-05T10:05:02.171Z</time></trkpt><trkpt lat="37.650725" lon="14.6581617"><ele>508.0</ele><time>2026-05-05T10:05:03.17Z</time></trkpt><trkpt lat="37.65079" lon="14.657975"><ele>508.0</ele><time>2026-05-05T10:05:04.17Z</time></trkpt><trkpt lat="37.6508567" lon="14.6577933"><ele>510.0</ele><time>2026-05-05T10:05:05.17Z</time></trkpt><trkpt lat="37.6508933" lon="14.6576017"><ele>512.0</ele><time>2026-05-05T10:05:06.17Z</time></trkpt><trkpt lat="37.6508933" lon="14.6573883"><ele>514.0</ele><time>2026-05-05T10:05:07.17Z</time></trkpt><trkpt lat="37.650875" lon="14.6571733"><ele>514.3333333333334</ele><time>2026-05-05T10:05:08.17Z</time></trkpt><trkpt lat="37.65086" lon="14.65695"><ele>514.6666666666666</ele><time>2026-05-05T10:05:09.17Z</time></trkpt><trkpt lat="37.6508583" lon="14.6567183"><ele>515.0</ele><time>2026-05-05T10:05:10.17Z</time></trkpt><trkpt lat="37.6508633" lon="14.656485"><ele>515.0</ele><time>2026-05-05T10:05:11.171Z</time></trkpt><trkpt lat="37.6508733" lon="14.65625"><ele>515.0</ele><time>2026-05-05T10:05:12.17Z</time></trkpt><trkpt lat="37.6508767" lon="14.65602"><ele>515.0</ele><time>2026-05-05T10:05:13.17Z</time></trkpt><trkpt lat="37.6508783" lon="14.6557983"><ele>516.6666666666666</ele><time>2026-05-05T10:05:14.171Z</time></trkpt><trkpt lat="37.6508717" lon="14.655595"><ele>518.3333333333334</ele><time>2026-05-05T10:05:15.17Z</time></trkpt><trkpt lat="37.6508433" lon="14.6553883"><ele>520.0</ele><time>2026-05-05T10:05:16.17Z</time></trkpt><trkpt lat="37.6508" lon="14.6551867"><ele>521.6666666666667</ele><time>2026-05-05T10:05:17.17Z</time></trkpt><trkpt lat="37.6507633" lon="14.65499"><ele>523.3333333333334</ele><time>2026-05-05T10:05:18.17Z</time></trkpt><trkpt lat="37.6507433" lon="14.6547883"><ele>525.0</ele><time>2026-05-05T10:05:19.17Z</time></trkpt><trkpt lat="37.6507583" lon="14.6545733"><ele>526.0</ele><time>2026-05-05T10:05:20.171Z</time></trkpt><trkpt lat="37.6507967" lon="14.654355"><ele>527.0</ele><time>2026-05-05T10:05:21.17Z</time></trkpt><trkpt lat="37.6508367" lon="14.6541383"><ele>528.0</ele><time>2026-05-05T10:05:22.17Z</time></trkpt><trkpt lat="37.65087" lon="14.65393"><ele>528.0</ele><time>2026-05-05T10:05:23.17Z</time></trkpt><trkpt lat="37.6509067" lon="14.65373"><ele>528.0</ele><time>2026-05-05T10:05:24.17Z</time></trkpt><trkpt lat="37.6509483" lon="14.65354"><ele>528.0</ele><time>2026-05-05T10:05:25.171Z</time></trkpt><trkpt lat="37.650995" lon="14.6533617"><ele>531.0</ele><time>2026-05-05T10:05:26.171Z</time></trkpt><trkpt lat="37.6510617" lon="14.6531817"><ele>534.0</ele><time>2026-05-05T10:05:27.17Z</time></trkpt><trkpt lat="37.6511417" lon="14.6530033"><ele>537.0</ele><time>2026-05-05T10:05:28.17Z</time></trkpt><trkpt lat="37.6512233" lon="14.6528283"><ele>534.25</ele><time>2026-05-05T10:05:29.171Z</time></trkpt><trkpt lat="37.6513067" lon="14.6526533"><ele>531.5</ele><time>2026-05-05T10:05:30.17Z</time></trkpt><trkpt lat="37.6513817" lon="14.6524967"><ele>528.75</ele><time>2026-05-05T10:05:31.17Z</time></trkpt><trkpt lat="37.651445" lon="14.6523433"><ele>526.0</ele><time>2026-05-05T10:05:32.17Z</time></trkpt><trkpt lat="37.6514917" lon="14.652175"><ele>526.0</ele><time>2026-05-05T10:05:33.17Z</time></trkpt><trkpt lat="37.6515283" lon="14.6519967"><ele>526.0</ele><time>2026-05-05T10:05:34.17Z</time></trkpt><trkpt lat="37.6515433" lon="14.65182"><ele>526.0</ele><time>2026-05-05T10:05:35.17Z</time></trkpt><trkpt lat="37.65154" lon="14.6516483"><ele>526.0</ele><time>2026-05-05T10:05:36.17Z</time></trkpt><trkpt lat="37.65153" lon="14.6514817"><ele>527.0</ele><time>2026-05-05T10:05:37.17Z</time></trkpt><trkpt lat="37.65152" lon="14.6513167"><ele>528.0</ele><time>2026-05-05T10:05:38.171Z</time></trkpt><trkpt lat="37.6515183" lon="14.6511617"><ele>529.0</ele><time>2026-05-05T10:05:39.17Z</time></trkpt><trkpt lat="37.6515117" lon="14.6510183"><ele>530.0</ele><time>2026-05-05T10:05:40.17Z</time></trkpt><trkpt lat="37.65152" lon="14.650885"><ele>530.5</ele><time>2026-05-05T10:05:41.171Z</time></trkpt><trkpt lat="37.651545" lon="14.6507717"><ele>531.0</ele><time>2026-05-05T10:05:42.17Z</time></trkpt><trkpt lat="37.6515667" lon="14.6506783"><ele>531.5</ele><time>2026-05-05T10:05:43.17Z</time></trkpt><trkpt lat="37.6516033" lon="14.65056"><ele>532.0</ele><time>2026-05-05T10:05:45.17Z</time></trkpt><trkpt lat="37.651605" lon="14.6504767"><ele>532.5</ele><time>2026-05-05T10:11:04.17Z</time></trkpt><trkpt lat="37.6515883" lon="14.650345"><ele>533.0</ele><time>2026-05-05T10:11:06.17Z</time></trkpt><trkpt lat="37.651585" lon="14.65026"><ele>533.5</ele><time>2026-05-05T10:11:07.169Z</time></trkpt><trkpt lat="37.65158" lon="14.6501667"><ele>534.0</ele><time>2026-05-05T10:11:08.169Z</time></trkpt><trkpt lat="37.6515717" lon="14.6500633"><ele>534.5</ele><time>2026-05-05T10:11:09.169Z</time></trkpt><trkpt lat="37.6515517" lon="14.6499633"><ele>535.0</ele><time>2026-05-05T10:11:10.169Z</time></trkpt><trkpt lat="37.6515217" lon="14.6498533"><ele>535.5</ele><time>2026-05-05T10:11:11.17Z</time></trkpt><trkpt lat="37.6514833" lon="14.64975"><ele>536.0</ele><time>2026-05-05T10:11:12.17Z</time></trkpt><trkpt lat="37.6514433" lon="14.6496433"><ele>536.0</ele><time>2026-05-05T10:11:13.169Z</time></trkpt><trkpt lat="37.6514017" lon="14.6495183"><ele>536.0</ele><time>2026-05-05T10:11:14.169Z</time></trkpt><trkpt lat="37.651355" lon="14.64939"><ele>536.0</ele><time>2026-05-05T10:11:15.169Z</time></trkpt><trkpt lat="37.6513167" lon="14.64925"><ele>536.0</ele><time>2026-05-05T10:11:16.169Z</time></trkpt><trkpt lat="37.651275" lon="14.6491017"><ele>535.5</ele><time>2026-05-05T10:11:17.169Z</time></trkpt><trkpt lat="37.651235" lon="14.648955"><ele>535.0</ele><time>2026-05-05T10:11:18.17Z</time></trkpt><trkpt lat="37.6511933" lon="14.6488033"><ele>534.5</ele><time>2026-05-05T10:11:19.169Z</time></trkpt><trkpt lat="37.651155" lon="14.64865"><ele>534.0</ele><time>2026-05-05T10:11:20.169Z</time></trkpt><trkpt lat="37.6511233" lon="14.6484917"><ele>531.75</ele><time>2026-05-05T10:11:21.169Z</time></trkpt><trkpt lat="37.6511167" lon="14.6483267"><ele>529.5</ele><time>2026-05-05T10:11:22.17Z</time></trkpt><trkpt lat="37.65113" lon="14.648165"><ele>527.25</ele><time>2026-05-05T10:11:23.169Z</time></trkpt><trkpt lat="37.651165" lon="14.6480017"><ele>525.0</ele><time>2026-05-05T10:11:24.169Z</time></trkpt><trkpt lat="37.6512083" lon="14.647835"><ele>526.25</ele><time>2026-05-05T10:11:25.169Z</time></trkpt><trkpt lat="37.65124" lon="14.6476717"><ele>527.5</ele><time>2026-05-05T10:11:26.169Z</time></trkpt><trkpt lat="37.65127" lon="14.6475167"><ele>528.75</ele><time>2026-05-05T10:11:27.169Z</time></trkpt><trkpt lat="37.6512967" lon="14.64736"><ele>530.0</ele><time>2026-05-05T10:11:28.169Z</time></trkpt><trkpt lat="37.6513267" lon="14.6472017"><ele>530.0</ele><time>2026-05-05T10:11:29.169Z</time></trkpt><trkpt lat="37.6513317" lon="14.6470417"><ele>530.0</ele><time>2026-05-05T10:11:30.169Z</time></trkpt><trkpt lat="37.6513283" lon="14.6468967"><ele>530.0</ele><time>2026-05-05T10:11:31.169Z</time></trkpt><trkpt lat="37.6513217" lon="14.6467683"><ele>530.0</ele><time>2026-05-05T10:11:32.17Z</time></trkpt><trkpt lat="37.6513183" lon="14.6466317"><ele>530.2</ele><time>2026-05-05T10:11:33.17Z</time></trkpt><trkpt lat="37.65131" lon="14.646505"><ele>530.4</ele><time>2026-05-05T10:11:34.169Z</time></trkpt><trkpt lat="37.651305" lon="14.6463817"><ele>530.6</ele><time>2026-05-05T10:11:35.169Z</time></trkpt><trkpt lat="37.6512883" lon="14.64627"><ele>530.8</ele><time>2026-05-05T10:11:36.169Z</time></trkpt><trkpt lat="37.6512633" lon="14.6461567"><ele>531.0</ele><time>2026-05-05T10:11:37.169Z</time></trkpt><trkpt lat="37.6512483" lon="14.64605"><ele>531.0</ele><time>2026-05-05T10:11:38.169Z</time></trkpt><trkpt lat="37.6512483" lon="14.6459467"><ele>531.0</ele><time>2026-05-05T10:11:39.169Z</time></trkpt><trkpt lat="37.65125" lon="14.6458433"><ele>531.0</ele><time>2026-05-05T10:11:40.169Z</time></trkpt><trkpt lat="37.6512517" lon="14.6457317"><ele>531.0</ele><time>2026-05-05T10:11:41.169Z</time></trkpt><trkpt lat="37.65124" lon="14.6456133"><ele>531.0</ele><time>2026-05-05T10:11:42.169Z</time></trkpt><trkpt lat="37.6512167" lon="14.6454817"><ele>531.0</ele><time>2026-05-05T10:11:43.169Z</time></trkpt><trkpt lat="37.651185" lon="14.6453517"><ele>531.0</ele><time>2026-05-05T10:11:44.169Z</time></trkpt><trkpt lat="37.651145" lon="14.6452267"><ele>531.0</ele><time>2026-05-05T10:11:45.169Z</time></trkpt><trkpt lat="37.6511083" lon="14.6451117"><ele>531.0</ele><time>2026-05-05T10:11:46.169Z</time></trkpt><trkpt lat="37.6510767" lon="14.6449983"><ele>531.0</ele><time>2026-05-05T10:11:47.17Z</time></trkpt><trkpt lat="37.6510433" lon="14.6448817"><ele>534.0</ele><time>2026-05-05T10:11:48.169Z</time></trkpt><trkpt lat="37.651" lon="14.6447683"><ele>537.0</ele><time>2026-05-05T10:11:49.17Z</time></trkpt><trkpt lat="37.6509467" lon="14.6446733"><ele>540.0</ele><time>2026-05-05T10:11:50.169Z</time></trkpt><trkpt lat="37.65091" lon="14.64459"><ele>543.0</ele><time>2026-05-05T10:11:51.169Z</time></trkpt><trkpt lat="37.65087" lon="14.64448"><ele>546.0</ele><time>2026-05-05T10:11:53.169Z</time></trkpt><trkpt lat="37.6508317" lon="14.644355"><ele>546.2</ele><time>2026-05-05T10:14:00.169Z</time></trkpt><trkpt lat="37.6507917" lon="14.6442783"><ele>546.4000000000001</ele><time>2026-05-05T10:14:48.168Z</time></trkpt><trkpt lat="37.650715" lon="14.6442083"><ele>546.6</ele><time>2026-05-05T10:14:50.168Z</time></trkpt><trkpt lat="37.6506133" lon="14.6441683"><ele>546.8000000000001</ele><time>2026-05-05T10:14:52.169Z</time></trkpt><trkpt lat="37.6505233" lon="14.6441583"><ele>547.0</ele><time>2026-05-05T10:14:54.169Z</time></trkpt><trkpt lat="37.6503983" lon="14.64414"><ele>547.0</ele><time>2026-05-05T10:15:02.168Z</time></trkpt><trkpt lat="37.650295" lon="14.64408"><ele>547.0</ele><time>2026-05-05T10:15:04.168Z</time></trkpt><trkpt lat="37.6502333" lon="14.6440183"><ele>547.0</ele><time>2026-05-05T10:15:05.168Z</time></trkpt><trkpt lat="37.6501617" lon="14.6439483"><ele>547.0</ele><time>2026-05-05T10:15:06.168Z</time></trkpt><trkpt lat="37.6501083" lon="14.64388"><ele>547.0</ele><time>2026-05-05T10:15:07.169Z</time></trkpt><trkpt lat="37.6500717" lon="14.643795"><ele>547.0</ele><time>2026-05-05T10:15:08.169Z</time></trkpt><trkpt lat="37.6500533" lon="14.6437"><ele>545.6666666666667</ele><time>2026-05-05T10:15:09.168Z</time></trkpt><trkpt lat="37.6500567" lon="14.643595"><ele>544.3333333333334</ele><time>2026-05-05T10:15:10.168Z</time></trkpt><trkpt lat="37.6500467" lon="14.6434767"><ele>543.0</ele><time>2026-05-05T10:15:11.168Z</time></trkpt><trkpt lat="37.650045" lon="14.6433617"><ele>541.6666666666666</ele><time>2026-05-05T10:15:12.168Z</time></trkpt><trkpt lat="37.6500383" lon="14.6432517"><ele>540.3333333333333</ele><time>2026-05-05T10:15:13.168Z</time></trkpt><trkpt lat="37.6500233" lon="14.6431533"><ele>539.0</ele><time>2026-05-05T10:15:14.168Z</time></trkpt><trkpt lat="37.6500067" lon="14.64306"><ele>539.0</ele><time>2026-05-05T10:15:15.169Z</time></trkpt><trkpt lat="37.6499833" lon="14.6429733"><ele>539.0</ele><time>2026-05-05T10:15:16.168Z</time></trkpt><trkpt lat="37.6499517" lon="14.6428983"><ele>539.0</ele><time>2026-05-05T10:15:17.168Z</time></trkpt><trkpt lat="37.6499367" lon="14.6428133"><ele>539.0</ele><time>2026-05-05T10:15:18.168Z</time></trkpt><trkpt lat="37.6499333" lon="14.6427267"><ele>539.0</ele><time>2026-05-05T10:15:19.168Z</time></trkpt><trkpt lat="37.6499183" lon="14.6426483"><ele>539.0</ele><time>2026-05-05T10:15:20.168Z</time></trkpt><trkpt lat="37.64991" lon="14.6425667"><ele>539.0</ele><time>2026-05-05T10:15:21.168Z</time></trkpt><trkpt lat="37.6499" lon="14.6424817"><ele>539.0</ele><time>2026-05-05T10:15:22.169Z</time></trkpt><trkpt lat="37.64988" lon="14.6423933"><ele>539.0</ele><time>2026-05-05T10:15:23.168Z</time></trkpt><trkpt lat="37.6498633" lon="14.6423133"><ele>539.0</ele><time>2026-05-05T10:15:24.168Z</time></trkpt><trkpt lat="37.6498367" lon="14.64218"><ele>539.0</ele><time>2026-05-05T10:15:26.168Z</time></trkpt><trkpt lat="37.6498183" lon="14.64205"><ele>539.0</ele><time>2026-05-05T10:15:28.168Z</time></trkpt><trkpt lat="37.6497983" lon="14.6419367"><ele>539.0</ele><time>2026-05-05T10:15:30.168Z</time></trkpt><trkpt lat="37.6497733" lon="14.641845"><ele>538.8333333333333</ele><time>2026-05-05T10:15:32.169Z</time></trkpt><trkpt lat="37.649755" lon="14.6417583"><ele>538.6666666666666</ele><time>2026-05-05T10:15:35.168Z</time></trkpt><trkpt lat="37.6497317" lon="14.6416383"><ele>538.5</ele><time>2026-05-05T10:15:39.168Z</time></trkpt><trkpt lat="37.6496967" lon="14.6415167"><ele>538.3333333333334</ele><time>2026-05-05T10:15:41.168Z</time></trkpt><trkpt lat="37.649665" lon="14.6414083"><ele>538.1666666666667</ele><time>2026-05-05T10:15:43.168Z</time></trkpt><trkpt lat="37.64966" lon="14.641325"><ele>538.0</ele><time>2026-05-05T10:15:45.168Z</time></trkpt><trkpt lat="37.649655" lon="14.6412283"><ele>538.0</ele><time>2026-05-05T10:15:49.168Z</time></trkpt><trkpt lat="37.64965" lon="14.6411433"><ele>538.0</ele><time>2026-05-05T10:15:52.168Z</time></trkpt><trkpt lat="37.64965" lon="14.6410433"><ele>538.0</ele><time>2026-05-05T10:16:03.168Z</time></trkpt><trkpt lat="37.649695" lon="14.6409667"><ele>538.0</ele><time>2026-05-05T10:16:07.168Z</time></trkpt><trkpt lat="37.649655" lon="14.6408683"><ele>538.0</ele><time>2026-05-05T10:16:15.168Z</time></trkpt><trkpt lat="37.6496317" lon="14.6407567"><ele>538.0</ele><time>2026-05-05T10:16:17.168Z</time></trkpt><trkpt lat="37.6496783" lon="14.6406783"><ele>537.0</ele><time>2026-05-05T10:16:19.168Z</time></trkpt><trkpt lat="37.6497833" lon="14.6406017"><ele>536.0</ele><time>2026-05-05T10:16:21.168Z</time></trkpt><trkpt lat="37.6498567" lon="14.6405467"><ele>535.0</ele><time>2026-05-05T10:16:22.168Z</time></trkpt><trkpt lat="37.6499217" lon="14.6404667"><ele>534.0</ele><time>2026-05-05T10:16:23.168Z</time></trkpt><trkpt lat="37.6499933" lon="14.6404233"><ele>533.0</ele><time>2026-05-05T10:16:24.168Z</time></trkpt><trkpt lat="37.6500617" lon="14.64039"><ele>533.0</ele><time>2026-05-05T10:16:25.168Z</time></trkpt><trkpt lat="37.6501383" lon="14.6403783"><ele>533.0</ele><time>2026-05-05T10:16:26.169Z</time></trkpt><trkpt lat="37.650205" lon="14.640345"><ele>533.0</ele><time>2026-05-05T10:16:27.168Z</time></trkpt><trkpt lat="37.65028" lon="14.64032"><ele>533.0</ele><time>2026-05-05T10:16:28.168Z</time></trkpt><trkpt lat="37.6503617" lon="14.6403"><ele>533.0</ele><time>2026-05-05T10:16:29.168Z</time></trkpt><trkpt lat="37.650435" lon="14.640285"><ele>533.0</ele><time>2026-05-05T10:16:30.168Z</time></trkpt><trkpt lat="37.6505633" lon="14.6402783"><ele>530.7142857142857</ele><time>2026-05-05T10:16:32.168Z</time></trkpt><trkpt lat="37.6506417" lon="14.6402717"><ele>528.4285714285713</ele><time>2026-05-05T10:16:33.169Z</time></trkpt><trkpt lat="37.6507133" lon="14.64027"><ele>526.1428571428571</ele><time>2026-05-05T10:16:34.168Z</time></trkpt><trkpt lat="37.6507767" lon="14.6402467"><ele>523.8571428571429</ele><time>2026-05-05T10:16:35.168Z</time></trkpt><trkpt lat="37.650845" lon="14.64023"><ele>521.5714285714287</ele><time>2026-05-05T10:16:36.169Z</time></trkpt><trkpt lat="37.6509167" lon="14.6402183"><ele>519.2857142857143</ele><time>2026-05-05T10:16:37.168Z</time></trkpt><trkpt lat="37.65098" lon="14.6402017"><ele>517.0</ele><time>2026-05-05T10:16:38.168Z</time></trkpt><trkpt lat="37.6511" lon="14.6401717"><ele>517.0</ele><time>2026-05-05T10:16:40.168Z</time></trkpt><trkpt lat="37.6512133" lon="14.640135"><ele>517.0</ele><time>2026-05-05T10:16:42.168Z</time></trkpt><trkpt lat="37.65133" lon="14.64013"><ele>517.0</ele><time>2026-05-05T10:16:44.168Z</time></trkpt><trkpt lat="37.6514533" lon="14.640155"><ele>517.0</ele><time>2026-05-05T10:16:46.168Z</time></trkpt><trkpt lat="37.651515" lon="14.6401833"><ele>517.0</ele><time>2026-05-05T10:16:47.168Z</time></trkpt><trkpt lat="37.65158" lon="14.6402"><ele>517.0</ele><time>2026-05-05T10:16:48.168Z</time></trkpt><trkpt lat="37.651645" lon="14.6402183"><ele>517.0</ele><time>2026-05-05T10:16:49.168Z</time></trkpt><trkpt lat="37.651715" lon="14.640235"><ele>517.0</ele><time>2026-05-05T10:16:50.169Z</time></trkpt><trkpt lat="37.651835" lon="14.640225"><ele>517.0</ele><time>2026-05-05T10:16:52.168Z</time></trkpt><trkpt lat="37.6519483" lon="14.640175"><ele>517.0</ele><time>2026-05-05T10:16:54.168Z</time></trkpt><trkpt lat="37.6520067" lon="14.64012"><ele>517.4</ele><time>2026-05-05T10:16:55.168Z</time></trkpt><trkpt lat="37.6520983" lon="14.6400217"><ele>517.8000000000001</ele><time>2026-05-05T10:16:57.168Z</time></trkpt><trkpt lat="37.652155" lon="14.6399633"><ele>518.2</ele><time>2026-05-05T10:16:59.168Z</time></trkpt><trkpt lat="37.6522367" lon="14.6398967"><ele>518.6</ele><time>2026-05-05T10:17:06.168Z</time></trkpt><trkpt lat="37.6523083" lon="14.63982"><ele>519.0</ele><time>2026-05-05T10:17:09.169Z</time></trkpt><trkpt lat="37.6523883" lon="14.6397483"><ele>519.0</ele><time>2026-05-05T10:17:11.168Z</time></trkpt><trkpt lat="37.65247" lon="14.6396583"><ele>519.0</ele><time>2026-05-05T10:17:13.168Z</time></trkpt><trkpt lat="37.652555" lon="14.6395567"><ele>519.0</ele><time>2026-05-05T10:17:15.169Z</time></trkpt><trkpt lat="37.65264" lon="14.63947"><ele>519.0</ele><time>2026-05-05T10:17:17.168Z</time></trkpt><trkpt lat="37.6527067" lon="14.639365"><ele>519.0</ele><time>2026-05-05T10:17:19.168Z</time></trkpt><trkpt lat="37.6527733" lon="14.6392433"><ele>519.25</ele><time>2026-05-05T10:17:21.168Z</time></trkpt><trkpt lat="37.6528383" lon="14.6391333"><ele>519.5</ele><time>2026-05-05T10:17:23.169Z</time></trkpt><trkpt lat="37.65289" lon="14.6390217"><ele>519.75</ele><time>2026-05-05T10:17:25.168Z</time></trkpt><trkpt lat="37.6529467" lon="14.6388883"><ele>520.0</ele><time>2026-05-05T10:17:27.168Z</time></trkpt><trkpt lat="37.6530033" lon="14.6387517"><ele>520.0</ele><time>2026-05-05T10:17:29.168Z</time></trkpt><trkpt lat="37.6530333" lon="14.6386717"><ele>520.0</ele><time>2026-05-05T10:17:30.169Z</time></trkpt><trkpt lat="37.6530933" lon="14.6385367"><ele>520.0</ele><time>2026-05-05T10:17:32.168Z</time></trkpt><trkpt lat="37.6531133" lon="14.6384517"><ele>520.0</ele><time>2026-05-05T10:17:33.168Z</time></trkpt><trkpt lat="37.6531283" lon="14.6383667"><ele>520.0</ele><time>2026-05-05T10:17:34.168Z</time></trkpt><trkpt lat="37.6531433" lon="14.6382867"><ele>520.0</ele><time>2026-05-05T10:17:35.168Z</time></trkpt><trkpt lat="37.6531567" lon="14.6382033"><ele>518.4</ele><time>2026-05-05T10:17:36.168Z</time></trkpt><trkpt lat="37.6531867" lon="14.6380517"><ele>516.8</ele><time>2026-05-05T10:17:38.168Z</time></trkpt><trkpt lat="37.653205" lon="14.637905"><ele>515.2</ele><time>2026-05-05T10:17:40.168Z</time></trkpt><trkpt lat="37.6532083" lon="14.637815"><ele>513.6</ele><time>2026-05-05T10:17:41.168Z</time></trkpt><trkpt lat="37.6532083" lon="14.637725"><ele>512.0</ele><time>2026-05-05T10:17:42.168Z</time></trkpt><trkpt lat="37.6532117" lon="14.637635"><ele>511.0</ele><time>2026-05-05T10:17:43.168Z</time></trkpt><trkpt lat="37.65322" lon="14.63755"><ele>510.00000000000006</ele><time>2026-05-05T10:17:44.168Z</time></trkpt><trkpt lat="37.6532383" lon="14.637405"><ele>509.00000000000006</ele><time>2026-05-05T10:17:46.168Z</time></trkpt><trkpt lat="37.6532517" lon="14.637285"><ele>508.0</ele><time>2026-05-05T10:17:48.168Z</time></trkpt><trkpt lat="37.6532767" lon="14.63718"><ele>507.0</ele><time>2026-05-05T10:17:50.168Z</time></trkpt><trkpt lat="37.653325" lon="14.637075"><ele>504.8</ele><time>2026-05-05T10:17:52.168Z</time></trkpt><trkpt lat="37.6533867" lon="14.6369483"><ele>502.6</ele><time>2026-05-05T10:17:54.168Z</time></trkpt><trkpt lat="37.6534217" lon="14.63687"><ele>500.40000000000003</ele><time>2026-05-05T10:17:55.168Z</time></trkpt><trkpt lat="37.6534517" lon="14.63677"><ele>498.20000000000005</ele><time>2026-05-05T10:17:56.168Z</time></trkpt><trkpt lat="37.65348" lon="14.636655"><ele>496.0</ele><time>2026-05-05T10:17:57.168Z</time></trkpt><trkpt lat="37.6535017" lon="14.636525"><ele>496.0</ele><time>2026-05-05T10:17:58.168Z</time></trkpt><trkpt lat="37.6535267" lon="14.6363983"><ele>496.0</ele><time>2026-05-05T10:17:59.169Z</time></trkpt><trkpt lat="37.6535417" lon="14.6362783"><ele>496.0</ele><time>2026-05-05T10:18:00.168Z</time></trkpt><trkpt lat="37.6535533" lon="14.6361583"><ele>496.0</ele><time>2026-05-05T10:18:01.168Z</time></trkpt><trkpt lat="37.6535733" lon="14.63604"><ele>496.0</ele><time>2026-05-05T10:18:02.168Z</time></trkpt><trkpt lat="37.6535833" lon="14.635935"><ele>495.33333333333337</ele><time>2026-05-05T10:18:03.168Z</time></trkpt><trkpt lat="37.6535883" lon="14.635835"><ele>494.6666666666667</ele><time>2026-05-05T10:18:04.168Z</time></trkpt><trkpt lat="37.6535917" lon="14.6357433"><ele>494.0</ele><time>2026-05-05T10:18:05.168Z</time></trkpt><trkpt lat="37.65359" lon="14.6356633"><ele>493.33333333333337</ele><time>2026-05-05T10:18:06.168Z</time></trkpt><trkpt lat="37.6536083" lon="14.6355233"><ele>492.6666666666667</ele><time>2026-05-05T10:18:08.169Z</time></trkpt><trkpt lat="37.653595" lon="14.635395"><ele>492.0</ele><time>2026-05-05T10:18:10.168Z</time></trkpt><trkpt lat="37.6535867" lon="14.6352967"><ele>492.0</ele><time>2026-05-05T10:18:11.168Z</time></trkpt><trkpt lat="37.6535917" lon="14.6351883"><ele>492.00000000000006</ele><time>2026-05-05T10:18:12.169Z</time></trkpt><trkpt lat="37.653605" lon="14.63507"><ele>492.00000000000006</ele><time>2026-05-05T10:18:13.168Z</time></trkpt><trkpt lat="37.65362" lon="14.6349417"><ele>492.0</ele><time>2026-05-05T10:18:14.168Z</time></trkpt><trkpt lat="37.6536433" lon="14.634815"><ele>492.0</ele><time>2026-05-05T10:18:15.168Z</time></trkpt><trkpt lat="37.65367" lon="14.6346883"><ele>492.75</ele><time>2026-05-05T10:18:16.168Z</time></trkpt><trkpt lat="37.6537" lon="14.6345517"><ele>493.5</ele><time>2026-05-05T10:18:17.169Z</time></trkpt><trkpt lat="37.65374" lon="14.6344117"><ele>494.25</ele><time>2026-05-05T10:18:18.168Z</time></trkpt><trkpt lat="37.6537833" lon="14.6342633"><ele>495.0</ele><time>2026-05-05T10:18:19.168Z</time></trkpt><trkpt lat="37.6538417" lon="14.634115"><ele>495.0</ele><time>2026-05-05T10:18:20.168Z</time></trkpt><trkpt lat="37.6539" lon="14.6339733"><ele>495.0</ele><time>2026-05-05T10:18:21.168Z</time></trkpt><trkpt lat="37.6539567" lon="14.6338233"><ele>495.0</ele><time>2026-05-05T10:18:22.168Z</time></trkpt><trkpt lat="37.654035" lon="14.6336867"><ele>495.0</ele><time>2026-05-05T10:18:23.168Z</time></trkpt><trkpt lat="37.6541233" lon="14.6335533"><ele>492.5</ele><time>2026-05-05T10:18:24.168Z</time></trkpt><trkpt lat="37.6542083" lon="14.6334133"><ele>490.0</ele><time>2026-05-05T10:18:25.168Z</time></trkpt><trkpt lat="37.65429" lon="14.6332817"><ele>487.5</ele><time>2026-05-05T10:18:26.168Z</time></trkpt><trkpt lat="37.6543767" lon="14.6331667"><ele>485.0</ele><time>2026-05-05T10:18:27.168Z</time></trkpt><trkpt lat="37.65447" lon="14.6330733"><ele>484.6</ele><time>2026-05-05T10:18:28.169Z</time></trkpt><trkpt lat="37.654565" lon="14.632995"><ele>484.2</ele><time>2026-05-05T10:18:29.168Z</time></trkpt><trkpt lat="37.6546567" lon="14.6329467"><ele>483.79999999999995</ele><time>2026-05-05T10:18:30.168Z</time></trkpt><trkpt lat="37.6547467" lon="14.632915"><ele>483.4</ele><time>2026-05-05T10:18:31.168Z</time></trkpt><trkpt lat="37.65484" lon="14.6329167"><ele>483.0</ele><time>2026-05-05T10:18:32.168Z</time></trkpt><trkpt lat="37.65493" lon="14.6329333"><ele>483.0</ele><time>2026-05-05T10:18:33.168Z</time></trkpt><trkpt lat="37.65501" lon="14.63299"><ele>483.0</ele><time>2026-05-05T10:18:34.169Z</time></trkpt><trkpt lat="37.65508" lon="14.633095"><ele>483.0</ele><time>2026-05-05T10:18:35.168Z</time></trkpt><trkpt lat="37.6551517" lon="14.633225"><ele>483.0</ele><time>2026-05-05T10:18:36.168Z</time></trkpt><trkpt lat="37.65522" lon="14.6333617"><ele>483.0</ele><time>2026-05-05T10:18:37.168Z</time></trkpt><trkpt lat="37.65528" lon="14.633495"><ele>483.0</ele><time>2026-05-05T10:18:38.168Z</time></trkpt><trkpt lat="37.6553433" lon="14.633625"><ele>483.0</ele><time>2026-05-05T10:18:39.168Z</time></trkpt><trkpt lat="37.655405" lon="14.6337417"><ele>483.0</ele><time>2026-05-05T10:18:40.168Z</time></trkpt><trkpt lat="37.65547" lon="14.63386"><ele>481.0</ele><time>2026-05-05T10:18:41.168Z</time></trkpt><trkpt lat="37.6555433" lon="14.63398"><ele>479.0</ele><time>2026-05-05T10:18:42.168Z</time></trkpt><trkpt lat="37.65562" lon="14.6341017"><ele>477.0</ele><time>2026-05-05T10:18:43.168Z</time></trkpt><trkpt lat="37.6557067" lon="14.6342183"><ele>475.0</ele><time>2026-05-05T10:18:44.168Z</time></trkpt><trkpt lat="37.6557883" lon="14.6343233"><ele>475.0</ele><time>2026-05-05T10:18:45.168Z</time></trkpt><trkpt lat="37.6558833" lon="14.6344283"><ele>475.0</ele><time>2026-05-05T10:18:46.169Z</time></trkpt><trkpt lat="37.6559767" lon="14.6345417"><ele>475.0</ele><time>2026-05-05T10:18:47.168Z</time></trkpt><trkpt lat="37.656075" lon="14.634655"><ele>475.0</ele><time>2026-05-05T10:18:48.168Z</time></trkpt><trkpt lat="37.65617" lon="14.6347733"><ele>474.5</ele><time>2026-05-05T10:18:49.169Z</time></trkpt><trkpt lat="37.6562683" lon="14.634885"><ele>474.0</ele><time>2026-05-05T10:18:50.168Z</time></trkpt><trkpt lat="37.6563683" lon="14.6349833"><ele>473.5</ele><time>2026-05-05T10:18:51.168Z</time></trkpt><trkpt lat="37.65647" lon="14.6350733"><ele>473.0</ele><time>2026-05-05T10:18:52.168Z</time></trkpt><trkpt lat="37.656575" lon="14.63517"><ele>473.0</ele><time>2026-05-05T10:18:53.168Z</time></trkpt><trkpt lat="37.6566817" lon="14.6352567"><ele>473.0</ele><time>2026-05-05T10:18:54.168Z</time></trkpt><trkpt lat="37.6567933" lon="14.6353417"><ele>473.0</ele><time>2026-05-05T10:18:55.168Z</time></trkpt><trkpt lat="37.6569067" lon="14.6354167"><ele>473.0</ele><time>2026-05-05T10:18:56.168Z</time></trkpt><trkpt lat="37.6570183" lon="14.6354983"><ele>473.0</ele><time>2026-05-05T10:18:57.168Z</time></trkpt><trkpt lat="37.6571333" lon="14.63557"><ele>473.0</ele><time>2026-05-05T10:18:58.168Z</time></trkpt><trkpt lat="37.6572483" lon="14.6356367"><ele>473.0</ele><time>2026-05-05T10:18:59.168Z</time></trkpt><trkpt lat="37.6573667" lon="14.6356933"><ele>473.0</ele><time>2026-05-05T10:19:00.168Z</time></trkpt><trkpt lat="37.657495" lon="14.6357433"><ele>473.0</ele><time>2026-05-05T10:19:01.168Z</time></trkpt><trkpt lat="37.6576117" lon="14.635785"><ele>473.0</ele><time>2026-05-05T10:19:02.168Z</time></trkpt><trkpt lat="37.6577417" lon="14.6358217"><ele>473.0</ele><time>2026-05-05T10:19:03.168Z</time></trkpt><trkpt lat="37.6578733" lon="14.6358683"><ele>473.0</ele><time>2026-05-05T10:19:04.168Z</time></trkpt><trkpt lat="37.65802" lon="14.6359367"><ele>470.3333333333333</ele><time>2026-05-05T10:19:05.168Z</time></trkpt><trkpt lat="37.6581633" lon="14.6359933"><ele>467.66666666666663</ele><time>2026-05-05T10:19:06.169Z</time></trkpt><trkpt lat="37.65831" lon="14.6360483"><ele>465.0</ele><time>2026-05-05T10:19:07.168Z</time></trkpt><trkpt lat="37.6584533" lon="14.6360983"><ele>466.0</ele><time>2026-05-05T10:19:08.168Z</time></trkpt><trkpt lat="37.6585983" lon="14.636155"><ele>467.0</ele><time>2026-05-05T10:19:09.168Z</time></trkpt><trkpt lat="37.6587533" lon="14.6362067"><ele>468.0</ele><time>2026-05-05T10:19:10.168Z</time></trkpt><trkpt lat="37.6589067" lon="14.6362583"><ele>468.0</ele><time>2026-05-05T10:19:11.168Z</time></trkpt><trkpt lat="37.6590633" lon="14.6363083"><ele>468.0</ele><time>2026-05-05T10:19:12.168Z</time></trkpt><trkpt lat="37.659225" lon="14.6363517"><ele>468.0</ele><time>2026-05-05T10:19:13.168Z</time></trkpt><trkpt lat="37.6593817" lon="14.636415"><ele>465.0</ele><time>2026-05-05T10:19:14.168Z</time></trkpt><trkpt lat="37.6595333" lon="14.636465"><ele>462.0</ele><time>2026-05-05T10:19:15.168Z</time></trkpt><trkpt lat="37.659685" lon="14.63651"><ele>459.0</ele><time>2026-05-05T10:19:16.168Z</time></trkpt><trkpt lat="37.659835" lon="14.6365583"><ele>459.0</ele><time>2026-05-05T10:19:17.168Z</time></trkpt><trkpt lat="37.65998" lon="14.636615"><ele>459.0</ele><time>2026-05-05T10:19:18.168Z</time></trkpt><trkpt lat="37.6601233" lon="14.6366767"><ele>459.0</ele><time>2026-05-05T10:19:19.168Z</time></trkpt><trkpt lat="37.6602617" lon="14.6367367"><ele>459.0</ele><time>2026-05-05T10:19:20.168Z</time></trkpt><trkpt lat="37.6603967" lon="14.6368167"><ele>458.75</ele><time>2026-05-05T10:19:21.168Z</time></trkpt><trkpt lat="37.6605317" lon="14.6368983"><ele>458.5</ele><time>2026-05-05T10:19:22.168Z</time></trkpt><trkpt lat="37.66066" lon="14.6369917"><ele>458.25</ele><time>2026-05-05T10:19:23.168Z</time></trkpt><trkpt lat="37.6607817" lon="14.6370883"><ele>458.0</ele><time>2026-05-05T10:19:24.168Z</time></trkpt><trkpt lat="37.6608933" lon="14.63718"><ele>458.0</ele><time>2026-05-05T10:19:25.168Z</time></trkpt><trkpt lat="37.661" lon="14.6372683"><ele>458.0</ele><time>2026-05-05T10:19:26.168Z</time></trkpt><trkpt lat="37.6610983" lon="14.63735"><ele>458.0</ele><time>2026-05-05T10:19:27.169Z</time></trkpt><trkpt lat="37.6611883" lon="14.6374367"><ele>458.0</ele><time>2026-05-05T10:19:28.168Z</time></trkpt><trkpt lat="37.6612867" lon="14.6375067"><ele>456.25</ele><time>2026-05-05T10:19:29.168Z</time></trkpt><trkpt lat="37.6613917" lon="14.63755"><ele>454.5</ele><time>2026-05-05T10:19:30.169Z</time></trkpt><trkpt lat="37.661505" lon="14.6375683"><ele>452.75</ele><time>2026-05-05T10:19:31.168Z</time></trkpt><trkpt lat="37.6616183" lon="14.6375733"><ele>451.0</ele><time>2026-05-05T10:19:32.169Z</time></trkpt><trkpt lat="37.6617317" lon="14.6375617"><ele>451.0</ele><time>2026-05-05T10:19:33.168Z</time></trkpt><trkpt lat="37.6618433" lon="14.6375517"><ele>451.0</ele><time>2026-05-05T10:19:34.168Z</time></trkpt><trkpt lat="37.6619467" lon="14.6375383"><ele>451.0</ele><time>2026-05-05T10:19:35.168Z</time></trkpt><trkpt lat="37.6620533" lon="14.6375183"><ele>451.0</ele><time>2026-05-05T10:19:36.168Z</time></trkpt><trkpt lat="37.6621633" lon="14.637485"><ele>451.0</ele><time>2026-05-05T10:19:37.168Z</time></trkpt><trkpt lat="37.6622717" lon="14.6374283"><ele>452.0</ele><time>2026-05-05T10:19:38.168Z</time></trkpt><trkpt lat="37.6623783" lon="14.63736"><ele>453.0</ele><time>2026-05-05T10:19:39.168Z</time></trkpt><trkpt lat="37.6624733" lon="14.6372833"><ele>454.0</ele><time>2026-05-05T10:19:40.168Z</time></trkpt><trkpt lat="37.662555" lon="14.6371917"><ele>455.0</ele><time>2026-05-05T10:19:41.168Z</time></trkpt><trkpt lat="37.6626183" lon="14.6370767"><ele>454.5</ele><time>2026-05-05T10:19:42.168Z</time></trkpt><trkpt lat="37.6626617" lon="14.6369333"><ele>454.0</ele><time>2026-05-05T10:19:43.168Z</time></trkpt><trkpt lat="37.66269" lon="14.636785"><ele>453.5</ele><time>2026-05-05T10:19:44.168Z</time></trkpt><trkpt lat="37.66271" lon="14.636635"><ele>453.0</ele><time>2026-05-05T10:19:45.168Z</time></trkpt><trkpt lat="37.662725" lon="14.636475"><ele>453.0</ele><time>2026-05-05T10:19:46.168Z</time></trkpt><trkpt lat="37.6627483" lon="14.6363167"><ele>453.0</ele><time>2026-05-05T10:19:47.168Z</time></trkpt><trkpt lat="37.6627617" lon="14.636155"><ele>453.0</ele><time>2026-05-05T10:19:48.168Z</time></trkpt><trkpt lat="37.6627783" lon="14.6360017"><ele>453.0</ele><time>2026-05-05T10:19:49.169Z</time></trkpt><trkpt lat="37.6627867" lon="14.6358483"><ele>454.75</ele><time>2026-05-05T10:19:50.168Z</time></trkpt><trkpt lat="37.6627983" lon="14.6356883"><ele>456.5</ele><time>2026-05-05T10:19:51.168Z</time></trkpt><trkpt lat="37.66281" lon="14.6355283"><ele>458.25</ele><time>2026-05-05T10:19:52.168Z</time></trkpt><trkpt lat="37.6628233" lon="14.6353767"><ele>460.0</ele><time>2026-05-05T10:19:53.168Z</time></trkpt><trkpt lat="37.66283" lon="14.63523"><ele>460.0</ele><time>2026-05-05T10:19:54.168Z</time></trkpt><trkpt lat="37.6628367" lon="14.635085"><ele>460.0</ele><time>2026-05-05T10:19:55.168Z</time></trkpt><trkpt lat="37.662835" lon="14.6349383"><ele>460.0</ele><time>2026-05-05T10:19:56.168Z</time></trkpt><trkpt lat="37.6628183" lon="14.634785"><ele>460.0</ele><time>2026-05-05T10:19:57.168Z</time></trkpt><trkpt lat="37.6628033" lon="14.6346117"><ele>460.0</ele><time>2026-05-05T10:19:58.168Z</time></trkpt><trkpt lat="37.6627983" lon="14.6344433"><ele>460.0</ele><time>2026-05-05T10:19:59.168Z</time></trkpt><trkpt lat="37.6628083" lon="14.63427"><ele>460.0</ele><time>2026-05-05T10:20:00.168Z</time></trkpt><trkpt lat="37.6628217" lon="14.6340933"><ele>460.0</ele><time>2026-05-05T10:20:01.168Z</time></trkpt><trkpt lat="37.6628467" lon="14.6339233"><ele>460.0</ele><time>2026-05-05T10:20:02.168Z</time></trkpt><trkpt lat="37.66288" lon="14.6337617"><ele>460.0</ele><time>2026-05-05T10:20:03.168Z</time></trkpt><trkpt lat="37.66294" lon="14.63361"><ele>460.0</ele><time>2026-05-05T10:20:04.168Z</time></trkpt><trkpt lat="37.6630167" lon="14.6334817"><ele>460.0</ele><time>2026-05-05T10:20:05.168Z</time></trkpt><trkpt lat="37.6631083" lon="14.633365"><ele>459.75</ele><time>2026-05-05T10:20:06.168Z</time></trkpt><trkpt lat="37.6632067" lon="14.6332367"><ele>459.5</ele><time>2026-05-05T10:20:07.168Z</time></trkpt><trkpt lat="37.6633167" lon="14.6331183"><ele>459.25</ele><time>2026-05-05T10:20:08.168Z</time></trkpt><trkpt lat="37.6634383" lon="14.6330017"><ele>459.0</ele><time>2026-05-05T10:20:09.168Z</time></trkpt><trkpt lat="37.6635617" lon="14.6328733"><ele>458.33333333333337</ele><time>2026-05-05T10:20:10.168Z</time></trkpt><trkpt lat="37.663695" lon="14.632745"><ele>457.6666666666667</ele><time>2026-05-05T10:20:11.168Z</time></trkpt><trkpt lat="37.663825" lon="14.632615"><ele>457.0</ele><time>2026-05-05T10:20:12.168Z</time></trkpt><trkpt lat="37.663955" lon="14.6324883"><ele>457.0</ele><time>2026-05-05T10:20:13.168Z</time></trkpt><trkpt lat="37.66407" lon="14.6323333"><ele>457.0</ele><time>2026-05-05T10:20:14.168Z</time></trkpt><trkpt lat="37.664175" lon="14.6321733"><ele>457.0</ele><time>2026-05-05T10:20:15.168Z</time></trkpt><trkpt lat="37.664275" lon="14.6320083"><ele>455.6666666666667</ele><time>2026-05-05T10:20:16.168Z</time></trkpt><trkpt lat="37.6643867" lon="14.63185"><ele>454.33333333333337</ele><time>2026-05-05T10:20:17.168Z</time></trkpt><trkpt lat="37.6645" lon="14.6316883"><ele>453.0</ele><time>2026-05-05T10:20:18.168Z</time></trkpt><trkpt lat="37.6646083" lon="14.6315317"><ele>455.66666666666663</ele><time>2026-05-05T10:20:19.168Z</time></trkpt><trkpt lat="37.66471" lon="14.6313667"><ele>458.3333333333333</ele><time>2026-05-05T10:20:20.168Z</time></trkpt><trkpt lat="37.6648083" lon="14.6312133"><ele>461.0</ele><time>2026-05-05T10:20:21.168Z</time></trkpt><trkpt lat="37.6649067" lon="14.63106"><ele>461.0</ele><time>2026-05-05T10:20:22.168Z</time></trkpt><trkpt lat="37.6650033" lon="14.6309117"><ele>461.0</ele><time>2026-05-05T10:20:23.168Z</time></trkpt><trkpt lat="37.6651083" lon="14.6307683"><ele>461.0</ele><time>2026-05-05T10:20:24.169Z</time></trkpt><trkpt lat="37.6652233" lon="14.6306383"><ele>464.66666666666663</ele><time>2026-05-05T10:20:25.168Z</time></trkpt><trkpt lat="37.665345" lon="14.6305167"><ele>468.33333333333337</ele><time>2026-05-05T10:20:26.169Z</time></trkpt><trkpt lat="37.66547" lon="14.6303933"><ele>472.0</ele><time>2026-05-05T10:20:27.168Z</time></trkpt><trkpt lat="37.6655933" lon="14.6302667"><ele>472.0</ele><time>2026-05-05T10:20:28.168Z</time></trkpt><trkpt lat="37.665715" lon="14.6301317"><ele>472.0</ele><time>2026-05-05T10:20:29.168Z</time></trkpt><trkpt lat="37.665825" lon="14.6299883"><ele>472.0</ele><time>2026-05-05T10:20:30.168Z</time></trkpt><trkpt lat="37.6659417" lon="14.6298467"><ele>472.0</ele><time>2026-05-05T10:20:31.168Z</time></trkpt><trkpt lat="37.666055" lon="14.6296967"><ele>472.0</ele><time>2026-05-05T10:20:32.168Z</time></trkpt><trkpt lat="37.6661633" lon="14.6295483"><ele>472.0</ele><time>2026-05-05T10:20:33.168Z</time></trkpt><trkpt lat="37.66627" lon="14.6293933"><ele>475.33333333333337</ele><time>2026-05-05T10:20:34.168Z</time></trkpt><trkpt lat="37.6663683" lon="14.6292433"><ele>478.66666666666663</ele><time>2026-05-05T10:20:35.169Z</time></trkpt><trkpt lat="37.6664733" lon="14.6290983"><ele>482.0</ele><time>2026-05-05T10:20:36.169Z</time></trkpt><trkpt lat="37.666565" lon="14.62896"><ele>482.0</ele><time>2026-05-05T10:20:37.168Z</time></trkpt><trkpt lat="37.6666317" lon="14.6288167"><ele>482.0</ele><time>2026-05-05T10:20:38.168Z</time></trkpt><trkpt lat="37.6666583" lon="14.6286667"><ele>482.0</ele><time>2026-05-05T10:20:39.168Z</time></trkpt><trkpt lat="37.6666617" lon="14.6285017"><ele>482.0</ele><time>2026-05-05T10:20:40.168Z</time></trkpt><trkpt lat="37.6666417" lon="14.6283283"><ele>481.25</ele><time>2026-05-05T10:20:41.169Z</time></trkpt><trkpt lat="37.6666167" lon="14.6281417"><ele>480.5</ele><time>2026-05-05T10:20:42.168Z</time></trkpt><trkpt lat="37.6665833" lon="14.6279567"><ele>479.75</ele><time>2026-05-05T10:20:43.168Z</time></trkpt><trkpt lat="37.6665567" lon="14.6277817"><ele>479.0</ele><time>2026-05-05T10:20:44.168Z</time></trkpt><trkpt lat="37.666525" lon="14.6276167"><ele>479.0</ele><time>2026-05-05T10:20:45.168Z</time></trkpt><trkpt lat="37.666465" lon="14.62747"><ele>479.0</ele><time>2026-05-05T10:20:46.168Z</time></trkpt><trkpt lat="37.6663817" lon="14.6273383"><ele>479.0</ele><time>2026-05-05T10:20:47.168Z</time></trkpt><trkpt lat="37.666285" lon="14.6271983"><ele>479.0</ele><time>2026-05-05T10:20:48.168Z</time></trkpt><trkpt lat="37.666185" lon="14.627065"><ele>477.25</ele><time>2026-05-05T10:20:49.169Z</time></trkpt><trkpt lat="37.666095" lon="14.6269267"><ele>475.5</ele><time>2026-05-05T10:20:50.168Z</time></trkpt><trkpt lat="37.6659983" lon="14.626785"><ele>473.75</ele><time>2026-05-05T10:20:51.168Z</time></trkpt><trkpt lat="37.6659" lon="14.6266533"><ele>472.0</ele><time>2026-05-05T10:20:52.168Z</time></trkpt><trkpt lat="37.6658167" lon="14.626535"><ele>472.0</ele><time>2026-05-05T10:20:53.167Z</time></trkpt><trkpt lat="37.6657467" lon="14.6264117"><ele>472.0</ele><time>2026-05-05T10:20:54.167Z</time></trkpt><trkpt lat="37.6657017" lon="14.6262667"><ele>472.0</ele><time>2026-05-05T10:20:55.167Z</time></trkpt><trkpt lat="37.6657" lon="14.62611"><ele>472.0</ele><time>2026-05-05T10:20:56.168Z</time></trkpt><trkpt lat="37.6657133" lon="14.6259433"><ele>470.33333333333337</ele><time>2026-05-05T10:20:57.167Z</time></trkpt><trkpt lat="37.665755" lon="14.625755"><ele>468.66666666666663</ele><time>2026-05-05T10:20:58.167Z</time></trkpt><trkpt lat="37.6657867" lon="14.625565"><ele>467.0</ele><time>2026-05-05T10:20:59.167Z</time></trkpt><trkpt lat="37.6658167" lon="14.6253667"><ele>465.0</ele><time>2026-05-05T10:21:00.167Z</time></trkpt><trkpt lat="37.6658517" lon="14.6251683"><ele>463.0</ele><time>2026-05-05T10:21:01.167Z</time></trkpt><trkpt lat="37.665885" lon="14.6249717"><ele>461.0</ele><time>2026-05-05T10:21:02.168Z</time></trkpt><trkpt lat="37.665915" lon="14.62478"><ele>461.0</ele><time>2026-05-05T10:21:03.167Z</time></trkpt><trkpt lat="37.665945" lon="14.624595"><ele>461.0</ele><time>2026-05-05T10:21:04.167Z</time></trkpt><trkpt lat="37.6659783" lon="14.624415"><ele>461.0</ele><time>2026-05-05T10:21:05.167Z</time></trkpt><trkpt lat="37.6660067" lon="14.6242383"><ele>461.0</ele><time>2026-05-05T10:21:06.167Z</time></trkpt><trkpt lat="37.6660383" lon="14.6240683"><ele>462.0</ele><time>2026-05-05T10:21:07.167Z</time></trkpt><trkpt lat="37.6660767" lon="14.6239083"><ele>463.0</ele><time>2026-05-05T10:21:08.168Z</time></trkpt><trkpt lat="37.6661317" lon="14.6237617"><ele>464.0</ele><time>2026-05-05T10:21:09.167Z</time></trkpt><trkpt lat="37.666205" lon="14.6236283"><ele>465.0</ele><time>2026-05-05T10:21:10.168Z</time></trkpt><trkpt lat="37.6662933" lon="14.6235033"><ele>463.0</ele><time>2026-05-05T10:21:11.167Z</time></trkpt><trkpt lat="37.6663833" lon="14.6233817"><ele>461.0</ele><time>2026-05-05T10:21:12.167Z</time></trkpt><trkpt lat="37.6664733" lon="14.62326"><ele>459.0</ele><time>2026-05-05T10:21:13.167Z</time></trkpt><trkpt lat="37.666555" lon="14.6231483"><ele>457.0</ele><time>2026-05-05T10:21:14.168Z</time></trkpt><trkpt lat="37.6666167" lon="14.6230417"><ele>457.0</ele><time>2026-05-05T10:21:15.167Z</time></trkpt><trkpt lat="37.6666617" lon="14.6229383"><ele>457.00000000000006</ele><time>2026-05-05T10:21:16.167Z</time></trkpt><trkpt lat="37.6666817" lon="14.6228183"><ele>457.00000000000006</ele><time>2026-05-05T10:21:17.167Z</time></trkpt><trkpt lat="37.66668" lon="14.6226983"><ele>457.0</ele><time>2026-05-05T10:21:18.167Z</time></trkpt><trkpt lat="37.6666617" lon="14.62258"><ele>457.0</ele><time>2026-05-05T10:21:19.167Z</time></trkpt><trkpt lat="37.6666283" lon="14.622455"><ele>455.5</ele><time>2026-05-05T10:21:20.168Z</time></trkpt><trkpt lat="37.6665867" lon="14.62232"><ele>454.0</ele><time>2026-05-05T10:21:21.167Z</time></trkpt><trkpt lat="37.666545" lon="14.6221717"><ele>452.5</ele><time>2026-05-05T10:21:22.167Z</time></trkpt><trkpt lat="37.666505" lon="14.622025"><ele>451.0</ele><time>2026-05-05T10:21:23.167Z</time></trkpt><trkpt lat="37.6664667" lon="14.6218733"><ele>450.0</ele><time>2026-05-05T10:21:24.167Z</time></trkpt><trkpt lat="37.6664267" lon="14.6217183"><ele>449.0</ele><time>2026-05-05T10:21:25.167Z</time></trkpt><trkpt lat="37.6663867" lon="14.6215583"><ele>448.0</ele><time>2026-05-05T10:21:26.167Z</time></trkpt><trkpt lat="37.6663517" lon="14.6214"><ele>447.0</ele><time>2026-05-05T10:21:27.167Z</time></trkpt><trkpt lat="37.6663167" lon="14.62124"><ele>445.5</ele><time>2026-05-05T10:21:28.167Z</time></trkpt><trkpt lat="37.6663033" lon="14.6210667"><ele>444.0</ele><time>2026-05-05T10:21:29.167Z</time></trkpt><trkpt lat="37.6663083" lon="14.6209067"><ele>442.5</ele><time>2026-05-05T10:21:30.167Z</time></trkpt><trkpt lat="37.6663333" lon="14.6207467"><ele>441.0</ele><time>2026-05-05T10:21:31.167Z</time></trkpt><trkpt lat="37.6663783" lon="14.6205933"><ele>441.0</ele><time>2026-05-05T10:21:32.167Z</time></trkpt><trkpt lat="37.66645" lon="14.6204483"><ele>441.0</ele><time>2026-05-05T10:21:33.167Z</time></trkpt><trkpt lat="37.6665333" lon="14.6202983"><ele>441.0</ele><time>2026-05-05T10:21:34.167Z</time></trkpt><trkpt lat="37.666615" lon="14.6201533"><ele>441.0</ele><time>2026-05-05T10:21:35.167Z</time></trkpt><trkpt lat="37.6666917" lon="14.6200167"><ele>440.75</ele><time>2026-05-05T10:21:36.167Z</time></trkpt><trkpt lat="37.6667567" lon="14.6198867"><ele>440.5</ele><time>2026-05-05T10:21:37.167Z</time></trkpt><trkpt lat="37.6668233" lon="14.6197633"><ele>440.25</ele><time>2026-05-05T10:21:38.167Z</time></trkpt><trkpt lat="37.6668867" lon="14.6196467"><ele>440.0</ele><time>2026-05-05T10:21:39.167Z</time></trkpt><trkpt lat="37.666945" lon="14.6195317"><ele>438.25</ele><time>2026-05-05T10:21:40.167Z</time></trkpt><trkpt lat="37.66701" lon="14.6194133"><ele>436.5</ele><time>2026-05-05T10:21:41.167Z</time></trkpt><trkpt lat="37.6670767" lon="14.6192917"><ele>434.75</ele><time>2026-05-05T10:21:42.167Z</time></trkpt><trkpt lat="37.6671383" lon="14.61917"><ele>433.0</ele><time>2026-05-05T10:21:43.167Z</time></trkpt><trkpt lat="37.667205" lon="14.6190517"><ele>433.0</ele><time>2026-05-05T10:21:44.167Z</time></trkpt><trkpt lat="37.6672733" lon="14.6189283"><ele>433.0</ele><time>2026-05-05T10:21:45.167Z</time></trkpt><trkpt lat="37.6673383" lon="14.6188083"><ele>433.0</ele><time>2026-05-05T10:21:46.168Z</time></trkpt><trkpt lat="37.6674033" lon="14.61869"><ele>433.0</ele><time>2026-05-05T10:21:47.167Z</time></trkpt><trkpt lat="37.6674667" lon="14.6185667"><ele>431.0</ele><time>2026-05-05T10:21:48.167Z</time></trkpt><trkpt lat="37.6675317" lon="14.6184433"><ele>429.0</ele><time>2026-05-05T10:21:49.168Z</time></trkpt><trkpt lat="37.6675767" lon="14.61831"><ele>427.0</ele><time>2026-05-05T10:21:50.168Z</time></trkpt><trkpt lat="37.6675883" lon="14.6181717"><ele>425.0</ele><time>2026-05-05T10:21:51.167Z</time></trkpt><trkpt lat="37.6675717" lon="14.61803"><ele>425.0</ele><time>2026-05-05T10:21:52.167Z</time></trkpt><trkpt lat="37.6675467" lon="14.61788"><ele>425.0</ele><time>2026-05-05T10:21:53.167Z</time></trkpt><trkpt lat="37.6675117" lon="14.61774"><ele>425.0</ele><time>2026-05-05T10:21:54.168Z</time></trkpt><trkpt lat="37.6674767" lon="14.6175983"><ele>425.0</ele><time>2026-05-05T10:21:55.167Z</time></trkpt><trkpt lat="37.6674483" lon="14.6174783"><ele>423.66666666666663</ele><time>2026-05-05T10:21:56.167Z</time></trkpt><trkpt lat="37.6674283" lon="14.6173717"><ele>422.3333333333333</ele><time>2026-05-05T10:21:57.167Z</time></trkpt><trkpt lat="37.6674117" lon="14.61729"><ele>421.0</ele><time>2026-05-05T10:21:58.167Z</time></trkpt><trkpt lat="37.667395" lon="14.6171817"><ele>419.66666666666663</ele><time>2026-05-05T10:22:00.168Z</time></trkpt><trkpt lat="37.6673733" lon="14.6170783"><ele>418.3333333333333</ele><time>2026-05-05T10:22:05.167Z</time></trkpt><trkpt lat="37.667355" lon="14.6169967"><ele>417.0</ele><time>2026-05-05T10:22:06.167Z</time></trkpt><trkpt lat="37.667335" lon="14.6168917"><ele>416.0</ele><time>2026-05-05T10:22:07.167Z</time></trkpt><trkpt lat="37.6673117" lon="14.61678"><ele>415.0</ele><time>2026-05-05T10:22:08.167Z</time></trkpt><trkpt lat="37.6672983" lon="14.6166583"><ele>414.0</ele><time>2026-05-05T10:22:09.167Z</time></trkpt><trkpt lat="37.6672933" lon="14.6165233"><ele>413.0</ele><time>2026-05-05T10:22:10.167Z</time></trkpt><trkpt lat="37.6672983" lon="14.61638"><ele>412.0</ele><time>2026-05-05T10:22:11.167Z</time></trkpt><trkpt lat="37.6673167" lon="14.616245"><ele>410.5</ele><time>2026-05-05T10:22:12.167Z</time></trkpt><trkpt lat="37.6673533" lon="14.6161067"><ele>409.0</ele><time>2026-05-05T10:22:13.167Z</time></trkpt><trkpt lat="37.6674067" lon="14.6159633"><ele>407.5</ele><time>2026-05-05T10:22:14.167Z</time></trkpt><trkpt lat="37.6674783" lon="14.6158217"><ele>406.0</ele><time>2026-05-05T10:22:15.167Z</time></trkpt><trkpt lat="37.6675633" lon="14.6156817"><ele>406.0</ele><time>2026-05-05T10:22:16.167Z</time></trkpt><trkpt lat="37.6676467" lon="14.61555"><ele>406.0</ele><time>2026-05-05T10:22:17.167Z</time></trkpt><trkpt lat="37.6677267" lon="14.6154233"><ele>406.0</ele><time>2026-05-05T10:22:18.167Z</time></trkpt><trkpt lat="37.6678017" lon="14.6153033"><ele>406.0</ele><time>2026-05-05T10:22:19.167Z</time></trkpt><trkpt lat="37.6678733" lon="14.6151917"><ele>404.75</ele><time>2026-05-05T10:22:20.168Z</time></trkpt><trkpt lat="37.667965" lon="14.615085"><ele>403.5</ele><time>2026-05-05T10:22:21.167Z</time></trkpt><trkpt lat="37.6680683" lon="14.61501"><ele>402.25</ele><time>2026-05-05T10:22:22.168Z</time></trkpt><trkpt lat="37.6681817" lon="14.6149617"><ele>401.0</ele><time>2026-05-05T10:22:23.167Z</time></trkpt><trkpt lat="37.6682883" lon="14.6149267"><ele>401.0</ele><time>2026-05-05T10:22:24.168Z</time></trkpt><trkpt lat="37.6683933" lon="14.6149017"><ele>401.0</ele><time>2026-05-05T10:22:25.167Z</time></trkpt><trkpt lat="37.66849" lon="14.6148917"><ele>401.0</ele><time>2026-05-05T10:22:26.168Z</time></trkpt><trkpt lat="37.6685917" lon="14.6149"><ele>401.0</ele><time>2026-05-05T10:22:27.167Z</time></trkpt><trkpt lat="37.6686983" lon="14.6149083"><ele>401.0</ele><time>2026-05-05T10:22:28.167Z</time></trkpt><trkpt lat="37.668815" lon="14.6149083"><ele>400.8</ele><time>2026-05-05T10:22:29.167Z</time></trkpt><trkpt lat="37.6689317" lon="14.6149083"><ele>400.6</ele><time>2026-05-05T10:22:30.168Z</time></trkpt><trkpt lat="37.669045" lon="14.6149167"><ele>400.4</ele><time>2026-05-05T10:22:31.167Z</time></trkpt><trkpt lat="37.6691567" lon="14.6149167"><ele>400.2</ele><time>2026-05-05T10:22:32.167Z</time></trkpt><trkpt lat="37.66926" lon="14.6149217"><ele>400.0</ele><time>2026-05-05T10:22:33.167Z</time></trkpt><trkpt lat="37.6693667" lon="14.6149233"><ele>403.2</ele><time>2026-05-05T10:22:34.167Z</time></trkpt><trkpt lat="37.66946" lon="14.614915"><ele>406.4</ele><time>2026-05-05T10:22:35.167Z</time></trkpt><trkpt lat="37.6695583" lon="14.6148733"><ele>409.6</ele><time>2026-05-05T10:22:36.167Z</time></trkpt><trkpt lat="37.6696333" lon="14.6148067"><ele>412.8</ele><time>2026-05-05T10:22:37.167Z</time></trkpt><trkpt lat="37.6696933" lon="14.6147067"><ele>416.0</ele><time>2026-05-05T10:22:38.167Z</time></trkpt><trkpt lat="37.6697417" lon="14.614585"><ele>413.25</ele><time>2026-05-05T10:22:39.168Z</time></trkpt><trkpt lat="37.6697883" lon="14.6144567"><ele>410.5</ele><time>2026-05-05T10:22:40.168Z</time></trkpt><trkpt lat="37.6698333" lon="14.61432"><ele>407.75</ele><time>2026-05-05T10:22:41.167Z</time></trkpt><trkpt lat="37.6698783" lon="14.6141867"><ele>405.0</ele><time>2026-05-05T10:22:42.167Z</time></trkpt><trkpt lat="37.6699067" lon="14.614045"><ele>405.0</ele><time>2026-05-05T10:22:43.167Z</time></trkpt><trkpt lat="37.6699333" lon="14.6139"><ele>405.0</ele><time>2026-05-05T10:22:44.167Z</time></trkpt><trkpt lat="37.6699283" lon="14.6137517"><ele>405.0</ele><time>2026-05-05T10:22:45.167Z</time></trkpt><trkpt lat="37.6699183" lon="14.6136"><ele>405.0</ele><time>2026-05-05T10:22:46.167Z</time></trkpt><trkpt lat="37.66991" lon="14.6134467"><ele>404.75</ele><time>2026-05-05T10:22:47.167Z</time></trkpt><trkpt lat="37.6699033" lon="14.6132867"><ele>404.5</ele><time>2026-05-05T10:22:48.167Z</time></trkpt><trkpt lat="37.66991" lon="14.61313"><ele>404.25</ele><time>2026-05-05T10:22:49.167Z</time></trkpt><trkpt lat="37.66992" lon="14.6129767"><ele>404.0</ele><time>2026-05-05T10:22:50.167Z</time></trkpt><trkpt lat="37.6699467" lon="14.612825"><ele>399.75</ele><time>2026-05-05T10:22:51.167Z</time></trkpt><trkpt lat="37.66998" lon="14.612675"><ele>395.5</ele><time>2026-05-05T10:22:52.167Z</time></trkpt><trkpt lat="37.6700117" lon="14.61253"><ele>391.25</ele><time>2026-05-05T10:22:53.168Z</time></trkpt><trkpt lat="37.6700417" lon="14.6123733"><ele>387.0</ele><time>2026-05-05T10:22:54.167Z</time></trkpt><trkpt lat="37.67007" lon="14.6122317"><ele>387.0</ele><time>2026-05-05T10:22:55.168Z</time></trkpt><trkpt lat="37.670105" lon="14.6120917"><ele>387.0</ele><time>2026-05-05T10:22:56.167Z</time></trkpt><trkpt lat="37.67014" lon="14.6119683"><ele>387.0</ele><time>2026-05-05T10:22:57.167Z</time></trkpt><trkpt lat="37.6701883" lon="14.6118683"><ele>387.0</ele><time>2026-05-05T10:22:58.167Z</time></trkpt><trkpt lat="37.670255" lon="14.61179"><ele>387.0</ele><time>2026-05-05T10:22:59.167Z</time></trkpt><trkpt lat="37.670325" lon="14.6117383"><ele>388.0</ele><time>2026-05-05T10:23:00.168Z</time></trkpt><trkpt lat="37.67041" lon="14.611745"><ele>389.0</ele><time>2026-05-05T10:23:01.167Z</time></trkpt><trkpt lat="37.6704967" lon="14.6118067"><ele>390.0</ele><time>2026-05-05T10:23:02.168Z</time></trkpt><trkpt lat="37.6705883" lon="14.6119067"><ele>391.0</ele><time>2026-05-05T10:23:03.167Z</time></trkpt><trkpt lat="37.6706933" lon="14.6120117"><ele>392.0</ele><time>2026-05-05T10:23:04.167Z</time></trkpt><trkpt lat="37.6707917" lon="14.6120967"><ele>392.0</ele><time>2026-05-05T10:23:05.167Z</time></trkpt><trkpt lat="37.6708917" lon="14.6121683"><ele>392.0</ele><time>2026-05-05T10:23:06.167Z</time></trkpt><trkpt lat="37.6709933" lon="14.6122233"><ele>392.0</ele><time>2026-05-05T10:23:07.167Z</time></trkpt><trkpt lat="37.6710983" lon="14.6122667"><ele>392.0</ele><time>2026-05-05T10:23:08.168Z</time></trkpt><trkpt lat="37.671195" lon="14.6123033"><ele>392.0</ele><time>2026-05-05T10:23:09.167Z</time></trkpt><trkpt lat="37.67128" lon="14.6123367"><ele>390.66666666666663</ele><time>2026-05-05T10:23:10.167Z</time></trkpt><trkpt lat="37.6713583" lon="14.6123667"><ele>389.3333333333333</ele><time>2026-05-05T10:23:11.167Z</time></trkpt><trkpt lat="37.6714283" lon="14.6123967"><ele>388.0</ele><time>2026-05-05T10:23:12.167Z</time></trkpt><trkpt lat="37.6715267" lon="14.6124467"><ele>386.66666666666663</ele><time>2026-05-05T10:23:14.167Z</time></trkpt><trkpt lat="37.6715867" lon="14.612475"><ele>385.3333333333333</ele><time>2026-05-05T10:23:16.167Z</time></trkpt><trkpt lat="37.6716783" lon="14.61252"><ele>384.0</ele><time>2026-05-05T10:23:18.167Z</time></trkpt><trkpt lat="37.6717433" lon="14.6125683"><ele>384.0</ele><time>2026-05-05T10:23:19.167Z</time></trkpt><trkpt lat="37.6718133" lon="14.6126383"><ele>384.0</ele><time>2026-05-05T10:23:20.167Z</time></trkpt><trkpt lat="37.6718917" lon="14.6127183"><ele>384.0</ele><time>2026-05-05T10:23:21.167Z</time></trkpt><trkpt lat="37.67198" lon="14.6127817"><ele>384.0</ele><time>2026-05-05T10:23:22.167Z</time></trkpt><trkpt lat="37.6720633" lon="14.6128417"><ele>384.0</ele><time>2026-05-05T10:23:23.167Z</time></trkpt><trkpt lat="37.6721533" lon="14.6129033"><ele>383.5</ele><time>2026-05-05T10:23:24.167Z</time></trkpt><trkpt lat="37.6722367" lon="14.6129383"><ele>383.0</ele><time>2026-05-05T10:23:25.167Z</time></trkpt><trkpt lat="37.6723217" lon="14.6129717"><ele>382.5</ele><time>2026-05-05T10:23:26.167Z</time></trkpt><trkpt lat="37.6724067" lon="14.6129733"><ele>382.0</ele><time>2026-05-05T10:23:27.167Z</time></trkpt><trkpt lat="37.6724917" lon="14.61294"><ele>381.5</ele><time>2026-05-05T10:23:28.167Z</time></trkpt><trkpt lat="37.67257" lon="14.6128817"><ele>381.0</ele><time>2026-05-05T10:23:29.167Z</time></trkpt><trkpt lat="37.6726367" lon="14.612815"><ele>379.5</ele><time>2026-05-05T10:23:30.167Z</time></trkpt><trkpt lat="37.6727033" lon="14.6127483"><ele>378.0</ele><time>2026-05-05T10:23:31.167Z</time></trkpt><trkpt lat="37.67276" lon="14.61268"><ele>376.5</ele><time>2026-05-05T10:23:32.168Z</time></trkpt><trkpt lat="37.67282" lon="14.6126317"><ele>375.0</ele><time>2026-05-05T10:23:33.167Z</time></trkpt><trkpt lat="37.6729367" lon="14.612605"><ele>373.5</ele><time>2026-05-05T10:23:35.167Z</time></trkpt><trkpt lat="37.6730067" lon="14.6126233"><ele>372.0</ele><time>2026-05-05T10:23:36.167Z</time></trkpt><trkpt lat="37.6731267" lon="14.6126583"><ele>370.8</ele><time>2026-05-05T10:23:38.167Z</time></trkpt><trkpt lat="37.673245" lon="14.6126467"><ele>369.6</ele><time>2026-05-05T10:23:40.167Z</time></trkpt><trkpt lat="37.6733417" lon="14.6125983"><ele>368.40000000000003</ele><time>2026-05-05T10:23:42.168Z</time></trkpt><trkpt lat="37.6733917" lon="14.612525"><ele>367.20000000000005</ele><time>2026-05-05T10:23:44.167Z</time></trkpt><trkpt lat="37.6733867" lon="14.6124117"><ele>366.0</ele><time>2026-05-05T10:24:59.167Z</time></trkpt><trkpt lat="37.6733767" lon="14.612235"><ele>366.0</ele><time>2026-05-05T10:25:01.167Z</time></trkpt><trkpt lat="37.6733467" lon="14.6120967"><ele>366.0</ele><time>2026-05-05T10:25:02.167Z</time></trkpt><trkpt lat="37.6733017" lon="14.61198"><ele>366.0</ele><time>2026-05-05T10:25:03.168Z</time></trkpt><trkpt lat="37.6732633" lon="14.611865"><ele>366.0</ele><time>2026-05-05T10:25:04.167Z</time></trkpt><trkpt lat="37.67323" lon="14.61175"><ele>366.0</ele><time>2026-05-05T10:25:05.167Z</time></trkpt><trkpt lat="37.6731983" lon="14.6116367"><ele>365.0</ele><time>2026-05-05T10:25:06.168Z</time></trkpt><trkpt lat="37.6731733" lon="14.6115333"><ele>364.0</ele><time>2026-05-05T10:25:07.167Z</time></trkpt><trkpt lat="37.6731517" lon="14.611445"><ele>363.0</ele><time>2026-05-05T10:25:08.167Z</time></trkpt><trkpt lat="37.67313" lon="14.61136"><ele>362.0</ele><time>2026-05-05T10:25:09.167Z</time></trkpt><trkpt lat="37.673115" lon="14.6112783"><ele>361.0</ele><time>2026-05-05T10:25:10.168Z</time></trkpt><trkpt lat="37.6731167" lon="14.611195"><ele>360.0</ele><time>2026-05-05T10:25:11.168Z</time></trkpt><trkpt lat="37.6731367" lon="14.6111083"><ele>359.0</ele><time>2026-05-05T10:25:12.167Z</time></trkpt><trkpt lat="37.67318" lon="14.61102"><ele>358.33333333333337</ele><time>2026-05-05T10:25:13.167Z</time></trkpt><trkpt lat="37.6732267" lon="14.61093"><ele>357.6666666666667</ele><time>2026-05-05T10:25:14.167Z</time></trkpt><trkpt lat="37.6732733" lon="14.6108367"><ele>357.0</ele><time>2026-05-05T10:25:15.167Z</time></trkpt><trkpt lat="37.6733183" lon="14.6107417"><ele>356.3333333333333</ele><time>2026-05-05T10:25:16.167Z</time></trkpt><trkpt lat="37.673365" lon="14.61065"><ele>355.66666666666663</ele><time>2026-05-05T10:25:17.167Z</time></trkpt><trkpt lat="37.6734067" lon="14.6105567"><ele>355.0</ele><time>2026-05-05T10:25:18.168Z</time></trkpt><trkpt lat="37.6734517" lon="14.6104667"><ele>355.0</ele><time>2026-05-05T10:25:19.167Z</time></trkpt><trkpt lat="37.673495" lon="14.6103733"><ele>355.0</ele><time>2026-05-05T10:25:20.167Z</time></trkpt><trkpt lat="37.673535" lon="14.6102733"><ele>355.0</ele><time>2026-05-05T10:25:21.167Z</time></trkpt><trkpt lat="37.6735783" lon="14.6101833"><ele>355.0</ele><time>2026-05-05T10:25:22.167Z</time></trkpt><trkpt lat="37.673615" lon="14.6100833"><ele>355.0</ele><time>2026-05-05T10:25:23.167Z</time></trkpt><trkpt lat="37.6736417" lon="14.6099733"><ele>355.0</ele><time>2026-05-05T10:25:24.167Z</time></trkpt><trkpt lat="37.673655" lon="14.609865"><ele>355.0</ele><time>2026-05-05T10:25:25.167Z</time></trkpt><trkpt lat="37.6736583" lon="14.6097567"><ele>355.0</ele><time>2026-05-05T10:25:26.167Z</time></trkpt><trkpt lat="37.6736433" lon="14.6096533"><ele>355.0</ele><time>2026-05-05T10:25:27.167Z</time></trkpt><trkpt lat="37.6736317" lon="14.6095483"><ele>355.0</ele><time>2026-05-05T10:25:28.167Z</time></trkpt><trkpt lat="37.6736133" lon="14.6094417"><ele>355.0</ele><time>2026-05-05T10:25:29.168Z</time></trkpt><trkpt lat="37.6735983" lon="14.6093333"><ele>355.0</ele><time>2026-05-05T10:25:30.167Z</time></trkpt><trkpt lat="37.673585" lon="14.60923"><ele>355.0</ele><time>2026-05-05T10:25:31.167Z</time></trkpt><trkpt lat="37.673565" lon="14.60913"><ele>355.0</ele><time>2026-05-05T10:25:32.167Z</time></trkpt><trkpt lat="37.6735517" lon="14.60904"><ele>355.0</ele><time>2026-05-05T10:25:33.168Z</time></trkpt><trkpt lat="37.67355" lon="14.6089533"><ele>355.0</ele><time>2026-05-05T10:25:34.167Z</time></trkpt><trkpt lat="37.6736017" lon="14.6088167"><ele>355.0</ele><time>2026-05-05T10:25:36.168Z</time></trkpt><trkpt lat="37.6736467" lon="14.6087417"><ele>355.0</ele><time>2026-05-05T10:25:37.167Z</time></trkpt><trkpt lat="37.67369" lon="14.60867"><ele>358.0</ele><time>2026-05-05T10:25:38.167Z</time></trkpt><trkpt lat="37.6737283" lon="14.6085533"><ele>361.0</ele><time>2026-05-05T10:25:40.167Z</time></trkpt><trkpt lat="37.6737" lon="14.608435"><ele>364.0</ele><time>2026-05-05T10:25:42.167Z</time></trkpt><trkpt lat="37.67364" lon="14.6083783"><ele>367.0</ele><time>2026-05-05T10:25:43.168Z</time></trkpt><trkpt lat="37.67356" lon="14.6083183"><ele>370.0</ele><time>2026-05-05T10:25:44.167Z</time></trkpt><trkpt lat="37.673475" lon="14.60826"><ele>370.0</ele><time>2026-05-05T10:25:45.167Z</time></trkpt><trkpt lat="37.6733883" lon="14.6082033"><ele>370.0</ele><time>2026-05-05T10:25:46.167Z</time></trkpt><trkpt lat="37.6732983" lon="14.60816"><ele>370.0</ele><time>2026-05-05T10:25:47.167Z</time></trkpt><trkpt lat="37.6732183" lon="14.6081383"><ele>370.0</ele><time>2026-05-05T10:25:48.167Z</time></trkpt><trkpt lat="37.6731517" lon="14.6080767"><ele>370.0</ele><time>2026-05-05T10:25:49.167Z</time></trkpt><trkpt lat="37.6730933" lon="14.6079967"><ele>370.0</ele><time>2026-05-05T10:25:50.167Z</time></trkpt><trkpt lat="37.67304" lon="14.60791"><ele>374.6</ele><time>2026-05-05T10:25:51.167Z</time></trkpt><trkpt lat="37.6729917" lon="14.607815"><ele>379.2</ele><time>2026-05-05T10:25:52.167Z</time></trkpt><trkpt lat="37.672935" lon="14.6077133"><ele>383.79999999999995</ele><time>2026-05-05T10:25:53.168Z</time></trkpt><trkpt lat="37.6728867" lon="14.6076017"><ele>388.4</ele><time>2026-05-05T10:25:54.168Z</time></trkpt><trkpt lat="37.672835" lon="14.6075083"><ele>393.0</ele><time>2026-05-05T10:25:55.168Z</time></trkpt><trkpt lat="37.6727883" lon="14.607415"><ele>390.8333333333333</ele><time>2026-05-05T10:25:56.167Z</time></trkpt><trkpt lat="37.672745" lon="14.6073233"><ele>388.6666666666667</ele><time>2026-05-05T10:25:57.168Z</time></trkpt><trkpt lat="37.6727" lon="14.6072283"><ele>386.5</ele><time>2026-05-05T10:25:58.167Z</time></trkpt><trkpt lat="37.67265" lon="14.60714"><ele>384.33333333333337</ele><time>2026-05-05T10:25:59.167Z</time></trkpt><trkpt lat="37.6726" lon="14.6070483"><ele>382.1666666666667</ele><time>2026-05-05T10:26:00.167Z</time></trkpt><trkpt lat="37.672545" lon="14.60696"><ele>380.0</ele><time>2026-05-05T10:26:01.167Z</time></trkpt><trkpt lat="37.67249" lon="14.606875"><ele>380.0</ele><time>2026-05-05T10:26:02.167Z</time></trkpt><trkpt lat="37.67243" lon="14.6068033"><ele>380.0</ele><time>2026-05-05T10:26:03.167Z</time></trkpt><trkpt lat="37.6723683" lon="14.6067367"><ele>380.0</ele><time>2026-05-05T10:26:04.167Z</time></trkpt><trkpt lat="37.6722933" lon="14.6066733"><ele>380.0</ele><time>2026-05-05T10:26:05.167Z</time></trkpt><trkpt lat="37.6722183" lon="14.6066033"><ele>380.0</ele><time>2026-05-05T10:26:06.167Z</time></trkpt><trkpt lat="37.672145" lon="14.606535"><ele>380.0</ele><time>2026-05-05T10:26:07.167Z</time></trkpt><trkpt lat="37.6720817" lon="14.6064667"><ele>380.0</ele><time>2026-05-05T10:26:08.167Z</time></trkpt><trkpt lat="37.672015" lon="14.60641"><ele>380.0</ele><time>2026-05-05T10:26:09.167Z</time></trkpt><trkpt lat="37.6719517" lon="14.6063517"><ele>380.0</ele><time>2026-05-05T10:26:10.168Z</time></trkpt><trkpt lat="37.67189" lon="14.6062917"><ele>380.0</ele><time>2026-05-05T10:26:11.167Z</time></trkpt><trkpt lat="37.67182" lon="14.6062317"><ele>380.0</ele><time>2026-05-05T10:26:12.167Z</time></trkpt><trkpt lat="37.6717483" lon="14.6061817"><ele>380.0</ele><time>2026-05-05T10:26:13.167Z</time></trkpt><trkpt lat="37.671685" lon="14.606125"><ele>380.33333333333337</ele><time>2026-05-05T10:26:14.167Z</time></trkpt><trkpt lat="37.67162" lon="14.606065"><ele>380.6666666666667</ele><time>2026-05-05T10:26:15.168Z</time></trkpt><trkpt lat="37.6715567" lon="14.6060167"><ele>381.0</ele><time>2026-05-05T10:26:16.167Z</time></trkpt><trkpt lat="37.6714933" lon="14.6059733"><ele>381.3333333333333</ele><time>2026-05-05T10:26:17.167Z</time></trkpt><trkpt lat="37.6714333" lon="14.605935"><ele>381.66666666666663</ele><time>2026-05-05T10:26:18.167Z</time></trkpt><trkpt lat="37.6713733" lon="14.6059033"><ele>382.0</ele><time>2026-05-05T10:26:19.168Z</time></trkpt><trkpt lat="37.6712817" lon="14.6058583"><ele>382.0</ele><time>2026-05-05T10:26:21.168Z</time></trkpt><trkpt lat="37.6712083" lon="14.60585"><ele>382.0</ele><time>2026-05-05T10:26:23.167Z</time></trkpt><trkpt lat="37.6711183" lon="14.60588"><ele>382.0</ele><time>2026-05-05T10:26:26.167Z</time></trkpt><trkpt lat="37.6710467" lon="14.605915"><ele>382.0</ele><time>2026-05-05T10:26:28.168Z</time></trkpt><trkpt lat="37.67095" lon="14.605965"><ele>382.0</ele><time>2026-05-05T10:26:30.167Z</time></trkpt><trkpt lat="37.6708533" lon="14.6060133"><ele>380.8333333333333</ele><time>2026-05-05T10:26:32.167Z</time></trkpt><trkpt lat="37.6707667" lon="14.60604"><ele>379.66666666666663</ele><time>2026-05-05T10:26:34.167Z</time></trkpt><trkpt lat="37.6707033" lon="14.6060483"><ele>378.5</ele><time>2026-05-05T10:26:36.167Z</time></trkpt><trkpt lat="37.670635" lon="14.6060317"><ele>377.3333333333333</ele><time>2026-05-05T10:26:42.167Z</time></trkpt><trkpt lat="37.6705517" lon="14.605985"><ele>376.1666666666667</ele><time>2026-05-05T10:26:45.167Z</time></trkpt><trkpt lat="37.6704883" lon="14.60592"><ele>375.0</ele><time>2026-05-05T10:26:47.167Z</time></trkpt><trkpt lat="37.6704417" lon="14.6058433"><ele>375.0</ele><time>2026-05-05T10:26:49.167Z</time></trkpt><trkpt lat="37.6703983" lon="14.6057783"><ele>375.0</ele><time>2026-05-05T10:26:51.167Z</time></trkpt><trkpt lat="37.670345" lon="14.6057033"><ele>375.0</ele><time>2026-05-05T10:26:55.167Z</time></trkpt><trkpt lat="37.6701817" lon="14.605515"><ele>375.0</ele><time>2026-05-05T11:51:47.954Z</time></trkpt><trkpt lat="37.67035" lon="14.6056167"><ele>375.0</ele><time>2026-05-05T11:51:49.954Z</time></trkpt><trkpt lat="37.6704567" lon="14.60578"><ele>375.0</ele><time>2026-05-05T11:51:54.955Z</time></trkpt><trkpt lat="37.670345" lon="14.6056917"><ele>375.0</ele><time>2026-05-05T11:51:59.954Z</time></trkpt><trkpt lat="37.6704" lon="14.60575"><ele>375.0</ele><time>2026-05-05T11:53:59.174Z</time></trkpt><trkpt lat="37.670455" lon="14.6058283"><ele>375.0</ele><time>2026-05-05T11:54:01.175Z</time></trkpt><trkpt lat="37.6705267" lon="14.6059267"><ele>375.0</ele><time>2026-05-05T11:54:03.174Z</time></trkpt><trkpt lat="37.670615" lon="14.6060083"><ele>375.0</ele><time>2026-05-05T11:54:05.175Z</time></trkpt><trkpt lat="37.6707133" lon="14.60604"><ele>375.0</ele><time>2026-05-05T11:54:07.174Z</time></trkpt><trkpt lat="37.6708217" lon="14.6060333"><ele>375.0</ele><time>2026-05-05T11:54:09.174Z</time></trkpt><trkpt lat="37.6709133" lon="14.6059817"><ele>375.0</ele><time>2026-05-05T11:54:11.174Z</time></trkpt><trkpt lat="37.671005" lon="14.6059333"><ele>375.0</ele><time>2026-05-05T11:54:13.174Z</time></trkpt><trkpt lat="37.6711067" lon="14.605885"><ele>375.0</ele><time>2026-05-05T11:54:15.174Z</time></trkpt><trkpt lat="37.6711933" lon="14.6058517"><ele>375.0</ele><time>2026-05-05T11:54:17.174Z</time></trkpt><trkpt lat="37.6712733" lon="14.6058683"><ele>375.0</ele><time>2026-05-05T11:54:20.174Z</time></trkpt><trkpt lat="37.6713567" lon="14.605905"><ele>376.4</ele><time>2026-05-05T11:54:30.174Z</time></trkpt><trkpt lat="37.6714433" lon="14.605945"><ele>377.8</ele><time>2026-05-05T11:54:32.174Z</time></trkpt><trkpt lat="37.671535" lon="14.6060133"><ele>379.20000000000005</ele><time>2026-05-05T11:54:34.174Z</time></trkpt><trkpt lat="37.671645" lon="14.6060983"><ele>380.6</ele><time>2026-05-05T11:54:36.174Z</time></trkpt><trkpt lat="37.671705" lon="14.6061467"><ele>382.0</ele><time>2026-05-05T11:54:37.175Z</time></trkpt><trkpt lat="37.6717683" lon="14.6062033"><ele>381.66666666666663</ele><time>2026-05-05T11:54:38.174Z</time></trkpt><trkpt lat="37.6718317" lon="14.6062517"><ele>381.3333333333333</ele><time>2026-05-05T11:54:39.174Z</time></trkpt><trkpt lat="37.6718933" lon="14.6062967"><ele>381.0</ele><time>2026-05-05T11:54:40.174Z</time></trkpt><trkpt lat="37.671955" lon="14.6063433"><ele>380.6666666666667</ele><time>2026-05-05T11:54:41.173Z</time></trkpt><trkpt lat="37.6720117" lon="14.6063867"><ele>380.33333333333337</ele><time>2026-05-05T11:54:42.173Z</time></trkpt><trkpt lat="37.6721233" lon="14.606475"><ele>380.0</ele><time>2026-05-05T11:54:44.173Z</time></trkpt><trkpt lat="37.6721783" lon="14.6065233"><ele>380.0</ele><time>2026-05-05T11:54:45.173Z</time></trkpt><trkpt lat="37.672235" lon="14.6065717"><ele>380.0</ele><time>2026-05-05T11:54:46.173Z</time></trkpt><trkpt lat="37.67229" lon="14.6066267"><ele>380.0</ele><time>2026-05-05T11:54:47.173Z</time></trkpt><trkpt lat="37.6723483" lon="14.6066817"><ele>380.0</ele><time>2026-05-05T11:54:48.173Z</time></trkpt><trkpt lat="37.6723983" lon="14.6067433"><ele>380.0</ele><time>2026-05-05T11:54:49.173Z</time></trkpt><trkpt lat="37.672455" lon="14.6068167"><ele>380.0</ele><time>2026-05-05T11:54:50.174Z</time></trkpt><trkpt lat="37.672505" lon="14.6068933"><ele>380.0</ele><time>2026-05-05T11:54:51.174Z</time></trkpt><trkpt lat="37.672555" lon="14.60697"><ele>378.1666666666667</ele><time>2026-05-05T11:54:52.173Z</time></trkpt><trkpt lat="37.6726067" lon="14.6070467"><ele>376.33333333333337</ele><time>2026-05-05T11:54:53.173Z</time></trkpt><trkpt lat="37.6726567" lon="14.6071317"><ele>374.5</ele><time>2026-05-05T11:54:54.174Z</time></trkpt><trkpt lat="37.6727017" lon="14.6072183"><ele>372.6666666666667</ele><time>2026-05-05T11:54:55.173Z</time></trkpt><trkpt lat="37.6727467" lon="14.6073033"><ele>370.8333333333333</ele><time>2026-05-05T11:54:56.173Z</time></trkpt><trkpt lat="37.6727917" lon="14.607385"><ele>369.0</ele><time>2026-05-05T11:54:57.173Z</time></trkpt><trkpt lat="37.672835" lon="14.60747"><ele>369.1666666666667</ele><time>2026-05-05T11:54:58.173Z</time></trkpt><trkpt lat="37.6728783" lon="14.607545"><ele>369.3333333333333</ele><time>2026-05-05T11:54:59.173Z</time></trkpt><trkpt lat="37.67292" lon="14.6076233"><ele>369.5</ele><time>2026-05-05T11:55:00.173Z</time></trkpt><trkpt lat="37.6729617" lon="14.6077067"><ele>369.66666666666663</ele><time>2026-05-05T11:55:01.173Z</time></trkpt><trkpt lat="37.6730017" lon="14.6077833"><ele>369.8333333333333</ele><time>2026-05-05T11:55:02.173Z</time></trkpt><trkpt lat="37.6730633" lon="14.60791"><ele>370.0</ele><time>2026-05-05T11:55:04.173Z</time></trkpt><trkpt lat="37.67314" lon="14.60803"><ele>370.0</ele><time>2026-05-05T11:55:06.173Z</time></trkpt><trkpt lat="37.673245" lon="14.608125"><ele>370.0</ele><time>2026-05-05T11:55:08.173Z</time></trkpt><trkpt lat="37.6733667" lon="14.6082033"><ele>370.0</ele><time>2026-05-05T11:55:10.173Z</time></trkpt><trkpt lat="37.6734283" lon="14.60825"><ele>370.0</ele><time>2026-05-05T11:55:11.174Z</time></trkpt><trkpt lat="37.67349" lon="14.608295"><ele>370.0</ele><time>2026-05-05T11:55:12.174Z</time></trkpt><trkpt lat="37.673545" lon="14.6083383"><ele>370.0</ele><time>2026-05-05T11:55:13.173Z</time></trkpt><trkpt lat="37.6736017" lon="14.6083883"><ele>370.0</ele><time>2026-05-05T11:55:14.173Z</time></trkpt><trkpt lat="37.67368" lon="14.6084633"><ele>370.0</ele><time>2026-05-05T11:55:16.173Z</time></trkpt><trkpt lat="37.6737133" lon="14.6085383"><ele>370.0</ele><time>2026-05-05T11:55:18.173Z</time></trkpt><trkpt lat="37.6736717" lon="14.608615"><ele>370.0</ele><time>2026-05-05T11:57:07.173Z</time></trkpt><trkpt lat="37.67366" lon="14.6087017"><ele>370.0</ele><time>2026-05-05T11:57:09.173Z</time></trkpt><trkpt lat="37.6735967" lon="14.6088217"><ele>367.0</ele><time>2026-05-05T11:57:11.173Z</time></trkpt><trkpt lat="37.6735533" lon="14.6089333"><ele>364.0</ele><time>2026-05-05T11:57:13.173Z</time></trkpt><trkpt lat="37.6735483" lon="14.6090533"><ele>361.0</ele><time>2026-05-05T11:57:15.173Z</time></trkpt><trkpt lat="37.6735717" lon="14.60917"><ele>358.0</ele><time>2026-05-05T11:57:17.173Z</time></trkpt><trkpt lat="37.6735917" lon="14.609275"><ele>355.0</ele><time>2026-05-05T11:57:19.173Z</time></trkpt><trkpt lat="37.6736133" lon="14.6093983"><ele>352.2</ele><time>2026-05-05T11:57:21.173Z</time></trkpt><trkpt lat="37.6736417" lon="14.6095433"><ele>349.4</ele><time>2026-05-05T11:57:23.173Z</time></trkpt><trkpt lat="37.6736517" lon="14.6096267"><ele>346.6</ele><time>2026-05-05T11:57:24.173Z</time></trkpt><trkpt lat="37.67366" lon="14.60971"><ele>343.8</ele><time>2026-05-05T11:57:25.173Z</time></trkpt><trkpt lat="37.6736567" lon="14.6098817"><ele>341.0</ele><time>2026-05-05T11:57:27.173Z</time></trkpt><trkpt lat="37.6736433" lon="14.60997"><ele>341.0</ele><time>2026-05-05T11:57:28.174Z</time></trkpt><trkpt lat="37.6736233" lon="14.610055"><ele>341.0</ele><time>2026-05-05T11:57:29.173Z</time></trkpt><trkpt lat="37.6735967" lon="14.61013"><ele>341.0</ele><time>2026-05-05T11:57:30.173Z</time></trkpt><trkpt lat="37.6735633" lon="14.610205"><ele>341.0</ele><time>2026-05-05T11:57:31.173Z</time></trkpt><trkpt lat="37.6735267" lon="14.6102817"><ele>341.0</ele><time>2026-05-05T11:57:32.173Z</time></trkpt><trkpt lat="37.673485" lon="14.6103533"><ele>341.0</ele><time>2026-05-05T11:57:33.173Z</time></trkpt><trkpt lat="37.67345" lon="14.6104283"><ele>341.0</ele><time>2026-05-05T11:57:34.173Z</time></trkpt><trkpt lat="37.6734133" lon="14.61051"><ele>343.0</ele><time>2026-05-05T11:57:35.173Z</time></trkpt><trkpt lat="37.6733783" lon="14.610595"><ele>345.0</ele><time>2026-05-05T11:57:36.174Z</time></trkpt><trkpt lat="37.67334" lon="14.610675"><ele>347.0</ele><time>2026-05-05T11:57:37.173Z</time></trkpt><trkpt lat="37.6733033" lon="14.6107483"><ele>349.0</ele><time>2026-05-05T11:57:38.173Z</time></trkpt><trkpt lat="37.673265" lon="14.6108233"><ele>351.0</ele><time>2026-05-05T11:57:39.173Z</time></trkpt><trkpt lat="37.6732317" lon="14.6108983"><ele>353.0</ele><time>2026-05-05T11:57:40.173Z</time></trkpt><trkpt lat="37.6732" lon="14.6109717"><ele>355.0</ele><time>2026-05-05T11:57:41.173Z</time></trkpt><trkpt lat="37.6731383" lon="14.6111067"><ele>355.66666666666663</ele><time>2026-05-05T11:57:43.173Z</time></trkpt><trkpt lat="37.6731233" lon="14.61126"><ele>356.3333333333333</ele><time>2026-05-05T11:57:45.173Z</time></trkpt><trkpt lat="37.67314" lon="14.6113417"><ele>357.0</ele><time>2026-05-05T11:57:46.174Z</time></trkpt><trkpt lat="37.6731667" lon="14.611425"><ele>357.6666666666667</ele><time>2026-05-05T11:57:47.173Z</time></trkpt><trkpt lat="37.6731883" lon="14.6115117"><ele>358.33333333333337</ele><time>2026-05-05T11:57:48.173Z</time></trkpt><trkpt lat="37.6732067" lon="14.6116083"><ele>359.0</ele><time>2026-05-05T11:57:49.173Z</time></trkpt><trkpt lat="37.6732317" lon="14.6117017"><ele>359.0</ele><time>2026-05-05T11:57:50.173Z</time></trkpt><trkpt lat="37.6732583" lon="14.6117917"><ele>359.0</ele><time>2026-05-05T11:57:51.173Z</time></trkpt><trkpt lat="37.673285" lon="14.611875"><ele>359.0</ele><time>2026-05-05T11:57:52.174Z</time></trkpt><trkpt lat="37.6733217" lon="14.6119667"><ele>359.0</ele><time>2026-05-05T11:57:53.173Z</time></trkpt><trkpt lat="37.67336" lon="14.6120467"><ele>359.0</ele><time>2026-05-05T11:57:54.173Z</time></trkpt><trkpt lat="37.6733917" lon="14.6121317"><ele>359.0</ele><time>2026-05-05T11:57:55.174Z</time></trkpt><trkpt lat="37.67341" lon="14.6122233"><ele>360.4</ele><time>2026-05-05T11:57:56.173Z</time></trkpt><trkpt lat="37.6734167" lon="14.6123033"><ele>361.79999999999995</ele><time>2026-05-05T11:57:57.173Z</time></trkpt><trkpt lat="37.6734117" lon="14.6123883"><ele>363.20000000000005</ele><time>2026-05-05T11:57:58.173Z</time></trkpt><trkpt lat="37.6733767" lon="14.6125267"><ele>364.6</ele><time>2026-05-05T11:58:00.173Z</time></trkpt><trkpt lat="37.6732883" lon="14.61262"><ele>366.0</ele><time>2026-05-05T11:58:02.173Z</time></trkpt><trkpt lat="37.6731583" lon="14.612655"><ele>366.0</ele><time>2026-05-05T11:58:04.173Z</time></trkpt><trkpt lat="37.6730917" lon="14.6126333"><ele>366.0</ele><time>2026-05-05T11:58:05.173Z</time></trkpt><trkpt lat="37.6730217" lon="14.61261"><ele>366.0</ele><time>2026-05-05T11:58:06.173Z</time></trkpt><trkpt lat="37.6729533" lon="14.6125933"><ele>366.0</ele><time>2026-05-05T11:58:07.173Z</time></trkpt><trkpt lat="37.6728283" lon="14.6125933"><ele>366.0</ele><time>2026-05-05T11:58:09.173Z</time></trkpt><trkpt lat="37.67277" lon="14.6126417"><ele>366.0</ele><time>2026-05-05T11:58:10.173Z</time></trkpt><trkpt lat="37.6727117" lon="14.6127033"><ele>367.0</ele><time>2026-05-05T11:58:11.173Z</time></trkpt><trkpt lat="37.6726617" lon="14.6127617"><ele>368.0</ele><time>2026-05-05T11:58:12.173Z</time></trkpt><trkpt lat="37.6725717" lon="14.6128467"><ele>369.0</ele><time>2026-05-05T11:58:14.173Z</time></trkpt><trkpt lat="37.6725133" lon="14.6128867"><ele>370.0</ele><time>2026-05-05T11:58:28.173Z</time></trkpt><trkpt lat="37.67241" lon="14.6129317"><ele>371.0</ele><time>2026-05-05T11:58:30.173Z</time></trkpt><trkpt lat="37.6723383" lon="14.6129183"><ele>372.0</ele><time>2026-05-05T11:58:31.174Z</time></trkpt><trkpt lat="37.6722617" lon="14.61289"><ele>372.0</ele><time>2026-05-05T11:58:32.174Z</time></trkpt><trkpt lat="37.6721783" lon="14.6128433"><ele>372.0</ele><time>2026-05-05T11:58:33.173Z</time></trkpt><trkpt lat="37.672095" lon="14.6127933"><ele>372.0</ele><time>2026-05-05T11:58:34.173Z</time></trkpt><trkpt lat="37.6720117" lon="14.6127367"><ele>372.0</ele><time>2026-05-05T11:58:35.173Z</time></trkpt><trkpt lat="37.6719283" lon="14.6126783"><ele>372.0</ele><time>2026-05-05T11:58:36.173Z</time></trkpt><trkpt lat="37.671845" lon="14.61262"><ele>374.40000000000003</ele><time>2026-05-05T11:58:37.173Z</time></trkpt><trkpt lat="37.67177" lon="14.6125433"><ele>376.8</ele><time>2026-05-05T11:58:38.173Z</time></trkpt><trkpt lat="37.671695" lon="14.61248"><ele>379.2</ele><time>2026-05-05T11:58:39.173Z</time></trkpt><trkpt lat="37.671605" lon="14.6124317"><ele>381.6</ele><time>2026-05-05T11:58:40.173Z</time></trkpt><trkpt lat="37.6715083" lon="14.6123967"><ele>384.0</ele><time>2026-05-05T11:58:41.173Z</time></trkpt><trkpt lat="37.6714033" lon="14.6123617"><ele>384.0</ele><time>2026-05-05T11:58:42.173Z</time></trkpt><trkpt lat="37.671295" lon="14.6123233"><ele>384.0</ele><time>2026-05-05T11:58:43.173Z</time></trkpt><trkpt lat="37.671185" lon="14.6122767"><ele>384.0</ele><time>2026-05-05T11:58:44.173Z</time></trkpt><trkpt lat="37.671075" lon="14.6122283"><ele>384.0</ele><time>2026-05-05T11:58:45.174Z</time></trkpt><trkpt lat="37.67096" lon="14.6121717"><ele>383.0</ele><time>2026-05-05T11:58:46.174Z</time></trkpt><trkpt lat="37.6708517" lon="14.6121067"><ele>382.0</ele><time>2026-05-05T11:58:47.173Z</time></trkpt><trkpt lat="37.6707433" lon="14.6120317"><ele>381.0</ele><time>2026-05-05T11:58:48.173Z</time></trkpt><trkpt lat="37.670635" lon="14.61195"><ele>380.0</ele><time>2026-05-05T11:58:49.173Z</time></trkpt><trkpt lat="37.67054" lon="14.61187"><ele>380.0</ele><time>2026-05-05T11:58:50.173Z</time></trkpt><trkpt lat="37.6704533" lon="14.611805"><ele>380.0</ele><time>2026-05-05T11:58:51.174Z</time></trkpt><trkpt lat="37.67038" lon="14.6117633"><ele>380.0</ele><time>2026-05-05T11:58:52.174Z</time></trkpt><trkpt lat="37.6703" lon="14.6117483"><ele>380.0</ele><time>2026-05-05T11:58:53.174Z</time></trkpt><trkpt lat="37.670225" lon="14.6117683"><ele>380.0</ele><time>2026-05-05T11:58:54.173Z</time></trkpt><trkpt lat="37.6701567" lon="14.61183"><ele>380.0</ele><time>2026-05-05T11:58:55.173Z</time></trkpt><trkpt lat="37.6701067" lon="14.6119233"><ele>381.4</ele><time>2026-05-05T11:58:56.174Z</time></trkpt><trkpt lat="37.6700717" lon="14.6120317"><ele>382.8</ele><time>2026-05-05T11:58:57.173Z</time></trkpt><trkpt lat="37.67005" lon="14.6121433"><ele>384.20000000000005</ele><time>2026-05-05T11:58:58.173Z</time></trkpt><trkpt lat="37.6700367" lon="14.6122583"><ele>385.6</ele><time>2026-05-05T11:58:59.174Z</time></trkpt><trkpt lat="37.6700217" lon="14.6123733"><ele>387.0</ele><time>2026-05-05T11:59:00.173Z</time></trkpt><trkpt lat="37.67" lon="14.612485"><ele>387.0</ele><time>2026-05-05T11:59:01.173Z</time></trkpt><trkpt lat="37.669985" lon="14.6126067"><ele>387.0</ele><time>2026-05-05T11:59:02.173Z</time></trkpt><trkpt lat="37.6699633" lon="14.61272"><ele>387.0</ele><time>2026-05-05T11:59:03.174Z</time></trkpt><trkpt lat="37.669945" lon="14.6128317"><ele>387.0</ele><time>2026-05-05T11:59:04.173Z</time></trkpt><trkpt lat="37.669925" lon="14.612935"><ele>387.0</ele><time>2026-05-05T11:59:05.174Z</time></trkpt><trkpt lat="37.6699083" lon="14.61305"><ele>390.40000000000003</ele><time>2026-05-05T11:59:06.173Z</time></trkpt><trkpt lat="37.6699017" lon="14.613175"><ele>393.8</ele><time>2026-05-05T11:59:07.173Z</time></trkpt><trkpt lat="37.6698917" lon="14.6133033"><ele>397.2</ele><time>2026-05-05T11:59:08.174Z</time></trkpt><trkpt lat="37.6698967" lon="14.6134433"><ele>400.6</ele><time>2026-05-05T11:59:09.173Z</time></trkpt><trkpt lat="37.6698983" lon="14.6135867"><ele>404.0</ele><time>2026-05-05T11:59:10.173Z</time></trkpt><trkpt lat="37.6699" lon="14.6137317"><ele>404.25</ele><time>2026-05-05T11:59:11.173Z</time></trkpt><trkpt lat="37.6699067" lon="14.6138833"><ele>404.5</ele><time>2026-05-05T11:59:12.173Z</time></trkpt><trkpt lat="37.6699" lon="14.61403"><ele>404.75</ele><time>2026-05-05T11:59:13.173Z</time></trkpt><trkpt lat="37.6698683" lon="14.614175"><ele>405.0</ele><time>2026-05-05T11:59:14.173Z</time></trkpt><trkpt lat="37.6698183" lon="14.6143167"><ele>405.0</ele><time>2026-05-05T11:59:15.173Z</time></trkpt><trkpt lat="37.669765" lon="14.61445"><ele>405.0</ele><time>2026-05-05T11:59:16.173Z</time></trkpt><trkpt lat="37.669715" lon="14.6145733"><ele>405.0</ele><time>2026-05-05T11:59:17.173Z</time></trkpt><trkpt lat="37.6696683" lon="14.61469"><ele>405.0</ele><time>2026-05-05T11:59:18.173Z</time></trkpt><trkpt lat="37.6696117" lon="14.6147883"><ele>405.0</ele><time>2026-05-05T11:59:19.173Z</time></trkpt><trkpt lat="37.669535" lon="14.6148767"><ele>404.0</ele><time>2026-05-05T11:59:20.173Z</time></trkpt><trkpt lat="37.6694383" lon="14.6149183"><ele>403.0</ele><time>2026-05-05T11:59:21.173Z</time></trkpt><trkpt lat="37.6693217" lon="14.6149233"><ele>402.0</ele><time>2026-05-05T11:59:22.173Z</time></trkpt><trkpt lat="37.6692133" lon="14.6149117"><ele>401.0</ele><time>2026-05-05T11:59:23.173Z</time></trkpt><trkpt lat="37.669105" lon="14.6148983"><ele>400.0</ele><time>2026-05-05T11:59:24.173Z</time></trkpt><trkpt lat="37.6689967" lon="14.6148917"><ele>400.0</ele><time>2026-05-05T11:59:25.173Z</time></trkpt><trkpt lat="37.668895" lon="14.61488"><ele>400.0</ele><time>2026-05-05T11:59:26.173Z</time></trkpt><trkpt lat="37.6687817" lon="14.6148633"><ele>400.0</ele><time>2026-05-05T11:59:27.174Z</time></trkpt><trkpt lat="37.6686817" lon="14.6148467"><ele>400.0</ele><time>2026-05-05T11:59:28.174Z</time></trkpt><trkpt lat="37.6685867" lon="14.614835"><ele>400.0</ele><time>2026-05-05T11:59:29.173Z</time></trkpt><trkpt lat="37.6684967" lon="14.614845"><ele>400.2</ele><time>2026-05-05T11:59:30.173Z</time></trkpt><trkpt lat="37.6683983" lon="14.6148617"><ele>400.4</ele><time>2026-05-05T11:59:31.173Z</time></trkpt><trkpt lat="37.6682983" lon="14.6148917"><ele>400.6</ele><time>2026-05-05T11:59:32.173Z</time></trkpt><trkpt lat="37.668195" lon="14.6149233"><ele>400.8</ele><time>2026-05-05T11:59:33.173Z</time></trkpt><trkpt lat="37.66809" lon="14.6149583"><ele>401.0</ele><time>2026-05-05T11:59:34.173Z</time></trkpt><trkpt lat="37.6679917" lon="14.6150133"><ele>401.0</ele><time>2026-05-05T11:59:35.173Z</time></trkpt><trkpt lat="37.6679017" lon="14.6151033"><ele>401.0</ele><time>2026-05-05T11:59:36.173Z</time></trkpt><trkpt lat="37.6678183" lon="14.6152233"><ele>401.0</ele><time>2026-05-05T11:59:37.173Z</time></trkpt><trkpt lat="37.6677383" lon="14.615355"><ele>401.0</ele><time>2026-05-05T11:59:38.173Z</time></trkpt><trkpt lat="37.6676567" lon="14.6154967"><ele>402.25</ele><time>2026-05-05T11:59:39.172Z</time></trkpt><trkpt lat="37.6675683" lon="14.6156383"><ele>403.5</ele><time>2026-05-05T11:59:40.172Z</time></trkpt><trkpt lat="37.66749" lon="14.6157733"><ele>404.75</ele><time>2026-05-05T11:59:41.172Z</time></trkpt><trkpt lat="37.6674133" lon="14.6159067"><ele>406.0</ele><time>2026-05-05T11:59:42.172Z</time></trkpt><trkpt lat="37.66735" lon="14.616055"><ele>407.5</ele><time>2026-05-05T11:59:43.173Z</time></trkpt><trkpt lat="37.6673033" lon="14.6162017"><ele>409.0</ele><time>2026-05-05T11:59:44.172Z</time></trkpt><trkpt lat="37.6672833" lon="14.6163583"><ele>410.5</ele><time>2026-05-05T11:59:45.173Z</time></trkpt><trkpt lat="37.66729" lon="14.6165167"><ele>412.0</ele><time>2026-05-05T11:59:46.172Z</time></trkpt><trkpt lat="37.66731" lon="14.616675"><ele>412.0</ele><time>2026-05-05T11:59:47.172Z</time></trkpt><trkpt lat="37.66733" lon="14.6168367"><ele>412.0</ele><time>2026-05-05T11:59:48.172Z</time></trkpt><trkpt lat="37.6673567" lon="14.6169933"><ele>412.0</ele><time>2026-05-05T11:59:49.173Z</time></trkpt><trkpt lat="37.6673883" lon="14.6171517"><ele>412.0</ele><time>2026-05-05T11:59:50.172Z</time></trkpt><trkpt lat="37.667425" lon="14.61732"><ele>413.25</ele><time>2026-05-05T11:59:51.172Z</time></trkpt><trkpt lat="37.6674583" lon="14.6174933"><ele>414.5</ele><time>2026-05-05T11:59:52.173Z</time></trkpt><trkpt lat="37.66749" lon="14.6176633"><ele>415.75</ele><time>2026-05-05T11:59:53.172Z</time></trkpt><trkpt lat="37.6675267" lon="14.61783"><ele>417.0</ele><time>2026-05-05T11:59:54.172Z</time></trkpt><trkpt lat="37.66756" lon="14.617985"><ele>419.0</ele><time>2026-05-05T11:59:55.172Z</time></trkpt><trkpt lat="37.6675817" lon="14.6181233"><ele>421.0</ele><time>2026-05-05T11:59:56.172Z</time></trkpt><trkpt lat="37.667575" lon="14.6182667"><ele>423.0</ele><time>2026-05-05T11:59:57.172Z</time></trkpt><trkpt lat="37.6675383" lon="14.6183983"><ele>425.0</ele><time>2026-05-05T11:59:58.173Z</time></trkpt><trkpt lat="37.6674817" lon="14.6185333"><ele>427.0</ele><time>2026-05-05T11:59:59.172Z</time></trkpt><trkpt lat="37.667405" lon="14.6186617"><ele>429.0</ele><time>2026-05-05T12:00:00.172Z</time></trkpt><trkpt lat="37.667325" lon="14.6187867"><ele>431.0</ele><time>2026-05-05T12:00:01.173Z</time></trkpt><trkpt lat="37.6672467" lon="14.6189217"><ele>433.0</ele><time>2026-05-05T12:00:02.172Z</time></trkpt><trkpt lat="37.667175" lon="14.6190617"><ele>433.0</ele><time>2026-05-05T12:00:03.172Z</time></trkpt><trkpt lat="37.6671017" lon="14.6191933"><ele>433.0</ele><time>2026-05-05T12:00:04.172Z</time></trkpt><trkpt lat="37.66703" lon="14.6193233"><ele>433.0</ele><time>2026-05-05T12:00:05.173Z</time></trkpt><trkpt lat="37.66696" lon="14.6194567"><ele>433.0</ele><time>2026-05-05T12:00:06.172Z</time></trkpt><trkpt lat="37.6668917" lon="14.6195817"><ele>432.25</ele><time>2026-05-05T12:00:07.172Z</time></trkpt><trkpt lat="37.6668233" lon="14.6197067"><ele>431.5</ele><time>2026-05-05T12:00:08.172Z</time></trkpt><trkpt lat="37.66676" lon="14.6198333"><ele>430.75</ele><time>2026-05-05T12:00:09.172Z</time></trkpt><trkpt lat="37.6666983" lon="14.6199533"><ele>430.0</ele><time>2026-05-05T12:00:10.172Z</time></trkpt><trkpt lat="37.6666383" lon="14.6200783"><ele>430.0</ele><time>2026-05-05T12:00:11.172Z</time></trkpt><trkpt lat="37.6665767" lon="14.6201917"><ele>430.0</ele><time>2026-05-05T12:00:12.172Z</time></trkpt><trkpt lat="37.666515" lon="14.6203033"><ele>430.0</ele><time>2026-05-05T12:00:13.172Z</time></trkpt><trkpt lat="37.6664517" lon="14.6204217"><ele>430.0</ele><time>2026-05-05T12:00:14.172Z</time></trkpt><trkpt lat="37.66639" lon="14.620545"><ele>430.0</ele><time>2026-05-05T12:00:15.172Z</time></trkpt><trkpt lat="37.6663383" lon="14.620665"><ele>432.75</ele><time>2026-05-05T12:00:16.172Z</time></trkpt><trkpt lat="37.6662967" lon="14.6207933"><ele>435.5</ele><time>2026-05-05T12:00:17.172Z</time></trkpt><trkpt lat="37.6662767" lon="14.6209367"><ele>438.25</ele><time>2026-05-05T12:00:18.172Z</time></trkpt><trkpt lat="37.6662767" lon="14.62109"><ele>441.0</ele><time>2026-05-05T12:00:19.173Z</time></trkpt><trkpt lat="37.6662983" lon="14.6212533"><ele>442.5</ele><time>2026-05-05T12:00:20.172Z</time></trkpt><trkpt lat="37.666335" lon="14.6214117"><ele>444.0</ele><time>2026-05-05T12:00:21.173Z</time></trkpt><trkpt lat="37.666375" lon="14.6215683"><ele>445.5</ele><time>2026-05-05T12:00:22.172Z</time></trkpt><trkpt lat="37.6664183" lon="14.6217217"><ele>447.0</ele><time>2026-05-05T12:00:23.172Z</time></trkpt><trkpt lat="37.6664617" lon="14.6218833"><ele>448.0</ele><time>2026-05-05T12:00:24.172Z</time></trkpt><trkpt lat="37.6665083" lon="14.6220367"><ele>449.0</ele><time>2026-05-05T12:00:25.173Z</time></trkpt><trkpt lat="37.6665517" lon="14.622185"><ele>450.0</ele><time>2026-05-05T12:00:26.172Z</time></trkpt><trkpt lat="37.66659" lon="14.6223217"><ele>451.0</ele><time>2026-05-05T12:00:27.172Z</time></trkpt><trkpt lat="37.6666217" lon="14.62245"><ele>451.00000000000006</ele><time>2026-05-05T12:00:28.172Z</time></trkpt><trkpt lat="37.6666567" lon="14.6225683"><ele>451.0</ele><time>2026-05-05T12:00:29.172Z</time></trkpt><trkpt lat="37.6666717" lon="14.6226683"><ele>451.0</ele><time>2026-05-05T12:00:30.172Z</time></trkpt><trkpt lat="37.6666667" lon="14.62278"><ele>451.0</ele><time>2026-05-05T12:00:31.172Z</time></trkpt><trkpt lat="37.66665" lon="14.622885"><ele>451.00000000000006</ele><time>2026-05-05T12:00:32.173Z</time></trkpt><trkpt lat="37.66662" lon="14.6229867"><ele>451.0</ele><time>2026-05-05T12:00:33.172Z</time></trkpt><trkpt lat="37.6665783" lon="14.623085"><ele>452.20000000000005</ele><time>2026-05-05T12:00:34.172Z</time></trkpt><trkpt lat="37.6665283" lon="14.6231783"><ele>453.40000000000003</ele><time>2026-05-05T12:00:35.172Z</time></trkpt><trkpt lat="37.6664683" lon="14.6232683"><ele>454.6</ele><time>2026-05-05T12:00:36.172Z</time></trkpt><trkpt lat="37.6663983" lon="14.623355"><ele>455.8</ele><time>2026-05-05T12:00:37.172Z</time></trkpt><trkpt lat="37.66632" lon="14.623455"><ele>457.0</ele><time>2026-05-05T12:00:38.172Z</time></trkpt><trkpt lat="37.6662383" lon="14.623565"><ele>456.25</ele><time>2026-05-05T12:00:39.172Z</time></trkpt><trkpt lat="37.6661633" lon="14.6236767"><ele>455.5</ele><time>2026-05-05T12:00:40.172Z</time></trkpt><trkpt lat="37.6660933" lon="14.6238"><ele>454.75</ele><time>2026-05-05T12:00:41.173Z</time></trkpt><trkpt lat="37.6660483" lon="14.6239367"><ele>454.0</ele><time>2026-05-05T12:00:42.172Z</time></trkpt><trkpt lat="37.66602" lon="14.624085"><ele>454.0</ele><time>2026-05-05T12:00:43.172Z</time></trkpt><trkpt lat="37.6659967" lon="14.624245"><ele>454.0</ele><time>2026-05-05T12:00:44.172Z</time></trkpt><trkpt lat="37.6659667" lon="14.624415"><ele>454.0</ele><time>2026-05-05T12:00:45.172Z</time></trkpt><trkpt lat="37.6659367" lon="14.624585"><ele>454.0</ele><time>2026-05-05T12:00:46.172Z</time></trkpt><trkpt lat="37.665905" lon="14.6247583"><ele>455.75</ele><time>2026-05-05T12:00:47.172Z</time></trkpt><trkpt lat="37.6658683" lon="14.6249333"><ele>457.5</ele><time>2026-05-05T12:00:48.172Z</time></trkpt><trkpt lat="37.6658433" lon="14.6251117"><ele>459.25</ele><time>2026-05-05T12:00:49.172Z</time></trkpt><trkpt lat="37.6658167" lon="14.6252767"><ele>461.0</ele><time>2026-05-05T12:00:50.173Z</time></trkpt><trkpt lat="37.6657833" lon="14.625455"><ele>462.5</ele><time>2026-05-05T12:00:51.172Z</time></trkpt><trkpt lat="37.6657533" lon="14.62563"><ele>464.0</ele><time>2026-05-05T12:00:52.172Z</time></trkpt><trkpt lat="37.6657233" lon="14.6257983"><ele>465.5</ele><time>2026-05-05T12:00:53.172Z</time></trkpt><trkpt lat="37.6656967" lon="14.62596"><ele>467.0</ele><time>2026-05-05T12:00:54.172Z</time></trkpt><trkpt lat="37.6656833" lon="14.62611"><ele>468.25</ele><time>2026-05-05T12:00:55.173Z</time></trkpt><trkpt lat="37.6656967" lon="14.62626"><ele>469.5</ele><time>2026-05-05T12:00:56.173Z</time></trkpt><trkpt lat="37.6657333" lon="14.6264017"><ele>470.75</ele><time>2026-05-05T12:00:57.172Z</time></trkpt><trkpt lat="37.665805" lon="14.6265383"><ele>472.0</ele><time>2026-05-05T12:00:58.172Z</time></trkpt><trkpt lat="37.665895" lon="14.626675"><ele>472.0</ele><time>2026-05-05T12:00:59.173Z</time></trkpt><trkpt lat="37.6659967" lon="14.6268083"><ele>472.0</ele><time>2026-05-05T12:01:00.172Z</time></trkpt><trkpt lat="37.6660983" lon="14.62695"><ele>472.0</ele><time>2026-05-05T12:01:01.172Z</time></trkpt><trkpt lat="37.6662" lon="14.6270983"><ele>473.75</ele><time>2026-05-05T12:01:02.172Z</time></trkpt><trkpt lat="37.6662967" lon="14.6272383"><ele>475.5</ele><time>2026-05-05T12:01:03.172Z</time></trkpt><trkpt lat="37.6663883" lon="14.6273683"><ele>477.25</ele><time>2026-05-05T12:01:04.172Z</time></trkpt><trkpt lat="37.6664667" lon="14.6275117"><ele>479.0</ele><time>2026-05-05T12:01:05.172Z</time></trkpt><trkpt lat="37.6665183" lon="14.627665"><ele>478.75</ele><time>2026-05-05T12:01:06.172Z</time></trkpt><trkpt lat="37.6665533" lon="14.62783"><ele>478.5</ele><time>2026-05-05T12:01:07.172Z</time></trkpt><trkpt lat="37.66658" lon="14.6280033"><ele>478.25</ele><time>2026-05-05T12:01:08.172Z</time></trkpt><trkpt lat="37.6666083" lon="14.6281783"><ele>478.0</ele><time>2026-05-05T12:01:09.172Z</time></trkpt><trkpt lat="37.66663" lon="14.6283617"><ele>478.0</ele><time>2026-05-05T12:01:10.173Z</time></trkpt><trkpt lat="37.6666417" lon="14.6285317"><ele>478.0</ele><time>2026-05-05T12:01:11.172Z</time></trkpt><trkpt lat="37.666635" lon="14.6286967"><ele>478.0</ele><time>2026-05-05T12:01:12.172Z</time></trkpt><trkpt lat="37.6665967" lon="14.6288417"><ele>478.0</ele><time>2026-05-05T12:01:13.172Z</time></trkpt><trkpt lat="37.6665367" lon="14.6289717"><ele>479.0</ele><time>2026-05-05T12:01:14.172Z</time></trkpt><trkpt lat="37.66646" lon="14.6290983"><ele>480.0</ele><time>2026-05-05T12:01:15.173Z</time></trkpt><trkpt lat="37.66637" lon="14.6292333"><ele>481.0</ele><time>2026-05-05T12:01:16.172Z</time></trkpt><trkpt lat="37.666285" lon="14.6293733"><ele>482.0</ele><time>2026-05-05T12:01:17.172Z</time></trkpt><trkpt lat="37.666195" lon="14.6295133"><ele>479.5</ele><time>2026-05-05T12:01:18.172Z</time></trkpt><trkpt lat="37.6660917" lon="14.629645"><ele>477.0</ele><time>2026-05-05T12:01:19.172Z</time></trkpt><trkpt lat="37.66599" lon="14.6297783"><ele>474.5</ele><time>2026-05-05T12:01:20.172Z</time></trkpt><trkpt lat="37.6658783" lon="14.6299017"><ele>472.0</ele><time>2026-05-05T12:01:21.172Z</time></trkpt><trkpt lat="37.6657767" lon="14.63002"><ele>472.0</ele><time>2026-05-05T12:01:22.172Z</time></trkpt><trkpt lat="37.66568" lon="14.6301467"><ele>472.0</ele><time>2026-05-05T12:01:23.172Z</time></trkpt><trkpt lat="37.6655633" lon="14.630265"><ele>472.0</ele><time>2026-05-05T12:01:24.173Z</time></trkpt><trkpt lat="37.6654567" lon="14.6303883"><ele>472.0</ele><time>2026-05-05T12:01:25.172Z</time></trkpt><trkpt lat="37.6653367" lon="14.6305033"><ele>469.25</ele><time>2026-05-05T12:01:26.172Z</time></trkpt><trkpt lat="37.66522" lon="14.63062"><ele>466.5</ele><time>2026-05-05T12:01:27.172Z</time></trkpt><trkpt lat="37.665105" lon="14.6307383"><ele>463.75</ele><time>2026-05-05T12:01:28.172Z</time></trkpt><trkpt lat="37.665" lon="14.6308767"><ele>461.0</ele><time>2026-05-05T12:01:29.173Z</time></trkpt><trkpt lat="37.6649" lon="14.6310267"><ele>461.66666666666663</ele><time>2026-05-05T12:01:30.172Z</time></trkpt><trkpt lat="37.6648" lon="14.6311817"><ele>462.33333333333337</ele><time>2026-05-05T12:01:31.172Z</time></trkpt><trkpt lat="37.6647" lon="14.6313317"><ele>463.0</ele><time>2026-05-05T12:01:32.172Z</time></trkpt><trkpt lat="37.6646083" lon="14.63148"><ele>463.0</ele><time>2026-05-05T12:01:33.172Z</time></trkpt><trkpt lat="37.6645167" lon="14.63162"><ele>463.0</ele><time>2026-05-05T12:01:34.172Z</time></trkpt><trkpt lat="37.6644217" lon="14.6317617"><ele>463.0</ele><time>2026-05-05T12:01:35.172Z</time></trkpt><trkpt lat="37.6643233" lon="14.6319"><ele>463.0</ele><time>2026-05-05T12:01:36.172Z</time></trkpt><trkpt lat="37.6642283" lon="14.6320483"><ele>461.5</ele><time>2026-05-05T12:01:37.172Z</time></trkpt><trkpt lat="37.6641383" lon="14.63219"><ele>460.0</ele><time>2026-05-05T12:01:38.172Z</time></trkpt><trkpt lat="37.66405" lon="14.63233"><ele>458.5</ele><time>2026-05-05T12:01:39.172Z</time></trkpt><trkpt lat="37.66396" lon="14.6324633"><ele>457.0</ele><time>2026-05-05T12:01:40.172Z</time></trkpt><trkpt lat="37.6638567" lon="14.6325867"><ele>457.0</ele><time>2026-05-05T12:01:41.172Z</time></trkpt><trkpt lat="37.66374" lon="14.632695"><ele>457.0</ele><time>2026-05-05T12:01:42.172Z</time></trkpt><trkpt lat="37.663625" lon="14.632805"><ele>457.0</ele><time>2026-05-05T12:01:43.173Z</time></trkpt><trkpt lat="37.6635033" lon="14.632925"><ele>457.0</ele><time>2026-05-05T12:01:44.173Z</time></trkpt><trkpt lat="37.663395" lon="14.6330433"><ele>457.5</ele><time>2026-05-05T12:01:45.172Z</time></trkpt><trkpt lat="37.6632883" lon="14.633155"><ele>458.0</ele><time>2026-05-05T12:01:46.172Z</time></trkpt><trkpt lat="37.6631817" lon="14.633265"><ele>458.5</ele><time>2026-05-05T12:01:47.173Z</time></trkpt><trkpt lat="37.663075" lon="14.6333783"><ele>459.0</ele><time>2026-05-05T12:01:48.172Z</time></trkpt><trkpt lat="37.6629817" lon="14.6334967"><ele>459.0</ele><time>2026-05-05T12:01:49.172Z</time></trkpt><trkpt lat="37.6629083" lon="14.6336383"><ele>459.0</ele><time>2026-05-05T12:01:50.172Z</time></trkpt><trkpt lat="37.6628533" lon="14.6337917"><ele>459.0</ele><time>2026-05-05T12:01:51.172Z</time></trkpt><trkpt lat="37.6628217" lon="14.633965"><ele>459.0</ele><time>2026-05-05T12:01:52.172Z</time></trkpt><trkpt lat="37.6628017" lon="14.6341617"><ele>459.33333333333337</ele><time>2026-05-05T12:01:53.172Z</time></trkpt><trkpt lat="37.6627917" lon="14.6343567"><ele>459.6666666666667</ele><time>2026-05-05T12:01:54.172Z</time></trkpt><trkpt lat="37.66279" lon="14.634545"><ele>460.0</ele><time>2026-05-05T12:01:55.172Z</time></trkpt><trkpt lat="37.6628" lon="14.6347333"><ele>460.0</ele><time>2026-05-05T12:01:56.173Z</time></trkpt><trkpt lat="37.6628167" lon="14.6349283"><ele>460.0</ele><time>2026-05-05T12:01:57.172Z</time></trkpt><trkpt lat="37.66283" lon="14.6351233"><ele>460.0</ele><time>2026-05-05T12:01:58.172Z</time></trkpt><trkpt lat="37.66282" lon="14.6353133"><ele>461.33333333333337</ele><time>2026-05-05T12:01:59.172Z</time></trkpt><trkpt lat="37.6627983" lon="14.6354967"><ele>462.66666666666663</ele><time>2026-05-05T12:02:00.172Z</time></trkpt><trkpt lat="37.6627817" lon="14.63569"><ele>464.0</ele><time>2026-05-05T12:02:01.172Z</time></trkpt><trkpt lat="37.6627667" lon="14.6358867"><ele>461.25</ele><time>2026-05-05T12:02:02.172Z</time></trkpt><trkpt lat="37.6627567" lon="14.6360817"><ele>458.5</ele><time>2026-05-05T12:02:03.173Z</time></trkpt><trkpt lat="37.6627317" lon="14.6362667"><ele>455.75</ele><time>2026-05-05T12:02:04.172Z</time></trkpt><trkpt lat="37.6627117" lon="14.6364433"><ele>453.0</ele><time>2026-05-05T12:02:05.172Z</time></trkpt><trkpt lat="37.6626967" lon="14.6366017"><ele>453.0</ele><time>2026-05-05T12:02:06.172Z</time></trkpt><trkpt lat="37.6626717" lon="14.6367567"><ele>453.0</ele><time>2026-05-05T12:02:07.172Z</time></trkpt><trkpt lat="37.662635" lon="14.6369033"><ele>453.0</ele><time>2026-05-05T12:02:08.172Z</time></trkpt><trkpt lat="37.6625867" lon="14.6370383"><ele>453.0</ele><time>2026-05-05T12:02:09.172Z</time></trkpt><trkpt lat="37.6625367" lon="14.6371683"><ele>453.5</ele><time>2026-05-05T12:02:10.172Z</time></trkpt><trkpt lat="37.6624567" lon="14.637265"><ele>454.0</ele><time>2026-05-05T12:02:11.172Z</time></trkpt><trkpt lat="37.6623567" lon="14.6373483"><ele>454.5</ele><time>2026-05-05T12:02:12.172Z</time></trkpt><trkpt lat="37.6622383" lon="14.6374167"><ele>455.0</ele><time>2026-05-05T12:02:13.172Z</time></trkpt><trkpt lat="37.6621167" lon="14.6374667"><ele>455.0</ele><time>2026-05-05T12:02:14.172Z</time></trkpt><trkpt lat="37.6620033" lon="14.6374967"><ele>455.0</ele><time>2026-05-05T12:02:15.172Z</time></trkpt><trkpt lat="37.661885" lon="14.6375117"><ele>455.0</ele><time>2026-05-05T12:02:16.172Z</time></trkpt><trkpt lat="37.6617733" lon="14.6375217"><ele>455.0</ele><time>2026-05-05T12:02:17.172Z</time></trkpt><trkpt lat="37.6616733" lon="14.6375317"><ele>455.0</ele><time>2026-05-05T12:02:18.172Z</time></trkpt><trkpt lat="37.6615783" lon="14.637535"><ele>455.49999999999994</ele><time>2026-05-05T12:02:19.172Z</time></trkpt><trkpt lat="37.66149" lon="14.63753"><ele>456.0</ele><time>2026-05-05T12:02:20.172Z</time></trkpt><trkpt lat="37.6614117" lon="14.63752"><ele>456.5</ele><time>2026-05-05T12:02:21.173Z</time></trkpt><trkpt lat="37.6613417" lon="14.6374933"><ele>457.0</ele><time>2026-05-05T12:02:22.172Z</time></trkpt><trkpt lat="37.6612667" lon="14.637445"><ele>457.49999999999994</ele><time>2026-05-05T12:02:23.172Z</time></trkpt><trkpt lat="37.6611883" lon="14.6373733"><ele>458.0</ele><time>2026-05-05T12:02:24.173Z</time></trkpt><trkpt lat="37.6611067" lon="14.6372917"><ele>458.0</ele><time>2026-05-05T12:02:25.173Z</time></trkpt><trkpt lat="37.6610167" lon="14.6372183"><ele>457.99999999999994</ele><time>2026-05-05T12:02:26.172Z</time></trkpt><trkpt lat="37.6609267" lon="14.6371417"><ele>457.99999999999994</ele><time>2026-05-05T12:02:27.172Z</time></trkpt><trkpt lat="37.66084" lon="14.6370667"><ele>458.0</ele><time>2026-05-05T12:02:28.172Z</time></trkpt><trkpt lat="37.660745" lon="14.6369967"><ele>458.0</ele><time>2026-05-05T12:02:29.172Z</time></trkpt><trkpt lat="37.6606417" lon="14.6369267"><ele>458.25</ele><time>2026-05-05T12:02:30.172Z</time></trkpt><trkpt lat="37.6605333" lon="14.6368617"><ele>458.5</ele><time>2026-05-05T12:02:31.172Z</time></trkpt><trkpt lat="37.66042" lon="14.6367917"><ele>458.75</ele><time>2026-05-05T12:02:32.172Z</time></trkpt><trkpt lat="37.6602967" lon="14.636725"><ele>459.0</ele><time>2026-05-05T12:02:33.173Z</time></trkpt><trkpt lat="37.6601667" lon="14.6366667"><ele>459.0</ele><time>2026-05-05T12:02:34.172Z</time></trkpt><trkpt lat="37.66004" lon="14.6366133"><ele>459.0</ele><time>2026-05-05T12:02:35.172Z</time></trkpt><trkpt lat="37.6599017" lon="14.6365583"><ele>459.0</ele><time>2026-05-05T12:02:36.172Z</time></trkpt><trkpt lat="37.659765" lon="14.6365067"><ele>459.0</ele><time>2026-05-05T12:02:37.172Z</time></trkpt><trkpt lat="37.6596217" lon="14.6364567"><ele>459.0</ele><time>2026-05-05T12:02:38.172Z</time></trkpt><trkpt lat="37.65948" lon="14.636405"><ele>459.0</ele><time>2026-05-05T12:02:39.172Z</time></trkpt><trkpt lat="37.6593383" lon="14.6363583"><ele>459.0</ele><time>2026-05-05T12:02:40.172Z</time></trkpt><trkpt lat="37.6591967" lon="14.6363033"><ele>459.0</ele><time>2026-05-05T12:02:41.172Z</time></trkpt><trkpt lat="37.6590567" lon="14.6362583"><ele>459.25</ele><time>2026-05-05T12:02:42.172Z</time></trkpt><trkpt lat="37.65892" lon="14.6362067"><ele>459.5</ele><time>2026-05-05T12:02:43.172Z</time></trkpt><trkpt lat="37.65878" lon="14.63616"><ele>459.75</ele><time>2026-05-05T12:02:44.173Z</time></trkpt><trkpt lat="37.6586383" lon="14.6361117"><ele>460.0</ele><time>2026-05-05T12:02:45.172Z</time></trkpt><trkpt lat="37.6584883" lon="14.636065"><ele>461.6666666666667</ele><time>2026-05-05T12:02:46.173Z</time></trkpt><trkpt lat="37.6583483" lon="14.6360167"><ele>463.33333333333337</ele><time>2026-05-05T12:02:47.172Z</time></trkpt><trkpt lat="37.6581983" lon="14.63597"><ele>465.0</ele><time>2026-05-05T12:02:48.172Z</time></trkpt><trkpt lat="37.6580483" lon="14.6359283"><ele>465.0</ele><time>2026-05-05T12:02:49.173Z</time></trkpt><trkpt lat="37.6579067" lon="14.6358883"><ele>465.0</ele><time>2026-05-05T12:02:50.172Z</time></trkpt><trkpt lat="37.6577633" lon="14.63584"><ele>465.0</ele><time>2026-05-05T12:02:51.172Z</time></trkpt><trkpt lat="37.65762" lon="14.6357933"><ele>465.0</ele><time>2026-05-05T12:02:52.172Z</time></trkpt><trkpt lat="37.657485" lon="14.6357383"><ele>467.0</ele><time>2026-05-05T12:02:53.172Z</time></trkpt><trkpt lat="37.6573533" lon="14.6356717"><ele>469.0</ele><time>2026-05-05T12:02:54.173Z</time></trkpt><trkpt lat="37.6572233" lon="14.635595"><ele>471.0</ele><time>2026-05-05T12:02:55.172Z</time></trkpt><trkpt lat="37.6570867" lon="14.63551"><ele>473.0</ele><time>2026-05-05T12:02:56.172Z</time></trkpt><trkpt lat="37.6569483" lon="14.6354117"><ele>473.0</ele><time>2026-05-05T12:02:57.172Z</time></trkpt><trkpt lat="37.6568117" lon="14.6353083"><ele>473.0</ele><time>2026-05-05T12:02:58.172Z</time></trkpt><trkpt lat="37.6566833" lon="14.6352017"><ele>473.0</ele><time>2026-05-05T12:02:59.172Z</time></trkpt><trkpt lat="37.6565483" lon="14.6350883"><ele>473.0</ele><time>2026-05-05T12:03:00.172Z</time></trkpt><trkpt lat="37.6564233" lon="14.6349683"><ele>473.0</ele><time>2026-05-05T12:03:01.172Z</time></trkpt><trkpt lat="37.6563017" lon="14.63483"><ele>473.0</ele><time>2026-05-05T12:03:02.172Z</time></trkpt><trkpt lat="37.6561817" lon="14.634695"><ele>473.66666666666663</ele><time>2026-05-05T12:03:03.172Z</time></trkpt><trkpt lat="37.65607" lon="14.6345617"><ele>474.33333333333337</ele><time>2026-05-05T12:03:04.172Z</time></trkpt><trkpt lat="37.6559517" lon="14.6344183"><ele>475.0</ele><time>2026-05-05T12:03:05.172Z</time></trkpt><trkpt lat="37.6558333" lon="14.6342867"><ele>475.0</ele><time>2026-05-05T12:03:06.172Z</time></trkpt><trkpt lat="37.6557117" lon="14.6341517"><ele>475.0</ele><time>2026-05-05T12:03:07.172Z</time></trkpt><trkpt lat="37.6556017" lon="14.6340167"><ele>475.0</ele><time>2026-05-05T12:03:08.172Z</time></trkpt><trkpt lat="37.655515" lon="14.6338717"><ele>475.0</ele><time>2026-05-05T12:03:09.172Z</time></trkpt><trkpt lat="37.6554367" lon="14.6337167"><ele>475.0</ele><time>2026-05-05T12:03:10.172Z</time></trkpt><trkpt lat="37.6553667" lon="14.6335533"><ele>475.0</ele><time>2026-05-05T12:03:11.172Z</time></trkpt><trkpt lat="37.6552933" lon="14.6334017"><ele>475.0</ele><time>2026-05-05T12:03:12.172Z</time></trkpt><trkpt lat="37.6552233" lon="14.6332617"><ele>474.8</ele><time>2026-05-05T12:03:13.172Z</time></trkpt><trkpt lat="37.6551583" lon="14.6331317"><ele>474.6</ele><time>2026-05-05T12:03:14.172Z</time></trkpt><trkpt lat="37.6551" lon="14.6330233"><ele>474.4</ele><time>2026-05-05T12:03:15.172Z</time></trkpt><trkpt lat="37.6550533" lon="14.632925"><ele>474.2</ele><time>2026-05-05T12:03:16.172Z</time></trkpt><trkpt lat="37.655005" lon="14.6328433"><ele>474.0</ele><time>2026-05-05T12:03:17.172Z</time></trkpt><trkpt lat="37.6549617" lon="14.632775"><ele>474.0</ele><time>2026-05-05T12:03:18.173Z</time></trkpt><trkpt lat="37.6548967" lon="14.6327067"><ele>474.0</ele><time>2026-05-05T12:03:20.172Z</time></trkpt><trkpt lat="37.654805" lon="14.6327167"><ele>474.0</ele><time>2026-05-05T12:03:23.172Z</time></trkpt><trkpt lat="37.6546833" lon="14.6328133"><ele>474.0</ele><time>2026-05-05T12:03:25.172Z</time></trkpt><trkpt lat="37.6546117" lon="14.6328767"><ele>474.0</ele><time>2026-05-05T12:03:26.172Z</time></trkpt><trkpt lat="37.6545283" lon="14.632955"><ele>476.75</ele><time>2026-05-05T12:03:27.172Z</time></trkpt><trkpt lat="37.6544383" lon="14.633045"><ele>479.5</ele><time>2026-05-05T12:03:28.172Z</time></trkpt><trkpt lat="37.6543517" lon="14.6331517"><ele>482.25</ele><time>2026-05-05T12:03:29.172Z</time></trkpt><trkpt lat="37.6542567" lon="14.6332583"><ele>485.0</ele><time>2026-05-05T12:03:30.172Z</time></trkpt><trkpt lat="37.6541733" lon="14.6333783"><ele>485.0</ele><time>2026-05-05T12:03:31.172Z</time></trkpt><trkpt lat="37.654095" lon="14.6335117"><ele>485.0</ele><time>2026-05-05T12:03:32.172Z</time></trkpt><trkpt lat="37.6540217" lon="14.633655"><ele>485.0</ele><time>2026-05-05T12:03:33.173Z</time></trkpt><trkpt lat="37.6539467" lon="14.6338017"><ele>485.0</ele><time>2026-05-05T12:03:34.172Z</time></trkpt><trkpt lat="37.6538617" lon="14.6339483"><ele>487.5</ele><time>2026-05-05T12:03:35.172Z</time></trkpt><trkpt lat="37.6538083" lon="14.6341033"><ele>490.0</ele><time>2026-05-05T12:03:36.172Z</time></trkpt><trkpt lat="37.65375" lon="14.6342567"><ele>492.5</ele><time>2026-05-05T12:03:37.172Z</time></trkpt><trkpt lat="37.6537083" lon="14.6344117"><ele>495.0</ele><time>2026-05-05T12:03:38.172Z</time></trkpt><trkpt lat="37.6536717" lon="14.6345617"><ele>494.4</ele><time>2026-05-05T12:03:39.172Z</time></trkpt><trkpt lat="37.6536317" lon="14.6347"><ele>493.8</ele><time>2026-05-05T12:03:40.172Z</time></trkpt><trkpt lat="37.6536017" lon="14.6348417"><ele>493.20000000000005</ele><time>2026-05-05T12:03:41.173Z</time></trkpt><trkpt lat="37.653585" lon="14.634975"><ele>492.6</ele><time>2026-05-05T12:03:42.173Z</time></trkpt><trkpt lat="37.6535817" lon="14.6351"><ele>492.0</ele><time>2026-05-05T12:03:43.172Z</time></trkpt><trkpt lat="37.65357" lon="14.63521"><ele>492.0</ele><time>2026-05-05T12:03:44.172Z</time></trkpt><trkpt lat="37.6535583" lon="14.6352983"><ele>492.00000000000006</ele><time>2026-05-05T12:03:45.173Z</time></trkpt><trkpt lat="37.6535433" lon="14.6354183"><ele>492.00000000000006</ele><time>2026-05-05T12:03:47.172Z</time></trkpt><trkpt lat="37.653545" lon="14.6355367"><ele>492.0</ele><time>2026-05-05T12:03:49.172Z</time></trkpt><trkpt lat="37.653555" lon="14.6356733"><ele>492.0</ele><time>2026-05-05T12:03:51.172Z</time></trkpt><trkpt lat="37.65356" lon="14.6358183"><ele>491.7142857142858</ele><time>2026-05-05T12:03:53.172Z</time></trkpt><trkpt lat="37.6535633" lon="14.6358983"><ele>491.42857142857144</ele><time>2026-05-05T12:03:54.172Z</time></trkpt><trkpt lat="37.6535683" lon="14.6359817"><ele>491.14285714285717</ele><time>2026-05-05T12:03:55.172Z</time></trkpt><trkpt lat="37.65356" lon="14.6360617"><ele>490.8571428571429</ele><time>2026-05-05T12:03:56.172Z</time></trkpt><trkpt lat="37.653545" lon="14.6361567"><ele>490.57142857142856</ele><time>2026-05-05T12:03:57.172Z</time></trkpt><trkpt lat="37.6535283" lon="14.6362667"><ele>490.2857142857143</ele><time>2026-05-05T12:03:58.172Z</time></trkpt><trkpt lat="37.653515" lon="14.6363783"><ele>490.0</ele><time>2026-05-05T12:03:59.172Z</time></trkpt><trkpt lat="37.6535" lon="14.6364933"><ele>491.00000000000006</ele><time>2026-05-05T12:04:00.172Z</time></trkpt><trkpt lat="37.6534783" lon="14.6366067"><ele>492.0</ele><time>2026-05-05T12:04:01.172Z</time></trkpt><trkpt lat="37.6534467" lon="14.6367117"><ele>493.0</ele><time>2026-05-05T12:04:02.172Z</time></trkpt><trkpt lat="37.6534067" lon="14.63681"><ele>494.0</ele><time>2026-05-05T12:04:03.172Z</time></trkpt><trkpt lat="37.6533733" lon="14.6369"><ele>495.00000000000006</ele><time>2026-05-05T12:04:04.173Z</time></trkpt><trkpt lat="37.65334" lon="14.6369817"><ele>496.0</ele><time>2026-05-05T12:04:05.172Z</time></trkpt><trkpt lat="37.65331" lon="14.6370533"><ele>498.20000000000005</ele><time>2026-05-05T12:04:06.172Z</time></trkpt><trkpt lat="37.6532667" lon="14.63719"><ele>500.40000000000003</ele><time>2026-05-05T12:04:08.173Z</time></trkpt><trkpt lat="37.6532533" lon="14.6373467"><ele>502.6</ele><time>2026-05-05T12:04:10.173Z</time></trkpt><trkpt lat="37.65324" lon="14.6375017"><ele>504.8</ele><time>2026-05-05T12:04:12.172Z</time></trkpt><trkpt lat="37.6532267" lon="14.6375817"><ele>507.0</ele><time>2026-05-05T12:04:13.173Z</time></trkpt><trkpt lat="37.65321" lon="14.6376617"><ele>507.0</ele><time>2026-05-05T12:04:14.173Z</time></trkpt><trkpt lat="37.65319" lon="14.6377383"><ele>507.00000000000006</ele><time>2026-05-05T12:04:15.172Z</time></trkpt><trkpt lat="37.653155" lon="14.637875"><ele>507.00000000000006</ele><time>2026-05-05T12:04:17.172Z</time></trkpt><trkpt lat="37.65315" lon="14.63801"><ele>507.0</ele><time>2026-05-05T12:04:19.172Z</time></trkpt><trkpt lat="37.6531317" lon="14.6381233"><ele>507.0</ele><time>2026-05-05T12:04:21.172Z</time></trkpt><trkpt lat="37.653115" lon="14.638235"><ele>507.8333333333333</ele><time>2026-05-05T12:04:23.172Z</time></trkpt><trkpt lat="37.6531017" lon="14.638345"><ele>508.66666666666663</ele><time>2026-05-05T12:04:25.172Z</time></trkpt><trkpt lat="37.653085" lon="14.638425"><ele>509.5</ele><time>2026-05-05T12:04:27.172Z</time></trkpt><trkpt lat="37.6530517" lon="14.6385383"><ele>510.3333333333333</ele><time>2026-05-05T12:04:30.173Z</time></trkpt><trkpt lat="37.6530167" lon="14.6386383"><ele>511.16666666666663</ele><time>2026-05-05T12:04:32.172Z</time></trkpt><trkpt lat="37.6529567" lon="14.638735"><ele>512.0</ele><time>2026-05-05T12:04:34.173Z</time></trkpt><trkpt lat="37.6528983" lon="14.638865"><ele>511.5</ele><time>2026-05-05T12:04:36.173Z</time></trkpt><trkpt lat="37.6528333" lon="14.638985"><ele>511.0</ele><time>2026-05-05T12:04:38.172Z</time></trkpt><trkpt lat="37.6527583" lon="14.6390917"><ele>510.5</ele><time>2026-05-05T12:04:40.172Z</time></trkpt><trkpt lat="37.6526933" lon="14.6392167"><ele>510.0</ele><time>2026-05-05T12:04:42.172Z</time></trkpt><trkpt lat="37.6526217" lon="14.6393317"><ele>510.0</ele><time>2026-05-05T12:04:44.173Z</time></trkpt><trkpt lat="37.6525467" lon="14.639445"><ele>510.0</ele><time>2026-05-05T12:04:46.172Z</time></trkpt><trkpt lat="37.65249" lon="14.6395583"><ele>510.0</ele><time>2026-05-05T12:04:48.172Z</time></trkpt><trkpt lat="37.6524433" lon="14.63964"><ele>510.0</ele><time>2026-05-05T12:04:50.173Z</time></trkpt><trkpt lat="37.6523617" lon="14.6397083"><ele>510.0</ele><time>2026-05-05T12:04:52.172Z</time></trkpt><trkpt lat="37.6522717" lon="14.6397617"><ele>511.4</ele><time>2026-05-05T12:04:54.172Z</time></trkpt><trkpt lat="37.6522183" lon="14.6398283"><ele>512.8</ele><time>2026-05-05T12:04:56.172Z</time></trkpt><trkpt lat="37.65215" lon="14.63989"><ele>514.2</ele><time>2026-05-05T12:04:58.172Z</time></trkpt><trkpt lat="37.6520767" lon="14.6399817"><ele>515.6</ele><time>2026-05-05T12:05:00.172Z</time></trkpt><trkpt lat="37.6519967" lon="14.6400833"><ele>517.0</ele><time>2026-05-05T12:05:02.172Z</time></trkpt><trkpt lat="37.6518867" lon="14.6401217"><ele>517.0</ele><time>2026-05-05T12:05:04.172Z</time></trkpt><trkpt lat="37.6518133" lon="14.6401267"><ele>517.0</ele><time>2026-05-05T12:05:05.172Z</time></trkpt><trkpt lat="37.6517333" lon="14.6401267"><ele>517.0</ele><time>2026-05-05T12:05:06.172Z</time></trkpt><trkpt lat="37.6516483" lon="14.64012"><ele>517.0</ele><time>2026-05-05T12:05:07.172Z</time></trkpt><trkpt lat="37.6515633" lon="14.6401167"><ele>517.0</ele><time>2026-05-05T12:05:08.172Z</time></trkpt><trkpt lat="37.6514767" lon="14.6401017"><ele>517.0</ele><time>2026-05-05T12:05:09.172Z</time></trkpt><trkpt lat="37.6513867" lon="14.64009"><ele>517.0</ele><time>2026-05-05T12:05:10.172Z</time></trkpt><trkpt lat="37.6512667" lon="14.6400767"><ele>517.0</ele><time>2026-05-05T12:05:11.172Z</time></trkpt><trkpt lat="37.6511417" lon="14.640095"><ele>517.0</ele><time>2026-05-05T12:05:12.172Z</time></trkpt><trkpt lat="37.651025" lon="14.64012"><ele>517.0</ele><time>2026-05-05T12:05:13.173Z</time></trkpt><trkpt lat="37.65093" lon="14.6401667"><ele>517.0</ele><time>2026-05-05T12:05:14.172Z</time></trkpt><trkpt lat="37.6508283" lon="14.6401883"><ele>517.0</ele><time>2026-05-05T12:05:15.173Z</time></trkpt><trkpt lat="37.6507317" lon="14.6402233"><ele>517.0</ele><time>2026-05-05T12:05:16.172Z</time></trkpt><trkpt lat="37.6506267" lon="14.640235"><ele>517.0</ele><time>2026-05-05T12:05:17.173Z</time></trkpt><trkpt lat="37.6505283" lon="14.640245"><ele>517.0</ele><time>2026-05-05T12:05:18.172Z</time></trkpt><trkpt lat="37.6504233" lon="14.6402783"><ele>519.6666666666667</ele><time>2026-05-05T12:05:19.172Z</time></trkpt><trkpt lat="37.6503217" lon="14.640305"><ele>522.3333333333334</ele><time>2026-05-05T12:05:20.172Z</time></trkpt><trkpt lat="37.6502233" lon="14.6403283"><ele>525.0</ele><time>2026-05-05T12:05:21.172Z</time></trkpt><trkpt lat="37.6501367" lon="14.6403483"><ele>527.6666666666666</ele><time>2026-05-05T12:05:22.172Z</time></trkpt><trkpt lat="37.650055" lon="14.6403783"><ele>530.3333333333333</ele><time>2026-05-05T12:05:23.172Z</time></trkpt><trkpt lat="37.64999" lon="14.6403967"><ele>533.0</ele><time>2026-05-05T12:05:24.172Z</time></trkpt><trkpt lat="37.64988" lon="14.640435"><ele>533.0</ele><time>2026-05-05T12:05:26.172Z</time></trkpt><trkpt lat="37.6498167" lon="14.6404633"><ele>533.0</ele><time>2026-05-05T12:05:28.171Z</time></trkpt><trkpt lat="37.64974" lon="14.6404717"><ele>533.0</ele><time>2026-05-05T12:05:31.171Z</time></trkpt><trkpt lat="37.6496833" lon="14.6405233"><ele>533.0</ele><time>2026-05-05T12:05:35.171Z</time></trkpt><trkpt lat="37.6496167" lon="14.6404717"><ele>533.0</ele><time>2026-05-05T12:05:39.171Z</time></trkpt><trkpt lat="37.6496" lon="14.6403467"><ele>533.0</ele><time>2026-05-05T12:05:41.172Z</time></trkpt><trkpt lat="37.6495867" lon="14.6402667"><ele>533.8</ele><time>2026-05-05T12:05:42.171Z</time></trkpt><trkpt lat="37.64955" lon="14.6401583"><ele>534.5999999999999</ele><time>2026-05-05T12:05:43.171Z</time></trkpt><trkpt lat="37.64952" lon="14.6400517"><ele>535.4000000000001</ele><time>2026-05-05T12:05:44.171Z</time></trkpt><trkpt lat="37.64949" lon="14.63994"><ele>536.2</ele><time>2026-05-05T12:05:45.171Z</time></trkpt><trkpt lat="37.6494483" lon="14.639845"><ele>537.0</ele><time>2026-05-05T12:05:46.171Z</time></trkpt><trkpt lat="37.649405" lon="14.6397367"><ele>537.0</ele><time>2026-05-05T12:05:47.172Z</time></trkpt><trkpt lat="37.64936" lon="14.6396217"><ele>537.0</ele><time>2026-05-05T12:05:48.172Z</time></trkpt><trkpt lat="37.6493233" lon="14.639505"><ele>537.0</ele><time>2026-05-05T12:05:49.171Z</time></trkpt><trkpt lat="37.649285" lon="14.6393783"><ele>537.0</ele><time>2026-05-05T12:05:50.171Z</time></trkpt><trkpt lat="37.6492433" lon="14.6392283"><ele>537.0</ele><time>2026-05-05T12:05:51.171Z</time></trkpt><trkpt lat="37.64921" lon="14.639095"><ele>535.0</ele><time>2026-05-05T12:05:52.171Z</time></trkpt><trkpt lat="37.649175" lon="14.6389567"><ele>533.0</ele><time>2026-05-05T12:05:53.172Z</time></trkpt><trkpt lat="37.6491383" lon="14.638815"><ele>531.0</ele><time>2026-05-05T12:05:54.171Z</time></trkpt><trkpt lat="37.6490933" lon="14.6386783"><ele>529.0</ele><time>2026-05-05T12:05:55.172Z</time></trkpt><trkpt lat="37.6490533" lon="14.6385383"><ele>526.5</ele><time>2026-05-05T12:05:56.171Z</time></trkpt><trkpt lat="37.64902" lon="14.6383933"><ele>524.0</ele><time>2026-05-05T12:05:57.171Z</time></trkpt><trkpt lat="37.64898" lon="14.63824"><ele>521.5</ele><time>2026-05-05T12:05:58.172Z</time></trkpt><trkpt lat="37.6489433" lon="14.6380883"><ele>519.0</ele><time>2026-05-05T12:05:59.171Z</time></trkpt><trkpt lat="37.6489" lon="14.6379383"><ele>516.75</ele><time>2026-05-05T12:06:00.171Z</time></trkpt><trkpt lat="37.648865" lon="14.6377867"><ele>514.5</ele><time>2026-05-05T12:06:01.171Z</time></trkpt><trkpt lat="37.6488333" lon="14.63763"><ele>512.25</ele><time>2026-05-05T12:06:02.171Z</time></trkpt><trkpt lat="37.648795" lon="14.6374617"><ele>510.0</ele><time>2026-05-05T12:06:03.171Z</time></trkpt><trkpt lat="37.6487567" lon="14.6372917"><ele>510.0</ele><time>2026-05-05T12:06:04.171Z</time></trkpt><trkpt lat="37.6487217" lon="14.63712"><ele>510.0</ele><time>2026-05-05T12:06:05.171Z</time></trkpt><trkpt lat="37.6486667" lon="14.636945"><ele>510.0</ele><time>2026-05-05T12:06:06.171Z</time></trkpt><trkpt lat="37.648615" lon="14.6367733"><ele>510.0</ele><time>2026-05-05T12:06:07.171Z</time></trkpt><trkpt lat="37.64858" lon="14.63661"><ele>510.25</ele><time>2026-05-05T12:06:08.171Z</time></trkpt><trkpt lat="37.6485483" lon="14.63644"><ele>510.5</ele><time>2026-05-05T12:06:09.172Z</time></trkpt><trkpt lat="37.6485" lon="14.636275"><ele>510.75</ele><time>2026-05-05T12:06:10.171Z</time></trkpt><trkpt lat="37.6484517" lon="14.6361117"><ele>511.0</ele><time>2026-05-05T12:06:11.172Z</time></trkpt><trkpt lat="37.6484083" lon="14.635955"><ele>511.0</ele><time>2026-05-05T12:06:12.171Z</time></trkpt><trkpt lat="37.648355" lon="14.63579"><ele>511.0</ele><time>2026-05-05T12:06:13.171Z</time></trkpt><trkpt lat="37.6482983" lon="14.63562"><ele>511.0</ele><time>2026-05-05T12:06:14.171Z</time></trkpt><trkpt lat="37.6482583" lon="14.635445"><ele>511.0</ele><time>2026-05-05T12:06:15.171Z</time></trkpt><trkpt lat="37.64822" lon="14.6352683"><ele>510.5</ele><time>2026-05-05T12:06:16.171Z</time></trkpt><trkpt lat="37.6481817" lon="14.6351017"><ele>510.0</ele><time>2026-05-05T12:06:17.171Z</time></trkpt><trkpt lat="37.6481283" lon="14.6349333"><ele>509.5</ele><time>2026-05-05T12:06:18.171Z</time></trkpt><trkpt lat="37.6480817" lon="14.6347717"><ele>509.0</ele><time>2026-05-05T12:06:19.172Z</time></trkpt><trkpt lat="37.6480333" lon="14.634595"><ele>506.0</ele><time>2026-05-05T12:06:20.171Z</time></trkpt><trkpt lat="37.6479917" lon="14.63443"><ele>503.0</ele><time>2026-05-05T12:06:21.171Z</time></trkpt><trkpt lat="37.64795" lon="14.63426"><ele>500.0</ele><time>2026-05-05T12:06:22.171Z</time></trkpt><trkpt lat="37.6479033" lon="14.6340917"><ele>497.0</ele><time>2026-05-05T12:06:23.171Z</time></trkpt><trkpt lat="37.6478483" lon="14.6339233"><ele>500.25</ele><time>2026-05-05T12:06:24.171Z</time></trkpt><trkpt lat="37.6477933" lon="14.6337517"><ele>503.5</ele><time>2026-05-05T12:06:25.172Z</time></trkpt><trkpt lat="37.647745" lon="14.6335767"><ele>506.75</ele><time>2026-05-05T12:06:26.171Z</time></trkpt><trkpt lat="37.647685" lon="14.6334017"><ele>510.0</ele><time>2026-05-05T12:06:27.171Z</time></trkpt><trkpt lat="37.647625" lon="14.6332283"><ele>510.0</ele><time>2026-05-05T12:06:28.171Z</time></trkpt><trkpt lat="37.6475683" lon="14.6330467"><ele>510.0</ele><time>2026-05-05T12:06:29.171Z</time></trkpt><trkpt lat="37.6475167" lon="14.632865"><ele>510.0</ele><time>2026-05-05T12:06:30.172Z</time></trkpt><trkpt lat="37.6474567" lon="14.6326867"><ele>507.33333333333337</ele><time>2026-05-05T12:06:31.171Z</time></trkpt><trkpt lat="37.647395" lon="14.6325067"><ele>504.6666666666667</ele><time>2026-05-05T12:06:32.171Z</time></trkpt><trkpt lat="37.6473333" lon="14.6323233"><ele>502.0</ele><time>2026-05-05T12:06:33.172Z</time></trkpt><trkpt lat="37.64727" lon="14.6321417"><ele>499.6666666666667</ele><time>2026-05-05T12:06:34.171Z</time></trkpt><trkpt lat="37.6472083" lon="14.6319583"><ele>497.33333333333337</ele><time>2026-05-05T12:06:35.171Z</time></trkpt><trkpt lat="37.647145" lon="14.6317683"><ele>495.0</ele><time>2026-05-05T12:06:36.171Z</time></trkpt><trkpt lat="37.6470867" lon="14.63158"><ele>495.0</ele><time>2026-05-05T12:06:37.171Z</time></trkpt><trkpt lat="37.6470267" lon="14.6313833"><ele>495.0</ele><time>2026-05-05T12:06:38.171Z</time></trkpt><trkpt lat="37.6469683" lon="14.6311833"><ele>495.0</ele><time>2026-05-05T12:06:39.171Z</time></trkpt><trkpt lat="37.6469117" lon="14.6309867"><ele>498.0</ele><time>2026-05-05T12:06:40.171Z</time></trkpt><trkpt lat="37.6468567" lon="14.6307867"><ele>501.0</ele><time>2026-05-05T12:06:41.171Z</time></trkpt><trkpt lat="37.6468067" lon="14.6305867"><ele>504.0</ele><time>2026-05-05T12:06:42.171Z</time></trkpt><trkpt lat="37.646755" lon="14.63038"><ele>504.0</ele><time>2026-05-05T12:06:43.172Z</time></trkpt><trkpt lat="37.64671" lon="14.6301767"><ele>504.0</ele><time>2026-05-05T12:06:44.171Z</time></trkpt><trkpt lat="37.646675" lon="14.6299783"><ele>504.0</ele><time>2026-05-05T12:06:45.171Z</time></trkpt><trkpt lat="37.6466333" lon="14.6297783"><ele>504.0</ele><time>2026-05-05T12:06:46.171Z</time></trkpt><trkpt lat="37.6465933" lon="14.6295883"><ele>504.0</ele><time>2026-05-05T12:06:47.172Z</time></trkpt><trkpt lat="37.6465567" lon="14.6294017"><ele>504.0</ele><time>2026-05-05T12:06:48.171Z</time></trkpt><trkpt lat="37.646515" lon="14.6292167"><ele>503.66666666666663</ele><time>2026-05-05T12:06:49.171Z</time></trkpt><trkpt lat="37.6464767" lon="14.62903"><ele>503.3333333333333</ele><time>2026-05-05T12:06:50.172Z</time></trkpt><trkpt lat="37.6464217" lon="14.628845"><ele>503.0</ele><time>2026-05-05T12:06:51.171Z</time></trkpt><trkpt lat="37.6463633" lon="14.6286517"><ele>502.3333333333333</ele><time>2026-05-05T12:06:52.171Z</time></trkpt><trkpt lat="37.6463033" lon="14.6284517"><ele>501.66666666666663</ele><time>2026-05-05T12:06:53.171Z</time></trkpt><trkpt lat="37.6462417" lon="14.62825"><ele>501.0</ele><time>2026-05-05T12:06:54.171Z</time></trkpt><trkpt lat="37.64618" lon="14.62805"><ele>503.33333333333337</ele><time>2026-05-05T12:06:55.171Z</time></trkpt><trkpt lat="37.6461117" lon="14.627845"><ele>505.6666666666667</ele><time>2026-05-05T12:06:56.171Z</time></trkpt><trkpt lat="37.646045" lon="14.6276333"><ele>508.0</ele><time>2026-05-05T12:06:57.171Z</time></trkpt><trkpt lat="37.6459833" lon="14.62742"><ele>508.0</ele><time>2026-05-05T12:06:58.171Z</time></trkpt><trkpt lat="37.6459283" lon="14.62723"><ele>508.0</ele><time>2026-05-05T12:06:59.171Z</time></trkpt><trkpt lat="37.6458667" lon="14.6270333"><ele>508.0</ele><time>2026-05-05T12:07:00.171Z</time></trkpt><trkpt lat="37.6458017" lon="14.6268517"><ele>506.33333333333337</ele><time>2026-05-05T12:07:01.171Z</time></trkpt><trkpt lat="37.64574" lon="14.6266633"><ele>504.66666666666663</ele><time>2026-05-05T12:07:02.171Z</time></trkpt><trkpt lat="37.64568" lon="14.62649"><ele>503.0</ele><time>2026-05-05T12:07:03.171Z</time></trkpt><trkpt lat="37.6456267" lon="14.6263167"><ele>503.0</ele><time>2026-05-05T12:07:04.171Z</time></trkpt><trkpt lat="37.645575" lon="14.6261467"><ele>503.0</ele><time>2026-05-05T12:07:05.171Z</time></trkpt><trkpt lat="37.645505" lon="14.626"><ele>503.0</ele><time>2026-05-05T12:07:06.172Z</time></trkpt><trkpt lat="37.645405" lon="14.625875"><ele>503.0</ele><time>2026-05-05T12:07:07.171Z</time></trkpt><trkpt lat="37.6452783" lon="14.6257817"><ele>503.0</ele><time>2026-05-05T12:07:08.171Z</time></trkpt><trkpt lat="37.645135" lon="14.6257017"><ele>503.0</ele><time>2026-05-05T12:07:09.171Z</time></trkpt><trkpt lat="37.6449883" lon="14.6256117"><ele>503.0</ele><time>2026-05-05T12:07:10.172Z</time></trkpt><trkpt lat="37.6448383" lon="14.6255233"><ele>503.0</ele><time>2026-05-05T12:07:11.171Z</time></trkpt><trkpt lat="37.6446983" lon="14.6254217"><ele>503.0</ele><time>2026-05-05T12:07:12.171Z</time></trkpt><trkpt lat="37.6445633" lon="14.6253217"><ele>503.0</ele><time>2026-05-05T12:07:13.172Z</time></trkpt><trkpt lat="37.64444" lon="14.6252083"><ele>501.0</ele><time>2026-05-05T12:07:14.171Z</time></trkpt><trkpt lat="37.644325" lon="14.625085"><ele>499.0</ele><time>2026-05-05T12:07:15.171Z</time></trkpt><trkpt lat="37.64422" lon="14.6249333"><ele>497.0</ele><time>2026-05-05T12:07:16.171Z</time></trkpt><trkpt lat="37.6441217" lon="14.6247767"><ele>497.0</ele><time>2026-05-05T12:07:17.171Z</time></trkpt><trkpt lat="37.6440267" lon="14.6246117"><ele>497.0</ele><time>2026-05-05T12:07:18.171Z</time></trkpt><trkpt lat="37.6439233" lon="14.624445"><ele>497.0</ele><time>2026-05-05T12:07:19.171Z</time></trkpt><trkpt lat="37.643825" lon="14.6242833"><ele>496.0</ele><time>2026-05-05T12:07:20.171Z</time></trkpt><trkpt lat="37.6437367" lon="14.624115"><ele>495.0</ele><time>2026-05-05T12:07:21.171Z</time></trkpt><trkpt lat="37.6436567" lon="14.6239333"><ele>494.0</ele><time>2026-05-05T12:07:22.171Z</time></trkpt><trkpt lat="37.6435833" lon="14.6237483"><ele>491.66666666666663</ele><time>2026-05-05T12:07:23.171Z</time></trkpt><trkpt lat="37.6435017" lon="14.6235717"><ele>489.33333333333337</ele><time>2026-05-05T12:07:24.172Z</time></trkpt><trkpt lat="37.6434217" lon="14.6233883"><ele>487.0</ele><time>2026-05-05T12:07:25.171Z</time></trkpt><trkpt lat="37.6433483" lon="14.6232017"><ele>487.0</ele><time>2026-05-05T12:07:26.171Z</time></trkpt><trkpt lat="37.6432833" lon="14.6230183"><ele>487.0</ele><time>2026-05-05T12:07:27.171Z</time></trkpt><trkpt lat="37.6432267" lon="14.6228383"><ele>487.0</ele><time>2026-05-05T12:07:28.171Z</time></trkpt><trkpt lat="37.6431717" lon="14.622665"><ele>483.0</ele><time>2026-05-05T12:07:29.171Z</time></trkpt><trkpt lat="37.6431183" lon="14.622495"><ele>479.0</ele><time>2026-05-05T12:07:30.171Z</time></trkpt><trkpt lat="37.6430567" lon="14.622345"><ele>475.0</ele><time>2026-05-05T12:07:31.171Z</time></trkpt><trkpt lat="37.6429883" lon="14.6222083"><ele>471.0</ele><time>2026-05-05T12:07:32.171Z</time></trkpt><trkpt lat="37.642905" lon="14.6221017"><ele>471.0</ele><time>2026-05-05T12:07:33.171Z</time></trkpt><trkpt lat="37.6428067" lon="14.6220417"><ele>471.0</ele><time>2026-05-05T12:07:34.171Z</time></trkpt><trkpt lat="37.642695" lon="14.6220417"><ele>471.0</ele><time>2026-05-05T12:07:35.171Z</time></trkpt><trkpt lat="37.642585" lon="14.6221083"><ele>471.0</ele><time>2026-05-05T12:07:36.171Z</time></trkpt><trkpt lat="37.6425017" lon="14.622225"><ele>472.0</ele><time>2026-05-05T12:07:37.171Z</time></trkpt><trkpt lat="37.642435" lon="14.622335"><ele>473.0</ele><time>2026-05-05T12:07:38.171Z</time></trkpt><trkpt lat="37.642355" lon="14.62244"><ele>474.0</ele><time>2026-05-05T12:07:39.171Z</time></trkpt><trkpt lat="37.6422633" lon="14.6224983"><ele>475.0</ele><time>2026-05-05T12:07:40.172Z</time></trkpt><trkpt lat="37.64216" lon="14.6224883"><ele>476.0</ele><time>2026-05-05T12:07:41.171Z</time></trkpt><trkpt lat="37.64205" lon="14.6224217"><ele>476.0</ele><time>2026-05-05T12:07:42.171Z</time></trkpt><trkpt lat="37.64196" lon="14.622305"><ele>476.0</ele><time>2026-05-05T12:07:43.171Z</time></trkpt><trkpt lat="37.6418933" lon="14.62216"><ele>476.0</ele><time>2026-05-05T12:07:44.171Z</time></trkpt><trkpt lat="37.641845" lon="14.621995"><ele>476.0</ele><time>2026-05-05T12:07:45.171Z</time></trkpt><trkpt lat="37.64181" lon="14.62182"><ele>476.0</ele><time>2026-05-05T12:07:46.171Z</time></trkpt><trkpt lat="37.6417817" lon="14.6216383"><ele>476.0</ele><time>2026-05-05T12:07:47.171Z</time></trkpt><trkpt lat="37.6417517" lon="14.62145"><ele>476.0</ele><time>2026-05-05T12:07:48.171Z</time></trkpt><trkpt lat="37.6417383" lon="14.6212517"><ele>475.66666666666663</ele><time>2026-05-05T12:07:49.171Z</time></trkpt><trkpt lat="37.64173" lon="14.6210517"><ele>475.33333333333337</ele><time>2026-05-05T12:07:50.171Z</time></trkpt><trkpt lat="37.64172" lon="14.6208467"><ele>475.0</ele><time>2026-05-05T12:07:51.172Z</time></trkpt><trkpt lat="37.6417167" lon="14.6206483"><ele>475.0</ele><time>2026-05-05T12:07:52.171Z</time></trkpt><trkpt lat="37.6417117" lon="14.6204617"><ele>475.0</ele><time>2026-05-05T12:07:53.171Z</time></trkpt><trkpt lat="37.6417067" lon="14.6203"><ele>475.0</ele><time>2026-05-05T12:07:54.171Z</time></trkpt><trkpt lat="37.6417067" lon="14.620155"><ele>475.0</ele><time>2026-05-05T12:07:55.171Z</time></trkpt><trkpt lat="37.6417267" lon="14.6200217"><ele>476.75</ele><time>2026-05-05T12:07:56.171Z</time></trkpt><trkpt lat="37.6417783" lon="14.619895"><ele>478.5</ele><time>2026-05-05T12:07:57.171Z</time></trkpt><trkpt lat="37.6418667" lon="14.6197833"><ele>480.25</ele><time>2026-05-05T12:07:58.171Z</time></trkpt><trkpt lat="37.6419733" lon="14.6196817"><ele>482.0</ele><time>2026-05-05T12:07:59.171Z</time></trkpt><trkpt lat="37.6420967" lon="14.61958"><ele>482.75</ele><time>2026-05-05T12:08:00.171Z</time></trkpt><trkpt lat="37.64222" lon="14.6194783"><ele>483.5</ele><time>2026-05-05T12:08:01.171Z</time></trkpt><trkpt lat="37.642345" lon="14.6193683"><ele>484.25</ele><time>2026-05-05T12:08:02.171Z</time></trkpt><trkpt lat="37.6424483" lon="14.619245"><ele>485.0</ele><time>2026-05-05T12:08:03.171Z</time></trkpt><trkpt lat="37.6425467" lon="14.619095"><ele>485.0</ele><time>2026-05-05T12:08:04.171Z</time></trkpt><trkpt lat="37.6426267" lon="14.618935"><ele>485.0</ele><time>2026-05-05T12:08:05.171Z</time></trkpt><trkpt lat="37.6427033" lon="14.61877"><ele>485.0</ele><time>2026-05-05T12:08:06.171Z</time></trkpt><trkpt lat="37.6427733" lon="14.6185983"><ele>485.0</ele><time>2026-05-05T12:08:07.171Z</time></trkpt><trkpt lat="37.6428567" lon="14.618425"><ele>485.0</ele><time>2026-05-05T12:08:08.171Z</time></trkpt><trkpt lat="37.6429583" lon="14.6182667"><ele>485.0</ele><time>2026-05-05T12:08:09.171Z</time></trkpt><trkpt lat="37.6430733" lon="14.618135"><ele>485.0</ele><time>2026-05-05T12:08:10.171Z</time></trkpt><trkpt lat="37.6431883" lon="14.6179983"><ele>485.0</ele><time>2026-05-05T12:08:11.171Z</time></trkpt><trkpt lat="37.6432917" lon="14.6178417"><ele>485.0</ele><time>2026-05-05T12:08:12.171Z</time></trkpt><trkpt lat="37.6433867" lon="14.6176667"><ele>483.66666666666663</ele><time>2026-05-05T12:08:13.171Z</time></trkpt><trkpt lat="37.6434783" lon="14.6174767"><ele>482.33333333333337</ele><time>2026-05-05T12:08:14.171Z</time></trkpt><trkpt lat="37.6435717" lon="14.6172833"><ele>481.0</ele><time>2026-05-05T12:08:15.172Z</time></trkpt><trkpt lat="37.643665" lon="14.6170883"><ele>483.33333333333337</ele><time>2026-05-05T12:08:16.171Z</time></trkpt><trkpt lat="37.6437667" lon="14.6168933"><ele>485.66666666666663</ele><time>2026-05-05T12:08:17.171Z</time></trkpt><trkpt lat="37.64386" lon="14.616705"><ele>488.0</ele><time>2026-05-05T12:08:18.171Z</time></trkpt><trkpt lat="37.6439483" lon="14.6165267"><ele>488.0</ele><time>2026-05-05T12:08:19.171Z</time></trkpt><trkpt lat="37.6440383" lon="14.6163517"><ele>488.0</ele><time>2026-05-05T12:08:20.171Z</time></trkpt><trkpt lat="37.6441233" lon="14.6161783"><ele>488.0</ele><time>2026-05-05T12:08:21.171Z</time></trkpt><trkpt lat="37.6442233" lon="14.6160083"><ele>488.5</ele><time>2026-05-05T12:08:22.172Z</time></trkpt><trkpt lat="37.64432" lon="14.6158517"><ele>489.0</ele><time>2026-05-05T12:08:23.171Z</time></trkpt><trkpt lat="37.6444217" lon="14.615705"><ele>489.5</ele><time>2026-05-05T12:08:24.171Z</time></trkpt><trkpt lat="37.6445233" lon="14.6155883"><ele>490.0</ele><time>2026-05-05T12:08:25.171Z</time></trkpt><trkpt lat="37.644615" lon="14.6154817"><ele>490.0</ele><time>2026-05-05T12:08:26.171Z</time></trkpt><trkpt lat="37.6447017" lon="14.61537"><ele>490.0</ele><time>2026-05-05T12:08:27.172Z</time></trkpt><trkpt lat="37.6447617" lon="14.61524"><ele>490.0</ele><time>2026-05-05T12:08:28.171Z</time></trkpt><trkpt lat="37.644795" lon="14.615085"><ele>490.0</ele><time>2026-05-05T12:08:29.171Z</time></trkpt><trkpt lat="37.6448" lon="14.6149183"><ele>490.0</ele><time>2026-05-05T12:08:30.171Z</time></trkpt><trkpt lat="37.64477" lon="14.6147317"><ele>490.0</ele><time>2026-05-05T12:08:31.171Z</time></trkpt><trkpt lat="37.6447517" lon="14.6145417"><ele>490.0</ele><time>2026-05-05T12:08:32.171Z</time></trkpt><trkpt lat="37.644725" lon="14.614355"><ele>490.0</ele><time>2026-05-05T12:08:33.171Z</time></trkpt><trkpt lat="37.64469" lon="14.6141667"><ele>490.0</ele><time>2026-05-05T12:08:34.171Z</time></trkpt><trkpt lat="37.644625" lon="14.6139933"><ele>490.0</ele><time>2026-05-05T12:08:35.171Z</time></trkpt><trkpt lat="37.6445333" lon="14.6138217"><ele>491.33333333333337</ele><time>2026-05-05T12:08:36.171Z</time></trkpt><trkpt lat="37.644425" lon="14.613655"><ele>492.66666666666663</ele><time>2026-05-05T12:08:37.171Z</time></trkpt><trkpt lat="37.644315" lon="14.6135"><ele>494.0</ele><time>2026-05-05T12:08:38.171Z</time></trkpt><trkpt lat="37.644205" lon="14.6133467"><ele>494.0</ele><time>2026-05-05T12:08:39.171Z</time></trkpt><trkpt lat="37.6440917" lon="14.613195"><ele>494.0</ele><time>2026-05-05T12:08:40.171Z</time></trkpt><trkpt lat="37.6439767" lon="14.61305"><ele>494.0</ele><time>2026-05-05T12:08:41.171Z</time></trkpt><trkpt lat="37.6438617" lon="14.6129067"><ele>494.25</ele><time>2026-05-05T12:08:42.171Z</time></trkpt><trkpt lat="37.6437483" lon="14.6127817"><ele>494.5</ele><time>2026-05-05T12:08:43.171Z</time></trkpt><trkpt lat="37.6436333" lon="14.61266"><ele>494.75</ele><time>2026-05-05T12:08:44.171Z</time></trkpt><trkpt lat="37.6435217" lon="14.6125367"><ele>495.0</ele><time>2026-05-05T12:08:45.171Z</time></trkpt><trkpt lat="37.6434167" lon="14.6124167"><ele>495.0</ele><time>2026-05-05T12:08:46.171Z</time></trkpt><trkpt lat="37.643305" lon="14.6123183"><ele>495.0</ele><time>2026-05-05T12:08:47.171Z</time></trkpt><trkpt lat="37.6432" lon="14.6122217"><ele>495.0</ele><time>2026-05-05T12:08:48.171Z</time></trkpt><trkpt lat="37.6431083" lon="14.612125"><ele>495.0</ele><time>2026-05-05T12:08:49.171Z</time></trkpt><trkpt lat="37.643035" lon="14.6120267"><ele>494.2</ele><time>2026-05-05T12:08:50.171Z</time></trkpt><trkpt lat="37.6430017" lon="14.61192"><ele>493.4</ele><time>2026-05-05T12:08:51.171Z</time></trkpt><trkpt lat="37.6430067" lon="14.6117933"><ele>492.6</ele><time>2026-05-05T12:08:52.171Z</time></trkpt><trkpt lat="37.6430633" lon="14.6116783"><ele>491.8</ele><time>2026-05-05T12:08:53.172Z</time></trkpt><trkpt lat="37.6431483" lon="14.6115733"><ele>491.0</ele><time>2026-05-05T12:08:54.172Z</time></trkpt><trkpt lat="37.6432467" lon="14.6114783"><ele>491.0</ele><time>2026-05-05T12:08:55.171Z</time></trkpt><trkpt lat="37.64334" lon="14.6113817"><ele>491.0</ele><time>2026-05-05T12:08:56.171Z</time></trkpt><trkpt lat="37.643415" lon="14.6112833"><ele>491.0</ele><time>2026-05-05T12:08:57.171Z</time></trkpt><trkpt lat="37.64347" lon="14.611165"><ele>491.0</ele><time>2026-05-05T12:08:58.171Z</time></trkpt><trkpt lat="37.6434867" lon="14.611015"><ele>490.25</ele><time>2026-05-05T12:08:59.171Z</time></trkpt><trkpt lat="37.6434683" lon="14.6108567"><ele>489.5</ele><time>2026-05-05T12:09:00.172Z</time></trkpt><trkpt lat="37.643415" lon="14.6106917"><ele>488.75</ele><time>2026-05-05T12:09:01.171Z</time></trkpt><trkpt lat="37.643375" lon="14.6105267"><ele>488.0</ele><time>2026-05-05T12:09:02.171Z</time></trkpt><trkpt lat="37.6433433" lon="14.61036"><ele>487.0</ele><time>2026-05-05T12:09:03.171Z</time></trkpt><trkpt lat="37.643325" lon="14.6101833"><ele>486.0</ele><time>2026-05-05T12:09:04.171Z</time></trkpt><trkpt lat="37.643315" lon="14.6100033"><ele>485.0</ele><time>2026-05-05T12:09:05.171Z</time></trkpt><trkpt lat="37.6433" lon="14.609845"><ele>484.0</ele><time>2026-05-05T12:09:06.171Z</time></trkpt><trkpt lat="37.64329" lon="14.60969"><ele>484.0</ele><time>2026-05-05T12:09:07.171Z</time></trkpt><trkpt lat="37.6432967" lon="14.6095367"><ele>484.0</ele><time>2026-05-05T12:09:08.171Z</time></trkpt><trkpt lat="37.6433233" lon="14.609395"><ele>484.0</ele><time>2026-05-05T12:09:09.171Z</time></trkpt><trkpt lat="37.643375" lon="14.6092633"><ele>484.0</ele><time>2026-05-05T12:09:10.171Z</time></trkpt><trkpt lat="37.643455" lon="14.6091483"><ele>484.0</ele><time>2026-05-05T12:09:11.171Z</time></trkpt><trkpt lat="37.6435417" lon="14.6090517"><ele>484.0</ele><time>2026-05-05T12:09:12.171Z</time></trkpt><trkpt lat="37.643615" lon="14.6089533"><ele>484.0</ele><time>2026-05-05T12:09:13.171Z</time></trkpt><trkpt lat="37.6436717" lon="14.60885"><ele>484.0</ele><time>2026-05-05T12:09:14.171Z</time></trkpt><trkpt lat="37.643685" lon="14.6087167"><ele>484.0</ele><time>2026-05-05T12:09:15.171Z</time></trkpt><trkpt lat="37.6436417" lon="14.6085767"><ele>482.0</ele><time>2026-05-05T12:09:16.171Z</time></trkpt><trkpt lat="37.64356" lon="14.6084567"><ele>480.0</ele><time>2026-05-05T12:09:17.172Z</time></trkpt><trkpt lat="37.6434567" lon="14.6083517"><ele>478.0</ele><time>2026-05-05T12:09:18.171Z</time></trkpt><trkpt lat="37.6433267" lon="14.608265"><ele>476.0</ele><time>2026-05-05T12:09:19.171Z</time></trkpt><trkpt lat="37.6431967" lon="14.6082017"><ele>476.0</ele><time>2026-05-05T12:09:20.171Z</time></trkpt><trkpt lat="37.6430583" lon="14.608155"><ele>476.0</ele><time>2026-05-05T12:09:21.171Z</time></trkpt><trkpt lat="37.6429233" lon="14.6081117"><ele>476.0</ele><time>2026-05-05T12:09:22.171Z</time></trkpt><trkpt lat="37.6427833" lon="14.6080833"><ele>476.0</ele><time>2026-05-05T12:09:23.171Z</time></trkpt><trkpt lat="37.6426517" lon="14.6080517"><ele>475.5</ele><time>2026-05-05T12:09:24.171Z</time></trkpt><trkpt lat="37.6425283" lon="14.6080183"><ele>475.0</ele><time>2026-05-05T12:09:25.171Z</time></trkpt><trkpt lat="37.64242" lon="14.6079733"><ele>474.5</ele><time>2026-05-05T12:09:26.172Z</time></trkpt><trkpt lat="37.6423317" lon="14.60791"><ele>474.0</ele><time>2026-05-05T12:09:27.172Z</time></trkpt><trkpt lat="37.6422433" lon="14.607815"><ele>472.25</ele><time>2026-05-05T12:09:28.171Z</time></trkpt><trkpt lat="37.6421533" lon="14.6076917"><ele>470.5</ele><time>2026-05-05T12:09:29.171Z</time></trkpt><trkpt lat="37.64207" lon="14.60755"><ele>468.75</ele><time>2026-05-05T12:09:30.171Z</time></trkpt><trkpt lat="37.6419967" lon="14.6074017"><ele>467.0</ele><time>2026-05-05T12:09:31.172Z</time></trkpt><trkpt lat="37.6419233" lon="14.6072383"><ele>466.5</ele><time>2026-05-05T12:09:32.171Z</time></trkpt><trkpt lat="37.6418508" lon="14.6070752"><ele>466.0</ele><time>2026-05-05T12:09:33.171Z</time></trkpt><trkpt lat="37.6417839" lon="14.6069084"><ele>465.5</ele><time>2026-05-05T12:09:34.171Z</time></trkpt><trkpt lat="37.6417152" lon="14.6067472"><ele>465.0</ele><time>2026-05-05T12:09:35.171Z</time></trkpt><trkpt lat="37.6416471" lon="14.6065954"><ele>465.0</ele><time>2026-05-05T12:09:36.171Z</time></trkpt><trkpt lat="37.6415734" lon="14.606451"><ele>465.0</ele><time>2026-05-05T12:09:37.171Z</time></trkpt><trkpt lat="37.6414961" lon="14.6063144"><ele>465.0</ele><time>2026-05-05T12:09:38.171Z</time></trkpt><trkpt lat="37.6414163" lon="14.6061842"><ele>465.0</ele><time>2026-05-05T12:09:39.171Z</time></trkpt><trkpt lat="37.6413334" lon="14.6060566"><ele>467.25</ele><time>2026-05-05T12:09:40.171Z</time></trkpt><trkpt lat="37.6412564" lon="14.6059382"><ele>469.5</ele><time>2026-05-05T12:09:41.171Z</time></trkpt><trkpt lat="37.641188" lon="14.6058165"><ele>471.75</ele><time>2026-05-05T12:09:42.171Z</time></trkpt><trkpt lat="37.6411321" lon="14.6056864"><ele>474.0</ele><time>2026-05-05T12:09:43.171Z</time></trkpt><trkpt lat="37.641093" lon="14.6055422"><ele>466.5</ele><time>2026-05-05T12:09:44.171Z</time></trkpt><trkpt lat="37.6410813" lon="14.6053877"><ele>459.0</ele><time>2026-05-05T12:09:45.171Z</time></trkpt><trkpt lat="37.6410861" lon="14.6052261"><ele>451.5</ele><time>2026-05-05T12:09:46.171Z</time></trkpt><trkpt lat="37.641102" lon="14.6050626"><ele>444.0</ele><time>2026-05-05T12:09:47.171Z</time></trkpt><trkpt lat="37.6411255" lon="14.6048932"><ele>448.0</ele><time>2026-05-05T12:09:48.171Z</time></trkpt><trkpt lat="37.6411649" lon="14.6047355"><ele>452.0</ele><time>2026-05-05T12:09:49.171Z</time></trkpt><trkpt lat="37.6412201" lon="14.604583"><ele>456.0</ele><time>2026-05-05T12:09:50.171Z</time></trkpt><trkpt lat="37.6412773" lon="14.6044364"><ele>460.0</ele><time>2026-05-05T12:09:51.171Z</time></trkpt><trkpt lat="37.6413383" lon="14.6043051"><ele>460.00000000000006</ele><time>2026-05-05T12:09:52.171Z</time></trkpt><trkpt lat="37.6413884" lon="14.6041823"><ele>460.0</ele><time>2026-05-05T12:09:53.171Z</time></trkpt><trkpt lat="37.6414302" lon="14.6040737"><ele>460.0</ele><time>2026-05-05T12:09:54.171Z</time></trkpt><trkpt lat="37.6414669" lon="14.6039862"><ele>460.0</ele><time>2026-05-05T12:09:55.171Z</time></trkpt><trkpt lat="37.6415062" lon="14.6038908"><ele>460.00000000000006</ele><time>2026-05-05T12:09:57.171Z</time></trkpt><trkpt lat="37.64151" lon="14.6038067"><ele>460.0</ele><time>2026-05-05T12:10:44.171Z</time></trkpt><trkpt lat="37.6415317" lon="14.6037183"><ele>456.0</ele><time>2026-05-05T12:10:45.171Z</time></trkpt><trkpt lat="37.641565" lon="14.60361"><ele>452.0</ele><time>2026-05-05T12:10:46.171Z</time></trkpt><trkpt lat="37.6416067" lon="14.603485"><ele>448.0</ele><time>2026-05-05T12:10:47.172Z</time></trkpt><trkpt lat="37.641655" lon="14.603345"><ele>444.0</ele><time>2026-05-05T12:10:48.171Z</time></trkpt><trkpt lat="37.6417117" lon="14.6031983"><ele>444.0</ele><time>2026-05-05T12:10:49.171Z</time></trkpt><trkpt lat="37.6417717" lon="14.6030367"><ele>444.0</ele><time>2026-05-05T12:10:50.171Z</time></trkpt><trkpt lat="37.6418133" lon="14.602855"><ele>444.0</ele><time>2026-05-05T12:10:51.171Z</time></trkpt><trkpt lat="37.6418367" lon="14.6026617"><ele>444.0</ele><time>2026-05-05T12:10:52.171Z</time></trkpt><trkpt lat="37.6418367" lon="14.6024567"><ele>441.66666666666663</ele><time>2026-05-05T12:10:53.172Z</time></trkpt><trkpt lat="37.6418383" lon="14.60225"><ele>439.3333333333333</ele><time>2026-05-05T12:10:54.171Z</time></trkpt><trkpt lat="37.641835" lon="14.60205"><ele>437.0</ele><time>2026-05-05T12:10:55.172Z</time></trkpt><trkpt lat="37.64183" lon="14.6018517"><ele>436.75</ele><time>2026-05-05T12:10:56.171Z</time></trkpt><trkpt lat="37.641825" lon="14.6016717"><ele>436.5</ele><time>2026-05-05T12:10:57.171Z</time></trkpt><trkpt lat="37.641805" lon="14.6014983"><ele>436.25</ele><time>2026-05-05T12:10:58.172Z</time></trkpt><trkpt lat="37.6417567" lon="14.6013467"><ele>436.0</ele><time>2026-05-05T12:10:59.171Z</time></trkpt><trkpt lat="37.64168" lon="14.6012183"><ele>435.75</ele><time>2026-05-05T12:11:00.172Z</time></trkpt><trkpt lat="37.641595" lon="14.6010983"><ele>435.5</ele><time>2026-05-05T12:11:01.171Z</time></trkpt><trkpt lat="37.64153" lon="14.6009667"><ele>435.25</ele><time>2026-05-05T12:11:02.171Z</time></trkpt><trkpt lat="37.6414967" lon="14.6008133"><ele>435.0</ele><time>2026-05-05T12:11:03.171Z</time></trkpt><trkpt lat="37.641505" lon="14.6006417"><ele>435.0</ele><time>2026-05-05T12:11:04.171Z</time></trkpt><trkpt lat="37.641535" lon="14.600475"><ele>435.0</ele><time>2026-05-05T12:11:05.171Z</time></trkpt><trkpt lat="37.6415867" lon="14.600295"><ele>435.0</ele><time>2026-05-05T12:11:06.171Z</time></trkpt><trkpt lat="37.6416383" lon="14.6001133"><ele>435.0</ele><time>2026-05-05T12:11:07.171Z</time></trkpt><trkpt lat="37.64169" lon="14.599925"><ele>436.33333333333337</ele><time>2026-05-05T12:11:08.172Z</time></trkpt><trkpt lat="37.64174" lon="14.5997367"><ele>437.6666666666667</ele><time>2026-05-05T12:11:09.171Z</time></trkpt><trkpt lat="37.6417917" lon="14.59954"><ele>439.0</ele><time>2026-05-05T12:11:10.171Z</time></trkpt><trkpt lat="37.641835" lon="14.59936"><ele>440.6666666666667</ele><time>2026-05-05T12:11:11.171Z</time></trkpt><trkpt lat="37.641865" lon="14.5991783"><ele>442.33333333333337</ele><time>2026-05-05T12:11:12.171Z</time></trkpt><trkpt lat="37.6418767" lon="14.59899"><ele>444.0</ele><time>2026-05-05T12:11:13.171Z</time></trkpt><trkpt lat="37.641865" lon="14.598795"><ele>443.33333333333337</ele><time>2026-05-05T12:11:14.171Z</time></trkpt><trkpt lat="37.6418167" lon="14.598615"><ele>442.6666666666667</ele><time>2026-05-05T12:11:15.172Z</time></trkpt><trkpt lat="37.6417417" lon="14.598445"><ele>442.0</ele><time>2026-05-05T12:11:16.171Z</time></trkpt><trkpt lat="37.6416667" lon="14.5982833"><ele>442.0</ele><time>2026-05-05T12:11:17.171Z</time></trkpt><trkpt lat="37.6415983" lon="14.5981033"><ele>442.0</ele><time>2026-05-05T12:11:18.171Z</time></trkpt><trkpt lat="37.641535" lon="14.5979233"><ele>442.0</ele><time>2026-05-05T12:11:19.171Z</time></trkpt><trkpt lat="37.64149" lon="14.5977517"><ele>441.75</ele><time>2026-05-05T12:11:20.172Z</time></trkpt><trkpt lat="37.64145" lon="14.5975933"><ele>441.5</ele><time>2026-05-05T12:11:21.171Z</time></trkpt><trkpt lat="37.6414183" lon="14.5974517"><ele>441.25</ele><time>2026-05-05T12:11:22.171Z</time></trkpt><trkpt lat="37.6414167" lon="14.5973083"><ele>441.0</ele><time>2026-05-05T12:11:23.171Z</time></trkpt><trkpt lat="37.6414633" lon="14.5971817"><ele>441.0</ele><time>2026-05-05T12:11:24.171Z</time></trkpt><trkpt lat="37.6415533" lon="14.5971017"><ele>441.0</ele><time>2026-05-05T12:11:25.171Z</time></trkpt><trkpt lat="37.6416783" lon="14.5970433"><ele>441.0</ele><time>2026-05-05T12:11:26.172Z</time></trkpt><trkpt lat="37.6418217" lon="14.59698"><ele>441.0</ele><time>2026-05-05T12:11:27.171Z</time></trkpt><trkpt lat="37.6419633" lon="14.5969017"><ele>444.0</ele><time>2026-05-05T12:11:28.171Z</time></trkpt><trkpt lat="37.64211" lon="14.5968183"><ele>447.0</ele><time>2026-05-05T12:11:29.171Z</time></trkpt><trkpt lat="37.6422667" lon="14.5967333"><ele>450.0</ele><time>2026-05-05T12:11:30.171Z</time></trkpt><trkpt lat="37.6424283" lon="14.5966433"><ele>450.0</ele><time>2026-05-05T12:11:31.171Z</time></trkpt><trkpt lat="37.6426017" lon="14.5965433"><ele>450.0</ele><time>2026-05-05T12:11:32.171Z</time></trkpt><trkpt lat="37.6427683" lon="14.59644"><ele>450.0</ele><time>2026-05-05T12:11:33.171Z</time></trkpt><trkpt lat="37.642925" lon="14.5963367"><ele>450.66666666666663</ele><time>2026-05-05T12:11:34.171Z</time></trkpt><trkpt lat="37.6430717" lon="14.5962517"><ele>451.3333333333333</ele><time>2026-05-05T12:11:35.171Z</time></trkpt><trkpt lat="37.6432133" lon="14.5961967"><ele>452.0</ele><time>2026-05-05T12:11:36.171Z</time></trkpt><trkpt lat="37.6433733" lon="14.5961933"><ele>452.0</ele><time>2026-05-05T12:11:37.171Z</time></trkpt><trkpt lat="37.64353" lon="14.5961833"><ele>452.0</ele><time>2026-05-05T12:11:38.172Z</time></trkpt><trkpt lat="37.6436867" lon="14.596145"><ele>452.0</ele><time>2026-05-05T12:11:39.171Z</time></trkpt><trkpt lat="37.6438433" lon="14.5960783"><ele>456.66666666666663</ele><time>2026-05-05T12:11:40.171Z</time></trkpt><trkpt lat="37.6439867" lon="14.595995"><ele>461.33333333333337</ele><time>2026-05-05T12:11:41.171Z</time></trkpt><trkpt lat="37.6441183" lon="14.5958883"><ele>466.0</ele><time>2026-05-05T12:11:42.171Z</time></trkpt><trkpt lat="37.6442267" lon="14.5957633"><ele>466.0</ele><time>2026-05-05T12:11:43.171Z</time></trkpt><trkpt lat="37.6443183" lon="14.5956117"><ele>466.0</ele><time>2026-05-05T12:11:44.171Z</time></trkpt><trkpt lat="37.6443983" lon="14.5954333"><ele>466.0</ele><time>2026-05-05T12:11:45.172Z</time></trkpt><trkpt lat="37.644465" lon="14.5952317"><ele>465.6666666666667</ele><time>2026-05-05T12:11:46.171Z</time></trkpt><trkpt lat="37.6445167" lon="14.59502"><ele>465.33333333333337</ele><time>2026-05-05T12:11:47.171Z</time></trkpt><trkpt lat="37.64456" lon="14.594805"><ele>465.0</ele><time>2026-05-05T12:11:48.171Z</time></trkpt><trkpt lat="37.6446083" lon="14.5945933"><ele>469.66666666666663</ele><time>2026-05-05T12:11:49.171Z</time></trkpt><trkpt lat="37.64468" lon="14.5943983"><ele>474.3333333333333</ele><time>2026-05-05T12:11:50.171Z</time></trkpt><trkpt lat="37.6447467" lon="14.5942"><ele>479.0</ele><time>2026-05-05T12:11:51.171Z</time></trkpt><trkpt lat="37.6447817" lon="14.593995"><ele>479.0</ele><time>2026-05-05T12:11:52.171Z</time></trkpt><trkpt lat="37.6447883" lon="14.593785"><ele>479.0</ele><time>2026-05-05T12:11:53.171Z</time></trkpt><trkpt lat="37.6447867" lon="14.593595"><ele>479.0</ele><time>2026-05-05T12:11:54.171Z</time></trkpt><trkpt lat="37.6447933" lon="14.5934233"><ele>479.75</ele><time>2026-05-05T12:11:55.171Z</time></trkpt><trkpt lat="37.64483" lon="14.5932683"><ele>480.5</ele><time>2026-05-05T12:11:56.171Z</time></trkpt><trkpt lat="37.644905" lon="14.593145"><ele>481.25</ele><time>2026-05-05T12:11:57.171Z</time></trkpt><trkpt lat="37.64502" lon="14.593075"><ele>482.0</ele><time>2026-05-05T12:11:58.171Z</time></trkpt><trkpt lat="37.64516" lon="14.5930267"><ele>483.0</ele><time>2026-05-05T12:11:59.171Z</time></trkpt><trkpt lat="37.6453" lon="14.5929633"><ele>484.0</ele><time>2026-05-05T12:12:00.171Z</time></trkpt><trkpt lat="37.64544" lon="14.5928767"><ele>485.0</ele><time>2026-05-05T12:12:01.171Z</time></trkpt><trkpt lat="37.6455917" lon="14.59279"><ele>480.3333333333333</ele><time>2026-05-05T12:12:02.172Z</time></trkpt><trkpt lat="37.6457383" lon="14.5927017"><ele>475.66666666666663</ele><time>2026-05-05T12:12:03.172Z</time></trkpt><trkpt lat="37.64589" lon="14.5926167"><ele>471.0</ele><time>2026-05-05T12:12:04.171Z</time></trkpt><trkpt lat="37.6460583" lon="14.59255"><ele>474.0</ele><time>2026-05-05T12:12:05.171Z</time></trkpt><trkpt lat="37.64623" lon="14.5925017"><ele>477.0</ele><time>2026-05-05T12:12:06.171Z</time></trkpt><trkpt lat="37.646395" lon="14.5924633"><ele>480.0</ele><time>2026-05-05T12:12:07.171Z</time></trkpt><trkpt lat="37.6465417" lon="14.592425"><ele>480.0</ele><time>2026-05-05T12:12:08.171Z</time></trkpt><trkpt lat="37.6466667" lon="14.5923583"><ele>480.0</ele><time>2026-05-05T12:12:09.171Z</time></trkpt><trkpt lat="37.6467683" lon="14.5922417"><ele>480.0</ele><time>2026-05-05T12:12:10.17Z</time></trkpt><trkpt lat="37.6468433" lon="14.592095"><ele>480.0</ele><time>2026-05-05T12:12:11.171Z</time></trkpt><trkpt lat="37.6468917" lon="14.5919383"><ele>479.25</ele><time>2026-05-05T12:12:12.17Z</time></trkpt><trkpt lat="37.646965" lon="14.591785"><ele>478.5</ele><time>2026-05-05T12:12:13.17Z</time></trkpt><trkpt lat="37.6470683" lon="14.5916617"><ele>477.75</ele><time>2026-05-05T12:12:14.17Z</time></trkpt><trkpt lat="37.6472117" lon="14.5915817"><ele>477.0</ele><time>2026-05-05T12:12:15.171Z</time></trkpt><trkpt lat="37.6473467" lon="14.591515"><ele>477.0</ele><time>2026-05-05T12:12:16.17Z</time></trkpt><trkpt lat="37.6474617" lon="14.5914133"><ele>477.0</ele><time>2026-05-05T12:12:17.17Z</time></trkpt><trkpt lat="37.64755" lon="14.5912617"><ele>477.0</ele><time>2026-05-05T12:12:18.17Z</time></trkpt><trkpt lat="37.6476133" lon="14.59107"><ele>472.33333333333337</ele><time>2026-05-05T12:12:19.17Z</time></trkpt><trkpt lat="37.6476433" lon="14.59086"><ele>467.6666666666667</ele><time>2026-05-05T12:12:20.17Z</time></trkpt><trkpt lat="37.6476717" lon="14.5906433"><ele>463.0</ele><time>2026-05-05T12:12:21.17Z</time></trkpt><trkpt lat="37.647705" lon="14.59043"><ele>459.33333333333337</ele><time>2026-05-05T12:12:22.17Z</time></trkpt><trkpt lat="37.64774" lon="14.5902083"><ele>455.66666666666663</ele><time>2026-05-05T12:12:23.17Z</time></trkpt><trkpt lat="37.64778" lon="14.589995"><ele>452.0</ele><time>2026-05-05T12:12:24.17Z</time></trkpt><trkpt lat="37.6478317" lon="14.5897983"><ele>452.25</ele><time>2026-05-05T12:12:25.17Z</time></trkpt><trkpt lat="37.647895" lon="14.5896283"><ele>452.5</ele><time>2026-05-05T12:12:26.171Z</time></trkpt><trkpt lat="37.64796" lon="14.5894717"><ele>452.75</ele><time>2026-05-05T12:12:27.171Z</time></trkpt><trkpt lat="37.648005" lon="14.58932"><ele>453.0</ele><time>2026-05-05T12:12:28.17Z</time></trkpt><trkpt lat="37.648015" lon="14.5891733"><ele>453.0</ele><time>2026-05-05T12:12:29.17Z</time></trkpt><trkpt lat="37.6479883" lon="14.5890317"><ele>453.0</ele><time>2026-05-05T12:12:30.17Z</time></trkpt><trkpt lat="37.64794" lon="14.5889"><ele>453.0</ele><time>2026-05-05T12:12:31.17Z</time></trkpt><trkpt lat="37.6478867" lon="14.5887617"><ele>453.0</ele><time>2026-05-05T12:12:32.17Z</time></trkpt><trkpt lat="37.6478567" lon="14.5886433"><ele>452.59999999999997</ele><time>2026-05-05T12:12:33.17Z</time></trkpt><trkpt lat="37.6478583" lon="14.588535"><ele>452.19999999999993</ele><time>2026-05-05T12:12:34.17Z</time></trkpt><trkpt lat="37.6478967" lon="14.5884583"><ele>451.8</ele><time>2026-05-05T12:12:35.17Z</time></trkpt><trkpt lat="37.6479583" lon="14.5884217"><ele>451.4</ele><time>2026-05-05T12:12:36.17Z</time></trkpt><trkpt lat="37.6480333" lon="14.5884583"><ele>451.0</ele><time>2026-05-05T12:12:37.17Z</time></trkpt><trkpt lat="37.6481283" lon="14.5886033"><ele>451.5</ele><time>2026-05-05T12:12:38.17Z</time></trkpt><trkpt lat="37.6482033" lon="14.588745"><ele>452.0</ele><time>2026-05-05T12:12:39.17Z</time></trkpt><trkpt lat="37.6482833" lon="14.5888883"><ele>452.5</ele><time>2026-05-05T12:12:40.17Z</time></trkpt><trkpt lat="37.6483583" lon="14.589005"><ele>453.0</ele><time>2026-05-05T12:12:41.171Z</time></trkpt><trkpt lat="37.6484317" lon="14.5890967"><ele>453.0</ele><time>2026-05-05T12:12:42.17Z</time></trkpt><trkpt lat="37.64851" lon="14.58916"><ele>453.0</ele><time>2026-05-05T12:12:43.171Z</time></trkpt><trkpt lat="37.6485867" lon="14.5891717"><ele>453.0</ele><time>2026-05-05T12:12:44.17Z</time></trkpt><trkpt lat="37.648665" lon="14.589145"><ele>453.0</ele><time>2026-05-05T12:12:45.17Z</time></trkpt><trkpt lat="37.6487117" lon="14.589065"><ele>453.0</ele><time>2026-05-05T12:12:46.17Z</time></trkpt><trkpt lat="37.6487133" lon="14.58894"><ele>453.0</ele><time>2026-05-05T12:12:47.17Z</time></trkpt><trkpt lat="37.6486933" lon="14.5887717"><ele>446.0</ele><time>2026-05-05T12:12:48.171Z</time></trkpt><trkpt lat="37.64866" lon="14.5885533"><ele>439.0</ele><time>2026-05-05T12:12:49.17Z</time></trkpt><trkpt lat="37.6486483" lon="14.58834"><ele>432.0</ele><time>2026-05-05T12:12:50.171Z</time></trkpt><trkpt lat="37.64866" lon="14.5881283"><ele>432.0</ele><time>2026-05-05T12:12:51.17Z</time></trkpt><trkpt lat="37.6486933" lon="14.58791"><ele>432.0</ele><time>2026-05-05T12:12:52.17Z</time></trkpt><trkpt lat="37.6487317" lon="14.5876883"><ele>432.0</ele><time>2026-05-05T12:12:53.17Z</time></trkpt><trkpt lat="37.6487767" lon="14.5874733"><ele>431.33333333333337</ele><time>2026-05-05T12:12:54.17Z</time></trkpt><trkpt lat="37.6487983" lon="14.58726"><ele>430.6666666666667</ele><time>2026-05-05T12:12:55.17Z</time></trkpt><trkpt lat="37.6488217" lon="14.58706"><ele>430.0</ele><time>2026-05-05T12:12:56.17Z</time></trkpt><trkpt lat="37.6488467" lon="14.586855"><ele>430.0</ele><time>2026-05-05T12:12:57.17Z</time></trkpt><trkpt lat="37.6488867" lon="14.5866433"><ele>430.0</ele><time>2026-05-05T12:12:58.17Z</time></trkpt><trkpt lat="37.6489517" lon="14.586445"><ele>430.0</ele><time>2026-05-05T12:12:59.17Z</time></trkpt><trkpt lat="37.649035" lon="14.5862617"><ele>431.0</ele><time>2026-05-05T12:13:00.17Z</time></trkpt><trkpt lat="37.6491267" lon="14.5860817"><ele>432.0</ele><time>2026-05-05T12:13:01.17Z</time></trkpt><trkpt lat="37.6491983" lon="14.5858833"><ele>433.0</ele><time>2026-05-05T12:13:02.17Z</time></trkpt><trkpt lat="37.6492433" lon="14.58567"><ele>433.0</ele><time>2026-05-05T12:13:03.17Z</time></trkpt><trkpt lat="37.649265" lon="14.5854583"><ele>433.0</ele><time>2026-05-05T12:13:04.17Z</time></trkpt><trkpt lat="37.6493133" lon="14.585245"><ele>433.0</ele><time>2026-05-05T12:13:05.17Z</time></trkpt><trkpt lat="37.6493683" lon="14.5850167"><ele>433.33333333333337</ele><time>2026-05-05T12:13:06.17Z</time></trkpt><trkpt lat="37.6494483" lon="14.5848033"><ele>433.66666666666663</ele><time>2026-05-05T12:13:07.17Z</time></trkpt><trkpt lat="37.6495233" lon="14.5845917"><ele>434.0</ele><time>2026-05-05T12:13:08.17Z</time></trkpt><trkpt lat="37.6495867" lon="14.5843767"><ele>434.0</ele><time>2026-05-05T12:13:09.17Z</time></trkpt><trkpt lat="37.6496267" lon="14.584155"><ele>434.0</ele><time>2026-05-05T12:13:10.17Z</time></trkpt><trkpt lat="37.6496433" lon="14.5839233"><ele>434.0</ele><time>2026-05-05T12:13:11.17Z</time></trkpt><trkpt lat="37.649655" lon="14.5836917"><ele>430.66666666666663</ele><time>2026-05-05T12:13:12.17Z</time></trkpt><trkpt lat="37.649655" lon="14.5834683"><ele>427.33333333333337</ele><time>2026-05-05T12:13:13.17Z</time></trkpt><trkpt lat="37.64965" lon="14.58326"><ele>424.0</ele><time>2026-05-05T12:13:14.17Z</time></trkpt><trkpt lat="37.6496467" lon="14.58305"><ele>424.0</ele><time>2026-05-05T12:13:15.17Z</time></trkpt><trkpt lat="37.649635" lon="14.582855"><ele>424.0</ele><time>2026-05-05T12:13:16.17Z</time></trkpt><trkpt lat="37.6496183" lon="14.582675"><ele>424.0</ele><time>2026-05-05T12:13:17.17Z</time></trkpt><trkpt lat="37.64959" lon="14.58251"><ele>424.0</ele><time>2026-05-05T12:13:18.17Z</time></trkpt><trkpt lat="37.6495433" lon="14.5823633"><ele>424.00000000000006</ele><time>2026-05-05T12:13:19.17Z</time></trkpt><trkpt lat="37.6494917" lon="14.5822417"><ele>424.0</ele><time>2026-05-05T12:13:20.17Z</time></trkpt><trkpt lat="37.64945" lon="14.5821267"><ele>424.0</ele><time>2026-05-05T12:13:21.17Z</time></trkpt><trkpt lat="37.649445" lon="14.5820183"><ele>424.0</ele><time>2026-05-05T12:13:22.17Z</time></trkpt><trkpt lat="37.6494817" lon="14.5819317"><ele>424.00000000000006</ele><time>2026-05-05T12:13:23.17Z</time></trkpt><trkpt lat="37.64954" lon="14.58188"><ele>424.0</ele><time>2026-05-05T12:13:24.171Z</time></trkpt><trkpt lat="37.64961" lon="14.58188"><ele>424.0</ele><time>2026-05-05T12:13:25.17Z</time></trkpt><trkpt lat="37.6497233" lon="14.5819367"><ele>424.0</ele><time>2026-05-05T12:13:26.17Z</time></trkpt><trkpt lat="37.6498533" lon="14.5820083"><ele>424.0</ele><time>2026-05-05T12:13:27.17Z</time></trkpt><trkpt lat="37.6499833" lon="14.58204"><ele>424.0</ele><time>2026-05-05T12:13:28.17Z</time></trkpt><trkpt lat="37.6501" lon="14.5820233"><ele>426.79999999999995</ele><time>2026-05-05T12:13:29.17Z</time></trkpt><trkpt lat="37.650195" lon="14.58197"><ele>429.59999999999997</ele><time>2026-05-05T12:13:30.17Z</time></trkpt><trkpt lat="37.650245" lon="14.5818767"><ele>432.4</ele><time>2026-05-05T12:13:31.17Z</time></trkpt><trkpt lat="37.6502533" lon="14.5817633"><ele>435.2</ele><time>2026-05-05T12:13:32.17Z</time></trkpt><trkpt lat="37.6502183" lon="14.5816667"><ele>438.0</ele><time>2026-05-05T12:13:33.17Z</time></trkpt><trkpt lat="37.650105" lon="14.5815867"><ele>438.0</ele><time>2026-05-05T12:13:34.17Z</time></trkpt><trkpt lat="37.6499833" lon="14.5815383"><ele>438.0</ele><time>2026-05-05T12:13:35.17Z</time></trkpt><trkpt lat="37.6498533" lon="14.5814917"><ele>438.0</ele><time>2026-05-05T12:13:36.17Z</time></trkpt><trkpt lat="37.64974" lon="14.5814267"><ele>438.0</ele><time>2026-05-05T12:13:37.17Z</time></trkpt><trkpt lat="37.649665" lon="14.5813267"><ele>438.0</ele><time>2026-05-05T12:13:38.17Z</time></trkpt><trkpt lat="37.6496283" lon="14.5811983"><ele>438.0</ele><time>2026-05-05T12:13:39.17Z</time></trkpt><trkpt lat="37.6496283" lon="14.58105"><ele>438.0</ele><time>2026-05-05T12:13:40.17Z</time></trkpt><trkpt lat="37.6496733" lon="14.5809033"><ele>438.0</ele><time>2026-05-05T12:13:41.17Z</time></trkpt><trkpt lat="37.6497633" lon="14.58077"><ele>441.66666666666663</ele><time>2026-05-05T12:13:42.17Z</time></trkpt><trkpt lat="37.64989" lon="14.58065"><ele>445.3333333333333</ele><time>2026-05-05T12:13:43.17Z</time></trkpt><trkpt lat="37.6500267" lon="14.5805483"><ele>449.0</ele><time>2026-05-05T12:13:44.17Z</time></trkpt><trkpt lat="37.6501367" lon="14.58043"><ele>453.3333333333333</ele><time>2026-05-05T12:13:45.17Z</time></trkpt><trkpt lat="37.6502067" lon="14.580265"><ele>457.66666666666663</ele><time>2026-05-05T12:13:46.17Z</time></trkpt><trkpt lat="37.650245" lon="14.5800583"><ele>462.0</ele><time>2026-05-05T12:13:47.17Z</time></trkpt><trkpt lat="37.650285" lon="14.5798483"><ele>463.33333333333337</ele><time>2026-05-05T12:13:48.17Z</time></trkpt><trkpt lat="37.6503367" lon="14.5796417"><ele>464.6666666666667</ele><time>2026-05-05T12:13:49.17Z</time></trkpt><trkpt lat="37.65041" lon="14.5794483"><ele>466.0</ele><time>2026-05-05T12:13:50.17Z</time></trkpt><trkpt lat="37.65049" lon="14.579275"><ele>466.0</ele><time>2026-05-05T12:13:51.17Z</time></trkpt><trkpt lat="37.6505617" lon="14.5791117"><ele>466.0</ele><time>2026-05-05T12:13:52.171Z</time></trkpt><trkpt lat="37.6506133" lon="14.57893"><ele>466.0</ele><time>2026-05-05T12:13:53.17Z</time></trkpt><trkpt lat="37.650625" lon="14.5787367"><ele>468.33333333333337</ele><time>2026-05-05T12:13:54.17Z</time></trkpt><trkpt lat="37.6506117" lon="14.5785267"><ele>470.66666666666663</ele><time>2026-05-05T12:13:55.17Z</time></trkpt><trkpt lat="37.6506033" lon="14.57833"><ele>473.0</ele><time>2026-05-05T12:13:56.17Z</time></trkpt><trkpt lat="37.6506033" lon="14.5781367"><ele>473.0</ele><time>2026-05-05T12:13:57.17Z</time></trkpt><trkpt lat="37.6506283" lon="14.5779483"><ele>473.0</ele><time>2026-05-05T12:13:58.17Z</time></trkpt><trkpt lat="37.650675" lon="14.57775"><ele>473.0</ele><time>2026-05-05T12:13:59.17Z</time></trkpt><trkpt lat="37.6507317" lon="14.5775383"><ele>472.0</ele><time>2026-05-05T12:14:00.17Z</time></trkpt><trkpt lat="37.6508" lon="14.5773183"><ele>471.0</ele><time>2026-05-05T12:14:01.17Z</time></trkpt><trkpt lat="37.6508867" lon="14.5771183"><ele>470.0</ele><time>2026-05-05T12:14:02.17Z</time></trkpt><trkpt lat="37.650995" lon="14.5769267"><ele>468.66666666666663</ele><time>2026-05-05T12:14:03.171Z</time></trkpt><trkpt lat="37.6510867" lon="14.5767283"><ele>467.33333333333337</ele><time>2026-05-05T12:14:04.17Z</time></trkpt><trkpt lat="37.6511583" lon="14.5765117"><ele>466.0</ele><time>2026-05-05T12:14:05.171Z</time></trkpt><trkpt lat="37.651205" lon="14.5763033"><ele>466.0</ele><time>2026-05-05T12:14:06.17Z</time></trkpt><trkpt lat="37.65125" lon="14.5760933"><ele>466.0</ele><time>2026-05-05T12:14:07.17Z</time></trkpt><trkpt lat="37.6513033" lon="14.5758867"><ele>466.0</ele><time>2026-05-05T12:14:08.171Z</time></trkpt><trkpt lat="37.6513717" lon="14.5756867"><ele>466.0</ele><time>2026-05-05T12:14:09.17Z</time></trkpt><trkpt lat="37.6514483" lon="14.5755017"><ele>466.0</ele><time>2026-05-05T12:14:10.17Z</time></trkpt><trkpt lat="37.6515133" lon="14.575325"><ele>466.0</ele><time>2026-05-05T12:14:11.17Z</time></trkpt><trkpt lat="37.6515717" lon="14.5751567"><ele>466.33333333333337</ele><time>2026-05-05T12:14:12.17Z</time></trkpt><trkpt lat="37.6516183" lon="14.5749717"><ele>466.66666666666663</ele><time>2026-05-05T12:14:13.17Z</time></trkpt><trkpt lat="37.6516483" lon="14.5747733"><ele>467.0</ele><time>2026-05-05T12:14:14.17Z</time></trkpt><trkpt lat="37.65164" lon="14.5745533"><ele>464.66666666666663</ele><time>2026-05-05T12:14:15.17Z</time></trkpt><trkpt lat="37.6516133" lon="14.574325"><ele>462.33333333333337</ele><time>2026-05-05T12:14:16.171Z</time></trkpt><trkpt lat="37.6515817" lon="14.574105"><ele>460.0</ele><time>2026-05-05T12:14:17.17Z</time></trkpt><trkpt lat="37.651565" lon="14.57389"><ele>460.33333333333337</ele><time>2026-05-05T12:14:18.17Z</time></trkpt><trkpt lat="37.6515533" lon="14.57367"><ele>460.66666666666663</ele><time>2026-05-05T12:14:19.17Z</time></trkpt><trkpt lat="37.65154" lon="14.57344"><ele>461.0</ele><time>2026-05-05T12:14:20.17Z</time></trkpt><trkpt lat="37.6515483" lon="14.5732167"><ele>461.0</ele><time>2026-05-05T12:14:21.17Z</time></trkpt><trkpt lat="37.6515667" lon="14.573"><ele>461.0</ele><time>2026-05-05T12:14:22.17Z</time></trkpt><trkpt lat="37.6515767" lon="14.5727783"><ele>461.0</ele><time>2026-05-05T12:14:23.17Z</time></trkpt><trkpt lat="37.6515983" lon="14.57256"><ele>459.3333333333333</ele><time>2026-05-05T12:14:24.17Z</time></trkpt><trkpt lat="37.6516217" lon="14.5723333"><ele>457.66666666666663</ele><time>2026-05-05T12:14:25.17Z</time></trkpt><trkpt lat="37.6516617" lon="14.5721117"><ele>456.0</ele><time>2026-05-05T12:14:26.17Z</time></trkpt><trkpt lat="37.651705" lon="14.5718867"><ele>455.0</ele><time>2026-05-05T12:14:27.17Z</time></trkpt><trkpt lat="37.6517517" lon="14.57167"><ele>454.0</ele><time>2026-05-05T12:14:28.17Z</time></trkpt><trkpt lat="37.6517933" lon="14.5714583"><ele>453.0</ele><time>2026-05-05T12:14:29.17Z</time></trkpt><trkpt lat="37.65184" lon="14.5712533"><ele>453.0</ele><time>2026-05-05T12:14:30.17Z</time></trkpt><trkpt lat="37.651895" lon="14.571045"><ele>453.0</ele><time>2026-05-05T12:14:31.17Z</time></trkpt><trkpt lat="37.65196" lon="14.57084"><ele>453.0</ele><time>2026-05-05T12:14:32.17Z</time></trkpt><trkpt lat="37.6520283" lon="14.57064"><ele>452.0</ele><time>2026-05-05T12:14:33.17Z</time></trkpt><trkpt lat="37.6520883" lon="14.57045"><ele>451.0</ele><time>2026-05-05T12:14:34.17Z</time></trkpt><trkpt lat="37.652155" lon="14.5702683"><ele>450.0</ele><time>2026-05-05T12:14:35.17Z</time></trkpt><trkpt lat="37.652235" lon="14.5701017"><ele>450.0</ele><time>2026-05-05T12:14:36.17Z</time></trkpt><trkpt lat="37.65234" lon="14.5699517"><ele>450.0</ele><time>2026-05-05T12:14:37.17Z</time></trkpt><trkpt lat="37.6524617" lon="14.5698367"><ele>450.0</ele><time>2026-05-05T12:14:38.17Z</time></trkpt><trkpt lat="37.6526" lon="14.5697483"><ele>450.0</ele><time>2026-05-05T12:14:39.17Z</time></trkpt><trkpt lat="37.65274" lon="14.5696717"><ele>450.0</ele><time>2026-05-05T12:14:40.17Z</time></trkpt><trkpt lat="37.65287" lon="14.5695883"><ele>450.0</ele><time>2026-05-05T12:14:41.17Z</time></trkpt><trkpt lat="37.6529767" lon="14.56949"><ele>450.0</ele><time>2026-05-05T12:14:42.17Z</time></trkpt><trkpt lat="37.6530517" lon="14.5693717"><ele>450.75</ele><time>2026-05-05T12:14:43.17Z</time></trkpt><trkpt lat="37.6531" lon="14.5692283"><ele>451.5</ele><time>2026-05-05T12:14:44.17Z</time></trkpt><trkpt lat="37.6531183" lon="14.56906"><ele>452.25</ele><time>2026-05-05T12:14:45.17Z</time></trkpt><trkpt lat="37.65313" lon="14.56887"><ele>453.0</ele><time>2026-05-05T12:14:46.17Z</time></trkpt><trkpt lat="37.653135" lon="14.5686683"><ele>453.33333333333337</ele><time>2026-05-05T12:14:47.17Z</time></trkpt><trkpt lat="37.65314" lon="14.56847"><ele>453.6666666666667</ele><time>2026-05-05T12:14:48.17Z</time></trkpt><trkpt lat="37.6531533" lon="14.5682617"><ele>454.0</ele><time>2026-05-05T12:14:49.17Z</time></trkpt><trkpt lat="37.6531667" lon="14.5680383"><ele>454.33333333333337</ele><time>2026-05-05T12:14:50.17Z</time></trkpt><trkpt lat="37.65318" lon="14.5678033"><ele>454.66666666666663</ele><time>2026-05-05T12:14:51.17Z</time></trkpt><trkpt lat="37.6531983" lon="14.56757"><ele>455.0</ele><time>2026-05-05T12:14:52.171Z</time></trkpt><trkpt lat="37.653225" lon="14.567335"><ele>455.0</ele><time>2026-05-05T12:14:53.17Z</time></trkpt><trkpt lat="37.6532633" lon="14.5670967"><ele>455.0</ele><time>2026-05-05T12:14:54.17Z</time></trkpt><trkpt lat="37.6533133" lon="14.5668683"><ele>455.0</ele><time>2026-05-05T12:14:55.171Z</time></trkpt><trkpt lat="37.65336" lon="14.56664"><ele>455.3333333333333</ele><time>2026-05-05T12:14:56.17Z</time></trkpt><trkpt lat="37.6534067" lon="14.5664233"><ele>455.66666666666663</ele><time>2026-05-05T12:14:57.17Z</time></trkpt><trkpt lat="37.653435" lon="14.5662217"><ele>456.0</ele><time>2026-05-05T12:14:58.171Z</time></trkpt><trkpt lat="37.65342" lon="14.5660217"><ele>456.0</ele><time>2026-05-05T12:14:59.17Z</time></trkpt><trkpt lat="37.6533683" lon="14.56583"><ele>456.0</ele><time>2026-05-05T12:15:00.17Z</time></trkpt><trkpt lat="37.6532833" lon="14.5656567"><ele>456.0</ele><time>2026-05-05T12:15:01.17Z</time></trkpt><trkpt lat="37.6531867" lon="14.565455"><ele>453.66666666666663</ele><time>2026-05-05T12:15:02.17Z</time></trkpt><trkpt lat="37.6531217" lon="14.5652383"><ele>451.3333333333333</ele><time>2026-05-05T12:15:03.17Z</time></trkpt><trkpt lat="37.6531" lon="14.5650117"><ele>449.0</ele><time>2026-05-05T12:15:04.17Z</time></trkpt><trkpt lat="37.6530883" lon="14.5647983"><ele>449.0</ele><time>2026-05-05T12:15:05.17Z</time></trkpt><trkpt lat="37.6530633" lon="14.5645967"><ele>449.0</ele><time>2026-05-05T12:15:06.17Z</time></trkpt><trkpt lat="37.6530117" lon="14.564425"><ele>449.0</ele><time>2026-05-05T12:15:07.17Z</time></trkpt><trkpt lat="37.652915" lon="14.56428"><ele>449.3333333333333</ele><time>2026-05-05T12:15:08.17Z</time></trkpt><trkpt lat="37.6527783" lon="14.5641433"><ele>449.66666666666663</ele><time>2026-05-05T12:15:09.17Z</time></trkpt><trkpt lat="37.652635" lon="14.5640017"><ele>450.0</ele><time>2026-05-05T12:15:10.17Z</time></trkpt><trkpt lat="37.6524917" lon="14.5638517"><ele>449.66666666666663</ele><time>2026-05-05T12:15:11.17Z</time></trkpt><trkpt lat="37.65235" lon="14.5636967"><ele>449.3333333333333</ele><time>2026-05-05T12:15:12.17Z</time></trkpt><trkpt lat="37.6522233" lon="14.5635233"><ele>449.0</ele><time>2026-05-05T12:15:13.17Z</time></trkpt><trkpt lat="37.652095" lon="14.5633283"><ele>449.0</ele><time>2026-05-05T12:15:14.17Z</time></trkpt><trkpt lat="37.651965" lon="14.5631183"><ele>449.0</ele><time>2026-05-05T12:15:15.17Z</time></trkpt><trkpt lat="37.6518317" lon="14.5629117"><ele>449.0</ele><time>2026-05-05T12:15:16.17Z</time></trkpt><trkpt lat="37.6516933" lon="14.562715"><ele>448.3333333333333</ele><time>2026-05-05T12:15:17.17Z</time></trkpt><trkpt lat="37.6515583" lon="14.5625217"><ele>447.66666666666663</ele><time>2026-05-05T12:15:18.17Z</time></trkpt><trkpt lat="37.6514217" lon="14.56233"><ele>447.0</ele><time>2026-05-05T12:15:19.17Z</time></trkpt><trkpt lat="37.6512933" lon="14.5621567"><ele>445.66666666666663</ele><time>2026-05-05T12:15:20.171Z</time></trkpt><trkpt lat="37.651165" lon="14.5619783"><ele>444.3333333333333</ele><time>2026-05-05T12:15:21.17Z</time></trkpt><trkpt lat="37.6510483" lon="14.5618017"><ele>443.0</ele><time>2026-05-05T12:15:22.17Z</time></trkpt><trkpt lat="37.6509467" lon="14.5616033"><ele>443.0</ele><time>2026-05-05T12:15:23.17Z</time></trkpt><trkpt lat="37.65087" lon="14.5613883"><ele>443.0</ele><time>2026-05-05T12:15:24.171Z</time></trkpt><trkpt lat="37.65082" lon="14.56115"><ele>443.0</ele><time>2026-05-05T12:15:25.171Z</time></trkpt><trkpt lat="37.6508033" lon="14.560895"><ele>443.3333333333333</ele><time>2026-05-05T12:15:26.17Z</time></trkpt><trkpt lat="37.65081" lon="14.560645"><ele>443.66666666666663</ele><time>2026-05-05T12:15:27.17Z</time></trkpt><trkpt lat="37.65082" lon="14.5603917"><ele>444.0</ele><time>2026-05-05T12:15:28.17Z</time></trkpt><trkpt lat="37.650825" lon="14.5601317"><ele>444.0</ele><time>2026-05-05T12:15:29.17Z</time></trkpt><trkpt lat="37.65083" lon="14.559865"><ele>444.0</ele><time>2026-05-05T12:15:30.17Z</time></trkpt><trkpt lat="37.6508267" lon="14.5596033"><ele>444.0</ele><time>2026-05-05T12:15:31.17Z</time></trkpt><trkpt lat="37.6508083" lon="14.5593333"><ele>445.0</ele><time>2026-05-05T12:15:32.17Z</time></trkpt><trkpt lat="37.65079" lon="14.5590667"><ele>446.0</ele><time>2026-05-05T12:15:33.17Z</time></trkpt><trkpt lat="37.650775" lon="14.5588167"><ele>447.0</ele><time>2026-05-05T12:15:34.171Z</time></trkpt><trkpt lat="37.65075" lon="14.55858"><ele>448.33333333333337</ele><time>2026-05-05T12:15:35.17Z</time></trkpt><trkpt lat="37.6507433" lon="14.55835"><ele>449.6666666666667</ele><time>2026-05-05T12:15:36.17Z</time></trkpt><trkpt lat="37.6507683" lon="14.5581167"><ele>451.0</ele><time>2026-05-05T12:15:37.17Z</time></trkpt><trkpt lat="37.65081" lon="14.5578867"><ele>450.6666666666667</ele><time>2026-05-05T12:15:38.17Z</time></trkpt><trkpt lat="37.6508683" lon="14.5576483"><ele>450.33333333333337</ele><time>2026-05-05T12:15:39.171Z</time></trkpt><trkpt lat="37.650935" lon="14.557405"><ele>450.0</ele><time>2026-05-05T12:15:40.171Z</time></trkpt><trkpt lat="37.6510067" lon="14.5571583"><ele>450.66666666666663</ele><time>2026-05-05T12:15:41.17Z</time></trkpt><trkpt lat="37.6510833" lon="14.5569183"><ele>451.3333333333333</ele><time>2026-05-05T12:15:42.17Z</time></trkpt><trkpt lat="37.6511567" lon="14.5566833"><ele>452.0</ele><time>2026-05-05T12:15:43.17Z</time></trkpt><trkpt lat="37.6512417" lon="14.55645"><ele>452.3333333333333</ele><time>2026-05-05T12:15:44.17Z</time></trkpt><trkpt lat="37.6513317" lon="14.5562233"><ele>452.66666666666663</ele><time>2026-05-05T12:15:45.17Z</time></trkpt><trkpt lat="37.6514167" lon="14.5560017"><ele>453.0</ele><time>2026-05-05T12:15:46.17Z</time></trkpt><trkpt lat="37.651485" lon="14.5558"><ele>453.0</ele><time>2026-05-05T12:15:47.17Z</time></trkpt><trkpt lat="37.6515583" lon="14.5556267"><ele>453.0</ele><time>2026-05-05T12:15:48.17Z</time></trkpt><trkpt lat="37.6516467" lon="14.555475"><ele>453.0</ele><time>2026-05-05T12:15:49.17Z</time></trkpt><trkpt lat="37.6517567" lon="14.5553333"><ele>456.0</ele><time>2026-05-05T12:15:50.17Z</time></trkpt><trkpt lat="37.6518917" lon="14.5552167"><ele>459.0</ele><time>2026-05-05T12:15:51.171Z</time></trkpt><trkpt lat="37.6520217" lon="14.555095"><ele>462.0</ele><time>2026-05-05T12:15:52.17Z</time></trkpt><trkpt lat="37.6521533" lon="14.5549717"><ele>462.0</ele><time>2026-05-05T12:15:53.17Z</time></trkpt><trkpt lat="37.6522867" lon="14.5548633"><ele>462.0</ele><time>2026-05-05T12:15:54.171Z</time></trkpt><trkpt lat="37.652395" lon="14.55477"><ele>462.0</ele><time>2026-05-05T12:15:55.171Z</time></trkpt><trkpt lat="37.652485" lon="14.5546933"><ele>462.0</ele><time>2026-05-05T12:15:56.171Z</time></trkpt><trkpt lat="37.6525433" lon="14.55462"><ele>465.40000000000003</ele><time>2026-05-05T12:15:57.17Z</time></trkpt><trkpt lat="37.652565" lon="14.5545217"><ele>468.80000000000007</ele><time>2026-05-05T12:15:58.17Z</time></trkpt><trkpt lat="37.6525467" lon="14.554435"><ele>472.2</ele><time>2026-05-05T12:15:59.171Z</time></trkpt><trkpt lat="37.652415" lon="14.5543767"><ele>475.6</ele><time>2026-05-05T12:16:01.17Z</time></trkpt><trkpt lat="37.6523333" lon="14.5544133"><ele>479.0</ele><time>2026-05-05T12:16:02.17Z</time></trkpt><trkpt lat="37.6522283" lon="14.5544617"><ele>479.0</ele><time>2026-05-05T12:16:03.17Z</time></trkpt><trkpt lat="37.652105" lon="14.5544983"><ele>479.0</ele><time>2026-05-05T12:16:04.17Z</time></trkpt><trkpt lat="37.6519717" lon="14.5544983"><ele>479.0</ele><time>2026-05-05T12:16:05.17Z</time></trkpt><trkpt lat="37.651855" lon="14.554455"><ele>479.0</ele><time>2026-05-05T12:16:06.17Z</time></trkpt><trkpt lat="37.6517517" lon="14.5543867"><ele>479.49999999999994</ele><time>2026-05-05T12:16:07.17Z</time></trkpt><trkpt lat="37.6516733" lon="14.554305"><ele>480.0</ele><time>2026-05-05T12:16:08.17Z</time></trkpt><trkpt lat="37.651635" lon="14.5542133"><ele>480.5</ele><time>2026-05-05T12:16:09.17Z</time></trkpt><trkpt lat="37.6516367" lon="14.55412"><ele>481.0</ele><time>2026-05-05T12:16:10.17Z</time></trkpt><trkpt lat="37.6516683" lon="14.55404"><ele>481.49999999999994</ele><time>2026-05-05T12:16:11.17Z</time></trkpt><trkpt lat="37.65173" lon="14.554005"><ele>482.0</ele><time>2026-05-05T12:16:12.17Z</time></trkpt><trkpt lat="37.651825" lon="14.5540333"><ele>482.0</ele><time>2026-05-05T12:16:13.17Z</time></trkpt><trkpt lat="37.65193" lon="14.5540817"><ele>482.00000000000006</ele><time>2026-05-05T12:16:14.17Z</time></trkpt><trkpt lat="37.6520367" lon="14.554105"><ele>482.00000000000006</ele><time>2026-05-05T12:16:15.17Z</time></trkpt><trkpt lat="37.65212" lon="14.554055"><ele>482.0</ele><time>2026-05-05T12:16:16.17Z</time></trkpt><trkpt lat="37.6521717" lon="14.5539517"><ele>482.0</ele><time>2026-05-05T12:16:17.171Z</time></trkpt><trkpt lat="37.6521483" lon="14.5538283"><ele>481.25</ele><time>2026-05-05T12:16:18.17Z</time></trkpt><trkpt lat="37.6520883" lon="14.5537433"><ele>480.5</ele><time>2026-05-05T12:16:19.17Z</time></trkpt><trkpt lat="37.6519917" lon="14.5536833"><ele>479.75</ele><time>2026-05-05T12:16:20.17Z</time></trkpt><trkpt lat="37.6518733" lon="14.553635"><ele>479.0</ele><time>2026-05-05T12:16:21.17Z</time></trkpt><trkpt lat="37.6517467" lon="14.55359"><ele>483.75</ele><time>2026-05-05T12:16:22.17Z</time></trkpt><trkpt lat="37.6516117" lon="14.5535283"><ele>488.5</ele><time>2026-05-05T12:16:23.171Z</time></trkpt><trkpt lat="37.6514833" lon="14.5534533"><ele>493.25</ele><time>2026-05-05T12:16:24.17Z</time></trkpt><trkpt lat="37.6513583" lon="14.55338"><ele>498.0</ele><time>2026-05-05T12:16:25.17Z</time></trkpt><trkpt lat="37.651255" lon="14.553305"><ele>498.0</ele><time>2026-05-05T12:16:26.17Z</time></trkpt><trkpt lat="37.651185" lon="14.5532117"><ele>497.99999999999994</ele><time>2026-05-05T12:16:27.17Z</time></trkpt><trkpt lat="37.6511733" lon="14.5531"><ele>497.99999999999994</ele><time>2026-05-05T12:16:28.17Z</time></trkpt><trkpt lat="37.6511967" lon="14.552985"><ele>498.0</ele><time>2026-05-05T12:16:29.17Z</time></trkpt><trkpt lat="37.6512633" lon="14.5528683"><ele>498.0</ele><time>2026-05-05T12:16:30.17Z</time></trkpt><trkpt lat="37.65134" lon="14.552755"><ele>499.5</ele><time>2026-05-05T12:16:31.17Z</time></trkpt><trkpt lat="37.6514283" lon="14.55264"><ele>501.0</ele><time>2026-05-05T12:16:32.17Z</time></trkpt><trkpt lat="37.6515233" lon="14.552515"><ele>502.5</ele><time>2026-05-05T12:16:33.17Z</time></trkpt><trkpt lat="37.6516167" lon="14.5523767"><ele>504.0</ele><time>2026-05-05T12:16:34.171Z</time></trkpt><trkpt lat="37.65172" lon="14.5522317"><ele>504.0</ele><time>2026-05-05T12:16:35.171Z</time></trkpt><trkpt lat="37.6518317" lon="14.55209"><ele>504.0</ele><time>2026-05-05T12:16:36.17Z</time></trkpt><trkpt lat="37.65196" lon="14.5519783"><ele>504.0</ele><time>2026-05-05T12:16:37.171Z</time></trkpt><trkpt lat="37.6521133" lon="14.5518867"><ele>505.33333333333337</ele><time>2026-05-05T12:16:38.17Z</time></trkpt><trkpt lat="37.6522633" lon="14.5517867"><ele>506.6666666666667</ele><time>2026-05-05T12:16:39.17Z</time></trkpt><trkpt lat="37.6523967" lon="14.5516717"><ele>508.0</ele><time>2026-05-05T12:16:40.17Z</time></trkpt><trkpt lat="37.6525033" lon="14.551545"><ele>508.0</ele><time>2026-05-05T12:16:41.17Z</time></trkpt><trkpt lat="37.652595" lon="14.5514133"><ele>508.0</ele><time>2026-05-05T12:16:42.17Z</time></trkpt><trkpt lat="37.6526633" lon="14.5512783"><ele>508.0</ele><time>2026-05-05T12:16:43.17Z</time></trkpt><trkpt lat="37.6527083" lon="14.5511433"><ele>508.0</ele><time>2026-05-05T12:16:44.17Z</time></trkpt><trkpt lat="37.6527383" lon="14.551005"><ele>507.2</ele><time>2026-05-05T12:16:45.17Z</time></trkpt><trkpt lat="37.6527383" lon="14.5508733"><ele>506.4</ele><time>2026-05-05T12:16:46.17Z</time></trkpt><trkpt lat="37.6526917" lon="14.5507633"><ele>505.59999999999997</ele><time>2026-05-05T12:16:47.17Z</time></trkpt><trkpt lat="37.65261" lon="14.5506967"><ele>504.79999999999995</ele><time>2026-05-05T12:16:48.17Z</time></trkpt><trkpt lat="37.6525033" lon="14.55067"><ele>504.0</ele><time>2026-05-05T12:16:49.17Z</time></trkpt><trkpt lat="37.652385" lon="14.5506633"><ele>504.0</ele><time>2026-05-05T12:16:50.17Z</time></trkpt><trkpt lat="37.6522717" lon="14.5506167"><ele>504.0</ele><time>2026-05-05T12:16:51.17Z</time></trkpt><trkpt lat="37.6521833" lon="14.550535"><ele>504.0</ele><time>2026-05-05T12:16:52.171Z</time></trkpt><trkpt lat="37.652135" lon="14.5504217"><ele>504.0</ele><time>2026-05-05T12:16:53.17Z</time></trkpt><trkpt lat="37.65214" lon="14.5502983"><ele>504.0</ele><time>2026-05-05T12:16:54.17Z</time></trkpt><trkpt lat="37.65219" lon="14.5501817"><ele>502.25</ele><time>2026-05-05T12:16:55.17Z</time></trkpt><trkpt lat="37.6522867" lon="14.5500883"><ele>500.5</ele><time>2026-05-05T12:16:56.17Z</time></trkpt><trkpt lat="37.6523983" lon="14.55"><ele>498.75</ele><time>2026-05-05T12:16:57.17Z</time></trkpt><trkpt lat="37.6525283" lon="14.54992"><ele>497.0</ele><time>2026-05-05T12:16:58.17Z</time></trkpt><trkpt lat="37.6526783" lon="14.5498517"><ele>500.0</ele><time>2026-05-05T12:16:59.17Z</time></trkpt><trkpt lat="37.6528383" lon="14.5498067"><ele>503.0</ele><time>2026-05-05T12:17:00.17Z</time></trkpt><trkpt lat="37.652995" lon="14.5497433"><ele>506.0</ele><time>2026-05-05T12:17:01.17Z</time></trkpt><trkpt lat="37.6531483" lon="14.5496483"><ele>503.66666666666663</ele><time>2026-05-05T12:17:02.17Z</time></trkpt><trkpt lat="37.6532967" lon="14.549535"><ele>501.33333333333337</ele><time>2026-05-05T12:17:03.17Z</time></trkpt><trkpt lat="37.6534483" lon="14.54941"><ele>499.0</ele><time>2026-05-05T12:17:04.17Z</time></trkpt><trkpt lat="37.6535983" lon="14.5492817"><ele>500.6666666666667</ele><time>2026-05-05T12:17:05.17Z</time></trkpt><trkpt lat="37.6537417" lon="14.54915"><ele>502.33333333333337</ele><time>2026-05-05T12:17:06.17Z</time></trkpt><trkpt lat="37.6538783" lon="14.54903"><ele>504.0</ele><time>2026-05-05T12:17:07.171Z</time></trkpt><trkpt lat="37.65403" lon="14.5489083"><ele>504.0</ele><time>2026-05-05T12:17:08.17Z</time></trkpt><trkpt lat="37.6541883" lon="14.5487917"><ele>504.0</ele><time>2026-05-05T12:17:09.171Z</time></trkpt><trkpt lat="37.6543433" lon="14.54869"><ele>504.0</ele><time>2026-05-05T12:17:10.17Z</time></trkpt><trkpt lat="37.6545033" lon="14.5486183"><ele>502.0</ele><time>2026-05-05T12:17:11.17Z</time></trkpt><trkpt lat="37.6546633" lon="14.5485633"><ele>500.0</ele><time>2026-05-05T12:17:12.171Z</time></trkpt><trkpt lat="37.6548317" lon="14.5485483"><ele>498.0</ele><time>2026-05-05T12:17:13.17Z</time></trkpt><trkpt lat="37.6549933" lon="14.5485617"><ele>498.0</ele><time>2026-05-05T12:17:14.17Z</time></trkpt><trkpt lat="37.6551633" lon="14.5485967"><ele>498.0</ele><time>2026-05-05T12:17:15.171Z</time></trkpt><trkpt lat="37.65533" lon="14.5486217"><ele>498.0</ele><time>2026-05-05T12:17:16.171Z</time></trkpt><trkpt lat="37.6554933" lon="14.548625"><ele>500.66666666666663</ele><time>2026-05-05T12:17:17.17Z</time></trkpt><trkpt lat="37.6556467" lon="14.5486083"><ele>503.3333333333333</ele><time>2026-05-05T12:17:18.17Z</time></trkpt><trkpt lat="37.6557967" lon="14.5485767"><ele>506.0</ele><time>2026-05-05T12:17:19.17Z</time></trkpt><trkpt lat="37.655945" lon="14.5485233"><ele>506.0</ele><time>2026-05-05T12:17:20.17Z</time></trkpt><trkpt lat="37.6560817" lon="14.5484217"><ele>506.0</ele><time>2026-05-05T12:17:21.171Z</time></trkpt><trkpt lat="37.65621" lon="14.5482867"><ele>506.0</ele><time>2026-05-05T12:17:22.17Z</time></trkpt><trkpt lat="37.6563383" lon="14.5481333"><ele>506.0</ele><time>2026-05-05T12:17:23.17Z</time></trkpt><trkpt lat="37.6564767" lon="14.5479817"><ele>506.0</ele><time>2026-05-05T12:17:24.17Z</time></trkpt><trkpt lat="37.65662" lon="14.54783"><ele>506.0</ele><time>2026-05-05T12:17:25.17Z</time></trkpt><trkpt lat="37.656765" lon="14.5476817"><ele>506.0</ele><time>2026-05-05T12:17:26.17Z</time></trkpt><trkpt lat="37.6569167" lon="14.5475383"><ele>506.0</ele><time>2026-05-05T12:17:27.17Z</time></trkpt><trkpt lat="37.657075" lon="14.5474083"><ele>506.0</ele><time>2026-05-05T12:17:28.171Z</time></trkpt><trkpt lat="37.65725" lon="14.5472883"><ele>506.0</ele><time>2026-05-05T12:17:29.17Z</time></trkpt><trkpt lat="37.6574283" lon="14.5471783"><ele>506.0</ele><time>2026-05-05T12:17:30.171Z</time></trkpt><trkpt lat="37.6576" lon="14.5470667"><ele>506.0</ele><time>2026-05-05T12:17:31.17Z</time></trkpt><trkpt lat="37.657765" lon="14.5469583"><ele>508.66666666666663</ele><time>2026-05-05T12:17:32.17Z</time></trkpt><trkpt lat="37.6579283" lon="14.5468533"><ele>511.33333333333337</ele><time>2026-05-05T12:17:33.17Z</time></trkpt><trkpt lat="37.65809" lon="14.546765"><ele>514.0</ele><time>2026-05-05T12:17:34.171Z</time></trkpt><trkpt lat="37.6582717" lon="14.5466933"><ele>514.0</ele><time>2026-05-05T12:17:35.17Z</time></trkpt><trkpt lat="37.6584533" lon="14.5466567"><ele>514.0</ele><time>2026-05-05T12:17:36.17Z</time></trkpt><trkpt lat="37.658635" lon="14.54663"><ele>514.0</ele><time>2026-05-05T12:17:37.17Z</time></trkpt><trkpt lat="37.6588083" lon="14.54661"><ele>515.5</ele><time>2026-05-05T12:17:38.17Z</time></trkpt><trkpt lat="37.6589683" lon="14.5465833"><ele>517.0</ele><time>2026-05-05T12:17:39.17Z</time></trkpt><trkpt lat="37.65912" lon="14.5465583"><ele>518.5</ele><time>2026-05-05T12:17:40.171Z</time></trkpt><trkpt lat="37.6592483" lon="14.5465117"><ele>520.0</ele><time>2026-05-05T12:17:41.17Z</time></trkpt><trkpt lat="37.6593617" lon="14.54643"><ele>520.0</ele><time>2026-05-05T12:17:42.17Z</time></trkpt><trkpt lat="37.6594417" lon="14.546295"><ele>520.0</ele><time>2026-05-05T12:17:43.17Z</time></trkpt><trkpt lat="37.6595033" lon="14.5461417"><ele>520.0</ele><time>2026-05-05T12:17:44.17Z</time></trkpt><trkpt lat="37.6595283" lon="14.5459817"><ele>520.0</ele><time>2026-05-05T12:17:45.17Z</time></trkpt><trkpt lat="37.6595167" lon="14.5458"><ele>519.3333333333334</ele><time>2026-05-05T12:17:46.17Z</time></trkpt><trkpt lat="37.6594767" lon="14.5456017"><ele>518.6666666666666</ele><time>2026-05-05T12:17:47.17Z</time></trkpt><trkpt lat="37.659445" lon="14.5453917"><ele>518.0</ele><time>2026-05-05T12:17:48.17Z</time></trkpt><trkpt lat="37.6594083" lon="14.5451917"><ele>518.0</ele><time>2026-05-05T12:17:49.17Z</time></trkpt><trkpt lat="37.6593733" lon="14.5450067"><ele>518.0</ele><time>2026-05-05T12:17:50.171Z</time></trkpt><trkpt lat="37.65931" lon="14.5448383"><ele>518.0</ele><time>2026-05-05T12:17:51.17Z</time></trkpt><trkpt lat="37.6592083" lon="14.544685"><ele>518.0</ele><time>2026-05-05T12:17:52.17Z</time></trkpt><trkpt lat="37.6590767" lon="14.5445483"><ele>518.0</ele><time>2026-05-05T12:17:53.17Z</time></trkpt><trkpt lat="37.6589333" lon="14.5444217"><ele>518.0</ele><time>2026-05-05T12:17:54.17Z</time></trkpt><trkpt lat="37.658785" lon="14.5442783"><ele>518.3333333333333</ele><time>2026-05-05T12:17:55.171Z</time></trkpt><trkpt lat="37.6586367" lon="14.5441217"><ele>518.6666666666666</ele><time>2026-05-05T12:17:56.17Z</time></trkpt><trkpt lat="37.6585017" lon="14.543945"><ele>519.0</ele><time>2026-05-05T12:17:57.17Z</time></trkpt><trkpt lat="37.65839" lon="14.5437583"><ele>523.6666666666666</ele><time>2026-05-05T12:17:58.17Z</time></trkpt><trkpt lat="37.6583017" lon="14.543575"><ele>528.3333333333333</ele><time>2026-05-05T12:17:59.17Z</time></trkpt><trkpt lat="37.65824" lon="14.5433667"><ele>533.0</ele><time>2026-05-05T12:18:00.17Z</time></trkpt><trkpt lat="37.6581833" lon="14.5431817"><ele>533.0</ele><time>2026-05-05T12:18:01.17Z</time></trkpt><trkpt lat="37.658105" lon="14.5430367"><ele>533.0</ele><time>2026-05-05T12:18:02.171Z</time></trkpt><trkpt lat="37.6579917" lon="14.542925"><ele>533.0</ele><time>2026-05-05T12:18:03.17Z</time></trkpt><trkpt lat="37.6578583" lon="14.5428133"><ele>533.0</ele><time>2026-05-05T12:18:04.17Z</time></trkpt><trkpt lat="37.6577233" lon="14.5426817"><ele>532.6666666666666</ele><time>2026-05-05T12:18:05.17Z</time></trkpt><trkpt lat="37.6576217" lon="14.5425167"><ele>532.3333333333334</ele><time>2026-05-05T12:18:06.17Z</time></trkpt><trkpt lat="37.65756" lon="14.5423367"><ele>532.0</ele><time>2026-05-05T12:18:07.17Z</time></trkpt><trkpt lat="37.6575067" lon="14.5421417"><ele>535.0</ele><time>2026-05-05T12:18:08.17Z</time></trkpt><trkpt lat="37.6574817" lon="14.541935"><ele>538.0</ele><time>2026-05-05T12:18:09.17Z</time></trkpt><trkpt lat="37.6574767" lon="14.541725"><ele>541.0</ele><time>2026-05-05T12:18:10.17Z</time></trkpt><trkpt lat="37.657495" lon="14.541515"><ele>541.0</ele><time>2026-05-05T12:18:11.17Z</time></trkpt><trkpt lat="37.6575317" lon="14.5413083"><ele>541.0</ele><time>2026-05-05T12:18:12.17Z</time></trkpt><trkpt lat="37.6575933" lon="14.5411133"><ele>541.0</ele><time>2026-05-05T12:18:13.17Z</time></trkpt><trkpt lat="37.6576433" lon="14.5409233"><ele>542.0</ele><time>2026-05-05T12:18:14.17Z</time></trkpt><trkpt lat="37.6576483" lon="14.5407367"><ele>543.0</ele><time>2026-05-05T12:18:15.17Z</time></trkpt><trkpt lat="37.6576217" lon="14.5405383"><ele>544.0</ele><time>2026-05-05T12:18:16.17Z</time></trkpt><trkpt lat="37.657595" lon="14.5403467"><ele>545.25</ele><time>2026-05-05T12:18:17.17Z</time></trkpt><trkpt lat="37.6575683" lon="14.5401567"><ele>546.5</ele><time>2026-05-05T12:18:18.17Z</time></trkpt><trkpt lat="37.657555" lon="14.5399767"><ele>547.75</ele><time>2026-05-05T12:18:19.17Z</time></trkpt><trkpt lat="37.6575517" lon="14.5397967"><ele>549.0</ele><time>2026-05-05T12:18:20.171Z</time></trkpt><trkpt lat="37.6575633" lon="14.5396183"><ele>550.0</ele><time>2026-05-05T12:18:21.17Z</time></trkpt><trkpt lat="37.6575967" lon="14.5394383"><ele>551.0</ele><time>2026-05-05T12:18:22.17Z</time></trkpt><trkpt lat="37.6576367" lon="14.53927"><ele>552.0</ele><time>2026-05-05T12:18:23.17Z</time></trkpt><trkpt lat="37.6576667" lon="14.5391083"><ele>553.0</ele><time>2026-05-05T12:18:24.17Z</time></trkpt><trkpt lat="37.6576883" lon="14.5389633"><ele>553.0</ele><time>2026-05-05T12:18:25.17Z</time></trkpt><trkpt lat="37.6577" lon="14.5388383"><ele>553.0</ele><time>2026-05-05T12:18:26.17Z</time></trkpt><trkpt lat="37.6577017" lon="14.5387267"><ele>553.0</ele><time>2026-05-05T12:18:27.17Z</time></trkpt><trkpt lat="37.6576967" lon="14.5386333"><ele>553.0</ele><time>2026-05-05T12:18:28.17Z</time></trkpt><trkpt lat="37.657675" lon="14.538535"><ele>553.0</ele><time>2026-05-05T12:18:30.17Z</time></trkpt><trkpt lat="37.6576317" lon="14.538465"><ele>553.0</ele><time>2026-05-05T12:19:40.17Z</time></trkpt><trkpt lat="37.6575333" lon="14.5383567"><ele>554.8</ele><time>2026-05-05T12:19:42.17Z</time></trkpt><trkpt lat="37.6574633" lon="14.5382917"><ele>556.5999999999999</ele><time>2026-05-05T12:19:43.17Z</time></trkpt><trkpt lat="37.657395" lon="14.5382267"><ele>558.4000000000001</ele><time>2026-05-05T12:19:44.171Z</time></trkpt><trkpt lat="37.65731" lon="14.5381617"><ele>560.2</ele><time>2026-05-05T12:19:45.17Z</time></trkpt><trkpt lat="37.6571867" lon="14.5380867"><ele>562.0</ele><time>2026-05-05T12:19:46.171Z</time></trkpt><trkpt lat="37.6570633" lon="14.537995"><ele>560.6666666666667</ele><time>2026-05-05T12:19:47.169Z</time></trkpt><trkpt lat="37.65694" lon="14.5378933"><ele>559.3333333333334</ele><time>2026-05-05T12:19:48.169Z</time></trkpt><trkpt lat="37.6568033" lon="14.537785"><ele>558.0</ele><time>2026-05-05T12:19:49.169Z</time></trkpt><trkpt lat="37.65666" lon="14.5376733"><ele>561.25</ele><time>2026-05-05T12:19:50.169Z</time></trkpt><trkpt lat="37.6565367" lon="14.537565"><ele>564.5</ele><time>2026-05-05T12:19:51.169Z</time></trkpt><trkpt lat="37.656415" lon="14.537465"><ele>567.75</ele><time>2026-05-05T12:19:52.169Z</time></trkpt><trkpt lat="37.6563017" lon="14.5373717"><ele>571.0</ele><time>2026-05-05T12:19:53.169Z</time></trkpt><trkpt lat="37.6562" lon="14.5372933"><ele>571.1666666666667</ele><time>2026-05-05T12:19:54.169Z</time></trkpt><trkpt lat="37.6561067" lon="14.537225"><ele>571.3333333333334</ele><time>2026-05-05T12:19:55.169Z</time></trkpt><trkpt lat="37.6560283" lon="14.5371533"><ele>571.5</ele><time>2026-05-05T12:19:56.17Z</time></trkpt><trkpt lat="37.65598" lon="14.5370683"><ele>571.6666666666666</ele><time>2026-05-05T12:19:57.17Z</time></trkpt><trkpt lat="37.6559767" lon="14.5369783"><ele>571.8333333333333</ele><time>2026-05-05T12:19:58.17Z</time></trkpt><trkpt lat="37.6560117" lon="14.53689"><ele>572.0</ele><time>2026-05-05T12:19:59.169Z</time></trkpt><trkpt lat="37.6560767" lon="14.53683"><ele>575.25</ele><time>2026-05-05T12:20:00.169Z</time></trkpt><trkpt lat="37.65616" lon="14.5368"><ele>578.5</ele><time>2026-05-05T12:20:01.169Z</time></trkpt><trkpt lat="37.6562633" lon="14.5367967"><ele>581.75</ele><time>2026-05-05T12:20:02.168Z</time></trkpt><trkpt lat="37.6563917" lon="14.5368033"><ele>585.0</ele><time>2026-05-05T12:20:03.17Z</time></trkpt><trkpt lat="37.656545" lon="14.5368083"><ele>585.0</ele><time>2026-05-05T12:20:04.17Z</time></trkpt><trkpt lat="37.656705" lon="14.5368017"><ele>585.0</ele><time>2026-05-05T12:20:05.169Z</time></trkpt><trkpt lat="37.6568533" lon="14.5367667"><ele>585.0</ele><time>2026-05-05T12:20:06.169Z</time></trkpt><trkpt lat="37.657005" lon="14.5367167"><ele>584.5</ele><time>2026-05-05T12:20:07.169Z</time></trkpt><trkpt lat="37.6571417" lon="14.5366617"><ele>584.0</ele><time>2026-05-05T12:20:08.169Z</time></trkpt><trkpt lat="37.657265" lon="14.53661"><ele>583.5</ele><time>2026-05-05T12:20:09.169Z</time></trkpt><trkpt lat="37.65739" lon="14.536555"><ele>583.0</ele><time>2026-05-05T12:20:10.169Z</time></trkpt><trkpt lat="37.6574917" lon="14.5364683"><ele>583.0</ele><time>2026-05-05T12:20:11.169Z</time></trkpt><trkpt lat="37.65757" lon="14.53635"><ele>583.0</ele><time>2026-05-05T12:20:12.17Z</time></trkpt><trkpt lat="37.657635" lon="14.536195"><ele>583.0</ele><time>2026-05-05T12:20:13.169Z</time></trkpt><trkpt lat="37.657675" lon="14.5360117"><ele>583.0</ele><time>2026-05-05T12:20:14.169Z</time></trkpt><trkpt lat="37.657705" lon="14.5358217"><ele>585.3333333333334</ele><time>2026-05-05T12:20:15.169Z</time></trkpt><trkpt lat="37.65774" lon="14.5356167"><ele>587.6666666666666</ele><time>2026-05-05T12:20:16.169Z</time></trkpt><trkpt lat="37.6577817" lon="14.535405"><ele>590.0</ele><time>2026-05-05T12:20:17.169Z</time></trkpt><trkpt lat="37.657815" lon="14.5352017"><ele>590.0</ele><time>2026-05-05T12:20:18.169Z</time></trkpt><trkpt lat="37.65785" lon="14.5350033"><ele>590.0</ele><time>2026-05-05T12:20:19.169Z</time></trkpt><trkpt lat="37.6578833" lon="14.5348083"><ele>590.0</ele><time>2026-05-05T12:20:20.169Z</time></trkpt><trkpt lat="37.657895" lon="14.53462"><ele>592.3333333333333</ele><time>2026-05-05T12:20:21.169Z</time></trkpt><trkpt lat="37.65789" lon="14.5344183"><ele>594.6666666666666</ele><time>2026-05-05T12:20:22.169Z</time></trkpt><trkpt lat="37.6578817" lon="14.534225"><ele>597.0</ele><time>2026-05-05T12:20:23.169Z</time></trkpt><trkpt lat="37.6578783" lon="14.53404"><ele>597.0</ele><time>2026-05-05T12:20:24.169Z</time></trkpt><trkpt lat="37.6579" lon="14.5338767"><ele>597.0</ele><time>2026-05-05T12:20:25.169Z</time></trkpt><trkpt lat="37.657935" lon="14.53373"><ele>597.0</ele><time>2026-05-05T12:20:26.169Z</time></trkpt><trkpt lat="37.6579683" lon="14.5335967"><ele>597.0</ele><time>2026-05-05T12:20:27.169Z</time></trkpt><trkpt lat="37.6579917" lon="14.5334783"><ele>597.6666666666666</ele><time>2026-05-05T12:20:28.169Z</time></trkpt><trkpt lat="37.6580017" lon="14.5333717"><ele>598.3333333333334</ele><time>2026-05-05T12:20:29.169Z</time></trkpt><trkpt lat="37.6579783" lon="14.5332867"><ele>599.0</ele><time>2026-05-05T12:20:30.169Z</time></trkpt><trkpt lat="37.6579267" lon="14.5332383"><ele>599.6666666666667</ele><time>2026-05-05T12:20:31.169Z</time></trkpt><trkpt lat="37.6578633" lon="14.53325"><ele>600.3333333333334</ele><time>2026-05-05T12:20:32.169Z</time></trkpt><trkpt lat="37.657795" lon="14.5333017"><ele>601.0</ele><time>2026-05-05T12:20:33.169Z</time></trkpt><trkpt lat="37.6577367" lon="14.533395"><ele>605.5</ele><time>2026-05-05T12:20:34.169Z</time></trkpt><trkpt lat="37.6576833" lon="14.53352"><ele>610.0</ele><time>2026-05-05T12:20:35.169Z</time></trkpt><trkpt lat="37.6576217" lon="14.5336767"><ele>614.5</ele><time>2026-05-05T12:20:36.169Z</time></trkpt><trkpt lat="37.657565" lon="14.5338533"><ele>619.0</ele><time>2026-05-05T12:20:37.169Z</time></trkpt><trkpt lat="37.6575233" lon="14.53404"><ele>619.0</ele><time>2026-05-05T12:20:38.17Z</time></trkpt><trkpt lat="37.657505" lon="14.53425"><ele>619.0</ele><time>2026-05-05T12:20:39.169Z</time></trkpt><trkpt lat="37.65749" lon="14.5344533"><ele>619.0</ele><time>2026-05-05T12:20:40.169Z</time></trkpt><trkpt lat="37.6574833" lon="14.5346533"><ele>617.25</ele><time>2026-05-05T12:20:41.169Z</time></trkpt><trkpt lat="37.657465" lon="14.5348267"><ele>615.5</ele><time>2026-05-05T12:20:42.17Z</time></trkpt><trkpt lat="37.6574483" lon="14.53498"><ele>613.75</ele><time>2026-05-05T12:20:43.169Z</time></trkpt><trkpt lat="37.6574183" lon="14.53511"><ele>612.0</ele><time>2026-05-05T12:20:44.169Z</time></trkpt><trkpt lat="37.65737" lon="14.5352033"><ele>612.0</ele><time>2026-05-05T12:20:45.17Z</time></trkpt><trkpt lat="37.6572617" lon="14.5352517"><ele>612.0</ele><time>2026-05-05T12:20:47.169Z</time></trkpt><trkpt lat="37.6571783" lon="14.5352117"><ele>612.0</ele><time>2026-05-05T12:20:48.169Z</time></trkpt><trkpt lat="37.6570917" lon="14.5351433"><ele>612.0</ele><time>2026-05-05T12:20:49.169Z</time></trkpt><trkpt lat="37.6570183" lon="14.5350533"><ele>612.0</ele><time>2026-05-05T12:20:50.169Z</time></trkpt><trkpt lat="37.6569767" lon="14.5349667"><ele>612.0</ele><time>2026-05-05T12:20:51.169Z</time></trkpt><trkpt lat="37.6570167" lon="14.5348517"><ele>612.0</ele><time>2026-05-05T12:20:53.169Z</time></trkpt><trkpt lat="37.657085" lon="14.53485"><ele>612.0</ele><time>2026-05-05T12:20:54.169Z</time></trkpt><trkpt lat="37.65718" lon="14.5348817"><ele>612.0</ele><time>2026-05-05T12:20:55.169Z</time></trkpt><trkpt lat="37.6572733" lon="14.5348817"><ele>612.0</ele><time>2026-05-05T12:20:56.17Z</time></trkpt><trkpt lat="37.6573417" lon="14.5348233"><ele>612.0</ele><time>2026-05-05T12:20:57.169Z</time></trkpt><trkpt lat="37.6573717" lon="14.5347333"><ele>612.0</ele><time>2026-05-05T12:20:58.169Z</time></trkpt><trkpt lat="37.657365" lon="14.5346267"><ele>612.0</ele><time>2026-05-05T12:20:59.169Z</time></trkpt><trkpt lat="37.6573267" lon="14.5345017"><ele>612.0</ele><time>2026-05-05T12:21:00.169Z</time></trkpt><trkpt lat="37.6572833" lon="14.534365"><ele>612.0</ele><time>2026-05-05T12:21:01.169Z</time></trkpt><trkpt lat="37.6572267" lon="14.5342233"><ele>612.0</ele><time>2026-05-05T12:21:02.169Z</time></trkpt><trkpt lat="37.65714" lon="14.5341117"><ele>613.75</ele><time>2026-05-05T12:21:03.17Z</time></trkpt><trkpt lat="37.6570233" lon="14.5340483"><ele>615.5</ele><time>2026-05-05T12:21:04.17Z</time></trkpt><trkpt lat="37.6569" lon="14.5340467"><ele>617.25</ele><time>2026-05-05T12:21:05.169Z</time></trkpt><trkpt lat="37.6567717" lon="14.5340767"><ele>619.0</ele><time>2026-05-05T12:21:06.169Z</time></trkpt><trkpt lat="37.6566417" lon="14.5341083"><ele>622.6</ele><time>2026-05-05T12:21:07.17Z</time></trkpt><trkpt lat="37.656525" lon="14.53414"><ele>626.2</ele><time>2026-05-05T12:21:08.169Z</time></trkpt><trkpt lat="37.6564183" lon="14.5341683"><ele>629.8000000000001</ele><time>2026-05-05T12:21:09.169Z</time></trkpt><trkpt lat="37.65633" lon="14.5341883"><ele>633.4</ele><time>2026-05-05T12:21:10.17Z</time></trkpt><trkpt lat="37.6562467" lon="14.5341867"><ele>637.0</ele><time>2026-05-05T12:21:11.169Z</time></trkpt><trkpt lat="37.6561833" lon="14.5341617"><ele>637.0</ele><time>2026-05-05T12:21:12.169Z</time></trkpt><trkpt lat="37.65617" lon="14.5340617"><ele>637.0</ele><time>2026-05-05T12:21:14.169Z</time></trkpt><trkpt lat="37.6563017" lon="14.53398"><ele>637.0</ele><time>2026-05-05T12:21:16.169Z</time></trkpt><trkpt lat="37.6563967" lon="14.5339717"><ele>637.0</ele><time>2026-05-05T12:21:17.17Z</time></trkpt><trkpt lat="37.6564833" lon="14.5339667"><ele>637.0</ele><time>2026-05-05T12:21:18.169Z</time></trkpt><trkpt lat="37.65655" lon="14.5339617"><ele>637.0</ele><time>2026-05-05T12:21:19.169Z</time></trkpt><trkpt lat="37.656625" lon="14.533945"><ele>637.0</ele><time>2026-05-05T12:21:21.169Z</time></trkpt><trkpt lat="37.6567067" lon="14.5338617"><ele>637.0</ele><time>2026-05-05T12:26:15.169Z</time></trkpt><trkpt lat="37.6567583" lon="14.533815"><ele>637.0</ele><time>2026-05-05T12:26:16.169Z</time></trkpt><trkpt lat="37.656815" lon="14.5337717"><ele>637.0</ele><time>2026-05-05T12:26:17.17Z</time></trkpt><trkpt lat="37.65688" lon="14.5337217"><ele>637.0</ele><time>2026-05-05T12:26:18.169Z</time></trkpt><trkpt lat="37.6569467" lon="14.5336617"><ele>635.0</ele><time>2026-05-05T12:26:19.17Z</time></trkpt><trkpt lat="37.6569933" lon="14.5335783"><ele>633.0</ele><time>2026-05-05T12:26:20.169Z</time></trkpt><trkpt lat="37.65703" lon="14.5334783"><ele>631.0</ele><time>2026-05-05T12:26:21.169Z</time></trkpt><trkpt lat="37.657055" lon="14.533355"><ele>629.0</ele><time>2026-05-05T12:26:22.169Z</time></trkpt><trkpt lat="37.6570533" lon="14.533225"><ele>627.0</ele><time>2026-05-05T12:26:23.169Z</time></trkpt><trkpt lat="37.65704" lon="14.5330867"><ele>627.0</ele><time>2026-05-05T12:26:24.169Z</time></trkpt><trkpt lat="37.6570217" lon="14.5329417"><ele>627.0</ele><time>2026-05-05T12:26:25.17Z</time></trkpt><trkpt lat="37.657" lon="14.5327967"><ele>627.0</ele><time>2026-05-05T12:26:26.169Z</time></trkpt><trkpt lat="37.6569883" lon="14.5326467"><ele>627.0</ele><time>2026-05-05T12:26:27.169Z</time></trkpt><trkpt lat="37.656995" lon="14.5324917"><ele>629.25</ele><time>2026-05-05T12:26:28.169Z</time></trkpt><trkpt lat="37.6570217" lon="14.5323383"><ele>631.5</ele><time>2026-05-05T12:26:29.17Z</time></trkpt><trkpt lat="37.6570633" lon="14.53218"><ele>633.75</ele><time>2026-05-05T12:26:30.169Z</time></trkpt><trkpt lat="37.657125" lon="14.5320267"><ele>636.0</ele><time>2026-05-05T12:26:31.169Z</time></trkpt><trkpt lat="37.6571867" lon="14.53187"><ele>638.5</ele><time>2026-05-05T12:26:32.169Z</time></trkpt><trkpt lat="37.6572467" lon="14.53171"><ele>641.0</ele><time>2026-05-05T12:26:33.169Z</time></trkpt><trkpt lat="37.6573083" lon="14.5315433"><ele>643.5</ele><time>2026-05-05T12:26:34.17Z</time></trkpt><trkpt lat="37.6573767" lon="14.531375"><ele>646.0</ele><time>2026-05-05T12:26:35.169Z</time></trkpt><trkpt lat="37.6574483" lon="14.531205"><ele>653.3333333333334</ele><time>2026-05-05T12:26:36.169Z</time></trkpt><trkpt lat="37.65752" lon="14.5310367"><ele>660.6666666666666</ele><time>2026-05-05T12:26:37.169Z</time></trkpt><trkpt lat="37.6575917" lon="14.53087"><ele>668.0</ele><time>2026-05-05T12:26:38.169Z</time></trkpt><trkpt lat="37.6576667" lon="14.530705"><ele>668.0</ele><time>2026-05-05T12:26:39.169Z</time></trkpt><trkpt lat="37.6577483" lon="14.5305417"><ele>668.0</ele><time>2026-05-05T12:26:40.169Z</time></trkpt><trkpt lat="37.6578467" lon="14.5303883"><ele>668.0</ele><time>2026-05-05T12:26:41.17Z</time></trkpt><trkpt lat="37.6579583" lon="14.5302483"><ele>663.3333333333333</ele><time>2026-05-05T12:26:42.17Z</time></trkpt><trkpt lat="37.658065" lon="14.5301067"><ele>658.6666666666666</ele><time>2026-05-05T12:26:43.169Z</time></trkpt><trkpt lat="37.658165" lon="14.5299567"><ele>654.0</ele><time>2026-05-05T12:26:44.17Z</time></trkpt><trkpt lat="37.6582467" lon="14.5298033"><ele>654.0</ele><time>2026-05-05T12:26:45.169Z</time></trkpt><trkpt lat="37.6583067" lon="14.5296467"><ele>654.0</ele><time>2026-05-05T12:26:46.169Z</time></trkpt><trkpt lat="37.65835" lon="14.52948"><ele>654.0</ele><time>2026-05-05T12:26:47.169Z</time></trkpt><trkpt lat="37.65839" lon="14.5293"><ele>654.0</ele><time>2026-05-05T12:26:48.17Z</time></trkpt><trkpt lat="37.6584133" lon="14.5291233"><ele>654.25</ele><time>2026-05-05T12:26:49.169Z</time></trkpt><trkpt lat="37.6584183" lon="14.5289483"><ele>654.5</ele><time>2026-05-05T12:26:50.169Z</time></trkpt><trkpt lat="37.6584083" lon="14.5287733"><ele>654.75</ele><time>2026-05-05T12:26:51.169Z</time></trkpt><trkpt lat="37.658385" lon="14.5286083"><ele>655.0</ele><time>2026-05-05T12:26:52.169Z</time></trkpt><trkpt lat="37.6583517" lon="14.5284467"><ele>655.0</ele><time>2026-05-05T12:26:53.169Z</time></trkpt><trkpt lat="37.65832" lon="14.5282917"><ele>655.0</ele><time>2026-05-05T12:26:54.169Z</time></trkpt><trkpt lat="37.658295" lon="14.5281383"><ele>655.0</ele><time>2026-05-05T12:26:55.169Z</time></trkpt><trkpt lat="37.6582667" lon="14.5280017"><ele>655.0</ele><time>2026-05-05T12:26:56.169Z</time></trkpt><trkpt lat="37.6582283" lon="14.5278717"><ele>652.6666666666667</ele><time>2026-05-05T12:26:57.169Z</time></trkpt><trkpt lat="37.6581883" lon="14.5277483"><ele>650.3333333333334</ele><time>2026-05-05T12:26:58.169Z</time></trkpt><trkpt lat="37.65815" lon="14.52764"><ele>648.0</ele><time>2026-05-05T12:26:59.169Z</time></trkpt><trkpt lat="37.658115" lon="14.5275433"><ele>645.6666666666666</ele><time>2026-05-05T12:27:00.169Z</time></trkpt><trkpt lat="37.6580833" lon="14.52745"><ele>643.3333333333333</ele><time>2026-05-05T12:27:01.169Z</time></trkpt><trkpt lat="37.65806" lon="14.527365"><ele>641.0</ele><time>2026-05-05T12:27:02.17Z</time></trkpt><trkpt lat="37.6580767" lon="14.5272417"><ele>641.0</ele><time>2026-05-05T12:27:04.169Z</time></trkpt><trkpt lat="37.6581533" lon="14.5271167"><ele>641.0</ele><time>2026-05-05T12:27:06.166Z</time></trkpt><trkpt lat="37.6581783" lon="14.5270267"><ele>641.0</ele><time>2026-05-05T12:27:07.169Z</time></trkpt><trkpt lat="37.65818" lon="14.52692"><ele>641.0</ele><time>2026-05-05T12:27:08.169Z</time></trkpt><trkpt lat="37.6581733" lon="14.526795"><ele>641.0</ele><time>2026-05-05T12:27:09.169Z</time></trkpt><trkpt lat="37.6581583" lon="14.5266633"><ele>639.25</ele><time>2026-05-05T12:27:10.169Z</time></trkpt><trkpt lat="37.65814" lon="14.5265283"><ele>637.5</ele><time>2026-05-05T12:27:11.169Z</time></trkpt><trkpt lat="37.6581167" lon="14.526395"><ele>635.75</ele><time>2026-05-05T12:27:12.169Z</time></trkpt><trkpt lat="37.6580833" lon="14.526245"><ele>634.0</ele><time>2026-05-05T12:27:13.168Z</time></trkpt><trkpt lat="37.6580533" lon="14.5260883"><ele>630.5</ele><time>2026-05-05T12:27:14.168Z</time></trkpt><trkpt lat="37.658015" lon="14.525935"><ele>627.0</ele><time>2026-05-05T12:27:15.168Z</time></trkpt><trkpt lat="37.65798" lon="14.5257783"><ele>623.5</ele><time>2026-05-05T12:27:16.168Z</time></trkpt><trkpt lat="37.6579467" lon="14.5256233"><ele>620.0</ele><time>2026-05-05T12:27:17.169Z</time></trkpt><trkpt lat="37.6579183" lon="14.525465"><ele>616.25</ele><time>2026-05-05T12:27:18.168Z</time></trkpt><trkpt lat="37.6578817" lon="14.52531"><ele>612.5</ele><time>2026-05-05T12:27:19.168Z</time></trkpt><trkpt lat="37.6578467" lon="14.5251617"><ele>608.75</ele><time>2026-05-05T12:27:20.169Z</time></trkpt><trkpt lat="37.657815" lon="14.5250133"><ele>605.0</ele><time>2026-05-05T12:27:21.168Z</time></trkpt><trkpt lat="37.6577717" lon="14.5248617"><ele>614.0</ele><time>2026-05-05T12:27:22.168Z</time></trkpt><trkpt lat="37.6577333" lon="14.5247083"><ele>623.0</ele><time>2026-05-05T12:27:23.168Z</time></trkpt><trkpt lat="37.657695" lon="14.5245467"><ele>632.0</ele><time>2026-05-05T12:27:24.168Z</time></trkpt><trkpt lat="37.657665" lon="14.5243767"><ele>641.0</ele><time>2026-05-05T12:27:25.168Z</time></trkpt><trkpt lat="37.657645" lon="14.5242133"><ele>641.0</ele><time>2026-05-05T12:27:26.168Z</time></trkpt><trkpt lat="37.6576267" lon="14.5240617"><ele>641.0</ele><time>2026-05-05T12:27:27.168Z</time></trkpt><trkpt lat="37.6576067" lon="14.5239217"><ele>641.0</ele><time>2026-05-05T12:27:28.168Z</time></trkpt><trkpt lat="37.6576" lon="14.523785"><ele>641.0</ele><time>2026-05-05T12:27:29.168Z</time></trkpt><trkpt lat="37.6576117" lon="14.5236517"><ele>641.0</ele><time>2026-05-05T12:27:30.168Z</time></trkpt><trkpt lat="37.6576617" lon="14.5235217"><ele>640.5</ele><time>2026-05-05T12:27:31.168Z</time></trkpt><trkpt lat="37.6577133" lon="14.52339"><ele>640.0</ele><time>2026-05-05T12:27:32.168Z</time></trkpt><trkpt lat="37.6577567" lon="14.52324"><ele>639.5</ele><time>2026-05-05T12:27:33.168Z</time></trkpt><trkpt lat="37.65779" lon="14.52309"><ele>639.0</ele><time>2026-05-05T12:27:34.168Z</time></trkpt><trkpt lat="37.65782" lon="14.5229333"><ele>630.5</ele><time>2026-05-05T12:27:35.168Z</time></trkpt><trkpt lat="37.6578583" lon="14.5227833"><ele>622.0</ele><time>2026-05-05T12:27:36.168Z</time></trkpt><trkpt lat="37.6579133" lon="14.5226383"><ele>613.5</ele><time>2026-05-05T12:27:37.168Z</time></trkpt><trkpt lat="37.657975" lon="14.5225017"><ele>605.0</ele><time>2026-05-05T12:27:38.168Z</time></trkpt><trkpt lat="37.6580433" lon="14.522365"><ele>605.0</ele><time>2026-05-05T12:27:39.168Z</time></trkpt><trkpt lat="37.6580983" lon="14.522225"><ele>605.0</ele><time>2026-05-05T12:27:40.168Z</time></trkpt><trkpt lat="37.658145" lon="14.522085"><ele>605.0</ele><time>2026-05-05T12:27:41.168Z</time></trkpt><trkpt lat="37.6581667" lon="14.521935"><ele>605.0</ele><time>2026-05-05T12:27:42.168Z</time></trkpt><trkpt lat="37.6581767" lon="14.5217783"><ele>606.2</ele><time>2026-05-05T12:27:43.169Z</time></trkpt><trkpt lat="37.6581717" lon="14.5216333"><ele>607.4</ele><time>2026-05-05T12:27:44.169Z</time></trkpt><trkpt lat="37.6581667" lon="14.5214933"><ele>608.6</ele><time>2026-05-05T12:27:45.168Z</time></trkpt><trkpt lat="37.6581683" lon="14.5213567"><ele>609.8</ele><time>2026-05-05T12:27:46.169Z</time></trkpt><trkpt lat="37.6581683" lon="14.5212183"><ele>611.0</ele><time>2026-05-05T12:27:47.168Z</time></trkpt><trkpt lat="37.65818" lon="14.5210867"><ele>611.8</ele><time>2026-05-05T12:27:48.168Z</time></trkpt><trkpt lat="37.6582" lon="14.5209583"><ele>612.6</ele><time>2026-05-05T12:27:49.168Z</time></trkpt><trkpt lat="37.658225" lon="14.5208233"><ele>613.4</ele><time>2026-05-05T12:27:50.169Z</time></trkpt><trkpt lat="37.6582567" lon="14.5206983"><ele>614.2</ele><time>2026-05-05T12:27:51.168Z</time></trkpt><trkpt lat="37.6582983" lon="14.5205817"><ele>615.0</ele><time>2026-05-05T12:27:52.168Z</time></trkpt><trkpt lat="37.6583583" lon="14.5204833"><ele>615.0</ele><time>2026-05-05T12:27:53.168Z</time></trkpt><trkpt lat="37.6584217" lon="14.52039"><ele>615.0</ele><time>2026-05-05T12:27:54.168Z</time></trkpt><trkpt lat="37.658475" lon="14.52029"><ele>615.0</ele><time>2026-05-05T12:27:55.168Z</time></trkpt><trkpt lat="37.65852" lon="14.5201917"><ele>615.0</ele><time>2026-05-05T12:27:56.168Z</time></trkpt><trkpt lat="37.6585633" lon="14.5201033"><ele>615.0</ele><time>2026-05-05T12:27:57.169Z</time></trkpt><trkpt lat="37.6586017" lon="14.5200167"><ele>615.0</ele><time>2026-05-05T12:27:58.169Z</time></trkpt><trkpt lat="37.658635" lon="14.5199267"><ele>613.4</ele><time>2026-05-05T12:27:59.168Z</time></trkpt><trkpt lat="37.6586617" lon="14.519825"><ele>611.8</ele><time>2026-05-05T12:28:00.168Z</time></trkpt><trkpt lat="37.6586833" lon="14.51971"><ele>610.2</ele><time>2026-05-05T12:28:01.168Z</time></trkpt><trkpt lat="37.6587017" lon="14.5195833"><ele>608.6</ele><time>2026-05-05T12:28:02.168Z</time></trkpt><trkpt lat="37.65872" lon="14.5194517"><ele>607.0</ele><time>2026-05-05T12:28:03.169Z</time></trkpt><trkpt lat="37.6587433" lon="14.5193183"><ele>607.0</ele><time>2026-05-05T12:28:04.169Z</time></trkpt><trkpt lat="37.6587617" lon="14.5191833"><ele>607.0</ele><time>2026-05-05T12:28:05.168Z</time></trkpt><trkpt lat="37.65878" lon="14.51905"><ele>607.0</ele><time>2026-05-05T12:28:06.169Z</time></trkpt><trkpt lat="37.6587983" lon="14.5189283"><ele>607.0</ele><time>2026-05-05T12:28:07.168Z</time></trkpt><trkpt lat="37.6588117" lon="14.51882"><ele>607.0</ele><time>2026-05-05T12:28:08.168Z</time></trkpt><trkpt lat="37.65883" lon="14.5187217"><ele>607.6666666666667</ele><time>2026-05-05T12:28:09.168Z</time></trkpt><trkpt lat="37.65885" lon="14.5186183"><ele>608.3333333333334</ele><time>2026-05-05T12:28:10.168Z</time></trkpt><trkpt lat="37.658865" lon="14.5185133"><ele>609.0</ele><time>2026-05-05T12:28:11.169Z</time></trkpt><trkpt lat="37.6588717" lon="14.518405"><ele>609.6666666666666</ele><time>2026-05-05T12:28:12.168Z</time></trkpt><trkpt lat="37.6588817" lon="14.518295"><ele>610.3333333333333</ele><time>2026-05-05T12:28:13.168Z</time></trkpt><trkpt lat="37.6588967" lon="14.518185"><ele>611.0</ele><time>2026-05-05T12:28:14.169Z</time></trkpt><trkpt lat="37.6589083" lon="14.518075"><ele>611.0</ele><time>2026-05-05T12:28:15.168Z</time></trkpt><trkpt lat="37.6589233" lon="14.5179583"><ele>611.0</ele><time>2026-05-05T12:28:16.168Z</time></trkpt><trkpt lat="37.65894" lon="14.5178367"><ele>611.0</ele><time>2026-05-05T12:28:17.168Z</time></trkpt><trkpt lat="37.6589583" lon="14.5177133"><ele>611.0</ele><time>2026-05-05T12:28:18.168Z</time></trkpt><trkpt lat="37.658975" lon="14.5175867"><ele>611.0</ele><time>2026-05-05T12:28:19.168Z</time></trkpt><trkpt lat="37.659005" lon="14.517465"><ele>611.6</ele><time>2026-05-05T12:28:20.168Z</time></trkpt><trkpt lat="37.659045" lon="14.5173433"><ele>612.2</ele><time>2026-05-05T12:28:21.168Z</time></trkpt><trkpt lat="37.6590917" lon="14.5172217"><ele>612.8</ele><time>2026-05-05T12:28:22.168Z</time></trkpt><trkpt lat="37.6591417" lon="14.5170933"><ele>613.4</ele><time>2026-05-05T12:28:23.168Z</time></trkpt><trkpt lat="37.659185" lon="14.5169617"><ele>614.0</ele><time>2026-05-05T12:28:24.168Z</time></trkpt><trkpt lat="37.6592317" lon="14.5168267"><ele>614.6</ele><time>2026-05-05T12:28:25.168Z</time></trkpt><trkpt lat="37.6592733" lon="14.5166917"><ele>615.2</ele><time>2026-05-05T12:28:26.168Z</time></trkpt><trkpt lat="37.6593117" lon="14.5165583"><ele>615.8000000000001</ele><time>2026-05-05T12:28:27.168Z</time></trkpt><trkpt lat="37.6593483" lon="14.516425"><ele>616.4</ele><time>2026-05-05T12:28:28.168Z</time></trkpt><trkpt lat="37.659385" lon="14.5163017"><ele>617.0</ele><time>2026-05-05T12:28:29.168Z</time></trkpt><trkpt lat="37.6594267" lon="14.51618"><ele>618.2</ele><time>2026-05-05T12:28:30.168Z</time></trkpt><trkpt lat="37.6594667" lon="14.5160633"><ele>619.4000000000001</ele><time>2026-05-05T12:28:31.168Z</time></trkpt><trkpt lat="37.659505" lon="14.5159517"><ele>620.5999999999999</ele><time>2026-05-05T12:28:32.169Z</time></trkpt><trkpt lat="37.659545" lon="14.51584"><ele>621.8</ele><time>2026-05-05T12:28:33.169Z</time></trkpt><trkpt lat="37.6595817" lon="14.5157283"><ele>623.0</ele><time>2026-05-05T12:28:34.169Z</time></trkpt><trkpt lat="37.65961" lon="14.5156167"><ele>623.0</ele><time>2026-05-05T12:28:35.168Z</time></trkpt><trkpt lat="37.6596183" lon="14.5155017"><ele>623.0</ele><time>2026-05-05T12:28:36.169Z</time></trkpt><trkpt lat="37.6596133" lon="14.51538"><ele>623.0</ele><time>2026-05-05T12:28:37.168Z</time></trkpt><trkpt lat="37.65959" lon="14.51526"><ele>623.0</ele><time>2026-05-05T12:28:38.169Z</time></trkpt><trkpt lat="37.659535" lon="14.5151683"><ele>623.0</ele><time>2026-05-05T12:28:39.168Z</time></trkpt><trkpt lat="37.6594633" lon="14.5150883"><ele>624.1666666666666</ele><time>2026-05-05T12:28:40.168Z</time></trkpt><trkpt lat="37.6593733" lon="14.515035"><ele>625.3333333333333</ele><time>2026-05-05T12:28:41.168Z</time></trkpt><trkpt lat="37.6592883" lon="14.515015"><ele>626.5</ele><time>2026-05-05T12:28:42.168Z</time></trkpt><trkpt lat="37.6591983" lon="14.5150217"><ele>627.6666666666666</ele><time>2026-05-05T12:28:43.168Z</time></trkpt><trkpt lat="37.6591183" lon="14.5150483"><ele>628.8333333333334</ele><time>2026-05-05T12:28:44.168Z</time></trkpt><trkpt lat="37.6590483" lon="14.5150867"><ele>630.0</ele><time>2026-05-05T12:28:45.168Z</time></trkpt><trkpt lat="37.6589883" lon="14.5151333"><ele>630.0</ele><time>2026-05-05T12:28:46.169Z</time></trkpt><trkpt lat="37.658935" lon="14.5151933"><ele>630.0</ele><time>2026-05-05T12:28:47.168Z</time></trkpt><trkpt lat="37.65888" lon="14.5152617"><ele>630.0</ele><time>2026-05-05T12:28:48.169Z</time></trkpt><trkpt lat="37.65882" lon="14.5153433"><ele>630.0</ele><time>2026-05-05T12:28:49.168Z</time></trkpt><trkpt lat="37.6587533" lon="14.515435"><ele>630.0</ele><time>2026-05-05T12:28:50.168Z</time></trkpt><trkpt lat="37.65868" lon="14.5155317"><ele>630.0</ele><time>2026-05-05T12:28:51.168Z</time></trkpt><trkpt lat="37.6586067" lon="14.5156317"><ele>629.0</ele><time>2026-05-05T12:28:52.168Z</time></trkpt><trkpt lat="37.658525" lon="14.5157233"><ele>628.0</ele><time>2026-05-05T12:28:53.168Z</time></trkpt><trkpt lat="37.6584333" lon="14.5157967"><ele>627.0</ele><time>2026-05-05T12:28:54.168Z</time></trkpt><trkpt lat="37.6583317" lon="14.515845"><ele>626.0</ele><time>2026-05-05T12:28:55.168Z</time></trkpt><trkpt lat="37.6582333" lon="14.5158583"><ele>625.0</ele><time>2026-05-05T12:28:56.168Z</time></trkpt><trkpt lat="37.65814" lon="14.51583"><ele>625.0</ele><time>2026-05-05T12:28:57.169Z</time></trkpt><trkpt lat="37.6580633" lon="14.5157617"><ele>625.0</ele><time>2026-05-05T12:28:58.168Z</time></trkpt><trkpt lat="37.6580117" lon="14.5156267"><ele>625.0</ele><time>2026-05-05T12:28:59.168Z</time></trkpt><trkpt lat="37.6579633" lon="14.515475"><ele>625.0</ele><time>2026-05-05T12:29:00.168Z</time></trkpt><trkpt lat="37.657925" lon="14.5153233"><ele>627.25</ele><time>2026-05-05T12:29:01.168Z</time></trkpt><trkpt lat="37.6579" lon="14.5151667"><ele>629.5</ele><time>2026-05-05T12:29:02.168Z</time></trkpt><trkpt lat="37.6578733" lon="14.5150067"><ele>631.75</ele><time>2026-05-05T12:29:03.169Z</time></trkpt><trkpt lat="37.6578367" lon="14.514835"><ele>634.0</ele><time>2026-05-05T12:29:04.168Z</time></trkpt><trkpt lat="37.6577933" lon="14.5146667"><ele>630.5</ele><time>2026-05-05T12:29:05.168Z</time></trkpt><trkpt lat="37.65775" lon="14.5144967"><ele>627.0</ele><time>2026-05-05T12:29:06.169Z</time></trkpt><trkpt lat="37.6577067" lon="14.5143383"><ele>623.5</ele><time>2026-05-05T12:29:07.168Z</time></trkpt><trkpt lat="37.6576717" lon="14.5141667"><ele>620.0</ele><time>2026-05-05T12:29:08.168Z</time></trkpt><trkpt lat="37.6576383" lon="14.5139967"><ele>620.0</ele><time>2026-05-05T12:29:09.168Z</time></trkpt><trkpt lat="37.657605" lon="14.51383"><ele>620.0</ele><time>2026-05-05T12:29:10.168Z</time></trkpt><trkpt lat="37.65756" lon="14.5136683"><ele>620.0</ele><time>2026-05-05T12:29:11.168Z</time></trkpt><trkpt lat="37.6575183" lon="14.5135083"><ele>620.0</ele><time>2026-05-05T12:29:12.168Z</time></trkpt><trkpt lat="37.6574767" lon="14.5133517"><ele>620.25</ele><time>2026-05-05T12:29:13.168Z</time></trkpt><trkpt lat="37.6574317" lon="14.5131933"><ele>620.5</ele><time>2026-05-05T12:29:14.169Z</time></trkpt><trkpt lat="37.6573767" lon="14.513035"><ele>620.75</ele><time>2026-05-05T12:29:15.169Z</time></trkpt><trkpt lat="37.6573067" lon="14.5128933"><ele>621.0</ele><time>2026-05-05T12:29:16.168Z</time></trkpt><trkpt lat="37.65723" lon="14.5127583"><ele>621.0</ele><time>2026-05-05T12:29:17.169Z</time></trkpt><trkpt lat="37.657155" lon="14.5126333"><ele>621.0</ele><time>2026-05-05T12:29:18.168Z</time></trkpt><trkpt lat="37.6570733" lon="14.512515"><ele>621.0</ele><time>2026-05-05T12:29:19.169Z</time></trkpt><trkpt lat="37.6569917" lon="14.5124"><ele>621.0</ele><time>2026-05-05T12:29:20.168Z</time></trkpt><trkpt lat="37.6569133" lon="14.5122817"><ele>618.6</ele><time>2026-05-05T12:29:21.168Z</time></trkpt><trkpt lat="37.6568433" lon="14.512175"><ele>616.2</ele><time>2026-05-05T12:29:22.168Z</time></trkpt><trkpt lat="37.6567867" lon="14.5120783"><ele>613.8</ele><time>2026-05-05T12:29:23.168Z</time></trkpt><trkpt lat="37.6567367" lon="14.5119917"><ele>611.4</ele><time>2026-05-05T12:29:24.168Z</time></trkpt><trkpt lat="37.6566917" lon="14.51192"><ele>609.0</ele><time>2026-05-05T12:29:25.168Z</time></trkpt><trkpt lat="37.6566333" lon="14.5117933"><ele>609.0</ele><time>2026-05-05T12:29:27.169Z</time></trkpt><trkpt lat="37.6565617" lon="14.5116867"><ele>609.0</ele><time>2026-05-05T12:29:29.168Z</time></trkpt><trkpt lat="37.6565133" lon="14.5116267"><ele>609.0</ele><time>2026-05-05T12:29:30.168Z</time></trkpt><trkpt lat="37.6564617" lon="14.51156"><ele>609.0</ele><time>2026-05-05T12:29:31.168Z</time></trkpt><trkpt lat="37.6564233" lon="14.5114783"><ele>609.0</ele><time>2026-05-05T12:29:32.168Z</time></trkpt><trkpt lat="37.6564" lon="14.5113667"><ele>609.0</ele><time>2026-05-05T12:29:33.168Z</time></trkpt><trkpt lat="37.6563817" lon="14.5112283"><ele>608.25</ele><time>2026-05-05T12:29:34.168Z</time></trkpt><trkpt lat="37.6563617" lon="14.5110783"><ele>607.5</ele><time>2026-05-05T12:29:35.169Z</time></trkpt><trkpt lat="37.6563367" lon="14.5109183"><ele>606.75</ele><time>2026-05-05T12:29:36.168Z</time></trkpt><trkpt lat="37.6563083" lon="14.5107483"><ele>606.0</ele><time>2026-05-05T12:29:37.168Z</time></trkpt><trkpt lat="37.6562883" lon="14.5105733"><ele>605.75</ele><time>2026-05-05T12:29:38.168Z</time></trkpt><trkpt lat="37.6562733" lon="14.5104"><ele>605.5</ele><time>2026-05-05T12:29:39.168Z</time></trkpt><trkpt lat="37.6562767" lon="14.5102233"><ele>605.25</ele><time>2026-05-05T12:29:40.168Z</time></trkpt><trkpt lat="37.6562867" lon="14.5100417"><ele>605.0</ele><time>2026-05-05T12:29:41.168Z</time></trkpt><trkpt lat="37.6562867" lon="14.5098717"><ele>605.0</ele><time>2026-05-05T12:29:42.168Z</time></trkpt><trkpt lat="37.6562817" lon="14.50971"><ele>605.0</ele><time>2026-05-05T12:29:43.168Z</time></trkpt><trkpt lat="37.6562567" lon="14.5095583"><ele>605.0</ele><time>2026-05-05T12:29:44.169Z</time></trkpt><trkpt lat="37.6562183" lon="14.50942"><ele>605.0</ele><time>2026-05-05T12:29:45.168Z</time></trkpt><trkpt lat="37.6561833" lon="14.5092867"><ele>605.25</ele><time>2026-05-05T12:29:46.168Z</time></trkpt><trkpt lat="37.656175" lon="14.509125"><ele>605.5</ele><time>2026-05-05T12:29:47.169Z</time></trkpt><trkpt lat="37.65621" lon="14.5089633"><ele>605.75</ele><time>2026-05-05T12:29:48.168Z</time></trkpt><trkpt lat="37.6562467" lon="14.508785"><ele>606.0</ele><time>2026-05-05T12:29:49.168Z</time></trkpt><trkpt lat="37.656295" lon="14.5086067"><ele>604.3333333333334</ele><time>2026-05-05T12:29:50.168Z</time></trkpt><trkpt lat="37.65633" lon="14.5084067"><ele>602.6666666666667</ele><time>2026-05-05T12:29:51.168Z</time></trkpt><trkpt lat="37.6563433" lon="14.508195"><ele>601.0</ele><time>2026-05-05T12:29:52.168Z</time></trkpt><trkpt lat="37.6563367" lon="14.507975"><ele>599.6666666666667</ele><time>2026-05-05T12:29:53.168Z</time></trkpt><trkpt lat="37.6563233" lon="14.5077617"><ele>598.3333333333334</ele><time>2026-05-05T12:29:54.168Z</time></trkpt><trkpt lat="37.6563083" lon="14.50755"><ele>597.0</ele><time>2026-05-05T12:29:55.168Z</time></trkpt><trkpt lat="37.656315" lon="14.5073467"><ele>597.0</ele><time>2026-05-05T12:29:56.168Z</time></trkpt><trkpt lat="37.65633" lon="14.507145"><ele>597.0</ele><time>2026-05-05T12:29:57.168Z</time></trkpt><trkpt lat="37.65634" lon="14.5069383"><ele>597.0</ele><time>2026-05-05T12:29:58.168Z</time></trkpt><trkpt lat="37.6563333" lon="14.506735"><ele>595.0</ele><time>2026-05-05T12:29:59.168Z</time></trkpt><trkpt lat="37.656305" lon="14.5065467"><ele>593.0</ele><time>2026-05-05T12:30:00.168Z</time></trkpt><trkpt lat="37.6562583" lon="14.5063617"><ele>591.0</ele><time>2026-05-05T12:30:01.168Z</time></trkpt><trkpt lat="37.656215" lon="14.5061817"><ele>591.0</ele><time>2026-05-05T12:30:02.168Z</time></trkpt><trkpt lat="37.6562" lon="14.506015"><ele>591.0</ele><time>2026-05-05T12:30:03.168Z</time></trkpt><trkpt lat="37.6562" lon="14.505845"><ele>591.0</ele><time>2026-05-05T12:30:04.168Z</time></trkpt><trkpt lat="37.6562433" lon="14.50568"><ele>591.0</ele><time>2026-05-05T12:30:05.168Z</time></trkpt><trkpt lat="37.656315" lon="14.50552"><ele>595.3333333333334</ele><time>2026-05-05T12:30:06.168Z</time></trkpt><trkpt lat="37.6563933" lon="14.5053617"><ele>599.6666666666667</ele><time>2026-05-05T12:30:07.168Z</time></trkpt><trkpt lat="37.6564767" lon="14.5051967"><ele>604.0</ele><time>2026-05-05T12:30:08.168Z</time></trkpt><trkpt lat="37.656565" lon="14.5050117"><ele>604.0</ele><time>2026-05-05T12:30:09.168Z</time></trkpt><trkpt lat="37.6566483" lon="14.5048233"><ele>604.0</ele><time>2026-05-05T12:30:10.168Z</time></trkpt><trkpt lat="37.656725" lon="14.504625"><ele>604.0</ele><time>2026-05-05T12:30:11.168Z</time></trkpt><trkpt lat="37.6568" lon="14.5044183"><ele>598.3333333333334</ele><time>2026-05-05T12:30:12.168Z</time></trkpt><trkpt lat="37.65687" lon="14.5042183"><ele>592.6666666666666</ele><time>2026-05-05T12:30:13.168Z</time></trkpt><trkpt lat="37.65695" lon="14.5040267"><ele>587.0</ele><time>2026-05-05T12:30:14.168Z</time></trkpt><trkpt lat="37.65703" lon="14.50384"><ele>592.6666666666666</ele><time>2026-05-05T12:30:15.168Z</time></trkpt><trkpt lat="37.6571267" lon="14.50366"><ele>598.3333333333334</ele><time>2026-05-05T12:30:16.168Z</time></trkpt><trkpt lat="37.6572217" lon="14.5034883"><ele>604.0</ele><time>2026-05-05T12:30:17.169Z</time></trkpt><trkpt lat="37.6573117" lon="14.5033233"><ele>604.0</ele><time>2026-05-05T12:30:18.168Z</time></trkpt><trkpt lat="37.6573883" lon="14.5031533"><ele>604.0</ele><time>2026-05-05T12:30:19.168Z</time></trkpt><trkpt lat="37.6574433" lon="14.502975"><ele>604.0</ele><time>2026-05-05T12:30:20.168Z</time></trkpt><trkpt lat="37.6574767" lon="14.502785"><ele>607.0</ele><time>2026-05-05T12:30:21.169Z</time></trkpt><trkpt lat="37.6574783" lon="14.502585"><ele>610.0</ele><time>2026-05-05T12:30:22.169Z</time></trkpt><trkpt lat="37.6574483" lon="14.5023867"><ele>613.0</ele><time>2026-05-05T12:30:23.169Z</time></trkpt><trkpt lat="37.6574067" lon="14.5021833"><ele>614.6666666666667</ele><time>2026-05-05T12:30:24.168Z</time></trkpt><trkpt lat="37.657355" lon="14.5019867"><ele>616.3333333333334</ele><time>2026-05-05T12:30:25.168Z</time></trkpt><trkpt lat="37.6572967" lon="14.5017933"><ele>618.0</ele><time>2026-05-05T12:30:26.168Z</time></trkpt><trkpt lat="37.6572417" lon="14.5016133"><ele>618.0</ele><time>2026-05-05T12:30:27.168Z</time></trkpt><trkpt lat="37.6571917" lon="14.5014367"><ele>618.0</ele><time>2026-05-05T12:30:28.168Z</time></trkpt><trkpt lat="37.657165" lon="14.5012633"><ele>618.0</ele><time>2026-05-05T12:30:29.168Z</time></trkpt><trkpt lat="37.6571733" lon="14.5010833"><ele>618.0</ele><time>2026-05-05T12:30:30.168Z</time></trkpt><trkpt lat="37.6571983" lon="14.5008933"><ele>620.0</ele><time>2026-05-05T12:30:31.168Z</time></trkpt><trkpt lat="37.65724" lon="14.5007"><ele>622.0</ele><time>2026-05-05T12:30:32.169Z</time></trkpt><trkpt lat="37.65729" lon="14.5004983"><ele>624.0</ele><time>2026-05-05T12:30:33.168Z</time></trkpt><trkpt lat="37.65734" lon="14.5002967"><ele>627.6666666666666</ele><time>2026-05-05T12:30:34.168Z</time></trkpt><trkpt lat="37.65739" lon="14.5000883"><ele>631.3333333333333</ele><time>2026-05-05T12:30:35.168Z</time></trkpt><trkpt lat="37.6574433" lon="14.4998767"><ele>635.0</ele><time>2026-05-05T12:30:36.168Z</time></trkpt><trkpt lat="37.6574983" lon="14.4996617"><ele>640.3333333333333</ele><time>2026-05-05T12:30:37.169Z</time></trkpt><trkpt lat="37.6575567" lon="14.499445"><ele>645.6666666666666</ele><time>2026-05-05T12:30:38.168Z</time></trkpt><trkpt lat="37.65761" lon="14.4992283"><ele>651.0</ele><time>2026-05-05T12:30:39.168Z</time></trkpt><trkpt lat="37.657645" lon="14.4990067"><ele>651.0</ele><time>2026-05-05T12:30:40.168Z</time></trkpt><trkpt lat="37.6576883" lon="14.4987933"><ele>651.0</ele><time>2026-05-05T12:30:41.168Z</time></trkpt><trkpt lat="37.6577133" lon="14.4985767"><ele>651.0</ele><time>2026-05-05T12:30:42.168Z</time></trkpt><trkpt lat="37.6577383" lon="14.4983633"><ele>653.0</ele><time>2026-05-05T12:30:43.169Z</time></trkpt><trkpt lat="37.6577617" lon="14.4981517"><ele>655.0</ele><time>2026-05-05T12:30:44.168Z</time></trkpt><trkpt lat="37.6577867" lon="14.4979383"><ele>657.0</ele><time>2026-05-05T12:30:45.168Z</time></trkpt><trkpt lat="37.657835" lon="14.497735"><ele>648.6666666666666</ele><time>2026-05-05T12:30:46.168Z</time></trkpt><trkpt lat="37.6579067" lon="14.497535"><ele>640.3333333333333</ele><time>2026-05-05T12:30:47.168Z</time></trkpt><trkpt lat="37.6579933" lon="14.4973417"><ele>632.0</ele><time>2026-05-05T12:30:48.168Z</time></trkpt><trkpt lat="37.6580883" lon="14.49715"><ele>638.3333333333333</ele><time>2026-05-05T12:30:49.168Z</time></trkpt><trkpt lat="37.65819" lon="14.496965"><ele>644.6666666666666</ele><time>2026-05-05T12:30:50.168Z</time></trkpt><trkpt lat="37.65829" lon="14.4967817"><ele>651.0</ele><time>2026-05-05T12:30:51.168Z</time></trkpt><trkpt lat="37.6583867" lon="14.4965983"><ele>651.0</ele><time>2026-05-05T12:30:52.168Z</time></trkpt><trkpt lat="37.6584783" lon="14.496415"><ele>651.0</ele><time>2026-05-05T12:30:53.169Z</time></trkpt><trkpt lat="37.6585683" lon="14.4962417"><ele>651.0</ele><time>2026-05-05T12:30:54.168Z</time></trkpt><trkpt lat="37.6586467" lon="14.49605"><ele>651.3333333333334</ele><time>2026-05-05T12:30:55.168Z</time></trkpt><trkpt lat="37.6587183" lon="14.4958467"><ele>651.6666666666667</ele><time>2026-05-05T12:30:56.168Z</time></trkpt><trkpt lat="37.6587733" lon="14.49562"><ele>652.0</ele><time>2026-05-05T12:30:57.168Z</time></trkpt><trkpt lat="37.6588233" lon="14.4954033"><ele>652.0</ele><time>2026-05-05T12:30:58.168Z</time></trkpt><trkpt lat="37.6588783" lon="14.495175"><ele>652.0</ele><time>2026-05-05T12:30:59.168Z</time></trkpt><trkpt lat="37.6589333" lon="14.4949367"><ele>652.0</ele><time>2026-05-05T12:31:00.168Z</time></trkpt><trkpt lat="37.658995" lon="14.4946933"><ele>653.6666666666667</ele><time>2026-05-05T12:31:01.168Z</time></trkpt><trkpt lat="37.6590533" lon="14.4944433"><ele>655.3333333333334</ele><time>2026-05-05T12:31:02.168Z</time></trkpt><trkpt lat="37.659115" lon="14.49419"><ele>657.0</ele><time>2026-05-05T12:31:03.168Z</time></trkpt><trkpt lat="37.659175" lon="14.49394"><ele>658.0</ele><time>2026-05-05T12:31:04.168Z</time></trkpt><trkpt lat="37.6592367" lon="14.4936833"><ele>659.0</ele><time>2026-05-05T12:31:05.168Z</time></trkpt><trkpt lat="37.65929" lon="14.493425"><ele>660.0</ele><time>2026-05-05T12:31:06.169Z</time></trkpt><trkpt lat="37.659345" lon="14.4931683"><ele>661.0</ele><time>2026-05-05T12:31:07.168Z</time></trkpt><trkpt lat="37.6594" lon="14.4929067"><ele>662.0</ele><time>2026-05-05T12:31:08.168Z</time></trkpt><trkpt lat="37.6594617" lon="14.4926517"><ele>663.0</ele><time>2026-05-05T12:31:09.168Z</time></trkpt><trkpt lat="37.6595217" lon="14.4924"><ele>663.3333333333334</ele><time>2026-05-05T12:31:10.168Z</time></trkpt><trkpt lat="37.6595883" lon="14.49215"><ele>663.6666666666667</ele><time>2026-05-05T12:31:11.168Z</time></trkpt><trkpt lat="37.659655" lon="14.491905"><ele>664.0</ele><time>2026-05-05T12:31:12.168Z</time></trkpt><trkpt lat="37.65971" lon="14.4916633"><ele>664.0</ele><time>2026-05-05T12:31:13.168Z</time></trkpt><trkpt lat="37.6597717" lon="14.4914233"><ele>664.0</ele><time>2026-05-05T12:31:14.168Z</time></trkpt><trkpt lat="37.6598333" lon="14.4911833"><ele>664.0</ele><time>2026-05-05T12:31:15.168Z</time></trkpt><trkpt lat="37.6598917" lon="14.4909483"><ele>666.6666666666667</ele><time>2026-05-05T12:31:16.168Z</time></trkpt><trkpt lat="37.6599483" lon="14.4907183"><ele>669.3333333333334</ele><time>2026-05-05T12:31:17.168Z</time></trkpt><trkpt lat="37.6600017" lon="14.4905083"><ele>672.0</ele><time>2026-05-05T12:31:18.168Z</time></trkpt><trkpt lat="37.66006" lon="14.490315"><ele>672.0</ele><time>2026-05-05T12:31:19.169Z</time></trkpt><trkpt lat="37.660135" lon="14.4901233"><ele>672.0</ele><time>2026-05-05T12:31:20.168Z</time></trkpt><trkpt lat="37.6602333" lon="14.48995"><ele>672.0</ele><time>2026-05-05T12:31:21.168Z</time></trkpt><trkpt lat="37.6603433" lon="14.489785"><ele>673.3333333333334</ele><time>2026-05-05T12:31:22.168Z</time></trkpt><trkpt lat="37.6604733" lon="14.48964"><ele>674.6666666666667</ele><time>2026-05-05T12:31:23.168Z</time></trkpt><trkpt lat="37.6605867" lon="14.4894983"><ele>676.0</ele><time>2026-05-05T12:31:24.168Z</time></trkpt><trkpt lat="37.660695" lon="14.4893417"><ele>674.3333333333334</ele><time>2026-05-05T12:31:25.168Z</time></trkpt><trkpt lat="37.6607833" lon="14.4891617"><ele>672.6666666666666</ele><time>2026-05-05T12:31:26.168Z</time></trkpt><trkpt lat="37.6608333" lon="14.4889517"><ele>671.0</ele><time>2026-05-05T12:31:27.168Z</time></trkpt><trkpt lat="37.6608583" lon="14.4887267"><ele>671.0</ele><time>2026-05-05T12:31:28.168Z</time></trkpt><trkpt lat="37.6608483" lon="14.4884933"><ele>671.0</ele><time>2026-05-05T12:31:29.168Z</time></trkpt><trkpt lat="37.6608333" lon="14.4882617"><ele>671.0</ele><time>2026-05-05T12:31:30.168Z</time></trkpt><trkpt lat="37.66082" lon="14.4880317"><ele>672.0</ele><time>2026-05-05T12:31:31.169Z</time></trkpt><trkpt lat="37.6608083" lon="14.4878083"><ele>673.0</ele><time>2026-05-05T12:31:32.168Z</time></trkpt><trkpt lat="37.6608233" lon="14.487585"><ele>674.0</ele><time>2026-05-05T12:31:33.168Z</time></trkpt><trkpt lat="37.6608433" lon="14.487365"><ele>674.0</ele><time>2026-05-05T12:31:34.168Z</time></trkpt><trkpt lat="37.66087" lon="14.487145"><ele>674.0</ele><time>2026-05-05T12:31:35.168Z</time></trkpt><trkpt lat="37.6608867" lon="14.4869233"><ele>674.0</ele><time>2026-05-05T12:31:36.168Z</time></trkpt><trkpt lat="37.6609017" lon="14.4867133"><ele>675.3333333333333</ele><time>2026-05-05T12:31:37.169Z</time></trkpt><trkpt lat="37.6609483" lon="14.4865217"><ele>676.6666666666666</ele><time>2026-05-05T12:31:38.168Z</time></trkpt><trkpt lat="37.6610183" lon="14.4863517"><ele>678.0</ele><time>2026-05-05T12:31:39.168Z</time></trkpt><trkpt lat="37.6611167" lon="14.4861817"><ele>679.3333333333334</ele><time>2026-05-05T12:31:40.169Z</time></trkpt><trkpt lat="37.6612233" lon="14.4860167"><ele>680.6666666666667</ele><time>2026-05-05T12:31:41.168Z</time></trkpt><trkpt lat="37.6613233" lon="14.485845"><ele>682.0</ele><time>2026-05-05T12:31:42.168Z</time></trkpt><trkpt lat="37.661425" lon="14.485665"><ele>682.0</ele><time>2026-05-05T12:31:43.168Z</time></trkpt><trkpt lat="37.6615217" lon="14.4854817"><ele>682.0</ele><time>2026-05-05T12:31:44.169Z</time></trkpt><trkpt lat="37.6616183" lon="14.4853017"><ele>682.0</ele><time>2026-05-05T12:31:45.168Z</time></trkpt><trkpt lat="37.6616933" lon="14.4851033"><ele>682.6666666666667</ele><time>2026-05-05T12:31:46.168Z</time></trkpt><trkpt lat="37.66175" lon="14.4849017"><ele>683.3333333333334</ele><time>2026-05-05T12:31:47.168Z</time></trkpt><trkpt lat="37.661775" lon="14.4846817"><ele>684.0</ele><time>2026-05-05T12:31:48.168Z</time></trkpt><trkpt lat="37.66178" lon="14.4844567"><ele>684.6666666666666</ele><time>2026-05-05T12:31:49.168Z</time></trkpt><trkpt lat="37.6617617" lon="14.4842183"><ele>685.3333333333333</ele><time>2026-05-05T12:31:50.168Z</time></trkpt><trkpt lat="37.66176" lon="14.483985"><ele>686.0</ele><time>2026-05-05T12:31:51.168Z</time></trkpt><trkpt lat="37.6617583" lon="14.48375"><ele>688.6666666666666</ele><time>2026-05-05T12:31:52.168Z</time></trkpt><trkpt lat="37.66176" lon="14.48352"><ele>691.3333333333334</ele><time>2026-05-05T12:31:53.169Z</time></trkpt><trkpt lat="37.6617667" lon="14.4832983"><ele>694.0</ele><time>2026-05-05T12:31:54.169Z</time></trkpt><trkpt lat="37.66177" lon="14.48308"><ele>693.3333333333334</ele><time>2026-05-05T12:31:55.168Z</time></trkpt><trkpt lat="37.6617783" lon="14.4828717"><ele>692.6666666666666</ele><time>2026-05-05T12:31:56.168Z</time></trkpt><trkpt lat="37.6617967" lon="14.4826617"><ele>692.0</ele><time>2026-05-05T12:31:57.168Z</time></trkpt><trkpt lat="37.6618267" lon="14.4824533"><ele>692.0</ele><time>2026-05-05T12:31:58.168Z</time></trkpt><trkpt lat="37.6618517" lon="14.482235"><ele>692.0</ele><time>2026-05-05T12:31:59.168Z</time></trkpt><trkpt lat="37.661865" lon="14.482005"><ele>692.0</ele><time>2026-05-05T12:32:00.168Z</time></trkpt><trkpt lat="37.6618533" lon="14.4817717"><ele>691.3333333333333</ele><time>2026-05-05T12:32:01.168Z</time></trkpt><trkpt lat="37.6618333" lon="14.4815333"><ele>690.6666666666666</ele><time>2026-05-05T12:32:02.168Z</time></trkpt><trkpt lat="37.6618117" lon="14.4812883"><ele>690.0</ele><time>2026-05-05T12:32:03.168Z</time></trkpt><trkpt lat="37.6617883" lon="14.48105"><ele>692.6666666666666</ele><time>2026-05-05T12:32:04.168Z</time></trkpt><trkpt lat="37.6617717" lon="14.4808117"><ele>695.3333333333333</ele><time>2026-05-05T12:32:05.169Z</time></trkpt><trkpt lat="37.66175" lon="14.4805717"><ele>698.0</ele><time>2026-05-05T12:32:06.168Z</time></trkpt><trkpt lat="37.661725" lon="14.4803333"><ele>701.0</ele><time>2026-05-05T12:32:07.169Z</time></trkpt><trkpt lat="37.6617067" lon="14.480115"><ele>704.0</ele><time>2026-05-05T12:32:08.168Z</time></trkpt><trkpt lat="37.6616883" lon="14.4799167"><ele>707.0</ele><time>2026-05-05T12:32:09.168Z</time></trkpt><trkpt lat="37.661665" lon="14.479725"><ele>706.5</ele><time>2026-05-05T12:32:10.168Z</time></trkpt><trkpt lat="37.6616567" lon="14.4795433"><ele>706.0</ele><time>2026-05-05T12:32:11.168Z</time></trkpt><trkpt lat="37.6616733" lon="14.4793567"><ele>705.5</ele><time>2026-05-05T12:32:12.168Z</time></trkpt><trkpt lat="37.6617117" lon="14.479165"><ele>705.0</ele><time>2026-05-05T12:32:13.168Z</time></trkpt><trkpt lat="37.6617533" lon="14.4789833"><ele>705.0</ele><time>2026-05-05T12:32:14.168Z</time></trkpt><trkpt lat="37.66177" lon="14.47879"><ele>705.0</ele><time>2026-05-05T12:32:15.168Z</time></trkpt><trkpt lat="37.6617467" lon="14.4785933"><ele>705.0</ele><time>2026-05-05T12:32:16.168Z</time></trkpt><trkpt lat="37.661675" lon="14.4784167"><ele>705.0</ele><time>2026-05-05T12:32:17.168Z</time></trkpt><trkpt lat="37.66157" lon="14.478255"><ele>705.0</ele><time>2026-05-05T12:32:18.168Z</time></trkpt><trkpt lat="37.661435" lon="14.4781133"><ele>705.0</ele><time>2026-05-05T12:32:19.168Z</time></trkpt><trkpt lat="37.66129" lon="14.47799"><ele>706.6666666666666</ele><time>2026-05-05T12:32:20.169Z</time></trkpt><trkpt lat="37.6611433" lon="14.4778867"><ele>708.3333333333333</ele><time>2026-05-05T12:32:21.169Z</time></trkpt><trkpt lat="37.6610017" lon="14.4778083"><ele>710.0</ele><time>2026-05-05T12:32:22.168Z</time></trkpt><trkpt lat="37.6608567" lon="14.4777233"><ele>710.0</ele><time>2026-05-05T12:32:23.168Z</time></trkpt><trkpt lat="37.6607317" lon="14.4776383"><ele>710.0</ele><time>2026-05-05T12:32:24.168Z</time></trkpt><trkpt lat="37.6606267" lon="14.4775367"><ele>710.0</ele><time>2026-05-05T12:32:25.168Z</time></trkpt><trkpt lat="37.6605367" lon="14.4774017"><ele>710.0</ele><time>2026-05-05T12:32:26.168Z</time></trkpt><trkpt lat="37.6605017" lon="14.477275"><ele>710.0</ele><time>2026-05-05T12:32:27.168Z</time></trkpt><trkpt lat="37.660505" lon="14.4771383"><ele>710.0</ele><time>2026-05-05T12:32:28.168Z</time></trkpt><trkpt lat="37.660555" lon="14.47703"><ele>710.0</ele><time>2026-05-05T12:32:29.168Z</time></trkpt><trkpt lat="37.6606567" lon="14.47695"><ele>710.0</ele><time>2026-05-05T12:32:30.168Z</time></trkpt><trkpt lat="37.6607967" lon="14.4768717"><ele>709.25</ele><time>2026-05-05T12:32:31.168Z</time></trkpt><trkpt lat="37.6609317" lon="14.47679"><ele>708.5</ele><time>2026-05-05T12:32:32.168Z</time></trkpt><trkpt lat="37.66106" lon="14.4767"><ele>707.75</ele><time>2026-05-05T12:32:33.169Z</time></trkpt><trkpt lat="37.6611717" lon="14.47659"><ele>707.0</ele><time>2026-05-05T12:32:34.168Z</time></trkpt><trkpt lat="37.66126" lon="14.4764683"><ele>708.5</ele><time>2026-05-05T12:32:35.168Z</time></trkpt><trkpt lat="37.6613117" lon="14.4763133"><ele>710.0</ele><time>2026-05-05T12:32:36.169Z</time></trkpt><trkpt lat="37.6613117" lon="14.476155"><ele>711.5</ele><time>2026-05-05T12:32:37.169Z</time></trkpt><trkpt lat="37.6612583" lon="14.4760083"><ele>713.0</ele><time>2026-05-05T12:32:38.168Z</time></trkpt><trkpt lat="37.6611617" lon="14.4759067"><ele>710.0</ele><time>2026-05-05T12:32:39.168Z</time></trkpt><trkpt lat="37.6610267" lon="14.4758283"><ele>707.0</ele><time>2026-05-05T12:32:40.169Z</time></trkpt><trkpt lat="37.6608817" lon="14.4757483"><ele>704.0</ele><time>2026-05-05T12:32:41.168Z</time></trkpt><trkpt lat="37.6607333" lon="14.4756633"><ele>704.0</ele><time>2026-05-05T12:32:42.168Z</time></trkpt><trkpt lat="37.66059" lon="14.4755817"><ele>704.0</ele><time>2026-05-05T12:32:43.168Z</time></trkpt><trkpt lat="37.6604517" lon="14.475505"><ele>704.0</ele><time>2026-05-05T12:32:44.169Z</time></trkpt><trkpt lat="37.660315" lon="14.47541"><ele>700.6666666666666</ele><time>2026-05-05T12:32:45.168Z</time></trkpt><trkpt lat="37.6602017" lon="14.4752883"><ele>697.3333333333334</ele><time>2026-05-05T12:32:46.168Z</time></trkpt><trkpt lat="37.6601217" lon="14.4751217"><ele>694.0</ele><time>2026-05-05T12:32:47.168Z</time></trkpt><trkpt lat="37.6600733" lon="14.4749183"><ele>694.0</ele><time>2026-05-05T12:32:48.169Z</time></trkpt><trkpt lat="37.6600267" lon="14.4747233"><ele>694.0</ele><time>2026-05-05T12:32:49.169Z</time></trkpt><trkpt lat="37.6599683" lon="14.4745433"><ele>694.0</ele><time>2026-05-05T12:32:50.168Z</time></trkpt><trkpt lat="37.6598817" lon="14.4743967"><ele>694.25</ele><time>2026-05-05T12:32:51.168Z</time></trkpt><trkpt lat="37.6597717" lon="14.474295"><ele>694.5</ele><time>2026-05-05T12:32:52.168Z</time></trkpt><trkpt lat="37.6596383" lon="14.4742617"><ele>694.75</ele><time>2026-05-05T12:32:53.168Z</time></trkpt><trkpt lat="37.6595033" lon="14.4743083"><ele>695.0</ele><time>2026-05-05T12:32:54.168Z</time></trkpt><trkpt lat="37.6593533" lon="14.4743767"><ele>695.0</ele><time>2026-05-05T12:32:55.168Z</time></trkpt><trkpt lat="37.6592017" lon="14.47444"><ele>695.0</ele><time>2026-05-05T12:32:56.168Z</time></trkpt><trkpt lat="37.6590417" lon="14.474475"><ele>695.0</ele><time>2026-05-05T12:32:57.169Z</time></trkpt><trkpt lat="37.6588667" lon="14.474485"><ele>695.0</ele><time>2026-05-05T12:32:58.168Z</time></trkpt><trkpt lat="37.6586817" lon="14.474485"><ele>695.0</ele><time>2026-05-05T12:32:59.169Z</time></trkpt><trkpt lat="37.6584983" lon="14.4744867"><ele>695.0</ele><time>2026-05-05T12:33:00.168Z</time></trkpt><trkpt lat="37.658315" lon="14.4744967"><ele>692.6666666666666</ele><time>2026-05-05T12:33:01.168Z</time></trkpt><trkpt lat="37.6581367" lon="14.47451"><ele>690.3333333333334</ele><time>2026-05-05T12:33:02.168Z</time></trkpt><trkpt lat="37.65796" lon="14.4745167"><ele>688.0</ele><time>2026-05-05T12:33:03.168Z</time></trkpt><trkpt lat="37.6577833" lon="14.4745167"><ele>684.0</ele><time>2026-05-05T12:33:04.168Z</time></trkpt><trkpt lat="37.657615" lon="14.4745133"><ele>680.0</ele><time>2026-05-05T12:33:05.168Z</time></trkpt><trkpt lat="37.657455" lon="14.47451"><ele>676.0</ele><time>2026-05-05T12:33:06.169Z</time></trkpt><trkpt lat="37.65729" lon="14.4745083"><ele>676.0</ele><time>2026-05-05T12:33:07.168Z</time></trkpt><trkpt lat="37.6571383" lon="14.4745033"><ele>676.0</ele><time>2026-05-05T12:33:08.168Z</time></trkpt><trkpt lat="37.6569917" lon="14.4744967"><ele>676.0</ele><time>2026-05-05T12:33:09.169Z</time></trkpt><trkpt lat="37.656875" lon="14.474485"><ele>676.0</ele><time>2026-05-05T12:33:10.168Z</time></trkpt><trkpt lat="37.6567733" lon="14.4744633"><ele>673.8</ele><time>2026-05-05T12:33:11.169Z</time></trkpt><trkpt lat="37.6566983" lon="14.4744117"><ele>671.5999999999999</ele><time>2026-05-05T12:33:12.168Z</time></trkpt><trkpt lat="37.6566433" lon="14.47432"><ele>669.4</ele><time>2026-05-05T12:33:13.168Z</time></trkpt><trkpt lat="37.6566317" lon="14.4742117"><ele>667.2</ele><time>2026-05-05T12:33:14.168Z</time></trkpt><trkpt lat="37.6566583" lon="14.474085"><ele>665.0</ele><time>2026-05-05T12:33:15.169Z</time></trkpt><trkpt lat="37.65672" lon="14.4739267"><ele>663.6666666666666</ele><time>2026-05-05T12:33:16.168Z</time></trkpt><trkpt lat="37.6567767" lon="14.4737283"><ele>662.3333333333334</ele><time>2026-05-05T12:33:17.168Z</time></trkpt><trkpt lat="37.6567983" lon="14.4734983"><ele>661.0</ele><time>2026-05-05T12:33:18.169Z</time></trkpt><trkpt lat="37.6567833" lon="14.473255"><ele>661.0</ele><time>2026-05-05T12:33:19.169Z</time></trkpt><trkpt lat="37.656765" lon="14.47301"><ele>661.0</ele><time>2026-05-05T12:33:20.168Z</time></trkpt><trkpt lat="37.6567433" lon="14.472765"><ele>661.0</ele><time>2026-05-05T12:33:21.168Z</time></trkpt><trkpt lat="37.65672" lon="14.4725117"><ele>661.6666666666667</ele><time>2026-05-05T12:33:22.168Z</time></trkpt><trkpt lat="37.6566967" lon="14.47226"><ele>662.3333333333334</ele><time>2026-05-05T12:33:23.168Z</time></trkpt><trkpt lat="37.6566767" lon="14.4720183"><ele>663.0</ele><time>2026-05-05T12:33:24.168Z</time></trkpt><trkpt lat="37.65666" lon="14.4717717"><ele>663.6666666666666</ele><time>2026-05-05T12:33:25.168Z</time></trkpt><trkpt lat="37.65664" lon="14.471525"><ele>664.3333333333333</ele><time>2026-05-05T12:33:26.168Z</time></trkpt><trkpt lat="37.6566333" lon="14.4712783"><ele>665.0</ele><time>2026-05-05T12:33:27.169Z</time></trkpt><trkpt lat="37.6566367" lon="14.4710333"><ele>665.0</ele><time>2026-05-05T12:33:28.168Z</time></trkpt><trkpt lat="37.6566467" lon="14.4707983"><ele>665.0</ele><time>2026-05-05T12:33:29.168Z</time></trkpt><trkpt lat="37.6566517" lon="14.470585"><ele>665.0</ele><time>2026-05-05T12:33:30.168Z</time></trkpt><trkpt lat="37.65666" lon="14.47038"><ele>665.6666666666666</ele><time>2026-05-05T12:33:31.168Z</time></trkpt><trkpt lat="37.656705" lon="14.4701917"><ele>666.3333333333334</ele><time>2026-05-05T12:33:32.168Z</time></trkpt><trkpt lat="37.656785" lon="14.47002"><ele>667.0</ele><time>2026-05-05T12:33:33.168Z</time></trkpt><trkpt lat="37.6568717" lon="14.46986"><ele>667.0</ele><time>2026-05-05T12:33:34.169Z</time></trkpt><trkpt lat="37.6569483" lon="14.4696783"><ele>667.0</ele><time>2026-05-05T12:33:35.169Z</time></trkpt><trkpt lat="37.6570033" lon="14.4694733"><ele>667.0</ele><time>2026-05-05T12:33:36.168Z</time></trkpt><trkpt lat="37.6570433" lon="14.4692567"><ele>663.3333333333334</ele><time>2026-05-05T12:33:37.168Z</time></trkpt><trkpt lat="37.6570767" lon="14.4690283"><ele>659.6666666666666</ele><time>2026-05-05T12:33:38.169Z</time></trkpt><trkpt lat="37.6571183" lon="14.468795"><ele>656.0</ele><time>2026-05-05T12:33:39.168Z</time></trkpt><trkpt lat="37.6571667" lon="14.468565"><ele>656.0</ele><time>2026-05-05T12:33:40.168Z</time></trkpt><trkpt lat="37.65721" lon="14.4683383"><ele>656.0</ele><time>2026-05-05T12:33:41.169Z</time></trkpt><trkpt lat="37.6572567" lon="14.4681183"><ele>656.0</ele><time>2026-05-05T12:33:42.168Z</time></trkpt><trkpt lat="37.6573017" lon="14.4679067"><ele>660.0</ele><time>2026-05-05T12:33:43.168Z</time></trkpt><trkpt lat="37.6573567" lon="14.4677017"><ele>664.0</ele><time>2026-05-05T12:33:44.168Z</time></trkpt><trkpt lat="37.6573933" lon="14.4675117"><ele>668.0</ele><time>2026-05-05T12:33:45.169Z</time></trkpt><trkpt lat="37.6574433" lon="14.4673417"><ele>668.0</ele><time>2026-05-05T12:33:46.168Z</time></trkpt><trkpt lat="37.6575117" lon="14.4671767"><ele>668.0</ele><time>2026-05-05T12:33:47.168Z</time></trkpt><trkpt lat="37.6576183" lon="14.4670383"><ele>668.0</ele><time>2026-05-05T12:33:48.168Z</time></trkpt><trkpt lat="37.65775" lon="14.4669367"><ele>668.0</ele><time>2026-05-05T12:33:49.168Z</time></trkpt><trkpt lat="37.657895" lon="14.4668667"><ele>668.0</ele><time>2026-05-05T12:33:50.168Z</time></trkpt><trkpt lat="37.658045" lon="14.4667967"><ele>668.0</ele><time>2026-05-05T12:33:51.168Z</time></trkpt><trkpt lat="37.6581917" lon="14.4666983"><ele>668.0</ele><time>2026-05-05T12:33:52.168Z</time></trkpt><trkpt lat="37.65832" lon="14.466575"><ele>668.0</ele><time>2026-05-05T12:33:53.168Z</time></trkpt><trkpt lat="37.6584317" lon="14.4664483"><ele>668.0</ele><time>2026-05-05T12:33:54.168Z</time></trkpt><trkpt lat="37.658535" lon="14.4663167"><ele>666.6666666666666</ele><time>2026-05-05T12:33:55.168Z</time></trkpt><trkpt lat="37.65862" lon="14.4661683"><ele>665.3333333333334</ele><time>2026-05-05T12:33:56.169Z</time></trkpt><trkpt lat="37.6586917" lon="14.465995"><ele>664.0</ele><time>2026-05-05T12:33:57.168Z</time></trkpt><trkpt lat="37.65875" lon="14.4658067"><ele>664.0</ele><time>2026-05-05T12:33:58.168Z</time></trkpt><trkpt lat="37.658805" lon="14.46561"><ele>664.0</ele><time>2026-05-05T12:33:59.168Z</time></trkpt><trkpt lat="37.6588567" lon="14.46541"><ele>664.0</ele><time>2026-05-05T12:34:00.168Z</time></trkpt><trkpt lat="37.6589017" lon="14.4652"><ele>666.0</ele><time>2026-05-05T12:34:01.168Z</time></trkpt><trkpt lat="37.658935" lon="14.464985"><ele>668.0</ele><time>2026-05-05T12:34:02.168Z</time></trkpt><trkpt lat="37.6589783" lon="14.464765"><ele>670.0</ele><time>2026-05-05T12:34:03.168Z</time></trkpt><trkpt lat="37.65903" lon="14.46454"><ele>673.0</ele><time>2026-05-05T12:34:04.168Z</time></trkpt><trkpt lat="37.6590867" lon="14.4643167"><ele>676.0</ele><time>2026-05-05T12:34:05.168Z</time></trkpt><trkpt lat="37.6591533" lon="14.4640917"><ele>679.0</ele><time>2026-05-05T12:34:06.168Z</time></trkpt><trkpt lat="37.659225" lon="14.4638633"><ele>683.3333333333334</ele><time>2026-05-05T12:34:07.168Z</time></trkpt><trkpt lat="37.6593017" lon="14.46364"><ele>687.6666666666666</ele><time>2026-05-05T12:34:08.168Z</time></trkpt><trkpt lat="37.6593767" lon="14.46341"><ele>692.0</ele><time>2026-05-05T12:34:09.168Z</time></trkpt><trkpt lat="37.65945" lon="14.46318"><ele>688.0</ele><time>2026-05-05T12:34:10.168Z</time></trkpt><trkpt lat="37.6595267" lon="14.4629517"><ele>684.0</ele><time>2026-05-05T12:34:11.169Z</time></trkpt><trkpt lat="37.6596017" lon="14.462725"><ele>680.0</ele><time>2026-05-05T12:34:12.168Z</time></trkpt><trkpt lat="37.6596817" lon="14.4625033"><ele>680.0</ele><time>2026-05-05T12:34:13.168Z</time></trkpt><trkpt lat="37.65975" lon="14.462295"><ele>680.0</ele><time>2026-05-05T12:34:14.168Z</time></trkpt><trkpt lat="37.6598217" lon="14.462095"><ele>680.0</ele><time>2026-05-05T12:34:15.168Z</time></trkpt><trkpt lat="37.6598833" lon="14.4618967"><ele>684.0</ele><time>2026-05-05T12:34:16.168Z</time></trkpt><trkpt lat="37.6599233" lon="14.46169"><ele>688.0</ele><time>2026-05-05T12:34:17.168Z</time></trkpt><trkpt lat="37.6599483" lon="14.4614783"><ele>692.0</ele><time>2026-05-05T12:34:18.168Z</time></trkpt><trkpt lat="37.6599483" lon="14.461265"><ele>694.6666666666666</ele><time>2026-05-05T12:34:19.169Z</time></trkpt><trkpt lat="37.6599433" lon="14.461055"><ele>697.3333333333334</ele><time>2026-05-05T12:34:20.169Z</time></trkpt><trkpt lat="37.6599133" lon="14.4608483"><ele>700.0</ele><time>2026-05-05T12:34:21.169Z</time></trkpt><trkpt lat="37.6598683" lon="14.460645"><ele>701.0</ele><time>2026-05-05T12:34:22.168Z</time></trkpt><trkpt lat="37.6598017" lon="14.4604467"><ele>702.0</ele><time>2026-05-05T12:34:23.168Z</time></trkpt><trkpt lat="37.65974" lon="14.4602483"><ele>703.0</ele><time>2026-05-05T12:34:24.168Z</time></trkpt><trkpt lat="37.6596667" lon="14.4600567"><ele>703.0</ele><time>2026-05-05T12:34:25.168Z</time></trkpt><trkpt lat="37.6596" lon="14.45987"><ele>703.0</ele><time>2026-05-05T12:34:26.168Z</time></trkpt><trkpt lat="37.65952" lon="14.4596967"><ele>703.0</ele><time>2026-05-05T12:34:27.168Z</time></trkpt><trkpt lat="37.65943" lon="14.4595317"><ele>701.0</ele><time>2026-05-05T12:34:28.168Z</time></trkpt><trkpt lat="37.6593167" lon="14.4593917"><ele>699.0</ele><time>2026-05-05T12:34:29.168Z</time></trkpt><trkpt lat="37.6591883" lon="14.4592617"><ele>697.0</ele><time>2026-05-05T12:34:30.168Z</time></trkpt><trkpt lat="37.6590567" lon="14.45913"><ele>697.0</ele><time>2026-05-05T12:34:31.168Z</time></trkpt><trkpt lat="37.6589167" lon="14.4590083"><ele>697.0</ele><time>2026-05-05T12:34:32.168Z</time></trkpt><trkpt lat="37.6587817" lon="14.458885"><ele>697.0</ele><time>2026-05-05T12:34:33.169Z</time></trkpt><trkpt lat="37.6586567" lon="14.4587583"><ele>693.6666666666667</ele><time>2026-05-05T12:34:34.168Z</time></trkpt><trkpt lat="37.6585383" lon="14.4586267"><ele>690.3333333333334</ele><time>2026-05-05T12:34:35.168Z</time></trkpt><trkpt lat="37.65843" lon="14.4584917"><ele>687.0</ele><time>2026-05-05T12:34:36.168Z</time></trkpt><trkpt lat="37.6583183" lon="14.4583617"><ele>687.0</ele><time>2026-05-05T12:34:37.168Z</time></trkpt><trkpt lat="37.6581983" lon="14.45826"><ele>687.0</ele><time>2026-05-05T12:34:38.168Z</time></trkpt><trkpt lat="37.658065" lon="14.4581817"><ele>687.0</ele><time>2026-05-05T12:34:39.168Z</time></trkpt><trkpt lat="37.6579317" lon="14.4581433"><ele>687.0</ele><time>2026-05-05T12:34:40.168Z</time></trkpt><trkpt lat="37.6578133" lon="14.4581383"><ele>687.6</ele><time>2026-05-05T12:34:41.168Z</time></trkpt><trkpt lat="37.657705" lon="14.4581567"><ele>688.2</ele><time>2026-05-05T12:34:42.168Z</time></trkpt><trkpt lat="37.6576167" lon="14.4581833"><ele>688.8</ele><time>2026-05-05T12:34:43.168Z</time></trkpt><trkpt lat="37.657545" lon="14.4582"><ele>689.4</ele><time>2026-05-05T12:34:44.169Z</time></trkpt><trkpt lat="37.6574417" lon="14.4582233"><ele>690.0</ele><time>2026-05-05T12:34:46.168Z</time></trkpt><trkpt lat="37.6573417" lon="14.45827"><ele>690.0</ele><time>2026-05-05T12:35:04.168Z</time></trkpt><trkpt lat="37.65727" lon="14.4582933"><ele>690.0</ele><time>2026-05-05T12:35:05.168Z</time></trkpt><trkpt lat="37.6571833" lon="14.4583117"><ele>690.0</ele><time>2026-05-05T12:35:06.168Z</time></trkpt><trkpt lat="37.6570883" lon="14.458315"><ele>690.0</ele><time>2026-05-05T12:35:07.169Z</time></trkpt><trkpt lat="37.6569983" lon="14.458305"><ele>690.0</ele><time>2026-05-05T12:35:08.168Z</time></trkpt><trkpt lat="37.656895" lon="14.4582833"><ele>690.5</ele><time>2026-05-05T12:35:09.168Z</time></trkpt><trkpt lat="37.65678" lon="14.45825"><ele>691.0</ele><time>2026-05-05T12:35:10.169Z</time></trkpt><trkpt lat="37.6566667" lon="14.4582067"><ele>691.5</ele><time>2026-05-05T12:35:11.168Z</time></trkpt><trkpt lat="37.6565617" lon="14.458155"><ele>692.0</ele><time>2026-05-05T12:35:12.168Z</time></trkpt><trkpt lat="37.6564583" lon="14.458085"><ele>692.0</ele><time>2026-05-05T12:35:13.168Z</time></trkpt><trkpt lat="37.6563567" lon="14.458"><ele>692.0</ele><time>2026-05-05T12:35:14.167Z</time></trkpt><trkpt lat="37.6562583" lon="14.4579167"><ele>692.0</ele><time>2026-05-05T12:35:15.167Z</time></trkpt><trkpt lat="37.6561717" lon="14.4578383"><ele>692.0</ele><time>2026-05-05T12:35:16.167Z</time></trkpt><trkpt lat="37.6561033" lon="14.4577467"><ele>692.0</ele><time>2026-05-05T12:35:17.167Z</time></trkpt><trkpt lat="37.65604" lon="14.45764"><ele>692.75</ele><time>2026-05-05T12:35:18.167Z</time></trkpt><trkpt lat="37.65598" lon="14.457525"><ele>693.5</ele><time>2026-05-05T12:35:19.167Z</time></trkpt><trkpt lat="37.6559317" lon="14.457395"><ele>694.25</ele><time>2026-05-05T12:35:20.168Z</time></trkpt><trkpt lat="37.6558967" lon="14.45725"><ele>695.0</ele><time>2026-05-05T12:35:21.168Z</time></trkpt><trkpt lat="37.655865" lon="14.4571"><ele>693.0</ele><time>2026-05-05T12:35:22.168Z</time></trkpt><trkpt lat="37.6558567" lon="14.45695"><ele>691.0</ele><time>2026-05-05T12:35:23.167Z</time></trkpt><trkpt lat="37.6558367" lon="14.4568017"><ele>689.0</ele><time>2026-05-05T12:35:24.167Z</time></trkpt><trkpt lat="37.65583" lon="14.4566617"><ele>687.0</ele><time>2026-05-05T12:35:25.167Z</time></trkpt><trkpt lat="37.6558267" lon="14.4565117"><ele>687.0</ele><time>2026-05-05T12:35:26.168Z</time></trkpt><trkpt lat="37.6558233" lon="14.4563567"><ele>687.0</ele><time>2026-05-05T12:35:27.167Z</time></trkpt><trkpt lat="37.6558033" lon="14.4561933"><ele>687.0</ele><time>2026-05-05T12:35:28.167Z</time></trkpt><trkpt lat="37.6557783" lon="14.4560333"><ele>687.0</ele><time>2026-05-05T12:35:29.167Z</time></trkpt><trkpt lat="37.6557333" lon="14.455875"><ele>684.0</ele><time>2026-05-05T12:35:30.167Z</time></trkpt><trkpt lat="37.6556833" lon="14.45572"><ele>681.0</ele><time>2026-05-05T12:35:31.168Z</time></trkpt><trkpt lat="37.6556267" lon="14.455575"><ele>678.0</ele><time>2026-05-05T12:35:32.167Z</time></trkpt><trkpt lat="37.6555633" lon="14.4554283"><ele>675.0</ele><time>2026-05-05T12:35:33.167Z</time></trkpt><trkpt lat="37.6555033" lon="14.455285"><ele>672.5</ele><time>2026-05-05T12:35:34.167Z</time></trkpt><trkpt lat="37.65545" lon="14.455135"><ele>670.0</ele><time>2026-05-05T12:35:35.168Z</time></trkpt><trkpt lat="37.655395" lon="14.4549817"><ele>667.5</ele><time>2026-05-05T12:35:36.168Z</time></trkpt><trkpt lat="37.6553567" lon="14.4548283"><ele>665.0</ele><time>2026-05-05T12:35:37.167Z</time></trkpt><trkpt lat="37.6553183" lon="14.4546667"><ele>668.25</ele><time>2026-05-05T12:35:38.167Z</time></trkpt><trkpt lat="37.6552733" lon="14.45452"><ele>671.5</ele><time>2026-05-05T12:35:39.167Z</time></trkpt><trkpt lat="37.6552367" lon="14.4543717"><ele>674.75</ele><time>2026-05-05T12:35:40.167Z</time></trkpt><trkpt lat="37.6551983" lon="14.4542333"><ele>678.0</ele><time>2026-05-05T12:35:41.167Z</time></trkpt><trkpt lat="37.655165" lon="14.4540883"><ele>678.0</ele><time>2026-05-05T12:35:42.167Z</time></trkpt><trkpt lat="37.6551317" lon="14.4539567"><ele>678.0</ele><time>2026-05-05T12:35:43.168Z</time></trkpt><trkpt lat="37.655095" lon="14.4538217"><ele>678.0</ele><time>2026-05-05T12:35:44.167Z</time></trkpt><trkpt lat="37.65506" lon="14.45369"><ele>678.0</ele><time>2026-05-05T12:35:45.167Z</time></trkpt><trkpt lat="37.655015" lon="14.453565"><ele>678.0</ele><time>2026-05-05T12:35:46.167Z</time></trkpt><trkpt lat="37.6549717" lon="14.4534467"><ele>677.0</ele><time>2026-05-05T12:35:47.167Z</time></trkpt><trkpt lat="37.6549083" lon="14.4533283"><ele>676.0</ele><time>2026-05-05T12:35:48.167Z</time></trkpt><trkpt lat="37.6548417" lon="14.4532233"><ele>675.0</ele><time>2026-05-05T12:35:49.167Z</time></trkpt><trkpt lat="37.65476" lon="14.453135"><ele>674.0</ele><time>2026-05-05T12:35:50.167Z</time></trkpt><trkpt lat="37.6546683" lon="14.4530617"><ele>673.0</ele><time>2026-05-05T12:35:51.167Z</time></trkpt><trkpt lat="37.6545667" lon="14.4529917"><ele>674.25</ele><time>2026-05-05T12:35:52.167Z</time></trkpt><trkpt lat="37.6544567" lon="14.4529233"><ele>675.5</ele><time>2026-05-05T12:35:53.167Z</time></trkpt><trkpt lat="37.6543483" lon="14.452845"><ele>676.75</ele><time>2026-05-05T12:35:54.167Z</time></trkpt><trkpt lat="37.65425" lon="14.4527533"><ele>678.0</ele><time>2026-05-05T12:35:55.167Z</time></trkpt><trkpt lat="37.6541583" lon="14.4526467"><ele>678.0</ele><time>2026-05-05T12:35:56.167Z</time></trkpt><trkpt lat="37.6540667" lon="14.4525283"><ele>678.0</ele><time>2026-05-05T12:35:57.167Z</time></trkpt><trkpt lat="37.6539933" lon="14.4524183"><ele>678.0</ele><time>2026-05-05T12:35:58.167Z</time></trkpt><trkpt lat="37.653905" lon="14.4522983"><ele>678.0</ele><time>2026-05-05T12:35:59.167Z</time></trkpt><trkpt lat="37.6538283" lon="14.4521683"><ele>679.0</ele><time>2026-05-05T12:36:00.167Z</time></trkpt><trkpt lat="37.6537667" lon="14.452035"><ele>680.0</ele><time>2026-05-05T12:36:01.167Z</time></trkpt><trkpt lat="37.6537017" lon="14.4518883"><ele>681.0</ele><time>2026-05-05T12:36:02.167Z</time></trkpt><trkpt lat="37.6536467" lon="14.4517433"><ele>682.0</ele><time>2026-05-05T12:36:03.167Z</time></trkpt><trkpt lat="37.6536117" lon="14.4515867"><ele>681.5</ele><time>2026-05-05T12:36:04.167Z</time></trkpt><trkpt lat="37.653585" lon="14.45143"><ele>681.0</ele><time>2026-05-05T12:36:05.167Z</time></trkpt><trkpt lat="37.65357" lon="14.4512733"><ele>680.5</ele><time>2026-05-05T12:36:06.167Z</time></trkpt><trkpt lat="37.653555" lon="14.4511267"><ele>680.0</ele><time>2026-05-05T12:36:07.167Z</time></trkpt><trkpt lat="37.653545" lon="14.45099"><ele>680.0</ele><time>2026-05-05T12:36:08.167Z</time></trkpt><trkpt lat="37.65353" lon="14.4508633"><ele>680.0</ele><time>2026-05-05T12:36:09.167Z</time></trkpt><trkpt lat="37.65352" lon="14.4507333"><ele>680.0</ele><time>2026-05-05T12:36:10.168Z</time></trkpt><trkpt lat="37.6535117" lon="14.45061"><ele>680.0</ele><time>2026-05-05T12:36:11.168Z</time></trkpt><trkpt lat="37.653505" lon="14.4504883"><ele>680.0</ele><time>2026-05-05T12:36:12.167Z</time></trkpt><trkpt lat="37.6534917" lon="14.45038"><ele>679.6666666666666</ele><time>2026-05-05T12:36:13.167Z</time></trkpt><trkpt lat="37.6534833" lon="14.45028"><ele>679.3333333333333</ele><time>2026-05-05T12:36:14.168Z</time></trkpt><trkpt lat="37.6534733" lon="14.4501383"><ele>679.0</ele><time>2026-05-05T12:36:16.167Z</time></trkpt><trkpt lat="37.6534617" lon="14.4500467"><ele>678.6666666666666</ele><time>2026-05-05T12:36:19.167Z</time></trkpt><trkpt lat="37.65344" lon="14.4499067"><ele>678.3333333333334</ele><time>2026-05-05T12:36:43.167Z</time></trkpt><trkpt lat="37.6534333" lon="14.449825"><ele>678.0</ele><time>2026-05-05T12:36:44.167Z</time></trkpt><trkpt lat="37.6534283" lon="14.4497267"><ele>677.0</ele><time>2026-05-05T12:36:45.168Z</time></trkpt><trkpt lat="37.6534283" lon="14.4495933"><ele>676.0</ele><time>2026-05-05T12:36:46.167Z</time></trkpt><trkpt lat="37.6534533" lon="14.4494333"><ele>675.0</ele><time>2026-05-05T12:36:47.167Z</time></trkpt><trkpt lat="37.6534867" lon="14.4492817"><ele>674.0</ele><time>2026-05-05T12:36:48.168Z</time></trkpt><trkpt lat="37.6535233" lon="14.4491283"><ele>674.0</ele><time>2026-05-05T12:36:49.167Z</time></trkpt><trkpt lat="37.6535617" lon="14.4489717"><ele>674.0</ele><time>2026-05-05T12:36:50.167Z</time></trkpt><trkpt lat="37.65359" lon="14.4488117"><ele>674.0</ele><time>2026-05-05T12:36:51.167Z</time></trkpt><trkpt lat="37.6536133" lon="14.4486533"><ele>674.0</ele><time>2026-05-05T12:36:52.168Z</time></trkpt><trkpt lat="37.6536367" lon="14.4484983"><ele>675.0</ele><time>2026-05-05T12:36:53.168Z</time></trkpt><trkpt lat="37.6536683" lon="14.448335"><ele>676.0</ele><time>2026-05-05T12:36:54.167Z</time></trkpt><trkpt lat="37.6536917" lon="14.4481767"><ele>677.0</ele><time>2026-05-05T12:36:55.168Z</time></trkpt><trkpt lat="37.653735" lon="14.44802"><ele>678.0</ele><time>2026-05-05T12:36:56.167Z</time></trkpt><trkpt lat="37.6537667" lon="14.4478617"><ele>679.25</ele><time>2026-05-05T12:36:57.167Z</time></trkpt><trkpt lat="37.6537867" lon="14.4476967"><ele>680.5</ele><time>2026-05-05T12:36:58.167Z</time></trkpt><trkpt lat="37.6538267" lon="14.44754"><ele>681.75</ele><time>2026-05-05T12:36:59.167Z</time></trkpt><trkpt lat="37.6538583" lon="14.44739"><ele>683.0</ele><time>2026-05-05T12:37:00.167Z</time></trkpt><trkpt lat="37.6539" lon="14.4472417"><ele>684.5</ele><time>2026-05-05T12:37:01.167Z</time></trkpt><trkpt lat="37.65394" lon="14.4470883"><ele>686.0</ele><time>2026-05-05T12:37:02.167Z</time></trkpt><trkpt lat="37.6539617" lon="14.4469317"><ele>687.5</ele><time>2026-05-05T12:37:03.167Z</time></trkpt><trkpt lat="37.653995" lon="14.4467817"><ele>689.0</ele><time>2026-05-05T12:37:04.167Z</time></trkpt><trkpt lat="37.6540217" lon="14.4466067"><ele>689.0</ele><time>2026-05-05T12:37:05.167Z</time></trkpt><trkpt lat="37.6540533" lon="14.4464433"><ele>689.0</ele><time>2026-05-05T12:37:06.167Z</time></trkpt><trkpt lat="37.6540867" lon="14.4462867"><ele>689.0</ele><time>2026-05-05T12:37:07.167Z</time></trkpt><trkpt lat="37.6541133" lon="14.4461283"><ele>689.0</ele><time>2026-05-05T12:37:08.168Z</time></trkpt><trkpt lat="37.65414" lon="14.4459767"><ele>689.6</ele><time>2026-05-05T12:37:09.167Z</time></trkpt><trkpt lat="37.6541667" lon="14.4458367"><ele>690.2</ele><time>2026-05-05T12:37:10.167Z</time></trkpt><trkpt lat="37.6541917" lon="14.4456983"><ele>690.8000000000001</ele><time>2026-05-05T12:37:11.167Z</time></trkpt><trkpt lat="37.6542233" lon="14.4455767"><ele>691.4000000000001</ele><time>2026-05-05T12:37:12.167Z</time></trkpt><trkpt lat="37.65425" lon="14.44548"><ele>692.0</ele><time>2026-05-05T12:37:13.167Z</time></trkpt><trkpt lat="37.654285" lon="14.44538"><ele>692.4000000000001</ele><time>2026-05-05T12:37:15.168Z</time></trkpt><trkpt lat="37.654305" lon="14.4452967"><ele>692.8000000000001</ele><time>2026-05-05T12:37:17.167Z</time></trkpt><trkpt lat="37.6542633" lon="14.44513"><ele>693.2</ele><time>2026-05-05T12:37:19.167Z</time></trkpt><trkpt lat="37.654225" lon="14.4450383"><ele>693.6</ele><time>2026-05-05T12:37:20.167Z</time></trkpt><trkpt lat="37.654175" lon="14.4449333"><ele>694.0</ele><time>2026-05-05T12:37:21.167Z</time></trkpt><trkpt lat="37.65412" lon="14.4448167"><ele>694.0</ele><time>2026-05-05T12:37:22.167Z</time></trkpt><trkpt lat="37.654065" lon="14.4446917"><ele>694.0</ele><time>2026-05-05T12:37:23.167Z</time></trkpt><trkpt lat="37.6539983" lon="14.4445483"><ele>694.0</ele><time>2026-05-05T12:37:24.168Z</time></trkpt><trkpt lat="37.6539267" lon="14.4444"><ele>694.0</ele><time>2026-05-05T12:37:25.168Z</time></trkpt><trkpt lat="37.65385" lon="14.4442383"><ele>694.0</ele><time>2026-05-05T12:37:26.167Z</time></trkpt><trkpt lat="37.6537767" lon="14.444085"><ele>694.0</ele><time>2026-05-05T12:37:27.167Z</time></trkpt><trkpt lat="37.653705" lon="14.443925"><ele>694.0</ele><time>2026-05-05T12:37:28.167Z</time></trkpt><trkpt lat="37.65363" lon="14.4437683"><ele>694.0</ele><time>2026-05-05T12:37:29.168Z</time></trkpt><trkpt lat="37.653545" lon="14.44361"><ele>695.6666666666667</ele><time>2026-05-05T12:37:30.168Z</time></trkpt><trkpt lat="37.6534567" lon="14.4434617"><ele>697.3333333333334</ele><time>2026-05-05T12:37:31.167Z</time></trkpt><trkpt lat="37.6533533" lon="14.4433183"><ele>699.0</ele><time>2026-05-05T12:37:32.167Z</time></trkpt><trkpt lat="37.653245" lon="14.443175"><ele>699.0</ele><time>2026-05-05T12:37:33.167Z</time></trkpt><trkpt lat="37.65314" lon="14.4430117"><ele>699.0</ele><time>2026-05-05T12:37:34.167Z</time></trkpt><trkpt lat="37.6530383" lon="14.4428367"><ele>699.0</ele><time>2026-05-05T12:37:35.167Z</time></trkpt><trkpt lat="37.6529483" lon="14.4426583"><ele>700.6666666666666</ele><time>2026-05-05T12:37:36.168Z</time></trkpt><trkpt lat="37.652855" lon="14.4424933"><ele>702.3333333333333</ele><time>2026-05-05T12:37:37.167Z</time></trkpt><trkpt lat="37.65277" lon="14.4423317"><ele>704.0</ele><time>2026-05-05T12:37:38.167Z</time></trkpt><trkpt lat="37.6526867" lon="14.4421667"><ele>701.6666666666666</ele><time>2026-05-05T12:37:39.167Z</time></trkpt><trkpt lat="37.6525833" lon="14.44201"><ele>699.3333333333334</ele><time>2026-05-05T12:37:40.168Z</time></trkpt><trkpt lat="37.65247" lon="14.441855"><ele>697.0</ele><time>2026-05-05T12:37:41.168Z</time></trkpt><trkpt lat="37.6523467" lon="14.441705"><ele>697.0</ele><time>2026-05-05T12:37:42.167Z</time></trkpt><trkpt lat="37.6522167" lon="14.441555"><ele>697.0</ele><time>2026-05-05T12:37:43.168Z</time></trkpt><trkpt lat="37.652085" lon="14.4414033"><ele>697.0</ele><time>2026-05-05T12:37:44.167Z</time></trkpt><trkpt lat="37.6519517" lon="14.4412517"><ele>698.0</ele><time>2026-05-05T12:37:45.167Z</time></trkpt><trkpt lat="37.6518133" lon="14.4410967"><ele>699.0</ele><time>2026-05-05T12:37:46.167Z</time></trkpt><trkpt lat="37.6516783" lon="14.440945"><ele>700.0</ele><time>2026-05-05T12:37:47.167Z</time></trkpt><trkpt lat="37.6515367" lon="14.4407867"><ele>700.0</ele><time>2026-05-05T12:37:48.167Z</time></trkpt><trkpt lat="37.6513917" lon="14.4406283"><ele>700.0</ele><time>2026-05-05T12:37:49.167Z</time></trkpt><trkpt lat="37.651245" lon="14.4404783"><ele>700.0</ele><time>2026-05-05T12:37:50.167Z</time></trkpt><trkpt lat="37.6511117" lon="14.4403317"><ele>702.6666666666667</ele><time>2026-05-05T12:37:51.168Z</time></trkpt><trkpt lat="37.65098" lon="14.440185"><ele>705.3333333333334</ele><time>2026-05-05T12:37:52.167Z</time></trkpt><trkpt lat="37.65086" lon="14.4400033"><ele>708.0</ele><time>2026-05-05T12:37:53.167Z</time></trkpt><trkpt lat="37.6507617" lon="14.4398133"><ele>707.6666666666666</ele><time>2026-05-05T12:37:54.167Z</time></trkpt><trkpt lat="37.650685" lon="14.4396017"><ele>707.3333333333333</ele><time>2026-05-05T12:37:55.167Z</time></trkpt><trkpt lat="37.650615" lon="14.43938"><ele>707.0</ele><time>2026-05-05T12:37:56.167Z</time></trkpt><trkpt lat="37.6505433" lon="14.4391517"><ele>707.0</ele><time>2026-05-05T12:37:57.168Z</time></trkpt><trkpt lat="37.65047" lon="14.4389167"><ele>707.0</ele><time>2026-05-05T12:37:58.168Z</time></trkpt><trkpt lat="37.6503933" lon="14.4386783"><ele>707.0</ele><time>2026-05-05T12:37:59.167Z</time></trkpt><trkpt lat="37.6503217" lon="14.4384467"><ele>711.0</ele><time>2026-05-05T12:38:00.167Z</time></trkpt><trkpt lat="37.6502417" lon="14.4382083"><ele>715.0</ele><time>2026-05-05T12:38:01.167Z</time></trkpt><trkpt lat="37.6501667" lon="14.4379733"><ele>719.0</ele><time>2026-05-05T12:38:02.167Z</time></trkpt><trkpt lat="37.65008" lon="14.43774"><ele>719.0</ele><time>2026-05-05T12:38:03.168Z</time></trkpt><trkpt lat="37.65001" lon="14.4375133"><ele>719.0</ele><time>2026-05-05T12:38:04.167Z</time></trkpt><trkpt lat="37.64994" lon="14.4373033"><ele>719.0</ele><time>2026-05-05T12:38:05.167Z</time></trkpt><trkpt lat="37.64987" lon="14.437105"><ele>719.75</ele><time>2026-05-05T12:38:06.167Z</time></trkpt><trkpt lat="37.6498067" lon="14.4369233"><ele>720.5</ele><time>2026-05-05T12:38:07.168Z</time></trkpt><trkpt lat="37.6497483" lon="14.4367417"><ele>721.25</ele><time>2026-05-05T12:38:08.167Z</time></trkpt><trkpt lat="37.649715" lon="14.4365767"><ele>722.0</ele><time>2026-05-05T12:38:09.168Z</time></trkpt><trkpt lat="37.649715" lon="14.4364117"><ele>723.0</ele><time>2026-05-05T12:38:10.167Z</time></trkpt><trkpt lat="37.6497567" lon="14.43624"><ele>724.0</ele><time>2026-05-05T12:38:11.168Z</time></trkpt><trkpt lat="37.6498383" lon="14.4360867"><ele>725.0</ele><time>2026-05-05T12:38:12.167Z</time></trkpt><trkpt lat="37.649955" lon="14.435965"><ele>726.0</ele><time>2026-05-05T12:38:13.167Z</time></trkpt><trkpt lat="37.65009" lon="14.4358667"><ele>726.0</ele><time>2026-05-05T12:38:14.167Z</time></trkpt><trkpt lat="37.6502433" lon="14.4357833"><ele>726.0</ele><time>2026-05-05T12:38:15.167Z</time></trkpt><trkpt lat="37.6504083" lon="14.4356983"><ele>726.0</ele><time>2026-05-05T12:38:16.167Z</time></trkpt><trkpt lat="37.6505733" lon="14.4356033"><ele>727.6666666666666</ele><time>2026-05-05T12:38:17.167Z</time></trkpt><trkpt lat="37.6507367" lon="14.4355117"><ele>729.3333333333333</ele><time>2026-05-05T12:38:18.167Z</time></trkpt><trkpt lat="37.6508967" lon="14.43542"><ele>731.0</ele><time>2026-05-05T12:38:19.167Z</time></trkpt><trkpt lat="37.6510533" lon="14.435325"><ele>732.0</ele><time>2026-05-05T12:38:20.167Z</time></trkpt><trkpt lat="37.6511917" lon="14.4352083"><ele>733.0</ele><time>2026-05-05T12:38:21.167Z</time></trkpt><trkpt lat="37.6513233" lon="14.4350783"><ele>734.0</ele><time>2026-05-05T12:38:22.167Z</time></trkpt><trkpt lat="37.65145" lon="14.434945"><ele>734.0</ele><time>2026-05-05T12:38:23.167Z</time></trkpt><trkpt lat="37.6515567" lon="14.4348183"><ele>734.0</ele><time>2026-05-05T12:38:24.168Z</time></trkpt><trkpt lat="37.6516433" lon="14.4346783"><ele>734.0</ele><time>2026-05-05T12:38:25.167Z</time></trkpt><trkpt lat="37.6517017" lon="14.4345167"><ele>734.0</ele><time>2026-05-05T12:38:26.167Z</time></trkpt><trkpt lat="37.6517083" lon="14.434345"><ele>734.0</ele><time>2026-05-05T12:38:27.167Z</time></trkpt><trkpt lat="37.651675" lon="14.434155"><ele>734.0</ele><time>2026-05-05T12:38:28.167Z</time></trkpt><trkpt lat="37.6516233" lon="14.43396"><ele>734.0</ele><time>2026-05-05T12:38:29.168Z</time></trkpt><trkpt lat="37.6515733" lon="14.433755"><ele>734.3333333333333</ele><time>2026-05-05T12:38:30.167Z</time></trkpt><trkpt lat="37.65152" lon="14.4335433"><ele>734.6666666666666</ele><time>2026-05-05T12:38:31.167Z</time></trkpt><trkpt lat="37.6514733" lon="14.4333217"><ele>735.0</ele><time>2026-05-05T12:38:32.167Z</time></trkpt><trkpt lat="37.6514217" lon="14.4330867"><ele>736.3333333333334</ele><time>2026-05-05T12:38:33.167Z</time></trkpt><trkpt lat="37.6513717" lon="14.43285"><ele>737.6666666666667</ele><time>2026-05-05T12:38:34.167Z</time></trkpt><trkpt lat="37.6513267" lon="14.4326067"><ele>739.0</ele><time>2026-05-05T12:38:35.167Z</time></trkpt><trkpt lat="37.6512667" lon="14.4323667"><ele>740.6666666666667</ele><time>2026-05-05T12:38:36.167Z</time></trkpt><trkpt lat="37.6512067" lon="14.43213"><ele>742.3333333333334</ele><time>2026-05-05T12:38:37.168Z</time></trkpt><trkpt lat="37.65116" lon="14.4318967"><ele>744.0</ele><time>2026-05-05T12:38:38.167Z</time></trkpt><trkpt lat="37.65112" lon="14.43167"><ele>744.0</ele><time>2026-05-05T12:38:39.168Z</time></trkpt><trkpt lat="37.6510683" lon="14.4314317"><ele>744.0</ele><time>2026-05-05T12:38:40.167Z</time></trkpt><trkpt lat="37.65102" lon="14.43119"><ele>744.0</ele><time>2026-05-05T12:38:41.167Z</time></trkpt><trkpt lat="37.6509767" lon="14.4309533"><ele>745.3333333333334</ele><time>2026-05-05T12:38:42.167Z</time></trkpt><trkpt lat="37.650935" lon="14.4307167"><ele>746.6666666666667</ele><time>2026-05-05T12:38:43.167Z</time></trkpt><trkpt lat="37.6508983" lon="14.4304717"><ele>748.0</ele><time>2026-05-05T12:38:44.167Z</time></trkpt><trkpt lat="37.6508517" lon="14.430215"><ele>749.6666666666667</ele><time>2026-05-05T12:38:45.167Z</time></trkpt><trkpt lat="37.6508033" lon="14.4299617"><ele>751.3333333333334</ele><time>2026-05-05T12:38:46.167Z</time></trkpt><trkpt lat="37.65076" lon="14.429715"><ele>753.0</ele><time>2026-05-05T12:38:47.168Z</time></trkpt><trkpt lat="37.6507167" lon="14.4294633"><ele>754.6666666666666</ele><time>2026-05-05T12:38:48.167Z</time></trkpt><trkpt lat="37.6506667" lon="14.4292067"><ele>756.3333333333333</ele><time>2026-05-05T12:38:49.167Z</time></trkpt><trkpt lat="37.650625" lon="14.428955"><ele>758.0</ele><time>2026-05-05T12:38:50.167Z</time></trkpt><trkpt lat="37.65058" lon="14.4287"><ele>758.6666666666666</ele><time>2026-05-05T12:38:51.167Z</time></trkpt><trkpt lat="37.6505283" lon="14.428445"><ele>759.3333333333334</ele><time>2026-05-05T12:38:52.167Z</time></trkpt><trkpt lat="37.6504917" lon="14.4282083"><ele>760.0</ele><time>2026-05-05T12:38:53.167Z</time></trkpt><trkpt lat="37.6504533" lon="14.4279833"><ele>762.3333333333334</ele><time>2026-05-05T12:38:54.167Z</time></trkpt><trkpt lat="37.650405" lon="14.42777"><ele>764.6666666666666</ele><time>2026-05-05T12:38:55.167Z</time></trkpt><trkpt lat="37.6503633" lon="14.4275733"><ele>767.0</ele><time>2026-05-05T12:38:56.167Z</time></trkpt><trkpt lat="37.6502917" lon="14.4273917"><ele>767.6666666666666</ele><time>2026-05-05T12:38:57.168Z</time></trkpt><trkpt lat="37.6502033" lon="14.4272383"><ele>768.3333333333333</ele><time>2026-05-05T12:38:58.167Z</time></trkpt><trkpt lat="37.650085" lon="14.427085"><ele>769.0</ele><time>2026-05-05T12:38:59.167Z</time></trkpt><trkpt lat="37.6499483" lon="14.426945"><ele>769.0</ele><time>2026-05-05T12:39:00.168Z</time></trkpt><trkpt lat="37.6498133" lon="14.4268167"><ele>769.0</ele><time>2026-05-05T12:39:01.167Z</time></trkpt><trkpt lat="37.64967" lon="14.42669"><ele>769.0</ele><time>2026-05-05T12:39:02.167Z</time></trkpt><trkpt lat="37.6495233" lon="14.4265683"><ele>770.0</ele><time>2026-05-05T12:39:03.167Z</time></trkpt><trkpt lat="37.64937" lon="14.42644"><ele>771.0</ele><time>2026-05-05T12:39:04.167Z</time></trkpt><trkpt lat="37.64922" lon="14.4263183"><ele>772.0</ele><time>2026-05-05T12:39:05.167Z</time></trkpt><trkpt lat="37.6490817" lon="14.426205"><ele>767.3333333333333</ele><time>2026-05-05T12:39:06.167Z</time></trkpt><trkpt lat="37.64895" lon="14.4260917"><ele>762.6666666666666</ele><time>2026-05-05T12:39:07.167Z</time></trkpt><trkpt lat="37.6488117" lon="14.4259817"><ele>758.0</ele><time>2026-05-05T12:39:08.168Z</time></trkpt><trkpt lat="37.648685" lon="14.4258683"><ele>759.0</ele><time>2026-05-05T12:39:09.168Z</time></trkpt><trkpt lat="37.648565" lon="14.425735"><ele>760.0</ele><time>2026-05-05T12:39:10.167Z</time></trkpt><trkpt lat="37.64846" lon="14.4255783"><ele>761.0</ele><time>2026-05-05T12:39:11.168Z</time></trkpt><trkpt lat="37.6483833" lon="14.4254"><ele>757.3333333333333</ele><time>2026-05-05T12:39:12.167Z</time></trkpt><trkpt lat="37.6483167" lon="14.4252083"><ele>753.6666666666666</ele><time>2026-05-05T12:39:13.167Z</time></trkpt><trkpt lat="37.6482333" lon="14.4250033"><ele>750.0</ele><time>2026-05-05T12:39:14.167Z</time></trkpt><trkpt lat="37.6481467" lon="14.42481"><ele>747.0</ele><time>2026-05-05T12:39:15.167Z</time></trkpt><trkpt lat="37.64807" lon="14.4246233"><ele>744.0</ele><time>2026-05-05T12:39:16.167Z</time></trkpt><trkpt lat="37.6479983" lon="14.4244583"><ele>741.0</ele><time>2026-05-05T12:39:17.167Z</time></trkpt><trkpt lat="37.6479233" lon="14.4243033"><ele>741.0</ele><time>2026-05-05T12:39:18.167Z</time></trkpt><trkpt lat="37.6478233" lon="14.4241667"><ele>741.0</ele><time>2026-05-05T12:39:19.167Z</time></trkpt><trkpt lat="37.6477167" lon="14.42408"><ele>741.0</ele><time>2026-05-05T12:39:20.167Z</time></trkpt><trkpt lat="37.64759" lon="14.4240433"><ele>741.0</ele><time>2026-05-05T12:39:21.167Z</time></trkpt><trkpt lat="37.6474717" lon="14.424045"><ele>742.0</ele><time>2026-05-05T12:39:22.167Z</time></trkpt><trkpt lat="37.6473617" lon="14.4240433"><ele>743.0</ele><time>2026-05-05T12:39:23.168Z</time></trkpt><trkpt lat="37.6472617" lon="14.4240167"><ele>744.0</ele><time>2026-05-05T12:39:24.168Z</time></trkpt><trkpt lat="37.64719" lon="14.4239383"><ele>745.0</ele><time>2026-05-05T12:39:25.167Z</time></trkpt><trkpt lat="37.64715" lon="14.42382"><ele>746.0</ele><time>2026-05-05T12:39:26.167Z</time></trkpt><trkpt lat="37.64715" lon="14.4236883"><ele>743.0</ele><time>2026-05-05T12:39:27.167Z</time></trkpt><trkpt lat="37.647205" lon="14.4235567"><ele>740.0</ele><time>2026-05-05T12:39:28.168Z</time></trkpt><trkpt lat="37.6472633" lon="14.4233817"><ele>737.0</ele><time>2026-05-05T12:39:29.167Z</time></trkpt><trkpt lat="37.6472817" lon="14.423175"><ele>734.0</ele><time>2026-05-05T12:39:30.167Z</time></trkpt><trkpt lat="37.6472633" lon="14.4229667"><ele>731.0</ele><time>2026-05-05T12:39:31.167Z</time></trkpt><trkpt lat="37.6472317" lon="14.4227467"><ele>728.0</ele><time>2026-05-05T12:39:32.167Z</time></trkpt><trkpt lat="37.64719" lon="14.4225167"><ele>725.0</ele><time>2026-05-05T12:39:33.167Z</time></trkpt><trkpt lat="37.64715" lon="14.4222967"><ele>721.0</ele><time>2026-05-05T12:39:34.167Z</time></trkpt><trkpt lat="37.6471283" lon="14.422085"><ele>717.0</ele><time>2026-05-05T12:39:35.167Z</time></trkpt><trkpt lat="37.6470867" lon="14.4218817"><ele>713.0</ele><time>2026-05-05T12:39:36.167Z</time></trkpt><trkpt lat="37.6470533" lon="14.4216867"><ele>713.0</ele><time>2026-05-05T12:39:37.167Z</time></trkpt><trkpt lat="37.6470283" lon="14.42151"><ele>713.0</ele><time>2026-05-05T12:39:38.167Z</time></trkpt><trkpt lat="37.6470183" lon="14.4213367"><ele>713.0</ele><time>2026-05-05T12:39:39.167Z</time></trkpt><trkpt lat="37.6470267" lon="14.4211633"><ele>713.0</ele><time>2026-05-05T12:39:40.167Z</time></trkpt><trkpt lat="37.6470717" lon="14.4209817"><ele>712.25</ele><time>2026-05-05T12:39:41.167Z</time></trkpt><trkpt lat="37.6471433" lon="14.4208133"><ele>711.5</ele><time>2026-05-05T12:39:42.167Z</time></trkpt><trkpt lat="37.6472133" lon="14.4206533"><ele>710.75</ele><time>2026-05-05T12:39:43.167Z</time></trkpt><trkpt lat="37.6472883" lon="14.4204967"><ele>710.0</ele><time>2026-05-05T12:39:44.167Z</time></trkpt><trkpt lat="37.6474067" lon="14.420365"><ele>711.75</ele><time>2026-05-05T12:39:45.167Z</time></trkpt><trkpt lat="37.6475383" lon="14.4202617"><ele>713.5</ele><time>2026-05-05T12:39:46.167Z</time></trkpt><trkpt lat="37.647665" lon="14.4201583"><ele>715.25</ele><time>2026-05-05T12:39:47.167Z</time></trkpt><trkpt lat="37.6477733" lon="14.4200483"><ele>717.0</ele><time>2026-05-05T12:39:48.167Z</time></trkpt><trkpt lat="37.64787" lon="14.4199267"><ele>712.3333333333334</ele><time>2026-05-05T12:39:49.167Z</time></trkpt><trkpt lat="37.6479517" lon="14.4197817"><ele>707.6666666666667</ele><time>2026-05-05T12:39:50.167Z</time></trkpt><trkpt lat="37.6480183" lon="14.4196083"><ele>703.0</ele><time>2026-05-05T12:39:51.167Z</time></trkpt><trkpt lat="37.6480783" lon="14.4194117"><ele>703.0</ele><time>2026-05-05T12:39:52.167Z</time></trkpt><trkpt lat="37.6481317" lon="14.4192167"><ele>703.0</ele><time>2026-05-05T12:39:53.167Z</time></trkpt><trkpt lat="37.6481867" lon="14.4190167"><ele>703.0</ele><time>2026-05-05T12:39:54.167Z</time></trkpt><trkpt lat="37.6482383" lon="14.4188267"><ele>704.5</ele><time>2026-05-05T12:39:55.167Z</time></trkpt><trkpt lat="37.6482983" lon="14.4186433"><ele>706.0</ele><time>2026-05-05T12:39:56.167Z</time></trkpt><trkpt lat="37.6483567" lon="14.4184733"><ele>707.5</ele><time>2026-05-05T12:39:57.168Z</time></trkpt><trkpt lat="37.648435" lon="14.4183333"><ele>709.0</ele><time>2026-05-05T12:39:58.168Z</time></trkpt><trkpt lat="37.6485367" lon="14.41821"><ele>704.25</ele><time>2026-05-05T12:39:59.167Z</time></trkpt><trkpt lat="37.6486567" lon="14.4180983"><ele>699.5</ele><time>2026-05-05T12:40:00.167Z</time></trkpt><trkpt lat="37.648775" lon="14.41799"><ele>694.75</ele><time>2026-05-05T12:40:01.167Z</time></trkpt><trkpt lat="37.64889" lon="14.41789"><ele>690.0</ele><time>2026-05-05T12:40:02.167Z</time></trkpt><trkpt lat="37.649" lon="14.41779"><ele>689.75</ele><time>2026-05-05T12:40:03.167Z</time></trkpt><trkpt lat="37.649105" lon="14.4176867"><ele>689.5</ele><time>2026-05-05T12:40:04.167Z</time></trkpt><trkpt lat="37.6491917" lon="14.417575"><ele>689.25</ele><time>2026-05-05T12:40:05.168Z</time></trkpt><trkpt lat="37.6492567" lon="14.4174417"><ele>689.0</ele><time>2026-05-05T12:40:06.167Z</time></trkpt><trkpt lat="37.6492933" lon="14.4172867"><ele>687.5</ele><time>2026-05-05T12:40:07.167Z</time></trkpt><trkpt lat="37.6493" lon="14.4171117"><ele>686.0</ele><time>2026-05-05T12:40:08.167Z</time></trkpt><trkpt lat="37.6492817" lon="14.4169233"><ele>684.5</ele><time>2026-05-05T12:40:09.167Z</time></trkpt><trkpt lat="37.6492233" lon="14.4167483"><ele>683.0</ele><time>2026-05-05T12:40:10.167Z</time></trkpt><trkpt lat="37.649135" lon="14.4165867"><ele>683.0</ele><time>2026-05-05T12:40:11.167Z</time></trkpt><trkpt lat="37.6490483" lon="14.4164383"><ele>683.0</ele><time>2026-05-05T12:40:12.167Z</time></trkpt><trkpt lat="37.6489583" lon="14.4162983"><ele>683.0</ele><time>2026-05-05T12:40:13.167Z</time></trkpt><trkpt lat="37.6488617" lon="14.416155"><ele>683.0</ele><time>2026-05-05T12:40:14.167Z</time></trkpt><trkpt lat="37.6487917" lon="14.41602"><ele>681.5</ele><time>2026-05-05T12:40:15.167Z</time></trkpt><trkpt lat="37.6487417" lon="14.4158633"><ele>680.0</ele><time>2026-05-05T12:40:16.167Z</time></trkpt><trkpt lat="37.6487217" lon="14.415695"><ele>678.5</ele><time>2026-05-05T12:40:17.167Z</time></trkpt><trkpt lat="37.6487067" lon="14.4154933"><ele>677.0</ele><time>2026-05-05T12:40:18.167Z</time></trkpt><trkpt lat="37.648695" lon="14.41529"><ele>676.6666666666666</ele><time>2026-05-05T12:40:19.167Z</time></trkpt><trkpt lat="37.648685" lon="14.4150783"><ele>676.3333333333334</ele><time>2026-05-05T12:40:20.167Z</time></trkpt><trkpt lat="37.6486683" lon="14.41486"><ele>676.0</ele><time>2026-05-05T12:40:21.167Z</time></trkpt><trkpt lat="37.6486567" lon="14.41463"><ele>676.0</ele><time>2026-05-05T12:40:22.167Z</time></trkpt><trkpt lat="37.6486417" lon="14.4143983"><ele>676.0</ele><time>2026-05-05T12:40:23.167Z</time></trkpt><trkpt lat="37.6486083" lon="14.4141583"><ele>676.0</ele><time>2026-05-05T12:40:24.167Z</time></trkpt><trkpt lat="37.6485883" lon="14.413925"><ele>674.6666666666667</ele><time>2026-05-05T12:40:25.167Z</time></trkpt><trkpt lat="37.6485683" lon="14.4136883"><ele>673.3333333333334</ele><time>2026-05-05T12:40:26.167Z</time></trkpt><trkpt lat="37.6485533" lon="14.413445"><ele>672.0</ele><time>2026-05-05T12:40:27.167Z</time></trkpt><trkpt lat="37.6485417" lon="14.413215"><ele>673.0</ele><time>2026-05-05T12:40:28.167Z</time></trkpt><trkpt lat="37.648525" lon="14.4129767"><ele>674.0</ele><time>2026-05-05T12:40:29.167Z</time></trkpt><trkpt lat="37.648495" lon="14.4127383"><ele>675.0</ele><time>2026-05-05T12:40:30.167Z</time></trkpt><trkpt lat="37.6484767" lon="14.4125"><ele>675.0</ele><time>2026-05-05T12:40:31.167Z</time></trkpt><trkpt lat="37.6484567" lon="14.4122683"><ele>675.0</ele><time>2026-05-05T12:40:32.167Z</time></trkpt><trkpt lat="37.6484383" lon="14.4120417"><ele>675.0</ele><time>2026-05-05T12:40:33.167Z</time></trkpt><trkpt lat="37.64842" lon="14.4118133"><ele>675.3333333333334</ele><time>2026-05-05T12:40:34.167Z</time></trkpt><trkpt lat="37.64841" lon="14.411585"><ele>675.6666666666667</ele><time>2026-05-05T12:40:35.167Z</time></trkpt><trkpt lat="37.6483933" lon="14.4113533"><ele>676.0</ele><time>2026-05-05T12:40:36.168Z</time></trkpt><trkpt lat="37.6483817" lon="14.4111083"><ele>676.3333333333334</ele><time>2026-05-05T12:40:37.167Z</time></trkpt><trkpt lat="37.6483517" lon="14.4108833"><ele>676.6666666666666</ele><time>2026-05-05T12:40:38.168Z</time></trkpt><trkpt lat="37.6483383" lon="14.4106617"><ele>677.0</ele><time>2026-05-05T12:40:39.167Z</time></trkpt><trkpt lat="37.6483183" lon="14.410425"><ele>678.0</ele><time>2026-05-05T12:40:40.167Z</time></trkpt><trkpt lat="37.648295" lon="14.4101967"><ele>679.0</ele><time>2026-05-05T12:40:41.167Z</time></trkpt><trkpt lat="37.6482767" lon="14.4099683"><ele>680.0</ele><time>2026-05-05T12:40:42.167Z</time></trkpt><trkpt lat="37.6482583" lon="14.4097467"><ele>680.0</ele><time>2026-05-05T12:40:43.167Z</time></trkpt><trkpt lat="37.6482383" lon="14.4095483"><ele>680.0</ele><time>2026-05-05T12:40:44.167Z</time></trkpt><trkpt lat="37.6482167" lon="14.4093717"><ele>680.0</ele><time>2026-05-05T12:40:45.167Z</time></trkpt><trkpt lat="37.6482" lon="14.40923"><ele>680.0</ele><time>2026-05-05T12:40:46.167Z</time></trkpt><trkpt lat="37.64819" lon="14.4091217"><ele>680.0</ele><time>2026-05-05T12:40:47.167Z</time></trkpt><trkpt lat="37.6481983" lon="14.4090383"><ele>680.0</ele><time>2026-05-05T12:40:48.167Z</time></trkpt><trkpt lat="37.6482633" lon="14.408935"><ele>680.0</ele><time>2026-05-05T12:40:50.167Z</time></trkpt><trkpt lat="37.648395" lon="14.4089133"><ele>680.0</ele><time>2026-05-05T12:40:52.167Z</time></trkpt><trkpt lat="37.6484717" lon="14.4088917"><ele>680.0</ele><time>2026-05-05T12:40:53.167Z</time></trkpt><trkpt lat="37.6485333" lon="14.4088333"><ele>679.8333333333333</ele><time>2026-05-05T12:40:54.167Z</time></trkpt><trkpt lat="37.6485667" lon="14.408745"><ele>679.6666666666666</ele><time>2026-05-05T12:40:55.167Z</time></trkpt><trkpt lat="37.6485633" lon="14.4086533"><ele>679.5</ele><time>2026-05-05T12:40:56.167Z</time></trkpt><trkpt lat="37.6485433" lon="14.4085667"><ele>679.3333333333334</ele><time>2026-05-05T12:40:57.167Z</time></trkpt><trkpt lat="37.6485033" lon="14.4084933"><ele>679.1666666666667</ele><time>2026-05-05T12:40:58.168Z</time></trkpt><trkpt lat="37.6484367" lon="14.4084417"><ele>679.0</ele><time>2026-05-05T12:40:59.167Z</time></trkpt><trkpt lat="37.6483567" lon="14.4084083"><ele>679.0</ele><time>2026-05-05T12:41:00.167Z</time></trkpt><trkpt lat="37.6482667" lon="14.4083767"><ele>679.0</ele><time>2026-05-05T12:41:01.167Z</time></trkpt><trkpt lat="37.648175" lon="14.40834"><ele>679.0</ele><time>2026-05-05T12:41:02.167Z</time></trkpt><trkpt lat="37.6480733" lon="14.4082933"><ele>679.0</ele><time>2026-05-05T12:41:03.167Z</time></trkpt><trkpt lat="37.6479667" lon="14.40824"><ele>679.0</ele><time>2026-05-05T12:41:04.167Z</time></trkpt><trkpt lat="37.6478533" lon="14.4081767"><ele>678.3333333333334</ele><time>2026-05-05T12:41:05.167Z</time></trkpt><trkpt lat="37.6477267" lon="14.4081"><ele>677.6666666666666</ele><time>2026-05-05T12:41:06.167Z</time></trkpt><trkpt lat="37.6476067" lon="14.4080017"><ele>677.0</ele><time>2026-05-05T12:41:07.167Z</time></trkpt><trkpt lat="37.6474617" lon="14.4078817"><ele>676.75</ele><time>2026-05-05T12:41:08.167Z</time></trkpt><trkpt lat="37.6473367" lon="14.4077733"><ele>676.5</ele><time>2026-05-05T12:41:09.167Z</time></trkpt><trkpt lat="37.6472233" lon="14.4076667"><ele>676.25</ele><time>2026-05-05T12:41:10.167Z</time></trkpt><trkpt lat="37.6471067" lon="14.4075533"><ele>676.0</ele><time>2026-05-05T12:41:11.167Z</time></trkpt><trkpt lat="37.6470083" lon="14.4074433"><ele>675.0</ele><time>2026-05-05T12:41:12.167Z</time></trkpt><trkpt lat="37.6469" lon="14.4073383"><ele>674.0</ele><time>2026-05-05T12:41:13.167Z</time></trkpt><trkpt lat="37.6467917" lon="14.4072317"><ele>673.0</ele><time>2026-05-05T12:41:14.167Z</time></trkpt><trkpt lat="37.6466833" lon="14.4071283"><ele>672.0</ele><time>2026-05-05T12:41:15.167Z</time></trkpt><trkpt lat="37.64657" lon="14.4070267"><ele>670.5</ele><time>2026-05-05T12:41:16.167Z</time></trkpt><trkpt lat="37.64645" lon="14.4069167"><ele>669.0</ele><time>2026-05-05T12:41:17.167Z</time></trkpt><trkpt lat="37.64633" lon="14.4068183"><ele>667.5</ele><time>2026-05-05T12:41:18.167Z</time></trkpt><trkpt lat="37.6462183" lon="14.4067083"><ele>666.0</ele><time>2026-05-05T12:41:19.167Z</time></trkpt><trkpt lat="37.646105" lon="14.4066033"><ele>664.75</ele><time>2026-05-05T12:41:20.167Z</time></trkpt><trkpt lat="37.6459883" lon="14.4065067"><ele>663.5</ele><time>2026-05-05T12:41:21.167Z</time></trkpt><trkpt lat="37.645875" lon="14.4064083"><ele>662.25</ele><time>2026-05-05T12:41:22.167Z</time></trkpt><trkpt lat="37.64577" lon="14.406305"><ele>661.0</ele><time>2026-05-05T12:41:23.167Z</time></trkpt><trkpt lat="37.6456517" lon="14.4061983"><ele>661.0</ele><time>2026-05-05T12:41:24.167Z</time></trkpt><trkpt lat="37.6455383" lon="14.4060917"><ele>661.0</ele><time>2026-05-05T12:41:25.167Z</time></trkpt><trkpt lat="37.6454117" lon="14.40598"><ele>661.0</ele><time>2026-05-05T12:41:26.167Z</time></trkpt><trkpt lat="37.6452883" lon="14.405855"><ele>661.0</ele><time>2026-05-05T12:41:27.167Z</time></trkpt><trkpt lat="37.645165" lon="14.4057433"><ele>661.0</ele><time>2026-05-05T12:41:28.168Z</time></trkpt><trkpt lat="37.6450533" lon="14.4056283"><ele>661.0</ele><time>2026-05-05T12:41:29.167Z</time></trkpt><trkpt lat="37.6449383" lon="14.405515"><ele>661.0</ele><time>2026-05-05T12:41:30.167Z</time></trkpt><trkpt lat="37.6448383" lon="14.4053983"><ele>659.5</ele><time>2026-05-05T12:41:31.167Z</time></trkpt><trkpt lat="37.6447317" lon="14.4052833"><ele>658.0</ele><time>2026-05-05T12:41:32.168Z</time></trkpt><trkpt lat="37.644625" lon="14.4051683"><ele>656.5</ele><time>2026-05-05T12:41:33.167Z</time></trkpt><trkpt lat="37.6445367" lon="14.4050583"><ele>655.0</ele><time>2026-05-05T12:41:34.167Z</time></trkpt><trkpt lat="37.6444467" lon="14.404955"><ele>655.0</ele><time>2026-05-05T12:41:35.168Z</time></trkpt><trkpt lat="37.6443733" lon="14.4048617"><ele>655.0</ele><time>2026-05-05T12:41:36.167Z</time></trkpt><trkpt lat="37.644305" lon="14.4047817"><ele>655.0</ele><time>2026-05-05T12:41:37.167Z</time></trkpt><trkpt lat="37.644235" lon="14.4047183"><ele>655.0</ele><time>2026-05-05T12:41:38.167Z</time></trkpt><trkpt lat="37.6441533" lon="14.40463"><ele>655.0</ele><time>2026-05-05T12:41:40.167Z</time></trkpt><trkpt lat="37.6440983" lon="14.4045833"><ele>655.0</ele><time>2026-05-05T12:43:36.167Z</time></trkpt><trkpt lat="37.6440433" lon="14.40454"><ele>655.0</ele><time>2026-05-05T12:43:37.167Z</time></trkpt><trkpt lat="37.6439733" lon="14.4045233"><ele>655.0</ele><time>2026-05-05T12:43:38.167Z</time></trkpt><trkpt lat="37.6439" lon="14.4045217"><ele>655.0</ele><time>2026-05-05T12:43:39.167Z</time></trkpt><trkpt lat="37.6438317" lon="14.404545"><ele>655.0</ele><time>2026-05-05T12:43:40.167Z</time></trkpt><trkpt lat="37.6437483" lon="14.40458"><ele>655.0</ele><time>2026-05-05T12:43:41.167Z</time></trkpt><trkpt lat="37.6436533" lon="14.4046367"><ele>653.75</ele><time>2026-05-05T12:43:42.167Z</time></trkpt><trkpt lat="37.6435517" lon="14.404685"><ele>652.5</ele><time>2026-05-05T12:43:43.168Z</time></trkpt><trkpt lat="37.6434467" lon="14.4047433"><ele>651.25</ele><time>2026-05-05T12:43:44.167Z</time></trkpt><trkpt lat="37.6433383" lon="14.40481"><ele>650.0</ele><time>2026-05-05T12:43:45.167Z</time></trkpt><trkpt lat="37.6432233" lon="14.4048717"><ele>650.0</ele><time>2026-05-05T12:43:46.167Z</time></trkpt><trkpt lat="37.643115" lon="14.4049267"><ele>650.0</ele><time>2026-05-05T12:43:47.167Z</time></trkpt><trkpt lat="37.643005" lon="14.4049767"><ele>650.0</ele><time>2026-05-05T12:43:48.167Z</time></trkpt><trkpt lat="37.6429" lon="14.4050283"><ele>650.0</ele><time>2026-05-05T12:43:49.167Z</time></trkpt><trkpt lat="37.642795" lon="14.405065"><ele>650.0</ele><time>2026-05-05T12:43:50.168Z</time></trkpt><trkpt lat="37.642695" lon="14.4051"><ele>650.0</ele><time>2026-05-05T12:43:51.167Z</time></trkpt><trkpt lat="37.6425833" lon="14.4051233"><ele>650.0</ele><time>2026-05-05T12:43:52.167Z</time></trkpt><trkpt lat="37.6424717" lon="14.4051133"><ele>650.0</ele><time>2026-05-05T12:43:53.167Z</time></trkpt><trkpt lat="37.6423483" lon="14.4050983"><ele>650.0</ele><time>2026-05-05T12:43:54.167Z</time></trkpt><trkpt lat="37.6422283" lon="14.4050817"><ele>650.0</ele><time>2026-05-05T12:43:55.168Z</time></trkpt><trkpt lat="37.6420967" lon="14.40506"><ele>650.0</ele><time>2026-05-05T12:43:56.168Z</time></trkpt><trkpt lat="37.6419667" lon="14.40505"><ele>650.0</ele><time>2026-05-05T12:43:57.167Z</time></trkpt><trkpt lat="37.6418333" lon="14.40504"><ele>650.25</ele><time>2026-05-05T12:43:58.167Z</time></trkpt><trkpt lat="37.6416867" lon="14.4050183"><ele>650.5</ele><time>2026-05-05T12:43:59.168Z</time></trkpt><trkpt lat="37.6415433" lon="14.4050067"><ele>650.75</ele><time>2026-05-05T12:44:00.167Z</time></trkpt><trkpt lat="37.6413883" lon="14.4049917"><ele>651.0</ele><time>2026-05-05T12:44:01.167Z</time></trkpt><trkpt lat="37.641235" lon="14.4049733"><ele>652.0</ele><time>2026-05-05T12:44:02.168Z</time></trkpt><trkpt lat="37.6410817" lon="14.40496"><ele>653.0</ele><time>2026-05-05T12:44:03.167Z</time></trkpt><trkpt lat="37.6409167" lon="14.4049367"><ele>654.0</ele><time>2026-05-05T12:44:04.167Z</time></trkpt><trkpt lat="37.6407683" lon="14.4049217"><ele>654.0</ele><time>2026-05-05T12:44:05.167Z</time></trkpt><trkpt lat="37.6406067" lon="14.40491"><ele>654.0</ele><time>2026-05-05T12:44:06.167Z</time></trkpt><trkpt lat="37.640445" lon="14.4048933"><ele>654.0</ele><time>2026-05-05T12:44:07.167Z</time></trkpt><trkpt lat="37.6402833" lon="14.4048817"><ele>654.3333333333334</ele><time>2026-05-05T12:44:08.167Z</time></trkpt><trkpt lat="37.6401183" lon="14.4048717"><ele>654.6666666666667</ele><time>2026-05-05T12:44:09.167Z</time></trkpt><trkpt lat="37.639955" lon="14.4048617"><ele>655.0</ele><time>2026-05-05T12:44:10.167Z</time></trkpt><trkpt lat="37.6397867" lon="14.40485"><ele>655.0</ele><time>2026-05-05T12:44:11.167Z</time></trkpt><trkpt lat="37.6396217" lon="14.40484"><ele>655.0</ele><time>2026-05-05T12:44:12.167Z</time></trkpt><trkpt lat="37.6394517" lon="14.40483"><ele>655.0</ele><time>2026-05-05T12:44:13.167Z</time></trkpt><trkpt lat="37.6392817" lon="14.404825"><ele>655.0</ele><time>2026-05-05T12:44:14.167Z</time></trkpt><trkpt lat="37.6391183" lon="14.4048217"><ele>655.0</ele><time>2026-05-05T12:44:15.168Z</time></trkpt><trkpt lat="37.6389533" lon="14.404815"><ele>655.0</ele><time>2026-05-05T12:44:16.167Z</time></trkpt><trkpt lat="37.6387883" lon="14.4048083"><ele>655.3333333333334</ele><time>2026-05-05T12:44:17.167Z</time></trkpt><trkpt lat="37.6386267" lon="14.4048167"><ele>655.6666666666666</ele><time>2026-05-05T12:44:18.167Z</time></trkpt><trkpt lat="37.6384683" lon="14.4048283"><ele>656.0</ele><time>2026-05-05T12:44:19.168Z</time></trkpt><trkpt lat="37.6382983" lon="14.4048467"><ele>656.0</ele><time>2026-05-05T12:44:20.167Z</time></trkpt><trkpt lat="37.6381317" lon="14.40488"><ele>656.0</ele><time>2026-05-05T12:44:21.167Z</time></trkpt><trkpt lat="37.6379733" lon="14.4049183"><ele>656.0</ele><time>2026-05-05T12:44:22.167Z</time></trkpt><trkpt lat="37.6378217" lon="14.4049733"><ele>655.6666666666666</ele><time>2026-05-05T12:44:23.167Z</time></trkpt><trkpt lat="37.6376583" lon="14.4050317"><ele>655.3333333333334</ele><time>2026-05-05T12:44:24.167Z</time></trkpt><trkpt lat="37.6374883" lon="14.4050883"><ele>655.0</ele><time>2026-05-05T12:44:25.167Z</time></trkpt><trkpt lat="37.637325" lon="14.4051483"><ele>655.0</ele><time>2026-05-05T12:44:26.167Z</time></trkpt><trkpt lat="37.6371517" lon="14.4052033"><ele>655.0</ele><time>2026-05-05T12:44:27.167Z</time></trkpt><trkpt lat="37.636985" lon="14.4052567"><ele>655.0</ele><time>2026-05-05T12:44:28.167Z</time></trkpt><trkpt lat="37.6368233" lon="14.4053183"><ele>655.0</ele><time>2026-05-05T12:44:29.167Z</time></trkpt><trkpt lat="37.6366733" lon="14.4053683"><ele>655.0</ele><time>2026-05-05T12:44:30.167Z</time></trkpt><trkpt lat="37.6364983" lon="14.4054217"><ele>655.0</ele><time>2026-05-05T12:44:31.167Z</time></trkpt><trkpt lat="37.6363267" lon="14.4054817"><ele>655.0</ele><time>2026-05-05T12:44:32.167Z</time></trkpt><trkpt lat="37.6361617" lon="14.405535"><ele>655.0</ele><time>2026-05-05T12:44:33.167Z</time></trkpt><trkpt lat="37.63599" lon="14.4055883"><ele>655.0</ele><time>2026-05-05T12:44:34.168Z</time></trkpt><trkpt lat="37.63582" lon="14.4056417"><ele>655.0</ele><time>2026-05-05T12:44:35.167Z</time></trkpt><trkpt lat="37.6356583" lon="14.4056983"><ele>655.0</ele><time>2026-05-05T12:44:36.168Z</time></trkpt><trkpt lat="37.6355033" lon="14.4057367"><ele>655.0</ele><time>2026-05-05T12:44:37.167Z</time></trkpt><trkpt lat="37.6353667" lon="14.405785"><ele>654.5</ele><time>2026-05-05T12:44:38.167Z</time></trkpt><trkpt lat="37.635225" lon="14.4058283"><ele>654.0</ele><time>2026-05-05T12:44:39.167Z</time></trkpt><trkpt lat="37.6350917" lon="14.4058683"><ele>653.5</ele><time>2026-05-05T12:44:40.167Z</time></trkpt><trkpt lat="37.6349633" lon="14.4059067"><ele>653.0</ele><time>2026-05-05T12:44:41.167Z</time></trkpt><trkpt lat="37.63485" lon="14.4059533"><ele>653.0</ele><time>2026-05-05T12:44:42.168Z</time></trkpt><trkpt lat="37.634725" lon="14.4059967"><ele>653.0</ele><time>2026-05-05T12:44:43.167Z</time></trkpt><trkpt lat="37.6346033" lon="14.4060383"><ele>653.0</ele><time>2026-05-05T12:44:44.167Z</time></trkpt><trkpt lat="37.6344833" lon="14.4060733"><ele>653.0</ele><time>2026-05-05T12:44:45.168Z</time></trkpt><trkpt lat="37.6343683" lon="14.4061217"><ele>653.25</ele><time>2026-05-05T12:44:46.167Z</time></trkpt><trkpt lat="37.63425" lon="14.406165"><ele>653.5</ele><time>2026-05-05T12:44:47.167Z</time></trkpt><trkpt lat="37.63414" lon="14.4062217"><ele>653.75</ele><time>2026-05-05T12:44:48.167Z</time></trkpt><trkpt lat="37.634025" lon="14.4062883"><ele>654.0</ele><time>2026-05-05T12:44:49.168Z</time></trkpt><trkpt lat="37.6339067" lon="14.4063733"><ele>654.0</ele><time>2026-05-05T12:44:50.168Z</time></trkpt><trkpt lat="37.6338" lon="14.4064883"><ele>654.0</ele><time>2026-05-05T12:44:51.167Z</time></trkpt><trkpt lat="37.6336933" lon="14.406595"><ele>654.0</ele><time>2026-05-05T12:44:52.167Z</time></trkpt><trkpt lat="37.6335733" lon="14.4067017"><ele>654.0</ele><time>2026-05-05T12:44:53.167Z</time></trkpt><trkpt lat="37.633475" lon="14.4068183"><ele>654.0</ele><time>2026-05-05T12:44:54.167Z</time></trkpt><trkpt lat="37.633365" lon="14.40692"><ele>654.0</ele><time>2026-05-05T12:44:55.167Z</time></trkpt><trkpt lat="37.6332717" lon="14.40704"><ele>654.0</ele><time>2026-05-05T12:44:56.168Z</time></trkpt><trkpt lat="37.63317" lon="14.407155"><ele>654.0</ele><time>2026-05-05T12:44:57.167Z</time></trkpt><trkpt lat="37.63307" lon="14.407275"><ele>653.0</ele><time>2026-05-05T12:44:58.167Z</time></trkpt><trkpt lat="37.6329633" lon="14.4074033"><ele>652.0</ele><time>2026-05-05T12:44:59.167Z</time></trkpt><trkpt lat="37.6328467" lon="14.40752"><ele>651.0</ele><time>2026-05-05T12:45:00.167Z</time></trkpt><trkpt lat="37.6327367" lon="14.407645"><ele>650.0</ele><time>2026-05-05T12:45:01.167Z</time></trkpt><trkpt lat="37.6326267" lon="14.40776"><ele>650.0</ele><time>2026-05-05T12:45:02.167Z</time></trkpt><trkpt lat="37.63252" lon="14.4078833"><ele>650.0</ele><time>2026-05-05T12:45:03.167Z</time></trkpt><trkpt lat="37.6323933" lon="14.4080067"><ele>650.0</ele><time>2026-05-05T12:45:04.167Z</time></trkpt><trkpt lat="37.6322917" lon="14.4081367"><ele>650.0</ele><time>2026-05-05T12:45:05.167Z</time></trkpt><trkpt lat="37.63219" lon="14.4082567"><ele>649.0</ele><time>2026-05-05T12:45:06.167Z</time></trkpt><trkpt lat="37.6320817" lon="14.408365"><ele>648.0</ele><time>2026-05-05T12:45:07.167Z</time></trkpt><trkpt lat="37.631965" lon="14.40846"><ele>647.0</ele><time>2026-05-05T12:45:08.167Z</time></trkpt><trkpt lat="37.6318317" lon="14.408545"><ele>646.0</ele><time>2026-05-05T12:45:09.167Z</time></trkpt><trkpt lat="37.6316933" lon="14.4086083"><ele>644.75</ele><time>2026-05-05T12:45:10.167Z</time></trkpt><trkpt lat="37.6315617" lon="14.40865"><ele>643.5</ele><time>2026-05-05T12:45:11.167Z</time></trkpt><trkpt lat="37.631425" lon="14.408695"><ele>642.25</ele><time>2026-05-05T12:45:12.167Z</time></trkpt><trkpt lat="37.63128" lon="14.4087317"><ele>641.0</ele><time>2026-05-05T12:45:13.167Z</time></trkpt><trkpt lat="37.631145" lon="14.4087517"><ele>640.0</ele><time>2026-05-05T12:45:14.167Z</time></trkpt><trkpt lat="37.6310183" lon="14.4087417"><ele>639.0</ele><time>2026-05-05T12:45:15.168Z</time></trkpt><trkpt lat="37.630895" lon="14.4087033"><ele>638.0</ele><time>2026-05-05T12:45:16.168Z</time></trkpt><trkpt lat="37.6307783" lon="14.4086383"><ele>637.0</ele><time>2026-05-05T12:45:17.167Z</time></trkpt><trkpt lat="37.6306667" lon="14.4085383"><ele>637.0</ele><time>2026-05-05T12:45:18.167Z</time></trkpt><trkpt lat="37.6305717" lon="14.4084167"><ele>637.0</ele><time>2026-05-05T12:45:19.168Z</time></trkpt><trkpt lat="37.6304733" lon="14.40828"><ele>637.0</ele><time>2026-05-05T12:45:20.167Z</time></trkpt><trkpt lat="37.6304017" lon="14.4081233"><ele>637.0</ele><time>2026-05-05T12:45:21.167Z</time></trkpt><trkpt lat="37.6303317" lon="14.4079583"><ele>629.3333333333334</ele><time>2026-05-05T12:45:22.167Z</time></trkpt><trkpt lat="37.6302767" lon="14.4077833"><ele>621.6666666666666</ele><time>2026-05-05T12:45:23.167Z</time></trkpt><trkpt lat="37.6302317" lon="14.4075983"><ele>614.0</ele><time>2026-05-05T12:45:24.167Z</time></trkpt><trkpt lat="37.6302033" lon="14.4073967"><ele>614.0</ele><time>2026-05-05T12:45:25.167Z</time></trkpt><trkpt lat="37.6301683" lon="14.40719"><ele>614.0</ele><time>2026-05-05T12:45:26.167Z</time></trkpt><trkpt lat="37.6301283" lon="14.4069817"><ele>614.0</ele><time>2026-05-05T12:45:27.167Z</time></trkpt><trkpt lat="37.63009" lon="14.406775"><ele>614.3333333333333</ele><time>2026-05-05T12:45:28.167Z</time></trkpt><trkpt lat="37.630055" lon="14.40657"><ele>614.6666666666666</ele><time>2026-05-05T12:45:29.167Z</time></trkpt><trkpt lat="37.630015" lon="14.40637"><ele>615.0</ele><time>2026-05-05T12:45:30.167Z</time></trkpt><trkpt lat="37.62998" lon="14.4061733"><ele>616.0</ele><time>2026-05-05T12:45:31.167Z</time></trkpt><trkpt lat="37.6299467" lon="14.4059717"><ele>617.0</ele><time>2026-05-05T12:45:32.167Z</time></trkpt><trkpt lat="37.6299133" lon="14.405765"><ele>618.0</ele><time>2026-05-05T12:45:33.167Z</time></trkpt><trkpt lat="37.6298817" lon="14.4055617"><ele>619.0</ele><time>2026-05-05T12:45:34.167Z</time></trkpt><trkpt lat="37.6298433" lon="14.40536"><ele>620.0</ele><time>2026-05-05T12:45:35.168Z</time></trkpt><trkpt lat="37.629805" lon="14.405155"><ele>621.0</ele><time>2026-05-05T12:45:36.167Z</time></trkpt><trkpt lat="37.6297717" lon="14.404955"><ele>621.0</ele><time>2026-05-05T12:45:37.167Z</time></trkpt><trkpt lat="37.6297417" lon="14.404765"><ele>621.0</ele><time>2026-05-05T12:45:38.167Z</time></trkpt><trkpt lat="37.6297117" lon="14.40458"><ele>621.0</ele><time>2026-05-05T12:45:39.167Z</time></trkpt><trkpt lat="37.629685" lon="14.404395"><ele>621.0</ele><time>2026-05-05T12:45:40.166Z</time></trkpt><trkpt lat="37.6296767" lon="14.4042117"><ele>621.0</ele><time>2026-05-05T12:45:41.166Z</time></trkpt><trkpt lat="37.6296717" lon="14.4040317"><ele>621.0</ele><time>2026-05-05T12:45:42.166Z</time></trkpt><trkpt lat="37.6296583" lon="14.4038633"><ele>621.0</ele><time>2026-05-05T12:45:43.166Z</time></trkpt><trkpt lat="37.62962" lon="14.4037117"><ele>621.0</ele><time>2026-05-05T12:45:44.167Z</time></trkpt><trkpt lat="37.6295417" lon="14.4035733"><ele>621.0</ele><time>2026-05-05T12:45:45.166Z</time></trkpt><trkpt lat="37.6294417" lon="14.403445"><ele>621.0</ele><time>2026-05-05T12:45:46.166Z</time></trkpt><trkpt lat="37.62932" lon="14.4033367"><ele>621.0</ele><time>2026-05-05T12:45:47.166Z</time></trkpt><trkpt lat="37.629185" lon="14.4032417"><ele>622.6666666666666</ele><time>2026-05-05T12:45:48.166Z</time></trkpt><trkpt lat="37.6290433" lon="14.4031433"><ele>624.3333333333333</ele><time>2026-05-05T12:45:49.166Z</time></trkpt><trkpt lat="37.6289183" lon="14.4030467"><ele>626.0</ele><time>2026-05-05T12:45:50.166Z</time></trkpt><trkpt lat="37.6287917" lon="14.40294"><ele>626.0</ele><time>2026-05-05T12:45:51.166Z</time></trkpt><trkpt lat="37.6286833" lon="14.402825"><ele>626.0</ele><time>2026-05-05T12:45:52.166Z</time></trkpt><trkpt lat="37.6285883" lon="14.402695"><ele>626.0</ele><time>2026-05-05T12:45:53.166Z</time></trkpt><trkpt lat="37.628505" lon="14.4025467"><ele>626.0</ele><time>2026-05-05T12:45:54.166Z</time></trkpt><trkpt lat="37.628435" lon="14.40238"><ele>616.3333333333333</ele><time>2026-05-05T12:45:55.166Z</time></trkpt><trkpt lat="37.6283733" lon="14.4022017"><ele>606.6666666666666</ele><time>2026-05-05T12:45:56.166Z</time></trkpt><trkpt lat="37.628325" lon="14.4020233"><ele>597.0</ele><time>2026-05-05T12:45:57.167Z</time></trkpt><trkpt lat="37.6282933" lon="14.4018417"><ele>597.0</ele><time>2026-05-05T12:45:58.166Z</time></trkpt><trkpt lat="37.6282867" lon="14.4016617"><ele>597.0</ele><time>2026-05-05T12:45:59.166Z</time></trkpt><trkpt lat="37.62831" lon="14.4014733"><ele>597.0</ele><time>2026-05-05T12:46:00.167Z</time></trkpt><trkpt lat="37.628345" lon="14.4012817"><ele>597.0</ele><time>2026-05-05T12:46:01.166Z</time></trkpt><trkpt lat="37.6283733" lon="14.401085"><ele>594.0</ele><time>2026-05-05T12:46:02.166Z</time></trkpt><trkpt lat="37.628385" lon="14.400885"><ele>591.0</ele><time>2026-05-05T12:46:03.166Z</time></trkpt><trkpt lat="37.6283867" lon="14.40068"><ele>588.0</ele><time>2026-05-05T12:46:04.166Z</time></trkpt><trkpt lat="37.62838" lon="14.4004767"><ele>586.3333333333334</ele><time>2026-05-05T12:46:05.166Z</time></trkpt><trkpt lat="37.62838" lon="14.40027"><ele>584.6666666666667</ele><time>2026-05-05T12:46:06.166Z</time></trkpt><trkpt lat="37.6284" lon="14.400065"><ele>583.0</ele><time>2026-05-05T12:46:07.166Z</time></trkpt><trkpt lat="37.6284367" lon="14.39987"><ele>583.0</ele><time>2026-05-05T12:46:08.166Z</time></trkpt><trkpt lat="37.62847" lon="14.3996817"><ele>583.0</ele><time>2026-05-05T12:46:09.167Z</time></trkpt><trkpt lat="37.6285067" lon="14.399495"><ele>583.0</ele><time>2026-05-05T12:46:10.167Z</time></trkpt><trkpt lat="37.6285433" lon="14.399315"><ele>581.0</ele><time>2026-05-05T12:46:11.167Z</time></trkpt><trkpt lat="37.62859" lon="14.3991383"><ele>579.0</ele><time>2026-05-05T12:46:12.166Z</time></trkpt><trkpt lat="37.6286483" lon="14.3989633"><ele>577.0</ele><time>2026-05-05T12:46:13.167Z</time></trkpt><trkpt lat="37.6287117" lon="14.3987867"><ele>581.5</ele><time>2026-05-05T12:46:14.167Z</time></trkpt><trkpt lat="37.6287767" lon="14.3986167"><ele>586.0</ele><time>2026-05-05T12:46:15.166Z</time></trkpt><trkpt lat="37.628835" lon="14.3984417"><ele>590.5</ele><time>2026-05-05T12:46:16.166Z</time></trkpt><trkpt lat="37.62887" lon="14.3982583"><ele>595.0</ele><time>2026-05-05T12:46:17.167Z</time></trkpt><trkpt lat="37.628885" lon="14.3980717"><ele>591.75</ele><time>2026-05-05T12:46:18.166Z</time></trkpt><trkpt lat="37.6288983" lon="14.39789"><ele>588.5</ele><time>2026-05-05T12:46:19.166Z</time></trkpt><trkpt lat="37.6289133" lon="14.397715"><ele>585.25</ele><time>2026-05-05T12:46:20.166Z</time></trkpt><trkpt lat="37.6289317" lon="14.3975467"><ele>582.0</ele><time>2026-05-05T12:46:21.166Z</time></trkpt><trkpt lat="37.6289483" lon="14.3973833"><ele>582.0</ele><time>2026-05-05T12:46:22.166Z</time></trkpt><trkpt lat="37.6289733" lon="14.397235"><ele>582.0</ele><time>2026-05-05T12:46:23.167Z</time></trkpt><trkpt lat="37.6290083" lon="14.3971067"><ele>582.0</ele><time>2026-05-05T12:46:24.166Z</time></trkpt><trkpt lat="37.6290467" lon="14.3970033"><ele>582.0</ele><time>2026-05-05T12:46:25.167Z</time></trkpt><trkpt lat="37.6290767" lon="14.3969117"><ele>582.0</ele><time>2026-05-05T12:46:26.166Z</time></trkpt><trkpt lat="37.6290983" lon="14.39683"><ele>579.4</ele><time>2026-05-05T12:46:27.167Z</time></trkpt><trkpt lat="37.629105" lon="14.3967033"><ele>576.8000000000001</ele><time>2026-05-05T12:46:29.166Z</time></trkpt><trkpt lat="37.629065" lon="14.3966317"><ele>574.2</ele><time>2026-05-05T12:46:30.166Z</time></trkpt><trkpt lat="37.62901" lon="14.3965583"><ele>571.6</ele><time>2026-05-05T12:46:31.166Z</time></trkpt><trkpt lat="37.6289417" lon="14.396465"><ele>569.0</ele><time>2026-05-05T12:46:32.166Z</time></trkpt><trkpt lat="37.62888" lon="14.39635"><ele>567.75</ele><time>2026-05-05T12:46:33.166Z</time></trkpt><trkpt lat="37.6288417" lon="14.3962067"><ele>566.5</ele><time>2026-05-05T12:46:34.166Z</time></trkpt><trkpt lat="37.6288417" lon="14.396065"><ele>565.25</ele><time>2026-05-05T12:46:35.166Z</time></trkpt><trkpt lat="37.6288633" lon="14.3958967"><ele>564.0</ele><time>2026-05-05T12:46:36.166Z</time></trkpt><trkpt lat="37.628895" lon="14.3957417"><ele>564.0</ele><time>2026-05-05T12:46:37.166Z</time></trkpt><trkpt lat="37.6289417" lon="14.3955783"><ele>564.0</ele><time>2026-05-05T12:46:38.166Z</time></trkpt><trkpt lat="37.62899" lon="14.3954117"><ele>564.0</ele><time>2026-05-05T12:46:39.166Z</time></trkpt><trkpt lat="37.6290317" lon="14.39524"><ele>564.0</ele><time>2026-05-05T12:46:40.166Z</time></trkpt><trkpt lat="37.6290617" lon="14.3950683"><ele>564.5</ele><time>2026-05-05T12:46:41.166Z</time></trkpt><trkpt lat="37.6290617" lon="14.3948917"><ele>565.0</ele><time>2026-05-05T12:46:42.166Z</time></trkpt><trkpt lat="37.62903" lon="14.394725"><ele>565.5</ele><time>2026-05-05T12:46:43.166Z</time></trkpt><trkpt lat="37.6289983" lon="14.3945783"><ele>566.0</ele><time>2026-05-05T12:46:44.167Z</time></trkpt><trkpt lat="37.6289383" lon="14.394455"><ele>566.0</ele><time>2026-05-05T12:46:45.166Z</time></trkpt><trkpt lat="37.6288483" lon="14.394355"><ele>566.0</ele><time>2026-05-05T12:46:46.166Z</time></trkpt><trkpt lat="37.62874" lon="14.394305"><ele>566.0</ele><time>2026-05-05T12:46:47.166Z</time></trkpt><trkpt lat="37.628625" lon="14.3943133"><ele>566.0</ele><time>2026-05-05T12:46:48.166Z</time></trkpt><trkpt lat="37.6285167" lon="14.394375"><ele>566.0</ele><time>2026-05-05T12:46:49.166Z</time></trkpt><trkpt lat="37.62842" lon="14.39447"><ele>566.0</ele><time>2026-05-05T12:46:50.166Z</time></trkpt><trkpt lat="37.6283367" lon="14.3945983"><ele>566.0</ele><time>2026-05-05T12:46:51.166Z</time></trkpt><trkpt lat="37.6282533" lon="14.3947383"><ele>566.0</ele><time>2026-05-05T12:46:52.166Z</time></trkpt><trkpt lat="37.6281783" lon="14.3948833"><ele>570.5</ele><time>2026-05-05T12:46:53.167Z</time></trkpt><trkpt lat="37.6281233" lon="14.3950317"><ele>575.0</ele><time>2026-05-05T12:46:54.166Z</time></trkpt><trkpt lat="37.6280967" lon="14.395185"><ele>579.5</ele><time>2026-05-05T12:46:55.166Z</time></trkpt><trkpt lat="37.628075" lon="14.395325"><ele>584.0</ele><time>2026-05-05T12:46:56.167Z</time></trkpt><trkpt lat="37.628025" lon="14.3954483"><ele>584.2</ele><time>2026-05-05T12:46:57.166Z</time></trkpt><trkpt lat="37.62795" lon="14.3955433"><ele>584.4</ele><time>2026-05-05T12:46:58.166Z</time></trkpt><trkpt lat="37.6278567" lon="14.3955983"><ele>584.6</ele><time>2026-05-05T12:46:59.166Z</time></trkpt><trkpt lat="37.627745" lon="14.3956183"><ele>584.8</ele><time>2026-05-05T12:47:00.166Z</time></trkpt><trkpt lat="37.62764" lon="14.3955967"><ele>585.0</ele><time>2026-05-05T12:47:01.166Z</time></trkpt><trkpt lat="37.6275267" lon="14.3955833"><ele>587.75</ele><time>2026-05-05T12:47:02.167Z</time></trkpt><trkpt lat="37.6274067" lon="14.395595"><ele>590.5</ele><time>2026-05-05T12:47:03.166Z</time></trkpt><trkpt lat="37.6272867" lon="14.395645"><ele>593.25</ele><time>2026-05-05T12:47:04.166Z</time></trkpt><trkpt lat="37.6271733" lon="14.39572"><ele>596.0</ele><time>2026-05-05T12:47:05.166Z</time></trkpt><trkpt lat="37.6270617" lon="14.3957967"><ele>596.6</ele><time>2026-05-05T12:47:06.166Z</time></trkpt><trkpt lat="37.6269467" lon="14.3958583"><ele>597.2</ele><time>2026-05-05T12:47:07.166Z</time></trkpt><trkpt lat="37.62684" lon="14.3958917"><ele>597.8</ele><time>2026-05-05T12:47:08.166Z</time></trkpt><trkpt lat="37.6267417" lon="14.3958833"><ele>598.4</ele><time>2026-05-05T12:47:09.166Z</time></trkpt><trkpt lat="37.6266533" lon="14.3958183"><ele>599.0</ele><time>2026-05-05T12:47:10.166Z</time></trkpt><trkpt lat="37.6265833" lon="14.39571"><ele>599.0</ele><time>2026-05-05T12:47:11.166Z</time></trkpt><trkpt lat="37.626525" lon="14.3955717"><ele>599.0</ele><time>2026-05-05T12:47:12.166Z</time></trkpt><trkpt lat="37.6264733" lon="14.3954183"><ele>599.0</ele><time>2026-05-05T12:47:13.166Z</time></trkpt><trkpt lat="37.6264217" lon="14.3952533"><ele>599.0</ele><time>2026-05-05T12:47:14.166Z</time></trkpt><trkpt lat="37.62637" lon="14.3950667"><ele>599.25</ele><time>2026-05-05T12:47:15.166Z</time></trkpt><trkpt lat="37.6263167" lon="14.3948717"><ele>599.5</ele><time>2026-05-05T12:47:16.166Z</time></trkpt><trkpt lat="37.6262683" lon="14.3946983"><ele>599.75</ele><time>2026-05-05T12:47:17.166Z</time></trkpt><trkpt lat="37.6262133" lon="14.3945567"><ele>600.0</ele><time>2026-05-05T12:47:18.166Z</time></trkpt><trkpt lat="37.6261383" lon="14.3944433"><ele>600.0</ele><time>2026-05-05T12:47:19.166Z</time></trkpt><trkpt lat="37.626035" lon="14.39437"><ele>600.0</ele><time>2026-05-05T12:47:20.166Z</time></trkpt><trkpt lat="37.6259117" lon="14.3943283"><ele>600.0</ele><time>2026-05-05T12:47:21.166Z</time></trkpt><trkpt lat="37.62578" lon="14.3942983"><ele>600.0</ele><time>2026-05-05T12:47:22.166Z</time></trkpt><trkpt lat="37.6256317" lon="14.394255"><ele>600.0</ele><time>2026-05-05T12:47:23.166Z</time></trkpt><trkpt lat="37.6254817" lon="14.394195"><ele>600.0</ele><time>2026-05-05T12:47:24.166Z</time></trkpt><trkpt lat="37.625345" lon="14.39411"><ele>600.0</ele><time>2026-05-05T12:47:25.166Z</time></trkpt><trkpt lat="37.6252183" lon="14.394"><ele>602.0</ele><time>2026-05-05T12:47:26.166Z</time></trkpt><trkpt lat="37.62508" lon="14.3938883"><ele>604.0</ele><time>2026-05-05T12:47:27.166Z</time></trkpt><trkpt lat="37.62495" lon="14.3937867"><ele>606.0</ele><time>2026-05-05T12:47:28.166Z</time></trkpt><trkpt lat="37.624825" lon="14.39369"><ele>603.75</ele><time>2026-05-05T12:47:29.166Z</time></trkpt><trkpt lat="37.6247017" lon="14.3936033"><ele>601.5</ele><time>2026-05-05T12:47:30.166Z</time></trkpt><trkpt lat="37.6245967" lon="14.39352"><ele>599.25</ele><time>2026-05-05T12:47:31.166Z</time></trkpt><trkpt lat="37.6245033" lon="14.3934167"><ele>597.0</ele><time>2026-05-05T12:47:32.166Z</time></trkpt><trkpt lat="37.6244517" lon="14.3932767"><ele>597.0</ele><time>2026-05-05T12:47:33.166Z</time></trkpt><trkpt lat="37.624435" lon="14.393105"><ele>597.0</ele><time>2026-05-05T12:47:34.167Z</time></trkpt><trkpt lat="37.6244367" lon="14.3929233"><ele>597.0</ele><time>2026-05-05T12:47:35.166Z</time></trkpt><trkpt lat="37.6244417" lon="14.39273"><ele>597.0</ele><time>2026-05-05T12:47:36.166Z</time></trkpt><trkpt lat="37.6244533" lon="14.3925367"><ele>595.75</ele><time>2026-05-05T12:47:37.166Z</time></trkpt><trkpt lat="37.62447" lon="14.3923467"><ele>594.5</ele><time>2026-05-05T12:47:38.167Z</time></trkpt><trkpt lat="37.6244867" lon="14.39216"><ele>593.25</ele><time>2026-05-05T12:47:39.166Z</time></trkpt><trkpt lat="37.6245117" lon="14.3919767"><ele>592.0</ele><time>2026-05-05T12:47:40.166Z</time></trkpt><trkpt lat="37.6245367" lon="14.39179"><ele>587.6666666666667</ele><time>2026-05-05T12:47:41.166Z</time></trkpt><trkpt lat="37.6245683" lon="14.3915983"><ele>583.3333333333334</ele><time>2026-05-05T12:47:42.166Z</time></trkpt><trkpt lat="37.6246" lon="14.39141"><ele>579.0</ele><time>2026-05-05T12:47:43.166Z</time></trkpt><trkpt lat="37.6246467" lon="14.3912233"><ele>579.0</ele><time>2026-05-05T12:47:44.166Z</time></trkpt><trkpt lat="37.624695" lon="14.39104"><ele>579.0</ele><time>2026-05-05T12:47:45.166Z</time></trkpt><trkpt lat="37.6247567" lon="14.3908783"><ele>579.0</ele><time>2026-05-05T12:47:46.167Z</time></trkpt><trkpt lat="37.6248333" lon="14.3907333"><ele>579.0</ele><time>2026-05-05T12:47:47.167Z</time></trkpt><trkpt lat="37.6249467" lon="14.390615"><ele>579.0</ele><time>2026-05-05T12:47:48.166Z</time></trkpt><trkpt lat="37.6250633" lon="14.3905333"><ele>579.0</ele><time>2026-05-05T12:47:49.166Z</time></trkpt><trkpt lat="37.62519" lon="14.3904817"><ele>579.0</ele><time>2026-05-05T12:47:50.166Z</time></trkpt><trkpt lat="37.625315" lon="14.3904183"><ele>579.0</ele><time>2026-05-05T12:47:51.166Z</time></trkpt><trkpt lat="37.6254283" lon="14.3903367"><ele>576.0</ele><time>2026-05-05T12:47:52.166Z</time></trkpt><trkpt lat="37.6255317" lon="14.390225"><ele>573.0</ele><time>2026-05-05T12:47:53.166Z</time></trkpt><trkpt lat="37.6256083" lon="14.3900933"><ele>570.0</ele><time>2026-05-05T12:47:54.166Z</time></trkpt><trkpt lat="37.6256667" lon="14.3899567"><ele>567.0</ele><time>2026-05-05T12:47:55.166Z</time></trkpt><trkpt lat="37.6257083" lon="14.3898067"><ele>567.75</ele><time>2026-05-05T12:47:56.167Z</time></trkpt><trkpt lat="37.6257317" lon="14.38964"><ele>568.5</ele><time>2026-05-05T12:47:57.166Z</time></trkpt><trkpt lat="37.6257467" lon="14.3894733"><ele>569.25</ele><time>2026-05-05T12:47:58.166Z</time></trkpt><trkpt lat="37.625765" lon="14.3893167"><ele>570.0</ele><time>2026-05-05T12:47:59.166Z</time></trkpt><trkpt lat="37.6258017" lon="14.3891667"><ele>570.0</ele><time>2026-05-05T12:48:00.166Z</time></trkpt><trkpt lat="37.6258417" lon="14.38903"><ele>570.0</ele><time>2026-05-05T12:48:01.166Z</time></trkpt><trkpt lat="37.6258883" lon="14.3888967"><ele>570.0</ele><time>2026-05-05T12:48:02.166Z</time></trkpt><trkpt lat="37.62594" lon="14.38877"><ele>570.0</ele><time>2026-05-05T12:48:03.166Z</time></trkpt><trkpt lat="37.626" lon="14.3886517"><ele>570.2</ele><time>2026-05-05T12:48:04.166Z</time></trkpt><trkpt lat="37.6260683" lon="14.3885617"><ele>570.4</ele><time>2026-05-05T12:48:05.166Z</time></trkpt><trkpt lat="37.6261583" lon="14.388495"><ele>570.6</ele><time>2026-05-05T12:48:06.167Z</time></trkpt><trkpt lat="37.6262583" lon="14.3884567"><ele>570.8</ele><time>2026-05-05T12:48:07.167Z</time></trkpt><trkpt lat="37.626355" lon="14.38846"><ele>571.0</ele><time>2026-05-05T12:48:08.166Z</time></trkpt><trkpt lat="37.62645" lon="14.388485"><ele>569.0</ele><time>2026-05-05T12:48:09.166Z</time></trkpt><trkpt lat="37.626535" lon="14.3885167"><ele>567.0</ele><time>2026-05-05T12:48:10.167Z</time></trkpt><trkpt lat="37.6266167" lon="14.3885517"><ele>565.0</ele><time>2026-05-05T12:48:11.166Z</time></trkpt><trkpt lat="37.626695" lon="14.3885833"><ele>563.0</ele><time>2026-05-05T12:48:12.166Z</time></trkpt><trkpt lat="37.626765" lon="14.3886083"><ele>561.0</ele><time>2026-05-05T12:48:13.166Z</time></trkpt><trkpt lat="37.6268883" lon="14.3886133"><ele>561.0</ele><time>2026-05-05T12:48:15.167Z</time></trkpt><trkpt lat="37.6269433" lon="14.3885633"><ele>561.0</ele><time>2026-05-05T12:48:16.166Z</time></trkpt><trkpt lat="37.62698" lon="14.388485"><ele>561.0</ele><time>2026-05-05T12:48:17.166Z</time></trkpt><trkpt lat="37.6269933" lon="14.3883917"><ele>561.0</ele><time>2026-05-05T12:48:18.167Z</time></trkpt><trkpt lat="37.6269767" lon="14.38827"><ele>561.0</ele><time>2026-05-05T12:48:19.166Z</time></trkpt><trkpt lat="37.6269433" lon="14.3881283"><ele>561.0</ele><time>2026-05-05T12:48:20.166Z</time></trkpt><trkpt lat="37.6269033" lon="14.387985"><ele>560.25</ele><time>2026-05-05T12:48:21.166Z</time></trkpt><trkpt lat="37.6268683" lon="14.387845"><ele>559.5</ele><time>2026-05-05T12:48:22.166Z</time></trkpt><trkpt lat="37.6268383" lon="14.3877033"><ele>558.75</ele><time>2026-05-05T12:48:23.166Z</time></trkpt><trkpt lat="37.6268117" lon="14.3875683"><ele>558.0</ele><time>2026-05-05T12:48:24.166Z</time></trkpt><trkpt lat="37.6267883" lon="14.3874183"><ele>558.0</ele><time>2026-05-05T12:48:25.166Z</time></trkpt><trkpt lat="37.6267683" lon="14.3872767"><ele>558.0</ele><time>2026-05-05T12:48:26.166Z</time></trkpt><trkpt lat="37.6267617" lon="14.3871367"><ele>558.0</ele><time>2026-05-05T12:48:27.166Z</time></trkpt><trkpt lat="37.6267683" lon="14.387"><ele>558.0</ele><time>2026-05-05T12:48:28.166Z</time></trkpt><trkpt lat="37.6267767" lon="14.3868683"><ele>558.0</ele><time>2026-05-05T12:48:29.166Z</time></trkpt><trkpt lat="37.6267817" lon="14.3867383"><ele>556.1999999999999</ele><time>2026-05-05T12:48:30.166Z</time></trkpt><trkpt lat="37.6267983" lon="14.3866133"><ele>554.4</ele><time>2026-05-05T12:48:31.166Z</time></trkpt><trkpt lat="37.6268183" lon="14.386485"><ele>552.5999999999999</ele><time>2026-05-05T12:48:32.166Z</time></trkpt><trkpt lat="37.62684" lon="14.3863667"><ele>550.8</ele><time>2026-05-05T12:48:33.166Z</time></trkpt><trkpt lat="37.62685" lon="14.38626"><ele>549.0</ele><time>2026-05-05T12:48:34.166Z</time></trkpt><trkpt lat="37.6268583" lon="14.3861667"><ele>546.8333333333334</ele><time>2026-05-05T12:48:35.166Z</time></trkpt><trkpt lat="37.6268633" lon="14.38608"><ele>544.6666666666666</ele><time>2026-05-05T12:48:36.166Z</time></trkpt><trkpt lat="37.6268433" lon="14.386"><ele>542.5</ele><time>2026-05-05T12:48:37.166Z</time></trkpt><trkpt lat="37.62679" lon="14.3859267"><ele>540.3333333333333</ele><time>2026-05-05T12:48:38.166Z</time></trkpt><trkpt lat="37.626715" lon="14.38588"><ele>538.1666666666666</ele><time>2026-05-05T12:48:39.166Z</time></trkpt><trkpt lat="37.6266267" lon="14.38585"><ele>536.0</ele><time>2026-05-05T12:48:40.167Z</time></trkpt><trkpt lat="37.6265333" lon="14.3858283"><ele>536.0</ele><time>2026-05-05T12:48:41.166Z</time></trkpt><trkpt lat="37.6264267" lon="14.3858067"><ele>536.0</ele><time>2026-05-05T12:48:42.166Z</time></trkpt><trkpt lat="37.6263183" lon="14.3857867"><ele>536.0</ele><time>2026-05-05T12:48:43.166Z</time></trkpt><trkpt lat="37.626205" lon="14.3857733"><ele>536.0</ele><time>2026-05-05T12:48:44.166Z</time></trkpt><trkpt lat="37.6260967" lon="14.3857833"><ele>536.0</ele><time>2026-05-05T12:48:45.167Z</time></trkpt><trkpt lat="37.6259933" lon="14.3858067"><ele>536.0</ele><time>2026-05-05T12:48:46.167Z</time></trkpt><trkpt lat="37.6258917" lon="14.3858333"><ele>536.0</ele><time>2026-05-05T12:48:47.166Z</time></trkpt><trkpt lat="37.6258" lon="14.385855"><ele>536.0</ele><time>2026-05-05T12:48:48.166Z</time></trkpt><trkpt lat="37.6257067" lon="14.3858533"><ele>536.0</ele><time>2026-05-05T12:48:49.166Z</time></trkpt><trkpt lat="37.6256067" lon="14.3858133"><ele>536.0</ele><time>2026-05-05T12:48:50.166Z</time></trkpt><trkpt lat="37.62551" lon="14.3857417"><ele>536.0</ele><time>2026-05-05T12:48:51.166Z</time></trkpt><trkpt lat="37.6254283" lon="14.38564"><ele>536.0</ele><time>2026-05-05T12:48:52.166Z</time></trkpt><trkpt lat="37.6253533" lon="14.385535"><ele>536.0</ele><time>2026-05-05T12:48:53.166Z</time></trkpt><trkpt lat="37.6252817" lon="14.3854317"><ele>536.0</ele><time>2026-05-05T12:48:54.166Z</time></trkpt><trkpt lat="37.6251967" lon="14.3853167"><ele>532.0</ele><time>2026-05-05T12:48:55.166Z</time></trkpt><trkpt lat="37.6251067" lon="14.3852183"><ele>528.0</ele><time>2026-05-05T12:48:56.166Z</time></trkpt><trkpt lat="37.6250017" lon="14.3851467"><ele>524.0</ele><time>2026-05-05T12:48:57.166Z</time></trkpt><trkpt lat="37.6248783" lon="14.385105"><ele>520.0</ele><time>2026-05-05T12:48:58.164Z</time></trkpt><trkpt lat="37.62475" lon="14.385065"><ele>520.0</ele><time>2026-05-05T12:48:59.166Z</time></trkpt><trkpt lat="37.6246283" lon="14.385025"><ele>520.0</ele><time>2026-05-05T12:49:00.167Z</time></trkpt><trkpt lat="37.624505" lon="14.384975"><ele>520.0</ele><time>2026-05-05T12:49:01.166Z</time></trkpt><trkpt lat="37.6243817" lon="14.3849067"><ele>520.0</ele><time>2026-05-05T12:49:02.167Z</time></trkpt><trkpt lat="37.6242617" lon="14.3848233"><ele>521.75</ele><time>2026-05-05T12:49:03.166Z</time></trkpt><trkpt lat="37.62415" lon="14.38474"><ele>523.5</ele><time>2026-05-05T12:49:04.166Z</time></trkpt><trkpt lat="37.6240467" lon="14.38467"><ele>525.25</ele><time>2026-05-05T12:49:05.166Z</time></trkpt><trkpt lat="37.6239383" lon="14.384615"><ele>527.0</ele><time>2026-05-05T12:49:06.167Z</time></trkpt><trkpt lat="37.6238267" lon="14.3845767"><ele>524.0</ele><time>2026-05-05T12:49:07.166Z</time></trkpt><trkpt lat="37.6236967" lon="14.3845633"><ele>521.0</ele><time>2026-05-05T12:49:08.166Z</time></trkpt><trkpt lat="37.6235683" lon="14.3845833"><ele>518.0</ele><time>2026-05-05T12:49:09.167Z</time></trkpt><trkpt lat="37.6234417" lon="14.3846183"><ele>515.0</ele><time>2026-05-05T12:49:10.166Z</time></trkpt><trkpt lat="37.6233233" lon="14.38467"><ele>517.75</ele><time>2026-05-05T12:49:11.167Z</time></trkpt><trkpt lat="37.6232117" lon="14.3847267"><ele>520.5</ele><time>2026-05-05T12:49:12.166Z</time></trkpt><trkpt lat="37.6231017" lon="14.3847967"><ele>523.25</ele><time>2026-05-05T12:49:13.166Z</time></trkpt><trkpt lat="37.6229867" lon="14.3848633"><ele>526.0</ele><time>2026-05-05T12:49:14.167Z</time></trkpt><trkpt lat="37.6228767" lon="14.3849267"><ele>524.5</ele><time>2026-05-05T12:49:15.167Z</time></trkpt><trkpt lat="37.62277" lon="14.38499"><ele>523.0</ele><time>2026-05-05T12:49:16.166Z</time></trkpt><trkpt lat="37.622665" lon="14.38506"><ele>521.5</ele><time>2026-05-05T12:49:17.167Z</time></trkpt><trkpt lat="37.62258" lon="14.3851517"><ele>520.0</ele><time>2026-05-05T12:49:18.166Z</time></trkpt><trkpt lat="37.6225033" lon="14.3852617"><ele>520.0</ele><time>2026-05-05T12:49:19.166Z</time></trkpt><trkpt lat="37.6224583" lon="14.3854133"><ele>520.0</ele><time>2026-05-05T12:49:20.166Z</time></trkpt><trkpt lat="37.6224333" lon="14.38561"><ele>520.0</ele><time>2026-05-05T12:49:21.166Z</time></trkpt><trkpt lat="37.622405" lon="14.385835"><ele>521.0</ele><time>2026-05-05T12:49:22.166Z</time></trkpt><trkpt lat="37.622365" lon="14.3860883"><ele>522.0</ele><time>2026-05-05T12:49:23.166Z</time></trkpt><trkpt lat="37.622305" lon="14.38636"><ele>523.0</ele><time>2026-05-05T12:49:24.166Z</time></trkpt><trkpt lat="37.62224" lon="14.3866117"><ele>524.3333333333334</ele><time>2026-05-05T12:49:25.167Z</time></trkpt><trkpt lat="37.6221667" lon="14.3868367"><ele>525.6666666666666</ele><time>2026-05-05T12:49:26.166Z</time></trkpt><trkpt lat="37.622085" lon="14.387035"><ele>527.0</ele><time>2026-05-05T12:49:27.166Z</time></trkpt><trkpt lat="37.6219983" lon="14.38722"><ele>526.25</ele><time>2026-05-05T12:49:28.166Z</time></trkpt><trkpt lat="37.621915" lon="14.38739"><ele>525.5</ele><time>2026-05-05T12:49:29.167Z</time></trkpt><trkpt lat="37.62184" lon="14.3875483"><ele>524.75</ele><time>2026-05-05T12:49:30.166Z</time></trkpt><trkpt lat="37.6217617" lon="14.3876933"><ele>524.0</ele><time>2026-05-05T12:49:31.166Z</time></trkpt><trkpt lat="37.621655" lon="14.3878083"><ele>524.0</ele><time>2026-05-05T12:49:32.166Z</time></trkpt><trkpt lat="37.6215167" lon="14.3878817"><ele>524.0</ele><time>2026-05-05T12:49:33.166Z</time></trkpt><trkpt lat="37.62138" lon="14.3879183"><ele>524.0</ele><time>2026-05-05T12:49:34.166Z</time></trkpt><trkpt lat="37.6212167" lon="14.3879283"><ele>523.0</ele><time>2026-05-05T12:49:35.166Z</time></trkpt><trkpt lat="37.6210433" lon="14.3879317"><ele>522.0</ele><time>2026-05-05T12:49:36.166Z</time></trkpt><trkpt lat="37.6208683" lon="14.38794"><ele>521.0</ele><time>2026-05-05T12:49:37.166Z</time></trkpt><trkpt lat="37.6207017" lon="14.3879567"><ele>521.0</ele><time>2026-05-05T12:49:38.166Z</time></trkpt><trkpt lat="37.6205283" lon="14.3879733"><ele>521.0</ele><time>2026-05-05T12:49:39.166Z</time></trkpt><trkpt lat="37.6203683" lon="14.387995"><ele>521.0</ele><time>2026-05-05T12:49:40.166Z</time></trkpt><trkpt lat="37.6202067" lon="14.3880317"><ele>523.3333333333333</ele><time>2026-05-05T12:49:41.166Z</time></trkpt><trkpt lat="37.6200567" lon="14.3880817"><ele>525.6666666666666</ele><time>2026-05-05T12:49:42.166Z</time></trkpt><trkpt lat="37.619925" lon="14.3881467"><ele>528.0</ele><time>2026-05-05T12:49:43.166Z</time></trkpt><trkpt lat="37.619785" lon="14.388225"><ele>528.0</ele><time>2026-05-05T12:49:44.166Z</time></trkpt><trkpt lat="37.6196583" lon="14.3882867"><ele>528.0</ele><time>2026-05-05T12:49:45.166Z</time></trkpt><trkpt lat="37.61953" lon="14.3883317"><ele>528.0</ele><time>2026-05-05T12:49:46.166Z</time></trkpt><trkpt lat="37.6194017" lon="14.388345"><ele>528.0</ele><time>2026-05-05T12:49:47.167Z</time></trkpt><trkpt lat="37.6192717" lon="14.3883167"><ele>528.0</ele><time>2026-05-05T12:49:48.166Z</time></trkpt><trkpt lat="37.61915" lon="14.388235"><ele>528.0</ele><time>2026-05-05T12:49:49.166Z</time></trkpt><trkpt lat="37.6190367" lon="14.3881283"><ele>528.0</ele><time>2026-05-05T12:49:50.166Z</time></trkpt><trkpt lat="37.6189133" lon="14.3880333"><ele>528.0</ele><time>2026-05-05T12:49:51.166Z</time></trkpt><trkpt lat="37.6187633" lon="14.38797"><ele>523.3333333333334</ele><time>2026-05-05T12:49:52.166Z</time></trkpt><trkpt lat="37.6185967" lon="14.3879533"><ele>518.6666666666667</ele><time>2026-05-05T12:49:53.166Z</time></trkpt><trkpt lat="37.61843" lon="14.3879517"><ele>514.0</ele><time>2026-05-05T12:49:54.166Z</time></trkpt><trkpt lat="37.618255" lon="14.38796"><ele>514.0</ele><time>2026-05-05T12:49:55.166Z</time></trkpt><trkpt lat="37.6180917" lon="14.3879817"><ele>514.0</ele><time>2026-05-05T12:49:56.166Z</time></trkpt><trkpt lat="37.6179317" lon="14.388025"><ele>514.0</ele><time>2026-05-05T12:49:57.167Z</time></trkpt><trkpt lat="37.6177767" lon="14.38809"><ele>517.6666666666667</ele><time>2026-05-05T12:49:58.166Z</time></trkpt><trkpt lat="37.617635" lon="14.388175"><ele>521.3333333333334</ele><time>2026-05-05T12:49:59.166Z</time></trkpt><trkpt lat="37.6174967" lon="14.388275"><ele>525.0</ele><time>2026-05-05T12:50:00.166Z</time></trkpt><trkpt lat="37.6173617" lon="14.388375"><ele>525.0</ele><time>2026-05-05T12:50:01.166Z</time></trkpt><trkpt lat="37.6172233" lon="14.3884783"><ele>525.0</ele><time>2026-05-05T12:50:02.166Z</time></trkpt><trkpt lat="37.6170883" lon="14.388555"><ele>525.0</ele><time>2026-05-05T12:50:03.166Z</time></trkpt><trkpt lat="37.6169267" lon="14.3885933"><ele>523.0</ele><time>2026-05-05T12:50:04.166Z</time></trkpt><trkpt lat="37.6167767" lon="14.3886117"><ele>521.0</ele><time>2026-05-05T12:50:05.166Z</time></trkpt><trkpt lat="37.6166283" lon="14.38865"><ele>519.0</ele><time>2026-05-05T12:50:06.166Z</time></trkpt><trkpt lat="37.6165067" lon="14.3886967"><ele>517.0</ele><time>2026-05-05T12:50:07.167Z</time></trkpt><trkpt lat="37.6164033" lon="14.388755"><ele>516.75</ele><time>2026-05-05T12:50:08.166Z</time></trkpt><trkpt lat="37.6163083" lon="14.3888467"><ele>516.5</ele><time>2026-05-05T12:50:09.167Z</time></trkpt><trkpt lat="37.61622" lon="14.388955"><ele>516.25</ele><time>2026-05-05T12:50:10.167Z</time></trkpt><trkpt lat="37.6161283" lon="14.3890783"><ele>516.0</ele><time>2026-05-05T12:50:11.166Z</time></trkpt><trkpt lat="37.6160383" lon="14.3892067"><ele>516.0</ele><time>2026-05-05T12:50:12.166Z</time></trkpt><trkpt lat="37.6159467" lon="14.3893267"><ele>516.0</ele><time>2026-05-05T12:50:13.166Z</time></trkpt><trkpt lat="37.61586" lon="14.3894433"><ele>516.0</ele><time>2026-05-05T12:50:14.166Z</time></trkpt><trkpt lat="37.61577" lon="14.3895417"><ele>516.0</ele><time>2026-05-05T12:50:15.166Z</time></trkpt><trkpt lat="37.61567" lon="14.389615"><ele>516.0</ele><time>2026-05-05T12:50:16.166Z</time></trkpt><trkpt lat="37.615555" lon="14.389665"><ele>516.0</ele><time>2026-05-05T12:50:17.166Z</time></trkpt><trkpt lat="37.615435" lon="14.3897067"><ele>516.0</ele><time>2026-05-05T12:50:18.166Z</time></trkpt><trkpt lat="37.6153183" lon="14.3897483"><ele>516.0</ele><time>2026-05-05T12:50:19.167Z</time></trkpt><trkpt lat="37.6152083" lon="14.3898017"><ele>517.2</ele><time>2026-05-05T12:50:20.166Z</time></trkpt><trkpt lat="37.6151" lon="14.3898583"><ele>518.4000000000001</ele><time>2026-05-05T12:50:21.167Z</time></trkpt><trkpt lat="37.6150117" lon="14.3899267"><ele>519.6</ele><time>2026-05-05T12:50:22.166Z</time></trkpt><trkpt lat="37.61492" lon="14.38999"><ele>520.8000000000001</ele><time>2026-05-05T12:50:23.166Z</time></trkpt><trkpt lat="37.6148417" lon="14.390045"><ele>522.0</ele><time>2026-05-05T12:50:24.166Z</time></trkpt><trkpt lat="37.6147717" lon="14.3900933"><ele>522.0</ele><time>2026-05-05T12:50:25.166Z</time></trkpt><trkpt lat="37.61471" lon="14.3901317"><ele>522.0</ele><time>2026-05-05T12:50:26.166Z</time></trkpt><trkpt lat="37.6146" lon="14.390185"><ele>522.0</ele><time>2026-05-05T12:50:28.166Z</time></trkpt><trkpt lat="37.6144817" lon="14.3902133"><ele>522.0</ele><time>2026-05-05T12:50:30.166Z</time></trkpt><trkpt lat="37.6144067" lon="14.3902083"><ele>522.0</ele><time>2026-05-05T12:50:31.166Z</time></trkpt><trkpt lat="37.6143183" lon="14.39019"><ele>518.4</ele><time>2026-05-05T12:50:32.167Z</time></trkpt><trkpt lat="37.614225" lon="14.3901517"><ele>514.8000000000001</ele><time>2026-05-05T12:50:33.166Z</time></trkpt><trkpt lat="37.6141317" lon="14.3901017"><ele>511.2</ele><time>2026-05-05T12:50:34.167Z</time></trkpt><trkpt lat="37.6140367" lon="14.3900483"><ele>507.6</ele><time>2026-05-05T12:50:35.166Z</time></trkpt><trkpt lat="37.6139367" lon="14.3899933"><ele>504.0</ele><time>2026-05-05T12:50:36.166Z</time></trkpt><trkpt lat="37.6138383" lon="14.3899367"><ele>504.0</ele><time>2026-05-05T12:50:37.166Z</time></trkpt><trkpt lat="37.6137517" lon="14.3898783"><ele>504.0</ele><time>2026-05-05T12:50:38.166Z</time></trkpt><trkpt lat="37.61368" lon="14.389825"><ele>504.0</ele><time>2026-05-05T12:50:39.166Z</time></trkpt><trkpt lat="37.613605" lon="14.389785"><ele>504.0</ele><time>2026-05-05T12:50:40.166Z</time></trkpt><trkpt lat="37.613525" lon="14.3897617"><ele>504.0</ele><time>2026-05-05T12:50:41.166Z</time></trkpt><trkpt lat="37.6134467" lon="14.389775"><ele>504.0</ele><time>2026-05-05T12:50:42.166Z</time></trkpt><trkpt lat="37.6133783" lon="14.389825"><ele>502.1666666666667</ele><time>2026-05-05T12:50:43.167Z</time></trkpt><trkpt lat="37.6133233" lon="14.3898967"><ele>500.33333333333337</ele><time>2026-05-05T12:50:44.166Z</time></trkpt><trkpt lat="37.6132683" lon="14.3899917"><ele>498.5</ele><time>2026-05-05T12:50:45.166Z</time></trkpt><trkpt lat="37.6132217" lon="14.3900883"><ele>496.6666666666667</ele><time>2026-05-05T12:50:46.166Z</time></trkpt><trkpt lat="37.6131767" lon="14.3901683"><ele>494.83333333333337</ele><time>2026-05-05T12:50:47.166Z</time></trkpt><trkpt lat="37.6131283" lon="14.3902367"><ele>493.0</ele><time>2026-05-05T12:50:48.167Z</time></trkpt><trkpt lat="37.6130217" lon="14.3902933"><ele>493.0</ele><time>2026-05-05T12:50:50.166Z</time></trkpt><trkpt lat="37.6129583" lon="14.39028"><ele>492.99999999999994</ele><time>2026-05-05T12:50:51.166Z</time></trkpt><trkpt lat="37.61288" lon="14.390165"><ele>492.99999999999994</ele><time>2026-05-05T12:50:53.166Z</time></trkpt><trkpt lat="37.6128733" lon="14.3900533"><ele>493.0</ele><time>2026-05-05T12:50:54.166Z</time></trkpt><trkpt lat="37.6128967" lon="14.38992"><ele>493.0</ele><time>2026-05-05T12:50:55.167Z</time></trkpt><trkpt lat="37.6129383" lon="14.3897783"><ele>489.75</ele><time>2026-05-05T12:50:56.166Z</time></trkpt><trkpt lat="37.6129983" lon="14.38964"><ele>486.5</ele><time>2026-05-05T12:50:57.166Z</time></trkpt><trkpt lat="37.613065" lon="14.3895117"><ele>483.25</ele><time>2026-05-05T12:50:58.166Z</time></trkpt><trkpt lat="37.61314" lon="14.3893783"><ele>480.0</ele><time>2026-05-05T12:50:59.166Z</time></trkpt><trkpt lat="37.613205" lon="14.38925"><ele>480.0</ele><time>2026-05-05T12:51:00.166Z</time></trkpt><trkpt lat="37.6132733" lon="14.389125"><ele>480.0</ele><time>2026-05-05T12:51:01.166Z</time></trkpt><trkpt lat="37.613335" lon="14.3890083"><ele>480.0</ele><time>2026-05-05T12:51:02.166Z</time></trkpt><trkpt lat="37.6133883" lon="14.3889033"><ele>480.0</ele><time>2026-05-05T12:51:03.167Z</time></trkpt><trkpt lat="37.613435" lon="14.3888017"><ele>480.0</ele><time>2026-05-05T12:51:04.166Z</time></trkpt><trkpt lat="37.6134733" lon="14.3887"><ele>478.1666666666667</ele><time>2026-05-05T12:51:05.166Z</time></trkpt><trkpt lat="37.6134933" lon="14.3885967"><ele>476.33333333333337</ele><time>2026-05-05T12:51:06.166Z</time></trkpt><trkpt lat="37.6134917" lon="14.38849"><ele>474.5</ele><time>2026-05-05T12:51:07.167Z</time></trkpt><trkpt lat="37.6134733" lon="14.3883767"><ele>472.6666666666667</ele><time>2026-05-05T12:51:08.166Z</time></trkpt><trkpt lat="37.6134367" lon="14.3882633"><ele>470.83333333333337</ele><time>2026-05-05T12:51:09.167Z</time></trkpt><trkpt lat="37.6133883" lon="14.388165"><ele>469.0</ele><time>2026-05-05T12:51:10.166Z</time></trkpt><trkpt lat="37.6133233" lon="14.3880833"><ele>469.00000000000006</ele><time>2026-05-05T12:51:11.167Z</time></trkpt><trkpt lat="37.6132517" lon="14.388035"><ele>469.0</ele><time>2026-05-05T12:51:12.166Z</time></trkpt><trkpt lat="37.6131767" lon="14.3880067"><ele>469.0</ele><time>2026-05-05T12:51:13.166Z</time></trkpt><trkpt lat="37.61309" lon="14.3880083"><ele>469.0</ele><time>2026-05-05T12:51:14.166Z</time></trkpt><trkpt lat="37.6130067" lon="14.3880383"><ele>469.00000000000006</ele><time>2026-05-05T12:51:15.166Z</time></trkpt><trkpt lat="37.6129267" lon="14.3881"><ele>469.0</ele><time>2026-05-05T12:51:16.166Z</time></trkpt><trkpt lat="37.6128467" lon="14.388175"><ele>466.79999999999995</ele><time>2026-05-05T12:51:17.167Z</time></trkpt><trkpt lat="37.6127667" lon="14.3882367"><ele>464.59999999999997</ele><time>2026-05-05T12:51:18.166Z</time></trkpt><trkpt lat="37.6126767" lon="14.3882717"><ele>462.4</ele><time>2026-05-05T12:51:19.167Z</time></trkpt><trkpt lat="37.6125883" lon="14.3883033"><ele>460.2</ele><time>2026-05-05T12:51:20.166Z</time></trkpt><trkpt lat="37.6124917" lon="14.3883233"><ele>458.0</ele><time>2026-05-05T12:51:21.167Z</time></trkpt><trkpt lat="37.6124117" lon="14.3883517"><ele>457.99999999999994</ele><time>2026-05-05T12:51:22.167Z</time></trkpt><trkpt lat="37.612335" lon="14.3883733"><ele>458.0</ele><time>2026-05-05T12:51:23.166Z</time></trkpt><trkpt lat="37.61226" lon="14.3883933"><ele>458.0</ele><time>2026-05-05T12:51:24.167Z</time></trkpt><trkpt lat="37.6121817" lon="14.38841"><ele>458.0</ele><time>2026-05-05T12:51:25.166Z</time></trkpt><trkpt lat="37.61208" lon="14.3884333"><ele>457.99999999999994</ele><time>2026-05-05T12:51:27.166Z</time></trkpt><trkpt lat="37.61201" lon="14.38845"><ele>458.0</ele><time>2026-05-05T12:51:29.166Z</time></trkpt><trkpt lat="37.6119317" lon="14.388495"><ele>457.0</ele><time>2026-05-05T12:52:53.166Z</time></trkpt><trkpt lat="37.6118633" lon="14.3885467"><ele>455.99999999999994</ele><time>2026-05-05T12:52:54.166Z</time></trkpt><trkpt lat="37.61178" lon="14.3886183"><ele>454.99999999999994</ele><time>2026-05-05T12:52:55.166Z</time></trkpt><trkpt lat="37.6116917" lon="14.3887133"><ele>454.0</ele><time>2026-05-05T12:52:56.167Z</time></trkpt><trkpt lat="37.61164" lon="14.38883"><ele>453.0</ele><time>2026-05-05T12:52:57.166Z</time></trkpt><trkpt lat="37.611615" lon="14.3889667"><ele>453.0</ele><time>2026-05-05T12:52:58.166Z</time></trkpt><trkpt lat="37.6116017" lon="14.3891017"><ele>452.99999999999994</ele><time>2026-05-05T12:52:59.166Z</time></trkpt><trkpt lat="37.6115817" lon="14.389225"><ele>452.99999999999994</ele><time>2026-05-05T12:53:00.166Z</time></trkpt><trkpt lat="37.6115483" lon="14.389345"><ele>453.0</ele><time>2026-05-05T12:53:01.166Z</time></trkpt><trkpt lat="37.6114983" lon="14.3894517"><ele>453.0</ele><time>2026-05-05T12:53:02.167Z</time></trkpt><trkpt lat="37.6114333" lon="14.389555"><ele>453.0</ele><time>2026-05-05T12:53:03.167Z</time></trkpt><trkpt lat="37.61135" lon="14.3896233"><ele>452.99999999999994</ele><time>2026-05-05T12:53:04.166Z</time></trkpt><trkpt lat="37.6112467" lon="14.3896617"><ele>452.99999999999994</ele><time>2026-05-05T12:53:05.166Z</time></trkpt><trkpt lat="37.6111333" lon="14.389665"><ele>453.0</ele><time>2026-05-05T12:53:06.166Z</time></trkpt><trkpt lat="37.6110233" lon="14.3896333"><ele>453.0</ele><time>2026-05-05T12:53:07.166Z</time></trkpt><trkpt lat="37.6109283" lon="14.3895583"><ele>448.75</ele><time>2026-05-05T12:53:08.166Z</time></trkpt><trkpt lat="37.6108533" lon="14.3894367"><ele>444.5</ele><time>2026-05-05T12:53:09.166Z</time></trkpt><trkpt lat="37.610815" lon="14.3892883"><ele>440.25</ele><time>2026-05-05T12:53:10.166Z</time></trkpt><trkpt lat="37.6107967" lon="14.38912"><ele>436.0</ele><time>2026-05-05T12:53:11.166Z</time></trkpt><trkpt lat="37.6107833" lon="14.3889417"><ele>435.75</ele><time>2026-05-05T12:53:12.166Z</time></trkpt><trkpt lat="37.610765" lon="14.3887583"><ele>435.5</ele><time>2026-05-05T12:53:13.166Z</time></trkpt><trkpt lat="37.6107383" lon="14.38857"><ele>435.25</ele><time>2026-05-05T12:53:14.166Z</time></trkpt><trkpt lat="37.6106867" lon="14.3884033"><ele>435.0</ele><time>2026-05-05T12:53:15.166Z</time></trkpt><trkpt lat="37.6106067" lon="14.3882383"><ele>435.0</ele><time>2026-05-05T12:53:16.166Z</time></trkpt><trkpt lat="37.6105133" lon="14.38808"><ele>435.0</ele><time>2026-05-05T12:53:17.167Z</time></trkpt><trkpt lat="37.6104183" lon="14.3879083"><ele>435.0</ele><time>2026-05-05T12:53:18.167Z</time></trkpt><trkpt lat="37.6103183" lon="14.3877367"><ele>430.33333333333337</ele><time>2026-05-05T12:53:19.166Z</time></trkpt><trkpt lat="37.6102217" lon="14.3875517"><ele>425.6666666666667</ele><time>2026-05-05T12:53:20.166Z</time></trkpt><trkpt lat="37.6101233" lon="14.38737"><ele>421.0</ele><time>2026-05-05T12:53:21.167Z</time></trkpt><trkpt lat="37.6100217" lon="14.387205"><ele>420.0</ele><time>2026-05-05T12:53:22.166Z</time></trkpt><trkpt lat="37.6099267" lon="14.3870383"><ele>419.0</ele><time>2026-05-05T12:53:23.166Z</time></trkpt><trkpt lat="37.6098333" lon="14.3868717"><ele>418.0</ele><time>2026-05-05T12:53:24.166Z</time></trkpt><trkpt lat="37.609745" lon="14.3867083"><ele>418.0</ele><time>2026-05-05T12:53:25.166Z</time></trkpt><trkpt lat="37.6096567" lon="14.3865367"><ele>418.0</ele><time>2026-05-05T12:53:26.166Z</time></trkpt><trkpt lat="37.6095717" lon="14.38637"><ele>418.0</ele><time>2026-05-05T12:53:27.166Z</time></trkpt><trkpt lat="37.6094817" lon="14.3862067"><ele>414.6666666666667</ele><time>2026-05-05T12:53:28.167Z</time></trkpt><trkpt lat="37.6093967" lon="14.386045"><ele>411.33333333333337</ele><time>2026-05-05T12:53:29.167Z</time></trkpt><trkpt lat="37.6093117" lon="14.385885"><ele>408.0</ele><time>2026-05-05T12:53:30.166Z</time></trkpt><trkpt lat="37.6092233" lon="14.3857283"><ele>408.0</ele><time>2026-05-05T12:53:31.166Z</time></trkpt><trkpt lat="37.6091217" lon="14.3855783"><ele>408.0</ele><time>2026-05-05T12:53:32.166Z</time></trkpt><trkpt lat="37.6090217" lon="14.385435"><ele>408.0</ele><time>2026-05-05T12:53:33.166Z</time></trkpt><trkpt lat="37.6089217" lon="14.3852983"><ele>406.5</ele><time>2026-05-05T12:53:34.166Z</time></trkpt><trkpt lat="37.6088183" lon="14.38517"><ele>405.0</ele><time>2026-05-05T12:53:35.166Z</time></trkpt><trkpt lat="37.6087167" lon="14.3850367"><ele>403.5</ele><time>2026-05-05T12:53:36.167Z</time></trkpt><trkpt lat="37.60861" lon="14.3849117"><ele>402.0</ele><time>2026-05-05T12:53:37.166Z</time></trkpt><trkpt lat="37.6085" lon="14.3847967"><ele>400.25</ele><time>2026-05-05T12:53:38.166Z</time></trkpt><trkpt lat="37.6083817" lon="14.3846933"><ele>398.5</ele><time>2026-05-05T12:53:39.166Z</time></trkpt><trkpt lat="37.6082617" lon="14.3846133"><ele>396.75</ele><time>2026-05-05T12:53:40.166Z</time></trkpt><trkpt lat="37.6081367" lon="14.3845733"><ele>395.0</ele><time>2026-05-05T12:53:41.166Z</time></trkpt><trkpt lat="37.6079967" lon="14.3845717"><ele>394.75</ele><time>2026-05-05T12:53:42.166Z</time></trkpt><trkpt lat="37.6078567" lon="14.384605"><ele>394.5</ele><time>2026-05-05T12:53:43.166Z</time></trkpt><trkpt lat="37.60773" lon="14.3846867"><ele>394.25</ele><time>2026-05-05T12:53:44.166Z</time></trkpt><trkpt lat="37.6075967" lon="14.384795"><ele>394.0</ele><time>2026-05-05T12:53:45.166Z</time></trkpt><trkpt lat="37.607455" lon="14.384895"><ele>392.5</ele><time>2026-05-05T12:53:46.166Z</time></trkpt><trkpt lat="37.6073283" lon="14.3849883"><ele>391.0</ele><time>2026-05-05T12:53:47.167Z</time></trkpt><trkpt lat="37.6072033" lon="14.3850817"><ele>389.5</ele><time>2026-05-05T12:53:48.166Z</time></trkpt><trkpt lat="37.6070817" lon="14.385175"><ele>388.0</ele><time>2026-05-05T12:53:49.166Z</time></trkpt><trkpt lat="37.6069667" lon="14.3852767"><ele>386.0</ele><time>2026-05-05T12:53:50.166Z</time></trkpt><trkpt lat="37.606845" lon="14.3853767"><ele>384.0</ele><time>2026-05-05T12:53:51.166Z</time></trkpt><trkpt lat="37.6067333" lon="14.3854783"><ele>382.0</ele><time>2026-05-05T12:53:52.166Z</time></trkpt><trkpt lat="37.606625" lon="14.3855483"><ele>380.0</ele><time>2026-05-05T12:53:53.166Z</time></trkpt><trkpt lat="37.60652" lon="14.3855833"><ele>380.0</ele><time>2026-05-05T12:53:54.166Z</time></trkpt><trkpt lat="37.6063967" lon="14.3855717"><ele>380.0</ele><time>2026-05-05T12:53:55.167Z</time></trkpt><trkpt lat="37.6062833" lon="14.38552"><ele>380.0</ele><time>2026-05-05T12:53:56.166Z</time></trkpt><trkpt lat="37.60618" lon="14.3854217"><ele>380.0</ele><time>2026-05-05T12:53:57.166Z</time></trkpt><trkpt lat="37.60611" lon="14.3852817"><ele>377.25</ele><time>2026-05-05T12:53:58.166Z</time></trkpt><trkpt lat="37.60606" lon="14.3851067"><ele>374.5</ele><time>2026-05-05T12:53:59.167Z</time></trkpt><trkpt lat="37.606015" lon="14.3849267"><ele>371.75</ele><time>2026-05-05T12:54:00.166Z</time></trkpt><trkpt lat="37.60597" lon="14.3847433"><ele>369.0</ele><time>2026-05-05T12:54:01.167Z</time></trkpt><trkpt lat="37.6059183" lon="14.38456"><ele>367.3333333333333</ele><time>2026-05-05T12:54:02.166Z</time></trkpt><trkpt lat="37.6058833" lon="14.3843683"><ele>365.66666666666663</ele><time>2026-05-05T12:54:03.166Z</time></trkpt><trkpt lat="37.60585" lon="14.38417"><ele>364.0</ele><time>2026-05-05T12:54:04.166Z</time></trkpt><trkpt lat="37.6058267" lon="14.383965"><ele>362.0</ele><time>2026-05-05T12:54:05.166Z</time></trkpt><trkpt lat="37.6058033" lon="14.3837517"><ele>360.0</ele><time>2026-05-05T12:54:06.166Z</time></trkpt><trkpt lat="37.6057817" lon="14.3835433"><ele>358.0</ele><time>2026-05-05T12:54:07.167Z</time></trkpt><trkpt lat="37.605775" lon="14.3833333"><ele>358.0</ele><time>2026-05-05T12:54:08.167Z</time></trkpt><trkpt lat="37.605765" lon="14.383115"><ele>358.0</ele><time>2026-05-05T12:54:09.166Z</time></trkpt><trkpt lat="37.6057567" lon="14.3829"><ele>358.0</ele><time>2026-05-05T12:54:10.166Z</time></trkpt><trkpt lat="37.605745" lon="14.3826917"><ele>357.3333333333333</ele><time>2026-05-05T12:54:11.167Z</time></trkpt><trkpt lat="37.6057433" lon="14.38249"><ele>356.6666666666667</ele><time>2026-05-05T12:54:12.166Z</time></trkpt><trkpt lat="37.60574" lon="14.3823"><ele>356.0</ele><time>2026-05-05T12:54:13.166Z</time></trkpt><trkpt lat="37.60574" lon="14.3821183"><ele>354.5</ele><time>2026-05-05T12:54:14.166Z</time></trkpt><trkpt lat="37.6057533" lon="14.3819417"><ele>353.0</ele><time>2026-05-05T12:54:15.166Z</time></trkpt><trkpt lat="37.605785" lon="14.3817733"><ele>351.5</ele><time>2026-05-05T12:54:16.167Z</time></trkpt><trkpt lat="37.6058417" lon="14.3816"><ele>350.0</ele><time>2026-05-05T12:54:17.166Z</time></trkpt><trkpt lat="37.6059317" lon="14.38146"><ele>350.0</ele><time>2026-05-05T12:54:18.166Z</time></trkpt><trkpt lat="37.60606" lon="14.38135"><ele>350.0</ele><time>2026-05-05T12:54:19.166Z</time></trkpt><trkpt lat="37.60619" lon="14.3812667"><ele>350.0</ele><time>2026-05-05T12:54:20.166Z</time></trkpt><trkpt lat="37.6063417" lon="14.3812283"><ele>347.33333333333337</ele><time>2026-05-05T12:54:21.166Z</time></trkpt><trkpt lat="37.6065" lon="14.381205"><ele>344.6666666666667</ele><time>2026-05-05T12:54:22.166Z</time></trkpt><trkpt lat="37.6066567" lon="14.38118"><ele>342.0</ele><time>2026-05-05T12:54:23.166Z</time></trkpt><trkpt lat="37.606815" lon="14.381125"><ele>342.0</ele><time>2026-05-05T12:54:24.166Z</time></trkpt><trkpt lat="37.6069717" lon="14.38105"><ele>342.0</ele><time>2026-05-05T12:54:25.166Z</time></trkpt><trkpt lat="37.607115" lon="14.3809483"><ele>342.0</ele><time>2026-05-05T12:54:26.167Z</time></trkpt><trkpt lat="37.6072567" lon="14.380825"><ele>341.0</ele><time>2026-05-05T12:54:27.167Z</time></trkpt><trkpt lat="37.6073933" lon="14.3806917"><ele>340.0</ele><time>2026-05-05T12:54:28.166Z</time></trkpt><trkpt lat="37.6075267" lon="14.38055"><ele>339.0</ele><time>2026-05-05T12:54:29.166Z</time></trkpt><trkpt lat="37.6076567" lon="14.38041"><ele>339.0</ele><time>2026-05-05T12:54:30.166Z</time></trkpt><trkpt lat="37.60779" lon="14.38028"><ele>339.0</ele><time>2026-05-05T12:54:31.166Z</time></trkpt><trkpt lat="37.60792" lon="14.38016"><ele>339.0</ele><time>2026-05-05T12:54:32.166Z</time></trkpt><trkpt lat="37.60804" lon="14.3800383"><ele>338.75</ele><time>2026-05-05T12:54:33.166Z</time></trkpt><trkpt lat="37.60816" lon="14.3799167"><ele>338.5</ele><time>2026-05-05T12:54:34.166Z</time></trkpt><trkpt lat="37.6082817" lon="14.3798033"><ele>338.25</ele><time>2026-05-05T12:54:35.166Z</time></trkpt><trkpt lat="37.608395" lon="14.3796933"><ele>338.0</ele><time>2026-05-05T12:54:36.166Z</time></trkpt><trkpt lat="37.6085083" lon="14.37959"><ele>338.0</ele><time>2026-05-05T12:54:37.166Z</time></trkpt><trkpt lat="37.6085967" lon="14.3794817"><ele>338.0</ele><time>2026-05-05T12:54:38.166Z</time></trkpt><trkpt lat="37.6086583" lon="14.379355"><ele>338.0</ele><time>2026-05-05T12:54:39.166Z</time></trkpt><trkpt lat="37.6086733" lon="14.379205"><ele>338.0</ele><time>2026-05-05T12:54:40.166Z</time></trkpt><trkpt lat="37.608645" lon="14.37905"><ele>338.0</ele><time>2026-05-05T12:54:41.166Z</time></trkpt><trkpt lat="37.6085833" lon="14.37891"><ele>338.0</ele><time>2026-05-05T12:54:42.166Z</time></trkpt><trkpt lat="37.60849" lon="14.3787717"><ele>338.0</ele><time>2026-05-05T12:54:43.167Z</time></trkpt><trkpt lat="37.6083867" lon="14.378635"><ele>338.0</ele><time>2026-05-05T12:54:44.167Z</time></trkpt><trkpt lat="37.6082717" lon="14.3785"><ele>337.0</ele><time>2026-05-05T12:54:45.167Z</time></trkpt><trkpt lat="37.6081583" lon="14.3783617"><ele>336.0</ele><time>2026-05-05T12:54:46.166Z</time></trkpt><trkpt lat="37.6080467" lon="14.3782233"><ele>335.0</ele><time>2026-05-05T12:54:47.167Z</time></trkpt><trkpt lat="37.6079433" lon="14.3780833"><ele>336.0</ele><time>2026-05-05T12:54:48.166Z</time></trkpt><trkpt lat="37.6078367" lon="14.37794"><ele>337.0</ele><time>2026-05-05T12:54:49.166Z</time></trkpt><trkpt lat="37.6077267" lon="14.3777983"><ele>338.0</ele><time>2026-05-05T12:54:50.166Z</time></trkpt><trkpt lat="37.6076167" lon="14.377655"><ele>338.0</ele><time>2026-05-05T12:54:51.166Z</time></trkpt><trkpt lat="37.6075033" lon="14.3775083"><ele>338.0</ele><time>2026-05-05T12:54:52.166Z</time></trkpt><trkpt lat="37.607395" lon="14.3773633"><ele>338.0</ele><time>2026-05-05T12:54:53.166Z</time></trkpt><trkpt lat="37.607285" lon="14.3772"><ele>338.6666666666667</ele><time>2026-05-05T12:54:54.167Z</time></trkpt><trkpt lat="37.607195" lon="14.377035"><ele>339.3333333333333</ele><time>2026-05-05T12:54:55.167Z</time></trkpt><trkpt lat="37.6071183" lon="14.37685"><ele>340.0</ele><time>2026-05-05T12:54:56.167Z</time></trkpt><trkpt lat="37.6070433" lon="14.3766683"><ele>338.0</ele><time>2026-05-05T12:54:57.166Z</time></trkpt><trkpt lat="37.606965" lon="14.3764867"><ele>336.0</ele><time>2026-05-05T12:54:58.166Z</time></trkpt><trkpt lat="37.6068867" lon="14.3763067"><ele>334.0</ele><time>2026-05-05T12:54:59.166Z</time></trkpt><trkpt lat="37.6068083" lon="14.3761283"><ele>334.0</ele><time>2026-05-05T12:55:00.166Z</time></trkpt><trkpt lat="37.6067267" lon="14.3759583"><ele>334.0</ele><time>2026-05-05T12:55:01.166Z</time></trkpt><trkpt lat="37.6066467" lon="14.3757917"><ele>334.0</ele><time>2026-05-05T12:55:02.166Z</time></trkpt><trkpt lat="37.6065533" lon="14.375625"><ele>337.3333333333333</ele><time>2026-05-05T12:55:03.166Z</time></trkpt><trkpt lat="37.6064667" lon="14.37545"><ele>340.6666666666667</ele><time>2026-05-05T12:55:04.166Z</time></trkpt><trkpt lat="37.606395" lon="14.375275"><ele>344.0</ele><time>2026-05-05T12:55:05.166Z</time></trkpt><trkpt lat="37.6063433" lon="14.37509"><ele>344.0</ele><time>2026-05-05T12:55:06.166Z</time></trkpt><trkpt lat="37.606315" lon="14.3749"><ele>344.0</ele><time>2026-05-05T12:55:07.166Z</time></trkpt><trkpt lat="37.6063033" lon="14.3747067"><ele>344.0</ele><time>2026-05-05T12:55:08.166Z</time></trkpt><trkpt lat="37.606295" lon="14.3745067"><ele>345.6666666666667</ele><time>2026-05-05T12:55:09.166Z</time></trkpt><trkpt lat="37.6062933" lon="14.3743"><ele>347.3333333333333</ele><time>2026-05-05T12:55:10.166Z</time></trkpt><trkpt lat="37.6062867" lon="14.3741083"><ele>349.0</ele><time>2026-05-05T12:55:11.166Z</time></trkpt><trkpt lat="37.6062833" lon="14.3739167"><ele>345.66666666666663</ele><time>2026-05-05T12:55:12.166Z</time></trkpt><trkpt lat="37.6062833" lon="14.37372"><ele>342.3333333333333</ele><time>2026-05-05T12:55:13.166Z</time></trkpt><trkpt lat="37.606315" lon="14.3735233"><ele>339.0</ele><time>2026-05-05T12:55:14.166Z</time></trkpt><trkpt lat="37.606375" lon="14.3733383"><ele>339.0</ele><time>2026-05-05T12:55:15.166Z</time></trkpt><trkpt lat="37.606425" lon="14.3731517"><ele>339.0</ele><time>2026-05-05T12:55:16.166Z</time></trkpt><trkpt lat="37.60645" lon="14.3729567"><ele>339.0</ele><time>2026-05-05T12:55:17.166Z</time></trkpt><trkpt lat="37.606455" lon="14.3727583"><ele>337.6666666666667</ele><time>2026-05-05T12:55:18.166Z</time></trkpt><trkpt lat="37.6064383" lon="14.3725617"><ele>336.33333333333337</ele><time>2026-05-05T12:55:19.166Z</time></trkpt><trkpt lat="37.6064033" lon="14.372365"><ele>335.0</ele><time>2026-05-05T12:55:20.166Z</time></trkpt><trkpt lat="37.60635" lon="14.3721883"><ele>334.6666666666667</ele><time>2026-05-05T12:55:21.166Z</time></trkpt><trkpt lat="37.6062667" lon="14.3720183"><ele>334.3333333333333</ele><time>2026-05-05T12:55:22.166Z</time></trkpt><trkpt lat="37.60617" lon="14.3718633"><ele>334.0</ele><time>2026-05-05T12:55:23.166Z</time></trkpt><trkpt lat="37.6060633" lon="14.3717033"><ele>333.0</ele><time>2026-05-05T12:55:24.166Z</time></trkpt><trkpt lat="37.6059633" lon="14.3715567"><ele>332.0</ele><time>2026-05-05T12:55:25.166Z</time></trkpt><trkpt lat="37.6058583" lon="14.3714367"><ele>331.0</ele><time>2026-05-05T12:55:26.166Z</time></trkpt><trkpt lat="37.605725" lon="14.3713433"><ele>330.0</ele><time>2026-05-05T12:55:27.166Z</time></trkpt><trkpt lat="37.605595" lon="14.3712533"><ele>330.0</ele><time>2026-05-05T12:55:28.166Z</time></trkpt><trkpt lat="37.605475" lon="14.3711733"><ele>330.0</ele><time>2026-05-05T12:55:29.166Z</time></trkpt><trkpt lat="37.6053617" lon="14.3710767"><ele>330.0</ele><time>2026-05-05T12:55:30.166Z</time></trkpt><trkpt lat="37.6052567" lon="14.3709483"><ele>330.0</ele><time>2026-05-05T12:55:31.166Z</time></trkpt><trkpt lat="37.6051433" lon="14.3708033"><ele>331.0</ele><time>2026-05-05T12:55:32.167Z</time></trkpt><trkpt lat="37.6050117" lon="14.3706183"><ele>332.0</ele><time>2026-05-05T12:55:33.166Z</time></trkpt><trkpt lat="37.6048833" lon="14.370415"><ele>333.0</ele><time>2026-05-05T12:55:34.166Z</time></trkpt><trkpt lat="37.6047483" lon="14.370185"><ele>333.0</ele><time>2026-05-05T12:55:35.167Z</time></trkpt><trkpt lat="37.6046133" lon="14.369945"><ele>333.0</ele><time>2026-05-05T12:55:36.167Z</time></trkpt><trkpt lat="37.6044667" lon="14.3697017"><ele>336.0</ele><time>2026-05-05T12:55:37.166Z</time></trkpt><trkpt lat="37.6043183" lon="14.3694617"><ele>339.0</ele><time>2026-05-05T12:55:38.166Z</time></trkpt><trkpt lat="37.6041767" lon="14.36924"><ele>339.0</ele><time>2026-05-05T12:55:39.166Z</time></trkpt><trkpt lat="37.6040467" lon="14.3690317"><ele>339.0</ele><time>2026-05-05T12:55:40.166Z</time></trkpt><trkpt lat="37.60393" lon="14.36883"><ele>339.0</ele><time>2026-05-05T12:55:41.166Z</time></trkpt><trkpt lat="37.6038333" lon="14.3686217"><ele>338.6666666666667</ele><time>2026-05-05T12:55:42.166Z</time></trkpt><trkpt lat="37.6037533" lon="14.3684083"><ele>338.33333333333337</ele><time>2026-05-05T12:55:43.166Z</time></trkpt><trkpt lat="37.60369" lon="14.3681867"><ele>338.0</ele><time>2026-05-05T12:55:44.166Z</time></trkpt><trkpt lat="37.6036517" lon="14.367965"><ele>337.6666666666667</ele><time>2026-05-05T12:55:45.166Z</time></trkpt><trkpt lat="37.6036467" lon="14.3677333"><ele>337.3333333333333</ele><time>2026-05-05T12:55:46.166Z</time></trkpt><trkpt lat="37.6036617" lon="14.3674767"><ele>337.0</ele><time>2026-05-05T12:55:47.166Z</time></trkpt><trkpt lat="37.6036817" lon="14.36721"><ele>337.66666666666663</ele><time>2026-05-05T12:55:48.165Z</time></trkpt><trkpt lat="37.6037067" lon="14.3669367"><ele>338.3333333333333</ele><time>2026-05-05T12:55:49.165Z</time></trkpt><trkpt lat="37.603725" lon="14.366665"><ele>339.0</ele><time>2026-05-05T12:55:50.166Z</time></trkpt><trkpt lat="37.6037433" lon="14.36639"><ele>340.0</ele><time>2026-05-05T12:55:51.165Z</time></trkpt><trkpt lat="37.60377" lon="14.3661033"><ele>341.0</ele><time>2026-05-05T12:55:52.165Z</time></trkpt><trkpt lat="37.603795" lon="14.365815"><ele>341.5</ele><time>2026-05-05T12:55:53.165Z</time></trkpt><trkpt lat="37.603815" lon="14.3655217"><ele>342.0</ele><time>2026-05-05T12:55:54.165Z</time></trkpt><trkpt lat="37.60384" lon="14.3652383"><ele>342.0</ele><time>2026-05-05T12:55:55.165Z</time></trkpt><trkpt lat="37.6038633" lon="14.364955"><ele>342.0</ele><time>2026-05-05T12:55:56.165Z</time></trkpt><trkpt lat="37.6038883" lon="14.3646683"><ele>341.0</ele><time>2026-05-05T12:55:57.166Z</time></trkpt><trkpt lat="37.6039117" lon="14.36438"><ele>340.0</ele><time>2026-05-05T12:55:58.165Z</time></trkpt><trkpt lat="37.6039383" lon="14.36409"><ele>339.5</ele><time>2026-05-05T12:55:59.165Z</time></trkpt><trkpt lat="37.6039633" lon="14.3638017"><ele>339.0</ele><time>2026-05-05T12:56:00.165Z</time></trkpt><trkpt lat="37.6039817" lon="14.3635183"><ele>339.0</ele><time>2026-05-05T12:56:01.165Z</time></trkpt><trkpt lat="37.6040017" lon="14.3632333"><ele>339.0</ele><time>2026-05-05T12:56:02.165Z</time></trkpt><trkpt lat="37.6040283" lon="14.3629483"><ele>339.0</ele><time>2026-05-05T12:56:03.165Z</time></trkpt><trkpt lat="37.60405" lon="14.3626683"><ele>339.0</ele><time>2026-05-05T12:56:04.165Z</time></trkpt><trkpt lat="37.6040683" lon="14.362385"><ele>339.0</ele><time>2026-05-05T12:56:05.165Z</time></trkpt><trkpt lat="37.60409" lon="14.3621017"><ele>339.5</ele><time>2026-05-05T12:56:06.165Z</time></trkpt><trkpt lat="37.604115" lon="14.36182"><ele>340.0</ele><time>2026-05-05T12:56:07.166Z</time></trkpt><trkpt lat="37.6041417" lon="14.361535"><ele>340.5</ele><time>2026-05-05T12:56:08.165Z</time></trkpt><trkpt lat="37.6041633" lon="14.3612533"><ele>341.0</ele><time>2026-05-05T12:56:09.165Z</time></trkpt><trkpt lat="37.604185" lon="14.3609683"><ele>341.0</ele><time>2026-05-05T12:56:10.165Z</time></trkpt><trkpt lat="37.6042017" lon="14.3606867"><ele>341.0</ele><time>2026-05-05T12:56:11.165Z</time></trkpt><trkpt lat="37.6042217" lon="14.3604"><ele>341.0</ele><time>2026-05-05T12:56:12.165Z</time></trkpt><trkpt lat="37.60425" lon="14.3601167"><ele>341.0</ele><time>2026-05-05T12:56:13.165Z</time></trkpt><trkpt lat="37.6042667" lon="14.3598333"><ele>341.6666666666667</ele><time>2026-05-05T12:56:14.165Z</time></trkpt><trkpt lat="37.6042883" lon="14.359555"><ele>342.3333333333333</ele><time>2026-05-05T12:56:15.165Z</time></trkpt><trkpt lat="37.6043133" lon="14.3592767"><ele>343.0</ele><time>2026-05-05T12:56:16.165Z</time></trkpt><trkpt lat="37.6043367" lon="14.35899"><ele>343.3333333333333</ele><time>2026-05-05T12:56:17.165Z</time></trkpt><trkpt lat="37.6043617" lon="14.35871"><ele>343.6666666666667</ele><time>2026-05-05T12:56:18.165Z</time></trkpt><trkpt lat="37.6043817" lon="14.3584267"><ele>344.0</ele><time>2026-05-05T12:56:19.165Z</time></trkpt><trkpt lat="37.6044017" lon="14.3581517"><ele>344.0</ele><time>2026-05-05T12:56:20.165Z</time></trkpt><trkpt lat="37.604425" lon="14.3578717"><ele>344.0</ele><time>2026-05-05T12:56:21.165Z</time></trkpt><trkpt lat="37.6044517" lon="14.3575933"><ele>344.0</ele><time>2026-05-05T12:56:22.166Z</time></trkpt><trkpt lat="37.6044717" lon="14.3573067"><ele>344.6666666666667</ele><time>2026-05-05T12:56:23.165Z</time></trkpt><trkpt lat="37.604485" lon="14.3570217"><ele>345.3333333333333</ele><time>2026-05-05T12:56:24.165Z</time></trkpt><trkpt lat="37.604505" lon="14.3567433"><ele>346.0</ele><time>2026-05-05T12:56:25.165Z</time></trkpt><trkpt lat="37.6045283" lon="14.3564633"><ele>346.3333333333333</ele><time>2026-05-05T12:56:26.165Z</time></trkpt><trkpt lat="37.6045567" lon="14.3561817"><ele>346.6666666666667</ele><time>2026-05-05T12:56:27.166Z</time></trkpt><trkpt lat="37.6045783" lon="14.3559067"><ele>347.0</ele><time>2026-05-05T12:56:28.165Z</time></trkpt><trkpt lat="37.604595" lon="14.3556267"><ele>346.6666666666667</ele><time>2026-05-05T12:56:29.165Z</time></trkpt><trkpt lat="37.6046083" lon="14.3553433"><ele>346.3333333333333</ele><time>2026-05-05T12:56:30.166Z</time></trkpt><trkpt lat="37.60463" lon="14.3550633"><ele>346.0</ele><time>2026-05-05T12:56:31.165Z</time></trkpt><trkpt lat="37.604655" lon="14.3547817"><ele>347.3333333333333</ele><time>2026-05-05T12:56:32.165Z</time></trkpt><trkpt lat="37.60468" lon="14.3545033"><ele>348.6666666666667</ele><time>2026-05-05T12:56:33.165Z</time></trkpt><trkpt lat="37.6047033" lon="14.35423"><ele>350.0</ele><time>2026-05-05T12:56:34.165Z</time></trkpt><trkpt lat="37.6047267" lon="14.35395"><ele>352.33333333333337</ele><time>2026-05-05T12:56:35.165Z</time></trkpt><trkpt lat="37.604745" lon="14.3536683"><ele>354.6666666666667</ele><time>2026-05-05T12:56:36.165Z</time></trkpt><trkpt lat="37.604765" lon="14.3533867"><ele>357.0</ele><time>2026-05-05T12:56:37.165Z</time></trkpt><trkpt lat="37.6048" lon="14.353105"><ele>357.0</ele><time>2026-05-05T12:56:38.165Z</time></trkpt><trkpt lat="37.6048267" lon="14.3528133"><ele>357.0</ele><time>2026-05-05T12:56:39.165Z</time></trkpt><trkpt lat="37.6048483" lon="14.352535"><ele>357.0</ele><time>2026-05-05T12:56:40.165Z</time></trkpt><trkpt lat="37.6048717" lon="14.35226"><ele>357.0</ele><time>2026-05-05T12:56:41.165Z</time></trkpt><trkpt lat="37.6048983" lon="14.351985"><ele>357.0</ele><time>2026-05-05T12:56:42.165Z</time></trkpt><trkpt lat="37.6049183" lon="14.3517183"><ele>355.6666666666667</ele><time>2026-05-05T12:56:43.166Z</time></trkpt><trkpt lat="37.6049417" lon="14.3514633"><ele>354.33333333333337</ele><time>2026-05-05T12:56:44.165Z</time></trkpt><trkpt lat="37.60495" lon="14.3512133"><ele>353.0</ele><time>2026-05-05T12:56:45.165Z</time></trkpt><trkpt lat="37.604935" lon="14.3509717"><ele>352.6666666666667</ele><time>2026-05-05T12:56:46.165Z</time></trkpt><trkpt lat="37.6049133" lon="14.3507217"><ele>352.3333333333333</ele><time>2026-05-05T12:56:47.165Z</time></trkpt><trkpt lat="37.6048767" lon="14.3504783"><ele>352.0</ele><time>2026-05-05T12:56:48.165Z</time></trkpt><trkpt lat="37.604825" lon="14.3502333"><ele>352.66666666666663</ele><time>2026-05-05T12:56:49.165Z</time></trkpt><trkpt lat="37.6047483" lon="14.35"><ele>353.3333333333333</ele><time>2026-05-05T12:56:50.165Z</time></trkpt><trkpt lat="37.6046583" lon="14.3497667"><ele>354.0</ele><time>2026-05-05T12:56:51.165Z</time></trkpt><trkpt lat="37.6045567" lon="14.3495433"><ele>355.0</ele><time>2026-05-05T12:56:52.165Z</time></trkpt><trkpt lat="37.604435" lon="14.349335"><ele>356.0</ele><time>2026-05-05T12:56:53.165Z</time></trkpt><trkpt lat="37.604295" lon="14.3491483"><ele>357.0</ele><time>2026-05-05T12:56:54.165Z</time></trkpt><trkpt lat="37.6041467" lon="14.3489767"><ele>360.3333333333333</ele><time>2026-05-05T12:56:55.165Z</time></trkpt><trkpt lat="37.60399" lon="14.3488333"><ele>363.66666666666663</ele><time>2026-05-05T12:56:56.166Z</time></trkpt><trkpt lat="37.603825" lon="14.3487083"><ele>367.0</ele><time>2026-05-05T12:56:57.165Z</time></trkpt><trkpt lat="37.6036617" lon="14.348595"><ele>367.66666666666663</ele><time>2026-05-05T12:56:58.165Z</time></trkpt><trkpt lat="37.6035033" lon="14.348485"><ele>368.3333333333333</ele><time>2026-05-05T12:56:59.165Z</time></trkpt><trkpt lat="37.603365" lon="14.3483717"><ele>369.0</ele><time>2026-05-05T12:57:00.166Z</time></trkpt><trkpt lat="37.6032367" lon="14.3482367"><ele>369.0</ele><time>2026-05-05T12:57:01.165Z</time></trkpt><trkpt lat="37.60313" lon="14.3480733"><ele>369.0</ele><time>2026-05-05T12:57:02.165Z</time></trkpt><trkpt lat="37.6030483" lon="14.347885"><ele>369.0</ele><time>2026-05-05T12:57:03.166Z</time></trkpt><trkpt lat="37.602985" lon="14.3476783"><ele>372.3333333333333</ele><time>2026-05-05T12:57:04.165Z</time></trkpt><trkpt lat="37.6029483" lon="14.347465"><ele>375.66666666666663</ele><time>2026-05-05T12:57:05.166Z</time></trkpt><trkpt lat="37.6029417" lon="14.34726"><ele>379.0</ele><time>2026-05-05T12:57:06.165Z</time></trkpt><trkpt lat="37.6029583" lon="14.3470417"><ele>380.3333333333333</ele><time>2026-05-05T12:57:07.165Z</time></trkpt><trkpt lat="37.6030017" lon="14.3468083"><ele>381.6666666666667</ele><time>2026-05-05T12:57:08.165Z</time></trkpt><trkpt lat="37.6030433" lon="14.3465833"><ele>383.0</ele><time>2026-05-05T12:57:09.165Z</time></trkpt><trkpt lat="37.6030933" lon="14.3463683"><ele>385.6666666666667</ele><time>2026-05-05T12:57:10.165Z</time></trkpt><trkpt lat="37.6031383" lon="14.3461617"><ele>388.33333333333337</ele><time>2026-05-05T12:57:11.165Z</time></trkpt><trkpt lat="37.6031783" lon="14.3459567"><ele>391.0</ele><time>2026-05-05T12:57:12.165Z</time></trkpt><trkpt lat="37.6032133" lon="14.3457633"><ele>391.0</ele><time>2026-05-05T12:57:13.165Z</time></trkpt><trkpt lat="37.6032283" lon="14.3455733"><ele>391.0</ele><time>2026-05-05T12:57:14.166Z</time></trkpt><trkpt lat="37.6032183" lon="14.3453783"><ele>391.0</ele><time>2026-05-05T12:57:15.165Z</time></trkpt><trkpt lat="37.6031767" lon="14.3451833"><ele>391.33333333333337</ele><time>2026-05-05T12:57:16.165Z</time></trkpt><trkpt lat="37.6031183" lon="14.3449767"><ele>391.66666666666663</ele><time>2026-05-05T12:57:17.165Z</time></trkpt><trkpt lat="37.6030567" lon="14.3447617"><ele>392.0</ele><time>2026-05-05T12:57:18.165Z</time></trkpt><trkpt lat="37.6030017" lon="14.3445383"><ele>392.0</ele><time>2026-05-05T12:57:19.165Z</time></trkpt><trkpt lat="37.60294" lon="14.34431"><ele>392.0</ele><time>2026-05-05T12:57:20.165Z</time></trkpt><trkpt lat="37.60288" lon="14.3440883"><ele>392.0</ele><time>2026-05-05T12:57:21.166Z</time></trkpt><trkpt lat="37.6028167" lon="14.34387"><ele>392.0</ele><time>2026-05-05T12:57:22.165Z</time></trkpt><trkpt lat="37.602755" lon="14.3436467"><ele>392.0</ele><time>2026-05-05T12:57:23.165Z</time></trkpt><trkpt lat="37.6026983" lon="14.343425"><ele>392.0</ele><time>2026-05-05T12:57:24.166Z</time></trkpt><trkpt lat="37.6026367" lon="14.3432017"><ele>393.0</ele><time>2026-05-05T12:57:25.165Z</time></trkpt><trkpt lat="37.60258" lon="14.3429833"><ele>394.0</ele><time>2026-05-05T12:57:26.165Z</time></trkpt><trkpt lat="37.6025067" lon="14.3427633"><ele>395.0</ele><time>2026-05-05T12:57:27.165Z</time></trkpt><trkpt lat="37.6024483" lon="14.3425417"><ele>395.0</ele><time>2026-05-05T12:57:28.165Z</time></trkpt><trkpt lat="37.6023833" lon="14.342335"><ele>395.0</ele><time>2026-05-05T12:57:29.165Z</time></trkpt><trkpt lat="37.6023283" lon="14.3421383"><ele>395.0</ele><time>2026-05-05T12:57:30.165Z</time></trkpt><trkpt lat="37.6022917" lon="14.3419517"><ele>396.0</ele><time>2026-05-05T12:57:31.165Z</time></trkpt><trkpt lat="37.6022883" lon="14.34174"><ele>397.0</ele><time>2026-05-05T12:57:32.165Z</time></trkpt><trkpt lat="37.6023083" lon="14.34153"><ele>398.0</ele><time>2026-05-05T12:57:33.166Z</time></trkpt><trkpt lat="37.6023517" lon="14.3413117"><ele>398.3333333333333</ele><time>2026-05-05T12:57:34.165Z</time></trkpt><trkpt lat="37.6024033" lon="14.3410967"><ele>398.66666666666663</ele><time>2026-05-05T12:57:35.165Z</time></trkpt><trkpt lat="37.602455" lon="14.3408917"><ele>399.0</ele><time>2026-05-05T12:57:36.165Z</time></trkpt><trkpt lat="37.6024983" lon="14.340685"><ele>398.0</ele><time>2026-05-05T12:57:37.165Z</time></trkpt><trkpt lat="37.60253" lon="14.34047"><ele>397.0</ele><time>2026-05-05T12:57:38.166Z</time></trkpt><trkpt lat="37.6025333" lon="14.340255"><ele>396.0</ele><time>2026-05-05T12:57:39.165Z</time></trkpt><trkpt lat="37.6025333" lon="14.3400483"><ele>396.0</ele><time>2026-05-05T12:57:40.165Z</time></trkpt><trkpt lat="37.6025267" lon="14.339855"><ele>396.0</ele><time>2026-05-05T12:57:41.166Z</time></trkpt><trkpt lat="37.6025267" lon="14.33968"><ele>396.0</ele><time>2026-05-05T12:57:42.166Z</time></trkpt><trkpt lat="37.6025283" lon="14.33951"><ele>396.0</ele><time>2026-05-05T12:57:43.166Z</time></trkpt><trkpt lat="37.602555" lon="14.339345"><ele>395.0</ele><time>2026-05-05T12:57:44.166Z</time></trkpt><trkpt lat="37.6026017" lon="14.339185"><ele>394.0</ele><time>2026-05-05T12:57:45.165Z</time></trkpt><trkpt lat="37.6026617" lon="14.3390367"><ele>393.0</ele><time>2026-05-05T12:57:46.165Z</time></trkpt><trkpt lat="37.602705" lon="14.3388833"><ele>392.0</ele><time>2026-05-05T12:57:47.165Z</time></trkpt><trkpt lat="37.602715" lon="14.3387233"><ele>392.0</ele><time>2026-05-05T12:57:48.165Z</time></trkpt><trkpt lat="37.6026733" lon="14.3385767"><ele>392.0</ele><time>2026-05-05T12:57:49.165Z</time></trkpt><trkpt lat="37.6025917" lon="14.3384517"><ele>392.0</ele><time>2026-05-05T12:57:50.166Z</time></trkpt><trkpt lat="37.6024767" lon="14.3383533"><ele>392.0</ele><time>2026-05-05T12:57:51.165Z</time></trkpt><trkpt lat="37.6023467" lon="14.338275"><ele>392.0</ele><time>2026-05-05T12:57:52.165Z</time></trkpt><trkpt lat="37.6022283" lon="14.338175"><ele>392.0</ele><time>2026-05-05T12:57:53.166Z</time></trkpt><trkpt lat="37.6021233" lon="14.3380483"><ele>392.0</ele><time>2026-05-05T12:57:54.165Z</time></trkpt><trkpt lat="37.6020433" lon="14.3378883"><ele>392.0</ele><time>2026-05-05T12:57:55.165Z</time></trkpt><trkpt lat="37.6019733" lon="14.3377067"><ele>388.66666666666663</ele><time>2026-05-05T12:57:56.165Z</time></trkpt><trkpt lat="37.6019217" lon="14.3375233"><ele>385.3333333333333</ele><time>2026-05-05T12:57:57.165Z</time></trkpt><trkpt lat="37.6018767" lon="14.3373233"><ele>382.0</ele><time>2026-05-05T12:57:58.166Z</time></trkpt><trkpt lat="37.60183" lon="14.3371117"><ele>381.3333333333333</ele><time>2026-05-05T12:57:59.165Z</time></trkpt><trkpt lat="37.6018" lon="14.3368983"><ele>380.6666666666667</ele><time>2026-05-05T12:58:00.165Z</time></trkpt><trkpt lat="37.6017867" lon="14.3366667"><ele>380.0</ele><time>2026-05-05T12:58:01.165Z</time></trkpt><trkpt lat="37.60179" lon="14.3364317"><ele>379.33333333333337</ele><time>2026-05-05T12:58:02.165Z</time></trkpt><trkpt lat="37.6017967" lon="14.3361983"><ele>378.6666666666667</ele><time>2026-05-05T12:58:03.165Z</time></trkpt><trkpt lat="37.6018067" lon="14.33596"><ele>378.0</ele><time>2026-05-05T12:58:04.165Z</time></trkpt><trkpt lat="37.60182" lon="14.3357183"><ele>378.3333333333333</ele><time>2026-05-05T12:58:05.165Z</time></trkpt><trkpt lat="37.60182" lon="14.33548"><ele>378.66666666666663</ele><time>2026-05-05T12:58:06.165Z</time></trkpt><trkpt lat="37.6018233" lon="14.335245"><ele>379.0</ele><time>2026-05-05T12:58:07.166Z</time></trkpt><trkpt lat="37.6018233" lon="14.3350033"><ele>379.0</ele><time>2026-05-05T12:58:08.165Z</time></trkpt><trkpt lat="37.6018133" lon="14.3347633"><ele>379.0</ele><time>2026-05-05T12:58:09.166Z</time></trkpt><trkpt lat="37.60181" lon="14.3345267"><ele>379.0</ele><time>2026-05-05T12:58:10.165Z</time></trkpt><trkpt lat="37.6018017" lon="14.33429"><ele>380.0</ele><time>2026-05-05T12:58:11.165Z</time></trkpt><trkpt lat="37.6017817" lon="14.3340617"><ele>381.0</ele><time>2026-05-05T12:58:12.165Z</time></trkpt><trkpt lat="37.601755" lon="14.3338383"><ele>382.0</ele><time>2026-05-05T12:58:13.165Z</time></trkpt><trkpt lat="37.6017267" lon="14.333615"><ele>383.0</ele><time>2026-05-05T12:58:14.165Z</time></trkpt><trkpt lat="37.601685" lon="14.3333933"><ele>384.0</ele><time>2026-05-05T12:58:15.165Z</time></trkpt><trkpt lat="37.6016433" lon="14.3331733"><ele>385.0</ele><time>2026-05-05T12:58:16.165Z</time></trkpt><trkpt lat="37.601605" lon="14.3329633"><ele>385.6666666666667</ele><time>2026-05-05T12:58:17.166Z</time></trkpt><trkpt lat="37.6015583" lon="14.33275"><ele>386.33333333333337</ele><time>2026-05-05T12:58:18.165Z</time></trkpt><trkpt lat="37.6015133" lon="14.332535"><ele>387.0</ele><time>2026-05-05T12:58:19.165Z</time></trkpt><trkpt lat="37.601475" lon="14.33232"><ele>388.66666666666663</ele><time>2026-05-05T12:58:20.165Z</time></trkpt><trkpt lat="37.6014367" lon="14.3321083"><ele>390.3333333333333</ele><time>2026-05-05T12:58:21.166Z</time></trkpt><trkpt lat="37.6013983" lon="14.33189"><ele>392.0</ele><time>2026-05-05T12:58:22.165Z</time></trkpt><trkpt lat="37.6013583" lon="14.3316867"><ele>392.0</ele><time>2026-05-05T12:58:23.165Z</time></trkpt><trkpt lat="37.6013283" lon="14.33149"><ele>392.0</ele><time>2026-05-05T12:58:24.165Z</time></trkpt><trkpt lat="37.601305" lon="14.3312983"><ele>392.0</ele><time>2026-05-05T12:58:25.165Z</time></trkpt><trkpt lat="37.6012867" lon="14.3310983"><ele>394.66666666666663</ele><time>2026-05-05T12:58:26.165Z</time></trkpt><trkpt lat="37.6012967" lon="14.3308817"><ele>397.33333333333337</ele><time>2026-05-05T12:58:27.165Z</time></trkpt><trkpt lat="37.6013217" lon="14.3306583"><ele>400.0</ele><time>2026-05-05T12:58:28.165Z</time></trkpt><trkpt lat="37.6013467" lon="14.330435"><ele>400.33333333333337</ele><time>2026-05-05T12:58:29.165Z</time></trkpt><trkpt lat="37.60137" lon="14.330205"><ele>400.66666666666663</ele><time>2026-05-05T12:58:30.165Z</time></trkpt><trkpt lat="37.6013917" lon="14.32997"><ele>401.0</ele><time>2026-05-05T12:58:31.165Z</time></trkpt><trkpt lat="37.6014167" lon="14.3297367"><ele>400.0</ele><time>2026-05-05T12:58:32.165Z</time></trkpt><trkpt lat="37.6014433" lon="14.3295133"><ele>399.0</ele><time>2026-05-05T12:58:33.165Z</time></trkpt><trkpt lat="37.6014733" lon="14.3293"><ele>398.0</ele><time>2026-05-05T12:58:34.165Z</time></trkpt><trkpt lat="37.601515" lon="14.3290933"><ele>398.0</ele><time>2026-05-05T12:58:35.165Z</time></trkpt><trkpt lat="37.6015717" lon="14.3289033"><ele>398.0</ele><time>2026-05-05T12:58:36.165Z</time></trkpt><trkpt lat="37.60162" lon="14.32872"><ele>398.0</ele><time>2026-05-05T12:58:37.165Z</time></trkpt><trkpt lat="37.6016417" lon="14.3285283"><ele>397.66666666666663</ele><time>2026-05-05T12:58:38.165Z</time></trkpt><trkpt lat="37.60162" lon="14.3283217"><ele>397.33333333333337</ele><time>2026-05-05T12:58:39.165Z</time></trkpt><trkpt lat="37.601575" lon="14.3281183"><ele>397.0</ele><time>2026-05-05T12:58:40.165Z</time></trkpt><trkpt lat="37.6015217" lon="14.327915"><ele>397.0</ele><time>2026-05-05T12:58:41.165Z</time></trkpt><trkpt lat="37.60148" lon="14.3277"><ele>397.0</ele><time>2026-05-05T12:58:42.165Z</time></trkpt><trkpt lat="37.6014583" lon="14.3274833"><ele>397.0</ele><time>2026-05-05T12:58:43.165Z</time></trkpt><trkpt lat="37.6014533" lon="14.3272667"><ele>398.0</ele><time>2026-05-05T12:58:44.165Z</time></trkpt><trkpt lat="37.6014483" lon="14.327055"><ele>399.0</ele><time>2026-05-05T12:58:45.165Z</time></trkpt><trkpt lat="37.60143" lon="14.3268467"><ele>400.0</ele><time>2026-05-05T12:58:46.165Z</time></trkpt><trkpt lat="37.601405" lon="14.3266383"><ele>400.0</ele><time>2026-05-05T12:58:47.165Z</time></trkpt><trkpt lat="37.60136" lon="14.326425"><ele>400.0</ele><time>2026-05-05T12:58:48.165Z</time></trkpt><trkpt lat="37.6013" lon="14.3262183"><ele>400.0</ele><time>2026-05-05T12:58:49.165Z</time></trkpt><trkpt lat="37.6012183" lon="14.32602"><ele>399.0</ele><time>2026-05-05T12:58:50.165Z</time></trkpt><trkpt lat="37.6011083" lon="14.3258217"><ele>398.0</ele><time>2026-05-05T12:58:51.165Z</time></trkpt><trkpt lat="37.6009883" lon="14.3256167"><ele>397.0</ele><time>2026-05-05T12:58:52.165Z</time></trkpt><trkpt lat="37.6008717" lon="14.3254033"><ele>397.0</ele><time>2026-05-05T12:58:53.165Z</time></trkpt><trkpt lat="37.60076" lon="14.3251867"><ele>397.0</ele><time>2026-05-05T12:58:54.165Z</time></trkpt><trkpt lat="37.6006367" lon="14.3249683"><ele>397.0</ele><time>2026-05-05T12:58:55.165Z</time></trkpt><trkpt lat="37.6005067" lon="14.3247467"><ele>397.6666666666667</ele><time>2026-05-05T12:58:56.165Z</time></trkpt><trkpt lat="37.6003783" lon="14.32453"><ele>398.33333333333337</ele><time>2026-05-05T12:58:57.165Z</time></trkpt><trkpt lat="37.6002483" lon="14.3243167"><ele>399.0</ele><time>2026-05-05T12:58:58.165Z</time></trkpt><trkpt lat="37.6001183" lon="14.3240983"><ele>400.33333333333337</ele><time>2026-05-05T12:58:59.165Z</time></trkpt><trkpt lat="37.5999883" lon="14.3238683"><ele>401.6666666666667</ele><time>2026-05-05T12:59:00.165Z</time></trkpt><trkpt lat="37.5998633" lon="14.3236433"><ele>403.0</ele><time>2026-05-05T12:59:01.165Z</time></trkpt><trkpt lat="37.5997333" lon="14.3234133"><ele>403.0</ele><time>2026-05-05T12:59:02.165Z</time></trkpt><trkpt lat="37.599605" lon="14.32319"><ele>403.0</ele><time>2026-05-05T12:59:03.165Z</time></trkpt><trkpt lat="37.59948" lon="14.32296"><ele>403.0</ele><time>2026-05-05T12:59:04.165Z</time></trkpt><trkpt lat="37.5993567" lon="14.322745"><ele>402.6666666666667</ele><time>2026-05-05T12:59:05.165Z</time></trkpt><trkpt lat="37.5992367" lon="14.3225233"><ele>402.33333333333337</ele><time>2026-05-05T12:59:06.165Z</time></trkpt><trkpt lat="37.5991233" lon="14.3222967"><ele>402.0</ele><time>2026-05-05T12:59:07.165Z</time></trkpt><trkpt lat="37.5990267" lon="14.3220667"><ele>405.33333333333337</ele><time>2026-05-05T12:59:08.165Z</time></trkpt><trkpt lat="37.5989333" lon="14.3218317"><ele>408.6666666666667</ele><time>2026-05-05T12:59:09.165Z</time></trkpt><trkpt lat="37.59885" lon="14.321605"><ele>412.0</ele><time>2026-05-05T12:59:10.166Z</time></trkpt><trkpt lat="37.5987783" lon="14.32139"><ele>415.33333333333337</ele><time>2026-05-05T12:59:11.165Z</time></trkpt><trkpt lat="37.5987117" lon="14.3211917"><ele>418.66666666666663</ele><time>2026-05-05T12:59:12.165Z</time></trkpt><trkpt lat="37.5986567" lon="14.3209983"><ele>422.0</ele><time>2026-05-05T12:59:13.165Z</time></trkpt><trkpt lat="37.5985883" lon="14.3208417"><ele>422.0</ele><time>2026-05-05T12:59:14.165Z</time></trkpt><trkpt lat="37.5985083" lon="14.3207083"><ele>422.0</ele><time>2026-05-05T12:59:15.165Z</time></trkpt><trkpt lat="37.5984067" lon="14.3206183"><ele>422.0</ele><time>2026-05-05T12:59:16.165Z</time></trkpt><trkpt lat="37.5982817" lon="14.3205717"><ele>422.0</ele><time>2026-05-05T12:59:17.165Z</time></trkpt><trkpt lat="37.5981483" lon="14.3205783"><ele>422.0</ele><time>2026-05-05T12:59:18.165Z</time></trkpt><trkpt lat="37.5980333" lon="14.32063"><ele>422.0</ele><time>2026-05-05T12:59:19.166Z</time></trkpt><trkpt lat="37.597935" lon="14.3207417"><ele>422.0</ele><time>2026-05-05T12:59:20.165Z</time></trkpt><trkpt lat="37.5978483" lon="14.32087"><ele>422.0</ele><time>2026-05-05T12:59:21.165Z</time></trkpt><trkpt lat="37.597775" lon="14.3210083"><ele>423.6</ele><time>2026-05-05T12:59:22.165Z</time></trkpt><trkpt lat="37.5977033" lon="14.321125"><ele>425.20000000000005</ele><time>2026-05-05T12:59:23.165Z</time></trkpt><trkpt lat="37.5976217" lon="14.3211983"><ele>426.8</ele><time>2026-05-05T12:59:24.166Z</time></trkpt><trkpt lat="37.5975233" lon="14.3212267"><ele>428.4</ele><time>2026-05-05T12:59:25.165Z</time></trkpt><trkpt lat="37.5974183" lon="14.3212083"><ele>430.0</ele><time>2026-05-05T12:59:26.166Z</time></trkpt><trkpt lat="37.597325" lon="14.321135"><ele>430.0</ele><time>2026-05-05T12:59:27.166Z</time></trkpt><trkpt lat="37.5972517" lon="14.32103"><ele>430.0</ele><time>2026-05-05T12:59:28.165Z</time></trkpt><trkpt lat="37.5972117" lon="14.320885"><ele>430.0</ele><time>2026-05-05T12:59:29.166Z</time></trkpt><trkpt lat="37.597215" lon="14.3207183"><ele>430.0</ele><time>2026-05-05T12:59:30.165Z</time></trkpt><trkpt lat="37.597255" lon="14.3205617"><ele>432.5</ele><time>2026-05-05T12:59:31.166Z</time></trkpt><trkpt lat="37.5973017" lon="14.320405"><ele>435.0</ele><time>2026-05-05T12:59:32.165Z</time></trkpt><trkpt lat="37.5973217" lon="14.3202533"><ele>437.5</ele><time>2026-05-05T12:59:33.165Z</time></trkpt><trkpt lat="37.5973" lon="14.32009"><ele>440.0</ele><time>2026-05-05T12:59:34.165Z</time></trkpt><trkpt lat="37.597245" lon="14.3199467"><ele>440.0</ele><time>2026-05-05T12:59:35.165Z</time></trkpt><trkpt lat="37.5971467" lon="14.3198333"><ele>440.0</ele><time>2026-05-05T12:59:36.165Z</time></trkpt><trkpt lat="37.59702" lon="14.3197533"><ele>440.0</ele><time>2026-05-05T12:59:37.165Z</time></trkpt><trkpt lat="37.5968567" lon="14.3196917"><ele>440.0</ele><time>2026-05-05T12:59:38.165Z</time></trkpt><trkpt lat="37.59667" lon="14.3196367"><ele>444.3333333333333</ele><time>2026-05-05T12:59:39.166Z</time></trkpt><trkpt lat="37.5964867" lon="14.319585"><ele>448.66666666666663</ele><time>2026-05-05T12:59:40.165Z</time></trkpt><trkpt lat="37.5963217" lon="14.31953"><ele>453.0</ele><time>2026-05-05T12:59:41.165Z</time></trkpt><trkpt lat="37.59618" lon="14.31948"><ele>453.25</ele><time>2026-05-05T12:59:42.165Z</time></trkpt><trkpt lat="37.59606" lon="14.3194117"><ele>453.5</ele><time>2026-05-05T12:59:43.165Z</time></trkpt><trkpt lat="37.59596" lon="14.3193117"><ele>453.75</ele><time>2026-05-05T12:59:44.165Z</time></trkpt><trkpt lat="37.5958933" lon="14.319165"><ele>454.0</ele><time>2026-05-05T12:59:45.165Z</time></trkpt><trkpt lat="37.59586" lon="14.3189917"><ele>456.6666666666667</ele><time>2026-05-05T12:59:46.166Z</time></trkpt><trkpt lat="37.595875" lon="14.3188167"><ele>459.33333333333337</ele><time>2026-05-05T12:59:47.166Z</time></trkpt><trkpt lat="37.5959167" lon="14.3186183"><ele>462.0</ele><time>2026-05-05T12:59:48.165Z</time></trkpt><trkpt lat="37.5959817" lon="14.318415"><ele>462.0</ele><time>2026-05-05T12:59:49.165Z</time></trkpt><trkpt lat="37.5960433" lon="14.31819"><ele>462.0</ele><time>2026-05-05T12:59:50.165Z</time></trkpt><trkpt lat="37.5961067" lon="14.3179517"><ele>462.0</ele><time>2026-05-05T12:59:51.165Z</time></trkpt><trkpt lat="37.5961667" lon="14.3177167"><ele>465.66666666666663</ele><time>2026-05-05T12:59:52.165Z</time></trkpt><trkpt lat="37.596235" lon="14.3174933"><ele>469.3333333333333</ele><time>2026-05-05T12:59:53.165Z</time></trkpt><trkpt lat="37.5962933" lon="14.31727"><ele>473.0</ele><time>2026-05-05T12:59:54.165Z</time></trkpt><trkpt lat="37.596345" lon="14.3170617"><ele>475.3333333333333</ele><time>2026-05-05T12:59:55.166Z</time></trkpt><trkpt lat="37.5963883" lon="14.3168567"><ele>477.66666666666663</ele><time>2026-05-05T12:59:56.166Z</time></trkpt><trkpt lat="37.5964117" lon="14.3166383"><ele>480.0</ele><time>2026-05-05T12:59:57.165Z</time></trkpt><trkpt lat="37.5964033" lon="14.31643"><ele>480.0</ele><time>2026-05-05T12:59:58.165Z</time></trkpt><trkpt lat="37.596365" lon="14.3162233"><ele>480.0</ele><time>2026-05-05T12:59:59.166Z</time></trkpt><trkpt lat="37.5963067" lon="14.316005"><ele>480.0</ele><time>2026-05-05T13:00:00.165Z</time></trkpt><trkpt lat="37.5962283" lon="14.3157833"><ele>478.0</ele><time>2026-05-05T13:00:01.165Z</time></trkpt><trkpt lat="37.5961283" lon="14.31556"><ele>476.0</ele><time>2026-05-05T13:00:02.165Z</time></trkpt><trkpt lat="37.5960333" lon="14.31533"><ele>474.0</ele><time>2026-05-05T13:00:03.165Z</time></trkpt><trkpt lat="37.5959533" lon="14.3151"><ele>474.0</ele><time>2026-05-05T13:00:04.166Z</time></trkpt><trkpt lat="37.5958817" lon="14.3148833"><ele>474.0</ele><time>2026-05-05T13:00:05.165Z</time></trkpt><trkpt lat="37.5958133" lon="14.31468"><ele>474.0</ele><time>2026-05-05T13:00:06.165Z</time></trkpt><trkpt lat="37.5957533" lon="14.3144917"><ele>475.0</ele><time>2026-05-05T13:00:07.166Z</time></trkpt><trkpt lat="37.5956967" lon="14.3143167"><ele>476.0</ele><time>2026-05-05T13:00:08.165Z</time></trkpt><trkpt lat="37.5956233" lon="14.3141583"><ele>477.0</ele><time>2026-05-05T13:00:09.165Z</time></trkpt><trkpt lat="37.5955233" lon="14.3140217"><ele>478.0</ele><time>2026-05-05T13:00:10.165Z</time></trkpt><trkpt lat="37.5954" lon="14.3139283"><ele>480.33333333333337</ele><time>2026-05-05T13:00:11.165Z</time></trkpt><trkpt lat="37.5952567" lon="14.3138683"><ele>482.66666666666663</ele><time>2026-05-05T13:00:12.165Z</time></trkpt><trkpt lat="37.5950933" lon="14.3138317"><ele>485.0</ele><time>2026-05-05T13:00:13.165Z</time></trkpt><trkpt lat="37.59492" lon="14.3138267"><ele>485.0</ele><time>2026-05-05T13:00:14.165Z</time></trkpt><trkpt lat="37.59474" lon="14.31384"><ele>485.0</ele><time>2026-05-05T13:00:15.165Z</time></trkpt><trkpt lat="37.5945467" lon="14.313855"><ele>485.0</ele><time>2026-05-05T13:00:16.165Z</time></trkpt><trkpt lat="37.5943583" lon="14.3138733"><ele>486.66666666666663</ele><time>2026-05-05T13:00:17.166Z</time></trkpt><trkpt lat="37.5941733" lon="14.3138867"><ele>488.33333333333337</ele><time>2026-05-05T13:00:18.165Z</time></trkpt><trkpt lat="37.5939967" lon="14.3138983"><ele>490.0</ele><time>2026-05-05T13:00:19.165Z</time></trkpt><trkpt lat="37.5938433" lon="14.3139083"><ele>491.0</ele><time>2026-05-05T13:00:20.165Z</time></trkpt><trkpt lat="37.59371" lon="14.3139067"><ele>492.0</ele><time>2026-05-05T13:00:21.165Z</time></trkpt><trkpt lat="37.593585" lon="14.31387"><ele>493.0</ele><time>2026-05-05T13:00:22.165Z</time></trkpt><trkpt lat="37.5934767" lon="14.3137967"><ele>494.0</ele><time>2026-05-05T13:00:23.165Z</time></trkpt><trkpt lat="37.5934" lon="14.3136883"><ele>494.0</ele><time>2026-05-05T13:00:24.166Z</time></trkpt><trkpt lat="37.593345" lon="14.3135517"><ele>494.0</ele><time>2026-05-05T13:00:25.165Z</time></trkpt><trkpt lat="37.5933317" lon="14.3133983"><ele>494.0</ele><time>2026-05-05T13:00:26.166Z</time></trkpt><trkpt lat="37.593345" lon="14.3132283"><ele>494.0</ele><time>2026-05-05T13:00:27.165Z</time></trkpt><trkpt lat="37.59339" lon="14.3130467"><ele>495.66666666666663</ele><time>2026-05-05T13:00:28.165Z</time></trkpt><trkpt lat="37.5934467" lon="14.3128667"><ele>497.33333333333337</ele><time>2026-05-05T13:00:29.165Z</time></trkpt><trkpt lat="37.5935083" lon="14.31267"><ele>499.0</ele><time>2026-05-05T13:00:30.165Z</time></trkpt><trkpt lat="37.593575" lon="14.3124633"><ele>499.0</ele><time>2026-05-05T13:00:31.165Z</time></trkpt><trkpt lat="37.5936383" lon="14.31227"><ele>499.0</ele><time>2026-05-05T13:00:32.165Z</time></trkpt><trkpt lat="37.5936867" lon="14.31209"><ele>499.0</ele><time>2026-05-05T13:00:33.165Z</time></trkpt><trkpt lat="37.5937117" lon="14.3119067"><ele>500.5</ele><time>2026-05-05T13:00:34.165Z</time></trkpt><trkpt lat="37.593715" lon="14.3117233"><ele>502.0</ele><time>2026-05-05T13:00:35.166Z</time></trkpt><trkpt lat="37.5936833" lon="14.31155"><ele>503.5</ele><time>2026-05-05T13:00:36.166Z</time></trkpt><trkpt lat="37.5936167" lon="14.3113883"><ele>505.0</ele><time>2026-05-05T13:00:37.165Z</time></trkpt><trkpt lat="37.5935167" lon="14.3112383"><ele>505.0</ele><time>2026-05-05T13:00:38.165Z</time></trkpt><trkpt lat="37.5934" lon="14.31109"><ele>505.0</ele><time>2026-05-05T13:00:39.165Z</time></trkpt><trkpt lat="37.5932683" lon="14.31095"><ele>505.0</ele><time>2026-05-05T13:00:40.165Z</time></trkpt><trkpt lat="37.5931217" lon="14.31083"><ele>505.0</ele><time>2026-05-05T13:00:41.165Z</time></trkpt><trkpt lat="37.5929733" lon="14.31073"><ele>505.0</ele><time>2026-05-05T13:00:42.165Z</time></trkpt><trkpt lat="37.5928033" lon="14.3106467"><ele>505.0</ele><time>2026-05-05T13:00:43.165Z</time></trkpt><trkpt lat="37.59264" lon="14.3105833"><ele>502.33333333333337</ele><time>2026-05-05T13:00:44.166Z</time></trkpt><trkpt lat="37.592485" lon="14.310535"><ele>499.66666666666663</ele><time>2026-05-05T13:00:45.165Z</time></trkpt><trkpt lat="37.5923383" lon="14.3104933"><ele>497.0</ele><time>2026-05-05T13:00:46.165Z</time></trkpt><trkpt lat="37.5921933" lon="14.31048"><ele>497.0</ele><time>2026-05-05T13:00:47.165Z</time></trkpt><trkpt lat="37.5920433" lon="14.3104917"><ele>497.0</ele><time>2026-05-05T13:00:48.165Z</time></trkpt><trkpt lat="37.5919017" lon="14.3105383"><ele>497.0</ele><time>2026-05-05T13:00:49.165Z</time></trkpt><trkpt lat="37.5917517" lon="14.3106417"><ele>493.66666666666663</ele><time>2026-05-05T13:00:50.165Z</time></trkpt><trkpt lat="37.591605" lon="14.3107567"><ele>490.33333333333337</ele><time>2026-05-05T13:00:51.165Z</time></trkpt><trkpt lat="37.5914617" lon="14.3108783"><ele>487.0</ele><time>2026-05-05T13:00:52.165Z</time></trkpt><trkpt lat="37.591325" lon="14.3109783"><ele>487.0</ele><time>2026-05-05T13:00:53.166Z</time></trkpt><trkpt lat="37.59119" lon="14.3110617"><ele>487.0</ele><time>2026-05-05T13:00:54.165Z</time></trkpt><trkpt lat="37.591065" lon="14.3111033"><ele>487.0</ele><time>2026-05-05T13:00:55.165Z</time></trkpt><trkpt lat="37.5909333" lon="14.3110933"><ele>487.0</ele><time>2026-05-05T13:00:56.165Z</time></trkpt><trkpt lat="37.5907967" lon="14.3110617"><ele>490.0</ele><time>2026-05-05T13:00:57.165Z</time></trkpt><trkpt lat="37.5906433" lon="14.3109967"><ele>493.0</ele><time>2026-05-05T13:00:58.165Z</time></trkpt><trkpt lat="37.5905017" lon="14.3109233"><ele>496.0</ele><time>2026-05-05T13:00:59.165Z</time></trkpt><trkpt lat="37.5903633" lon="14.3108367"><ele>497.33333333333337</ele><time>2026-05-05T13:01:00.165Z</time></trkpt><trkpt lat="37.59023" lon="14.3107283"><ele>498.66666666666663</ele><time>2026-05-05T13:01:01.165Z</time></trkpt><trkpt lat="37.5900917" lon="14.3105967"><ele>500.0</ele><time>2026-05-05T13:01:02.165Z</time></trkpt><trkpt lat="37.589965" lon="14.310455"><ele>503.66666666666663</ele><time>2026-05-05T13:01:03.166Z</time></trkpt><trkpt lat="37.5898317" lon="14.310305"><ele>507.33333333333337</ele><time>2026-05-05T13:01:04.165Z</time></trkpt><trkpt lat="37.58971" lon="14.310145"><ele>511.0</ele><time>2026-05-05T13:01:05.165Z</time></trkpt><trkpt lat="37.58958" lon="14.3099917"><ele>509.33333333333337</ele><time>2026-05-05T13:01:06.165Z</time></trkpt><trkpt lat="37.5894617" lon="14.3098383"><ele>507.66666666666663</ele><time>2026-05-05T13:01:07.165Z</time></trkpt><trkpt lat="37.5893467" lon="14.3096933"><ele>506.0</ele><time>2026-05-05T13:01:08.165Z</time></trkpt><trkpt lat="37.5892367" lon="14.309545"><ele>510.0</ele><time>2026-05-05T13:01:09.166Z</time></trkpt><trkpt lat="37.589135" lon="14.30939"><ele>514.0</ele><time>2026-05-05T13:01:10.166Z</time></trkpt><trkpt lat="37.5890483" lon="14.30922"><ele>518.0</ele><time>2026-05-05T13:01:11.165Z</time></trkpt><trkpt lat="37.5889783" lon="14.3090267"><ele>520.6666666666666</ele><time>2026-05-05T13:01:12.165Z</time></trkpt><trkpt lat="37.5889083" lon="14.3088217"><ele>523.3333333333334</ele><time>2026-05-05T13:01:13.165Z</time></trkpt><trkpt lat="37.588835" lon="14.30862"><ele>526.0</ele><time>2026-05-05T13:01:14.165Z</time></trkpt><trkpt lat="37.5887667" lon="14.3084333"><ele>526.0</ele><time>2026-05-05T13:01:15.165Z</time></trkpt><trkpt lat="37.5887067" lon="14.3082483"><ele>526.0</ele><time>2026-05-05T13:01:16.165Z</time></trkpt><trkpt lat="37.588655" lon="14.3080633"><ele>526.0</ele><time>2026-05-05T13:01:17.165Z</time></trkpt><trkpt lat="37.5886183" lon="14.3078617"><ele>525.6666666666667</ele><time>2026-05-05T13:01:18.165Z</time></trkpt><trkpt lat="37.5885983" lon="14.3076433"><ele>525.3333333333334</ele><time>2026-05-05T13:01:19.165Z</time></trkpt><trkpt lat="37.5885783" lon="14.307425"><ele>525.0</ele><time>2026-05-05T13:01:20.165Z</time></trkpt><trkpt lat="37.5885617" lon="14.3071917"><ele>526.6666666666666</ele><time>2026-05-05T13:01:21.165Z</time></trkpt><trkpt lat="37.58854" lon="14.30697"><ele>528.3333333333333</ele><time>2026-05-05T13:01:22.165Z</time></trkpt><trkpt lat="37.5885183" lon="14.306755"><ele>530.0</ele><time>2026-05-05T13:01:23.165Z</time></trkpt><trkpt lat="37.5885183" lon="14.3065433"><ele>530.6666666666666</ele><time>2026-05-05T13:01:24.165Z</time></trkpt><trkpt lat="37.5885267" lon="14.30633"><ele>531.3333333333334</ele><time>2026-05-05T13:01:25.165Z</time></trkpt><trkpt lat="37.5885267" lon="14.30612"><ele>532.0</ele><time>2026-05-05T13:01:26.165Z</time></trkpt><trkpt lat="37.58851" lon="14.3059067"><ele>532.0</ele><time>2026-05-05T13:01:27.166Z</time></trkpt><trkpt lat="37.588465" lon="14.3057017"><ele>532.0</ele><time>2026-05-05T13:01:28.165Z</time></trkpt><trkpt lat="37.58839" lon="14.3054967"><ele>532.0</ele><time>2026-05-05T13:01:29.166Z</time></trkpt><trkpt lat="37.5882967" lon="14.3052933"><ele>535.0</ele><time>2026-05-05T13:01:30.165Z</time></trkpt><trkpt lat="37.5881917" lon="14.3050933"><ele>538.0</ele><time>2026-05-05T13:01:31.165Z</time></trkpt><trkpt lat="37.5880917" lon="14.3048933"><ele>541.0</ele><time>2026-05-05T13:01:32.165Z</time></trkpt><trkpt lat="37.5880017" lon="14.3047033"><ele>544.0</ele><time>2026-05-05T13:01:33.166Z</time></trkpt><trkpt lat="37.5879317" lon="14.3045217"><ele>547.0</ele><time>2026-05-05T13:01:34.165Z</time></trkpt><trkpt lat="37.587875" lon="14.3043333"><ele>550.0</ele><time>2026-05-05T13:01:35.165Z</time></trkpt><trkpt lat="37.587845" lon="14.304125"><ele>551.6666666666667</ele><time>2026-05-05T13:01:36.165Z</time></trkpt><trkpt lat="37.5878417" lon="14.3039117"><ele>553.3333333333334</ele><time>2026-05-05T13:01:37.165Z</time></trkpt><trkpt lat="37.5878717" lon="14.303685"><ele>555.0</ele><time>2026-05-05T13:01:38.166Z</time></trkpt><trkpt lat="37.5879217" lon="14.3034567"><ele>555.0</ele><time>2026-05-05T13:01:39.165Z</time></trkpt><trkpt lat="37.5879817" lon="14.30323"><ele>555.0</ele><time>2026-05-05T13:01:40.165Z</time></trkpt><trkpt lat="37.5880433" lon="14.3029983"><ele>555.0</ele><time>2026-05-05T13:01:41.166Z</time></trkpt><trkpt lat="37.5881117" lon="14.302765"><ele>556.0</ele><time>2026-05-05T13:01:42.165Z</time></trkpt><trkpt lat="37.5881717" lon="14.3025267"><ele>557.0</ele><time>2026-05-05T13:01:43.165Z</time></trkpt><trkpt lat="37.58823" lon="14.3022883"><ele>558.0</ele><time>2026-05-05T13:01:44.165Z</time></trkpt><trkpt lat="37.58829" lon="14.3020533"><ele>559.6666666666666</ele><time>2026-05-05T13:01:45.166Z</time></trkpt><trkpt lat="37.5883483" lon="14.3018283"><ele>561.3333333333333</ele><time>2026-05-05T13:01:46.165Z</time></trkpt><trkpt lat="37.58841" lon="14.3016067"><ele>563.0</ele><time>2026-05-05T13:01:47.165Z</time></trkpt><trkpt lat="37.588475" lon="14.3013933"><ele>565.0</ele><time>2026-05-05T13:01:48.165Z</time></trkpt><trkpt lat="37.58855" lon="14.3011817"><ele>567.0</ele><time>2026-05-05T13:01:49.166Z</time></trkpt><trkpt lat="37.5886233" lon="14.3009767"><ele>569.0</ele><time>2026-05-05T13:01:50.165Z</time></trkpt><trkpt lat="37.5886867" lon="14.3007633"><ele>571.0</ele><time>2026-05-05T13:01:51.165Z</time></trkpt><trkpt lat="37.58874" lon="14.300545"><ele>573.0</ele><time>2026-05-05T13:01:52.165Z</time></trkpt><trkpt lat="37.5887817" lon="14.300315"><ele>575.0</ele><time>2026-05-05T13:01:53.166Z</time></trkpt><trkpt lat="37.5888167" lon="14.300085"><ele>575.0</ele><time>2026-05-05T13:01:54.165Z</time></trkpt><trkpt lat="37.5888583" lon="14.2998467"><ele>575.0</ele><time>2026-05-05T13:01:55.165Z</time></trkpt><trkpt lat="37.5889017" lon="14.299605"><ele>575.0</ele><time>2026-05-05T13:01:56.165Z</time></trkpt><trkpt lat="37.588945" lon="14.2993617"><ele>576.0</ele><time>2026-05-05T13:01:57.165Z</time></trkpt><trkpt lat="37.5889967" lon="14.2991217"><ele>577.0</ele><time>2026-05-05T13:01:58.165Z</time></trkpt><trkpt lat="37.58905" lon="14.2988783"><ele>578.0</ele><time>2026-05-05T13:01:59.165Z</time></trkpt><trkpt lat="37.5891067" lon="14.2986233"><ele>578.3333333333333</ele><time>2026-05-05T13:02:00.165Z</time></trkpt><trkpt lat="37.5891733" lon="14.2983783"><ele>578.6666666666666</ele><time>2026-05-05T13:02:01.165Z</time></trkpt><trkpt lat="37.5892567" lon="14.2981417"><ele>579.0</ele><time>2026-05-05T13:02:02.165Z</time></trkpt><trkpt lat="37.5893467" lon="14.2979133"><ele>578.3333333333334</ele><time>2026-05-05T13:02:03.165Z</time></trkpt><trkpt lat="37.5894317" lon="14.297695"><ele>577.6666666666667</ele><time>2026-05-05T13:02:04.165Z</time></trkpt><trkpt lat="37.5895117" lon="14.297475"><ele>577.0</ele><time>2026-05-05T13:02:05.165Z</time></trkpt><trkpt lat="37.5895867" lon="14.2972683"><ele>580.3333333333334</ele><time>2026-05-05T13:02:06.165Z</time></trkpt><trkpt lat="37.5896783" lon="14.297085"><ele>583.6666666666666</ele><time>2026-05-05T13:02:07.165Z</time></trkpt><trkpt lat="37.58979" lon="14.2969233"><ele>587.0</ele><time>2026-05-05T13:02:08.166Z</time></trkpt><trkpt lat="37.5899033" lon="14.2967633"><ele>587.0</ele><time>2026-05-05T13:02:09.165Z</time></trkpt><trkpt lat="37.5900033" lon="14.2966017"><ele>587.0</ele><time>2026-05-05T13:02:10.165Z</time></trkpt><trkpt lat="37.590085" lon="14.2964117"><ele>587.0</ele><time>2026-05-05T13:02:11.165Z</time></trkpt><trkpt lat="37.590135" lon="14.2962117"><ele>587.3333333333333</ele><time>2026-05-05T13:02:12.165Z</time></trkpt><trkpt lat="37.590155" lon="14.2959983"><ele>587.6666666666666</ele><time>2026-05-05T13:02:13.166Z</time></trkpt><trkpt lat="37.5901717" lon="14.2957883"><ele>588.0</ele><time>2026-05-05T13:02:14.165Z</time></trkpt><trkpt lat="37.5901883" lon="14.2955817"><ele>587.0</ele><time>2026-05-05T13:02:15.166Z</time></trkpt><trkpt lat="37.5902183" lon="14.2953817"><ele>586.0</ele><time>2026-05-05T13:02:16.165Z</time></trkpt><trkpt lat="37.5902733" lon="14.29519"><ele>585.0</ele><time>2026-05-05T13:02:17.165Z</time></trkpt><trkpt lat="37.5903517" lon="14.2950133"><ele>586.0</ele><time>2026-05-05T13:02:18.165Z</time></trkpt><trkpt lat="37.590465" lon="14.29485"><ele>587.0</ele><time>2026-05-05T13:02:19.166Z</time></trkpt><trkpt lat="37.590585" lon="14.2946767"><ele>588.0</ele><time>2026-05-05T13:02:20.165Z</time></trkpt><trkpt lat="37.5907033" lon="14.2945183"><ele>588.0</ele><time>2026-05-05T13:02:21.165Z</time></trkpt><trkpt lat="37.5908167" lon="14.2943633"><ele>588.0</ele><time>2026-05-05T13:02:22.165Z</time></trkpt><trkpt lat="37.59093" lon="14.2942117"><ele>588.0</ele><time>2026-05-05T13:02:23.165Z</time></trkpt><trkpt lat="37.591035" lon="14.2940583"><ele>587.0</ele><time>2026-05-05T13:02:24.165Z</time></trkpt><trkpt lat="37.5911333" lon="14.2939"><ele>586.0</ele><time>2026-05-05T13:02:25.165Z</time></trkpt><trkpt lat="37.5912217" lon="14.2937217"><ele>585.0</ele><time>2026-05-05T13:02:26.165Z</time></trkpt><trkpt lat="37.5912867" lon="14.2935233"><ele>588.3333333333334</ele><time>2026-05-05T13:02:27.165Z</time></trkpt><trkpt lat="37.5913383" lon="14.2933183"><ele>591.6666666666667</ele><time>2026-05-05T13:02:28.166Z</time></trkpt><trkpt lat="37.5913817" lon="14.2931133"><ele>595.0</ele><time>2026-05-05T13:02:29.165Z</time></trkpt><trkpt lat="37.59141" lon="14.2929083"><ele>595.6666666666667</ele><time>2026-05-05T13:02:30.165Z</time></trkpt><trkpt lat="37.5914233" lon="14.2927033"><ele>596.3333333333334</ele><time>2026-05-05T13:02:31.165Z</time></trkpt><trkpt lat="37.59141" lon="14.292485"><ele>597.0</ele><time>2026-05-05T13:02:32.165Z</time></trkpt><trkpt lat="37.59138" lon="14.2922667"><ele>597.6666666666666</ele><time>2026-05-05T13:02:33.166Z</time></trkpt><trkpt lat="37.591335" lon="14.2920517"><ele>598.3333333333333</ele><time>2026-05-05T13:02:34.165Z</time></trkpt><trkpt lat="37.5912833" lon="14.2918317"><ele>599.0</ele><time>2026-05-05T13:02:35.165Z</time></trkpt><trkpt lat="37.59122" lon="14.2916133"><ele>597.0</ele><time>2026-05-05T13:02:36.165Z</time></trkpt><trkpt lat="37.5911433" lon="14.2913983"><ele>595.0</ele><time>2026-05-05T13:02:37.165Z</time></trkpt><trkpt lat="37.5910533" lon="14.2911983"><ele>593.0</ele><time>2026-05-05T13:02:38.165Z</time></trkpt><trkpt lat="37.5909567" lon="14.2909983"><ele>593.0</ele><time>2026-05-05T13:02:39.165Z</time></trkpt><trkpt lat="37.59087" lon="14.2907917"><ele>593.0</ele><time>2026-05-05T13:02:40.166Z</time></trkpt><trkpt lat="37.5907933" lon="14.2905817"><ele>593.0</ele><time>2026-05-05T13:02:41.165Z</time></trkpt><trkpt lat="37.5907133" lon="14.290375"><ele>594.0</ele><time>2026-05-05T13:02:42.165Z</time></trkpt><trkpt lat="37.5906117" lon="14.2901933"><ele>595.0</ele><time>2026-05-05T13:02:43.165Z</time></trkpt><trkpt lat="37.5904883" lon="14.2900317"><ele>596.0</ele><time>2026-05-05T13:02:44.165Z</time></trkpt><trkpt lat="37.5903483" lon="14.28988"><ele>597.0</ele><time>2026-05-05T13:02:45.165Z</time></trkpt><trkpt lat="37.5902133" lon="14.28972"><ele>598.0</ele><time>2026-05-05T13:02:46.165Z</time></trkpt><trkpt lat="37.5900917" lon="14.2895517"><ele>599.0</ele><time>2026-05-05T13:02:47.165Z</time></trkpt><trkpt lat="37.5899833" lon="14.2893817"><ele>599.0</ele><time>2026-05-05T13:02:48.165Z</time></trkpt><trkpt lat="37.58988" lon="14.2892267"><ele>599.0</ele><time>2026-05-05T13:02:49.165Z</time></trkpt><trkpt lat="37.58979" lon="14.28909"><ele>599.0</ele><time>2026-05-05T13:02:50.165Z</time></trkpt><trkpt lat="37.589705" lon="14.2889867"><ele>599.0</ele><time>2026-05-05T13:02:51.165Z</time></trkpt><trkpt lat="37.5896067" lon="14.2889167"><ele>601.5</ele><time>2026-05-05T13:02:52.165Z</time></trkpt><trkpt lat="37.5894783" lon="14.288885"><ele>604.0</ele><time>2026-05-05T13:02:53.165Z</time></trkpt><trkpt lat="37.58934" lon="14.2888867"><ele>606.5</ele><time>2026-05-05T13:02:54.165Z</time></trkpt><trkpt lat="37.5891883" lon="14.2888917"><ele>609.0</ele><time>2026-05-05T13:02:55.166Z</time></trkpt><trkpt lat="37.5890267" lon="14.2889"><ele>609.0</ele><time>2026-05-05T13:02:56.165Z</time></trkpt><trkpt lat="37.58886" lon="14.2889083"><ele>609.0</ele><time>2026-05-05T13:02:57.165Z</time></trkpt><trkpt lat="37.5886833" lon="14.2889167"><ele>609.0</ele><time>2026-05-05T13:02:58.165Z</time></trkpt><trkpt lat="37.5885" lon="14.288925"><ele>607.0</ele><time>2026-05-05T13:02:59.165Z</time></trkpt><trkpt lat="37.5883167" lon="14.2889367"><ele>605.0</ele><time>2026-05-05T13:03:00.166Z</time></trkpt><trkpt lat="37.5881417" lon="14.28895"><ele>603.0</ele><time>2026-05-05T13:03:01.165Z</time></trkpt><trkpt lat="37.5879633" lon="14.2889617"><ele>605.0</ele><time>2026-05-05T13:03:02.165Z</time></trkpt><trkpt lat="37.5878" lon="14.288975"><ele>607.0</ele><time>2026-05-05T13:03:03.166Z</time></trkpt><trkpt lat="37.587645" lon="14.2889733"><ele>609.0</ele><time>2026-05-05T13:03:04.165Z</time></trkpt><trkpt lat="37.5874983" lon="14.288955"><ele>611.5</ele><time>2026-05-05T13:03:05.165Z</time></trkpt><trkpt lat="37.5873583" lon="14.2889133"><ele>614.0</ele><time>2026-05-05T13:03:06.166Z</time></trkpt><trkpt lat="37.5872283" lon="14.28884"><ele>616.5</ele><time>2026-05-05T13:03:07.165Z</time></trkpt><trkpt lat="37.587105" lon="14.2887333"><ele>619.0</ele><time>2026-05-05T13:03:08.165Z</time></trkpt><trkpt lat="37.5869717" lon="14.2886117"><ele>619.0</ele><time>2026-05-05T13:03:09.165Z</time></trkpt><trkpt lat="37.5868317" lon="14.2884917"><ele>619.0</ele><time>2026-05-05T13:03:10.165Z</time></trkpt><trkpt lat="37.5866917" lon="14.2883733"><ele>619.0</ele><time>2026-05-05T13:03:11.165Z</time></trkpt><trkpt lat="37.5865617" lon="14.2882517"><ele>619.0</ele><time>2026-05-05T13:03:12.165Z</time></trkpt><trkpt lat="37.5864417" lon="14.2881417"><ele>619.0</ele><time>2026-05-05T13:03:13.165Z</time></trkpt><trkpt lat="37.5863283" lon="14.2880117"><ele>619.0</ele><time>2026-05-05T13:03:14.165Z</time></trkpt><trkpt lat="37.5862367" lon="14.287865"><ele>619.6666666666667</ele><time>2026-05-05T13:03:15.165Z</time></trkpt><trkpt lat="37.5861567" lon="14.2877"><ele>620.3333333333334</ele><time>2026-05-05T13:03:16.165Z</time></trkpt><trkpt lat="37.5860883" lon="14.2875267"><ele>621.0</ele><time>2026-05-05T13:03:17.165Z</time></trkpt><trkpt lat="37.58602" lon="14.2873483"><ele>623.25</ele><time>2026-05-05T13:03:18.165Z</time></trkpt><trkpt lat="37.585945" lon="14.2871733"><ele>625.5</ele><time>2026-05-05T13:03:19.165Z</time></trkpt><trkpt lat="37.585865" lon="14.28702"><ele>627.75</ele><time>2026-05-05T13:03:20.165Z</time></trkpt><trkpt lat="37.5857667" lon="14.2868933"><ele>630.0</ele><time>2026-05-05T13:03:21.165Z</time></trkpt><trkpt lat="37.5856483" lon="14.2867817"><ele>630.0</ele><time>2026-05-05T13:03:22.165Z</time></trkpt><trkpt lat="37.585515" lon="14.2867183"><ele>630.0</ele><time>2026-05-05T13:03:23.165Z</time></trkpt><trkpt lat="37.5853633" lon="14.28668"><ele>630.0</ele><time>2026-05-05T13:03:24.166Z</time></trkpt><trkpt lat="37.5852233" lon="14.2866633"><ele>630.0</ele><time>2026-05-05T13:03:25.165Z</time></trkpt><trkpt lat="37.5850883" lon="14.28664"><ele>629.5</ele><time>2026-05-05T13:03:26.165Z</time></trkpt><trkpt lat="37.5849617" lon="14.2866067"><ele>629.0</ele><time>2026-05-05T13:03:27.165Z</time></trkpt><trkpt lat="37.5848283" lon="14.2865483"><ele>628.5</ele><time>2026-05-05T13:03:28.165Z</time></trkpt><trkpt lat="37.5847067" lon="14.286485"><ele>628.0</ele><time>2026-05-05T13:03:29.165Z</time></trkpt><trkpt lat="37.5846" lon="14.286415"><ele>630.0</ele><time>2026-05-05T13:03:30.165Z</time></trkpt><trkpt lat="37.5845017" lon="14.2863383"><ele>632.0</ele><time>2026-05-05T13:03:31.165Z</time></trkpt><trkpt lat="37.5844067" lon="14.28624"><ele>634.0</ele><time>2026-05-05T13:03:32.166Z</time></trkpt><trkpt lat="37.5843267" lon="14.2861283"><ele>636.0</ele><time>2026-05-05T13:03:33.165Z</time></trkpt><trkpt lat="37.584255" lon="14.2860117"><ele>636.0</ele><time>2026-05-05T13:03:34.166Z</time></trkpt><trkpt lat="37.5841967" lon="14.2858833"><ele>636.0</ele><time>2026-05-05T13:03:35.166Z</time></trkpt><trkpt lat="37.58414" lon="14.2857533"><ele>636.0</ele><time>2026-05-05T13:03:36.165Z</time></trkpt><trkpt lat="37.584095" lon="14.285625"><ele>636.0</ele><time>2026-05-05T13:03:37.165Z</time></trkpt><trkpt lat="37.584055" lon="14.2855017"><ele>638.2</ele><time>2026-05-05T13:03:38.165Z</time></trkpt><trkpt lat="37.5840133" lon="14.285385"><ele>640.4000000000001</ele><time>2026-05-05T13:03:39.165Z</time></trkpt><trkpt lat="37.5839667" lon="14.2852767"><ele>642.6</ele><time>2026-05-05T13:03:40.166Z</time></trkpt><trkpt lat="37.5839183" lon="14.2851783"><ele>644.8000000000001</ele><time>2026-05-05T13:03:41.166Z</time></trkpt><trkpt lat="37.5838533" lon="14.2850933"><ele>647.0</ele><time>2026-05-05T13:03:42.166Z</time></trkpt><trkpt lat="37.5837717" lon="14.28503"><ele>646.6</ele><time>2026-05-05T13:03:43.166Z</time></trkpt><trkpt lat="37.58368" lon="14.2849817"><ele>646.2</ele><time>2026-05-05T13:03:44.165Z</time></trkpt><trkpt lat="37.5835917" lon="14.2849283"><ele>645.8</ele><time>2026-05-05T13:03:45.165Z</time></trkpt><trkpt lat="37.583515" lon="14.2848717"><ele>645.4</ele><time>2026-05-05T13:03:46.166Z</time></trkpt><trkpt lat="37.58345" lon="14.2848033"><ele>645.0</ele><time>2026-05-05T13:03:47.165Z</time></trkpt><trkpt lat="37.5833833" lon="14.2847283"><ele>645.0</ele><time>2026-05-05T13:03:48.165Z</time></trkpt><trkpt lat="37.5833167" lon="14.284645"><ele>645.0</ele><time>2026-05-05T13:03:49.165Z</time></trkpt><trkpt lat="37.5832483" lon="14.2845583"><ele>645.0</ele><time>2026-05-05T13:03:50.166Z</time></trkpt><trkpt lat="37.5831767" lon="14.2844717"><ele>645.0</ele><time>2026-05-05T13:03:51.165Z</time></trkpt><trkpt lat="37.5830867" lon="14.28438"><ele>645.0</ele><time>2026-05-05T13:03:52.165Z</time></trkpt><trkpt lat="37.5829967" lon="14.2842817"><ele>645.0</ele><time>2026-05-05T13:03:53.165Z</time></trkpt><trkpt lat="37.5829233" lon="14.284195"><ele>645.0</ele><time>2026-05-05T13:03:54.165Z</time></trkpt><trkpt lat="37.5828467" lon="14.2841233"><ele>645.0</ele><time>2026-05-05T13:03:55.165Z</time></trkpt><trkpt lat="37.5827783" lon="14.2840867"><ele>645.0</ele><time>2026-05-05T13:03:56.165Z</time></trkpt><trkpt lat="37.5827083" lon="14.2840667"><ele>645.0</ele><time>2026-05-05T13:03:57.165Z</time></trkpt><trkpt lat="37.5826417" lon="14.28406"><ele>645.0</ele><time>2026-05-05T13:03:58.165Z</time></trkpt><trkpt lat="37.5825383" lon="14.28406"><ele>645.0</ele><time>2026-05-05T13:04:00.165Z</time></trkpt><trkpt lat="37.5824467" lon="14.28407"><ele>645.0</ele><time>2026-05-05T13:04:02.165Z</time></trkpt><trkpt lat="37.5823417" lon="14.28412"><ele>645.0</ele><time>2026-05-05T13:04:04.165Z</time></trkpt><trkpt lat="37.582255" lon="14.2841933"><ele>645.0</ele><time>2026-05-05T13:04:06.165Z</time></trkpt><trkpt lat="37.5821933" lon="14.28424"><ele>645.0</ele><time>2026-05-05T13:04:08.165Z</time></trkpt><trkpt lat="37.58215" lon="14.2843367"><ele>645.0</ele><time>2026-05-05T13:04:34.165Z</time></trkpt><trkpt lat="37.58224" lon="14.2842817"><ele>645.0</ele><time>2026-05-05T13:04:37.165Z</time></trkpt><trkpt lat="37.5823" lon="14.2842383"><ele>645.0</ele><time>2026-05-05T13:04:38.166Z</time></trkpt><trkpt lat="37.582375" lon="14.2841883"><ele>645.0</ele><time>2026-05-05T13:04:39.165Z</time></trkpt><trkpt lat="37.5824567" lon="14.2841467"><ele>645.0</ele><time>2026-05-05T13:04:40.165Z</time></trkpt><trkpt lat="37.582555" lon="14.28412"><ele>645.0</ele><time>2026-05-05T13:04:41.165Z</time></trkpt><trkpt lat="37.5826583" lon="14.284115"><ele>645.0</ele><time>2026-05-05T13:04:42.165Z</time></trkpt><trkpt lat="37.5827617" lon="14.2841483"><ele>645.0</ele><time>2026-05-05T13:04:43.165Z</time></trkpt><trkpt lat="37.5828567" lon="14.2842067"><ele>645.0</ele><time>2026-05-05T13:04:44.165Z</time></trkpt><trkpt lat="37.58293" lon="14.2842683"><ele>645.0</ele><time>2026-05-05T13:04:45.165Z</time></trkpt><trkpt lat="37.5829817" lon="14.2843367"><ele>645.0</ele><time>2026-05-05T13:04:46.165Z</time></trkpt><trkpt lat="37.5830333" lon="14.2844017"><ele>645.0</ele><time>2026-05-05T13:04:47.165Z</time></trkpt><trkpt lat="37.583105" lon="14.2844783"><ele>645.0</ele><time>2026-05-05T13:04:49.165Z</time></trkpt><trkpt lat="37.58319" lon="14.2844683"><ele>645.0</ele><time>2026-05-05T13:04:52.165Z</time></trkpt><trkpt lat="37.5832367" lon="14.2843583"><ele>645.0</ele><time>2026-05-05T13:04:54.165Z</time></trkpt><trkpt lat="37.5831767" lon="14.284215"><ele>645.0</ele><time>2026-05-05T13:04:56.165Z</time></trkpt><trkpt lat="37.5831033" lon="14.2841467"><ele>645.0</ele><time>2026-05-05T13:04:57.165Z</time></trkpt><trkpt lat="37.5830083" lon="14.2840667"><ele>645.0</ele><time>2026-05-05T13:04:58.165Z</time></trkpt><trkpt lat="37.5829" lon="14.283975"><ele>645.0</ele><time>2026-05-05T13:04:59.165Z</time></trkpt><trkpt lat="37.582775" lon="14.28387"><ele>645.0</ele><time>2026-05-05T13:05:00.165Z</time></trkpt><trkpt lat="37.5826367" lon="14.2837683"><ele>645.0</ele><time>2026-05-05T13:05:01.165Z</time></trkpt><trkpt lat="37.582495" lon="14.2836783"><ele>649.6666666666666</ele><time>2026-05-05T13:05:02.165Z</time></trkpt><trkpt lat="37.5823483" lon="14.2836233"><ele>654.3333333333333</ele><time>2026-05-05T13:05:03.165Z</time></trkpt><trkpt lat="37.5821967" lon="14.2835983"><ele>659.0</ele><time>2026-05-05T13:05:04.165Z</time></trkpt><trkpt lat="37.582045" lon="14.2835917"><ele>660.3333333333333</ele><time>2026-05-05T13:05:05.165Z</time></trkpt><trkpt lat="37.5818933" lon="14.2835933"><ele>661.6666666666666</ele><time>2026-05-05T13:05:06.165Z</time></trkpt><trkpt lat="37.5817383" lon="14.2835883"><ele>663.0</ele><time>2026-05-05T13:05:07.165Z</time></trkpt><trkpt lat="37.5815883" lon="14.2835833"><ele>663.0</ele><time>2026-05-05T13:05:08.166Z</time></trkpt><trkpt lat="37.5814367" lon="14.2835767"><ele>663.0</ele><time>2026-05-05T13:05:09.165Z</time></trkpt><trkpt lat="37.58129" lon="14.2835683"><ele>663.0</ele><time>2026-05-05T13:05:10.165Z</time></trkpt><trkpt lat="37.581145" lon="14.283565"><ele>663.0</ele><time>2026-05-05T13:05:11.165Z</time></trkpt><trkpt lat="37.581" lon="14.28356"><ele>663.0</ele><time>2026-05-05T13:05:12.165Z</time></trkpt><trkpt lat="37.5808483" lon="14.283555"><ele>663.0</ele><time>2026-05-05T13:05:13.165Z</time></trkpt><trkpt lat="37.5806933" lon="14.2835467"><ele>663.0</ele><time>2026-05-05T13:05:14.165Z</time></trkpt><trkpt lat="37.580535" lon="14.2835433"><ele>663.0</ele><time>2026-05-05T13:05:15.166Z</time></trkpt><trkpt lat="37.5803733" lon="14.2835367"><ele>663.0</ele><time>2026-05-05T13:05:16.166Z</time></trkpt><trkpt lat="37.5802133" lon="14.283535"><ele>663.0</ele><time>2026-05-05T13:05:17.165Z</time></trkpt><trkpt lat="37.5800467" lon="14.2835283"><ele>664.3333333333334</ele><time>2026-05-05T13:05:18.165Z</time></trkpt><trkpt lat="37.57987" lon="14.2835267"><ele>665.6666666666667</ele><time>2026-05-05T13:05:19.165Z</time></trkpt><trkpt lat="37.579705" lon="14.2835267"><ele>667.0</ele><time>2026-05-05T13:05:20.165Z</time></trkpt><trkpt lat="37.5795417" lon="14.2835267"><ele>668.0</ele><time>2026-05-05T13:05:21.165Z</time></trkpt><trkpt lat="37.5793833" lon="14.2835333"><ele>669.0</ele><time>2026-05-05T13:05:22.165Z</time></trkpt><trkpt lat="37.5792217" lon="14.283535"><ele>670.0</ele><time>2026-05-05T13:05:23.165Z</time></trkpt><trkpt lat="37.5790667" lon="14.2835183"><ele>670.0</ele><time>2026-05-05T13:05:24.165Z</time></trkpt><trkpt lat="37.5789133" lon="14.2834767"><ele>670.0</ele><time>2026-05-05T13:05:25.165Z</time></trkpt><trkpt lat="37.578765" lon="14.28341"><ele>670.0</ele><time>2026-05-05T13:05:26.165Z</time></trkpt><trkpt lat="37.578625" lon="14.2833333"><ele>671.6666666666667</ele><time>2026-05-05T13:05:27.165Z</time></trkpt><trkpt lat="37.5784883" lon="14.2832417"><ele>673.3333333333334</ele><time>2026-05-05T13:05:28.165Z</time></trkpt><trkpt lat="37.5783467" lon="14.2831333"><ele>675.0</ele><time>2026-05-05T13:05:29.165Z</time></trkpt><trkpt lat="37.5781933" lon="14.2829883"><ele>675.0</ele><time>2026-05-05T13:05:30.165Z</time></trkpt><trkpt lat="37.57806" lon="14.2828283"><ele>675.0</ele><time>2026-05-05T13:05:31.166Z</time></trkpt><trkpt lat="37.577935" lon="14.282675"><ele>675.0</ele><time>2026-05-05T13:05:32.166Z</time></trkpt><trkpt lat="37.5778133" lon="14.2825417"><ele>679.0</ele><time>2026-05-05T13:05:33.165Z</time></trkpt><trkpt lat="37.57768" lon="14.2824417"><ele>683.0</ele><time>2026-05-05T13:05:34.165Z</time></trkpt><trkpt lat="37.5775367" lon="14.2823683"><ele>687.0</ele><time>2026-05-05T13:05:35.165Z</time></trkpt><trkpt lat="37.5773767" lon="14.28232"><ele>687.0</ele><time>2026-05-05T13:05:36.165Z</time></trkpt><trkpt lat="37.577215" lon="14.2822967"><ele>687.0</ele><time>2026-05-05T13:05:37.165Z</time></trkpt><trkpt lat="37.5770517" lon="14.282305"><ele>687.0</ele><time>2026-05-05T13:05:38.165Z</time></trkpt><trkpt lat="37.57688" lon="14.2823333"><ele>688.6666666666666</ele><time>2026-05-05T13:05:39.165Z</time></trkpt><trkpt lat="37.5767083" lon="14.2823867"><ele>690.3333333333333</ele><time>2026-05-05T13:05:40.165Z</time></trkpt><trkpt lat="37.5765317" lon="14.282465"><ele>692.0</ele><time>2026-05-05T13:05:41.165Z</time></trkpt><trkpt lat="37.5763483" lon="14.2825617"><ele>692.6666666666666</ele><time>2026-05-05T13:05:42.165Z</time></trkpt><trkpt lat="37.5761633" lon="14.2826583"><ele>693.3333333333334</ele><time>2026-05-05T13:05:43.165Z</time></trkpt><trkpt lat="37.5759833" lon="14.2827483"><ele>694.0</ele><time>2026-05-05T13:05:44.165Z</time></trkpt><trkpt lat="37.5758067" lon="14.2828417"><ele>694.0</ele><time>2026-05-05T13:05:45.166Z</time></trkpt><trkpt lat="37.5756383" lon="14.2829467"><ele>694.0</ele><time>2026-05-05T13:05:46.165Z</time></trkpt><trkpt lat="37.575475" lon="14.283055"><ele>694.0</ele><time>2026-05-05T13:05:47.165Z</time></trkpt><trkpt lat="37.5753083" lon="14.283155"><ele>699.0</ele><time>2026-05-05T13:05:48.166Z</time></trkpt><trkpt lat="37.5751333" lon="14.2832283"><ele>704.0</ele><time>2026-05-05T13:05:49.166Z</time></trkpt><trkpt lat="37.5749483" lon="14.2832733"><ele>709.0</ele><time>2026-05-05T13:05:50.165Z</time></trkpt><trkpt lat="37.57475" lon="14.2832883"><ele>709.0</ele><time>2026-05-05T13:05:51.165Z</time></trkpt><trkpt lat="37.574545" lon="14.2833017"><ele>709.0</ele><time>2026-05-05T13:05:52.165Z</time></trkpt><trkpt lat="37.57436" lon="14.2833167"><ele>709.0</ele><time>2026-05-05T13:05:53.165Z</time></trkpt><trkpt lat="37.5741983" lon="14.2833517"><ele>710.75</ele><time>2026-05-05T13:05:54.165Z</time></trkpt><trkpt lat="37.574065" lon="14.2833867"><ele>712.5</ele><time>2026-05-05T13:05:55.165Z</time></trkpt><trkpt lat="37.5739333" lon="14.283425"><ele>714.25</ele><time>2026-05-05T13:05:56.165Z</time></trkpt><trkpt lat="37.5738133" lon="14.2834683"><ele>716.0</ele><time>2026-05-05T13:05:57.165Z</time></trkpt><trkpt lat="37.573705" lon="14.2835117"><ele>716.3333333333333</ele><time>2026-05-05T13:05:58.165Z</time></trkpt><trkpt lat="37.5736117" lon="14.2835483"><ele>716.6666666666666</ele><time>2026-05-05T13:05:59.165Z</time></trkpt><trkpt lat="37.57353" lon="14.2835767"><ele>717.0</ele><time>2026-05-05T13:06:00.165Z</time></trkpt><trkpt lat="37.57346" lon="14.2836"><ele>717.3333333333334</ele><time>2026-05-05T13:06:01.166Z</time></trkpt><trkpt lat="37.5733817" lon="14.2836117"><ele>717.6666666666667</ele><time>2026-05-05T13:06:02.165Z</time></trkpt><trkpt lat="37.5733033" lon="14.2836233"><ele>718.0</ele><time>2026-05-05T13:06:03.165Z</time></trkpt><trkpt lat="37.5732233" lon="14.2836267"><ele>718.0</ele><time>2026-05-05T13:06:04.165Z</time></trkpt><trkpt lat="37.5731333" lon="14.2836183"><ele>718.0</ele><time>2026-05-05T13:06:05.165Z</time></trkpt><trkpt lat="37.5730517" lon="14.2836117"><ele>718.0</ele><time>2026-05-05T13:06:06.165Z</time></trkpt><trkpt lat="37.5729683" lon="14.283595"><ele>718.0</ele><time>2026-05-05T13:06:07.165Z</time></trkpt><trkpt lat="37.57287" lon="14.2835767"><ele>718.0</ele><time>2026-05-05T13:06:08.166Z</time></trkpt><trkpt lat="37.5727667" lon="14.2835517"><ele>719.25</ele><time>2026-05-05T13:06:09.165Z</time></trkpt><trkpt lat="37.5726567" lon="14.2835283"><ele>720.5</ele><time>2026-05-05T13:06:10.165Z</time></trkpt><trkpt lat="37.5725317" lon="14.2835083"><ele>721.75</ele><time>2026-05-05T13:06:11.165Z</time></trkpt><trkpt lat="37.5724067" lon="14.2834883"><ele>723.0</ele><time>2026-05-05T13:06:12.165Z</time></trkpt><trkpt lat="37.5722717" lon="14.2834717"><ele>723.0</ele><time>2026-05-05T13:06:13.165Z</time></trkpt><trkpt lat="37.572135" lon="14.2834467"><ele>723.0</ele><time>2026-05-05T13:06:14.165Z</time></trkpt><trkpt lat="37.5719967" lon="14.283425"><ele>723.0</ele><time>2026-05-05T13:06:15.165Z</time></trkpt><trkpt lat="37.5718633" lon="14.2834"><ele>723.0</ele><time>2026-05-05T13:06:16.166Z</time></trkpt><trkpt lat="37.571745" lon="14.283385"><ele>726.5</ele><time>2026-05-05T13:06:17.165Z</time></trkpt><trkpt lat="37.5716367" lon="14.2833567"><ele>730.0</ele><time>2026-05-05T13:06:18.165Z</time></trkpt><trkpt lat="37.571535" lon="14.283295"><ele>733.5</ele><time>2026-05-05T13:06:19.166Z</time></trkpt><trkpt lat="37.5714567" lon="14.2831967"><ele>737.0</ele><time>2026-05-05T13:06:20.165Z</time></trkpt><trkpt lat="37.5714033" lon="14.2830617"><ele>737.0</ele><time>2026-05-05T13:06:21.165Z</time></trkpt><trkpt lat="37.571385" lon="14.2829017"><ele>737.0</ele><time>2026-05-05T13:06:22.165Z</time></trkpt><trkpt lat="37.5713983" lon="14.2827233"><ele>737.0</ele><time>2026-05-05T13:06:23.165Z</time></trkpt><trkpt lat="37.571405" lon="14.2825433"><ele>737.0</ele><time>2026-05-05T13:06:24.165Z</time></trkpt><trkpt lat="37.571415" lon="14.2823617"><ele>736.75</ele><time>2026-05-05T13:06:25.165Z</time></trkpt><trkpt lat="37.5714217" lon="14.2821767"><ele>736.5</ele><time>2026-05-05T13:06:26.166Z</time></trkpt><trkpt lat="37.571435" lon="14.2819917"><ele>736.25</ele><time>2026-05-05T13:06:27.165Z</time></trkpt><trkpt lat="37.5714467" lon="14.2818"><ele>736.0</ele><time>2026-05-05T13:06:28.165Z</time></trkpt><trkpt lat="37.5714483" lon="14.2816117"><ele>739.0</ele><time>2026-05-05T13:06:29.165Z</time></trkpt><trkpt lat="37.5714533" lon="14.2814233"><ele>742.0</ele><time>2026-05-05T13:06:30.165Z</time></trkpt><trkpt lat="37.5714517" lon="14.2812317"><ele>745.0</ele><time>2026-05-05T13:06:31.165Z</time></trkpt><trkpt lat="37.57144" lon="14.2810367"><ele>745.0</ele><time>2026-05-05T13:06:32.165Z</time></trkpt><trkpt lat="37.5714167" lon="14.2808483"><ele>745.0</ele><time>2026-05-05T13:06:33.165Z</time></trkpt><trkpt lat="37.5713783" lon="14.28066"><ele>745.0</ele><time>2026-05-05T13:06:34.165Z</time></trkpt><trkpt lat="37.571335" lon="14.2804767"><ele>746.6666666666667</ele><time>2026-05-05T13:06:35.165Z</time></trkpt><trkpt lat="37.5712867" lon="14.280295"><ele>748.3333333333334</ele><time>2026-05-05T13:06:36.165Z</time></trkpt><trkpt lat="37.5712333" lon="14.2801183"><ele>750.0</ele><time>2026-05-05T13:06:37.165Z</time></trkpt><trkpt lat="37.5711783" lon="14.2799417"><ele>759.0</ele><time>2026-05-05T13:06:38.166Z</time></trkpt><trkpt lat="37.5711233" lon="14.2797667"><ele>768.0</ele><time>2026-05-05T13:06:39.165Z</time></trkpt><trkpt lat="37.5710717" lon="14.2795817"><ele>777.0</ele><time>2026-05-05T13:06:40.165Z</time></trkpt><trkpt lat="37.5710233" lon="14.2793917"><ele>777.0</ele><time>2026-05-05T13:06:41.165Z</time></trkpt><trkpt lat="37.5710017" lon="14.27921"><ele>777.0</ele><time>2026-05-05T13:06:42.165Z</time></trkpt><trkpt lat="37.571" lon="14.27901"><ele>777.0</ele><time>2026-05-05T13:06:43.165Z</time></trkpt><trkpt lat="37.5710283" lon="14.2788183"><ele>779.6666666666667</ele><time>2026-05-05T13:06:44.165Z</time></trkpt><trkpt lat="37.5710617" lon="14.2786217"><ele>782.3333333333334</ele><time>2026-05-05T13:06:45.165Z</time></trkpt><trkpt lat="37.5711017" lon="14.2784233"><ele>785.0</ele><time>2026-05-05T13:06:46.166Z</time></trkpt><trkpt lat="37.571155" lon="14.2782267"><ele>779.3333333333334</ele><time>2026-05-05T13:06:47.165Z</time></trkpt><trkpt lat="37.57122" lon="14.2780333"><ele>773.6666666666667</ele><time>2026-05-05T13:06:48.165Z</time></trkpt><trkpt lat="37.57128" lon="14.2778467"><ele>768.0</ele><time>2026-05-05T13:06:49.166Z</time></trkpt><trkpt lat="37.5713517" lon="14.27767"><ele>768.0</ele><time>2026-05-05T13:06:50.166Z</time></trkpt><trkpt lat="37.5714183" lon="14.27751"><ele>768.0</ele><time>2026-05-05T13:06:51.166Z</time></trkpt><trkpt lat="37.5714733" lon="14.2773633"><ele>768.0</ele><time>2026-05-05T13:06:52.165Z</time></trkpt><trkpt lat="37.5715117" lon="14.2772233"><ele>768.0</ele><time>2026-05-05T13:06:53.165Z</time></trkpt><trkpt lat="37.5715333" lon="14.2770917"><ele>769.0</ele><time>2026-05-05T13:06:54.165Z</time></trkpt><trkpt lat="37.571545" lon="14.2769583"><ele>770.0</ele><time>2026-05-05T13:06:55.165Z</time></trkpt><trkpt lat="37.5715533" lon="14.276825"><ele>771.0</ele><time>2026-05-05T13:06:56.165Z</time></trkpt><trkpt lat="37.5715633" lon="14.2766917"><ele>772.0</ele><time>2026-05-05T13:06:57.165Z</time></trkpt><trkpt lat="37.57157" lon="14.2765533"><ele>773.0</ele><time>2026-05-05T13:06:58.165Z</time></trkpt><trkpt lat="37.5715717" lon="14.27642"><ele>776.0</ele><time>2026-05-05T13:06:59.165Z</time></trkpt><trkpt lat="37.5715883" lon="14.2762883"><ele>779.0</ele><time>2026-05-05T13:07:00.165Z</time></trkpt><trkpt lat="37.571605" lon="14.2761517"><ele>782.0</ele><time>2026-05-05T13:07:01.165Z</time></trkpt><trkpt lat="37.5716383" lon="14.2760133"><ele>785.0</ele><time>2026-05-05T13:07:02.165Z</time></trkpt><trkpt lat="37.5716917" lon="14.2758733"><ele>785.0</ele><time>2026-05-05T13:07:03.166Z</time></trkpt><trkpt lat="37.571755" lon="14.2757333"><ele>785.0</ele><time>2026-05-05T13:07:04.166Z</time></trkpt><trkpt lat="37.5718267" lon="14.27559"><ele>785.0</ele><time>2026-05-05T13:07:05.165Z</time></trkpt><trkpt lat="37.571905" lon="14.2754483"><ele>785.0</ele><time>2026-05-05T13:07:06.165Z</time></trkpt><trkpt lat="37.571995" lon="14.275315"><ele>782.25</ele><time>2026-05-05T13:07:07.165Z</time></trkpt><trkpt lat="37.5720817" lon="14.2751783"><ele>779.5</ele><time>2026-05-05T13:07:08.165Z</time></trkpt><trkpt lat="37.57217" lon="14.2750333"><ele>776.75</ele><time>2026-05-05T13:07:09.165Z</time></trkpt><trkpt lat="37.5722417" lon="14.2748833"><ele>774.0</ele><time>2026-05-05T13:07:10.165Z</time></trkpt><trkpt lat="37.5723067" lon="14.27472"><ele>774.0</ele><time>2026-05-05T13:07:11.166Z</time></trkpt><trkpt lat="37.5723467" lon="14.2745417"><ele>774.0</ele><time>2026-05-05T13:07:12.165Z</time></trkpt><trkpt lat="37.572385" lon="14.2743617"><ele>774.0</ele><time>2026-05-05T13:07:13.165Z</time></trkpt><trkpt lat="37.5724133" lon="14.2741767"><ele>774.0</ele><time>2026-05-05T13:07:14.165Z</time></trkpt><trkpt lat="37.5724367" lon="14.274005"><ele>774.75</ele><time>2026-05-05T13:07:15.165Z</time></trkpt><trkpt lat="37.5724633" lon="14.2738383"><ele>775.5</ele><time>2026-05-05T13:07:16.165Z</time></trkpt><trkpt lat="37.57249" lon="14.2736767"><ele>776.25</ele><time>2026-05-05T13:07:17.165Z</time></trkpt><trkpt lat="37.5725117" lon="14.27352"><ele>777.0</ele><time>2026-05-05T13:07:18.165Z</time></trkpt><trkpt lat="37.5725183" lon="14.2733667"><ele>777.0</ele><time>2026-05-05T13:07:19.165Z</time></trkpt><trkpt lat="37.5725" lon="14.2732167"><ele>777.0</ele><time>2026-05-05T13:07:20.165Z</time></trkpt><trkpt lat="37.57247" lon="14.2730683"><ele>777.0</ele><time>2026-05-05T13:07:21.166Z</time></trkpt><trkpt lat="37.5724383" lon="14.2729183"><ele>777.0</ele><time>2026-05-05T13:07:22.165Z</time></trkpt><trkpt lat="37.5724017" lon="14.2727617"><ele>776.25</ele><time>2026-05-05T13:07:23.165Z</time></trkpt><trkpt lat="37.5723783" lon="14.27262"><ele>775.5</ele><time>2026-05-05T13:07:24.165Z</time></trkpt><trkpt lat="37.5723567" lon="14.272475"><ele>774.75</ele><time>2026-05-05T13:07:25.165Z</time></trkpt><trkpt lat="37.572335" lon="14.2723267"><ele>774.0</ele><time>2026-05-05T13:07:26.165Z</time></trkpt><trkpt lat="37.5723283" lon="14.2721783"><ele>771.25</ele><time>2026-05-05T13:07:27.165Z</time></trkpt><trkpt lat="37.5723217" lon="14.27203"><ele>768.5</ele><time>2026-05-05T13:07:28.165Z</time></trkpt><trkpt lat="37.572335" lon="14.2718833"><ele>765.75</ele><time>2026-05-05T13:07:29.166Z</time></trkpt><trkpt lat="37.5723533" lon="14.2717367"><ele>763.0</ele><time>2026-05-05T13:07:30.165Z</time></trkpt><trkpt lat="37.572375" lon="14.2715933"><ele>763.0</ele><time>2026-05-05T13:07:31.165Z</time></trkpt><trkpt lat="37.5723767" lon="14.271445"><ele>763.0</ele><time>2026-05-05T13:07:32.166Z</time></trkpt><trkpt lat="37.5723583" lon="14.2713033"><ele>763.0</ele><time>2026-05-05T13:07:33.165Z</time></trkpt><trkpt lat="37.5723283" lon="14.271165"><ele>763.0</ele><time>2026-05-05T13:07:34.165Z</time></trkpt><trkpt lat="37.5722933" lon="14.2710283"><ele>761.75</ele><time>2026-05-05T13:07:35.165Z</time></trkpt><trkpt lat="37.5722517" lon="14.2708867"><ele>760.5</ele><time>2026-05-05T13:07:36.165Z</time></trkpt><trkpt lat="37.572205" lon="14.2707433"><ele>759.25</ele><time>2026-05-05T13:07:37.164Z</time></trkpt><trkpt lat="37.57217" lon="14.270585"><ele>758.0</ele><time>2026-05-05T13:07:38.164Z</time></trkpt><trkpt lat="37.572155" lon="14.2704283"><ele>756.75</ele><time>2026-05-05T13:07:39.165Z</time></trkpt><trkpt lat="37.57216" lon="14.2702667"><ele>755.5</ele><time>2026-05-05T13:07:40.164Z</time></trkpt><trkpt lat="37.5721833" lon="14.27011"><ele>754.25</ele><time>2026-05-05T13:07:41.164Z</time></trkpt><trkpt lat="37.5722167" lon="14.26995"><ele>753.0</ele><time>2026-05-05T13:07:42.164Z</time></trkpt><trkpt lat="37.5722467" lon="14.2697833"><ele>753.75</ele><time>2026-05-05T13:07:43.165Z</time></trkpt><trkpt lat="37.5722817" lon="14.2696267"><ele>754.5</ele><time>2026-05-05T13:07:44.164Z</time></trkpt><trkpt lat="37.57232" lon="14.26947"><ele>755.25</ele><time>2026-05-05T13:07:45.164Z</time></trkpt><trkpt lat="37.57238" lon="14.2693233"><ele>756.0</ele><time>2026-05-05T13:07:46.164Z</time></trkpt><trkpt lat="37.5724633" lon="14.2691783"><ele>756.0</ele><time>2026-05-05T13:07:47.164Z</time></trkpt><trkpt lat="37.5725467" lon="14.2690317"><ele>756.0</ele><time>2026-05-05T13:07:48.164Z</time></trkpt><trkpt lat="37.5726317" lon="14.268875"><ele>756.0</ele><time>2026-05-05T13:07:49.164Z</time></trkpt><trkpt lat="37.57271" lon="14.2687267"><ele>756.0</ele><time>2026-05-05T13:07:50.164Z</time></trkpt><trkpt lat="37.572795" lon="14.2685817"><ele>751.75</ele><time>2026-05-05T13:07:51.165Z</time></trkpt><trkpt lat="37.5728767" lon="14.2684383"><ele>747.5</ele><time>2026-05-05T13:07:52.164Z</time></trkpt><trkpt lat="37.572965" lon="14.2683"><ele>743.25</ele><time>2026-05-05T13:07:53.164Z</time></trkpt><trkpt lat="37.5730483" lon="14.2681717"><ele>739.0</ele><time>2026-05-05T13:07:54.164Z</time></trkpt><trkpt lat="37.5731317" lon="14.268045"><ele>739.0</ele><time>2026-05-05T13:07:55.165Z</time></trkpt><trkpt lat="37.573195" lon="14.2679067"><ele>739.0</ele><time>2026-05-05T13:07:56.164Z</time></trkpt><trkpt lat="37.57322" lon="14.2677483"><ele>739.0</ele><time>2026-05-05T13:07:57.164Z</time></trkpt><trkpt lat="37.5732067" lon="14.2675867"><ele>739.0</ele><time>2026-05-05T13:07:58.164Z</time></trkpt><trkpt lat="37.5731683" lon="14.267415"><ele>737.25</ele><time>2026-05-05T13:07:59.164Z</time></trkpt><trkpt lat="37.5731317" lon="14.267235"><ele>735.5</ele><time>2026-05-05T13:08:00.165Z</time></trkpt><trkpt lat="37.5731083" lon="14.2670583"><ele>733.75</ele><time>2026-05-05T13:08:01.164Z</time></trkpt><trkpt lat="37.5731017" lon="14.2668883"><ele>732.0</ele><time>2026-05-05T13:08:02.164Z</time></trkpt><trkpt lat="37.5731017" lon="14.2667117"><ele>732.0</ele><time>2026-05-05T13:08:03.164Z</time></trkpt><trkpt lat="37.5731167" lon="14.2665317"><ele>732.0</ele><time>2026-05-05T13:08:04.165Z</time></trkpt><trkpt lat="37.57311" lon="14.2663617"><ele>732.0</ele><time>2026-05-05T13:08:05.164Z</time></trkpt><trkpt lat="37.5730667" lon="14.2662"><ele>732.0</ele><time>2026-05-05T13:08:06.164Z</time></trkpt><trkpt lat="37.5729883" lon="14.2660533"><ele>732.5</ele><time>2026-05-05T13:08:07.164Z</time></trkpt><trkpt lat="37.57289" lon="14.265915"><ele>733.0</ele><time>2026-05-05T13:08:08.164Z</time></trkpt><trkpt lat="37.5728033" lon="14.26578"><ele>733.5</ele><time>2026-05-05T13:08:09.164Z</time></trkpt><trkpt lat="37.5727417" lon="14.2656233"><ele>734.0</ele><time>2026-05-05T13:08:10.165Z</time></trkpt><trkpt lat="37.5727167" lon="14.26546"><ele>734.0</ele><time>2026-05-05T13:08:11.164Z</time></trkpt><trkpt lat="37.5727167" lon="14.2652983"><ele>734.0</ele><time>2026-05-05T13:08:12.164Z</time></trkpt><trkpt lat="37.5727317" lon="14.265125"><ele>734.0</ele><time>2026-05-05T13:08:13.164Z</time></trkpt><trkpt lat="37.5727483" lon="14.2649617"><ele>734.0</ele><time>2026-05-05T13:08:14.164Z</time></trkpt><trkpt lat="37.5727417" lon="14.2648"><ele>730.25</ele><time>2026-05-05T13:08:15.165Z</time></trkpt><trkpt lat="37.5726983" lon="14.264645"><ele>726.5</ele><time>2026-05-05T13:08:16.164Z</time></trkpt><trkpt lat="37.5726183" lon="14.2645117"><ele>722.75</ele><time>2026-05-05T13:08:17.164Z</time></trkpt><trkpt lat="37.5725133" lon="14.264385"><ele>719.0</ele><time>2026-05-05T13:08:18.164Z</time></trkpt><trkpt lat="37.5724033" lon="14.264255"><ele>719.0</ele><time>2026-05-05T13:08:19.164Z</time></trkpt><trkpt lat="37.572305" lon="14.2641133"><ele>719.0</ele><time>2026-05-05T13:08:20.164Z</time></trkpt><trkpt lat="37.5722167" lon="14.263965"><ele>719.0</ele><time>2026-05-05T13:08:21.164Z</time></trkpt><trkpt lat="37.5721383" lon="14.2638133"><ele>719.0</ele><time>2026-05-05T13:08:22.165Z</time></trkpt><trkpt lat="37.57208" lon="14.2636517"><ele>719.75</ele><time>2026-05-05T13:08:23.165Z</time></trkpt><trkpt lat="37.5720467" lon="14.2634767"><ele>720.5</ele><time>2026-05-05T13:08:24.164Z</time></trkpt><trkpt lat="37.5720283" lon="14.2632967"><ele>721.25</ele><time>2026-05-05T13:08:25.164Z</time></trkpt><trkpt lat="37.5720167" lon="14.26312"><ele>722.0</ele><time>2026-05-05T13:08:26.164Z</time></trkpt><trkpt lat="37.5719933" lon="14.2629467"><ele>722.0</ele><time>2026-05-05T13:08:27.164Z</time></trkpt><trkpt lat="37.571935" lon="14.2627917"><ele>722.0</ele><time>2026-05-05T13:08:28.164Z</time></trkpt><trkpt lat="37.571855" lon="14.2626367"><ele>722.0</ele><time>2026-05-05T13:08:29.164Z</time></trkpt><trkpt lat="37.5717617" lon="14.2624933"><ele>722.0</ele><time>2026-05-05T13:08:30.164Z</time></trkpt><trkpt lat="37.5716667" lon="14.2623483"><ele>716.0</ele><time>2026-05-05T13:08:31.164Z</time></trkpt><trkpt lat="37.5715683" lon="14.2621967"><ele>710.0</ele><time>2026-05-05T13:08:32.164Z</time></trkpt><trkpt lat="37.571465" lon="14.2620533"><ele>704.0</ele><time>2026-05-05T13:08:33.164Z</time></trkpt><trkpt lat="37.5713667" lon="14.2619067"><ele>704.0</ele><time>2026-05-05T13:08:34.164Z</time></trkpt><trkpt lat="37.5712667" lon="14.2617617"><ele>704.0</ele><time>2026-05-05T13:08:35.165Z</time></trkpt><trkpt lat="37.5711783" lon="14.2616183"><ele>704.0</ele><time>2026-05-05T13:08:36.165Z</time></trkpt><trkpt lat="37.5711033" lon="14.261465"><ele>704.0</ele><time>2026-05-05T13:08:37.164Z</time></trkpt><trkpt lat="37.57104" lon="14.26129"><ele>707.6666666666666</ele><time>2026-05-05T13:08:38.164Z</time></trkpt><trkpt lat="37.571" lon="14.2611067"><ele>711.3333333333334</ele><time>2026-05-05T13:08:39.164Z</time></trkpt><trkpt lat="37.57098" lon="14.26091"><ele>715.0</ele><time>2026-05-05T13:08:40.164Z</time></trkpt><trkpt lat="37.5709583" lon="14.2607167"><ele>710.75</ele><time>2026-05-05T13:08:41.164Z</time></trkpt><trkpt lat="37.5709367" lon="14.2605317"><ele>706.5</ele><time>2026-05-05T13:08:42.164Z</time></trkpt><trkpt lat="37.5709117" lon="14.26035"><ele>702.25</ele><time>2026-05-05T13:08:43.164Z</time></trkpt><trkpt lat="37.570845" lon="14.2601733"><ele>698.0</ele><time>2026-05-05T13:08:44.165Z</time></trkpt><trkpt lat="37.5707583" lon="14.2600017"><ele>698.0</ele><time>2026-05-05T13:08:45.165Z</time></trkpt><trkpt lat="37.5706667" lon="14.2598383"><ele>698.0</ele><time>2026-05-05T13:08:46.164Z</time></trkpt><trkpt lat="37.5705783" lon="14.2596833"><ele>698.0</ele><time>2026-05-05T13:08:47.164Z</time></trkpt><trkpt lat="37.57049" lon="14.2595367"><ele>698.75</ele><time>2026-05-05T13:08:48.164Z</time></trkpt><trkpt lat="37.5704067" lon="14.2593917"><ele>699.5</ele><time>2026-05-05T13:08:49.164Z</time></trkpt><trkpt lat="37.5703217" lon="14.2592417"><ele>700.25</ele><time>2026-05-05T13:08:50.164Z</time></trkpt><trkpt lat="37.5702367" lon="14.259095"><ele>701.0</ele><time>2026-05-05T13:08:51.164Z</time></trkpt><trkpt lat="37.57015" lon="14.2589517"><ele>697.75</ele><time>2026-05-05T13:08:52.164Z</time></trkpt><trkpt lat="37.570065" lon="14.258805"><ele>694.5</ele><time>2026-05-05T13:08:53.164Z</time></trkpt><trkpt lat="37.5699833" lon="14.2586667"><ele>691.25</ele><time>2026-05-05T13:08:54.164Z</time></trkpt><trkpt lat="37.56991" lon="14.2585367"><ele>688.0</ele><time>2026-05-05T13:08:55.165Z</time></trkpt><trkpt lat="37.5698433" lon="14.2584183"><ele>688.0</ele><time>2026-05-05T13:08:56.165Z</time></trkpt><trkpt lat="37.5697817" lon="14.25831"><ele>688.0</ele><time>2026-05-05T13:08:57.164Z</time></trkpt><trkpt lat="37.5697017" lon="14.2582283"><ele>688.0</ele><time>2026-05-05T13:08:58.164Z</time></trkpt><trkpt lat="37.5696083" lon="14.25819"><ele>688.0</ele><time>2026-05-05T13:08:59.164Z</time></trkpt><trkpt lat="37.5695117" lon="14.2582167"><ele>688.0</ele><time>2026-05-05T13:09:00.164Z</time></trkpt><trkpt lat="37.5694183" lon="14.2582983"><ele>685.5</ele><time>2026-05-05T13:09:01.164Z</time></trkpt><trkpt lat="37.5693317" lon="14.2584133"><ele>683.0</ele><time>2026-05-05T13:09:02.164Z</time></trkpt><trkpt lat="37.5692567" lon="14.2585317"><ele>680.5</ele><time>2026-05-05T13:09:03.164Z</time></trkpt><trkpt lat="37.5691717" lon="14.2586283"><ele>678.0</ele><time>2026-05-05T13:09:04.165Z</time></trkpt><trkpt lat="37.569085" lon="14.2587233"><ele>678.0</ele><time>2026-05-05T13:09:05.165Z</time></trkpt><trkpt lat="37.5690017" lon="14.258805"><ele>678.0</ele><time>2026-05-05T13:09:06.164Z</time></trkpt><trkpt lat="37.5689133" lon="14.2588717"><ele>678.0</ele><time>2026-05-05T13:09:07.164Z</time></trkpt><trkpt lat="37.5688217" lon="14.2589217"><ele>678.0</ele><time>2026-05-05T13:09:08.165Z</time></trkpt><trkpt lat="37.5687267" lon="14.2589567"><ele>678.0</ele><time>2026-05-05T13:09:09.164Z</time></trkpt><trkpt lat="37.5686367" lon="14.258965"><ele>676.1666666666666</ele><time>2026-05-05T13:09:10.164Z</time></trkpt><trkpt lat="37.5685467" lon="14.2589433"><ele>674.3333333333334</ele><time>2026-05-05T13:09:11.164Z</time></trkpt><trkpt lat="37.5684667" lon="14.2589117"><ele>672.5</ele><time>2026-05-05T13:09:12.164Z</time></trkpt><trkpt lat="37.5683933" lon="14.2588733"><ele>670.6666666666667</ele><time>2026-05-05T13:09:13.165Z</time></trkpt><trkpt lat="37.5683283" lon="14.258835"><ele>668.8333333333334</ele><time>2026-05-05T13:09:14.164Z</time></trkpt><trkpt lat="37.5682567" lon="14.2587833"><ele>667.0</ele><time>2026-05-05T13:09:15.164Z</time></trkpt><trkpt lat="37.5681717" lon="14.25873"><ele>667.0</ele><time>2026-05-05T13:09:16.164Z</time></trkpt><trkpt lat="37.568095" lon="14.2586783"><ele>667.0</ele><time>2026-05-05T13:09:17.164Z</time></trkpt><trkpt lat="37.5680167" lon="14.2586283"><ele>667.0</ele><time>2026-05-05T13:09:18.164Z</time></trkpt><trkpt lat="37.5679367" lon="14.258575"><ele>667.0</ele><time>2026-05-05T13:09:19.164Z</time></trkpt><trkpt lat="37.5678483" lon="14.25852"><ele>667.0</ele><time>2026-05-05T13:09:20.164Z</time></trkpt><trkpt lat="37.5677533" lon="14.2584633"><ele>667.6</ele><time>2026-05-05T13:09:21.164Z</time></trkpt><trkpt lat="37.5676617" lon="14.2584067"><ele>668.2</ele><time>2026-05-05T13:09:22.164Z</time></trkpt><trkpt lat="37.5675683" lon="14.2583533"><ele>668.8</ele><time>2026-05-05T13:09:23.164Z</time></trkpt><trkpt lat="37.5674717" lon="14.2583017"><ele>669.4</ele><time>2026-05-05T13:09:24.164Z</time></trkpt><trkpt lat="37.5673667" lon="14.2582483"><ele>670.0</ele><time>2026-05-05T13:09:25.164Z</time></trkpt><trkpt lat="37.56726" lon="14.258195"><ele>670.0</ele><time>2026-05-05T13:09:26.164Z</time></trkpt><trkpt lat="37.5671467" lon="14.25814"><ele>670.0</ele><time>2026-05-05T13:09:27.164Z</time></trkpt><trkpt lat="37.5670283" lon="14.2580883"><ele>670.0</ele><time>2026-05-05T13:09:28.164Z</time></trkpt><trkpt lat="37.5669083" lon="14.258045"><ele>670.0</ele><time>2026-05-05T13:09:29.164Z</time></trkpt><trkpt lat="37.5667983" lon="14.2580033"><ele>664.75</ele><time>2026-05-05T13:09:30.164Z</time></trkpt><trkpt lat="37.56669" lon="14.2579667"><ele>659.5</ele><time>2026-05-05T13:09:31.164Z</time></trkpt><trkpt lat="37.5665733" lon="14.25793"><ele>654.25</ele><time>2026-05-05T13:09:32.164Z</time></trkpt><trkpt lat="37.5664617" lon="14.25789"><ele>649.0</ele><time>2026-05-05T13:09:33.164Z</time></trkpt><trkpt lat="37.566355" lon="14.257855"><ele>649.0</ele><time>2026-05-05T13:09:34.164Z</time></trkpt><trkpt lat="37.5662433" lon="14.2578283"><ele>649.0</ele><time>2026-05-05T13:09:35.164Z</time></trkpt><trkpt lat="37.5661367" lon="14.25781"><ele>649.0</ele><time>2026-05-05T13:09:36.164Z</time></trkpt><trkpt lat="37.5660383" lon="14.2578"><ele>649.0</ele><time>2026-05-05T13:09:37.164Z</time></trkpt><trkpt lat="37.565955" lon="14.2577967"><ele>649.0</ele><time>2026-05-05T13:09:38.164Z</time></trkpt><trkpt lat="37.5658917" lon="14.2577667"><ele>649.0</ele><time>2026-05-05T13:09:39.164Z</time></trkpt><trkpt lat="37.56586" lon="14.257645"><ele>649.0</ele><time>2026-05-05T13:09:41.164Z</time></trkpt><trkpt lat="37.5659917" lon="14.2575733"><ele>649.0</ele><time>2026-05-05T13:09:43.164Z</time></trkpt><trkpt lat="37.5661167" lon="14.2575567"><ele>649.0</ele><time>2026-05-05T13:09:44.164Z</time></trkpt><trkpt lat="37.566245" lon="14.2575167"><ele>649.0</ele><time>2026-05-05T13:09:45.164Z</time></trkpt><trkpt lat="37.5663717" lon="14.25746"><ele>649.0</ele><time>2026-05-05T13:09:46.164Z</time></trkpt><trkpt lat="37.5664883" lon="14.2574"><ele>649.0</ele><time>2026-05-05T13:09:47.164Z</time></trkpt><trkpt lat="37.566605" lon="14.2573367"><ele>649.0</ele><time>2026-05-05T13:09:48.164Z</time></trkpt><trkpt lat="37.5667117" lon="14.257275"><ele>645.4000000000001</ele><time>2026-05-05T13:09:49.164Z</time></trkpt><trkpt lat="37.5668117" lon="14.2572183"><ele>641.8000000000001</ele><time>2026-05-05T13:09:50.164Z</time></trkpt><trkpt lat="37.5668967" lon="14.2571567"><ele>638.2</ele><time>2026-05-05T13:09:51.164Z</time></trkpt><trkpt lat="37.5669583" lon="14.2570817"><ele>634.6</ele><time>2026-05-05T13:09:52.164Z</time></trkpt><trkpt lat="37.566995" lon="14.256985"><ele>631.0</ele><time>2026-05-05T13:09:53.164Z</time></trkpt><trkpt lat="37.5669933" lon="14.2568833"><ele>631.0</ele><time>2026-05-05T13:09:54.164Z</time></trkpt><trkpt lat="37.5669317" lon="14.2568033"><ele>631.0</ele><time>2026-05-05T13:09:55.165Z</time></trkpt><trkpt lat="37.566835" lon="14.2567533"><ele>631.0</ele><time>2026-05-05T13:09:56.164Z</time></trkpt><trkpt lat="37.56673" lon="14.2567367"><ele>631.0</ele><time>2026-05-05T13:09:57.164Z</time></trkpt><trkpt lat="37.5666" lon="14.2567517"><ele>631.0</ele><time>2026-05-05T13:09:58.164Z</time></trkpt><trkpt lat="37.5664717" lon="14.25677"><ele>631.0</ele><time>2026-05-05T13:09:59.164Z</time></trkpt><trkpt lat="37.5663483" lon="14.25678"><ele>631.0</ele><time>2026-05-05T13:10:00.164Z</time></trkpt><trkpt lat="37.5662367" lon="14.2567883"><ele>631.0</ele><time>2026-05-05T13:10:01.164Z</time></trkpt><trkpt lat="37.5661233" lon="14.25678"><ele>631.0</ele><time>2026-05-05T13:10:02.164Z</time></trkpt><trkpt lat="37.566005" lon="14.2567533"><ele>631.0</ele><time>2026-05-05T13:10:03.164Z</time></trkpt><trkpt lat="37.565885" lon="14.256695"><ele>631.0</ele><time>2026-05-05T13:10:04.164Z</time></trkpt><trkpt lat="37.56578" lon="14.256605"><ele>631.0</ele><time>2026-05-05T13:10:05.165Z</time></trkpt><trkpt lat="37.5656783" lon="14.2564933"><ele>631.0</ele><time>2026-05-05T13:10:06.165Z</time></trkpt><trkpt lat="37.5655783" lon="14.2563683"><ele>628.5</ele><time>2026-05-05T13:10:07.164Z</time></trkpt><trkpt lat="37.5654767" lon="14.2562467"><ele>626.0</ele><time>2026-05-05T13:10:08.164Z</time></trkpt><trkpt lat="37.5653833" lon="14.256135"><ele>623.5</ele><time>2026-05-05T13:10:09.164Z</time></trkpt><trkpt lat="37.5652917" lon="14.2560333"><ele>621.0</ele><time>2026-05-05T13:10:10.165Z</time></trkpt><trkpt lat="37.5652133" lon="14.2559417"><ele>621.0</ele><time>2026-05-05T13:10:11.165Z</time></trkpt><trkpt lat="37.5651467" lon="14.25587"><ele>621.0</ele><time>2026-05-05T13:10:12.164Z</time></trkpt><trkpt lat="37.5650933" lon="14.2558167"><ele>621.0</ele><time>2026-05-05T13:10:13.164Z</time></trkpt><trkpt lat="37.5650117" lon="14.2557183"><ele>621.0</ele><time>2026-05-05T13:10:15.164Z</time></trkpt><trkpt lat="37.564955" lon="14.2556533"><ele>621.0</ele><time>2026-05-05T13:10:17.165Z</time></trkpt><trkpt lat="37.564905" lon="14.2556"><ele>621.0</ele><time>2026-05-05T13:10:19.164Z</time></trkpt><trkpt lat="37.564845" lon="14.2555367"><ele>619.6</ele><time>2026-05-05T13:10:21.165Z</time></trkpt><trkpt lat="37.5647683" lon="14.2554533"><ele>618.2</ele><time>2026-05-05T13:10:23.164Z</time></trkpt><trkpt lat="37.5646633" lon="14.2553383"><ele>616.8</ele><time>2026-05-05T13:10:25.164Z</time></trkpt><trkpt lat="37.564595" lon="14.255265"><ele>615.4</ele><time>2026-05-05T13:10:26.164Z</time></trkpt><trkpt lat="37.56452" lon="14.2551917"><ele>614.0</ele><time>2026-05-05T13:10:27.164Z</time></trkpt><trkpt lat="37.564435" lon="14.255105"><ele>614.0</ele><time>2026-05-05T13:10:28.164Z</time></trkpt><trkpt lat="37.5643533" lon="14.2550133"><ele>614.0</ele><time>2026-05-05T13:10:29.164Z</time></trkpt><trkpt lat="37.56426" lon="14.254915"><ele>614.0</ele><time>2026-05-05T13:10:30.164Z</time></trkpt><trkpt lat="37.5641533" lon="14.2547933"><ele>614.0</ele><time>2026-05-05T13:10:31.164Z</time></trkpt><trkpt lat="37.5640583" lon="14.2546483"><ele>610.5</ele><time>2026-05-05T13:10:32.164Z</time></trkpt><trkpt lat="37.563985" lon="14.25449"><ele>607.0</ele><time>2026-05-05T13:10:33.164Z</time></trkpt><trkpt lat="37.5639467" lon="14.2543433"><ele>603.5</ele><time>2026-05-05T13:10:34.164Z</time></trkpt><trkpt lat="37.5639167" lon="14.2542067"><ele>600.0</ele><time>2026-05-05T13:10:35.164Z</time></trkpt><trkpt lat="37.5638983" lon="14.2540883"><ele>600.0</ele><time>2026-05-05T13:10:36.165Z</time></trkpt><trkpt lat="37.56388" lon="14.2539867"><ele>600.0</ele><time>2026-05-05T13:10:37.164Z</time></trkpt><trkpt lat="37.5638433" lon="14.25391"><ele>600.0</ele><time>2026-05-05T13:10:38.164Z</time></trkpt><trkpt lat="37.563765" lon="14.2538217"><ele>600.0</ele><time>2026-05-05T13:10:40.164Z</time></trkpt><trkpt lat="37.56371" lon="14.253865"><ele>600.0</ele><time>2026-05-05T13:30:35.163Z</time></trkpt><trkpt lat="37.5637833" lon="14.2538533"><ele>600.0</ele><time>2026-05-05T13:30:40.164Z</time></trkpt><trkpt lat="37.563845" lon="14.2538333"><ele>598.3333333333334</ele><time>2026-05-05T13:31:16.163Z</time></trkpt><trkpt lat="37.5638983" lon="14.25377"><ele>596.6666666666666</ele><time>2026-05-05T13:31:18.163Z</time></trkpt><trkpt lat="37.5639217" lon="14.2536917"><ele>595.0</ele><time>2026-05-05T13:31:19.163Z</time></trkpt><trkpt lat="37.56394" lon="14.2535967"><ele>593.3333333333333</ele><time>2026-05-05T13:31:20.163Z</time></trkpt><trkpt lat="37.56396" lon="14.253485"><ele>591.6666666666666</ele><time>2026-05-05T13:31:21.164Z</time></trkpt><trkpt lat="37.56398" lon="14.2533583"><ele>590.0</ele><time>2026-05-05T13:31:22.163Z</time></trkpt><trkpt lat="37.564005" lon="14.2532233"><ele>589.5</ele><time>2026-05-05T13:31:23.163Z</time></trkpt><trkpt lat="37.5640367" lon="14.2530783"><ele>589.0</ele><time>2026-05-05T13:31:24.163Z</time></trkpt><trkpt lat="37.5640633" lon="14.252915"><ele>588.5</ele><time>2026-05-05T13:31:25.163Z</time></trkpt><trkpt lat="37.5640967" lon="14.2527417"><ele>588.0</ele><time>2026-05-05T13:31:26.163Z</time></trkpt><trkpt lat="37.564125" lon="14.2525683"><ele>588.0</ele><time>2026-05-05T13:31:27.163Z</time></trkpt><trkpt lat="37.56415" lon="14.2523867"><ele>588.0</ele><time>2026-05-05T13:31:28.163Z</time></trkpt><trkpt lat="37.56418" lon="14.252215"><ele>588.0</ele><time>2026-05-05T13:31:29.163Z</time></trkpt><trkpt lat="37.564215" lon="14.252035"><ele>588.0</ele><time>2026-05-05T13:31:30.163Z</time></trkpt><trkpt lat="37.56424" lon="14.2518517"><ele>586.75</ele><time>2026-05-05T13:31:31.163Z</time></trkpt><trkpt lat="37.5642567" lon="14.2516717"><ele>585.5</ele><time>2026-05-05T13:31:32.163Z</time></trkpt><trkpt lat="37.56426" lon="14.2514883"><ele>584.25</ele><time>2026-05-05T13:31:33.163Z</time></trkpt><trkpt lat="37.56425" lon="14.2512983"><ele>583.0</ele><time>2026-05-05T13:31:34.163Z</time></trkpt><trkpt lat="37.564235" lon="14.2511183"><ele>583.0</ele><time>2026-05-05T13:31:35.163Z</time></trkpt><trkpt lat="37.5642133" lon="14.2509317"><ele>583.0</ele><time>2026-05-05T13:31:36.164Z</time></trkpt><trkpt lat="37.5641867" lon="14.25075"><ele>583.0</ele><time>2026-05-05T13:31:37.163Z</time></trkpt><trkpt lat="37.5641617" lon="14.2505667"><ele>583.0</ele><time>2026-05-05T13:31:38.163Z</time></trkpt><trkpt lat="37.5641383" lon="14.250385"><ele>584.3333333333334</ele><time>2026-05-05T13:31:39.163Z</time></trkpt><trkpt lat="37.5641167" lon="14.2501967"><ele>585.6666666666666</ele><time>2026-05-05T13:31:40.164Z</time></trkpt><trkpt lat="37.5641" lon="14.25001"><ele>587.0</ele><time>2026-05-05T13:31:41.163Z</time></trkpt><trkpt lat="37.56409" lon="14.24982"><ele>587.3333333333333</ele><time>2026-05-05T13:31:42.163Z</time></trkpt><trkpt lat="37.56408" lon="14.24962"><ele>587.6666666666666</ele><time>2026-05-05T13:31:43.163Z</time></trkpt><trkpt lat="37.5640767" lon="14.2494233"><ele>588.0</ele><time>2026-05-05T13:31:44.163Z</time></trkpt><trkpt lat="37.564075" lon="14.2492217"><ele>588.0</ele><time>2026-05-05T13:31:45.163Z</time></trkpt><trkpt lat="37.5640767" lon="14.2490183"><ele>588.0</ele><time>2026-05-05T13:31:46.163Z</time></trkpt><trkpt lat="37.56409" lon="14.2488117"><ele>588.0</ele><time>2026-05-05T13:31:47.163Z</time></trkpt><trkpt lat="37.5640967" lon="14.2486083"><ele>585.75</ele><time>2026-05-05T13:31:48.164Z</time></trkpt><trkpt lat="37.5641067" lon="14.2484183"><ele>583.5</ele><time>2026-05-05T13:31:49.164Z</time></trkpt><trkpt lat="37.56412" lon="14.248235"><ele>581.25</ele><time>2026-05-05T13:31:50.163Z</time></trkpt><trkpt lat="37.5641233" lon="14.2480467"><ele>579.0</ele><time>2026-05-05T13:31:51.164Z</time></trkpt><trkpt lat="37.56413" lon="14.2478517"><ele>576.3333333333334</ele><time>2026-05-05T13:31:52.163Z</time></trkpt><trkpt lat="37.564145" lon="14.2476567"><ele>573.6666666666667</ele><time>2026-05-05T13:31:53.163Z</time></trkpt><trkpt lat="37.5641383" lon="14.2474567"><ele>571.0</ele><time>2026-05-05T13:31:54.163Z</time></trkpt><trkpt lat="37.564125" lon="14.2472533"><ele>571.0</ele><time>2026-05-05T13:31:55.163Z</time></trkpt><trkpt lat="37.5640967" lon="14.2470467"><ele>571.0</ele><time>2026-05-05T13:31:56.163Z</time></trkpt><trkpt lat="37.564065" lon="14.2468467"><ele>571.0</ele><time>2026-05-05T13:31:57.163Z</time></trkpt><trkpt lat="37.5640167" lon="14.24664"><ele>569.6666666666667</ele><time>2026-05-05T13:31:58.163Z</time></trkpt><trkpt lat="37.5639733" lon="14.2464383"><ele>568.3333333333334</ele><time>2026-05-05T13:31:59.163Z</time></trkpt><trkpt lat="37.56393" lon="14.24624"><ele>567.0</ele><time>2026-05-05T13:32:00.163Z</time></trkpt><trkpt lat="37.5638917" lon="14.2460517"><ele>567.0</ele><time>2026-05-05T13:32:01.163Z</time></trkpt><trkpt lat="37.563855" lon="14.2458617"><ele>567.0</ele><time>2026-05-05T13:32:02.163Z</time></trkpt><trkpt lat="37.5638217" lon="14.2456733"><ele>567.0</ele><time>2026-05-05T13:32:03.163Z</time></trkpt><trkpt lat="37.56379" lon="14.2454767"><ele>566.0</ele><time>2026-05-05T13:32:04.163Z</time></trkpt><trkpt lat="37.5637683" lon="14.24528"><ele>565.0</ele><time>2026-05-05T13:32:05.163Z</time></trkpt><trkpt lat="37.5637567" lon="14.2450933"><ele>564.0</ele><time>2026-05-05T13:32:06.164Z</time></trkpt><trkpt lat="37.5637533" lon="14.244895"><ele>560.6666666666666</ele><time>2026-05-05T13:32:07.163Z</time></trkpt><trkpt lat="37.56375" lon="14.2447067"><ele>557.3333333333333</ele><time>2026-05-05T13:32:08.164Z</time></trkpt><trkpt lat="37.5637583" lon="14.2445183"><ele>554.0</ele><time>2026-05-05T13:32:09.163Z</time></trkpt><trkpt lat="37.56378" lon="14.2443267"><ele>554.0</ele><time>2026-05-05T13:32:10.163Z</time></trkpt><trkpt lat="37.56382" lon="14.24413"><ele>554.0</ele><time>2026-05-05T13:32:11.163Z</time></trkpt><trkpt lat="37.5638667" lon="14.2439383"><ele>554.0</ele><time>2026-05-05T13:32:12.163Z</time></trkpt><trkpt lat="37.5639133" lon="14.2437517"><ele>551.75</ele><time>2026-05-05T13:32:13.163Z</time></trkpt><trkpt lat="37.5639767" lon="14.24356"><ele>549.5</ele><time>2026-05-05T13:32:14.164Z</time></trkpt><trkpt lat="37.5640233" lon="14.2433883"><ele>547.25</ele><time>2026-05-05T13:32:15.163Z</time></trkpt><trkpt lat="37.56406" lon="14.2432217"><ele>545.0</ele><time>2026-05-05T13:32:16.163Z</time></trkpt><trkpt lat="37.5641033" lon="14.2430783"><ele>543.4</ele><time>2026-05-05T13:32:17.163Z</time></trkpt><trkpt lat="37.5641483" lon="14.2429633"><ele>541.8</ele><time>2026-05-05T13:32:18.163Z</time></trkpt><trkpt lat="37.5642017" lon="14.2428733"><ele>540.2</ele><time>2026-05-05T13:32:19.163Z</time></trkpt><trkpt lat="37.5642833" lon="14.2428233"><ele>538.6</ele><time>2026-05-05T13:32:20.163Z</time></trkpt><trkpt lat="37.5643633" lon="14.2428067"><ele>537.0</ele><time>2026-05-05T13:32:21.164Z</time></trkpt><trkpt lat="37.5644583" lon="14.2428433"><ele>536.75</ele><time>2026-05-05T13:32:22.163Z</time></trkpt><trkpt lat="37.5645567" lon="14.2429433"><ele>536.5</ele><time>2026-05-05T13:32:23.164Z</time></trkpt><trkpt lat="37.5646583" lon="14.2430833"><ele>536.25</ele><time>2026-05-05T13:32:24.163Z</time></trkpt><trkpt lat="37.564765" lon="14.2432217"><ele>536.0</ele><time>2026-05-05T13:32:25.163Z</time></trkpt><trkpt lat="37.56487" lon="14.24334"><ele>536.0</ele><time>2026-05-05T13:32:26.164Z</time></trkpt><trkpt lat="37.564985" lon="14.2434417"><ele>536.0</ele><time>2026-05-05T13:32:27.164Z</time></trkpt><trkpt lat="37.56509" lon="14.2435433"><ele>536.0</ele><time>2026-05-05T13:32:28.163Z</time></trkpt><trkpt lat="37.5651867" lon="14.24364"><ele>536.0</ele><time>2026-05-05T13:32:29.163Z</time></trkpt><trkpt lat="37.5652717" lon="14.2437317"><ele>536.0</ele><time>2026-05-05T13:32:30.163Z</time></trkpt><trkpt lat="37.5653517" lon="14.24382"><ele>536.0</ele><time>2026-05-05T13:32:31.163Z</time></trkpt><trkpt lat="37.5654283" lon="14.2439"><ele>536.0</ele><time>2026-05-05T13:32:32.163Z</time></trkpt><trkpt lat="37.5655083" lon="14.243965"><ele>536.0</ele><time>2026-05-05T13:32:33.163Z</time></trkpt><trkpt lat="37.56559" lon="14.2440017"><ele>536.0</ele><time>2026-05-05T13:32:34.163Z</time></trkpt><trkpt lat="37.5656667" lon="14.2439933"><ele>533.0</ele><time>2026-05-05T13:32:35.163Z</time></trkpt><trkpt lat="37.565725" lon="14.2439383"><ele>530.0</ele><time>2026-05-05T13:32:36.163Z</time></trkpt><trkpt lat="37.5657517" lon="14.2438417"><ele>527.0</ele><time>2026-05-05T13:32:37.164Z</time></trkpt><trkpt lat="37.5657433" lon="14.2437117"><ele>524.0</ele><time>2026-05-05T13:32:38.163Z</time></trkpt><trkpt lat="37.5657033" lon="14.2435417"><ele>521.0</ele><time>2026-05-05T13:32:39.163Z</time></trkpt><trkpt lat="37.56566" lon="14.2433483"><ele>521.0</ele><time>2026-05-05T13:32:40.163Z</time></trkpt><trkpt lat="37.5656417" lon="14.24316"><ele>521.0</ele><time>2026-05-05T13:32:41.163Z</time></trkpt><trkpt lat="37.5656167" lon="14.2429667"><ele>521.0</ele><time>2026-05-05T13:32:42.163Z</time></trkpt><trkpt lat="37.5655967" lon="14.24277"><ele>518.3333333333333</ele><time>2026-05-05T13:32:43.163Z</time></trkpt><trkpt lat="37.565575" lon="14.2425767"><ele>515.6666666666666</ele><time>2026-05-05T13:32:44.164Z</time></trkpt><trkpt lat="37.56556" lon="14.2423867"><ele>513.0</ele><time>2026-05-05T13:32:45.163Z</time></trkpt><trkpt lat="37.5655533" lon="14.242185"><ele>511.33333333333337</ele><time>2026-05-05T13:32:46.163Z</time></trkpt><trkpt lat="37.5655617" lon="14.2419867"><ele>509.6666666666667</ele><time>2026-05-05T13:32:47.163Z</time></trkpt><trkpt lat="37.5655817" lon="14.2417833"><ele>508.0</ele><time>2026-05-05T13:32:48.163Z</time></trkpt><trkpt lat="37.565615" lon="14.24158"><ele>506.0</ele><time>2026-05-05T13:32:49.163Z</time></trkpt><trkpt lat="37.5656467" lon="14.24138"><ele>504.0</ele><time>2026-05-05T13:32:50.163Z</time></trkpt><trkpt lat="37.56568" lon="14.2411833"><ele>502.0</ele><time>2026-05-05T13:32:51.163Z</time></trkpt><trkpt lat="37.565715" lon="14.2409967"><ele>502.0</ele><time>2026-05-05T13:32:52.163Z</time></trkpt><trkpt lat="37.5657417" lon="14.2408133"><ele>502.0</ele><time>2026-05-05T13:32:53.164Z</time></trkpt><trkpt lat="37.5657517" lon="14.2406267"><ele>502.0</ele><time>2026-05-05T13:32:54.163Z</time></trkpt><trkpt lat="37.5657383" lon="14.2404367"><ele>502.0</ele><time>2026-05-05T13:32:55.163Z</time></trkpt><trkpt lat="37.56571" lon="14.2402367"><ele>501.25</ele><time>2026-05-05T13:32:56.163Z</time></trkpt><trkpt lat="37.56567" lon="14.24005"><ele>500.5</ele><time>2026-05-05T13:32:57.163Z</time></trkpt><trkpt lat="37.5656333" lon="14.2398733"><ele>499.75</ele><time>2026-05-05T13:32:58.163Z</time></trkpt><trkpt lat="37.56558" lon="14.2396967"><ele>499.0</ele><time>2026-05-05T13:32:59.163Z</time></trkpt><trkpt lat="37.5655317" lon="14.23952"><ele>497.0</ele><time>2026-05-05T13:33:00.163Z</time></trkpt><trkpt lat="37.5655017" lon="14.2393283"><ele>495.0</ele><time>2026-05-05T13:33:01.164Z</time></trkpt><trkpt lat="37.565505" lon="14.2391283"><ele>493.0</ele><time>2026-05-05T13:33:02.164Z</time></trkpt><trkpt lat="37.56553" lon="14.2389267"><ele>493.0</ele><time>2026-05-05T13:33:03.164Z</time></trkpt><trkpt lat="37.565565" lon="14.2387217"><ele>493.0</ele><time>2026-05-05T13:33:04.163Z</time></trkpt><trkpt lat="37.565595" lon="14.2385117"><ele>493.0</ele><time>2026-05-05T13:33:05.164Z</time></trkpt><trkpt lat="37.5656283" lon="14.2382983"><ele>491.33333333333337</ele><time>2026-05-05T13:33:06.164Z</time></trkpt><trkpt lat="37.5656583" lon="14.2380883"><ele>489.66666666666663</ele><time>2026-05-05T13:33:07.164Z</time></trkpt><trkpt lat="37.5656933" lon="14.23788"><ele>488.0</ele><time>2026-05-05T13:33:08.163Z</time></trkpt><trkpt lat="37.5657233" lon="14.2376717"><ele>488.0</ele><time>2026-05-05T13:33:09.163Z</time></trkpt><trkpt lat="37.56576" lon="14.237465"><ele>488.0</ele><time>2026-05-05T13:33:10.163Z</time></trkpt><trkpt lat="37.5657983" lon="14.2372567"><ele>488.0</ele><time>2026-05-05T13:33:11.163Z</time></trkpt><trkpt lat="37.5658433" lon="14.2370517"><ele>486.0</ele><time>2026-05-05T13:33:12.163Z</time></trkpt><trkpt lat="37.5658883" lon="14.236855"><ele>484.0</ele><time>2026-05-05T13:33:13.163Z</time></trkpt><trkpt lat="37.5659317" lon="14.2366667"><ele>482.0</ele><time>2026-05-05T13:33:14.164Z</time></trkpt><trkpt lat="37.5659783" lon="14.2364783"><ele>480.66666666666663</ele><time>2026-05-05T13:33:15.163Z</time></trkpt><trkpt lat="37.566015" lon="14.2362767"><ele>479.33333333333337</ele><time>2026-05-05T13:33:16.163Z</time></trkpt><trkpt lat="37.566055" lon="14.23608"><ele>478.0</ele><time>2026-05-05T13:33:17.163Z</time></trkpt><trkpt lat="37.56608" lon="14.2358717"><ele>478.0</ele><time>2026-05-05T13:33:18.163Z</time></trkpt><trkpt lat="37.5660983" lon="14.2356667"><ele>478.0</ele><time>2026-05-05T13:33:19.163Z</time></trkpt><trkpt lat="37.5661" lon="14.23546"><ele>478.0</ele><time>2026-05-05T13:33:20.163Z</time></trkpt><trkpt lat="37.566105" lon="14.2352617"><ele>477.25</ele><time>2026-05-05T13:33:21.164Z</time></trkpt><trkpt lat="37.56611" lon="14.2350683"><ele>476.5</ele><time>2026-05-05T13:33:22.163Z</time></trkpt><trkpt lat="37.5661083" lon="14.2348933"><ele>475.75</ele><time>2026-05-05T13:33:23.163Z</time></trkpt><trkpt lat="37.5661133" lon="14.2347267"><ele>475.0</ele><time>2026-05-05T13:33:24.163Z</time></trkpt><trkpt lat="37.5661117" lon="14.23457"><ele>472.5</ele><time>2026-05-05T13:33:25.163Z</time></trkpt><trkpt lat="37.5660833" lon="14.234425"><ele>470.0</ele><time>2026-05-05T13:33:26.164Z</time></trkpt><trkpt lat="37.566025" lon="14.2342917"><ele>467.5</ele><time>2026-05-05T13:33:27.163Z</time></trkpt><trkpt lat="37.5659367" lon="14.2341833"><ele>465.0</ele><time>2026-05-05T13:33:28.163Z</time></trkpt><trkpt lat="37.5658167" lon="14.2341133"><ele>465.0</ele><time>2026-05-05T13:33:29.163Z</time></trkpt><trkpt lat="37.5656867" lon="14.2340617"><ele>465.0</ele><time>2026-05-05T13:33:30.163Z</time></trkpt><trkpt lat="37.56555" lon="14.234025"><ele>465.0</ele><time>2026-05-05T13:33:31.163Z</time></trkpt><trkpt lat="37.565405" lon="14.2340033"><ele>465.0</ele><time>2026-05-05T13:33:32.163Z</time></trkpt><trkpt lat="37.5652583" lon="14.2340333"><ele>462.66666666666663</ele><time>2026-05-05T13:33:33.163Z</time></trkpt><trkpt lat="37.5651117" lon="14.234105"><ele>460.3333333333333</ele><time>2026-05-05T13:33:34.163Z</time></trkpt><trkpt lat="37.5649717" lon="14.2342067"><ele>458.0</ele><time>2026-05-05T13:33:35.163Z</time></trkpt><trkpt lat="37.5648433" lon="14.234335"><ele>458.0</ele><time>2026-05-05T13:33:36.163Z</time></trkpt><trkpt lat="37.5647183" lon="14.2344667"><ele>458.0</ele><time>2026-05-05T13:33:37.163Z</time></trkpt><trkpt lat="37.5645983" lon="14.2346"><ele>458.0</ele><time>2026-05-05T13:33:38.163Z</time></trkpt><trkpt lat="37.5644733" lon="14.2347317"><ele>455.0</ele><time>2026-05-05T13:33:39.163Z</time></trkpt><trkpt lat="37.5643433" lon="14.2348433"><ele>452.0</ele><time>2026-05-05T13:33:40.163Z</time></trkpt><trkpt lat="37.564215" lon="14.2349533"><ele>449.0</ele><time>2026-05-05T13:33:41.164Z</time></trkpt><trkpt lat="37.5640933" lon="14.2350583"><ele>449.0</ele><time>2026-05-05T13:33:42.163Z</time></trkpt><trkpt lat="37.5639833" lon="14.235155"><ele>449.0</ele><time>2026-05-05T13:33:43.163Z</time></trkpt><trkpt lat="37.5638817" lon="14.23524"><ele>449.0</ele><time>2026-05-05T13:33:44.163Z</time></trkpt><trkpt lat="37.5637867" lon="14.2353117"><ele>449.0</ele><time>2026-05-05T13:33:45.163Z</time></trkpt><trkpt lat="37.5637017" lon="14.23536"><ele>446.49999999999994</ele><time>2026-05-05T13:33:46.163Z</time></trkpt><trkpt lat="37.563615" lon="14.23538"><ele>444.0</ele><time>2026-05-05T13:33:47.163Z</time></trkpt><trkpt lat="37.5635283" lon="14.235355"><ele>441.5</ele><time>2026-05-05T13:33:48.163Z</time></trkpt><trkpt lat="37.5634633" lon="14.2352817"><ele>439.0</ele><time>2026-05-05T13:33:49.164Z</time></trkpt><trkpt lat="37.5634433" lon="14.2351767"><ele>436.49999999999994</ele><time>2026-05-05T13:33:50.163Z</time></trkpt><trkpt lat="37.5634617" lon="14.2350583"><ele>434.0</ele><time>2026-05-05T13:33:51.163Z</time></trkpt><trkpt lat="37.5635167" lon="14.2349117"><ele>434.5</ele><time>2026-05-05T13:33:52.164Z</time></trkpt><trkpt lat="37.563585" lon="14.234745"><ele>435.0</ele><time>2026-05-05T13:33:53.164Z</time></trkpt><trkpt lat="37.5636467" lon="14.2345767"><ele>435.5</ele><time>2026-05-05T13:33:54.164Z</time></trkpt><trkpt lat="37.56371" lon="14.2344"><ele>436.0</ele><time>2026-05-05T13:33:55.163Z</time></trkpt><trkpt lat="37.5637733" lon="14.23421"><ele>436.0</ele><time>2026-05-05T13:33:56.163Z</time></trkpt><trkpt lat="37.5638333" lon="14.2340083"><ele>436.0</ele><time>2026-05-05T13:33:57.163Z</time></trkpt><trkpt lat="37.5638967" lon="14.2338017"><ele>436.0</ele><time>2026-05-05T13:33:58.163Z</time></trkpt><trkpt lat="37.563965" lon="14.2335967"><ele>433.33333333333337</ele><time>2026-05-05T13:33:59.163Z</time></trkpt><trkpt lat="37.5640283" lon="14.23339"><ele>430.66666666666663</ele><time>2026-05-05T13:34:00.163Z</time></trkpt><trkpt lat="37.5640967" lon="14.23318"><ele>428.0</ele><time>2026-05-05T13:34:01.163Z</time></trkpt><trkpt lat="37.5641583" lon="14.23298"><ele>425.0</ele><time>2026-05-05T13:34:02.163Z</time></trkpt><trkpt lat="37.564225" lon="14.232775"><ele>422.0</ele><time>2026-05-05T13:34:03.163Z</time></trkpt><trkpt lat="37.5642867" lon="14.23258"><ele>419.0</ele><time>2026-05-05T13:34:04.163Z</time></trkpt><trkpt lat="37.564345" lon="14.2323917"><ele>418.75</ele><time>2026-05-05T13:34:05.163Z</time></trkpt><trkpt lat="37.5644033" lon="14.2322183"><ele>418.5</ele><time>2026-05-05T13:34:06.163Z</time></trkpt><trkpt lat="37.5644667" lon="14.2320433"><ele>418.25</ele><time>2026-05-05T13:34:07.163Z</time></trkpt><trkpt lat="37.56453" lon="14.2318767"><ele>418.0</ele><time>2026-05-05T13:34:08.163Z</time></trkpt><trkpt lat="37.5646083" lon="14.2317033"><ele>418.0</ele><time>2026-05-05T13:34:09.164Z</time></trkpt><trkpt lat="37.5646933" lon="14.2315367"><ele>418.0</ele><time>2026-05-05T13:34:10.163Z</time></trkpt><trkpt lat="37.564785" lon="14.2313817"><ele>418.0</ele><time>2026-05-05T13:34:11.163Z</time></trkpt><trkpt lat="37.5648833" lon="14.23123"><ele>415.5</ele><time>2026-05-05T13:34:12.163Z</time></trkpt><trkpt lat="37.5649783" lon="14.2310867"><ele>413.0</ele><time>2026-05-05T13:34:13.164Z</time></trkpt><trkpt lat="37.5650667" lon="14.230945"><ele>410.5</ele><time>2026-05-05T13:34:14.163Z</time></trkpt><trkpt lat="37.5651417" lon="14.2308"><ele>408.0</ele><time>2026-05-05T13:34:15.163Z</time></trkpt><trkpt lat="37.5651917" lon="14.2306367"><ele>407.33333333333337</ele><time>2026-05-05T13:34:16.163Z</time></trkpt><trkpt lat="37.5651983" lon="14.2304483"><ele>406.6666666666667</ele><time>2026-05-05T13:34:17.163Z</time></trkpt><trkpt lat="37.5651817" lon="14.2302567"><ele>406.0</ele><time>2026-05-05T13:34:18.163Z</time></trkpt><trkpt lat="37.5651467" lon="14.23006"><ele>406.0</ele><time>2026-05-05T13:34:19.163Z</time></trkpt><trkpt lat="37.5651167" lon="14.2298567"><ele>406.0</ele><time>2026-05-05T13:34:20.163Z</time></trkpt><trkpt lat="37.56509" lon="14.2296567"><ele>406.0</ele><time>2026-05-05T13:34:21.163Z</time></trkpt><trkpt lat="37.5650617" lon="14.2294683"><ele>406.0</ele><time>2026-05-05T13:34:22.163Z</time></trkpt><trkpt lat="37.56503" lon="14.2292917"><ele>406.0</ele><time>2026-05-05T13:34:23.163Z</time></trkpt><trkpt lat="37.5649817" lon="14.2291267"><ele>406.0</ele><time>2026-05-05T13:34:24.163Z</time></trkpt><trkpt lat="37.5649017" lon="14.2289817"><ele>406.0</ele><time>2026-05-05T13:34:25.163Z</time></trkpt><trkpt lat="37.564815" lon="14.2288633"><ele>407.0</ele><time>2026-05-05T13:34:26.163Z</time></trkpt><trkpt lat="37.5647367" lon="14.22874"><ele>408.0</ele><time>2026-05-05T13:34:27.163Z</time></trkpt><trkpt lat="37.5646867" lon="14.2285983"><ele>409.0</ele><time>2026-05-05T13:34:28.163Z</time></trkpt><trkpt lat="37.5646767" lon="14.22843"><ele>410.0</ele><time>2026-05-05T13:34:29.163Z</time></trkpt><trkpt lat="37.5646883" lon="14.228255"><ele>410.25</ele><time>2026-05-05T13:34:30.164Z</time></trkpt><trkpt lat="37.5647" lon="14.2280733"><ele>410.5</ele><time>2026-05-05T13:34:31.163Z</time></trkpt><trkpt lat="37.5647083" lon="14.2278983"><ele>410.75</ele><time>2026-05-05T13:34:32.164Z</time></trkpt><trkpt lat="37.564715" lon="14.227735"><ele>411.0</ele><time>2026-05-05T13:34:33.164Z</time></trkpt><trkpt lat="37.5647183" lon="14.22759"><ele>411.0</ele><time>2026-05-05T13:34:34.164Z</time></trkpt><trkpt lat="37.5647183" lon="14.2274633"><ele>411.0</ele><time>2026-05-05T13:34:35.163Z</time></trkpt><trkpt lat="37.56472" lon="14.2273617"><ele>411.0</ele><time>2026-05-05T13:34:36.163Z</time></trkpt><trkpt lat="37.5647167" lon="14.2272333"><ele>411.0</ele><time>2026-05-05T13:34:38.163Z</time></trkpt><trkpt lat="37.5647133" lon="14.2271267"><ele>411.0</ele><time>2026-05-05T13:35:57.163Z</time></trkpt><trkpt lat="37.5647033" lon="14.2269383"><ele>410.66666666666663</ele><time>2026-05-05T13:35:59.163Z</time></trkpt><trkpt lat="37.5646967" lon="14.226755"><ele>410.3333333333333</ele><time>2026-05-05T13:36:00.163Z</time></trkpt><trkpt lat="37.56469" lon="14.22648"><ele>410.0</ele><time>2026-05-05T13:36:01.163Z</time></trkpt><trkpt lat="37.5646767" lon="14.226145"><ele>410.0</ele><time>2026-05-05T13:36:02.163Z</time></trkpt><trkpt lat="37.5646517" lon="14.2258183"><ele>410.0</ele><time>2026-05-05T13:36:03.163Z</time></trkpt><trkpt lat="37.5646317" lon="14.22552"><ele>411.0</ele><time>2026-05-05T13:36:04.164Z</time></trkpt><trkpt lat="37.5646133" lon="14.2252567"><ele>412.0</ele><time>2026-05-05T13:36:05.163Z</time></trkpt><trkpt lat="37.564585" lon="14.2250133"><ele>413.0</ele><time>2026-05-05T13:36:06.164Z</time></trkpt><trkpt lat="37.5645467" lon="14.2247867"><ele>408.0</ele><time>2026-05-05T13:36:07.163Z</time></trkpt><trkpt lat="37.5645083" lon="14.2245833"><ele>403.0</ele><time>2026-05-05T13:36:08.163Z</time></trkpt><trkpt lat="37.5644717" lon="14.2243817"><ele>398.0</ele><time>2026-05-05T13:36:09.163Z</time></trkpt><trkpt lat="37.5644333" lon="14.22419"><ele>398.0</ele><time>2026-05-05T13:36:10.163Z</time></trkpt><trkpt lat="37.564395" lon="14.2240117"><ele>398.0</ele><time>2026-05-05T13:36:11.163Z</time></trkpt><trkpt lat="37.56436" lon="14.2238367"><ele>398.0</ele><time>2026-05-05T13:36:12.163Z</time></trkpt><trkpt lat="37.56432" lon="14.22368"><ele>398.0</ele><time>2026-05-05T13:36:13.163Z</time></trkpt><trkpt lat="37.5642917" lon="14.22353"><ele>398.4</ele><time>2026-05-05T13:36:14.163Z</time></trkpt><trkpt lat="37.56426" lon="14.2233983"><ele>398.79999999999995</ele><time>2026-05-05T13:36:15.164Z</time></trkpt><trkpt lat="37.5642333" lon="14.2232767"><ele>399.2</ele><time>2026-05-05T13:36:16.163Z</time></trkpt><trkpt lat="37.56421" lon="14.22318"><ele>399.6</ele><time>2026-05-05T13:36:17.163Z</time></trkpt><trkpt lat="37.5642033" lon="14.2230533"><ele>400.0</ele><time>2026-05-05T13:36:19.163Z</time></trkpt><trkpt lat="37.5642717" lon="14.222975"><ele>401.0</ele><time>2026-05-05T13:36:22.163Z</time></trkpt><trkpt lat="37.564375" lon="14.2229733"><ele>402.0</ele><time>2026-05-05T13:36:24.164Z</time></trkpt><trkpt lat="37.5644583" lon="14.2229767"><ele>403.0</ele><time>2026-05-05T13:36:25.163Z</time></trkpt><trkpt lat="37.5645567" lon="14.22298"><ele>404.0</ele><time>2026-05-05T13:36:26.163Z</time></trkpt><trkpt lat="37.56466" lon="14.2229783"><ele>405.0</ele><time>2026-05-05T13:36:27.163Z</time></trkpt><trkpt lat="37.5647717" lon="14.22298"><ele>406.25</ele><time>2026-05-05T13:36:28.164Z</time></trkpt><trkpt lat="37.564885" lon="14.22298"><ele>407.5</ele><time>2026-05-05T13:36:29.163Z</time></trkpt><trkpt lat="37.5650033" lon="14.222985"><ele>408.75</ele><time>2026-05-05T13:36:30.163Z</time></trkpt><trkpt lat="37.5651217" lon="14.2229783"><ele>410.0</ele><time>2026-05-05T13:36:31.163Z</time></trkpt><trkpt lat="37.5652367" lon="14.2229767"><ele>410.0</ele><time>2026-05-05T13:36:32.163Z</time></trkpt><trkpt lat="37.5653483" lon="14.2229767"><ele>410.0</ele><time>2026-05-05T13:36:33.163Z</time></trkpt><trkpt lat="37.5654567" lon="14.22298"><ele>410.0</ele><time>2026-05-05T13:36:34.163Z</time></trkpt><trkpt lat="37.5655483" lon="14.22299"><ele>410.0</ele><time>2026-05-05T13:36:35.163Z</time></trkpt><trkpt lat="37.5656383" lon="14.2230117"><ele>410.0</ele><time>2026-05-05T13:36:36.163Z</time></trkpt><trkpt lat="37.5657267" lon="14.2230517"><ele>411.4</ele><time>2026-05-05T13:36:37.163Z</time></trkpt><trkpt lat="37.5658017" lon="14.2231033"><ele>412.8</ele><time>2026-05-05T13:36:38.163Z</time></trkpt><trkpt lat="37.565875" lon="14.223165"><ele>414.20000000000005</ele><time>2026-05-05T13:36:39.163Z</time></trkpt><trkpt lat="37.5659467" lon="14.22323"><ele>415.6</ele><time>2026-05-05T13:36:40.163Z</time></trkpt><trkpt lat="37.566015" lon="14.2233183"><ele>417.0</ele><time>2026-05-05T13:36:41.163Z</time></trkpt><trkpt lat="37.5660633" lon="14.2234267"><ele>417.0</ele><time>2026-05-05T13:36:42.163Z</time></trkpt><trkpt lat="37.5661133" lon="14.2235433"><ele>417.0</ele><time>2026-05-05T13:36:43.164Z</time></trkpt><trkpt lat="37.5661617" lon="14.2236767"><ele>417.0</ele><time>2026-05-05T13:36:44.163Z</time></trkpt><trkpt lat="37.5662117" lon="14.2238117"><ele>417.0</ele><time>2026-05-05T13:36:45.163Z</time></trkpt><trkpt lat="37.56627" lon="14.223965"><ele>418.5</ele><time>2026-05-05T13:36:46.163Z</time></trkpt><trkpt lat="37.56633" lon="14.2241283"><ele>420.0</ele><time>2026-05-05T13:36:47.163Z</time></trkpt><trkpt lat="37.5663883" lon="14.224295"><ele>421.5</ele><time>2026-05-05T13:36:48.163Z</time></trkpt><trkpt lat="37.5664417" lon="14.224465"><ele>423.0</ele><time>2026-05-05T13:36:49.163Z</time></trkpt><trkpt lat="37.5665033" lon="14.22464"><ele>423.0</ele><time>2026-05-05T13:36:50.163Z</time></trkpt><trkpt lat="37.5665583" lon="14.2248033"><ele>423.0</ele><time>2026-05-05T13:36:51.163Z</time></trkpt><trkpt lat="37.56662" lon="14.22496"><ele>423.0</ele><time>2026-05-05T13:36:52.163Z</time></trkpt><trkpt lat="37.5666733" lon="14.225115"><ele>423.0</ele><time>2026-05-05T13:36:53.163Z</time></trkpt><trkpt lat="37.5667233" lon="14.2252533"><ele>424.59999999999997</ele><time>2026-05-05T13:36:54.163Z</time></trkpt><trkpt lat="37.5667767" lon="14.2253817"><ele>426.2</ele><time>2026-05-05T13:36:55.163Z</time></trkpt><trkpt lat="37.5668433" lon="14.22548"><ele>427.8</ele><time>2026-05-05T13:36:56.163Z</time></trkpt><trkpt lat="37.5669283" lon="14.2255617"><ele>429.4</ele><time>2026-05-05T13:36:57.163Z</time></trkpt><trkpt lat="37.5670217" lon="14.225645"><ele>431.0</ele><time>2026-05-05T13:36:58.163Z</time></trkpt><trkpt lat="37.567115" lon="14.225725"><ele>434.25</ele><time>2026-05-05T13:36:59.163Z</time></trkpt><trkpt lat="37.5672167" lon="14.2258233"><ele>437.5</ele><time>2026-05-05T13:37:00.163Z</time></trkpt><trkpt lat="37.5673217" lon="14.225905"><ele>440.75</ele><time>2026-05-05T13:37:01.163Z</time></trkpt><trkpt lat="37.56743" lon="14.225985"><ele>444.0</ele><time>2026-05-05T13:37:02.163Z</time></trkpt><trkpt lat="37.5675517" lon="14.2260717"><ele>444.0</ele><time>2026-05-05T13:37:03.163Z</time></trkpt><trkpt lat="37.5676683" lon="14.226145"><ele>444.0</ele><time>2026-05-05T13:37:04.163Z</time></trkpt><trkpt lat="37.5677733" lon="14.2262217"><ele>444.0</ele><time>2026-05-05T13:37:05.163Z</time></trkpt><trkpt lat="37.5678683" lon="14.226295"><ele>444.0</ele><time>2026-05-05T13:37:06.163Z</time></trkpt><trkpt lat="37.5679517" lon="14.2263617"><ele>443.8333333333333</ele><time>2026-05-05T13:37:07.163Z</time></trkpt><trkpt lat="37.5680183" lon="14.2264183"><ele>443.66666666666663</ele><time>2026-05-05T13:37:08.163Z</time></trkpt><trkpt lat="37.5680783" lon="14.226465"><ele>443.5</ele><time>2026-05-05T13:37:09.163Z</time></trkpt><trkpt lat="37.5681367" lon="14.2265017"><ele>443.3333333333333</ele><time>2026-05-05T13:37:10.163Z</time></trkpt><trkpt lat="37.56824" lon="14.2265433"><ele>443.16666666666663</ele><time>2026-05-05T13:37:12.163Z</time></trkpt><trkpt lat="37.5683433" lon="14.226545"><ele>443.0</ele><time>2026-05-05T13:37:14.163Z</time></trkpt><trkpt lat="37.5684667" lon="14.2265117"><ele>443.0</ele><time>2026-05-05T13:37:16.164Z</time></trkpt><trkpt lat="37.5685867" lon="14.2264767"><ele>442.99999999999994</ele><time>2026-05-05T13:37:18.163Z</time></trkpt><trkpt lat="37.5686967" lon="14.22647"><ele>442.99999999999994</ele><time>2026-05-05T13:37:20.163Z</time></trkpt><trkpt lat="37.5687833" lon="14.2265067"><ele>443.0</ele><time>2026-05-05T13:37:22.163Z</time></trkpt><trkpt lat="37.56882" lon="14.2266217"><ele>443.0</ele><time>2026-05-05T13:37:24.163Z</time></trkpt><trkpt lat="37.568805" lon="14.22679"><ele>445.3333333333333</ele><time>2026-05-05T13:37:26.163Z</time></trkpt><trkpt lat="37.5687967" lon="14.22689"><ele>447.66666666666663</ele><time>2026-05-05T13:37:27.163Z</time></trkpt><trkpt lat="37.5687867" lon="14.2269933"><ele>450.0</ele><time>2026-05-05T13:37:28.163Z</time></trkpt><trkpt lat="37.568775" lon="14.2271067"><ele>452.33333333333337</ele><time>2026-05-05T13:37:29.163Z</time></trkpt><trkpt lat="37.56876" lon="14.2272283"><ele>454.6666666666667</ele><time>2026-05-05T13:37:30.163Z</time></trkpt><trkpt lat="37.5687483" lon="14.22735"><ele>457.0</ele><time>2026-05-05T13:37:31.163Z</time></trkpt><trkpt lat="37.5687317" lon="14.22748"><ele>458.0</ele><time>2026-05-05T13:37:32.163Z</time></trkpt><trkpt lat="37.568715" lon="14.22761"><ele>459.00000000000006</ele><time>2026-05-05T13:37:33.163Z</time></trkpt><trkpt lat="37.5686983" lon="14.227745"><ele>460.00000000000006</ele><time>2026-05-05T13:37:34.163Z</time></trkpt><trkpt lat="37.5686933" lon="14.2278867"><ele>461.0</ele><time>2026-05-05T13:37:35.163Z</time></trkpt><trkpt lat="37.5686983" lon="14.2280183"><ele>462.0</ele><time>2026-05-05T13:37:36.163Z</time></trkpt><trkpt lat="37.5687117" lon="14.22813"><ele>462.8333333333333</ele><time>2026-05-05T13:37:37.163Z</time></trkpt><trkpt lat="37.5687183" lon="14.228235"><ele>463.66666666666663</ele><time>2026-05-05T13:37:38.163Z</time></trkpt><trkpt lat="37.568695" lon="14.2283733"><ele>464.5</ele><time>2026-05-05T13:37:40.163Z</time></trkpt><trkpt lat="37.56863" lon="14.2283983"><ele>465.3333333333333</ele><time>2026-05-05T13:37:42.164Z</time></trkpt><trkpt lat="37.5685367" lon="14.2283167"><ele>466.16666666666663</ele><time>2026-05-05T13:37:44.163Z</time></trkpt><trkpt lat="37.5685067" lon="14.2282383"><ele>467.0</ele><time>2026-05-05T13:37:45.163Z</time></trkpt><trkpt lat="37.5684883" lon="14.2281567"><ele>466.71428571428567</ele><time>2026-05-05T13:37:46.163Z</time></trkpt><trkpt lat="37.568465" lon="14.22807"><ele>466.42857142857144</ele><time>2026-05-05T13:37:47.164Z</time></trkpt><trkpt lat="37.56844" lon="14.227995"><ele>466.1428571428571</ele><time>2026-05-05T13:37:48.163Z</time></trkpt><trkpt lat="37.5683967" lon="14.2278883"><ele>465.85714285714283</ele><time>2026-05-05T13:37:50.163Z</time></trkpt><trkpt lat="37.5683517" lon="14.2278233"><ele>465.57142857142856</ele><time>2026-05-05T13:38:02.164Z</time></trkpt><trkpt lat="37.5683183" lon="14.2277333"><ele>465.2857142857143</ele><time>2026-05-05T13:38:04.163Z</time></trkpt><trkpt lat="37.568295" lon="14.2276583"><ele>465.0</ele><time>2026-05-05T13:38:05.163Z</time></trkpt><trkpt lat="37.56826" lon="14.2275767"><ele>465.0</ele><time>2026-05-05T13:38:06.163Z</time></trkpt><trkpt lat="37.5682117" lon="14.227505"><ele>465.0</ele><time>2026-05-05T13:38:07.163Z</time></trkpt><trkpt lat="37.5681433" lon="14.227465"><ele>465.0</ele><time>2026-05-05T13:38:08.164Z</time></trkpt><trkpt lat="37.56802" lon="14.22748"><ele>465.0</ele><time>2026-05-05T13:38:10.163Z</time></trkpt><trkpt lat="37.567895" lon="14.2274033"><ele>465.0</ele><time>2026-05-05T13:38:12.163Z</time></trkpt><trkpt lat="37.5678333" lon="14.2273233"><ele>464.0</ele><time>2026-05-05T13:38:13.163Z</time></trkpt><trkpt lat="37.567765" lon="14.2272367"><ele>463.0</ele><time>2026-05-05T13:38:14.163Z</time></trkpt><trkpt lat="37.5676933" lon="14.227165"><ele>462.0</ele><time>2026-05-05T13:38:15.163Z</time></trkpt><trkpt lat="37.5676333" lon="14.2271033"><ele>461.0</ele><time>2026-05-05T13:38:16.163Z</time></trkpt><trkpt lat="37.56759" lon="14.22704"><ele>460.0</ele><time>2026-05-05T13:38:17.163Z</time></trkpt><trkpt lat="37.5675483" lon="14.2269717"><ele>459.0</ele><time>2026-05-05T13:38:18.163Z</time></trkpt><trkpt lat="37.5675083" lon="14.226885"><ele>459.0</ele><time>2026-05-05T13:38:19.163Z</time></trkpt><trkpt lat="37.5674567" lon="14.2267667"><ele>459.0</ele><time>2026-05-05T13:38:20.163Z</time></trkpt><trkpt lat="37.5673967" lon="14.226625"><ele>459.0</ele><time>2026-05-05T13:38:21.162Z</time></trkpt><trkpt lat="37.5673267" lon="14.2264633"><ele>459.0</ele><time>2026-05-05T13:38:22.162Z</time></trkpt><trkpt lat="37.5672567" lon="14.2262883"><ele>454.0</ele><time>2026-05-05T13:38:23.162Z</time></trkpt><trkpt lat="37.5671883" lon="14.226095"><ele>449.0</ele><time>2026-05-05T13:38:24.162Z</time></trkpt><trkpt lat="37.567115" lon="14.225895"><ele>444.0</ele><time>2026-05-05T13:38:25.163Z</time></trkpt><trkpt lat="37.5670467" lon="14.2256917"><ele>439.66666666666663</ele><time>2026-05-05T13:38:26.162Z</time></trkpt><trkpt lat="37.5669767" lon="14.225485"><ele>435.3333333333333</ele><time>2026-05-05T13:38:27.162Z</time></trkpt><trkpt lat="37.5668967" lon="14.2252717"><ele>431.0</ele><time>2026-05-05T13:38:28.162Z</time></trkpt><trkpt lat="37.5668133" lon="14.2250517"><ele>431.0</ele><time>2026-05-05T13:38:29.162Z</time></trkpt><trkpt lat="37.5667317" lon="14.224825"><ele>431.0</ele><time>2026-05-05T13:38:30.162Z</time></trkpt><trkpt lat="37.5666533" lon="14.224595"><ele>431.0</ele><time>2026-05-05T13:38:31.162Z</time></trkpt><trkpt lat="37.566565" lon="14.2243583"><ele>428.3333333333333</ele><time>2026-05-05T13:38:32.162Z</time></trkpt><trkpt lat="37.56648" lon="14.22413"><ele>425.66666666666663</ele><time>2026-05-05T13:38:33.162Z</time></trkpt><trkpt lat="37.5663917" lon="14.2238983"><ele>423.0</ele><time>2026-05-05T13:38:34.162Z</time></trkpt><trkpt lat="37.56631" lon="14.2236617"><ele>423.0</ele><time>2026-05-05T13:38:35.162Z</time></trkpt><trkpt lat="37.5662233" lon="14.2234267"><ele>423.0</ele><time>2026-05-05T13:38:36.162Z</time></trkpt><trkpt lat="37.566135" lon="14.2231867"><ele>423.0</ele><time>2026-05-05T13:38:37.162Z</time></trkpt><trkpt lat="37.566045" lon="14.2229433"><ele>421.66666666666663</ele><time>2026-05-05T13:38:38.162Z</time></trkpt><trkpt lat="37.56596" lon="14.2226967"><ele>420.3333333333333</ele><time>2026-05-05T13:38:39.162Z</time></trkpt><trkpt lat="37.5658717" lon="14.22245"><ele>419.0</ele><time>2026-05-05T13:38:40.162Z</time></trkpt><trkpt lat="37.5657817" lon="14.2222017"><ele>419.0</ele><time>2026-05-05T13:38:41.162Z</time></trkpt><trkpt lat="37.5656883" lon="14.2219517"><ele>419.0</ele><time>2026-05-05T13:38:42.162Z</time></trkpt><trkpt lat="37.5655983" lon="14.2216917"><ele>419.0</ele><time>2026-05-05T13:38:43.163Z</time></trkpt><trkpt lat="37.5655033" lon="14.2214317"><ele>419.5</ele><time>2026-05-05T13:38:44.162Z</time></trkpt><trkpt lat="37.56541" lon="14.22117"><ele>420.0</ele><time>2026-05-05T13:38:45.162Z</time></trkpt><trkpt lat="37.5653183" lon="14.2209133"><ele>421.0</ele><time>2026-05-05T13:38:46.163Z</time></trkpt><trkpt lat="37.56523" lon="14.2206483"><ele>422.0</ele><time>2026-05-05T13:38:47.162Z</time></trkpt><trkpt lat="37.5651383" lon="14.22039"><ele>422.0</ele><time>2026-05-05T13:38:48.162Z</time></trkpt><trkpt lat="37.5650417" lon="14.2201317"><ele>422.0</ele><time>2026-05-05T13:38:49.162Z</time></trkpt><trkpt lat="37.5649467" lon="14.2198733"><ele>423.5</ele><time>2026-05-05T13:38:50.162Z</time></trkpt><trkpt lat="37.56485" lon="14.21961"><ele>425.0</ele><time>2026-05-05T13:38:51.162Z</time></trkpt><trkpt lat="37.5647517" lon="14.2193483"><ele>425.0</ele><time>2026-05-05T13:38:52.162Z</time></trkpt><trkpt lat="37.5646567" lon="14.2190833"><ele>425.0</ele><time>2026-05-05T13:38:53.163Z</time></trkpt><trkpt lat="37.5645617" lon="14.2188167"><ele>422.0</ele><time>2026-05-05T13:38:54.163Z</time></trkpt><trkpt lat="37.5644667" lon="14.2185567"><ele>419.0</ele><time>2026-05-05T13:38:55.162Z</time></trkpt><trkpt lat="37.5643683" lon="14.21829"><ele>420.0</ele><time>2026-05-05T13:38:56.162Z</time></trkpt><trkpt lat="37.56428" lon="14.218025"><ele>421.0</ele><time>2026-05-05T13:38:57.162Z</time></trkpt><trkpt lat="37.564185" lon="14.2177633"><ele>421.0</ele><time>2026-05-05T13:38:58.162Z</time></trkpt><trkpt lat="37.5640933" lon="14.2175033"><ele>421.0</ele><time>2026-05-05T13:38:59.162Z</time></trkpt><trkpt lat="37.564" lon="14.2172367"><ele>421.0</ele><time>2026-05-05T13:39:00.162Z</time></trkpt><trkpt lat="37.563905" lon="14.2169767"><ele>421.0</ele><time>2026-05-05T13:39:01.162Z</time></trkpt><trkpt lat="37.5638133" lon="14.2167133"><ele>424.0</ele><time>2026-05-05T13:39:02.162Z</time></trkpt><trkpt lat="37.5637183" lon="14.2164467"><ele>427.0</ele><time>2026-05-05T13:39:03.162Z</time></trkpt><trkpt lat="37.56363" lon="14.216175"><ele>417.0</ele><time>2026-05-05T13:39:04.162Z</time></trkpt><trkpt lat="37.5635367" lon="14.2159117"><ele>407.0</ele><time>2026-05-05T13:39:05.162Z</time></trkpt><trkpt lat="37.5634533" lon="14.2156417"><ele>407.0</ele><time>2026-05-05T13:39:06.162Z</time></trkpt><trkpt lat="37.5633683" lon="14.21537"><ele>407.0</ele><time>2026-05-05T13:39:07.162Z</time></trkpt><trkpt lat="37.563285" lon="14.2150967"><ele>406.5</ele><time>2026-05-05T13:39:08.162Z</time></trkpt><trkpt lat="37.5632033" lon="14.2148183"><ele>406.0</ele><time>2026-05-05T13:39:09.162Z</time></trkpt><trkpt lat="37.56313" lon="14.214535"><ele>406.0</ele><time>2026-05-05T13:39:10.162Z</time></trkpt><trkpt lat="37.563055" lon="14.2142617"><ele>406.0</ele><time>2026-05-05T13:39:11.162Z</time></trkpt><trkpt lat="37.5629867" lon="14.213985"><ele>402.0</ele><time>2026-05-05T13:39:12.162Z</time></trkpt><trkpt lat="37.5629117" lon="14.21371"><ele>398.0</ele><time>2026-05-05T13:39:13.162Z</time></trkpt><trkpt lat="37.5628433" lon="14.213435"><ele>393.0</ele><time>2026-05-05T13:39:14.162Z</time></trkpt><trkpt lat="37.56278" lon="14.2131567"><ele>388.0</ele><time>2026-05-05T13:39:15.162Z</time></trkpt><trkpt lat="37.5627267" lon="14.2128717"><ele>384.0</ele><time>2026-05-05T13:39:16.162Z</time></trkpt><trkpt lat="37.56267" lon="14.2125883"><ele>380.0</ele><time>2026-05-05T13:39:17.162Z</time></trkpt><trkpt lat="37.5626167" lon="14.2123067"><ele>377.0</ele><time>2026-05-05T13:39:18.163Z</time></trkpt><trkpt lat="37.56256" lon="14.212025"><ele>374.0</ele><time>2026-05-05T13:39:19.162Z</time></trkpt><trkpt lat="37.5625117" lon="14.21174"><ele>374.0</ele><time>2026-05-05T13:39:20.162Z</time></trkpt><trkpt lat="37.5624667" lon="14.2114533"><ele>374.0</ele><time>2026-05-05T13:39:21.162Z</time></trkpt><trkpt lat="37.5624217" lon="14.211165"><ele>374.0</ele><time>2026-05-05T13:39:22.162Z</time></trkpt><trkpt lat="37.5623817" lon="14.2108717"><ele>374.0</ele><time>2026-05-05T13:39:23.162Z</time></trkpt><trkpt lat="37.5623467" lon="14.2105817"><ele>374.5</ele><time>2026-05-05T13:39:24.162Z</time></trkpt><trkpt lat="37.56232" lon="14.2102983"><ele>375.0</ele><time>2026-05-05T13:39:25.162Z</time></trkpt><trkpt lat="37.5622883" lon="14.2100117"><ele>372.0</ele><time>2026-05-05T13:39:26.162Z</time></trkpt><trkpt lat="37.562265" lon="14.2097233"><ele>369.0</ele><time>2026-05-05T13:39:27.162Z</time></trkpt><trkpt lat="37.5622367" lon="14.2094317"><ele>369.0</ele><time>2026-05-05T13:39:28.162Z</time></trkpt><trkpt lat="37.5622167" lon="14.20914"><ele>369.0</ele><time>2026-05-05T13:39:29.162Z</time></trkpt><trkpt lat="37.5621983" lon="14.2088517"><ele>370.0</ele><time>2026-05-05T13:39:30.162Z</time></trkpt><trkpt lat="37.56219" lon="14.2085633"><ele>371.0</ele><time>2026-05-05T13:39:31.162Z</time></trkpt><trkpt lat="37.5621783" lon="14.2082667"><ele>368.5</ele><time>2026-05-05T13:39:32.162Z</time></trkpt><trkpt lat="37.5621717" lon="14.2079783"><ele>366.0</ele><time>2026-05-05T13:39:33.162Z</time></trkpt><trkpt lat="37.5621633" lon="14.2076867"><ele>366.0</ele><time>2026-05-05T13:39:34.162Z</time></trkpt><trkpt lat="37.5621633" lon="14.207395"><ele>366.0</ele><time>2026-05-05T13:39:35.162Z</time></trkpt><trkpt lat="37.5621683" lon="14.2071017"><ele>365.0</ele><time>2026-05-05T13:39:36.162Z</time></trkpt><trkpt lat="37.5621667" lon="14.2068067"><ele>364.0</ele><time>2026-05-05T13:39:37.162Z</time></trkpt><trkpt lat="37.56217" lon="14.2065183"><ele>363.5</ele><time>2026-05-05T13:39:38.162Z</time></trkpt><trkpt lat="37.56217" lon="14.2062267"><ele>363.0</ele><time>2026-05-05T13:39:39.162Z</time></trkpt><trkpt lat="37.5621733" lon="14.20593"><ele>362.5</ele><time>2026-05-05T13:39:40.162Z</time></trkpt><trkpt lat="37.5621783" lon="14.2056367"><ele>362.0</ele><time>2026-05-05T13:39:41.162Z</time></trkpt><trkpt lat="37.562185" lon="14.20535"><ele>362.0</ele><time>2026-05-05T13:39:42.162Z</time></trkpt><trkpt lat="37.5621867" lon="14.205055"><ele>362.0</ele><time>2026-05-05T13:39:43.162Z</time></trkpt><trkpt lat="37.5621867" lon="14.204765"><ele>361.0</ele><time>2026-05-05T13:39:44.163Z</time></trkpt><trkpt lat="37.56219" lon="14.2044733"><ele>360.0</ele><time>2026-05-05T13:39:45.162Z</time></trkpt><trkpt lat="37.562195" lon="14.204185"><ele>359.5</ele><time>2026-05-05T13:39:46.163Z</time></trkpt><trkpt lat="37.5621967" lon="14.2038917"><ele>359.0</ele><time>2026-05-05T13:39:47.162Z</time></trkpt><trkpt lat="37.5621983" lon="14.2035967"><ele>359.0</ele><time>2026-05-05T13:39:48.162Z</time></trkpt><trkpt lat="37.5621967" lon="14.203305"><ele>359.0</ele><time>2026-05-05T13:39:49.163Z</time></trkpt><trkpt lat="37.5622" lon="14.2030133"><ele>358.0</ele><time>2026-05-05T13:39:50.163Z</time></trkpt><trkpt lat="37.5622033" lon="14.2027217"><ele>357.0</ele><time>2026-05-05T13:39:51.162Z</time></trkpt><trkpt lat="37.5622067" lon="14.2024267"><ele>355.5</ele><time>2026-05-05T13:39:52.162Z</time></trkpt><trkpt lat="37.5622067" lon="14.2021383"><ele>354.0</ele><time>2026-05-05T13:39:53.162Z</time></trkpt><trkpt lat="37.5622117" lon="14.2018517"><ele>354.0</ele><time>2026-05-05T13:39:54.163Z</time></trkpt><trkpt lat="37.5622133" lon="14.201565"><ele>354.0</ele><time>2026-05-05T13:39:55.162Z</time></trkpt><trkpt lat="37.5622183" lon="14.2012733"><ele>353.0</ele><time>2026-05-05T13:39:56.163Z</time></trkpt><trkpt lat="37.5622167" lon="14.2009733"><ele>352.0</ele><time>2026-05-05T13:39:57.162Z</time></trkpt><trkpt lat="37.5622217" lon="14.20068"><ele>352.5</ele><time>2026-05-05T13:39:58.162Z</time></trkpt><trkpt lat="37.5622117" lon="14.2003917"><ele>353.0</ele><time>2026-05-05T13:39:59.162Z</time></trkpt><trkpt lat="37.5622083" lon="14.2001033"><ele>352.0</ele><time>2026-05-05T13:40:00.162Z</time></trkpt><trkpt lat="37.562195" lon="14.1998183"><ele>351.0</ele><time>2026-05-05T13:40:01.163Z</time></trkpt><trkpt lat="37.5621783" lon="14.1995283"><ele>351.0</ele><time>2026-05-05T13:40:02.162Z</time></trkpt><trkpt lat="37.5621583" lon="14.1992367"><ele>351.0</ele><time>2026-05-05T13:40:03.162Z</time></trkpt><trkpt lat="37.5621333" lon="14.198945"><ele>350.0</ele><time>2026-05-05T13:40:04.162Z</time></trkpt><trkpt lat="37.5621033" lon="14.1986583"><ele>349.0</ele><time>2026-05-05T13:40:05.162Z</time></trkpt><trkpt lat="37.5620667" lon="14.1983733"><ele>349.5</ele><time>2026-05-05T13:40:06.162Z</time></trkpt><trkpt lat="37.5620233" lon="14.1980933"><ele>350.0</ele><time>2026-05-05T13:40:07.162Z</time></trkpt><trkpt lat="37.5619817" lon="14.1978017"><ele>350.0</ele><time>2026-05-05T13:40:08.162Z</time></trkpt><trkpt lat="37.5619283" lon="14.197515"><ele>350.0</ele><time>2026-05-05T13:40:09.162Z</time></trkpt><trkpt lat="37.561875" lon="14.197235"><ele>349.0</ele><time>2026-05-05T13:40:10.162Z</time></trkpt><trkpt lat="37.5618083" lon="14.1969533"><ele>348.0</ele><time>2026-05-05T13:40:11.162Z</time></trkpt><trkpt lat="37.5617433" lon="14.1966717"><ele>348.0</ele><time>2026-05-05T13:40:12.162Z</time></trkpt><trkpt lat="37.5616733" lon="14.1963933"><ele>348.0</ele><time>2026-05-05T13:40:13.162Z</time></trkpt><trkpt lat="37.5615933" lon="14.196115"><ele>348.0</ele><time>2026-05-05T13:40:14.162Z</time></trkpt><trkpt lat="37.5615067" lon="14.1958517"><ele>348.0</ele><time>2026-05-05T13:40:15.162Z</time></trkpt><trkpt lat="37.5614183" lon="14.195585"><ele>347.5</ele><time>2026-05-05T13:40:16.162Z</time></trkpt><trkpt lat="37.561325" lon="14.1953183"><ele>347.0</ele><time>2026-05-05T13:40:17.162Z</time></trkpt><trkpt lat="37.5612267" lon="14.195055"><ele>346.5</ele><time>2026-05-05T13:40:18.162Z</time></trkpt><trkpt lat="37.56112" lon="14.1947933"><ele>346.0</ele><time>2026-05-05T13:40:19.162Z</time></trkpt><trkpt lat="37.5610167" lon="14.1945367"><ele>346.0</ele><time>2026-05-05T13:40:20.162Z</time></trkpt><trkpt lat="37.5609033" lon="14.1942783"><ele>346.0</ele><time>2026-05-05T13:40:21.162Z</time></trkpt><trkpt lat="37.560785" lon="14.19403"><ele>346.5</ele><time>2026-05-05T13:40:22.162Z</time></trkpt><trkpt lat="37.5606667" lon="14.193785"><ele>347.0</ele><time>2026-05-05T13:40:23.162Z</time></trkpt><trkpt lat="37.56054" lon="14.1935367"><ele>347.0</ele><time>2026-05-05T13:40:24.162Z</time></trkpt><trkpt lat="37.5604067" lon="14.193295"><ele>347.0</ele><time>2026-05-05T13:40:25.162Z</time></trkpt><trkpt lat="37.56027" lon="14.1930533"><ele>347.5</ele><time>2026-05-05T13:40:26.162Z</time></trkpt><trkpt lat="37.5601283" lon="14.1928233"><ele>348.0</ele><time>2026-05-05T13:40:27.162Z</time></trkpt><trkpt lat="37.5599833" lon="14.1926"><ele>348.0</ele><time>2026-05-05T13:40:28.162Z</time></trkpt><trkpt lat="37.5598367" lon="14.1923733"><ele>348.0</ele><time>2026-05-05T13:40:29.162Z</time></trkpt><trkpt lat="37.5596833" lon="14.1921517"><ele>349.0</ele><time>2026-05-05T13:40:30.163Z</time></trkpt><trkpt lat="37.55953" lon="14.19194"><ele>350.0</ele><time>2026-05-05T13:40:31.162Z</time></trkpt><trkpt lat="37.5593683" lon="14.191725"><ele>350.0</ele><time>2026-05-05T13:40:32.162Z</time></trkpt><trkpt lat="37.559205" lon="14.1915183"><ele>350.0</ele><time>2026-05-05T13:40:33.162Z</time></trkpt><trkpt lat="37.5590417" lon="14.1913217"><ele>349.0</ele><time>2026-05-05T13:40:34.162Z</time></trkpt><trkpt lat="37.5588717" lon="14.1911233"><ele>348.0</ele><time>2026-05-05T13:40:35.162Z</time></trkpt><trkpt lat="37.5587017" lon="14.1909367"><ele>347.5</ele><time>2026-05-05T13:40:36.162Z</time></trkpt><trkpt lat="37.5585233" lon="14.1907517"><ele>347.0</ele><time>2026-05-05T13:40:37.163Z</time></trkpt><trkpt lat="37.5583433" lon="14.190575"><ele>346.5</ele><time>2026-05-05T13:40:38.162Z</time></trkpt><trkpt lat="37.5581567" lon="14.1903983"><ele>346.0</ele><time>2026-05-05T13:40:39.162Z</time></trkpt><trkpt lat="37.55797" lon="14.1902233"><ele>345.5</ele><time>2026-05-05T13:40:40.162Z</time></trkpt><trkpt lat="37.55778" lon="14.1900483"><ele>345.0</ele><time>2026-05-05T13:40:41.162Z</time></trkpt><trkpt lat="37.5575933" lon="14.1898733"><ele>344.5</ele><time>2026-05-05T13:40:42.162Z</time></trkpt><trkpt lat="37.557405" lon="14.1897017"><ele>344.0</ele><time>2026-05-05T13:40:43.162Z</time></trkpt><trkpt lat="37.5572183" lon="14.1895333"><ele>345.0</ele><time>2026-05-05T13:40:44.162Z</time></trkpt><trkpt lat="37.5570233" lon="14.1893667"><ele>346.0</ele><time>2026-05-05T13:40:45.162Z</time></trkpt><trkpt lat="37.5568367" lon="14.1892"><ele>346.0</ele><time>2026-05-05T13:40:46.162Z</time></trkpt><trkpt lat="37.556645" lon="14.189035"><ele>346.0</ele><time>2026-05-05T13:40:47.163Z</time></trkpt><trkpt lat="37.5564617" lon="14.188865"><ele>346.5</ele><time>2026-05-05T13:40:48.162Z</time></trkpt><trkpt lat="37.5562683" lon="14.1887"><ele>347.0</ele><time>2026-05-05T13:40:49.162Z</time></trkpt><trkpt lat="37.5560717" lon="14.1885317"><ele>347.0</ele><time>2026-05-05T13:40:50.162Z</time></trkpt><trkpt lat="37.5558883" lon="14.18836"><ele>347.0</ele><time>2026-05-05T13:40:51.163Z</time></trkpt><trkpt lat="37.5557" lon="14.1881933"><ele>346.5</ele><time>2026-05-05T13:40:52.162Z</time></trkpt><trkpt lat="37.5555117" lon="14.188025"><ele>346.0</ele><time>2026-05-05T13:40:53.162Z</time></trkpt><trkpt lat="37.5553217" lon="14.1878583"><ele>345.5</ele><time>2026-05-05T13:40:54.162Z</time></trkpt><trkpt lat="37.5551283" lon="14.18769"><ele>345.0</ele><time>2026-05-05T13:40:55.162Z</time></trkpt><trkpt lat="37.5549383" lon="14.1875167"><ele>345.0</ele><time>2026-05-05T13:40:56.162Z</time></trkpt><trkpt lat="37.5547433" lon="14.187355"><ele>345.0</ele><time>2026-05-05T13:40:57.162Z</time></trkpt><trkpt lat="37.5545533" lon="14.18719"><ele>342.0</ele><time>2026-05-05T13:40:58.162Z</time></trkpt><trkpt lat="37.5543667" lon="14.18702"><ele>339.0</ele><time>2026-05-05T13:40:59.162Z</time></trkpt><trkpt lat="37.5541783" lon="14.1868533"><ele>339.0</ele><time>2026-05-05T13:41:00.162Z</time></trkpt><trkpt lat="37.5539867" lon="14.186685"><ele>339.0</ele><time>2026-05-05T13:41:01.162Z</time></trkpt><trkpt lat="37.5538" lon="14.1865183"><ele>338.0</ele><time>2026-05-05T13:41:02.162Z</time></trkpt><trkpt lat="37.55361" lon="14.18635"><ele>337.0</ele><time>2026-05-05T13:41:03.162Z</time></trkpt><trkpt lat="37.5534233" lon="14.1861833"><ele>337.0</ele><time>2026-05-05T13:41:04.162Z</time></trkpt><trkpt lat="37.553235" lon="14.1860067"><ele>337.0</ele><time>2026-05-05T13:41:05.162Z</time></trkpt><trkpt lat="37.5530567" lon="14.1858383"><ele>337.5</ele><time>2026-05-05T13:41:06.162Z</time></trkpt><trkpt lat="37.5528667" lon="14.1856633"><ele>338.0</ele><time>2026-05-05T13:41:07.162Z</time></trkpt><trkpt lat="37.552685" lon="14.1854833"><ele>338.0</ele><time>2026-05-05T13:41:08.162Z</time></trkpt><trkpt lat="37.5524983" lon="14.1853083"><ele>338.0</ele><time>2026-05-05T13:41:09.162Z</time></trkpt><trkpt lat="37.552315" lon="14.1851283"><ele>338.0</ele><time>2026-05-05T13:41:10.162Z</time></trkpt><trkpt lat="37.552135" lon="14.184945"><ele>338.0</ele><time>2026-05-05T13:41:11.162Z</time></trkpt><trkpt lat="37.551955" lon="14.1847633"><ele>336.5</ele><time>2026-05-05T13:41:12.162Z</time></trkpt><trkpt lat="37.5517767" lon="14.18458"><ele>335.0</ele><time>2026-05-05T13:41:13.163Z</time></trkpt><trkpt lat="37.5516" lon="14.1843967"><ele>335.0</ele><time>2026-05-05T13:41:14.162Z</time></trkpt><trkpt lat="37.551425" lon="14.184205"><ele>335.0</ele><time>2026-05-05T13:41:15.162Z</time></trkpt><trkpt lat="37.5512467" lon="14.184015"><ele>335.5</ele><time>2026-05-05T13:41:16.163Z</time></trkpt><trkpt lat="37.55107" lon="14.1838217"><ele>336.0</ele><time>2026-05-05T13:41:17.162Z</time></trkpt><trkpt lat="37.5508933" lon="14.1836333"><ele>336.0</ele><time>2026-05-05T13:41:18.162Z</time></trkpt><trkpt lat="37.55072" lon="14.1834383"><ele>336.0</ele><time>2026-05-05T13:41:19.162Z</time></trkpt><trkpt lat="37.5505483" lon="14.1832483"><ele>336.5</ele><time>2026-05-05T13:41:20.162Z</time></trkpt><trkpt lat="37.5503717" lon="14.183055"><ele>337.0</ele><time>2026-05-05T13:41:21.162Z</time></trkpt><trkpt lat="37.5502033" lon="14.1828583"><ele>337.0</ele><time>2026-05-05T13:41:22.163Z</time></trkpt><trkpt lat="37.5500333" lon="14.1826583"><ele>337.0</ele><time>2026-05-05T13:41:23.162Z</time></trkpt><trkpt lat="37.5498633" lon="14.18246"><ele>338.5</ele><time>2026-05-05T13:41:24.162Z</time></trkpt><trkpt lat="37.5496983" lon="14.1822633"><ele>340.0</ele><time>2026-05-05T13:41:25.162Z</time></trkpt><trkpt lat="37.5495283" lon="14.1820617"><ele>340.0</ele><time>2026-05-05T13:41:26.162Z</time></trkpt><trkpt lat="37.5493633" lon="14.1818583"><ele>340.0</ele><time>2026-05-05T13:41:27.162Z</time></trkpt><trkpt lat="37.5492" lon="14.18165"><ele>340.0</ele><time>2026-05-05T13:41:28.162Z</time></trkpt><trkpt lat="37.5490383" lon="14.1814383"><ele>340.0</ele><time>2026-05-05T13:41:29.162Z</time></trkpt><trkpt lat="37.54888" lon="14.18123"><ele>340.0</ele><time>2026-05-05T13:41:30.162Z</time></trkpt><trkpt lat="37.5487167" lon="14.1810183"><ele>340.0</ele><time>2026-05-05T13:41:31.162Z</time></trkpt><trkpt lat="37.548555" lon="14.18081"><ele>337.0</ele><time>2026-05-05T13:41:32.162Z</time></trkpt><trkpt lat="37.5483933" lon="14.180605"><ele>334.0</ele><time>2026-05-05T13:41:33.162Z</time></trkpt><trkpt lat="37.5482367" lon="14.180385"><ele>334.0</ele><time>2026-05-05T13:41:34.162Z</time></trkpt><trkpt lat="37.54808" lon="14.1801717"><ele>334.0</ele><time>2026-05-05T13:41:35.163Z</time></trkpt><trkpt lat="37.5479283" lon="14.17996"><ele>333.0</ele><time>2026-05-05T13:41:36.162Z</time></trkpt><trkpt lat="37.5477667" lon="14.179745"><ele>332.0</ele><time>2026-05-05T13:41:37.162Z</time></trkpt><trkpt lat="37.5476167" lon="14.1795317"><ele>332.0</ele><time>2026-05-05T13:41:38.162Z</time></trkpt><trkpt lat="37.5474633" lon="14.1793133"><ele>332.0</ele><time>2026-05-05T13:41:39.162Z</time></trkpt><trkpt lat="37.5473133" lon="14.1790967"><ele>333.0</ele><time>2026-05-05T13:41:40.162Z</time></trkpt><trkpt lat="37.547165" lon="14.1788783"><ele>334.0</ele><time>2026-05-05T13:41:41.162Z</time></trkpt><trkpt lat="37.5470167" lon="14.178655"><ele>334.0</ele><time>2026-05-05T13:41:42.162Z</time></trkpt><trkpt lat="37.546865" lon="14.17843"><ele>334.0</ele><time>2026-05-05T13:41:43.162Z</time></trkpt><trkpt lat="37.54672" lon="14.1782"><ele>333.0</ele><time>2026-05-05T13:41:44.163Z</time></trkpt><trkpt lat="37.5465733" lon="14.1779683"><ele>332.0</ele><time>2026-05-05T13:41:45.162Z</time></trkpt><trkpt lat="37.54643" lon="14.17774"><ele>332.0</ele><time>2026-05-05T13:41:46.162Z</time></trkpt><trkpt lat="37.5462883" lon="14.1775133"><ele>332.0</ele><time>2026-05-05T13:41:47.162Z</time></trkpt><trkpt lat="37.5461483" lon="14.1772867"><ele>335.0</ele><time>2026-05-05T13:41:48.162Z</time></trkpt><trkpt lat="37.546" lon="14.17706"><ele>338.0</ele><time>2026-05-05T13:41:49.162Z</time></trkpt><trkpt lat="37.545855" lon="14.1768283"><ele>338.0</ele><time>2026-05-05T13:41:50.163Z</time></trkpt><trkpt lat="37.5457083" lon="14.1766"><ele>338.0</ele><time>2026-05-05T13:41:51.162Z</time></trkpt><trkpt lat="37.545565" lon="14.17637"><ele>339.0</ele><time>2026-05-05T13:41:52.162Z</time></trkpt><trkpt lat="37.5454233" lon="14.1761383"><ele>340.0</ele><time>2026-05-05T13:41:53.162Z</time></trkpt><trkpt lat="37.5452867" lon="14.1759067"><ele>341.0</ele><time>2026-05-05T13:41:54.162Z</time></trkpt><trkpt lat="37.54514" lon="14.17568"><ele>342.0</ele><time>2026-05-05T13:41:55.163Z</time></trkpt><trkpt lat="37.5449983" lon="14.1754483"><ele>342.0</ele><time>2026-05-05T13:41:56.162Z</time></trkpt><trkpt lat="37.5448517" lon="14.1752233"><ele>342.0</ele><time>2026-05-05T13:41:57.162Z</time></trkpt><trkpt lat="37.5447133" lon="14.1749933"><ele>343.5</ele><time>2026-05-05T13:41:58.162Z</time></trkpt><trkpt lat="37.5445683" lon="14.1747633"><ele>345.0</ele><time>2026-05-05T13:41:59.163Z</time></trkpt><trkpt lat="37.54442" lon="14.1745317"><ele>346.5</ele><time>2026-05-05T13:42:00.162Z</time></trkpt><trkpt lat="37.54428" lon="14.1743083"><ele>348.0</ele><time>2026-05-05T13:42:01.162Z</time></trkpt><trkpt lat="37.5441383" lon="14.174075"><ele>351.0</ele><time>2026-05-05T13:42:02.162Z</time></trkpt><trkpt lat="37.543995" lon="14.17385"><ele>354.0</ele><time>2026-05-05T13:42:03.162Z</time></trkpt><trkpt lat="37.54385" lon="14.1736233"><ele>351.5</ele><time>2026-05-05T13:42:04.162Z</time></trkpt><trkpt lat="37.54371" lon="14.173395"><ele>349.0</ele><time>2026-05-05T13:42:05.162Z</time></trkpt><trkpt lat="37.54357" lon="14.1731733"><ele>349.0</ele><time>2026-05-05T13:42:06.162Z</time></trkpt><trkpt lat="37.5434283" lon="14.1729483"><ele>349.0</ele><time>2026-05-05T13:42:07.162Z</time></trkpt><trkpt lat="37.5432883" lon="14.1727167"><ele>349.0</ele><time>2026-05-05T13:42:08.163Z</time></trkpt><trkpt lat="37.5431433" lon="14.1724867"><ele>349.0</ele><time>2026-05-05T13:42:09.162Z</time></trkpt><trkpt lat="37.543005" lon="14.17226"><ele>351.5</ele><time>2026-05-05T13:42:10.163Z</time></trkpt><trkpt lat="37.54286" lon="14.1720317"><ele>354.0</ele><time>2026-05-05T13:42:11.162Z</time></trkpt><trkpt lat="37.5427167" lon="14.1718033"><ele>354.0</ele><time>2026-05-05T13:42:12.162Z</time></trkpt><trkpt lat="37.5425733" lon="14.1715767"><ele>354.0</ele><time>2026-05-05T13:42:13.162Z</time></trkpt><trkpt lat="37.5424317" lon="14.1713483"><ele>352.5</ele><time>2026-05-05T13:42:14.163Z</time></trkpt><trkpt lat="37.542285" lon="14.1711233"><ele>351.0</ele><time>2026-05-05T13:42:15.162Z</time></trkpt><trkpt lat="37.5421417" lon="14.170895"><ele>355.5</ele><time>2026-05-05T13:42:16.162Z</time></trkpt><trkpt lat="37.542" lon="14.1706667"><ele>360.0</ele><time>2026-05-05T13:42:17.162Z</time></trkpt><trkpt lat="37.54186" lon="14.1704333"><ele>360.0</ele><time>2026-05-05T13:42:18.162Z</time></trkpt><trkpt lat="37.5417217" lon="14.1701983"><ele>360.0</ele><time>2026-05-05T13:42:19.162Z</time></trkpt><trkpt lat="37.5415833" lon="14.1699667"><ele>357.5</ele><time>2026-05-05T13:42:20.162Z</time></trkpt><trkpt lat="37.541455" lon="14.1697283"><ele>355.0</ele><time>2026-05-05T13:42:21.162Z</time></trkpt><trkpt lat="37.5413233" lon="14.169485"><ele>358.5</ele><time>2026-05-05T13:42:22.162Z</time></trkpt><trkpt lat="37.5411967" lon="14.1692367"><ele>362.0</ele><time>2026-05-05T13:42:23.162Z</time></trkpt><trkpt lat="37.5410767" lon="14.16899"><ele>362.0</ele><time>2026-05-05T13:42:24.162Z</time></trkpt><trkpt lat="37.54096" lon="14.1687383"><ele>362.0</ele><time>2026-05-05T13:42:25.162Z</time></trkpt><trkpt lat="37.5408517" lon="14.1684883"><ele>362.0</ele><time>2026-05-05T13:42:26.162Z</time></trkpt><trkpt lat="37.5407383" lon="14.1682333"><ele>362.0</ele><time>2026-05-05T13:42:27.162Z</time></trkpt><trkpt lat="37.5406333" lon="14.1679733"><ele>361.0</ele><time>2026-05-05T13:42:28.162Z</time></trkpt><trkpt lat="37.5405383" lon="14.1677117"><ele>360.0</ele><time>2026-05-05T13:42:29.162Z</time></trkpt><trkpt lat="37.540445" lon="14.1674467"><ele>364.0</ele><time>2026-05-05T13:42:30.162Z</time></trkpt><trkpt lat="37.540355" lon="14.1671783"><ele>368.0</ele><time>2026-05-05T13:42:31.162Z</time></trkpt><trkpt lat="37.5402767" lon="14.1669117"><ele>368.0</ele><time>2026-05-05T13:42:32.163Z</time></trkpt><trkpt lat="37.5401933" lon="14.1666383"><ele>368.0</ele><time>2026-05-05T13:42:33.162Z</time></trkpt><trkpt lat="37.5401183" lon="14.1663633"><ele>368.5</ele><time>2026-05-05T13:42:34.162Z</time></trkpt><trkpt lat="37.5400483" lon="14.1660833"><ele>369.0</ele><time>2026-05-05T13:42:35.162Z</time></trkpt><trkpt lat="37.5399817" lon="14.1658017"><ele>371.5</ele><time>2026-05-05T13:42:36.162Z</time></trkpt><trkpt lat="37.539925" lon="14.1655167"><ele>374.0</ele><time>2026-05-05T13:42:37.162Z</time></trkpt><trkpt lat="37.5398667" lon="14.1652317"><ele>374.0</ele><time>2026-05-05T13:42:38.162Z</time></trkpt><trkpt lat="37.5398167" lon="14.16495"><ele>374.0</ele><time>2026-05-05T13:42:39.162Z</time></trkpt><trkpt lat="37.5397683" lon="14.16466"><ele>378.0</ele><time>2026-05-05T13:42:40.162Z</time></trkpt><trkpt lat="37.5397317" lon="14.16437"><ele>382.0</ele><time>2026-05-05T13:42:41.162Z</time></trkpt><trkpt lat="37.539685" lon="14.1640783"><ele>388.5</ele><time>2026-05-05T13:42:42.162Z</time></trkpt><trkpt lat="37.5396467" lon="14.16379"><ele>395.0</ele><time>2026-05-05T13:42:43.162Z</time></trkpt><trkpt lat="37.5396133" lon="14.16349"><ele>398.0</ele><time>2026-05-05T13:42:44.163Z</time></trkpt><trkpt lat="37.5395767" lon="14.1631883"><ele>401.0</ele><time>2026-05-05T13:42:45.162Z</time></trkpt><trkpt lat="37.5395367" lon="14.1628817"><ele>401.5</ele><time>2026-05-05T13:42:46.163Z</time></trkpt><trkpt lat="37.5395017" lon="14.16258"><ele>402.0</ele><time>2026-05-05T13:42:47.162Z</time></trkpt><trkpt lat="37.5440267" lon="14.1469033"><ele>386.6666666666667</ele><time>2026-05-05T13:43:58.176Z</time></trkpt><trkpt lat="37.54414" lon="14.1467133"><ele>371.33333333333337</ele><time>2026-05-05T13:43:59.176Z</time></trkpt><trkpt lat="37.5442667" lon="14.1465333"><ele>356.0</ele><time>2026-05-05T13:44:00.176Z</time></trkpt><trkpt lat="37.5444017" lon="14.146355"><ele>354.0</ele><time>2026-05-05T13:44:01.177Z</time></trkpt><trkpt lat="37.5445333" lon="14.1461767"><ele>352.0</ele><time>2026-05-05T13:44:02.176Z</time></trkpt><trkpt lat="37.54467" lon="14.14601"><ele>350.0</ele><time>2026-05-05T13:44:03.176Z</time></trkpt><trkpt lat="37.5448117" lon="14.1458417"><ele>349.33333333333337</ele><time>2026-05-05T13:44:04.176Z</time></trkpt><trkpt lat="37.544955" lon="14.1456767"><ele>348.6666666666667</ele><time>2026-05-05T13:44:05.176Z</time></trkpt><trkpt lat="37.5450983" lon="14.1455067"><ele>348.0</ele><time>2026-05-05T13:44:06.176Z</time></trkpt><trkpt lat="37.5452467" lon="14.1453483"><ele>350.3333333333333</ele><time>2026-05-05T13:44:07.176Z</time></trkpt><trkpt lat="37.5453933" lon="14.1451933"><ele>352.66666666666663</ele><time>2026-05-05T13:44:08.176Z</time></trkpt><trkpt lat="37.545545" lon="14.1450367"><ele>355.0</ele><time>2026-05-05T13:44:09.176Z</time></trkpt><trkpt lat="37.5456967" lon="14.1448917"><ele>353.3333333333333</ele><time>2026-05-05T13:44:10.176Z</time></trkpt><trkpt lat="37.545835" lon="14.1447467"><ele>351.6666666666667</ele><time>2026-05-05T13:44:11.176Z</time></trkpt><trkpt lat="37.5459633" lon="14.1446167"><ele>350.0</ele><time>2026-05-05T13:44:12.177Z</time></trkpt><trkpt lat="37.54609" lon="14.1444883"><ele>351.33333333333337</ele><time>2026-05-05T13:44:13.176Z</time></trkpt><trkpt lat="37.5462183" lon="14.1443683"><ele>352.6666666666667</ele><time>2026-05-05T13:44:14.176Z</time></trkpt><trkpt lat="37.5463617" lon="14.14425"><ele>354.0</ele><time>2026-05-05T13:44:15.177Z</time></trkpt><trkpt lat="37.5465133" lon="14.1441383"><ele>351.6666666666667</ele><time>2026-05-05T13:44:16.176Z</time></trkpt><trkpt lat="37.5466567" lon="14.1440267"><ele>349.33333333333337</ele><time>2026-05-05T13:44:17.176Z</time></trkpt><trkpt lat="37.5468067" lon="14.1439317"><ele>347.0</ele><time>2026-05-05T13:44:18.177Z</time></trkpt><trkpt lat="37.5469583" lon="14.14384"><ele>346.6666666666667</ele><time>2026-05-05T13:44:19.176Z</time></trkpt><trkpt lat="37.5471133" lon="14.1437433"><ele>346.3333333333333</ele><time>2026-05-05T13:44:20.176Z</time></trkpt><trkpt lat="37.5472733" lon="14.1436533"><ele>346.0</ele><time>2026-05-05T13:44:21.176Z</time></trkpt><trkpt lat="37.54744" lon="14.1435667"><ele>346.0</ele><time>2026-05-05T13:44:22.176Z</time></trkpt><trkpt lat="37.5476067" lon="14.1434783"><ele>346.0</ele><time>2026-05-05T13:44:23.176Z</time></trkpt><trkpt lat="37.5477867" lon="14.1434"><ele>346.0</ele><time>2026-05-05T13:44:24.177Z</time></trkpt><trkpt lat="37.547965" lon="14.14331"><ele>345.0</ele><time>2026-05-05T13:44:25.176Z</time></trkpt><trkpt lat="37.5481483" lon="14.1432283"><ele>344.0</ele><time>2026-05-05T13:44:26.176Z</time></trkpt><trkpt lat="37.5483433" lon="14.14315"><ele>343.0</ele><time>2026-05-05T13:44:27.177Z</time></trkpt><trkpt lat="37.5485467" lon="14.143085"><ele>341.66666666666663</ele><time>2026-05-05T13:44:28.176Z</time></trkpt><trkpt lat="37.5487533" lon="14.143015"><ele>340.3333333333333</ele><time>2026-05-05T13:44:29.176Z</time></trkpt><trkpt lat="37.5489683" lon="14.1429383"><ele>339.0</ele><time>2026-05-05T13:44:30.176Z</time></trkpt><trkpt lat="37.549185" lon="14.14286"><ele>339.0</ele><time>2026-05-05T13:44:31.176Z</time></trkpt><trkpt lat="37.549405" lon="14.1427767"><ele>339.0</ele><time>2026-05-05T13:44:32.176Z</time></trkpt><trkpt lat="37.5496233" lon="14.1426917"><ele>337.5</ele><time>2026-05-05T13:44:33.176Z</time></trkpt><trkpt lat="37.549845" lon="14.142615"><ele>336.0</ele><time>2026-05-05T13:44:34.176Z</time></trkpt><trkpt lat="37.55007" lon="14.14254"><ele>336.0</ele><time>2026-05-05T13:44:35.176Z</time></trkpt><trkpt lat="37.55029" lon="14.1424667"><ele>336.0</ele><time>2026-05-05T13:44:36.176Z</time></trkpt><trkpt lat="37.55052" lon="14.142395"><ele>329.0</ele><time>2026-05-05T13:44:37.176Z</time></trkpt><trkpt lat="37.550745" lon="14.142325"><ele>322.0</ele><time>2026-05-05T13:44:38.176Z</time></trkpt><trkpt lat="37.55097" lon="14.1422433"><ele>322.0</ele><time>2026-05-05T13:44:39.176Z</time></trkpt><trkpt lat="37.5512" lon="14.14217"><ele>322.0</ele><time>2026-05-05T13:44:40.176Z</time></trkpt><trkpt lat="37.5514317" lon="14.1420883"><ele>318.5</ele><time>2026-05-05T13:44:41.176Z</time></trkpt><trkpt lat="37.5516567" lon="14.142005"><ele>315.0</ele><time>2026-05-05T13:44:42.177Z</time></trkpt><trkpt lat="37.5518917" lon="14.14193"><ele>313.0</ele><time>2026-05-05T13:44:43.176Z</time></trkpt><trkpt lat="37.5521217" lon="14.1418533"><ele>311.0</ele><time>2026-05-05T13:44:44.176Z</time></trkpt><trkpt lat="37.552355" lon="14.1417767"><ele>311.0</ele><time>2026-05-05T13:44:45.177Z</time></trkpt><trkpt lat="37.5525833" lon="14.1416967"><ele>311.0</ele><time>2026-05-05T13:44:46.176Z</time></trkpt><trkpt lat="37.5528183" lon="14.1416133"><ele>311.0</ele><time>2026-05-05T13:44:47.177Z</time></trkpt><trkpt lat="37.5530483" lon="14.1415367"><ele>311.0</ele><time>2026-05-05T13:44:48.176Z</time></trkpt><trkpt lat="37.5532867" lon="14.1414517"><ele>311.0</ele><time>2026-05-05T13:44:49.176Z</time></trkpt><trkpt lat="37.553525" lon="14.14137"><ele>311.0</ele><time>2026-05-05T13:44:50.176Z</time></trkpt><trkpt lat="37.5537583" lon="14.14128"><ele>312.5</ele><time>2026-05-05T13:44:51.176Z</time></trkpt><trkpt lat="37.5539983" lon="14.1411983"><ele>314.0</ele><time>2026-05-05T13:44:52.176Z</time></trkpt><trkpt lat="37.5542367" lon="14.1411117"><ele>314.0</ele><time>2026-05-05T13:44:53.176Z</time></trkpt><trkpt lat="37.5544767" lon="14.1410283"><ele>314.0</ele><time>2026-05-05T13:44:54.177Z</time></trkpt><trkpt lat="37.55472" lon="14.1409517"><ele>314.5</ele><time>2026-05-05T13:44:55.176Z</time></trkpt><trkpt lat="37.554965" lon="14.14087"><ele>315.0</ele><time>2026-05-05T13:44:56.176Z</time></trkpt><trkpt lat="37.555205" lon="14.1407867"><ele>313.5</ele><time>2026-05-05T13:44:57.176Z</time></trkpt><trkpt lat="37.5554517" lon="14.1407017"><ele>312.0</ele><time>2026-05-05T13:44:58.177Z</time></trkpt><trkpt lat="37.555695" lon="14.1406183"><ele>312.0</ele><time>2026-05-05T13:44:59.176Z</time></trkpt><trkpt lat="37.555935" lon="14.140535"><ele>312.0</ele><time>2026-05-05T13:45:00.176Z</time></trkpt><trkpt lat="37.556175" lon="14.1404567"><ele>311.5</ele><time>2026-05-05T13:45:01.176Z</time></trkpt><trkpt lat="37.5564133" lon="14.1403733"><ele>311.0</ele><time>2026-05-05T13:45:02.176Z</time></trkpt><trkpt lat="37.5566567" lon="14.1402933"><ele>311.0</ele><time>2026-05-05T13:45:03.176Z</time></trkpt><trkpt lat="37.5569017" lon="14.14021"><ele>311.0</ele><time>2026-05-05T13:45:04.176Z</time></trkpt><trkpt lat="37.5571383" lon="14.1401217"><ele>312.0</ele><time>2026-05-05T13:45:05.176Z</time></trkpt><trkpt lat="37.5573783" lon="14.1400417"><ele>313.0</ele><time>2026-05-05T13:45:06.176Z</time></trkpt><trkpt lat="37.5576233" lon="14.13996"><ele>313.0</ele><time>2026-05-05T13:45:07.176Z</time></trkpt><trkpt lat="37.5578633" lon="14.13988"><ele>313.0</ele><time>2026-05-05T13:45:08.177Z</time></trkpt><trkpt lat="37.5581033" lon="14.1398"><ele>313.5</ele><time>2026-05-05T13:45:09.176Z</time></trkpt><trkpt lat="37.558345" lon="14.1397167"><ele>314.0</ele><time>2026-05-05T13:45:10.176Z</time></trkpt><trkpt lat="37.55859" lon="14.1396283"><ele>314.5</ele><time>2026-05-05T13:45:11.177Z</time></trkpt><trkpt lat="37.5588317" lon="14.13954"><ele>315.0</ele><time>2026-05-05T13:45:12.176Z</time></trkpt><trkpt lat="37.559075" lon="14.1394567"><ele>315.0</ele><time>2026-05-05T13:45:13.177Z</time></trkpt><trkpt lat="37.5593117" lon="14.1393717"><ele>315.0</ele><time>2026-05-05T13:45:14.177Z</time></trkpt><trkpt lat="37.559555" lon="14.1392917"><ele>316.0</ele><time>2026-05-05T13:45:15.177Z</time></trkpt><trkpt lat="37.5597983" lon="14.139205"><ele>317.0</ele><time>2026-05-05T13:45:16.176Z</time></trkpt><trkpt lat="37.5600383" lon="14.1391267"><ele>316.5</ele><time>2026-05-05T13:45:17.176Z</time></trkpt><trkpt lat="37.5602817" lon="14.139045"><ele>316.0</ele><time>2026-05-05T13:45:18.176Z</time></trkpt><trkpt lat="37.5605233" lon="14.1389683"><ele>316.0</ele><time>2026-05-05T13:45:19.176Z</time></trkpt><trkpt lat="37.560765" lon="14.138885"><ele>316.0</ele><time>2026-05-05T13:45:20.176Z</time></trkpt><trkpt lat="37.5610033" lon="14.1387967"><ele>316.0</ele><time>2026-05-05T13:45:21.176Z</time></trkpt><trkpt lat="37.5612467" lon="14.13871"><ele>316.0</ele><time>2026-05-05T13:45:22.176Z</time></trkpt><trkpt lat="37.561495" lon="14.13863"><ele>316.0</ele><time>2026-05-05T13:45:23.177Z</time></trkpt><trkpt lat="37.5617433" lon="14.1385517"><ele>316.0</ele><time>2026-05-05T13:45:24.176Z</time></trkpt><trkpt lat="37.561985" lon="14.1384667"><ele>316.0</ele><time>2026-05-05T13:45:25.176Z</time></trkpt><trkpt lat="37.5622217" lon="14.138375"><ele>316.0</ele><time>2026-05-05T13:45:26.176Z</time></trkpt><trkpt lat="37.5624667" lon="14.1382917"><ele>316.5</ele><time>2026-05-05T13:45:27.176Z</time></trkpt><trkpt lat="37.5627083" lon="14.1382117"><ele>317.0</ele><time>2026-05-05T13:45:28.176Z</time></trkpt><trkpt lat="37.56295" lon="14.1381233"><ele>318.0</ele><time>2026-05-05T13:45:29.176Z</time></trkpt><trkpt lat="37.563195" lon="14.13804"><ele>319.0</ele><time>2026-05-05T13:45:30.176Z</time></trkpt><trkpt lat="37.5634367" lon="14.13796"><ele>319.0</ele><time>2026-05-05T13:45:31.177Z</time></trkpt><trkpt lat="37.5636783" lon="14.13788"><ele>319.0</ele><time>2026-05-05T13:45:32.176Z</time></trkpt><trkpt lat="37.5639217" lon="14.1377983"><ele>319.5</ele><time>2026-05-05T13:45:33.176Z</time></trkpt><trkpt lat="37.5641633" lon="14.137715"><ele>320.0</ele><time>2026-05-05T13:45:34.176Z</time></trkpt><trkpt lat="37.5644033" lon="14.1376317"><ele>320.0</ele><time>2026-05-05T13:45:35.177Z</time></trkpt><trkpt lat="37.5646467" lon="14.1375483"><ele>320.0</ele><time>2026-05-05T13:45:36.176Z</time></trkpt><trkpt lat="37.5648917" lon="14.1374667"><ele>319.5</ele><time>2026-05-05T13:45:37.176Z</time></trkpt><trkpt lat="37.565135" lon="14.1373833"><ele>319.0</ele><time>2026-05-05T13:45:38.176Z</time></trkpt><trkpt lat="37.5653767" lon="14.137295"><ele>319.0</ele><time>2026-05-05T13:45:39.176Z</time></trkpt><trkpt lat="37.56562" lon="14.137215"><ele>319.0</ele><time>2026-05-05T13:45:40.177Z</time></trkpt><trkpt lat="37.5658617" lon="14.1371333"><ele>319.0</ele><time>2026-05-05T13:45:41.176Z</time></trkpt><trkpt lat="37.5661017" lon="14.1370533"><ele>319.0</ele><time>2026-05-05T13:45:42.177Z</time></trkpt><trkpt lat="37.5663433" lon="14.1369717"><ele>320.0</ele><time>2026-05-05T13:45:43.176Z</time></trkpt><trkpt lat="37.56658" lon="14.136885"><ele>321.0</ele><time>2026-05-05T13:45:44.176Z</time></trkpt><trkpt lat="37.5668167" lon="14.1367983"><ele>322.0</ele><time>2026-05-05T13:45:45.177Z</time></trkpt><trkpt lat="37.5670617" lon="14.1367217"><ele>323.0</ele><time>2026-05-05T13:45:46.176Z</time></trkpt><trkpt lat="37.5673017" lon="14.136635"><ele>322.5</ele><time>2026-05-05T13:45:47.176Z</time></trkpt><trkpt lat="37.567545" lon="14.13655"><ele>322.0</ele><time>2026-05-05T13:45:48.176Z</time></trkpt><trkpt lat="37.5677883" lon="14.1364567"><ele>321.5</ele><time>2026-05-05T13:45:49.176Z</time></trkpt><trkpt lat="37.568035" lon="14.1363717"><ele>321.0</ele><time>2026-05-05T13:45:50.176Z</time></trkpt><trkpt lat="37.5682767" lon="14.1362883"><ele>321.0</ele><time>2026-05-05T13:45:51.176Z</time></trkpt><trkpt lat="37.5685183" lon="14.136205"><ele>321.0</ele><time>2026-05-05T13:45:52.176Z</time></trkpt><trkpt lat="37.5687617" lon="14.136125"><ele>321.5</ele><time>2026-05-05T13:45:53.176Z</time></trkpt><trkpt lat="37.5690067" lon="14.1360517"><ele>322.0</ele><time>2026-05-05T13:45:54.177Z</time></trkpt><trkpt lat="37.569255" lon="14.1359867"><ele>322.0</ele><time>2026-05-05T13:45:55.176Z</time></trkpt><trkpt lat="37.5694967" lon="14.13592"><ele>322.0</ele><time>2026-05-05T13:45:56.177Z</time></trkpt><trkpt lat="37.5697417" lon="14.13587"><ele>323.5</ele><time>2026-05-05T13:45:57.176Z</time></trkpt><trkpt lat="37.5699883" lon="14.13583"><ele>325.0</ele><time>2026-05-05T13:45:58.176Z</time></trkpt><trkpt lat="37.5702433" lon="14.1358"><ele>325.0</ele><time>2026-05-05T13:45:59.176Z</time></trkpt><trkpt lat="37.5704933" lon="14.1357683"><ele>325.0</ele><time>2026-05-05T13:46:00.176Z</time></trkpt><trkpt lat="37.5707383" lon="14.13575"><ele>325.0</ele><time>2026-05-05T13:46:01.176Z</time></trkpt><trkpt lat="37.5709933" lon="14.13574"><ele>325.0</ele><time>2026-05-05T13:46:02.176Z</time></trkpt><trkpt lat="37.5712383" lon="14.13573"><ele>324.5</ele><time>2026-05-05T13:46:03.176Z</time></trkpt><trkpt lat="37.5714883" lon="14.1357417"><ele>324.0</ele><time>2026-05-05T13:46:04.177Z</time></trkpt><trkpt lat="37.571745" lon="14.13576"><ele>324.0</ele><time>2026-05-05T13:46:05.176Z</time></trkpt><trkpt lat="37.5720017" lon="14.1357833"><ele>324.0</ele><time>2026-05-05T13:46:06.176Z</time></trkpt><trkpt lat="37.57225" lon="14.1358133"><ele>325.0</ele><time>2026-05-05T13:46:07.176Z</time></trkpt><trkpt lat="37.5724983" lon="14.135855"><ele>326.0</ele><time>2026-05-05T13:46:08.176Z</time></trkpt><trkpt lat="37.57275" lon="14.135905"><ele>328.0</ele><time>2026-05-05T13:46:09.176Z</time></trkpt><trkpt lat="37.5729967" lon="14.1359633"><ele>330.0</ele><time>2026-05-05T13:46:10.176Z</time></trkpt><trkpt lat="37.5732433" lon="14.1360267"><ele>330.0</ele><time>2026-05-05T13:46:11.176Z</time></trkpt><trkpt lat="37.5734917" lon="14.1361033"><ele>330.0</ele><time>2026-05-05T13:46:12.176Z</time></trkpt><trkpt lat="37.5737317" lon="14.1361917"><ele>331.5</ele><time>2026-05-05T13:46:13.176Z</time></trkpt><trkpt lat="37.573965" lon="14.1362767"><ele>333.0</ele><time>2026-05-05T13:46:14.176Z</time></trkpt><trkpt lat="37.5741933" lon="14.1363633"><ele>333.0</ele><time>2026-05-05T13:46:15.176Z</time></trkpt><trkpt lat="37.57443" lon="14.13645"><ele>333.0</ele><time>2026-05-05T13:46:16.176Z</time></trkpt><trkpt lat="37.574665" lon="14.1365317"><ele>331.0</ele><time>2026-05-05T13:46:17.176Z</time></trkpt><trkpt lat="37.5749017" lon="14.1366167"><ele>329.0</ele><time>2026-05-05T13:46:18.177Z</time></trkpt><trkpt lat="37.5751367" lon="14.1366983"><ele>328.0</ele><time>2026-05-05T13:46:19.176Z</time></trkpt><trkpt lat="37.57537" lon="14.1367867"><ele>327.0</ele><time>2026-05-05T13:46:20.177Z</time></trkpt><trkpt lat="37.5756033" lon="14.1368733"><ele>327.0</ele><time>2026-05-05T13:46:21.177Z</time></trkpt><trkpt lat="37.575835" lon="14.1369633"><ele>327.0</ele><time>2026-05-05T13:46:22.176Z</time></trkpt><trkpt lat="37.5760667" lon="14.1370533"><ele>328.5</ele><time>2026-05-05T13:46:23.176Z</time></trkpt><trkpt lat="37.5763017" lon="14.1371433"><ele>330.0</ele><time>2026-05-05T13:46:24.176Z</time></trkpt><trkpt lat="37.5765367" lon="14.1372283"><ele>330.0</ele><time>2026-05-05T13:46:25.176Z</time></trkpt><trkpt lat="37.5767733" lon="14.1373083"><ele>330.0</ele><time>2026-05-05T13:46:26.176Z</time></trkpt><trkpt lat="37.5770117" lon="14.1373933"><ele>326.5</ele><time>2026-05-05T13:46:27.176Z</time></trkpt><trkpt lat="37.5772433" lon="14.1374733"><ele>323.0</ele><time>2026-05-05T13:46:28.176Z</time></trkpt><trkpt lat="37.57748" lon="14.1375533"><ele>323.0</ele><time>2026-05-05T13:46:29.177Z</time></trkpt><trkpt lat="37.57772" lon="14.13762"><ele>323.0</ele><time>2026-05-05T13:46:30.176Z</time></trkpt><trkpt lat="37.5779617" lon="14.1376733"><ele>324.5</ele><time>2026-05-05T13:46:31.177Z</time></trkpt><trkpt lat="37.5782033" lon="14.1377233"><ele>326.0</ele><time>2026-05-05T13:46:32.176Z</time></trkpt><trkpt lat="37.5784433" lon="14.137765"><ele>326.0</ele><time>2026-05-05T13:46:33.176Z</time></trkpt><trkpt lat="37.57868" lon="14.1378067"><ele>326.0</ele><time>2026-05-05T13:46:34.176Z</time></trkpt><trkpt lat="37.578925" lon="14.1378317"><ele>327.5</ele><time>2026-05-05T13:46:35.176Z</time></trkpt><trkpt lat="37.57916" lon="14.1378517"><ele>329.0</ele><time>2026-05-05T13:46:36.176Z</time></trkpt><trkpt lat="37.5794033" lon="14.137865"><ele>328.5</ele><time>2026-05-05T13:46:37.176Z</time></trkpt><trkpt lat="37.57965" lon="14.1378733"><ele>328.0</ele><time>2026-05-05T13:46:38.176Z</time></trkpt><trkpt lat="37.5798983" lon="14.13788"><ele>328.0</ele><time>2026-05-05T13:46:39.176Z</time></trkpt><trkpt lat="37.58014" lon="14.13788"><ele>328.0</ele><time>2026-05-05T13:46:40.176Z</time></trkpt><trkpt lat="37.5803867" lon="14.1378633"><ele>327.5</ele><time>2026-05-05T13:46:41.176Z</time></trkpt><trkpt lat="37.5806317" lon="14.1378417"><ele>327.0</ele><time>2026-05-05T13:46:42.176Z</time></trkpt><trkpt lat="37.5808733" lon="14.1378133"><ele>327.0</ele><time>2026-05-05T13:46:43.176Z</time></trkpt><trkpt lat="37.58112" lon="14.1377883"><ele>327.0</ele><time>2026-05-05T13:46:44.176Z</time></trkpt><trkpt lat="37.5813633" lon="14.1377467"><ele>328.5</ele><time>2026-05-05T13:46:45.176Z</time></trkpt><trkpt lat="37.5816017" lon="14.137695"><ele>330.0</ele><time>2026-05-05T13:46:46.176Z</time></trkpt><trkpt lat="37.5818467" lon="14.1376417"><ele>330.0</ele><time>2026-05-05T13:46:47.177Z</time></trkpt><trkpt lat="37.5820883" lon="14.13758"><ele>330.0</ele><time>2026-05-05T13:46:48.176Z</time></trkpt><trkpt lat="37.5823317" lon="14.1375133"><ele>330.0</ele><time>2026-05-05T13:46:49.176Z</time></trkpt><trkpt lat="37.5825717" lon="14.1374433"><ele>330.0</ele><time>2026-05-05T13:46:50.177Z</time></trkpt><trkpt lat="37.5828083" lon="14.13736"><ele>330.5</ele><time>2026-05-05T13:46:51.176Z</time></trkpt><trkpt lat="37.583045" lon="14.1372767"><ele>331.0</ele><time>2026-05-05T13:46:52.176Z</time></trkpt><trkpt lat="37.583275" lon="14.137175"><ele>331.0</ele><time>2026-05-05T13:46:53.176Z</time></trkpt><trkpt lat="37.5834967" lon="14.1370717"><ele>331.0</ele><time>2026-05-05T13:46:54.176Z</time></trkpt><trkpt lat="37.583715" lon="14.1369683"><ele>330.3333333333333</ele><time>2026-05-05T13:46:55.177Z</time></trkpt><trkpt lat="37.583925" lon="14.1368633"><ele>329.6666666666667</ele><time>2026-05-05T13:46:56.176Z</time></trkpt><trkpt lat="37.5841217" lon="14.13676"><ele>329.0</ele><time>2026-05-05T13:46:57.177Z</time></trkpt><trkpt lat="37.5843067" lon="14.1366517"><ele>330.0</ele><time>2026-05-05T13:46:58.176Z</time></trkpt><trkpt lat="37.5844817" lon="14.136545"><ele>331.0</ele><time>2026-05-05T13:46:59.176Z</time></trkpt><trkpt lat="37.5846467" lon="14.1364383"><ele>332.0</ele><time>2026-05-05T13:47:00.176Z</time></trkpt><trkpt lat="37.584805" lon="14.13634"><ele>332.0</ele><time>2026-05-05T13:47:01.176Z</time></trkpt><trkpt lat="37.5849567" lon="14.1362483"><ele>332.0</ele><time>2026-05-05T13:47:02.176Z</time></trkpt><trkpt lat="37.5851117" lon="14.1361517"><ele>332.0</ele><time>2026-05-05T13:47:03.176Z</time></trkpt><trkpt lat="37.5852683" lon="14.136055"><ele>333.6666666666667</ele><time>2026-05-05T13:47:04.176Z</time></trkpt><trkpt lat="37.5854267" lon="14.13596"><ele>335.3333333333333</ele><time>2026-05-05T13:47:05.176Z</time></trkpt><trkpt lat="37.58558" lon="14.1358633"><ele>337.0</ele><time>2026-05-05T13:47:06.176Z</time></trkpt><trkpt lat="37.58573" lon="14.135775"><ele>336.66666666666663</ele><time>2026-05-05T13:47:07.176Z</time></trkpt><trkpt lat="37.5858917" lon="14.1356733"><ele>336.3333333333333</ele><time>2026-05-05T13:47:08.176Z</time></trkpt><trkpt lat="37.5860517" lon="14.1355717"><ele>336.0</ele><time>2026-05-05T13:47:09.176Z</time></trkpt><trkpt lat="37.58622" lon="14.135475"><ele>337.6666666666667</ele><time>2026-05-05T13:47:10.176Z</time></trkpt><trkpt lat="37.586395" lon="14.1353667"><ele>339.33333333333337</ele><time>2026-05-05T13:47:11.176Z</time></trkpt><trkpt lat="37.5865767" lon="14.1352533"><ele>341.0</ele><time>2026-05-05T13:47:12.176Z</time></trkpt><trkpt lat="37.58676" lon="14.1351367"><ele>341.0</ele><time>2026-05-05T13:47:13.176Z</time></trkpt><trkpt lat="37.5869417" lon="14.1350167"><ele>341.0</ele><time>2026-05-05T13:47:14.176Z</time></trkpt><trkpt lat="37.58713" lon="14.1349"><ele>341.0</ele><time>2026-05-05T13:47:15.176Z</time></trkpt><trkpt lat="37.587325" lon="14.1347767"><ele>340.33333333333337</ele><time>2026-05-05T13:47:16.176Z</time></trkpt><trkpt lat="37.5875267" lon="14.1346533"><ele>339.6666666666667</ele><time>2026-05-05T13:47:17.176Z</time></trkpt><trkpt lat="37.5877267" lon="14.13453"><ele>339.0</ele><time>2026-05-05T13:47:18.177Z</time></trkpt><trkpt lat="37.5879267" lon="14.1344033"><ele>339.0</ele><time>2026-05-05T13:47:19.177Z</time></trkpt><trkpt lat="37.5881333" lon="14.13427"><ele>339.0</ele><time>2026-05-05T13:47:20.176Z</time></trkpt><trkpt lat="37.58834" lon="14.1341333"><ele>339.0</ele><time>2026-05-05T13:47:21.176Z</time></trkpt><trkpt lat="37.58855" lon="14.1340017"><ele>339.0</ele><time>2026-05-05T13:47:22.176Z</time></trkpt><trkpt lat="37.5887617" lon="14.1338717"><ele>339.0</ele><time>2026-05-05T13:47:23.176Z</time></trkpt><trkpt lat="37.5889733" lon="14.13374"><ele>339.0</ele><time>2026-05-05T13:47:24.176Z</time></trkpt><trkpt lat="37.58919" lon="14.13361"><ele>339.0</ele><time>2026-05-05T13:47:25.176Z</time></trkpt><trkpt lat="37.589405" lon="14.1334817"><ele>339.0</ele><time>2026-05-05T13:47:26.176Z</time></trkpt><trkpt lat="37.5896233" lon="14.1333467"><ele>339.0</ele><time>2026-05-05T13:47:27.176Z</time></trkpt><trkpt lat="37.5898433" lon="14.1332117"><ele>339.0</ele><time>2026-05-05T13:47:28.176Z</time></trkpt><trkpt lat="37.59006" lon="14.1330733"><ele>339.0</ele><time>2026-05-05T13:47:29.176Z</time></trkpt><trkpt lat="37.590275" lon="14.1329383"><ele>339.0</ele><time>2026-05-05T13:47:30.177Z</time></trkpt><trkpt lat="37.5904933" lon="14.1327983"><ele>340.0</ele><time>2026-05-05T13:47:31.177Z</time></trkpt><trkpt lat="37.590715" lon="14.1326567"><ele>341.0</ele><time>2026-05-05T13:47:32.176Z</time></trkpt><trkpt lat="37.59094" lon="14.1325117"><ele>341.0</ele><time>2026-05-05T13:47:33.176Z</time></trkpt><trkpt lat="37.59116" lon="14.1323667"><ele>341.0</ele><time>2026-05-05T13:47:34.176Z</time></trkpt><trkpt lat="37.5913883" lon="14.1322267"><ele>341.0</ele><time>2026-05-05T13:47:35.176Z</time></trkpt><trkpt lat="37.59162" lon="14.1320817"><ele>341.0</ele><time>2026-05-05T13:47:36.176Z</time></trkpt><trkpt lat="37.59185" lon="14.1319417"><ele>342.0</ele><time>2026-05-05T13:47:37.176Z</time></trkpt><trkpt lat="37.5920783" lon="14.1318"><ele>343.0</ele><time>2026-05-05T13:47:38.176Z</time></trkpt><trkpt lat="37.5923117" lon="14.1316733"><ele>342.5</ele><time>2026-05-05T13:47:39.176Z</time></trkpt><trkpt lat="37.592545" lon="14.1315517"><ele>342.0</ele><time>2026-05-05T13:47:40.176Z</time></trkpt><trkpt lat="37.5927867" lon="14.1314333"><ele>343.5</ele><time>2026-05-05T13:47:41.176Z</time></trkpt><trkpt lat="37.5930267" lon="14.1313233"><ele>345.0</ele><time>2026-05-05T13:47:42.176Z</time></trkpt><trkpt lat="37.5932717" lon="14.13121"><ele>345.0</ele><time>2026-05-05T13:47:43.176Z</time></trkpt><trkpt lat="37.593525" lon="14.1311183"><ele>345.0</ele><time>2026-05-05T13:47:44.176Z</time></trkpt><trkpt lat="37.5937717" lon="14.131035"><ele>344.5</ele><time>2026-05-05T13:47:45.176Z</time></trkpt><trkpt lat="37.5940233" lon="14.13096"><ele>344.0</ele><time>2026-05-05T13:47:46.176Z</time></trkpt><trkpt lat="37.5942733" lon="14.1309033"><ele>344.5</ele><time>2026-05-05T13:47:47.176Z</time></trkpt><trkpt lat="37.5945233" lon="14.130855"><ele>345.0</ele><time>2026-05-05T13:47:48.176Z</time></trkpt><trkpt lat="37.5947783" lon="14.1308133"><ele>345.0</ele><time>2026-05-05T13:47:49.176Z</time></trkpt><trkpt lat="37.59503" lon="14.1307867"><ele>345.0</ele><time>2026-05-05T13:47:50.176Z</time></trkpt><trkpt lat="37.5952817" lon="14.1307583"><ele>345.0</ele><time>2026-05-05T13:47:51.176Z</time></trkpt><trkpt lat="37.59553" lon="14.13074"><ele>345.0</ele><time>2026-05-05T13:47:52.176Z</time></trkpt><trkpt lat="37.595775" lon="14.130725"><ele>345.0</ele><time>2026-05-05T13:47:53.177Z</time></trkpt><trkpt lat="37.59602" lon="14.1307183"><ele>345.0</ele><time>2026-05-05T13:47:54.176Z</time></trkpt><trkpt lat="37.5962683" lon="14.1307217"><ele>345.0</ele><time>2026-05-05T13:47:55.176Z</time></trkpt><trkpt lat="37.5965117" lon="14.1307267"><ele>345.0</ele><time>2026-05-05T13:47:56.176Z</time></trkpt><trkpt lat="37.5967583" lon="14.1307417"><ele>345.5</ele><time>2026-05-05T13:47:57.176Z</time></trkpt><trkpt lat="37.5970083" lon="14.13077"><ele>346.0</ele><time>2026-05-05T13:47:58.176Z</time></trkpt><trkpt lat="37.5972517" lon="14.1308017"><ele>346.0</ele><time>2026-05-05T13:47:59.176Z</time></trkpt><trkpt lat="37.59749" lon="14.130835"><ele>346.0</ele><time>2026-05-05T13:48:00.176Z</time></trkpt><trkpt lat="37.5977267" lon="14.1308733"><ele>347.0</ele><time>2026-05-05T13:48:01.176Z</time></trkpt><trkpt lat="37.5979633" lon="14.1309167"><ele>348.0</ele><time>2026-05-05T13:48:02.177Z</time></trkpt><trkpt lat="37.5981917" lon="14.13097"><ele>348.0</ele><time>2026-05-05T13:48:03.176Z</time></trkpt><trkpt lat="37.598415" lon="14.131025"><ele>348.0</ele><time>2026-05-05T13:48:04.176Z</time></trkpt><trkpt lat="37.5986183" lon="14.1310667"><ele>348.0</ele><time>2026-05-05T13:48:05.176Z</time></trkpt><trkpt lat="37.5988117" lon="14.1311067"><ele>348.0</ele><time>2026-05-05T13:48:06.176Z</time></trkpt><trkpt lat="37.599005" lon="14.1311417"><ele>348.0</ele><time>2026-05-05T13:48:07.177Z</time></trkpt><trkpt lat="37.5991867" lon="14.1311783"><ele>348.0</ele><time>2026-05-05T13:48:08.176Z</time></trkpt><trkpt lat="37.5993733" lon="14.1312167"><ele>348.3333333333333</ele><time>2026-05-05T13:48:09.176Z</time></trkpt><trkpt lat="37.5995517" lon="14.1312617"><ele>348.66666666666663</ele><time>2026-05-05T13:48:10.176Z</time></trkpt><trkpt lat="37.599725" lon="14.131305"><ele>349.0</ele><time>2026-05-05T13:48:11.176Z</time></trkpt><trkpt lat="37.5998967" lon="14.1313417"><ele>349.0</ele><time>2026-05-05T13:48:12.177Z</time></trkpt><trkpt lat="37.60006" lon="14.13138"><ele>349.0</ele><time>2026-05-05T13:48:13.176Z</time></trkpt><trkpt lat="37.6002283" lon="14.1314167"><ele>349.0</ele><time>2026-05-05T13:48:14.176Z</time></trkpt><trkpt lat="37.6003883" lon="14.1314517"><ele>349.0</ele><time>2026-05-05T13:48:15.176Z</time></trkpt><trkpt lat="37.6005283" lon="14.1314817"><ele>349.0</ele><time>2026-05-05T13:48:16.176Z</time></trkpt><trkpt lat="37.600675" lon="14.131515"><ele>349.0</ele><time>2026-05-05T13:48:17.176Z</time></trkpt><trkpt lat="37.6008117" lon="14.1315433"><ele>349.0</ele><time>2026-05-05T13:48:18.176Z</time></trkpt><trkpt lat="37.6009367" lon="14.13157"><ele>349.0</ele><time>2026-05-05T13:48:19.177Z</time></trkpt><trkpt lat="37.6010517" lon="14.1315783"><ele>349.0</ele><time>2026-05-05T13:48:20.176Z</time></trkpt><trkpt lat="37.60116" lon="14.1315467"><ele>349.0</ele><time>2026-05-05T13:48:21.176Z</time></trkpt><trkpt lat="37.6012667" lon="14.1315033"><ele>349.0</ele><time>2026-05-05T13:48:22.176Z</time></trkpt><trkpt lat="37.601365" lon="14.1314583"><ele>349.0</ele><time>2026-05-05T13:48:23.176Z</time></trkpt><trkpt lat="37.6014617" lon="14.13143"><ele>348.6</ele><time>2026-05-05T13:48:24.177Z</time></trkpt><trkpt lat="37.60155" lon="14.1314183"><ele>348.2</ele><time>2026-05-05T13:48:25.177Z</time></trkpt><trkpt lat="37.6016383" lon="14.1314267"><ele>347.8</ele><time>2026-05-05T13:48:26.176Z</time></trkpt><trkpt lat="37.6017283" lon="14.131445"><ele>347.40000000000003</ele><time>2026-05-05T13:48:27.176Z</time></trkpt><trkpt lat="37.60182" lon="14.1314683"><ele>347.0</ele><time>2026-05-05T13:48:28.176Z</time></trkpt><trkpt lat="37.601915" lon="14.131495"><ele>346.6</ele><time>2026-05-05T13:48:29.176Z</time></trkpt><trkpt lat="37.6020133" lon="14.1315133"><ele>346.20000000000005</ele><time>2026-05-05T13:48:30.176Z</time></trkpt><trkpt lat="37.602105" lon="14.1315317"><ele>345.8</ele><time>2026-05-05T13:48:31.176Z</time></trkpt><trkpt lat="37.6022083" lon="14.1315517"><ele>345.4</ele><time>2026-05-05T13:48:32.176Z</time></trkpt><trkpt lat="37.602315" lon="14.1315683"><ele>345.0</ele><time>2026-05-05T13:48:33.176Z</time></trkpt><trkpt lat="37.60242" lon="14.1315883"><ele>344.5</ele><time>2026-05-05T13:48:34.176Z</time></trkpt><trkpt lat="37.6025233" lon="14.1316167"><ele>344.0</ele><time>2026-05-05T13:48:35.176Z</time></trkpt><trkpt lat="37.6026367" lon="14.13164"><ele>343.5</ele><time>2026-05-05T13:48:36.176Z</time></trkpt><trkpt lat="37.60275" lon="14.13167"><ele>343.0</ele><time>2026-05-05T13:48:37.177Z</time></trkpt><trkpt lat="37.6028683" lon="14.1316983"><ele>342.75</ele><time>2026-05-05T13:48:38.176Z</time></trkpt><trkpt lat="37.6029883" lon="14.1317267"><ele>342.5</ele><time>2026-05-05T13:48:39.176Z</time></trkpt><trkpt lat="37.6031067" lon="14.1317583"><ele>342.25</ele><time>2026-05-05T13:48:40.176Z</time></trkpt><trkpt lat="37.603225" lon="14.1317883"><ele>342.0</ele><time>2026-05-05T13:48:41.176Z</time></trkpt><trkpt lat="37.6033483" lon="14.131805"><ele>342.0</ele><time>2026-05-05T13:48:42.176Z</time></trkpt><trkpt lat="37.6034733" lon="14.131825"><ele>342.0</ele><time>2026-05-05T13:48:43.176Z</time></trkpt><trkpt lat="37.6035967" lon="14.131845"><ele>342.0</ele><time>2026-05-05T13:48:44.176Z</time></trkpt><trkpt lat="37.6037283" lon="14.1318583"><ele>342.0</ele><time>2026-05-05T13:48:45.176Z</time></trkpt><trkpt lat="37.60386" lon="14.1318667"><ele>342.25</ele><time>2026-05-05T13:48:46.176Z</time></trkpt><trkpt lat="37.6039967" lon="14.131865"><ele>342.5</ele><time>2026-05-05T13:48:47.176Z</time></trkpt><trkpt lat="37.6041433" lon="14.1318633"><ele>342.75</ele><time>2026-05-05T13:48:48.176Z</time></trkpt><trkpt lat="37.6042867" lon="14.1318517"><ele>343.0</ele><time>2026-05-05T13:48:49.176Z</time></trkpt><trkpt lat="37.604435" lon="14.1318283"><ele>343.3333333333333</ele><time>2026-05-05T13:48:50.176Z</time></trkpt><trkpt lat="37.6045883" lon="14.1318033"><ele>343.6666666666667</ele><time>2026-05-05T13:48:51.176Z</time></trkpt><trkpt lat="37.6047433" lon="14.1317733"><ele>344.0</ele><time>2026-05-05T13:48:52.176Z</time></trkpt><trkpt lat="37.6048983" lon="14.1317267"><ele>344.0</ele><time>2026-05-05T13:48:53.176Z</time></trkpt><trkpt lat="37.6050567" lon="14.1316783"><ele>344.0</ele><time>2026-05-05T13:48:54.176Z</time></trkpt><trkpt lat="37.6052267" lon="14.1316267"><ele>344.0</ele><time>2026-05-05T13:48:55.177Z</time></trkpt><trkpt lat="37.6053967" lon="14.1315667"><ele>344.6666666666667</ele><time>2026-05-05T13:48:56.176Z</time></trkpt><trkpt lat="37.6055617" lon="14.131495"><ele>345.3333333333333</ele><time>2026-05-05T13:48:57.176Z</time></trkpt><trkpt lat="37.6057267" lon="14.1314183"><ele>346.0</ele><time>2026-05-05T13:48:58.177Z</time></trkpt><trkpt lat="37.6058917" lon="14.1313317"><ele>346.0</ele><time>2026-05-05T13:48:59.176Z</time></trkpt><trkpt lat="37.606055" lon="14.1312367"><ele>346.0</ele><time>2026-05-05T13:49:00.176Z</time></trkpt><trkpt lat="37.60621" lon="14.1311317"><ele>346.0</ele><time>2026-05-05T13:49:01.176Z</time></trkpt><trkpt lat="37.6063633" lon="14.131015"><ele>344.66666666666663</ele><time>2026-05-05T13:49:02.176Z</time></trkpt><trkpt lat="37.6065167" lon="14.1308933"><ele>343.3333333333333</ele><time>2026-05-05T13:49:03.177Z</time></trkpt><trkpt lat="37.60667" lon="14.13076"><ele>342.0</ele><time>2026-05-05T13:49:04.176Z</time></trkpt><trkpt lat="37.6068333" lon="14.130615"><ele>344.0</ele><time>2026-05-05T13:49:05.177Z</time></trkpt><trkpt lat="37.606985" lon="14.1304783"><ele>346.0</ele><time>2026-05-05T13:49:06.176Z</time></trkpt><trkpt lat="37.6071333" lon="14.1303283"><ele>348.0</ele><time>2026-05-05T13:49:07.176Z</time></trkpt><trkpt lat="37.6072883" lon="14.1301833"><ele>348.0</ele><time>2026-05-05T13:49:08.176Z</time></trkpt><trkpt lat="37.6074367" lon="14.1300367"><ele>348.0</ele><time>2026-05-05T13:49:09.177Z</time></trkpt><trkpt lat="37.60759" lon="14.129885"><ele>348.0</ele><time>2026-05-05T13:49:10.176Z</time></trkpt><trkpt lat="37.607745" lon="14.1297383"><ele>348.6666666666667</ele><time>2026-05-05T13:49:11.176Z</time></trkpt><trkpt lat="37.6079033" lon="14.1295867"><ele>349.33333333333337</ele><time>2026-05-05T13:49:12.176Z</time></trkpt><trkpt lat="37.6080667" lon="14.1294367"><ele>350.0</ele><time>2026-05-05T13:49:13.176Z</time></trkpt><trkpt lat="37.6082267" lon="14.1292783"><ele>350.0</ele><time>2026-05-05T13:49:14.176Z</time></trkpt><trkpt lat="37.608385" lon="14.129125"><ele>350.0</ele><time>2026-05-05T13:49:15.176Z</time></trkpt><trkpt lat="37.6085417" lon="14.1289767"><ele>350.0</ele><time>2026-05-05T13:49:16.177Z</time></trkpt><trkpt lat="37.6086967" lon="14.1288233"><ele>350.0</ele><time>2026-05-05T13:49:17.176Z</time></trkpt><trkpt lat="37.6088617" lon="14.1286733"><ele>350.0</ele><time>2026-05-05T13:49:18.176Z</time></trkpt><trkpt lat="37.609015" lon="14.1285233"><ele>350.0</ele><time>2026-05-05T13:49:19.176Z</time></trkpt><trkpt lat="37.60917" lon="14.128375"><ele>350.0</ele><time>2026-05-05T13:49:20.176Z</time></trkpt><trkpt lat="37.60932" lon="14.12823"><ele>350.0</ele><time>2026-05-05T13:49:21.176Z</time></trkpt><trkpt lat="37.609485" lon="14.128085"><ele>350.0</ele><time>2026-05-05T13:49:22.176Z</time></trkpt><trkpt lat="37.6096417" lon="14.127935"><ele>349.6666666666667</ele><time>2026-05-05T13:49:23.176Z</time></trkpt><trkpt lat="37.6098" lon="14.1277833"><ele>349.3333333333333</ele><time>2026-05-05T13:49:24.176Z</time></trkpt><trkpt lat="37.609955" lon="14.1276367"><ele>349.0</ele><time>2026-05-05T13:49:25.176Z</time></trkpt><trkpt lat="37.610115" lon="14.127485"><ele>349.3333333333333</ele><time>2026-05-05T13:49:26.176Z</time></trkpt><trkpt lat="37.6102633" lon="14.127335"><ele>349.6666666666667</ele><time>2026-05-05T13:49:27.176Z</time></trkpt><trkpt lat="37.6104267" lon="14.1271867"><ele>350.0</ele><time>2026-05-05T13:49:28.176Z</time></trkpt><trkpt lat="37.6105867" lon="14.1270433"><ele>349.33333333333337</ele><time>2026-05-05T13:49:29.176Z</time></trkpt><trkpt lat="37.6107483" lon="14.1269067"><ele>348.6666666666667</ele><time>2026-05-05T13:49:30.176Z</time></trkpt><trkpt lat="37.61091" lon="14.1267717"><ele>348.0</ele><time>2026-05-05T13:49:31.177Z</time></trkpt><trkpt lat="37.6110783" lon="14.12664"><ele>348.0</ele><time>2026-05-05T13:49:32.176Z</time></trkpt><trkpt lat="37.6112483" lon="14.1265083"><ele>348.0</ele><time>2026-05-05T13:49:33.177Z</time></trkpt><trkpt lat="37.6114233" lon="14.126385"><ele>348.0</ele><time>2026-05-05T13:49:34.176Z</time></trkpt><trkpt lat="37.6116033" lon="14.12627"><ele>348.0</ele><time>2026-05-05T13:49:35.176Z</time></trkpt><trkpt lat="37.61178" lon="14.1261533"><ele>348.0</ele><time>2026-05-05T13:49:36.176Z</time></trkpt><trkpt lat="37.6119517" lon="14.1260433"><ele>348.0</ele><time>2026-05-05T13:49:37.177Z</time></trkpt><trkpt lat="37.6121217" lon="14.125935"><ele>347.6666666666667</ele><time>2026-05-05T13:49:38.176Z</time></trkpt><trkpt lat="37.6123083" lon="14.1258383"><ele>347.33333333333337</ele><time>2026-05-05T13:49:39.176Z</time></trkpt><trkpt lat="37.6124883" lon="14.1257433"><ele>347.0</ele><time>2026-05-05T13:49:40.176Z</time></trkpt><trkpt lat="37.61267" lon="14.125655"><ele>347.6666666666667</ele><time>2026-05-05T13:49:41.176Z</time></trkpt><trkpt lat="37.612855" lon="14.12558"><ele>348.3333333333333</ele><time>2026-05-05T13:49:42.176Z</time></trkpt><trkpt lat="37.6130383" lon="14.1255"><ele>349.0</ele><time>2026-05-05T13:49:43.176Z</time></trkpt><trkpt lat="37.6132233" lon="14.1254283"><ele>349.0</ele><time>2026-05-05T13:49:44.176Z</time></trkpt><trkpt lat="37.613405" lon="14.1253617"><ele>349.0</ele><time>2026-05-05T13:49:45.176Z</time></trkpt><trkpt lat="37.613585" lon="14.125295"><ele>349.0</ele><time>2026-05-05T13:49:46.176Z</time></trkpt><trkpt lat="37.61376" lon="14.1252367"><ele>350.66666666666663</ele><time>2026-05-05T13:49:47.176Z</time></trkpt><trkpt lat="37.613915" lon="14.1251817"><ele>352.3333333333333</ele><time>2026-05-05T13:49:48.176Z</time></trkpt><trkpt lat="37.614075" lon="14.12513"><ele>354.0</ele><time>2026-05-05T13:49:49.176Z</time></trkpt><trkpt lat="37.6142267" lon="14.1250783"><ele>354.0</ele><time>2026-05-05T13:49:50.176Z</time></trkpt><trkpt lat="37.6143683" lon="14.1250233"><ele>354.0</ele><time>2026-05-05T13:49:51.176Z</time></trkpt><trkpt lat="37.6145017" lon="14.1249767"><ele>354.0</ele><time>2026-05-05T13:49:52.176Z</time></trkpt><trkpt lat="37.614635" lon="14.1249517"><ele>354.0</ele><time>2026-05-05T13:49:53.176Z</time></trkpt><trkpt lat="37.6147433" lon="14.1249467"><ele>354.5</ele><time>2026-05-05T13:49:54.176Z</time></trkpt><trkpt lat="37.6148567" lon="14.1249767"><ele>355.0</ele><time>2026-05-05T13:49:55.176Z</time></trkpt><trkpt lat="37.6149767" lon="14.1249933"><ele>355.5</ele><time>2026-05-05T13:49:56.176Z</time></trkpt><trkpt lat="37.6151083" lon="14.124975"><ele>356.0</ele><time>2026-05-05T13:49:57.177Z</time></trkpt><trkpt lat="37.6152483" lon="14.12493"><ele>355.6666666666667</ele><time>2026-05-05T13:49:58.176Z</time></trkpt><trkpt lat="37.6153967" lon="14.1248717"><ele>355.3333333333333</ele><time>2026-05-05T13:49:59.176Z</time></trkpt><trkpt lat="37.6155583" lon="14.1248117"><ele>355.0</ele><time>2026-05-05T13:50:00.176Z</time></trkpt><trkpt lat="37.6157283" lon="14.1247533"><ele>355.0</ele><time>2026-05-05T13:50:01.176Z</time></trkpt><trkpt lat="37.6159067" lon="14.124695"><ele>355.0</ele><time>2026-05-05T13:50:02.176Z</time></trkpt><trkpt lat="37.61608" lon="14.1246333"><ele>355.0</ele><time>2026-05-05T13:50:03.176Z</time></trkpt><trkpt lat="37.6162633" lon="14.1245683"><ele>355.3333333333333</ele><time>2026-05-05T13:50:04.176Z</time></trkpt><trkpt lat="37.6164533" lon="14.1245083"><ele>355.6666666666667</ele><time>2026-05-05T13:50:05.176Z</time></trkpt><trkpt lat="37.61664" lon="14.1244433"><ele>356.0</ele><time>2026-05-05T13:50:06.177Z</time></trkpt><trkpt lat="37.6168267" lon="14.1243833"><ele>355.33333333333337</ele><time>2026-05-05T13:50:07.176Z</time></trkpt><trkpt lat="37.6170167" lon="14.1243217"><ele>354.6666666666667</ele><time>2026-05-05T13:50:08.176Z</time></trkpt><trkpt lat="37.6172117" lon="14.1242667"><ele>354.0</ele><time>2026-05-05T13:50:09.176Z</time></trkpt><trkpt lat="37.6174067" lon="14.12421"><ele>354.0</ele><time>2026-05-05T13:50:10.176Z</time></trkpt><trkpt lat="37.6176133" lon="14.1241517"><ele>354.0</ele><time>2026-05-05T13:50:11.176Z</time></trkpt><trkpt lat="37.6178267" lon="14.1240867"><ele>354.0</ele><time>2026-05-05T13:50:12.176Z</time></trkpt><trkpt lat="37.6180417" lon="14.1240167"><ele>353.5</ele><time>2026-05-05T13:50:13.176Z</time></trkpt><trkpt lat="37.618265" lon="14.12395"><ele>353.0</ele><time>2026-05-05T13:50:14.176Z</time></trkpt><trkpt lat="37.6184867" lon="14.12388"><ele>354.5</ele><time>2026-05-05T13:50:15.176Z</time></trkpt><trkpt lat="37.6187133" lon="14.123805"><ele>356.0</ele><time>2026-05-05T13:50:16.176Z</time></trkpt><trkpt lat="37.6189317" lon="14.1237233"><ele>356.0</ele><time>2026-05-05T13:50:17.176Z</time></trkpt><trkpt lat="37.6191517" lon="14.1236433"><ele>356.0</ele><time>2026-05-05T13:50:18.176Z</time></trkpt><trkpt lat="37.61937" lon="14.12357"><ele>356.0</ele><time>2026-05-05T13:50:19.177Z</time></trkpt><trkpt lat="37.619595" lon="14.1234983"><ele>356.0</ele><time>2026-05-05T13:50:20.177Z</time></trkpt><trkpt lat="37.6198167" lon="14.1234283"><ele>356.0</ele><time>2026-05-05T13:50:21.176Z</time></trkpt><trkpt lat="37.6200433" lon="14.123355"><ele>356.0</ele><time>2026-05-05T13:50:22.176Z</time></trkpt><trkpt lat="37.6202733" lon="14.123285"><ele>356.5</ele><time>2026-05-05T13:50:23.176Z</time></trkpt><trkpt lat="37.6204917" lon="14.1232117"><ele>357.0</ele><time>2026-05-05T13:50:24.176Z</time></trkpt><trkpt lat="37.620715" lon="14.1231367"><ele>357.0</ele><time>2026-05-05T13:50:25.176Z</time></trkpt><trkpt lat="37.6209383" lon="14.1230617"><ele>357.0</ele><time>2026-05-05T13:50:26.176Z</time></trkpt><trkpt lat="37.6211617" lon="14.1229867"><ele>357.5</ele><time>2026-05-05T13:50:27.176Z</time></trkpt><trkpt lat="37.6213833" lon="14.122905"><ele>358.0</ele><time>2026-05-05T13:50:28.176Z</time></trkpt><trkpt lat="37.621605" lon="14.1228117"><ele>358.0</ele><time>2026-05-05T13:50:29.176Z</time></trkpt><trkpt lat="37.6218267" lon="14.12272"><ele>358.0</ele><time>2026-05-05T13:50:30.176Z</time></trkpt><trkpt lat="37.6220467" lon="14.1226267"><ele>357.5</ele><time>2026-05-05T13:50:31.177Z</time></trkpt><trkpt lat="37.6222667" lon="14.1225233"><ele>357.0</ele><time>2026-05-05T13:50:32.176Z</time></trkpt><trkpt lat="37.6224817" lon="14.12242"><ele>359.5</ele><time>2026-05-05T13:50:33.176Z</time></trkpt><trkpt lat="37.6226983" lon="14.1223083"><ele>362.0</ele><time>2026-05-05T13:50:34.177Z</time></trkpt><trkpt lat="37.6229117" lon="14.122195"><ele>362.5</ele><time>2026-05-05T13:50:35.176Z</time></trkpt><trkpt lat="37.6231233" lon="14.12208"><ele>363.0</ele><time>2026-05-05T13:50:36.176Z</time></trkpt><trkpt lat="37.62334" lon="14.1219717"><ele>363.0</ele><time>2026-05-05T13:50:37.176Z</time></trkpt><trkpt lat="37.6235533" lon="14.1218583"><ele>363.0</ele><time>2026-05-05T13:50:38.176Z</time></trkpt><trkpt lat="37.623765" lon="14.12174"><ele>361.5</ele><time>2026-05-05T13:50:39.176Z</time></trkpt><trkpt lat="37.623985" lon="14.1216333"><ele>360.0</ele><time>2026-05-05T13:50:40.177Z</time></trkpt><trkpt lat="37.6242017" lon="14.121525"><ele>361.5</ele><time>2026-05-05T13:50:41.176Z</time></trkpt><trkpt lat="37.6244117" lon="14.1214083"><ele>363.0</ele><time>2026-05-05T13:50:42.177Z</time></trkpt><trkpt lat="37.6246233" lon="14.1212917"><ele>363.0</ele><time>2026-05-05T13:50:43.176Z</time></trkpt><trkpt lat="37.6248367" lon="14.121175"><ele>363.0</ele><time>2026-05-05T13:50:44.176Z</time></trkpt><trkpt lat="37.6250517" lon="14.12106"><ele>363.0</ele><time>2026-05-05T13:50:45.176Z</time></trkpt><trkpt lat="37.625265" lon="14.1209483"><ele>363.0</ele><time>2026-05-05T13:50:46.176Z</time></trkpt><trkpt lat="37.6254783" lon="14.120835"><ele>364.0</ele><time>2026-05-05T13:50:47.176Z</time></trkpt><trkpt lat="37.6256933" lon="14.1207217"><ele>365.0</ele><time>2026-05-05T13:50:48.176Z</time></trkpt><trkpt lat="37.62591" lon="14.1206083"><ele>365.0</ele><time>2026-05-05T13:50:49.176Z</time></trkpt><trkpt lat="37.6261233" lon="14.12049"><ele>365.0</ele><time>2026-05-05T13:50:50.176Z</time></trkpt><trkpt lat="37.62634" lon="14.12038"><ele>365.0</ele><time>2026-05-05T13:50:51.176Z</time></trkpt><trkpt lat="37.6265533" lon="14.120265"><ele>365.0</ele><time>2026-05-05T13:50:52.176Z</time></trkpt><trkpt lat="37.62677" lon="14.1201533"><ele>363.5</ele><time>2026-05-05T13:50:53.176Z</time></trkpt><trkpt lat="37.62698" lon="14.120035"><ele>362.0</ele><time>2026-05-05T13:50:54.176Z</time></trkpt><trkpt lat="37.6271917" lon="14.1199217"><ele>365.0</ele><time>2026-05-05T13:50:55.176Z</time></trkpt><trkpt lat="37.6274083" lon="14.1198083"><ele>368.0</ele><time>2026-05-05T13:50:56.176Z</time></trkpt><trkpt lat="37.6276183" lon="14.11969"><ele>366.5</ele><time>2026-05-05T13:50:57.176Z</time></trkpt><trkpt lat="37.62783" lon="14.11958"><ele>365.0</ele><time>2026-05-05T13:50:58.176Z</time></trkpt><trkpt lat="37.628045" lon="14.1194717"><ele>365.0</ele><time>2026-05-05T13:50:59.176Z</time></trkpt><trkpt lat="37.6282583" lon="14.11935"><ele>365.0</ele><time>2026-05-05T13:51:00.176Z</time></trkpt><trkpt lat="37.6284683" lon="14.119235"><ele>364.0</ele><time>2026-05-05T13:51:01.177Z</time></trkpt><trkpt lat="37.6286833" lon="14.1191217"><ele>363.0</ele><time>2026-05-05T13:51:02.177Z</time></trkpt><trkpt lat="37.6289" lon="14.11901"><ele>363.0</ele><time>2026-05-05T13:51:03.176Z</time></trkpt><trkpt lat="37.6291133" lon="14.118895"><ele>363.0</ele><time>2026-05-05T13:51:04.176Z</time></trkpt><trkpt lat="37.62932" lon="14.1187717"><ele>362.0</ele><time>2026-05-05T13:51:05.176Z</time></trkpt><trkpt lat="37.6295333" lon="14.1186533"><ele>361.0</ele><time>2026-05-05T13:51:06.177Z</time></trkpt><trkpt lat="37.6297483" lon="14.1185383"><ele>361.0</ele><time>2026-05-05T13:51:07.176Z</time></trkpt><trkpt lat="37.62996" lon="14.1184217"><ele>361.0</ele><time>2026-05-05T13:51:08.175Z</time></trkpt><trkpt lat="37.6301717" lon="14.1183083"><ele>361.5</ele><time>2026-05-05T13:51:09.176Z</time></trkpt><trkpt lat="37.6303933" lon="14.1181917"><ele>362.0</ele><time>2026-05-05T13:51:10.176Z</time></trkpt><trkpt lat="37.6306067" lon="14.1180733"><ele>362.0</ele><time>2026-05-05T13:51:11.176Z</time></trkpt><trkpt lat="37.6308217" lon="14.1179617"><ele>362.0</ele><time>2026-05-05T13:51:12.176Z</time></trkpt><trkpt lat="37.631035" lon="14.117855"><ele>363.5</ele><time>2026-05-05T13:51:13.176Z</time></trkpt><trkpt lat="37.631245" lon="14.1177417"><ele>365.0</ele><time>2026-05-05T13:51:14.176Z</time></trkpt><trkpt lat="37.6314633" lon="14.1176283"><ele>365.0</ele><time>2026-05-05T13:51:15.176Z</time></trkpt><trkpt lat="37.63168" lon="14.1175217"><ele>365.0</ele><time>2026-05-05T13:51:16.176Z</time></trkpt><trkpt lat="37.6318967" lon="14.117415"><ele>365.5</ele><time>2026-05-05T13:51:17.177Z</time></trkpt><trkpt lat="37.6321133" lon="14.1173067"><ele>366.0</ele><time>2026-05-05T13:51:18.175Z</time></trkpt><trkpt lat="37.632325" lon="14.1172033"><ele>366.0</ele><time>2026-05-05T13:51:19.176Z</time></trkpt><trkpt lat="37.6325383" lon="14.1171"><ele>366.0</ele><time>2026-05-05T13:51:20.175Z</time></trkpt><trkpt lat="37.6327533" lon="14.1169917"><ele>368.0</ele><time>2026-05-05T13:51:21.175Z</time></trkpt><trkpt lat="37.6329683" lon="14.1168867"><ele>370.0</ele><time>2026-05-05T13:51:22.176Z</time></trkpt><trkpt lat="37.6331867" lon="14.1167867"><ele>370.0</ele><time>2026-05-05T13:51:23.175Z</time></trkpt><trkpt lat="37.6333983" lon="14.1166833"><ele>370.0</ele><time>2026-05-05T13:51:24.175Z</time></trkpt><trkpt lat="37.6336133" lon="14.1165867"><ele>372.5</ele><time>2026-05-05T13:51:25.175Z</time></trkpt><trkpt lat="37.6338333" lon="14.11649"><ele>375.0</ele><time>2026-05-05T13:51:26.175Z</time></trkpt><trkpt lat="37.6340583" lon="14.1163933"><ele>375.0</ele><time>2026-05-05T13:51:27.175Z</time></trkpt><trkpt lat="37.634285" lon="14.116305"><ele>375.0</ele><time>2026-05-05T13:51:28.175Z</time></trkpt><trkpt lat="37.6345067" lon="14.116205"><ele>377.0</ele><time>2026-05-05T13:51:29.175Z</time></trkpt><trkpt lat="37.6347217" lon="14.11611"><ele>379.0</ele><time>2026-05-05T13:51:30.175Z</time></trkpt><trkpt lat="37.6349367" lon="14.1160167"><ele>379.0</ele><time>2026-05-05T13:51:31.175Z</time></trkpt><trkpt lat="37.6351583" lon="14.1159183"><ele>379.0</ele><time>2026-05-05T13:51:32.176Z</time></trkpt><trkpt lat="37.635375" lon="14.1158233"><ele>376.0</ele><time>2026-05-05T13:51:33.175Z</time></trkpt><trkpt lat="37.635595" lon="14.1157283"><ele>373.0</ele><time>2026-05-05T13:51:34.175Z</time></trkpt><trkpt lat="37.6358117" lon="14.1156333"><ele>373.0</ele><time>2026-05-05T13:51:35.175Z</time></trkpt><trkpt lat="37.6360317" lon="14.115535"><ele>373.0</ele><time>2026-05-05T13:51:36.175Z</time></trkpt><trkpt lat="37.6362533" lon="14.1154383"><ele>372.0</ele><time>2026-05-05T13:51:37.175Z</time></trkpt><trkpt lat="37.636475" lon="14.1153467"><ele>371.0</ele><time>2026-05-05T13:51:38.175Z</time></trkpt><trkpt lat="37.6366867" lon="14.1152467"><ele>371.0</ele><time>2026-05-05T13:51:39.175Z</time></trkpt><trkpt lat="37.6369067" lon="14.1151483"><ele>371.0</ele><time>2026-05-05T13:51:40.175Z</time></trkpt><trkpt lat="37.6371283" lon="14.1150533"><ele>371.0</ele><time>2026-05-05T13:51:41.175Z</time></trkpt><trkpt lat="37.6373467" lon="14.1149567"><ele>371.0</ele><time>2026-05-05T13:51:42.175Z</time></trkpt><trkpt lat="37.637565" lon="14.1148567"><ele>371.0</ele><time>2026-05-05T13:51:43.175Z</time></trkpt><trkpt lat="37.6377867" lon="14.1147633"><ele>371.0</ele><time>2026-05-05T13:51:44.175Z</time></trkpt><trkpt lat="37.6380067" lon="14.1146733"><ele>371.0</ele><time>2026-05-05T13:51:45.175Z</time></trkpt><trkpt lat="37.6382283" lon="14.1145817"><ele>371.0</ele><time>2026-05-05T13:51:46.175Z</time></trkpt><trkpt lat="37.6384467" lon="14.1144883"><ele>374.0</ele><time>2026-05-05T13:51:47.175Z</time></trkpt><trkpt lat="37.6386667" lon="14.1143933"><ele>377.0</ele><time>2026-05-05T13:51:48.175Z</time></trkpt><trkpt lat="37.6388883" lon="14.11431"><ele>377.0</ele><time>2026-05-05T13:51:49.175Z</time></trkpt><trkpt lat="37.6391117" lon="14.114235"><ele>377.0</ele><time>2026-05-05T13:51:50.175Z</time></trkpt><trkpt lat="37.6393333" lon="14.1141617"><ele>376.0</ele><time>2026-05-05T13:51:51.175Z</time></trkpt><trkpt lat="37.639555" lon="14.1140867"><ele>375.0</ele><time>2026-05-05T13:51:52.175Z</time></trkpt><trkpt lat="37.6397783" lon="14.1140117"><ele>378.0</ele><time>2026-05-05T13:51:53.176Z</time></trkpt><trkpt lat="37.6400017" lon="14.11394"><ele>381.0</ele><time>2026-05-05T13:51:54.175Z</time></trkpt><trkpt lat="37.6402283" lon="14.1138683"><ele>381.0</ele><time>2026-05-05T13:51:55.176Z</time></trkpt><trkpt lat="37.640455" lon="14.1137917"><ele>381.0</ele><time>2026-05-05T13:51:56.175Z</time></trkpt><trkpt lat="37.6406817" lon="14.1137233"><ele>381.0</ele><time>2026-05-05T13:51:57.175Z</time></trkpt><trkpt lat="37.6409083" lon="14.1136483"><ele>381.0</ele><time>2026-05-05T13:51:58.175Z</time></trkpt><trkpt lat="37.6411317" lon="14.1135733"><ele>380.0</ele><time>2026-05-05T13:51:59.176Z</time></trkpt><trkpt lat="37.6413533" lon="14.1135017"><ele>379.0</ele><time>2026-05-05T13:52:00.175Z</time></trkpt><trkpt lat="37.6415817" lon="14.1134317"><ele>379.0</ele><time>2026-05-05T13:52:01.175Z</time></trkpt><trkpt lat="37.641805" lon="14.11336"><ele>379.0</ele><time>2026-05-05T13:52:02.175Z</time></trkpt><trkpt lat="37.6420267" lon="14.11329"><ele>380.0</ele><time>2026-05-05T13:52:03.175Z</time></trkpt><trkpt lat="37.6422533" lon="14.1132183"><ele>381.0</ele><time>2026-05-05T13:52:04.176Z</time></trkpt><trkpt lat="37.6424783" lon="14.1131433"><ele>381.0</ele><time>2026-05-05T13:52:05.175Z</time></trkpt><trkpt lat="37.6427033" lon="14.1130733"><ele>381.0</ele><time>2026-05-05T13:52:06.176Z</time></trkpt><trkpt lat="37.6429283" lon="14.1130067"><ele>379.5</ele><time>2026-05-05T13:52:07.175Z</time></trkpt><trkpt lat="37.64316" lon="14.1129417"><ele>378.0</ele><time>2026-05-05T13:52:08.175Z</time></trkpt><trkpt lat="37.6433817" lon="14.1128733"><ele>378.0</ele><time>2026-05-05T13:52:09.175Z</time></trkpt><trkpt lat="37.6436033" lon="14.1128017"><ele>378.0</ele><time>2026-05-05T13:52:10.175Z</time></trkpt><trkpt lat="37.6438333" lon="14.112735"><ele>379.0</ele><time>2026-05-05T13:52:11.175Z</time></trkpt><trkpt lat="37.6440617" lon="14.1126683"><ele>380.0</ele><time>2026-05-05T13:52:12.175Z</time></trkpt><trkpt lat="37.644285" lon="14.112605"><ele>379.5</ele><time>2026-05-05T13:52:13.175Z</time></trkpt><trkpt lat="37.64451" lon="14.1125467"><ele>379.0</ele><time>2026-05-05T13:52:14.175Z</time></trkpt><trkpt lat="37.6447383" lon="14.1124883"><ele>379.0</ele><time>2026-05-05T13:52:15.175Z</time></trkpt><trkpt lat="37.6449667" lon="14.1124333"><ele>379.0</ele><time>2026-05-05T13:52:16.175Z</time></trkpt><trkpt lat="37.6451917" lon="14.11238"><ele>378.0</ele><time>2026-05-05T13:52:17.176Z</time></trkpt><trkpt lat="37.6454183" lon="14.1123217"><ele>377.0</ele><time>2026-05-05T13:52:18.176Z</time></trkpt><trkpt lat="37.645645" lon="14.1122733"><ele>377.0</ele><time>2026-05-05T13:52:19.175Z</time></trkpt><trkpt lat="37.645875" lon="14.112225"><ele>377.0</ele><time>2026-05-05T13:52:20.175Z</time></trkpt><trkpt lat="37.6461033" lon="14.112175"><ele>378.0</ele><time>2026-05-05T13:52:21.175Z</time></trkpt><trkpt lat="37.64633" lon="14.1121233"><ele>379.0</ele><time>2026-05-05T13:52:22.176Z</time></trkpt><trkpt lat="37.64656" lon="14.1120733"><ele>379.0</ele><time>2026-05-05T13:52:23.175Z</time></trkpt><trkpt lat="37.6467867" lon="14.1120283"><ele>379.0</ele><time>2026-05-05T13:52:24.175Z</time></trkpt><trkpt lat="37.6470183" lon="14.111975"><ele>381.5</ele><time>2026-05-05T13:52:25.176Z</time></trkpt><trkpt lat="37.647245" lon="14.1119217"><ele>384.0</ele><time>2026-05-05T13:52:26.175Z</time></trkpt><trkpt lat="37.64747" lon="14.11187"><ele>384.0</ele><time>2026-05-05T13:52:27.175Z</time></trkpt><trkpt lat="37.647695" lon="14.11182"><ele>384.0</ele><time>2026-05-05T13:52:28.175Z</time></trkpt><trkpt lat="37.6479267" lon="14.1117683"><ele>384.5</ele><time>2026-05-05T13:52:29.175Z</time></trkpt><trkpt lat="37.6481567" lon="14.1117117"><ele>385.0</ele><time>2026-05-05T13:52:30.175Z</time></trkpt><trkpt lat="37.6483867" lon="14.1116667"><ele>385.0</ele><time>2026-05-05T13:52:31.175Z</time></trkpt><trkpt lat="37.6486183" lon="14.1116133"><ele>385.0</ele><time>2026-05-05T13:52:32.175Z</time></trkpt><trkpt lat="37.648845" lon="14.1115583"><ele>384.5</ele><time>2026-05-05T13:52:33.176Z</time></trkpt><trkpt lat="37.64907" lon="14.1115033"><ele>384.0</ele><time>2026-05-05T13:52:34.175Z</time></trkpt><trkpt lat="37.6492933" lon="14.11145"><ele>387.0</ele><time>2026-05-05T13:52:35.176Z</time></trkpt><trkpt lat="37.6495183" lon="14.1114017"><ele>390.0</ele><time>2026-05-05T13:52:36.175Z</time></trkpt><trkpt lat="37.6497483" lon="14.1113467"><ele>390.0</ele><time>2026-05-05T13:52:37.176Z</time></trkpt><trkpt lat="37.649975" lon="14.111285"><ele>390.0</ele><time>2026-05-05T13:52:38.175Z</time></trkpt><trkpt lat="37.6502067" lon="14.1112317"><ele>389.5</ele><time>2026-05-05T13:52:39.175Z</time></trkpt><trkpt lat="37.6504317" lon="14.1111783"><ele>389.0</ele><time>2026-05-05T13:52:40.175Z</time></trkpt><trkpt lat="37.65066" lon="14.111125"><ele>389.0</ele><time>2026-05-05T13:52:41.175Z</time></trkpt><trkpt lat="37.65089" lon="14.1110683"><ele>389.0</ele><time>2026-05-05T13:52:42.175Z</time></trkpt><trkpt lat="37.6511183" lon="14.1110033"><ele>388.5</ele><time>2026-05-05T13:52:43.176Z</time></trkpt><trkpt lat="37.6513517" lon="14.1109417"><ele>388.0</ele><time>2026-05-05T13:52:44.176Z</time></trkpt><trkpt lat="37.6515833" lon="14.1108767"><ele>388.0</ele><time>2026-05-05T13:52:45.175Z</time></trkpt><trkpt lat="37.6517983" lon="14.1107967"><ele>388.0</ele><time>2026-05-05T13:52:46.175Z</time></trkpt><trkpt lat="37.6520233" lon="14.110715"><ele>388.5</ele><time>2026-05-05T13:52:47.175Z</time></trkpt><trkpt lat="37.6522467" lon="14.1106233"><ele>389.0</ele><time>2026-05-05T13:52:48.175Z</time></trkpt><trkpt lat="37.65247" lon="14.1105283"><ele>389.0</ele><time>2026-05-05T13:52:49.176Z</time></trkpt><trkpt lat="37.6526917" lon="14.1104333"><ele>389.0</ele><time>2026-05-05T13:52:50.176Z</time></trkpt><trkpt lat="37.6529067" lon="14.1103283"><ele>389.5</ele><time>2026-05-05T13:52:51.175Z</time></trkpt><trkpt lat="37.6531233" lon="14.110215"><ele>390.0</ele><time>2026-05-05T13:52:52.175Z</time></trkpt><trkpt lat="37.65333" lon="14.11009"><ele>390.0</ele><time>2026-05-05T13:52:53.175Z</time></trkpt><trkpt lat="37.6535367" lon="14.109965"><ele>390.0</ele><time>2026-05-05T13:52:54.175Z</time></trkpt><trkpt lat="37.6537433" lon="14.1098317"><ele>391.5</ele><time>2026-05-05T13:52:55.175Z</time></trkpt><trkpt lat="37.65395" lon="14.1096967"><ele>393.0</ele><time>2026-05-05T13:52:56.175Z</time></trkpt><trkpt lat="37.654155" lon="14.1095583"><ele>393.0</ele><time>2026-05-05T13:52:57.175Z</time></trkpt><trkpt lat="37.6543533" lon="14.1094133"><ele>393.0</ele><time>2026-05-05T13:52:58.175Z</time></trkpt><trkpt lat="37.6545567" lon="14.1092667"><ele>391.0</ele><time>2026-05-05T13:52:59.175Z</time></trkpt><trkpt lat="37.654755" lon="14.1091233"><ele>389.0</ele><time>2026-05-05T13:53:00.175Z</time></trkpt><trkpt lat="37.6549533" lon="14.10898"><ele>389.0</ele><time>2026-05-05T13:53:01.175Z</time></trkpt><trkpt lat="37.655155" lon="14.10883"><ele>389.0</ele><time>2026-05-05T13:53:02.175Z</time></trkpt><trkpt lat="37.6553583" lon="14.1086767"><ele>389.5</ele><time>2026-05-05T13:53:03.175Z</time></trkpt><trkpt lat="37.6555567" lon="14.1085233"><ele>390.0</ele><time>2026-05-05T13:53:04.175Z</time></trkpt><trkpt lat="37.6557567" lon="14.1083717"><ele>390.5</ele><time>2026-05-05T13:53:05.175Z</time></trkpt><trkpt lat="37.6559567" lon="14.108225"><ele>391.0</ele><time>2026-05-05T13:53:06.176Z</time></trkpt><trkpt lat="37.6561517" lon="14.1080733"><ele>393.0</ele><time>2026-05-05T13:53:07.175Z</time></trkpt><trkpt lat="37.656355" lon="14.1079233"><ele>395.0</ele><time>2026-05-05T13:53:08.175Z</time></trkpt><trkpt lat="37.656555" lon="14.1077783"><ele>395.0</ele><time>2026-05-05T13:53:09.175Z</time></trkpt><trkpt lat="37.65675" lon="14.1076267"><ele>395.0</ele><time>2026-05-05T13:53:10.176Z</time></trkpt><trkpt lat="37.6569467" lon="14.10747"><ele>395.5</ele><time>2026-05-05T13:53:11.175Z</time></trkpt><trkpt lat="37.657145" lon="14.10732"><ele>396.0</ele><time>2026-05-05T13:53:12.175Z</time></trkpt><trkpt lat="37.6573417" lon="14.107165"><ele>396.0</ele><time>2026-05-05T13:53:13.175Z</time></trkpt><trkpt lat="37.657535" lon="14.1070017"><ele>396.0</ele><time>2026-05-05T13:53:14.175Z</time></trkpt><trkpt lat="37.6577183" lon="14.1068317"><ele>396.5</ele><time>2026-05-05T13:53:15.175Z</time></trkpt><trkpt lat="37.6579067" lon="14.1066567"><ele>397.0</ele><time>2026-05-05T13:53:16.175Z</time></trkpt><trkpt lat="37.65808" lon="14.1064733"><ele>397.0</ele><time>2026-05-05T13:53:17.175Z</time></trkpt><trkpt lat="37.6582567" lon="14.1062817"><ele>397.0</ele><time>2026-05-05T13:53:18.175Z</time></trkpt><trkpt lat="37.658425" lon="14.1060817"><ele>397.0</ele><time>2026-05-05T13:53:19.175Z</time></trkpt><trkpt lat="37.6585933" lon="14.1058767"><ele>397.0</ele><time>2026-05-05T13:53:20.175Z</time></trkpt><trkpt lat="37.6587517" lon="14.105665"><ele>396.5</ele><time>2026-05-05T13:53:21.175Z</time></trkpt><trkpt lat="37.6589133" lon="14.1054517"><ele>396.0</ele><time>2026-05-05T13:53:22.175Z</time></trkpt><trkpt lat="37.6590583" lon="14.1052283"><ele>396.0</ele><time>2026-05-05T13:53:23.175Z</time></trkpt><trkpt lat="37.6592083" lon="14.1049983"><ele>396.0</ele><time>2026-05-05T13:53:24.175Z</time></trkpt><trkpt lat="37.659345" lon="14.1047583"><ele>396.5</ele><time>2026-05-05T13:53:25.175Z</time></trkpt><trkpt lat="37.659475" lon="14.1045167"><ele>397.0</ele><time>2026-05-05T13:53:26.175Z</time></trkpt><trkpt lat="37.6595983" lon="14.10427"><ele>398.0</ele><time>2026-05-05T13:53:27.175Z</time></trkpt><trkpt lat="37.6597167" lon="14.104015"><ele>399.0</ele><time>2026-05-05T13:53:28.175Z</time></trkpt><trkpt lat="37.6598183" lon="14.103755"><ele>399.0</ele><time>2026-05-05T13:53:29.176Z</time></trkpt><trkpt lat="37.65993" lon="14.10349"><ele>399.0</ele><time>2026-05-05T13:53:30.175Z</time></trkpt><trkpt lat="37.660025" lon="14.103225"><ele>399.0</ele><time>2026-05-05T13:53:31.175Z</time></trkpt><trkpt lat="37.6601183" lon="14.1029633"><ele>399.0</ele><time>2026-05-05T13:53:32.176Z</time></trkpt><trkpt lat="37.660205" lon="14.1026917"><ele>399.0</ele><time>2026-05-05T13:53:33.175Z</time></trkpt><trkpt lat="37.66028" lon="14.102415"><ele>399.0</ele><time>2026-05-05T13:53:34.175Z</time></trkpt><trkpt lat="37.6603517" lon="14.1021317"><ele>398.5</ele><time>2026-05-05T13:53:35.175Z</time></trkpt><trkpt lat="37.66042" lon="14.1018483"><ele>398.0</ele><time>2026-05-05T13:53:36.175Z</time></trkpt><trkpt lat="37.660485" lon="14.10157"><ele>398.0</ele><time>2026-05-05T13:53:37.175Z</time></trkpt><trkpt lat="37.66053" lon="14.1012817"><ele>398.0</ele><time>2026-05-05T13:53:38.175Z</time></trkpt><trkpt lat="37.6605683" lon="14.1009917"><ele>397.5</ele><time>2026-05-05T13:53:39.175Z</time></trkpt><trkpt lat="37.660605" lon="14.1007033"><ele>397.0</ele><time>2026-05-05T13:53:40.175Z</time></trkpt><trkpt lat="37.660635" lon="14.100415"><ele>397.0</ele><time>2026-05-05T13:53:41.175Z</time></trkpt><trkpt lat="37.660665" lon="14.100125"><ele>397.0</ele><time>2026-05-05T13:53:42.175Z</time></trkpt><trkpt lat="37.66069" lon="14.099835"><ele>397.5</ele><time>2026-05-05T13:53:43.176Z</time></trkpt><trkpt lat="37.6607067" lon="14.09954"><ele>398.0</ele><time>2026-05-05T13:53:44.175Z</time></trkpt><trkpt lat="37.6607217" lon="14.09925"><ele>400.0</ele><time>2026-05-05T13:53:45.175Z</time></trkpt><trkpt lat="37.6607417" lon="14.0989633"><ele>402.0</ele><time>2026-05-05T13:53:46.175Z</time></trkpt><trkpt lat="37.66076" lon="14.0986717"><ele>402.0</ele><time>2026-05-05T13:53:47.175Z</time></trkpt><trkpt lat="37.6607733" lon="14.098385"><ele>402.0</ele><time>2026-05-05T13:53:48.175Z</time></trkpt><trkpt lat="37.6607933" lon="14.0980883"><ele>402.0</ele><time>2026-05-05T13:53:49.175Z</time></trkpt><trkpt lat="37.660815" lon="14.0978017"><ele>402.0</ele><time>2026-05-05T13:53:50.176Z</time></trkpt><trkpt lat="37.6608333" lon="14.097515"><ele>401.0</ele><time>2026-05-05T13:53:51.175Z</time></trkpt><trkpt lat="37.6608483" lon="14.097225"><ele>400.0</ele><time>2026-05-05T13:53:52.175Z</time></trkpt><trkpt lat="37.660865" lon="14.0969333"><ele>400.0</ele><time>2026-05-05T13:53:53.175Z</time></trkpt><trkpt lat="37.6608817" lon="14.096645"><ele>400.0</ele><time>2026-05-05T13:53:54.175Z</time></trkpt><trkpt lat="37.6609017" lon="14.0963533"><ele>400.5</ele><time>2026-05-05T13:53:55.175Z</time></trkpt><trkpt lat="37.6609233" lon="14.0960617"><ele>401.0</ele><time>2026-05-05T13:53:56.175Z</time></trkpt><trkpt lat="37.66094" lon="14.09577"><ele>402.5</ele><time>2026-05-05T13:53:57.176Z</time></trkpt><trkpt lat="37.6609617" lon="14.09548"><ele>404.0</ele><time>2026-05-05T13:53:58.176Z</time></trkpt><trkpt lat="37.660985" lon="14.0952"><ele>403.5</ele><time>2026-05-05T13:53:59.175Z</time></trkpt><trkpt lat="37.6610067" lon="14.0949067"><ele>403.0</ele><time>2026-05-05T13:54:00.175Z</time></trkpt><trkpt lat="37.66103" lon="14.09463"><ele>403.0</ele><time>2026-05-05T13:54:01.175Z</time></trkpt><trkpt lat="37.6610483" lon="14.094365"><ele>403.0</ele><time>2026-05-05T13:54:02.175Z</time></trkpt><trkpt lat="37.661065" lon="14.0940983"><ele>403.0</ele><time>2026-05-05T13:54:03.175Z</time></trkpt><trkpt lat="37.661085" lon="14.093835"><ele>403.6666666666667</ele><time>2026-05-05T13:54:04.175Z</time></trkpt><trkpt lat="37.6611067" lon="14.0935767"><ele>404.33333333333337</ele><time>2026-05-05T13:54:05.175Z</time></trkpt><trkpt lat="37.661125" lon="14.09333"><ele>405.0</ele><time>2026-05-05T13:54:06.175Z</time></trkpt><trkpt lat="37.6611433" lon="14.09309"><ele>408.33333333333337</ele><time>2026-05-05T13:54:07.175Z</time></trkpt><trkpt lat="37.6611633" lon="14.0928533"><ele>411.6666666666667</ele><time>2026-05-05T13:54:08.175Z</time></trkpt><trkpt lat="37.6611817" lon="14.09261"><ele>415.0</ele><time>2026-05-05T13:54:09.175Z</time></trkpt><trkpt lat="37.6612017" lon="14.0923683"><ele>415.6666666666667</ele><time>2026-05-05T13:54:10.175Z</time></trkpt><trkpt lat="37.6612217" lon="14.0921317"><ele>416.33333333333337</ele><time>2026-05-05T13:54:11.175Z</time></trkpt><trkpt lat="37.6612417" lon="14.091895"><ele>417.0</ele><time>2026-05-05T13:54:12.175Z</time></trkpt><trkpt lat="37.661265" lon="14.091655"><ele>417.33333333333337</ele><time>2026-05-05T13:54:13.175Z</time></trkpt><trkpt lat="37.6612933" lon="14.0914233"><ele>417.6666666666667</ele><time>2026-05-05T13:54:14.175Z</time></trkpt><trkpt lat="37.6613217" lon="14.091185"><ele>418.0</ele><time>2026-05-05T13:54:15.175Z</time></trkpt><trkpt lat="37.661345" lon="14.0909467"><ele>417.33333333333337</ele><time>2026-05-05T13:54:16.175Z</time></trkpt><trkpt lat="37.6613667" lon="14.0907033"><ele>416.66666666666663</ele><time>2026-05-05T13:54:17.176Z</time></trkpt><trkpt lat="37.6613867" lon="14.0904583"><ele>416.0</ele><time>2026-05-05T13:54:18.176Z</time></trkpt><trkpt lat="37.661405" lon="14.0902117"><ele>416.0</ele><time>2026-05-05T13:54:19.175Z</time></trkpt><trkpt lat="37.6614233" lon="14.0899567"><ele>416.0</ele><time>2026-05-05T13:54:20.175Z</time></trkpt><trkpt lat="37.6614417" lon="14.0897017"><ele>416.0</ele><time>2026-05-05T13:54:21.176Z</time></trkpt><trkpt lat="37.661465" lon="14.08945"><ele>415.66666666666663</ele><time>2026-05-05T13:54:22.175Z</time></trkpt><trkpt lat="37.6614833" lon="14.0892033"><ele>415.33333333333337</ele><time>2026-05-05T13:54:23.175Z</time></trkpt><trkpt lat="37.6614933" lon="14.0889517"><ele>415.0</ele><time>2026-05-05T13:54:24.175Z</time></trkpt><trkpt lat="37.6615133" lon="14.0887017"><ele>415.0</ele><time>2026-05-05T13:54:25.175Z</time></trkpt><trkpt lat="37.6615267" lon="14.0884533"><ele>415.0</ele><time>2026-05-05T13:54:26.175Z</time></trkpt><trkpt lat="37.66154" lon="14.088205"><ele>415.0</ele><time>2026-05-05T13:54:27.175Z</time></trkpt><trkpt lat="37.6615567" lon="14.08796"><ele>414.33333333333337</ele><time>2026-05-05T13:54:28.175Z</time></trkpt><trkpt lat="37.6615683" lon="14.0877033"><ele>413.66666666666663</ele><time>2026-05-05T13:54:29.175Z</time></trkpt><trkpt lat="37.6615767" lon="14.087455"><ele>413.0</ele><time>2026-05-05T13:54:30.176Z</time></trkpt><trkpt lat="37.6615917" lon="14.0872067"><ele>413.0</ele><time>2026-05-05T13:54:31.175Z</time></trkpt><trkpt lat="37.6615983" lon="14.086955"><ele>413.0</ele><time>2026-05-05T13:54:32.176Z</time></trkpt><trkpt lat="37.661605" lon="14.0867083"><ele>413.0</ele><time>2026-05-05T13:54:33.175Z</time></trkpt><trkpt lat="37.66161" lon="14.0864567"><ele>412.0</ele><time>2026-05-05T13:54:34.175Z</time></trkpt><trkpt lat="37.6616033" lon="14.0862083"><ele>411.0</ele><time>2026-05-05T13:54:35.175Z</time></trkpt><trkpt lat="37.6615917" lon="14.0859567"><ele>410.0</ele><time>2026-05-05T13:54:36.175Z</time></trkpt><trkpt lat="37.66158" lon="14.085705"><ele>410.0</ele><time>2026-05-05T13:54:37.175Z</time></trkpt><trkpt lat="37.6615717" lon="14.0854583"><ele>410.0</ele><time>2026-05-05T13:54:38.176Z</time></trkpt><trkpt lat="37.661555" lon="14.0852083"><ele>410.0</ele><time>2026-05-05T13:54:39.175Z</time></trkpt><trkpt lat="37.6615367" lon="14.0849583"><ele>410.0</ele><time>2026-05-05T13:54:40.175Z</time></trkpt><trkpt lat="37.66152" lon="14.0847083"><ele>410.0</ele><time>2026-05-05T13:54:41.175Z</time></trkpt><trkpt lat="37.66151" lon="14.0844617"><ele>410.0</ele><time>2026-05-05T13:54:42.175Z</time></trkpt><trkpt lat="37.66149" lon="14.0842133"><ele>410.0</ele><time>2026-05-05T13:54:43.175Z</time></trkpt><trkpt lat="37.661475" lon="14.08396"><ele>410.0</ele><time>2026-05-05T13:54:44.175Z</time></trkpt><trkpt lat="37.661455" lon="14.08371"><ele>410.0</ele><time>2026-05-05T13:54:45.176Z</time></trkpt><trkpt lat="37.6614417" lon="14.0834567"><ele>409.66666666666663</ele><time>2026-05-05T13:54:46.175Z</time></trkpt><trkpt lat="37.661425" lon="14.08321"><ele>409.33333333333337</ele><time>2026-05-05T13:54:47.175Z</time></trkpt><trkpt lat="37.6614083" lon="14.082965"><ele>409.0</ele><time>2026-05-05T13:54:48.176Z</time></trkpt><trkpt lat="37.66139" lon="14.0827117"><ele>409.0</ele><time>2026-05-05T13:54:49.175Z</time></trkpt><trkpt lat="37.6613767" lon="14.0824617"><ele>409.0</ele><time>2026-05-05T13:54:50.175Z</time></trkpt><trkpt lat="37.66136" lon="14.0822133"><ele>409.0</ele><time>2026-05-05T13:54:51.175Z</time></trkpt><trkpt lat="37.6613417" lon="14.0819633"><ele>408.6666666666667</ele><time>2026-05-05T13:54:52.175Z</time></trkpt><trkpt lat="37.6613267" lon="14.081715"><ele>408.33333333333337</ele><time>2026-05-05T13:54:53.176Z</time></trkpt><trkpt lat="37.661305" lon="14.08147"><ele>408.0</ele><time>2026-05-05T13:54:54.175Z</time></trkpt><trkpt lat="37.6612833" lon="14.0812267"><ele>408.66666666666663</ele><time>2026-05-05T13:54:55.175Z</time></trkpt><trkpt lat="37.66126" lon="14.0809767"><ele>409.3333333333333</ele><time>2026-05-05T13:54:56.175Z</time></trkpt><trkpt lat="37.6612433" lon="14.0807233"><ele>410.0</ele><time>2026-05-05T13:54:57.175Z</time></trkpt><trkpt lat="37.6612317" lon="14.0804717"><ele>411.66666666666663</ele><time>2026-05-05T13:54:58.175Z</time></trkpt><trkpt lat="37.6612133" lon="14.0802217"><ele>413.33333333333337</ele><time>2026-05-05T13:54:59.176Z</time></trkpt><trkpt lat="37.6612" lon="14.0799683"><ele>415.0</ele><time>2026-05-05T13:55:00.175Z</time></trkpt><trkpt lat="37.66118" lon="14.07972"><ele>418.0</ele><time>2026-05-05T13:55:01.175Z</time></trkpt><trkpt lat="37.6611667" lon="14.079475"><ele>421.0</ele><time>2026-05-05T13:55:02.176Z</time></trkpt><trkpt lat="37.6611467" lon="14.07923"><ele>424.0</ele><time>2026-05-05T13:55:03.176Z</time></trkpt><trkpt lat="37.661125" lon="14.07898"><ele>421.6666666666667</ele><time>2026-05-05T13:55:04.176Z</time></trkpt><trkpt lat="37.6611067" lon="14.0787283"><ele>419.33333333333337</ele><time>2026-05-05T13:55:05.175Z</time></trkpt><trkpt lat="37.66109" lon="14.078475"><ele>417.0</ele><time>2026-05-05T13:55:06.175Z</time></trkpt><trkpt lat="37.66108" lon="14.078225"><ele>417.0</ele><time>2026-05-05T13:55:07.175Z</time></trkpt><trkpt lat="37.6610617" lon="14.0779767"><ele>417.0</ele><time>2026-05-05T13:55:08.175Z</time></trkpt><trkpt lat="37.6610367" lon="14.0777283"><ele>417.0</ele><time>2026-05-05T13:55:09.175Z</time></trkpt><trkpt lat="37.66102" lon="14.0774833"><ele>416.66666666666663</ele><time>2026-05-05T13:55:10.175Z</time></trkpt><trkpt lat="37.6609983" lon="14.0772317"><ele>416.3333333333333</ele><time>2026-05-05T13:55:11.175Z</time></trkpt><trkpt lat="37.6609783" lon="14.0769817"><ele>416.0</ele><time>2026-05-05T13:55:12.175Z</time></trkpt><trkpt lat="37.660965" lon="14.07674"><ele>414.0</ele><time>2026-05-05T13:55:13.175Z</time></trkpt><trkpt lat="37.6609517" lon="14.0764933"><ele>412.0</ele><time>2026-05-05T13:55:14.176Z</time></trkpt><trkpt lat="37.6609467" lon="14.0762417"><ele>410.0</ele><time>2026-05-05T13:55:15.175Z</time></trkpt><trkpt lat="37.6609383" lon="14.07599"><ele>411.0</ele><time>2026-05-05T13:55:16.175Z</time></trkpt><trkpt lat="37.660935" lon="14.075735"><ele>412.0</ele><time>2026-05-05T13:55:17.175Z</time></trkpt><trkpt lat="37.6609333" lon="14.075485"><ele>413.0</ele><time>2026-05-05T13:55:18.175Z</time></trkpt><trkpt lat="37.6609367" lon="14.0752267"><ele>413.0</ele><time>2026-05-05T13:55:19.175Z</time></trkpt><trkpt lat="37.660945" lon="14.07498"><ele>413.0</ele><time>2026-05-05T13:55:20.175Z</time></trkpt><trkpt lat="37.6609633" lon="14.07473"><ele>413.0</ele><time>2026-05-05T13:55:21.175Z</time></trkpt><trkpt lat="37.6609767" lon="14.0744833"><ele>414.3333333333333</ele><time>2026-05-05T13:55:22.175Z</time></trkpt><trkpt lat="37.6609983" lon="14.074235"><ele>415.66666666666663</ele><time>2026-05-05T13:55:23.175Z</time></trkpt><trkpt lat="37.6610233" lon="14.0739917"><ele>417.0</ele><time>2026-05-05T13:55:24.175Z</time></trkpt><trkpt lat="37.6610567" lon="14.0737433"><ele>417.0</ele><time>2026-05-05T13:55:25.175Z</time></trkpt><trkpt lat="37.6610933" lon="14.073485"><ele>417.0</ele><time>2026-05-05T13:55:26.175Z</time></trkpt><trkpt lat="37.66114" lon="14.0732183"><ele>417.0</ele><time>2026-05-05T13:55:27.175Z</time></trkpt><trkpt lat="37.6611867" lon="14.072955"><ele>417.0</ele><time>2026-05-05T13:55:28.176Z</time></trkpt><trkpt lat="37.6612417" lon="14.0726933"><ele>417.0</ele><time>2026-05-05T13:55:29.175Z</time></trkpt><trkpt lat="37.6612933" lon="14.0724217"><ele>417.0</ele><time>2026-05-05T13:55:30.175Z</time></trkpt><trkpt lat="37.66136" lon="14.0721533"><ele>417.33333333333337</ele><time>2026-05-05T13:55:31.175Z</time></trkpt><trkpt lat="37.6614233" lon="14.0718883"><ele>417.6666666666667</ele><time>2026-05-05T13:55:32.176Z</time></trkpt><trkpt lat="37.6614883" lon="14.07162"><ele>418.0</ele><time>2026-05-05T13:55:33.175Z</time></trkpt><trkpt lat="37.66155" lon="14.071355"><ele>418.6666666666667</ele><time>2026-05-05T13:55:34.175Z</time></trkpt><trkpt lat="37.6616167" lon="14.0710967"><ele>419.33333333333337</ele><time>2026-05-05T13:55:35.175Z</time></trkpt><trkpt lat="37.6616783" lon="14.0708283"><ele>420.0</ele><time>2026-05-05T13:55:36.175Z</time></trkpt><trkpt lat="37.6617433" lon="14.07057"><ele>421.0</ele><time>2026-05-05T13:55:37.175Z</time></trkpt><trkpt lat="37.6618033" lon="14.0703017"><ele>422.0</ele><time>2026-05-05T13:55:38.175Z</time></trkpt><trkpt lat="37.661875" lon="14.07004"><ele>423.0</ele><time>2026-05-05T13:55:39.175Z</time></trkpt><trkpt lat="37.6619367" lon="14.0697733"><ele>422.66666666666663</ele><time>2026-05-05T13:55:40.175Z</time></trkpt><trkpt lat="37.662005" lon="14.0695117"><ele>422.3333333333333</ele><time>2026-05-05T13:55:41.176Z</time></trkpt><trkpt lat="37.66207" lon="14.0692483"><ele>422.0</ele><time>2026-05-05T13:55:42.175Z</time></trkpt><trkpt lat="37.6621417" lon="14.0689783"><ele>422.0</ele><time>2026-05-05T13:55:43.175Z</time></trkpt><trkpt lat="37.6622167" lon="14.0687183"><ele>422.0</ele><time>2026-05-05T13:55:44.175Z</time></trkpt><trkpt lat="37.6622733" lon="14.0684467"><ele>422.0</ele><time>2026-05-05T13:55:45.175Z</time></trkpt><trkpt lat="37.662335" lon="14.06818"><ele>422.0</ele><time>2026-05-05T13:55:46.176Z</time></trkpt><trkpt lat="37.662395" lon="14.0679117"><ele>422.0</ele><time>2026-05-05T13:55:47.175Z</time></trkpt><trkpt lat="37.6624633" lon="14.0676567"><ele>422.0</ele><time>2026-05-05T13:55:48.175Z</time></trkpt><trkpt lat="37.662525" lon="14.0673917"><ele>422.3333333333333</ele><time>2026-05-05T13:55:49.175Z</time></trkpt><trkpt lat="37.662595" lon="14.0671283"><ele>422.66666666666663</ele><time>2026-05-05T13:55:50.175Z</time></trkpt><trkpt lat="37.662675" lon="14.06687"><ele>423.0</ele><time>2026-05-05T13:55:51.175Z</time></trkpt><trkpt lat="37.662755" lon="14.06661"><ele>424.66666666666663</ele><time>2026-05-05T13:55:52.175Z</time></trkpt><trkpt lat="37.66284" lon="14.066355"><ele>426.3333333333333</ele><time>2026-05-05T13:55:53.176Z</time></trkpt><trkpt lat="37.6629283" lon="14.0661"><ele>428.0</ele><time>2026-05-05T13:55:54.175Z</time></trkpt><trkpt lat="37.6630317" lon="14.0658583"><ele>427.66666666666663</ele><time>2026-05-05T13:55:55.175Z</time></trkpt><trkpt lat="37.6631333" lon="14.0656083"><ele>427.33333333333337</ele><time>2026-05-05T13:55:56.175Z</time></trkpt><trkpt lat="37.6632417" lon="14.06537"><ele>427.0</ele><time>2026-05-05T13:55:57.175Z</time></trkpt><trkpt lat="37.6633633" lon="14.0651433"><ele>427.0</ele><time>2026-05-05T13:55:58.176Z</time></trkpt><trkpt lat="37.6634817" lon="14.06491"><ele>427.0</ele><time>2026-05-05T13:55:59.175Z</time></trkpt><trkpt lat="37.6636067" lon="14.0646833"><ele>427.0</ele><time>2026-05-05T13:56:00.175Z</time></trkpt><trkpt lat="37.6637467" lon="14.0644683"><ele>427.6666666666667</ele><time>2026-05-05T13:56:01.175Z</time></trkpt><trkpt lat="37.663885" lon="14.064255"><ele>428.33333333333337</ele><time>2026-05-05T13:56:02.175Z</time></trkpt><trkpt lat="37.6640317" lon="14.0640433"><ele>429.0</ele><time>2026-05-05T13:56:03.175Z</time></trkpt><trkpt lat="37.6641917" lon="14.0638467"><ele>428.33333333333337</ele><time>2026-05-05T13:56:04.175Z</time></trkpt><trkpt lat="37.66435" lon="14.0636533"><ele>427.6666666666667</ele><time>2026-05-05T13:56:05.176Z</time></trkpt><trkpt lat="37.6645083" lon="14.063465"><ele>427.0</ele><time>2026-05-05T13:56:06.175Z</time></trkpt><trkpt lat="37.6646683" lon="14.06327"><ele>426.33333333333337</ele><time>2026-05-05T13:56:07.175Z</time></trkpt><trkpt lat="37.66483" lon="14.0630767"><ele>425.66666666666663</ele><time>2026-05-05T13:56:08.175Z</time></trkpt><trkpt lat="37.6649933" lon="14.0628983"><ele>425.0</ele><time>2026-05-05T13:56:09.176Z</time></trkpt><trkpt lat="37.66515" lon="14.06271"><ele>425.3333333333333</ele><time>2026-05-05T13:56:10.175Z</time></trkpt><trkpt lat="37.6653117" lon="14.0625183"><ele>425.66666666666663</ele><time>2026-05-05T13:56:11.175Z</time></trkpt><trkpt lat="37.6654717" lon="14.0623283"><ele>426.0</ele><time>2026-05-05T13:56:12.175Z</time></trkpt><trkpt lat="37.6656317" lon="14.062145"><ele>426.66666666666663</ele><time>2026-05-05T13:56:13.175Z</time></trkpt><trkpt lat="37.665795" lon="14.061965"><ele>427.3333333333333</ele><time>2026-05-05T13:56:14.175Z</time></trkpt><trkpt lat="37.6659567" lon="14.06178"><ele>428.0</ele><time>2026-05-05T13:56:15.175Z</time></trkpt><trkpt lat="37.6661267" lon="14.0615917"><ele>428.0</ele><time>2026-05-05T13:56:16.175Z</time></trkpt><trkpt lat="37.6662867" lon="14.0614033"><ele>428.0</ele><time>2026-05-05T13:56:17.175Z</time></trkpt><trkpt lat="37.66645" lon="14.06122"><ele>428.0</ele><time>2026-05-05T13:56:18.176Z</time></trkpt><trkpt lat="37.6666117" lon="14.061035"><ele>428.0</ele><time>2026-05-05T13:56:19.175Z</time></trkpt><trkpt lat="37.6667733" lon="14.060845"><ele>428.0</ele><time>2026-05-05T13:56:20.176Z</time></trkpt><trkpt lat="37.6669367" lon="14.0606567"><ele>428.0</ele><time>2026-05-05T13:56:21.176Z</time></trkpt><trkpt lat="37.6671067" lon="14.0604767"><ele>428.3333333333333</ele><time>2026-05-05T13:56:22.176Z</time></trkpt><trkpt lat="37.6672617" lon="14.0602833"><ele>428.66666666666663</ele><time>2026-05-05T13:56:23.175Z</time></trkpt><trkpt lat="37.6674267" lon="14.0600933"><ele>429.0</ele><time>2026-05-05T13:56:24.175Z</time></trkpt><trkpt lat="37.66759" lon="14.0599017"><ele>429.0</ele><time>2026-05-05T13:56:25.175Z</time></trkpt><trkpt lat="37.667755" lon="14.0597067"><ele>429.0</ele><time>2026-05-05T13:56:26.175Z</time></trkpt><trkpt lat="37.66792" lon="14.0595167"><ele>429.0</ele><time>2026-05-05T13:56:27.175Z</time></trkpt><trkpt lat="37.6680817" lon="14.0593383"><ele>429.33333333333337</ele><time>2026-05-05T13:56:28.175Z</time></trkpt><trkpt lat="37.66824" lon="14.0591517"><ele>429.6666666666667</ele><time>2026-05-05T13:56:29.176Z</time></trkpt><trkpt lat="37.6684" lon="14.0589633"><ele>430.0</ele><time>2026-05-05T13:56:30.175Z</time></trkpt><trkpt lat="37.6685633" lon="14.0587833"><ele>430.6666666666667</ele><time>2026-05-05T13:56:31.175Z</time></trkpt><trkpt lat="37.668725" lon="14.0585967"><ele>431.33333333333337</ele><time>2026-05-05T13:56:32.175Z</time></trkpt><trkpt lat="37.66888" lon="14.0584033"><ele>432.0</ele><time>2026-05-05T13:56:33.175Z</time></trkpt><trkpt lat="37.6690467" lon="14.0582133"><ele>432.33333333333337</ele><time>2026-05-05T13:56:34.175Z</time></trkpt><trkpt lat="37.669215" lon="14.0580267"><ele>432.6666666666667</ele><time>2026-05-05T13:56:35.175Z</time></trkpt><trkpt lat="37.6693733" lon="14.0578383"><ele>433.0</ele><time>2026-05-05T13:56:36.175Z</time></trkpt><trkpt lat="37.66954" lon="14.057655"><ele>433.0</ele><time>2026-05-05T13:56:37.175Z</time></trkpt><trkpt lat="37.669705" lon="14.0574717"><ele>433.0</ele><time>2026-05-05T13:56:38.175Z</time></trkpt><trkpt lat="37.6698717" lon="14.05729"><ele>433.0</ele><time>2026-05-05T13:56:39.176Z</time></trkpt><trkpt lat="37.6700317" lon="14.0570967"><ele>433.0</ele><time>2026-05-05T13:56:40.175Z</time></trkpt><trkpt lat="37.67019" lon="14.0569017"><ele>433.0</ele><time>2026-05-05T13:56:41.175Z</time></trkpt><trkpt lat="37.6703567" lon="14.0567083"><ele>433.0</ele><time>2026-05-05T13:56:42.175Z</time></trkpt><trkpt lat="37.6705133" lon="14.0565183"><ele>434.33333333333337</ele><time>2026-05-05T13:56:43.176Z</time></trkpt><trkpt lat="37.6706783" lon="14.0563333"><ele>435.66666666666663</ele><time>2026-05-05T13:56:44.175Z</time></trkpt><trkpt lat="37.6708417" lon="14.0561533"><ele>437.0</ele><time>2026-05-05T13:56:45.175Z</time></trkpt><trkpt lat="37.6709967" lon="14.05596"><ele>438.3333333333333</ele><time>2026-05-05T13:56:46.176Z</time></trkpt><trkpt lat="37.6711583" lon="14.0557733"><ele>439.66666666666663</ele><time>2026-05-05T13:56:47.175Z</time></trkpt><trkpt lat="37.6713283" lon="14.0556017"><ele>441.0</ele><time>2026-05-05T13:56:48.175Z</time></trkpt><trkpt lat="37.6714917" lon="14.0554167"><ele>441.0</ele><time>2026-05-05T13:56:49.175Z</time></trkpt><trkpt lat="37.6716633" lon="14.0552433"><ele>441.0</ele><time>2026-05-05T13:56:50.175Z</time></trkpt><trkpt lat="37.671845" lon="14.0550833"><ele>441.0</ele><time>2026-05-05T13:56:51.176Z</time></trkpt><trkpt lat="37.672025" lon="14.0549167"><ele>439.66666666666663</ele><time>2026-05-05T13:56:52.175Z</time></trkpt><trkpt lat="37.6722133" lon="14.054765"><ele>438.3333333333333</ele><time>2026-05-05T13:56:53.175Z</time></trkpt><trkpt lat="37.672405" lon="14.054625"><ele>437.0</ele><time>2026-05-05T13:56:54.176Z</time></trkpt><trkpt lat="37.6725983" lon="14.0544933"><ele>436.66666666666663</ele><time>2026-05-05T13:56:55.175Z</time></trkpt><trkpt lat="37.6727883" lon="14.0543617"><ele>436.33333333333337</ele><time>2026-05-05T13:56:56.175Z</time></trkpt><trkpt lat="37.672985" lon="14.0542317"><ele>436.0</ele><time>2026-05-05T13:56:57.175Z</time></trkpt><trkpt lat="37.6731833" lon="14.0541117"><ele>436.0</ele><time>2026-05-05T13:56:58.176Z</time></trkpt><trkpt lat="37.6733883" lon="14.0540017"><ele>436.0</ele><time>2026-05-05T13:56:59.175Z</time></trkpt><trkpt lat="37.6735917" lon="14.0539067"><ele>436.0</ele><time>2026-05-05T13:57:00.176Z</time></trkpt><trkpt lat="37.6737983" lon="14.0538233"><ele>436.33333333333337</ele><time>2026-05-05T13:57:01.175Z</time></trkpt><trkpt lat="37.674005" lon="14.0537383"><ele>436.66666666666663</ele><time>2026-05-05T13:57:02.176Z</time></trkpt><trkpt lat="37.67421" lon="14.0536617"><ele>437.0</ele><time>2026-05-05T13:57:03.175Z</time></trkpt><trkpt lat="37.67442" lon="14.053595"><ele>437.3333333333333</ele><time>2026-05-05T13:57:04.175Z</time></trkpt><trkpt lat="37.6746317" lon="14.0535417"><ele>437.66666666666663</ele><time>2026-05-05T13:57:05.175Z</time></trkpt><trkpt lat="37.6748533" lon="14.053495"><ele>438.0</ele><time>2026-05-05T13:57:06.176Z</time></trkpt><trkpt lat="37.6750733" lon="14.0534533"><ele>437.66666666666663</ele><time>2026-05-05T13:57:07.175Z</time></trkpt><trkpt lat="37.6752883" lon="14.053415"><ele>437.3333333333333</ele><time>2026-05-05T13:57:08.175Z</time></trkpt><trkpt lat="37.6755067" lon="14.053385"><ele>437.0</ele><time>2026-05-05T13:57:09.175Z</time></trkpt><trkpt lat="37.675725" lon="14.0533617"><ele>437.0</ele><time>2026-05-05T13:57:10.175Z</time></trkpt><trkpt lat="37.6759433" lon="14.0533467"><ele>437.0</ele><time>2026-05-05T13:57:11.175Z</time></trkpt><trkpt lat="37.6761667" lon="14.05334"><ele>437.0</ele><time>2026-05-05T13:57:12.175Z</time></trkpt><trkpt lat="37.6763867" lon="14.0533333"><ele>437.3333333333333</ele><time>2026-05-05T13:57:13.175Z</time></trkpt><trkpt lat="37.6766083" lon="14.0533317"><ele>437.66666666666663</ele><time>2026-05-05T13:57:14.176Z</time></trkpt><trkpt lat="37.6768283" lon="14.0533317"><ele>438.0</ele><time>2026-05-05T13:57:15.175Z</time></trkpt><trkpt lat="37.6770483" lon="14.0533267"><ele>439.0</ele><time>2026-05-05T13:57:16.175Z</time></trkpt><trkpt lat="37.67727" lon="14.0533333"><ele>440.0</ele><time>2026-05-05T13:57:17.176Z</time></trkpt><trkpt lat="37.6774917" lon="14.05333"><ele>441.0</ele><time>2026-05-05T13:57:18.175Z</time></trkpt><trkpt lat="37.67771" lon="14.053325"><ele>442.33333333333337</ele><time>2026-05-05T13:57:19.176Z</time></trkpt><trkpt lat="37.67793" lon="14.0533233"><ele>443.6666666666667</ele><time>2026-05-05T13:57:20.175Z</time></trkpt><trkpt lat="37.6781517" lon="14.0533183"><ele>445.0</ele><time>2026-05-05T13:57:21.175Z</time></trkpt><trkpt lat="37.6783683" lon="14.05332"><ele>445.0</ele><time>2026-05-05T13:57:22.176Z</time></trkpt><trkpt lat="37.6785867" lon="14.0533133"><ele>445.0</ele><time>2026-05-05T13:57:23.175Z</time></trkpt><trkpt lat="37.678805" lon="14.053305"><ele>445.0</ele><time>2026-05-05T13:57:24.175Z</time></trkpt><trkpt lat="37.67903" lon="14.0532983"><ele>447.0</ele><time>2026-05-05T13:57:25.175Z</time></trkpt><trkpt lat="37.6792517" lon="14.0532967"><ele>449.0</ele><time>2026-05-05T13:57:26.175Z</time></trkpt><trkpt lat="37.6794717" lon="14.0532917"><ele>451.0</ele><time>2026-05-05T13:57:27.175Z</time></trkpt><trkpt lat="37.67969" lon="14.05329"><ele>451.6666666666667</ele><time>2026-05-05T13:57:28.175Z</time></trkpt><trkpt lat="37.679915" lon="14.05329"><ele>452.33333333333337</ele><time>2026-05-05T13:57:29.175Z</time></trkpt><trkpt lat="37.6801333" lon="14.0532883"><ele>453.0</ele><time>2026-05-05T13:57:30.175Z</time></trkpt><trkpt lat="37.680355" lon="14.0532883"><ele>459.0</ele><time>2026-05-05T13:57:31.175Z</time></trkpt><trkpt lat="37.680575" lon="14.0532883"><ele>465.0</ele><time>2026-05-05T13:57:32.175Z</time></trkpt><trkpt lat="37.6807933" lon="14.0532783"><ele>471.0</ele><time>2026-05-05T13:57:33.175Z</time></trkpt><trkpt lat="37.6810133" lon="14.05328"><ele>473.66666666666663</ele><time>2026-05-05T13:57:34.175Z</time></trkpt><trkpt lat="37.6812333" lon="14.053285"><ele>476.3333333333333</ele><time>2026-05-05T13:57:35.175Z</time></trkpt><trkpt lat="37.6814467" lon="14.0532833"><ele>479.0</ele><time>2026-05-05T13:57:36.175Z</time></trkpt><trkpt lat="37.6816667" lon="14.05328"><ele>479.0</ele><time>2026-05-05T13:57:37.175Z</time></trkpt><trkpt lat="37.6818883" lon="14.0532717"><ele>479.0</ele><time>2026-05-05T13:57:38.175Z</time></trkpt><trkpt lat="37.6821133" lon="14.0532667"><ele>479.0</ele><time>2026-05-05T13:57:39.175Z</time></trkpt><trkpt lat="37.6823267" lon="14.0532483"><ele>478.0</ele><time>2026-05-05T13:57:40.175Z</time></trkpt><trkpt lat="37.682555" lon="14.0532383"><ele>477.0</ele><time>2026-05-05T13:57:41.175Z</time></trkpt><trkpt lat="37.682785" lon="14.0532267"><ele>473.33333333333337</ele><time>2026-05-05T13:57:42.175Z</time></trkpt><trkpt lat="37.682995" lon="14.053245"><ele>469.6666666666667</ele><time>2026-05-05T13:57:43.176Z</time></trkpt><trkpt lat="37.6832117" lon="14.0532483"><ele>466.0</ele><time>2026-05-05T13:57:44.175Z</time></trkpt><trkpt lat="37.683435" lon="14.053255"><ele>464.33333333333337</ele><time>2026-05-05T13:57:45.176Z</time></trkpt><trkpt lat="37.6836567" lon="14.0532567"><ele>462.66666666666663</ele><time>2026-05-05T13:57:46.175Z</time></trkpt><trkpt lat="37.6838717" lon="14.0532517"><ele>461.0</ele><time>2026-05-05T13:57:47.175Z</time></trkpt><trkpt lat="37.684095" lon="14.0532433"><ele>461.0</ele><time>2026-05-05T13:57:48.175Z</time></trkpt><trkpt lat="37.6843067" lon="14.0532467"><ele>461.0</ele><time>2026-05-05T13:57:49.175Z</time></trkpt><trkpt lat="37.6845233" lon="14.0532517"><ele>461.0</ele><time>2026-05-05T13:57:50.175Z</time></trkpt><trkpt lat="37.6847467" lon="14.0532583"><ele>461.0</ele><time>2026-05-05T13:57:51.175Z</time></trkpt><trkpt lat="37.68497" lon="14.0532567"><ele>461.0</ele><time>2026-05-05T13:57:52.175Z</time></trkpt><trkpt lat="37.685195" lon="14.05326"><ele>461.0</ele><time>2026-05-05T13:57:53.175Z</time></trkpt><trkpt lat="37.68542" lon="14.0532617"><ele>461.0</ele><time>2026-05-05T13:57:54.175Z</time></trkpt><trkpt lat="37.68564" lon="14.0532633"><ele>461.0</ele><time>2026-05-05T13:57:55.175Z</time></trkpt><trkpt lat="37.68586" lon="14.0532633"><ele>461.0</ele><time>2026-05-05T13:57:56.175Z</time></trkpt><trkpt lat="37.6860767" lon="14.0532583"><ele>464.0</ele><time>2026-05-05T13:57:57.175Z</time></trkpt><trkpt lat="37.6862933" lon="14.053245"><ele>467.0</ele><time>2026-05-05T13:57:58.176Z</time></trkpt><trkpt lat="37.6865133" lon="14.05323"><ele>470.0</ele><time>2026-05-05T13:57:59.175Z</time></trkpt><trkpt lat="37.686725" lon="14.053215"><ele>471.3333333333333</ele><time>2026-05-05T13:58:00.175Z</time></trkpt><trkpt lat="37.686945" lon="14.0531983"><ele>472.66666666666663</ele><time>2026-05-05T13:58:01.175Z</time></trkpt><trkpt lat="37.687165" lon="14.053185"><ele>474.0</ele><time>2026-05-05T13:58:02.175Z</time></trkpt><trkpt lat="37.6873767" lon="14.05316"><ele>474.0</ele><time>2026-05-05T13:58:03.175Z</time></trkpt><trkpt lat="37.6876" lon="14.05314"><ele>474.0</ele><time>2026-05-05T13:58:04.175Z</time></trkpt><trkpt lat="37.6878233" lon="14.0531117"><ele>474.0</ele><time>2026-05-05T13:58:05.175Z</time></trkpt><trkpt lat="37.68804" lon="14.053075"><ele>476.0</ele><time>2026-05-05T13:58:06.176Z</time></trkpt><trkpt lat="37.688265" lon="14.053035"><ele>478.0</ele><time>2026-05-05T13:58:07.175Z</time></trkpt><trkpt lat="37.6884733" lon="14.0530017"><ele>480.0</ele><time>2026-05-05T13:58:08.175Z</time></trkpt><trkpt lat="37.6886917" lon="14.0529667"><ele>480.0</ele><time>2026-05-05T13:58:09.175Z</time></trkpt><trkpt lat="37.68891" lon="14.052925"><ele>480.0</ele><time>2026-05-05T13:58:10.175Z</time></trkpt><trkpt lat="37.6891317" lon="14.0528717"><ele>480.0</ele><time>2026-05-05T13:58:11.175Z</time></trkpt><trkpt lat="37.68936" lon="14.05282"><ele>477.0</ele><time>2026-05-05T13:58:12.175Z</time></trkpt><trkpt lat="37.6895783" lon="14.052765"><ele>474.0</ele><time>2026-05-05T13:58:13.175Z</time></trkpt><trkpt lat="37.68981" lon="14.0527167"><ele>474.0</ele><time>2026-05-05T13:58:14.175Z</time></trkpt><trkpt lat="37.6900383" lon="14.0526667"><ele>474.0</ele><time>2026-05-05T13:58:15.175Z</time></trkpt><trkpt lat="37.690265" lon="14.0526167"><ele>471.0</ele><time>2026-05-05T13:58:16.176Z</time></trkpt><trkpt lat="37.6904967" lon="14.05257"><ele>468.0</ele><time>2026-05-05T13:58:17.175Z</time></trkpt><trkpt lat="37.69073" lon="14.052515"><ele>468.0</ele><time>2026-05-05T13:58:18.175Z</time></trkpt><trkpt lat="37.69096" lon="14.0524583"><ele>468.0</ele><time>2026-05-05T13:58:19.175Z</time></trkpt><trkpt lat="37.6911883" lon="14.0523967"><ele>469.0</ele><time>2026-05-05T13:58:20.175Z</time></trkpt><trkpt lat="37.6914167" lon="14.0523467"><ele>470.0</ele><time>2026-05-05T13:58:21.175Z</time></trkpt><trkpt lat="37.6916467" lon="14.052305"><ele>470.0</ele><time>2026-05-05T13:58:22.175Z</time></trkpt><trkpt lat="37.6918767" lon="14.052255"><ele>470.0</ele><time>2026-05-05T13:58:23.175Z</time></trkpt><trkpt lat="37.69211" lon="14.0522"><ele>468.5</ele><time>2026-05-05T13:58:24.175Z</time></trkpt><trkpt lat="37.692335" lon="14.0521417"><ele>467.0</ele><time>2026-05-05T13:58:25.175Z</time></trkpt><trkpt lat="37.6925617" lon="14.05209"><ele>466.0</ele><time>2026-05-05T13:58:26.175Z</time></trkpt><trkpt lat="37.6927933" lon="14.0520467"><ele>465.0</ele><time>2026-05-05T13:58:27.175Z</time></trkpt><trkpt lat="37.6930217" lon="14.0519933"><ele>465.0</ele><time>2026-05-05T13:58:28.175Z</time></trkpt><trkpt lat="37.693255" lon="14.05194"><ele>465.0</ele><time>2026-05-05T13:58:29.175Z</time></trkpt><trkpt lat="37.6934833" lon="14.051885"><ele>465.5</ele><time>2026-05-05T13:58:30.175Z</time></trkpt><trkpt lat="37.6937133" lon="14.0518283"><ele>466.0</ele><time>2026-05-05T13:58:31.175Z</time></trkpt><trkpt lat="37.6939367" lon="14.0517733"><ele>466.0</ele><time>2026-05-05T13:58:32.175Z</time></trkpt><trkpt lat="37.6941583" lon="14.051715"><ele>466.0</ele><time>2026-05-05T13:58:33.175Z</time></trkpt><trkpt lat="37.6943967" lon="14.05167"><ele>466.5</ele><time>2026-05-05T13:58:34.176Z</time></trkpt><trkpt lat="37.6946233" lon="14.0516267"><ele>467.0</ele><time>2026-05-05T13:58:35.176Z</time></trkpt><trkpt lat="37.6948483" lon="14.0515783"><ele>467.5</ele><time>2026-05-05T13:58:36.176Z</time></trkpt><trkpt lat="37.6950767" lon="14.0515267"><ele>468.0</ele><time>2026-05-05T13:58:37.175Z</time></trkpt><trkpt lat="37.6953" lon="14.0514717"><ele>468.0</ele><time>2026-05-05T13:58:38.175Z</time></trkpt><trkpt lat="37.695525" lon="14.0514217"><ele>468.0</ele><time>2026-05-05T13:58:39.175Z</time></trkpt><trkpt lat="37.6957533" lon="14.0513683"><ele>468.0</ele><time>2026-05-05T13:58:40.175Z</time></trkpt><trkpt lat="37.6959817" lon="14.0513133"><ele>468.0</ele><time>2026-05-05T13:58:41.175Z</time></trkpt><trkpt lat="37.6962133" lon="14.05126"><ele>468.5</ele><time>2026-05-05T13:58:42.176Z</time></trkpt><trkpt lat="37.6964417" lon="14.0512"><ele>469.0</ele><time>2026-05-05T13:58:43.175Z</time></trkpt><trkpt lat="37.6966717" lon="14.0511517"><ele>469.0</ele><time>2026-05-05T13:58:44.176Z</time></trkpt><trkpt lat="37.6969" lon="14.05109"><ele>469.0</ele><time>2026-05-05T13:58:45.175Z</time></trkpt><trkpt lat="37.6971267" lon="14.051035"><ele>472.5</ele><time>2026-05-05T13:58:46.175Z</time></trkpt><trkpt lat="37.6973533" lon="14.0509717"><ele>476.0</ele><time>2026-05-05T13:58:47.175Z</time></trkpt><trkpt lat="37.6975833" lon="14.0509167"><ele>476.0</ele><time>2026-05-05T13:58:48.175Z</time></trkpt><trkpt lat="37.69781" lon="14.0508533"><ele>476.0</ele><time>2026-05-05T13:58:49.175Z</time></trkpt><trkpt lat="37.6980317" lon="14.050785"><ele>476.0</ele><time>2026-05-05T13:58:50.175Z</time></trkpt><trkpt lat="37.6982533" lon="14.0507117"><ele>476.0</ele><time>2026-05-05T13:58:51.175Z</time></trkpt><trkpt lat="37.6984733" lon="14.05063"><ele>475.0</ele><time>2026-05-05T13:58:52.175Z</time></trkpt><trkpt lat="37.698695" lon="14.0505417"><ele>474.0</ele><time>2026-05-05T13:58:53.175Z</time></trkpt><trkpt lat="37.6989167" lon="14.0504583"><ele>474.0</ele><time>2026-05-05T13:58:54.175Z</time></trkpt><trkpt lat="37.699135" lon="14.0503633"><ele>474.0</ele><time>2026-05-05T13:58:55.175Z</time></trkpt><trkpt lat="37.699355" lon="14.0502767"><ele>477.5</ele><time>2026-05-05T13:58:56.175Z</time></trkpt><trkpt lat="37.69957" lon="14.0501717"><ele>481.0</ele><time>2026-05-05T13:58:57.176Z</time></trkpt><trkpt lat="37.6997867" lon="14.0500617"><ele>481.0</ele><time>2026-05-05T13:58:58.175Z</time></trkpt><trkpt lat="37.7000033" lon="14.0499633"><ele>481.0</ele><time>2026-05-05T13:58:59.175Z</time></trkpt><trkpt lat="37.700215" lon="14.04984"><ele>482.0</ele><time>2026-05-05T13:59:00.175Z</time></trkpt><trkpt lat="37.7004283" lon="14.0497283"><ele>483.0</ele><time>2026-05-05T13:59:01.175Z</time></trkpt><trkpt lat="37.7006383" lon="14.0496117"><ele>483.0</ele><time>2026-05-05T13:59:02.175Z</time></trkpt><trkpt lat="37.7008517" lon="14.04949"><ele>483.0</ele><time>2026-05-05T13:59:03.175Z</time></trkpt><trkpt lat="37.70106" lon="14.049365"><ele>482.0</ele><time>2026-05-05T13:59:04.175Z</time></trkpt><trkpt lat="37.7012717" lon="14.0492333"><ele>481.0</ele><time>2026-05-05T13:59:05.175Z</time></trkpt><trkpt lat="37.7014783" lon="14.0490967"><ele>484.5</ele><time>2026-05-05T13:59:06.175Z</time></trkpt><trkpt lat="37.70168" lon="14.048955"><ele>488.0</ele><time>2026-05-05T13:59:07.175Z</time></trkpt><trkpt lat="37.70188" lon="14.048805"><ele>484.0</ele><time>2026-05-05T13:59:08.175Z</time></trkpt><trkpt lat="37.7020817" lon="14.048665"><ele>480.0</ele><time>2026-05-05T13:59:09.175Z</time></trkpt><trkpt lat="37.70228" lon="14.0485133"><ele>480.0</ele><time>2026-05-05T13:59:10.175Z</time></trkpt><trkpt lat="37.70248" lon="14.0483583"><ele>480.0</ele><time>2026-05-05T13:59:11.175Z</time></trkpt><trkpt lat="37.702675" lon="14.0481917"><ele>482.5</ele><time>2026-05-05T13:59:12.175Z</time></trkpt><trkpt lat="37.7028617" lon="14.0480317"><ele>485.0</ele><time>2026-05-05T13:59:13.175Z</time></trkpt><trkpt lat="37.7030517" lon="14.0478683"><ele>485.0</ele><time>2026-05-05T13:59:14.175Z</time></trkpt><trkpt lat="37.7032417" lon="14.0477017"><ele>485.0</ele><time>2026-05-05T13:59:15.175Z</time></trkpt><trkpt lat="37.70343" lon="14.04753"><ele>491.5</ele><time>2026-05-05T13:59:16.175Z</time></trkpt><trkpt lat="37.7036167" lon="14.047355"><ele>498.0</ele><time>2026-05-05T13:59:17.175Z</time></trkpt><trkpt lat="37.7037983" lon="14.04718"><ele>498.0</ele><time>2026-05-05T13:59:18.175Z</time></trkpt><trkpt lat="37.70398" lon="14.0470033"><ele>498.0</ele><time>2026-05-05T13:59:19.175Z</time></trkpt><trkpt lat="37.7041633" lon="14.0468217"><ele>498.0</ele><time>2026-05-05T13:59:20.175Z</time></trkpt><trkpt lat="37.7043467" lon="14.0466383"><ele>498.0</ele><time>2026-05-05T13:59:21.175Z</time></trkpt><trkpt lat="37.7045233" lon="14.0464567"><ele>500.5</ele><time>2026-05-05T13:59:22.175Z</time></trkpt><trkpt lat="37.7047067" lon="14.0462783"><ele>503.0</ele><time>2026-05-05T13:59:23.175Z</time></trkpt><trkpt lat="37.70489" lon="14.0460933"><ele>503.0</ele><time>2026-05-05T13:59:24.175Z</time></trkpt><trkpt lat="37.7050717" lon="14.0459167"><ele>503.0</ele><time>2026-05-05T13:59:25.176Z</time></trkpt><trkpt lat="37.7052567" lon="14.0457383"><ele>504.5</ele><time>2026-05-05T13:59:26.175Z</time></trkpt><trkpt lat="37.7054383" lon="14.0455517"><ele>506.0</ele><time>2026-05-05T13:59:27.175Z</time></trkpt><trkpt lat="37.7056167" lon="14.04537"><ele>506.0</ele><time>2026-05-05T13:59:28.175Z</time></trkpt><trkpt lat="37.7057933" lon="14.04518"><ele>506.0</ele><time>2026-05-05T13:59:29.175Z</time></trkpt><trkpt lat="37.705975" lon="14.045005"><ele>506.5</ele><time>2026-05-05T13:59:30.175Z</time></trkpt><trkpt lat="37.7061617" lon="14.0448183"><ele>507.0</ele><time>2026-05-05T13:59:31.175Z</time></trkpt><trkpt lat="37.7063417" lon="14.04464"><ele>507.0</ele><time>2026-05-05T13:59:32.175Z</time></trkpt><trkpt lat="37.7065233" lon="14.0444567"><ele>507.0</ele><time>2026-05-05T13:59:33.175Z</time></trkpt><trkpt lat="37.7067067" lon="14.0442733"><ele>503.5</ele><time>2026-05-05T13:59:34.175Z</time></trkpt><trkpt lat="37.7068883" lon="14.0440867"><ele>500.0</ele><time>2026-05-05T13:59:35.175Z</time></trkpt><trkpt lat="37.7070683" lon="14.0439083"><ele>500.0</ele><time>2026-05-05T13:59:36.175Z</time></trkpt><trkpt lat="37.707245" lon="14.0437317"><ele>500.0</ele><time>2026-05-05T13:59:37.175Z</time></trkpt><trkpt lat="37.707425" lon="14.0435467"><ele>500.0</ele><time>2026-05-05T13:59:38.175Z</time></trkpt><trkpt lat="37.7076083" lon="14.0433633"><ele>500.0</ele><time>2026-05-05T13:59:39.175Z</time></trkpt><trkpt lat="37.70779" lon="14.0431817"><ele>500.5</ele><time>2026-05-05T13:59:40.175Z</time></trkpt><trkpt lat="37.7079717" lon="14.0429967"><ele>501.0</ele><time>2026-05-05T13:59:41.176Z</time></trkpt><trkpt lat="37.70815" lon="14.04281"><ele>501.0</ele><time>2026-05-05T13:59:42.175Z</time></trkpt><trkpt lat="37.708335" lon="14.04263"><ele>501.0</ele><time>2026-05-05T13:59:43.175Z</time></trkpt><trkpt lat="37.70852" lon="14.0424467"><ele>499.5</ele><time>2026-05-05T13:59:44.175Z</time></trkpt><trkpt lat="37.7087" lon="14.042265"><ele>498.0</ele><time>2026-05-05T13:59:45.175Z</time></trkpt><trkpt lat="37.7088833" lon="14.04208"><ele>498.0</ele><time>2026-05-05T13:59:46.175Z</time></trkpt><trkpt lat="37.7090683" lon="14.0418967"><ele>498.0</ele><time>2026-05-05T13:59:47.175Z</time></trkpt><trkpt lat="37.7092533" lon="14.0417183"><ele>495.5</ele><time>2026-05-05T13:59:48.175Z</time></trkpt><trkpt lat="37.7094383" lon="14.0415383"><ele>493.0</ele><time>2026-05-05T13:59:49.175Z</time></trkpt><trkpt lat="37.7096217" lon="14.041365"><ele>493.0</ele><time>2026-05-05T13:59:50.175Z</time></trkpt><trkpt lat="37.7098083" lon="14.0411917"><ele>493.0</ele><time>2026-05-05T13:59:51.175Z</time></trkpt><trkpt lat="37.7099967" lon="14.04102"><ele>493.0</ele><time>2026-05-05T13:59:52.175Z</time></trkpt><trkpt lat="37.7101867" lon="14.0408617"><ele>493.0</ele><time>2026-05-05T13:59:53.175Z</time></trkpt><trkpt lat="37.7103833" lon="14.0407083"><ele>494.0</ele><time>2026-05-05T13:59:54.175Z</time></trkpt><trkpt lat="37.7105833" lon="14.0405583"><ele>495.0</ele><time>2026-05-05T13:59:55.175Z</time></trkpt><trkpt lat="37.7107817" lon="14.0404183"><ele>495.0</ele><time>2026-05-05T13:59:56.175Z</time></trkpt><trkpt lat="37.7109833" lon="14.0402783"><ele>495.0</ele><time>2026-05-05T13:59:57.175Z</time></trkpt><trkpt lat="37.7111917" lon="14.0401467"><ele>495.0</ele><time>2026-05-05T13:59:58.175Z</time></trkpt><trkpt lat="37.7114" lon="14.0400217"><ele>495.0</ele><time>2026-05-05T13:59:59.175Z</time></trkpt><trkpt lat="37.711615" lon="14.0399083"><ele>496.5</ele><time>2026-05-05T14:00:00.176Z</time></trkpt><trkpt lat="37.7118267" lon="14.0397983"><ele>498.0</ele><time>2026-05-05T14:00:01.175Z</time></trkpt><trkpt lat="37.7120417" lon="14.0396933"><ele>499.0</ele><time>2026-05-05T14:00:02.175Z</time></trkpt><trkpt lat="37.7122567" lon="14.0395967"><ele>500.0</ele><time>2026-05-05T14:00:03.175Z</time></trkpt><trkpt lat="37.71248" lon="14.0395117"><ele>500.0</ele><time>2026-05-05T14:00:04.175Z</time></trkpt><trkpt lat="37.7127033" lon="14.03943"><ele>500.0</ele><time>2026-05-05T14:00:05.176Z</time></trkpt><trkpt lat="37.71292" lon="14.0393483"><ele>500.0</ele><time>2026-05-05T14:00:06.175Z</time></trkpt><trkpt lat="37.713145" lon="14.039275"><ele>500.0</ele><time>2026-05-05T14:00:07.175Z</time></trkpt><trkpt lat="37.71337" lon="14.0392183"><ele>499.5</ele><time>2026-05-05T14:00:08.175Z</time></trkpt><trkpt lat="37.7135933" lon="14.0391633"><ele>499.0</ele><time>2026-05-05T14:00:09.175Z</time></trkpt><trkpt lat="37.7138283" lon="14.03911"><ele>499.0</ele><time>2026-05-05T14:00:10.175Z</time></trkpt><trkpt lat="37.714065" lon="14.0390567"><ele>499.0</ele><time>2026-05-05T14:00:11.175Z</time></trkpt><trkpt lat="37.714295" lon="14.0390183"><ele>501.0</ele><time>2026-05-05T14:00:12.175Z</time></trkpt><trkpt lat="37.7145233" lon="14.0389767"><ele>503.0</ele><time>2026-05-05T14:00:13.175Z</time></trkpt><trkpt lat="37.7147517" lon="14.0389317"><ele>503.0</ele><time>2026-05-05T14:00:14.175Z</time></trkpt><trkpt lat="37.71498" lon="14.0388883"><ele>503.0</ele><time>2026-05-05T14:00:15.175Z</time></trkpt><trkpt lat="37.7152117" lon="14.03884"><ele>508.5</ele><time>2026-05-05T14:00:16.175Z</time></trkpt><trkpt lat="37.7154417" lon="14.0387967"><ele>514.0</ele><time>2026-05-05T14:00:17.175Z</time></trkpt><trkpt lat="37.715675" lon="14.0387533"><ele>514.0</ele><time>2026-05-05T14:00:18.175Z</time></trkpt><trkpt lat="37.7159033" lon="14.038715"><ele>514.0</ele><time>2026-05-05T14:00:19.175Z</time></trkpt><trkpt lat="37.7161317" lon="14.0386767"><ele>518.0</ele><time>2026-05-05T14:00:20.175Z</time></trkpt><trkpt lat="37.7163533" lon="14.0386333"><ele>522.0</ele><time>2026-05-05T14:00:21.175Z</time></trkpt><trkpt lat="37.7165867" lon="14.038595"><ele>522.0</ele><time>2026-05-05T14:00:22.175Z</time></trkpt><trkpt lat="37.7168117" lon="14.0385433"><ele>522.0</ele><time>2026-05-05T14:00:23.175Z</time></trkpt><trkpt lat="37.7170467" lon="14.0385017"><ele>524.5</ele><time>2026-05-05T14:00:24.175Z</time></trkpt><trkpt lat="37.7172767" lon="14.0384567"><ele>527.0</ele><time>2026-05-05T14:00:25.176Z</time></trkpt><trkpt lat="37.7174983" lon="14.03841"><ele>527.0</ele><time>2026-05-05T14:00:26.175Z</time></trkpt><trkpt lat="37.7177283" lon="14.0383617"><ele>527.0</ele><time>2026-05-05T14:00:27.175Z</time></trkpt><trkpt lat="37.71796" lon="14.038315"><ele>523.0</ele><time>2026-05-05T14:00:28.175Z</time></trkpt><trkpt lat="37.71819" lon="14.0382667"><ele>519.0</ele><time>2026-05-05T14:00:29.175Z</time></trkpt><trkpt lat="37.7184217" lon="14.0382167"><ele>520.0</ele><time>2026-05-05T14:00:30.176Z</time></trkpt><trkpt lat="37.718655" lon="14.0381717"><ele>521.0</ele><time>2026-05-05T14:00:31.175Z</time></trkpt><trkpt lat="37.7188817" lon="14.0381083"><ele>521.0</ele><time>2026-05-05T14:00:32.175Z</time></trkpt><trkpt lat="37.7191083" lon="14.0380417"><ele>521.0</ele><time>2026-05-05T14:00:33.175Z</time></trkpt><trkpt lat="37.7193333" lon="14.0379667"><ele>521.0</ele><time>2026-05-05T14:00:34.175Z</time></trkpt><trkpt lat="37.7195533" lon="14.0378867"><ele>521.0</ele><time>2026-05-05T14:00:35.176Z</time></trkpt><trkpt lat="37.7197717" lon="14.0377917"><ele>521.0</ele><time>2026-05-05T14:00:36.175Z</time></trkpt><trkpt lat="37.7199883" lon="14.037685"><ele>521.0</ele><time>2026-05-05T14:00:37.175Z</time></trkpt><trkpt lat="37.7202183" lon="14.0375983"><ele>518.5</ele><time>2026-05-05T14:00:38.175Z</time></trkpt><trkpt lat="37.7204367" lon="14.0374917"><ele>516.0</ele><time>2026-05-05T14:00:39.176Z</time></trkpt><trkpt lat="37.7206567" lon="14.0373817"><ele>514.0</ele><time>2026-05-05T14:00:40.175Z</time></trkpt><trkpt lat="37.7208683" lon="14.0372617"><ele>512.0</ele><time>2026-05-05T14:00:41.175Z</time></trkpt><trkpt lat="37.721075" lon="14.0371317"><ele>512.0</ele><time>2026-05-05T14:00:42.175Z</time></trkpt><trkpt lat="37.721275" lon="14.0370033"><ele>512.0</ele><time>2026-05-05T14:00:43.176Z</time></trkpt><trkpt lat="37.721465" lon="14.0368717"><ele>512.0</ele><time>2026-05-05T14:00:44.176Z</time></trkpt><trkpt lat="37.721645" lon="14.036745"><ele>511.66666666666663</ele><time>2026-05-05T14:00:45.175Z</time></trkpt><trkpt lat="37.72182" lon="14.0366133"><ele>511.33333333333337</ele><time>2026-05-05T14:00:46.175Z</time></trkpt><trkpt lat="37.7220033" lon="14.03647"><ele>511.0</ele><time>2026-05-05T14:00:47.175Z</time></trkpt><trkpt lat="37.722185" lon="14.03632"><ele>513.0</ele><time>2026-05-05T14:00:48.175Z</time></trkpt><trkpt lat="37.72237" lon="14.03616"><ele>515.0</ele><time>2026-05-05T14:00:49.175Z</time></trkpt><trkpt lat="37.72255" lon="14.035995"><ele>517.0</ele><time>2026-05-05T14:00:50.175Z</time></trkpt><trkpt lat="37.7227367" lon="14.0358233"><ele>517.5</ele><time>2026-05-05T14:00:51.175Z</time></trkpt><trkpt lat="37.7229183" lon="14.0356483"><ele>518.0</ele><time>2026-05-05T14:00:52.175Z</time></trkpt><trkpt lat="37.7230967" lon="14.0354633"><ele>518.0</ele><time>2026-05-05T14:00:53.175Z</time></trkpt><trkpt lat="37.7232683" lon="14.0352817"><ele>518.0</ele><time>2026-05-05T14:00:54.176Z</time></trkpt><trkpt lat="37.7234383" lon="14.0350983"><ele>518.0</ele><time>2026-05-05T14:00:55.175Z</time></trkpt><trkpt lat="37.723605" lon="14.034915"><ele>518.0</ele><time>2026-05-05T14:00:56.176Z</time></trkpt><trkpt lat="37.7237683" lon="14.0347267"><ele>518.0</ele><time>2026-05-05T14:00:57.175Z</time></trkpt><trkpt lat="37.72393" lon="14.0345333"><ele>518.0</ele><time>2026-05-05T14:00:58.175Z</time></trkpt><trkpt lat="37.724085" lon="14.0343333"><ele>518.0</ele><time>2026-05-05T14:00:59.176Z</time></trkpt><trkpt lat="37.7242333" lon="14.0341533"><ele>518.0</ele><time>2026-05-05T14:01:00.176Z</time></trkpt><trkpt lat="37.7243717" lon="14.0339783"><ele>518.0</ele><time>2026-05-05T14:01:01.175Z</time></trkpt><trkpt lat="37.7245133" lon="14.03381"><ele>518.6666666666666</ele><time>2026-05-05T14:01:02.176Z</time></trkpt><trkpt lat="37.7246333" lon="14.0336617"><ele>519.3333333333334</ele><time>2026-05-05T14:01:03.175Z</time></trkpt><trkpt lat="37.7247517" lon="14.03351"><ele>520.0</ele><time>2026-05-05T14:01:04.175Z</time></trkpt><trkpt lat="37.72487" lon="14.0333683"><ele>519.6666666666667</ele><time>2026-05-05T14:01:05.175Z</time></trkpt><trkpt lat="37.7249833" lon="14.0332333"><ele>519.3333333333334</ele><time>2026-05-05T14:01:06.175Z</time></trkpt><trkpt lat="37.7250917" lon="14.033105"><ele>519.0</ele><time>2026-05-05T14:01:07.175Z</time></trkpt><trkpt lat="37.7252" lon="14.03298"><ele>519.5</ele><time>2026-05-05T14:01:08.175Z</time></trkpt><trkpt lat="37.725295" lon="14.0328567"><ele>520.0</ele><time>2026-05-05T14:01:09.175Z</time></trkpt><trkpt lat="37.7253933" lon="14.0327267"><ele>520.5</ele><time>2026-05-05T14:01:10.175Z</time></trkpt><trkpt lat="37.7255017" lon="14.0326017"><ele>521.0</ele><time>2026-05-05T14:01:11.175Z</time></trkpt><trkpt lat="37.7256167" lon="14.0324633"><ele>521.0</ele><time>2026-05-05T14:01:12.175Z</time></trkpt><trkpt lat="37.7257267" lon="14.0323333"><ele>521.0</ele><time>2026-05-05T14:01:13.175Z</time></trkpt><trkpt lat="37.72584" lon="14.03219"><ele>521.0</ele><time>2026-05-05T14:01:14.175Z</time></trkpt><trkpt lat="37.7259467" lon="14.0320483"><ele>521.6666666666666</ele><time>2026-05-05T14:01:15.175Z</time></trkpt><trkpt lat="37.726065" lon="14.0319017"><ele>522.3333333333334</ele><time>2026-05-05T14:01:16.175Z</time></trkpt><trkpt lat="37.7261833" lon="14.0317583"><ele>523.0</ele><time>2026-05-05T14:01:17.175Z</time></trkpt><trkpt lat="37.726305" lon="14.03161"><ele>523.0</ele><time>2026-05-05T14:01:18.175Z</time></trkpt><trkpt lat="37.7264333" lon="14.031455"><ele>523.0</ele><time>2026-05-05T14:01:19.175Z</time></trkpt><trkpt lat="37.7265583" lon="14.0313"><ele>523.0</ele><time>2026-05-05T14:01:20.175Z</time></trkpt><trkpt lat="37.7266883" lon="14.031145"><ele>523.0</ele><time>2026-05-05T14:01:21.175Z</time></trkpt><trkpt lat="37.7268183" lon="14.0309883"><ele>523.0</ele><time>2026-05-05T14:01:22.175Z</time></trkpt><trkpt lat="37.7269533" lon="14.0308217"><ele>523.0</ele><time>2026-05-05T14:01:23.175Z</time></trkpt><trkpt lat="37.7270883" lon="14.0306517"><ele>523.3333333333334</ele><time>2026-05-05T14:01:24.175Z</time></trkpt><trkpt lat="37.72723" lon="14.0304733"><ele>523.6666666666666</ele><time>2026-05-05T14:01:25.175Z</time></trkpt><trkpt lat="37.7273767" lon="14.0303033"><ele>524.0</ele><time>2026-05-05T14:01:26.175Z</time></trkpt><trkpt lat="37.727535" lon="14.03014"><ele>524.0</ele><time>2026-05-05T14:01:27.175Z</time></trkpt><trkpt lat="37.7276983" lon="14.0299833"><ele>524.0</ele><time>2026-05-05T14:01:28.175Z</time></trkpt><trkpt lat="37.7278633" lon="14.0298317"><ele>524.0</ele><time>2026-05-05T14:01:29.175Z</time></trkpt><trkpt lat="37.7280367" lon="14.02969"><ele>523.6666666666666</ele><time>2026-05-05T14:01:30.175Z</time></trkpt><trkpt lat="37.7282167" lon="14.0295517"><ele>523.3333333333334</ele><time>2026-05-05T14:01:31.175Z</time></trkpt><trkpt lat="37.7283983" lon="14.029425"><ele>523.0</ele><time>2026-05-05T14:01:32.175Z</time></trkpt><trkpt lat="37.7285867" lon="14.0293067"><ele>524.0</ele><time>2026-05-05T14:01:33.175Z</time></trkpt><trkpt lat="37.7287833" lon="14.0292033"><ele>525.0</ele><time>2026-05-05T14:01:34.176Z</time></trkpt><trkpt lat="37.7289767" lon="14.0291117"><ele>526.0</ele><time>2026-05-05T14:01:35.175Z</time></trkpt><trkpt lat="37.7291817" lon="14.029035"><ele>526.0</ele><time>2026-05-05T14:01:36.175Z</time></trkpt><trkpt lat="37.72939" lon="14.0289683"><ele>526.0</ele><time>2026-05-05T14:01:37.175Z</time></trkpt><trkpt lat="37.7295983" lon="14.0289083"><ele>526.0</ele><time>2026-05-05T14:01:38.175Z</time></trkpt><trkpt lat="37.729805" lon="14.028865"><ele>526.6666666666667</ele><time>2026-05-05T14:01:39.176Z</time></trkpt><trkpt lat="37.73001" lon="14.0288267"><ele>527.3333333333334</ele><time>2026-05-05T14:01:40.175Z</time></trkpt><trkpt lat="37.73021" lon="14.028785"><ele>528.0</ele><time>2026-05-05T14:01:41.175Z</time></trkpt><trkpt lat="37.7304117" lon="14.02874"><ele>529.0</ele><time>2026-05-05T14:01:42.176Z</time></trkpt><trkpt lat="37.7306133" lon="14.0287033"><ele>530.0</ele><time>2026-05-05T14:01:43.175Z</time></trkpt><trkpt lat="37.7308117" lon="14.0286667"><ele>531.0</ele><time>2026-05-05T14:01:44.175Z</time></trkpt><trkpt lat="37.7310133" lon="14.028635"><ele>532.6666666666666</ele><time>2026-05-05T14:01:45.175Z</time></trkpt><trkpt lat="37.731205" lon="14.028595"><ele>534.3333333333333</ele><time>2026-05-05T14:01:46.175Z</time></trkpt><trkpt lat="37.7313967" lon="14.0285533"><ele>536.0</ele><time>2026-05-05T14:01:47.175Z</time></trkpt><trkpt lat="37.731585" lon="14.0285083"><ele>536.0</ele><time>2026-05-05T14:01:48.175Z</time></trkpt><trkpt lat="37.73177" lon="14.0284633"><ele>536.0</ele><time>2026-05-05T14:01:49.175Z</time></trkpt><trkpt lat="37.731955" lon="14.0284083"><ele>536.0</ele><time>2026-05-05T14:01:50.175Z</time></trkpt><trkpt lat="37.7321367" lon="14.0283517"><ele>538.3333333333333</ele><time>2026-05-05T14:01:51.175Z</time></trkpt><trkpt lat="37.7323117" lon="14.02828"><ele>540.6666666666666</ele><time>2026-05-05T14:01:52.175Z</time></trkpt><trkpt lat="37.7324817" lon="14.028205"><ele>543.0</ele><time>2026-05-05T14:01:53.175Z</time></trkpt><trkpt lat="37.732645" lon="14.02813"><ele>541.0</ele><time>2026-05-05T14:01:54.175Z</time></trkpt><trkpt lat="37.73281" lon="14.028045"><ele>539.0</ele><time>2026-05-05T14:01:55.175Z</time></trkpt><trkpt lat="37.73297" lon="14.02795"><ele>537.0</ele><time>2026-05-05T14:01:56.175Z</time></trkpt><trkpt lat="37.7331217" lon="14.0278467"><ele>537.0</ele><time>2026-05-05T14:01:57.175Z</time></trkpt><trkpt lat="37.7332717" lon="14.0277367"><ele>537.0</ele><time>2026-05-05T14:01:58.175Z</time></trkpt><trkpt lat="37.73342" lon="14.02762"><ele>537.0</ele><time>2026-05-05T14:01:59.175Z</time></trkpt><trkpt lat="37.7335617" lon="14.0274933"><ele>539.6666666666666</ele><time>2026-05-05T14:02:00.175Z</time></trkpt><trkpt lat="37.7337083" lon="14.02736"><ele>542.3333333333333</ele><time>2026-05-05T14:02:01.175Z</time></trkpt><trkpt lat="37.7338433" lon="14.0272217"><ele>545.0</ele><time>2026-05-05T14:02:02.175Z</time></trkpt><trkpt lat="37.73398" lon="14.02707"><ele>545.0</ele><time>2026-05-05T14:02:03.175Z</time></trkpt><trkpt lat="37.7341133" lon="14.026915"><ele>545.0</ele><time>2026-05-05T14:02:04.175Z</time></trkpt><trkpt lat="37.7342433" lon="14.0267533"><ele>545.0</ele><time>2026-05-05T14:02:05.176Z</time></trkpt><trkpt lat="37.734365" lon="14.026575"><ele>549.0</ele><time>2026-05-05T14:02:06.175Z</time></trkpt><trkpt lat="37.7344883" lon="14.02639"><ele>553.0</ele><time>2026-05-05T14:02:07.176Z</time></trkpt><trkpt lat="37.7346067" lon="14.0261917"><ele>557.0</ele><time>2026-05-05T14:02:08.176Z</time></trkpt><trkpt lat="37.73472" lon="14.0259883"><ele>554.0</ele><time>2026-05-05T14:02:09.175Z</time></trkpt><trkpt lat="37.7348383" lon="14.0257867"><ele>551.0</ele><time>2026-05-05T14:02:10.175Z</time></trkpt><trkpt lat="37.734945" lon="14.0255767"><ele>548.0</ele><time>2026-05-05T14:02:11.175Z</time></trkpt><trkpt lat="37.7350333" lon="14.025345"><ele>548.0</ele><time>2026-05-05T14:02:12.175Z</time></trkpt><trkpt lat="37.7351117" lon="14.0251083"><ele>548.0</ele><time>2026-05-05T14:02:13.175Z</time></trkpt><trkpt lat="37.7352033" lon="14.02487"><ele>548.0</ele><time>2026-05-05T14:02:14.175Z</time></trkpt><trkpt lat="37.735295" lon="14.0246417"><ele>548.3333333333333</ele><time>2026-05-05T14:02:15.175Z</time></trkpt><trkpt lat="37.735385" lon="14.02441"><ele>548.6666666666666</ele><time>2026-05-05T14:02:16.175Z</time></trkpt><trkpt lat="37.7354733" lon="14.0241717"><ele>549.0</ele><time>2026-05-05T14:02:17.175Z</time></trkpt><trkpt lat="37.7355733" lon="14.0239383"><ele>549.0</ele><time>2026-05-05T14:02:18.175Z</time></trkpt><trkpt lat="37.7356683" lon="14.023705"><ele>549.0</ele><time>2026-05-05T14:02:19.175Z</time></trkpt><trkpt lat="37.7357633" lon="14.0234617"><ele>549.0</ele><time>2026-05-05T14:02:20.176Z</time></trkpt><trkpt lat="37.735855" lon="14.023235"><ele>549.0</ele><time>2026-05-05T14:02:21.175Z</time></trkpt><trkpt lat="37.7359483" lon="14.0230067"><ele>549.0</ele><time>2026-05-05T14:02:22.176Z</time></trkpt><trkpt lat="37.7360367" lon="14.022785"><ele>549.0</ele><time>2026-05-05T14:02:23.175Z</time></trkpt><trkpt lat="37.73612" lon="14.022565"><ele>549.3333333333334</ele><time>2026-05-05T14:02:24.175Z</time></trkpt><trkpt lat="37.736205" lon="14.0223633"><ele>549.6666666666667</ele><time>2026-05-05T14:02:25.175Z</time></trkpt><trkpt lat="37.7362917" lon="14.0221433"><ele>550.0</ele><time>2026-05-05T14:02:26.175Z</time></trkpt><trkpt lat="37.7363783" lon="14.0219233"><ele>550.0</ele><time>2026-05-05T14:02:27.175Z</time></trkpt><trkpt lat="37.7364633" lon="14.0217"><ele>550.0</ele><time>2026-05-05T14:02:28.175Z</time></trkpt><trkpt lat="37.7365583" lon="14.0214817"><ele>550.0</ele><time>2026-05-05T14:02:29.175Z</time></trkpt><trkpt lat="37.7366517" lon="14.021255"><ele>550.0</ele><time>2026-05-05T14:02:30.175Z</time></trkpt><trkpt lat="37.7367433" lon="14.0210267"><ele>550.0</ele><time>2026-05-05T14:02:31.175Z</time></trkpt><trkpt lat="37.7368317" lon="14.0208033"><ele>550.0</ele><time>2026-05-05T14:02:32.175Z</time></trkpt><trkpt lat="37.73692" lon="14.02057"><ele>553.0</ele><time>2026-05-05T14:02:33.175Z</time></trkpt><trkpt lat="37.7370033" lon="14.0203367"><ele>556.0</ele><time>2026-05-05T14:02:34.176Z</time></trkpt><trkpt lat="37.73708" lon="14.0200933"><ele>559.0</ele><time>2026-05-05T14:02:35.176Z</time></trkpt><trkpt lat="37.737155" lon="14.019855"><ele>559.0</ele><time>2026-05-05T14:02:36.175Z</time></trkpt><trkpt lat="37.7372183" lon="14.0196083"><ele>559.0</ele><time>2026-05-05T14:02:37.175Z</time></trkpt><trkpt lat="37.7372883" lon="14.0193567"><ele>559.0</ele><time>2026-05-05T14:02:38.175Z</time></trkpt><trkpt lat="37.737355" lon="14.0191033"><ele>558.6666666666667</ele><time>2026-05-05T14:02:39.175Z</time></trkpt><trkpt lat="37.7374167" lon="14.01885"><ele>558.3333333333334</ele><time>2026-05-05T14:02:40.175Z</time></trkpt><trkpt lat="37.73748" lon="14.0186017"><ele>558.0</ele><time>2026-05-05T14:02:41.175Z</time></trkpt><trkpt lat="37.7375367" lon="14.0183433"><ele>557.3333333333334</ele><time>2026-05-05T14:02:42.175Z</time></trkpt><trkpt lat="37.73759" lon="14.0180767"><ele>556.6666666666667</ele><time>2026-05-05T14:02:43.175Z</time></trkpt><trkpt lat="37.73764" lon="14.0178083"><ele>556.0</ele><time>2026-05-05T14:02:44.175Z</time></trkpt><trkpt lat="37.73768" lon="14.0175433"><ele>557.6666666666667</ele><time>2026-05-05T14:02:45.175Z</time></trkpt><trkpt lat="37.73772" lon="14.0172717"><ele>559.3333333333334</ele><time>2026-05-05T14:02:46.175Z</time></trkpt><trkpt lat="37.737755" lon="14.0169983"><ele>561.0</ele><time>2026-05-05T14:02:47.175Z</time></trkpt><trkpt lat="37.7377883" lon="14.0167183"><ele>563.0</ele><time>2026-05-05T14:02:48.175Z</time></trkpt><trkpt lat="37.7378217" lon="14.0164367"><ele>565.0</ele><time>2026-05-05T14:02:49.175Z</time></trkpt><trkpt lat="37.7378483" lon="14.016155"><ele>565.0</ele><time>2026-05-05T14:02:50.175Z</time></trkpt><trkpt lat="37.7378733" lon="14.015875"><ele>565.0</ele><time>2026-05-05T14:02:51.175Z</time></trkpt><trkpt lat="37.7378983" lon="14.01559"><ele>565.0</ele><time>2026-05-05T14:02:52.175Z</time></trkpt><trkpt lat="37.737925" lon="14.0152983"><ele>565.0</ele><time>2026-05-05T14:02:53.175Z</time></trkpt><trkpt lat="37.7379467" lon="14.01501"><ele>565.0</ele><time>2026-05-05T14:02:54.176Z</time></trkpt><trkpt lat="37.73797" lon="14.0147233"><ele>565.0</ele><time>2026-05-05T14:02:55.176Z</time></trkpt><trkpt lat="37.7379933" lon="14.0144333"><ele>566.0</ele><time>2026-05-05T14:02:56.175Z</time></trkpt><trkpt lat="37.7380167" lon="14.01414"><ele>567.0</ele><time>2026-05-05T14:02:57.175Z</time></trkpt><trkpt lat="37.73804" lon="14.0138483"><ele>567.0</ele><time>2026-05-05T14:02:58.175Z</time></trkpt><trkpt lat="37.7380633" lon="14.0135583"><ele>567.0</ele><time>2026-05-05T14:02:59.175Z</time></trkpt><trkpt lat="37.7380883" lon="14.013265"><ele>567.0</ele><time>2026-05-05T14:03:00.176Z</time></trkpt><trkpt lat="37.7381117" lon="14.0129733"><ele>567.0</ele><time>2026-05-05T14:03:01.176Z</time></trkpt><trkpt lat="37.738135" lon="14.0126883"><ele>568.0</ele><time>2026-05-05T14:03:02.175Z</time></trkpt><trkpt lat="37.7381483" lon="14.0124"><ele>569.0</ele><time>2026-05-05T14:03:03.175Z</time></trkpt><trkpt lat="37.7381683" lon="14.01211"><ele>569.0</ele><time>2026-05-05T14:03:04.175Z</time></trkpt><trkpt lat="37.738195" lon="14.011815"><ele>569.0</ele><time>2026-05-05T14:03:05.176Z</time></trkpt><trkpt lat="37.7382133" lon="14.0115217"><ele>570.5</ele><time>2026-05-05T14:03:06.176Z</time></trkpt><trkpt lat="37.73824" lon="14.011235"><ele>572.0</ele><time>2026-05-05T14:03:07.175Z</time></trkpt><trkpt lat="37.7382617" lon="14.010945"><ele>572.5</ele><time>2026-05-05T14:03:08.175Z</time></trkpt><trkpt lat="37.7382867" lon="14.0106617"><ele>573.0</ele><time>2026-05-05T14:03:09.176Z</time></trkpt><trkpt lat="37.7383183" lon="14.0103717"><ele>573.0</ele><time>2026-05-05T14:03:10.175Z</time></trkpt><trkpt lat="37.7383533" lon="14.010075"><ele>573.0</ele><time>2026-05-05T14:03:11.175Z</time></trkpt><trkpt lat="37.7383883" lon="14.0097883"><ele>573.5</ele><time>2026-05-05T14:03:12.175Z</time></trkpt><trkpt lat="37.73843" lon="14.0095033"><ele>574.0</ele><time>2026-05-05T14:03:13.175Z</time></trkpt><trkpt lat="37.73847" lon="14.0092217"><ele>575.0</ele><time>2026-05-05T14:03:14.175Z</time></trkpt><trkpt lat="37.7385133" lon="14.008935"><ele>576.0</ele><time>2026-05-05T14:03:15.175Z</time></trkpt><trkpt lat="37.7385583" lon="14.008645"><ele>577.5</ele><time>2026-05-05T14:03:16.175Z</time></trkpt><trkpt lat="37.7386133" lon="14.0083533"><ele>579.0</ele><time>2026-05-05T14:03:17.175Z</time></trkpt><trkpt lat="37.73867" lon="14.0080717"><ele>579.0</ele><time>2026-05-05T14:03:18.175Z</time></trkpt><trkpt lat="37.738725" lon="14.00779"><ele>579.0</ele><time>2026-05-05T14:03:19.175Z</time></trkpt><trkpt lat="37.7387833" lon="14.0075033"><ele>578.5</ele><time>2026-05-05T14:03:20.175Z</time></trkpt><trkpt lat="37.7388467" lon="14.00722"><ele>578.0</ele><time>2026-05-05T14:03:21.175Z</time></trkpt><trkpt lat="37.7389117" lon="14.0069467"><ele>578.0</ele><time>2026-05-05T14:03:22.175Z</time></trkpt><trkpt lat="37.73898" lon="14.00667"><ele>578.0</ele><time>2026-05-05T14:03:23.175Z</time></trkpt><trkpt lat="37.7390483" lon="14.00639"><ele>579.0</ele><time>2026-05-05T14:03:24.175Z</time></trkpt><trkpt lat="37.739125" lon="14.00611"><ele>580.0</ele><time>2026-05-05T14:03:25.175Z</time></trkpt><trkpt lat="37.7391967" lon="14.0058283"><ele>580.0</ele><time>2026-05-05T14:03:26.175Z</time></trkpt><trkpt lat="37.739265" lon="14.0055483"><ele>580.0</ele><time>2026-05-05T14:03:27.175Z</time></trkpt><trkpt lat="37.7393317" lon="14.00527"><ele>583.5</ele><time>2026-05-05T14:03:28.175Z</time></trkpt><trkpt lat="37.7394083" lon="14.00499"><ele>587.0</ele><time>2026-05-05T14:03:29.176Z</time></trkpt><trkpt lat="37.73948" lon="14.0047183"><ele>587.0</ele><time>2026-05-05T14:03:30.175Z</time></trkpt><trkpt lat="37.7395633" lon="14.0044367"><ele>587.0</ele><time>2026-05-05T14:03:31.175Z</time></trkpt><trkpt lat="37.73964" lon="14.0041583"><ele>587.5</ele><time>2026-05-05T14:03:32.175Z</time></trkpt><trkpt lat="37.7397167" lon="14.0038783"><ele>588.0</ele><time>2026-05-05T14:03:33.175Z</time></trkpt><trkpt lat="37.7397983" lon="14.0036"><ele>588.0</ele><time>2026-05-05T14:03:34.175Z</time></trkpt><trkpt lat="37.7398683" lon="14.0033333"><ele>588.0</ele><time>2026-05-05T14:03:35.175Z</time></trkpt><trkpt lat="37.73994" lon="14.0030633"><ele>588.0</ele><time>2026-05-05T14:03:36.176Z</time></trkpt><trkpt lat="37.7400167" lon="14.0027883"><ele>588.5</ele><time>2026-05-05T14:03:37.175Z</time></trkpt><trkpt lat="37.7400967" lon="14.0025117"><ele>589.0</ele><time>2026-05-05T14:03:38.175Z</time></trkpt><trkpt lat="37.7401733" lon="14.0022433"><ele>595.0</ele><time>2026-05-05T14:03:39.175Z</time></trkpt><trkpt lat="37.7402517" lon="14.0019683"><ele>601.0</ele><time>2026-05-05T14:03:40.176Z</time></trkpt><trkpt lat="37.7403317" lon="14.0016933"><ele>601.0</ele><time>2026-05-05T14:03:41.175Z</time></trkpt><trkpt lat="37.74041" lon="14.0014217"><ele>601.0</ele><time>2026-05-05T14:03:42.175Z</time></trkpt><trkpt lat="37.740485" lon="14.0011483"><ele>601.0</ele><time>2026-05-05T14:03:43.176Z</time></trkpt><trkpt lat="37.7405633" lon="14.0008817"><ele>601.0</ele><time>2026-05-05T14:03:44.175Z</time></trkpt><trkpt lat="37.74064" lon="14.000605"><ele>600.5</ele><time>2026-05-05T14:03:45.175Z</time></trkpt><trkpt lat="37.7407217" lon="14.0003317"><ele>600.0</ele><time>2026-05-05T14:03:46.176Z</time></trkpt><trkpt lat="37.7408" lon="14.000055"><ele>600.0</ele><time>2026-05-05T14:03:47.176Z</time></trkpt><trkpt lat="37.7408767" lon="13.9997767"><ele>600.0</ele><time>2026-05-05T14:03:48.175Z</time></trkpt><trkpt lat="37.7409533" lon="13.9994933"><ele>600.0</ele><time>2026-05-05T14:03:49.175Z</time></trkpt><trkpt lat="37.7410283" lon="13.99922"><ele>600.0</ele><time>2026-05-05T14:03:50.175Z</time></trkpt><trkpt lat="37.7411083" lon="13.9989417"><ele>605.0</ele><time>2026-05-05T14:03:51.175Z</time></trkpt><trkpt lat="37.7411833" lon="13.99867"><ele>610.0</ele><time>2026-05-05T14:03:52.175Z</time></trkpt><trkpt lat="37.7412583" lon="13.9984"><ele>610.0</ele><time>2026-05-05T14:03:53.175Z</time></trkpt><trkpt lat="37.7413417" lon="13.998125"><ele>610.0</ele><time>2026-05-05T14:03:54.175Z</time></trkpt><trkpt lat="37.741425" lon="13.9978467"><ele>610.0</ele><time>2026-05-05T14:03:55.176Z</time></trkpt><trkpt lat="37.7415033" lon="13.9975667"><ele>610.0</ele><time>2026-05-05T14:03:56.175Z</time></trkpt><trkpt lat="37.74158" lon="13.997295"><ele>607.0</ele><time>2026-05-05T14:03:57.175Z</time></trkpt><trkpt lat="37.74167" lon="13.9970267"><ele>604.0</ele><time>2026-05-05T14:03:58.175Z</time></trkpt><trkpt lat="37.7417633" lon="13.9967633"><ele>606.0</ele><time>2026-05-05T14:03:59.175Z</time></trkpt><trkpt lat="37.7418567" lon="13.9964933"><ele>608.0</ele><time>2026-05-05T14:04:00.176Z</time></trkpt><trkpt lat="37.7419517" lon="13.9962217"><ele>608.0</ele><time>2026-05-05T14:04:01.175Z</time></trkpt><trkpt lat="37.742045" lon="13.995955"><ele>608.0</ele><time>2026-05-05T14:04:02.175Z</time></trkpt><trkpt lat="37.7421367" lon="13.9956933"><ele>604.5</ele><time>2026-05-05T14:04:03.175Z</time></trkpt><trkpt lat="37.7422333" lon="13.9954283"><ele>601.0</ele><time>2026-05-05T14:04:04.175Z</time></trkpt><trkpt lat="37.7423283" lon="13.99516"><ele>601.0</ele><time>2026-05-05T14:04:05.175Z</time></trkpt><trkpt lat="37.7424217" lon="13.9948917"><ele>601.0</ele><time>2026-05-05T14:04:06.175Z</time></trkpt><trkpt lat="37.7425133" lon="13.9946233"><ele>601.0</ele><time>2026-05-05T14:04:07.175Z</time></trkpt><trkpt lat="37.7426067" lon="13.9943533"><ele>601.0</ele><time>2026-05-05T14:04:08.175Z</time></trkpt><trkpt lat="37.7427017" lon="13.994085"><ele>604.5</ele><time>2026-05-05T14:04:09.175Z</time></trkpt><trkpt lat="37.7427867" lon="13.99382"><ele>608.0</ele><time>2026-05-05T14:04:10.175Z</time></trkpt><trkpt lat="37.7428783" lon="13.9935567"><ele>607.0</ele><time>2026-05-05T14:04:11.175Z</time></trkpt><trkpt lat="37.7429767" lon="13.9932883"><ele>606.0</ele><time>2026-05-05T14:04:12.175Z</time></trkpt><trkpt lat="37.7430683" lon="13.9930167"><ele>606.0</ele><time>2026-05-05T14:04:13.175Z</time></trkpt><trkpt lat="37.7431567" lon="13.9927467"><ele>606.0</ele><time>2026-05-05T14:04:14.176Z</time></trkpt><trkpt lat="37.74323" lon="13.992475"><ele>605.5</ele><time>2026-05-05T14:04:15.175Z</time></trkpt><trkpt lat="37.7433033" lon="13.992195"><ele>605.0</ele><time>2026-05-05T14:04:16.175Z</time></trkpt><trkpt lat="37.743375" lon="13.9919167"><ele>607.0</ele><time>2026-05-05T14:04:17.175Z</time></trkpt><trkpt lat="37.7434383" lon="13.99164"><ele>609.0</ele><time>2026-05-05T14:04:18.176Z</time></trkpt><trkpt lat="37.7435" lon="13.9913583"><ele>611.0</ele><time>2026-05-05T14:04:19.175Z</time></trkpt><trkpt lat="37.7435567" lon="13.99108"><ele>613.0</ele><time>2026-05-05T14:04:20.175Z</time></trkpt><trkpt lat="37.7436017" lon="13.9907967"><ele>613.0</ele><time>2026-05-05T14:04:21.175Z</time></trkpt><trkpt lat="37.743655" lon="13.990515"><ele>613.0</ele><time>2026-05-05T14:04:22.175Z</time></trkpt><trkpt lat="37.7437117" lon="13.9902233"><ele>613.0</ele><time>2026-05-05T14:04:23.176Z</time></trkpt><trkpt lat="37.743755" lon="13.98994"><ele>613.0</ele><time>2026-05-05T14:04:24.176Z</time></trkpt><trkpt lat="37.7438067" lon="13.98966"><ele>613.0</ele><time>2026-05-05T14:04:25.175Z</time></trkpt><trkpt lat="37.7438583" lon="13.989375"><ele>613.0</ele><time>2026-05-05T14:04:26.175Z</time></trkpt><trkpt lat="37.7439067" lon="13.9890933"><ele>616.5</ele><time>2026-05-05T14:04:27.175Z</time></trkpt><trkpt lat="37.7439567" lon="13.98881"><ele>620.0</ele><time>2026-05-05T14:04:28.175Z</time></trkpt><trkpt lat="37.7440067" lon="13.988525"><ele>620.5</ele><time>2026-05-05T14:04:29.175Z</time></trkpt><trkpt lat="37.74406" lon="13.9882383"><ele>621.0</ele><time>2026-05-05T14:04:30.175Z</time></trkpt><trkpt lat="37.7441083" lon="13.9879533"><ele>621.0</ele><time>2026-05-05T14:04:31.175Z</time></trkpt><trkpt lat="37.7441483" lon="13.9876617"><ele>621.0</ele><time>2026-05-05T14:04:32.175Z</time></trkpt><trkpt lat="37.744185" lon="13.98737"><ele>623.0</ele><time>2026-05-05T14:04:33.175Z</time></trkpt><trkpt lat="37.744215" lon="13.987075"><ele>625.0</ele><time>2026-05-05T14:04:34.175Z</time></trkpt><trkpt lat="37.7442367" lon="13.9867817"><ele>625.5</ele><time>2026-05-05T14:04:35.175Z</time></trkpt><trkpt lat="37.7442433" lon="13.9864867"><ele>626.0</ele><time>2026-05-05T14:04:36.175Z</time></trkpt><trkpt lat="37.7442383" lon="13.986195"><ele>626.0</ele><time>2026-05-05T14:04:37.175Z</time></trkpt><trkpt lat="37.7442183" lon="13.9859033"><ele>626.0</ele><time>2026-05-05T14:04:38.175Z</time></trkpt><trkpt lat="37.7441933" lon="13.985615"><ele>625.5</ele><time>2026-05-05T14:04:39.175Z</time></trkpt><trkpt lat="37.7441617" lon="13.9853317"><ele>625.0</ele><time>2026-05-05T14:04:40.175Z</time></trkpt><trkpt lat="37.7441183" lon="13.9850483"><ele>625.0</ele><time>2026-05-05T14:04:41.175Z</time></trkpt><trkpt lat="37.7440767" lon="13.98476"><ele>625.0</ele><time>2026-05-05T14:04:42.175Z</time></trkpt><trkpt lat="37.7440383" lon="13.9844683"><ele>625.0</ele><time>2026-05-05T14:04:43.176Z</time></trkpt><trkpt lat="37.744" lon="13.98418"><ele>625.0</ele><time>2026-05-05T14:04:44.176Z</time></trkpt><trkpt lat="37.7439583" lon="13.983895"><ele>625.5</ele><time>2026-05-05T14:04:45.176Z</time></trkpt><trkpt lat="37.7439133" lon="13.983605"><ele>626.0</ele><time>2026-05-05T14:04:46.175Z</time></trkpt><trkpt lat="37.7438733" lon="13.98332"><ele>626.5</ele><time>2026-05-05T14:04:47.175Z</time></trkpt><trkpt lat="37.7438383" lon="13.9830317"><ele>627.0</ele><time>2026-05-05T14:04:48.175Z</time></trkpt><trkpt lat="37.7438" lon="13.9827467"><ele>628.0</ele><time>2026-05-05T14:04:49.176Z</time></trkpt><trkpt lat="37.74376" lon="13.982455"><ele>629.0</ele><time>2026-05-05T14:04:50.176Z</time></trkpt><trkpt lat="37.743725" lon="13.982165"><ele>629.0</ele><time>2026-05-05T14:04:51.176Z</time></trkpt><trkpt lat="37.7436967" lon="13.9818717"><ele>629.0</ele><time>2026-05-05T14:04:52.176Z</time></trkpt><trkpt lat="37.7436667" lon="13.9815783"><ele>628.5</ele><time>2026-05-05T14:04:53.175Z</time></trkpt><trkpt lat="37.7436517" lon="13.9812867"><ele>628.0</ele><time>2026-05-05T14:04:54.175Z</time></trkpt><trkpt lat="37.743635" lon="13.9809967"><ele>629.5</ele><time>2026-05-05T14:04:55.176Z</time></trkpt><trkpt lat="37.7436217" lon="13.9807033"><ele>631.0</ele><time>2026-05-05T14:04:56.175Z</time></trkpt><trkpt lat="37.7436217" lon="13.9804067"><ele>631.0</ele><time>2026-05-05T14:04:57.175Z</time></trkpt><trkpt lat="37.7436283" lon="13.98013"><ele>631.0</ele><time>2026-05-05T14:04:58.175Z</time></trkpt><trkpt lat="37.7436433" lon="13.97984"><ele>631.0</ele><time>2026-05-05T14:04:59.175Z</time></trkpt><trkpt lat="37.7436717" lon="13.9795483"><ele>631.0</ele><time>2026-05-05T14:05:00.175Z</time></trkpt><trkpt lat="37.7437117" lon="13.97926"><ele>631.0</ele><time>2026-05-05T14:05:01.175Z</time></trkpt><trkpt lat="37.7437617" lon="13.97898"><ele>632.0</ele><time>2026-05-05T14:05:02.175Z</time></trkpt><trkpt lat="37.74382" lon="13.9787017"><ele>633.0</ele><time>2026-05-05T14:05:03.175Z</time></trkpt><trkpt lat="37.7438917" lon="13.9784183"><ele>633.0</ele><time>2026-05-05T14:05:04.176Z</time></trkpt><trkpt lat="37.7439667" lon="13.97814"><ele>633.0</ele><time>2026-05-05T14:05:05.175Z</time></trkpt><trkpt lat="37.7440533" lon="13.9778683"><ele>633.0</ele><time>2026-05-05T14:05:06.175Z</time></trkpt><trkpt lat="37.7441567" lon="13.9776083"><ele>633.0</ele><time>2026-05-05T14:05:07.175Z</time></trkpt><trkpt lat="37.744265" lon="13.9773483"><ele>633.5</ele><time>2026-05-05T14:05:08.175Z</time></trkpt><trkpt lat="37.7443717" lon="13.9770917"><ele>634.0</ele><time>2026-05-05T14:05:09.175Z</time></trkpt><trkpt lat="37.744475" lon="13.9768367"><ele>634.5</ele><time>2026-05-05T14:05:10.175Z</time></trkpt><trkpt lat="37.7445783" lon="13.976575"><ele>635.0</ele><time>2026-05-05T14:05:11.175Z</time></trkpt><trkpt lat="37.7446833" lon="13.97632"><ele>635.0</ele><time>2026-05-05T14:05:12.175Z</time></trkpt><trkpt lat="37.7447867" lon="13.976065"><ele>635.0</ele><time>2026-05-05T14:05:13.175Z</time></trkpt><trkpt lat="37.7448883" lon="13.9758333"><ele>635.0</ele><time>2026-05-05T14:05:14.172Z</time></trkpt><trkpt lat="37.7449867" lon="13.9756017"><ele>635.6666666666666</ele><time>2026-05-05T14:05:15.175Z</time></trkpt><trkpt lat="37.7450767" lon="13.975385"><ele>636.3333333333334</ele><time>2026-05-05T14:05:16.175Z</time></trkpt><trkpt lat="37.74516" lon="13.9751733"><ele>637.0</ele><time>2026-05-05T14:05:17.175Z</time></trkpt><trkpt lat="37.7452417" lon="13.97498"><ele>639.0</ele><time>2026-05-05T14:05:18.175Z</time></trkpt><trkpt lat="37.7453233" lon="13.9747783"><ele>641.0</ele><time>2026-05-05T14:05:19.175Z</time></trkpt><trkpt lat="37.7454" lon="13.9745817"><ele>643.0</ele><time>2026-05-05T14:05:20.176Z</time></trkpt><trkpt lat="37.7454783" lon="13.9744"><ele>643.0</ele><time>2026-05-05T14:05:21.175Z</time></trkpt><trkpt lat="37.7455533" lon="13.974225"><ele>643.0</ele><time>2026-05-05T14:05:22.176Z</time></trkpt><trkpt lat="37.7456267" lon="13.974045"><ele>643.0</ele><time>2026-05-05T14:05:23.175Z</time></trkpt><trkpt lat="37.7457067" lon="13.9738533"><ele>643.3333333333334</ele><time>2026-05-05T14:05:24.175Z</time></trkpt><trkpt lat="37.7457833" lon="13.9736683"><ele>643.6666666666666</ele><time>2026-05-05T14:05:25.176Z</time></trkpt><trkpt lat="37.745855" lon="13.9734917"><ele>644.0</ele><time>2026-05-05T14:05:26.175Z</time></trkpt><trkpt lat="37.7459383" lon="13.9733"><ele>644.6666666666666</ele><time>2026-05-05T14:05:27.175Z</time></trkpt><trkpt lat="37.7460183" lon="13.9731"><ele>645.3333333333334</ele><time>2026-05-05T14:05:28.175Z</time></trkpt><trkpt lat="37.746105" lon="13.9728933"><ele>646.0</ele><time>2026-05-05T14:05:29.176Z</time></trkpt><trkpt lat="37.7461983" lon="13.9726833"><ele>648.3333333333334</ele><time>2026-05-05T14:05:30.175Z</time></trkpt><trkpt lat="37.7462917" lon="13.972465"><ele>650.6666666666666</ele><time>2026-05-05T14:05:31.176Z</time></trkpt><trkpt lat="37.746385" lon="13.9722417"><ele>653.0</ele><time>2026-05-05T14:05:32.175Z</time></trkpt><trkpt lat="37.7464767" lon="13.97202"><ele>653.0</ele><time>2026-05-05T14:05:33.175Z</time></trkpt><trkpt lat="37.74658" lon="13.9717733"><ele>653.0</ele><time>2026-05-05T14:05:34.175Z</time></trkpt><trkpt lat="37.7466817" lon="13.9715333"><ele>653.0</ele><time>2026-05-05T14:05:35.175Z</time></trkpt><trkpt lat="37.7467833" lon="13.9713"><ele>655.3333333333333</ele><time>2026-05-05T14:05:36.175Z</time></trkpt><trkpt lat="37.7468783" lon="13.97106"><ele>657.6666666666666</ele><time>2026-05-05T14:05:37.174Z</time></trkpt><trkpt lat="37.7469767" lon="13.9708183"><ele>660.0</ele><time>2026-05-05T14:05:38.174Z</time></trkpt><trkpt lat="37.7470817" lon="13.9705717"><ele>660.0</ele><time>2026-05-05T14:05:39.174Z</time></trkpt><trkpt lat="37.74718" lon="13.970325"><ele>660.0</ele><time>2026-05-05T14:05:40.174Z</time></trkpt><trkpt lat="37.7472867" lon="13.9700733"><ele>660.0</ele><time>2026-05-05T14:05:41.174Z</time></trkpt><trkpt lat="37.7473917" lon="13.9698233"><ele>658.5</ele><time>2026-05-05T14:05:42.174Z</time></trkpt><trkpt lat="37.7475" lon="13.96957"><ele>657.0</ele><time>2026-05-05T14:05:43.174Z</time></trkpt><trkpt lat="37.7476083" lon="13.9693133"><ele>657.6666666666666</ele><time>2026-05-05T14:05:44.174Z</time></trkpt><trkpt lat="37.7477083" lon="13.9690667"><ele>658.3333333333333</ele><time>2026-05-05T14:05:45.174Z</time></trkpt><trkpt lat="37.74781" lon="13.9688183"><ele>659.0</ele><time>2026-05-05T14:05:46.174Z</time></trkpt><trkpt lat="37.7479117" lon="13.9685683"><ele>664.0</ele><time>2026-05-05T14:05:47.174Z</time></trkpt><trkpt lat="37.7480217" lon="13.9683167"><ele>669.0</ele><time>2026-05-05T14:05:48.174Z</time></trkpt><trkpt lat="37.7481233" lon="13.9680617"><ele>669.0</ele><time>2026-05-05T14:05:49.174Z</time></trkpt><trkpt lat="37.7482317" lon="13.9678117"><ele>669.0</ele><time>2026-05-05T14:05:50.175Z</time></trkpt><trkpt lat="37.74834" lon="13.9675567"><ele>669.0</ele><time>2026-05-05T14:05:51.174Z</time></trkpt><trkpt lat="37.7484433" lon="13.96731"><ele>669.0</ele><time>2026-05-05T14:05:52.174Z</time></trkpt><trkpt lat="37.748545" lon="13.9670617"><ele>669.0</ele><time>2026-05-05T14:05:53.174Z</time></trkpt><trkpt lat="37.748645" lon="13.9668183"><ele>671.3333333333334</ele><time>2026-05-05T14:05:54.174Z</time></trkpt><trkpt lat="37.7487417" lon="13.96658"><ele>673.6666666666667</ele><time>2026-05-05T14:05:55.174Z</time></trkpt><trkpt lat="37.7488433" lon="13.9663367"><ele>676.0</ele><time>2026-05-05T14:05:56.174Z</time></trkpt><trkpt lat="37.7489483" lon="13.9661"><ele>676.0</ele><time>2026-05-05T14:05:57.175Z</time></trkpt><trkpt lat="37.7490483" lon="13.9658633"><ele>676.0</ele><time>2026-05-05T14:05:58.174Z</time></trkpt><trkpt lat="37.7491533" lon="13.9656417"><ele>676.0</ele><time>2026-05-05T14:05:59.174Z</time></trkpt><trkpt lat="37.74925" lon="13.9654183"><ele>675.0</ele><time>2026-05-05T14:06:00.174Z</time></trkpt><trkpt lat="37.7493533" lon="13.9652"><ele>674.0</ele><time>2026-05-05T14:06:01.174Z</time></trkpt><trkpt lat="37.74945" lon="13.964985"><ele>673.0</ele><time>2026-05-05T14:06:02.175Z</time></trkpt><trkpt lat="37.749555" lon="13.9647783"><ele>673.0</ele><time>2026-05-05T14:06:03.174Z</time></trkpt><trkpt lat="37.74965" lon="13.96457"><ele>673.0</ele><time>2026-05-05T14:06:04.174Z</time></trkpt><trkpt lat="37.7497483" lon="13.9643533"><ele>673.0</ele><time>2026-05-05T14:06:05.174Z</time></trkpt><trkpt lat="37.7498433" lon="13.96413"><ele>673.0</ele><time>2026-05-05T14:06:06.175Z</time></trkpt><trkpt lat="37.7499433" lon="13.9639"><ele>673.0</ele><time>2026-05-05T14:06:07.174Z</time></trkpt><trkpt lat="37.75004" lon="13.96368"><ele>673.0</ele><time>2026-05-05T14:06:08.174Z</time></trkpt><trkpt lat="37.7501367" lon="13.9634683"><ele>676.0</ele><time>2026-05-05T14:06:09.174Z</time></trkpt><trkpt lat="37.7502283" lon="13.96327"><ele>679.0</ele><time>2026-05-05T14:06:10.174Z</time></trkpt><trkpt lat="37.7503217" lon="13.963075"><ele>682.0</ele><time>2026-05-05T14:06:11.175Z</time></trkpt><trkpt lat="37.7504117" lon="13.96287"><ele>682.0</ele><time>2026-05-05T14:06:12.175Z</time></trkpt><trkpt lat="37.750505" lon="13.9626683"><ele>682.0</ele><time>2026-05-05T14:06:13.175Z</time></trkpt><trkpt lat="37.750595" lon="13.9624667"><ele>682.0</ele><time>2026-05-05T14:06:14.174Z</time></trkpt><trkpt lat="37.7506833" lon="13.9622667"><ele>686.3333333333334</ele><time>2026-05-05T14:06:15.174Z</time></trkpt><trkpt lat="37.7507667" lon="13.9620733"><ele>690.6666666666666</ele><time>2026-05-05T14:06:16.174Z</time></trkpt><trkpt lat="37.7508533" lon="13.9618783"><ele>695.0</ele><time>2026-05-05T14:06:17.175Z</time></trkpt><trkpt lat="37.7509383" lon="13.9616833"><ele>671.0</ele><time>2026-05-05T14:06:18.174Z</time></trkpt><trkpt lat="37.7491656" lon="13.9649795"><ele>645.0</ele><time>2026-05-05T14:06:54.286Z</time></trkpt><trkpt lat="37.7634283" lon="13.9668967"><ele>643.0</ele><time>2026-05-05T14:07:32.177Z</time></trkpt><trkpt lat="37.7636017" lon="13.9670633"><ele>641.0</ele><time>2026-05-05T14:07:33.177Z</time></trkpt><trkpt lat="37.76378" lon="13.9671867"><ele>639.0</ele><time>2026-05-05T14:07:34.178Z</time></trkpt><trkpt lat="37.76395" lon="13.967315"><ele>639.0</ele><time>2026-05-05T14:07:35.177Z</time></trkpt><trkpt lat="37.76413" lon="13.9674433"><ele>639.0</ele><time>2026-05-05T14:07:36.177Z</time></trkpt><trkpt lat="37.764305" lon="13.9675783"><ele>639.0</ele><time>2026-05-05T14:07:37.177Z</time></trkpt><trkpt lat="37.76448" lon="13.967715"><ele>637.0</ele><time>2026-05-05T14:07:38.178Z</time></trkpt><trkpt lat="37.7646617" lon="13.9678517"><ele>635.0</ele><time>2026-05-05T14:07:39.177Z</time></trkpt><trkpt lat="37.764845" lon="13.9680017"><ele>633.0</ele><time>2026-05-05T14:07:40.177Z</time></trkpt><trkpt lat="37.765025" lon="13.9681417"><ele>630.6666666666666</ele><time>2026-05-05T14:07:41.177Z</time></trkpt><trkpt lat="37.765205" lon="13.9682867"><ele>628.3333333333333</ele><time>2026-05-05T14:07:42.177Z</time></trkpt><trkpt lat="37.7653833" lon="13.96843"><ele>626.0</ele><time>2026-05-05T14:07:43.178Z</time></trkpt><trkpt lat="37.7655533" lon="13.96859"><ele>626.0</ele><time>2026-05-05T14:07:44.177Z</time></trkpt><trkpt lat="37.76572" lon="13.968755"><ele>626.0</ele><time>2026-05-05T14:07:45.177Z</time></trkpt><trkpt lat="37.765885" lon="13.96894"><ele>626.0</ele><time>2026-05-05T14:07:46.177Z</time></trkpt><trkpt lat="37.766045" lon="13.96912"><ele>623.3333333333333</ele><time>2026-05-05T14:07:47.178Z</time></trkpt><trkpt lat="37.76621" lon="13.9693083"><ele>620.6666666666666</ele><time>2026-05-05T14:07:48.177Z</time></trkpt><trkpt lat="37.766375" lon="13.9694917"><ele>618.0</ele><time>2026-05-05T14:07:49.177Z</time></trkpt><trkpt lat="37.7665433" lon="13.9696733"><ele>618.0</ele><time>2026-05-05T14:07:50.177Z</time></trkpt><trkpt lat="37.76671" lon="13.96986"><ele>618.0</ele><time>2026-05-05T14:07:51.177Z</time></trkpt><trkpt lat="37.7668767" lon="13.9700367"><ele>618.0</ele><time>2026-05-05T14:07:52.177Z</time></trkpt><trkpt lat="37.7670483" lon="13.970205"><ele>615.3333333333334</ele><time>2026-05-05T14:07:53.177Z</time></trkpt><trkpt lat="37.7672267" lon="13.9703583"><ele>612.6666666666667</ele><time>2026-05-05T14:07:54.177Z</time></trkpt><trkpt lat="37.7674133" lon="13.9705017"><ele>610.0</ele><time>2026-05-05T14:07:55.178Z</time></trkpt><trkpt lat="37.767605" lon="13.9706367"><ele>610.0</ele><time>2026-05-05T14:07:56.177Z</time></trkpt><trkpt lat="37.767795" lon="13.97077"><ele>610.0</ele><time>2026-05-05T14:07:57.177Z</time></trkpt><trkpt lat="37.7679933" lon="13.970905"><ele>610.0</ele><time>2026-05-05T14:07:58.177Z</time></trkpt><trkpt lat="37.7681833" lon="13.9710467"><ele>610.0</ele><time>2026-05-05T14:07:59.177Z</time></trkpt><trkpt lat="37.768375" lon="13.97118"><ele>610.0</ele><time>2026-05-05T14:08:00.177Z</time></trkpt><trkpt lat="37.7685667" lon="13.9713217"><ele>610.0</ele><time>2026-05-05T14:08:01.177Z</time></trkpt><trkpt lat="37.768765" lon="13.9714583"><ele>610.0</ele><time>2026-05-05T14:08:02.178Z</time></trkpt><trkpt lat="37.7689717" lon="13.97159"><ele>610.0</ele><time>2026-05-05T14:08:03.177Z</time></trkpt><trkpt lat="37.769175" lon="13.9717217"><ele>601.5</ele><time>2026-05-05T14:08:04.177Z</time></trkpt><trkpt lat="37.7693767" lon="13.9718533"><ele>593.0</ele><time>2026-05-05T14:08:05.177Z</time></trkpt><trkpt lat="37.7695783" lon="13.9719867"><ele>593.0</ele><time>2026-05-05T14:08:06.177Z</time></trkpt><trkpt lat="37.7697833" lon="13.9721183"><ele>593.0</ele><time>2026-05-05T14:08:07.177Z</time></trkpt><trkpt lat="37.76999" lon="13.9722483"><ele>592.0</ele><time>2026-05-05T14:08:08.177Z</time></trkpt><trkpt lat="37.7701983" lon="13.97237"><ele>591.0</ele><time>2026-05-05T14:08:09.177Z</time></trkpt><trkpt lat="37.7704133" lon="13.97248"><ele>588.0</ele><time>2026-05-05T14:08:10.177Z</time></trkpt><trkpt lat="37.7706333" lon="13.972575"><ele>585.0</ele><time>2026-05-05T14:08:11.178Z</time></trkpt><trkpt lat="37.770855" lon="13.9726567"><ele>585.0</ele><time>2026-05-05T14:08:12.177Z</time></trkpt><trkpt lat="37.7710783" lon="13.9727217"><ele>585.0</ele><time>2026-05-05T14:08:13.177Z</time></trkpt><trkpt lat="37.7713067" lon="13.9727717"><ele>585.0</ele><time>2026-05-05T14:08:14.178Z</time></trkpt><trkpt lat="37.77154" lon="13.9728117"><ele>585.0</ele><time>2026-05-05T14:08:15.177Z</time></trkpt><trkpt lat="37.7717733" lon="13.9728333"><ele>584.5</ele><time>2026-05-05T14:08:16.178Z</time></trkpt><trkpt lat="37.7720067" lon="13.9728383"><ele>584.0</ele><time>2026-05-05T14:08:17.178Z</time></trkpt><trkpt lat="37.77224" lon="13.9728367"><ele>584.0</ele><time>2026-05-05T14:08:18.178Z</time></trkpt><trkpt lat="37.7724733" lon="13.9728233"><ele>584.0</ele><time>2026-05-05T14:08:19.177Z</time></trkpt><trkpt lat="37.7727067" lon="13.9728"><ele>583.5</ele><time>2026-05-05T14:08:20.177Z</time></trkpt><trkpt lat="37.7729383" lon="13.9727783"><ele>583.0</ele><time>2026-05-05T14:08:21.177Z</time></trkpt><trkpt lat="37.77317" lon="13.97275"><ele>583.0</ele><time>2026-05-05T14:08:22.177Z</time></trkpt><trkpt lat="37.7733967" lon="13.9727233"><ele>583.0</ele><time>2026-05-05T14:08:23.177Z</time></trkpt><trkpt lat="37.7736283" lon="13.9726933"><ele>582.5</ele><time>2026-05-05T14:08:24.177Z</time></trkpt><trkpt lat="37.7738633" lon="13.9726683"><ele>582.0</ele><time>2026-05-05T14:08:25.177Z</time></trkpt><trkpt lat="37.7740967" lon="13.9726467"><ele>582.0</ele><time>2026-05-05T14:08:26.177Z</time></trkpt><trkpt lat="37.7743317" lon="13.9726283"><ele>582.0</ele><time>2026-05-05T14:08:27.178Z</time></trkpt><trkpt lat="37.77456" lon="13.972605"><ele>578.5</ele><time>2026-05-05T14:08:28.178Z</time></trkpt><trkpt lat="37.7747883" lon="13.97259"><ele>575.0</ele><time>2026-05-05T14:08:29.177Z</time></trkpt><trkpt lat="37.7750183" lon="13.972565"><ele>572.0</ele><time>2026-05-05T14:08:30.177Z</time></trkpt><trkpt lat="37.775245" lon="13.97254"><ele>569.0</ele><time>2026-05-05T14:08:31.177Z</time></trkpt><trkpt lat="37.7754733" lon="13.9725117"><ele>566.5</ele><time>2026-05-05T14:08:32.177Z</time></trkpt><trkpt lat="37.7757017" lon="13.97248"><ele>564.0</ele><time>2026-05-05T14:08:33.178Z</time></trkpt><trkpt lat="37.7759333" lon="13.9724467"><ele>562.0</ele><time>2026-05-05T14:08:34.177Z</time></trkpt><trkpt lat="37.7761667" lon="13.9724083"><ele>560.0</ele><time>2026-05-05T14:08:35.178Z</time></trkpt><trkpt lat="37.7764" lon="13.9723633"><ele>560.0</ele><time>2026-05-05T14:08:36.178Z</time></trkpt><trkpt lat="37.7766333" lon="13.9723133"><ele>560.0</ele><time>2026-05-05T14:08:37.177Z</time></trkpt><trkpt lat="37.77687" lon="13.9722633"><ele>559.0</ele><time>2026-05-05T14:08:38.178Z</time></trkpt><trkpt lat="37.7771" lon="13.972215"><ele>558.0</ele><time>2026-05-05T14:08:39.177Z</time></trkpt><trkpt lat="37.777335" lon="13.97216"><ele>558.0</ele><time>2026-05-05T14:08:40.177Z</time></trkpt><trkpt lat="37.7775633" lon="13.9721033"><ele>558.0</ele><time>2026-05-05T14:08:41.177Z</time></trkpt><trkpt lat="37.7777817" lon="13.9720417"><ele>558.0</ele><time>2026-05-05T14:08:42.177Z</time></trkpt><trkpt lat="37.7780067" lon="13.971975"><ele>558.0</ele><time>2026-05-05T14:08:43.178Z</time></trkpt><trkpt lat="37.7782283" lon="13.9719117"><ele>558.0</ele><time>2026-05-05T14:08:44.177Z</time></trkpt><trkpt lat="37.7784583" lon="13.9718417"><ele>558.0</ele><time>2026-05-05T14:08:45.177Z</time></trkpt><trkpt lat="37.7786883" lon="13.9717767"><ele>558.0</ele><time>2026-05-05T14:08:46.177Z</time></trkpt><trkpt lat="37.7789133" lon="13.971705"><ele>558.0</ele><time>2026-05-05T14:08:47.177Z</time></trkpt><trkpt lat="37.7791333" lon="13.9716267"><ele>555.0</ele><time>2026-05-05T14:08:48.177Z</time></trkpt><trkpt lat="37.77936" lon="13.971555"><ele>552.0</ele><time>2026-05-05T14:08:49.177Z</time></trkpt><trkpt lat="37.779585" lon="13.97149"><ele>552.0</ele><time>2026-05-05T14:08:50.177Z</time></trkpt><trkpt lat="37.7798067" lon="13.9714167"><ele>552.0</ele><time>2026-05-05T14:08:51.177Z</time></trkpt><trkpt lat="37.78004" lon="13.9713567"><ele>550.0</ele><time>2026-05-05T14:08:52.177Z</time></trkpt><trkpt lat="37.7802717" lon="13.9713033"><ele>548.0</ele><time>2026-05-05T14:08:53.177Z</time></trkpt><trkpt lat="37.7804967" lon="13.9712717"><ele>548.0</ele><time>2026-05-05T14:08:54.177Z</time></trkpt><trkpt lat="37.7807283" lon="13.9712533"><ele>548.0</ele><time>2026-05-05T14:08:55.177Z</time></trkpt><trkpt lat="37.780955" lon="13.97125"><ele>544.5</ele><time>2026-05-05T14:08:56.177Z</time></trkpt><trkpt lat="37.7811867" lon="13.9712517"><ele>541.0</ele><time>2026-05-05T14:08:57.177Z</time></trkpt><trkpt lat="37.7814117" lon="13.97127"><ele>541.0</ele><time>2026-05-05T14:08:58.177Z</time></trkpt><trkpt lat="37.7816433" lon="13.9713117"><ele>541.0</ele><time>2026-05-05T14:08:59.177Z</time></trkpt><trkpt lat="37.78187" lon="13.9713717"><ele>541.0</ele><time>2026-05-05T14:09:00.177Z</time></trkpt><trkpt lat="37.7820967" lon="13.9714433"><ele>541.0</ele><time>2026-05-05T14:09:01.178Z</time></trkpt><trkpt lat="37.78232" lon="13.9715283"><ele>541.0</ele><time>2026-05-05T14:09:02.177Z</time></trkpt><trkpt lat="37.78254" lon="13.9716217"><ele>541.0</ele><time>2026-05-05T14:09:03.177Z</time></trkpt><trkpt lat="37.7827633" lon="13.9717183"><ele>541.5</ele><time>2026-05-05T14:09:04.177Z</time></trkpt><trkpt lat="37.7829817" lon="13.9718133"><ele>542.0</ele><time>2026-05-05T14:09:05.178Z</time></trkpt><trkpt lat="37.7832033" lon="13.97192"><ele>542.0</ele><time>2026-05-05T14:09:06.178Z</time></trkpt><trkpt lat="37.7834233" lon="13.97202"><ele>542.0</ele><time>2026-05-05T14:09:07.177Z</time></trkpt><trkpt lat="37.7836433" lon="13.972125"><ele>538.5</ele><time>2026-05-05T14:09:08.177Z</time></trkpt><trkpt lat="37.7838567" lon="13.9722167"><ele>535.0</ele><time>2026-05-05T14:09:09.177Z</time></trkpt><trkpt lat="37.7840783" lon="13.9723183"><ele>535.0</ele><time>2026-05-05T14:09:10.177Z</time></trkpt><trkpt lat="37.784295" lon="13.972415"><ele>535.0</ele><time>2026-05-05T14:09:11.177Z</time></trkpt><trkpt lat="37.7845117" lon="13.9725117"><ele>538.0</ele><time>2026-05-05T14:09:12.177Z</time></trkpt><trkpt lat="37.7847283" lon="13.9726117"><ele>541.0</ele><time>2026-05-05T14:09:13.177Z</time></trkpt><trkpt lat="37.7849433" lon="13.9727217"><ele>541.0</ele><time>2026-05-05T14:09:14.177Z</time></trkpt><trkpt lat="37.7851617" lon="13.9728183"><ele>541.0</ele><time>2026-05-05T14:09:15.177Z</time></trkpt><trkpt lat="37.7853833" lon="13.9729183"><ele>538.0</ele><time>2026-05-05T14:09:16.177Z</time></trkpt><trkpt lat="37.7855983" lon="13.9730083"><ele>535.0</ele><time>2026-05-05T14:09:17.177Z</time></trkpt><trkpt lat="37.785825" lon="13.97309"><ele>529.0</ele><time>2026-05-05T14:09:18.178Z</time></trkpt><trkpt lat="37.7860533" lon="13.9731517"><ele>523.0</ele><time>2026-05-05T14:09:19.177Z</time></trkpt><trkpt lat="37.7862783" lon="13.9732067"><ele>523.0</ele><time>2026-05-05T14:09:20.177Z</time></trkpt><trkpt lat="37.7865083" lon="13.97324"><ele>523.0</ele><time>2026-05-05T14:09:21.177Z</time></trkpt><trkpt lat="37.7867417" lon="13.9732567"><ele>521.5</ele><time>2026-05-05T14:09:22.177Z</time></trkpt><trkpt lat="37.78697" lon="13.9732583"><ele>520.0</ele><time>2026-05-05T14:09:23.177Z</time></trkpt><trkpt lat="37.7872017" lon="13.9732517"><ele>520.0</ele><time>2026-05-05T14:09:24.177Z</time></trkpt><trkpt lat="37.787435" lon="13.9732333"><ele>520.0</ele><time>2026-05-05T14:09:25.177Z</time></trkpt><trkpt lat="37.7876667" lon="13.9732117"><ele>520.5</ele><time>2026-05-05T14:09:26.177Z</time></trkpt><trkpt lat="37.7878967" lon="13.97317"><ele>521.0</ele><time>2026-05-05T14:09:27.177Z</time></trkpt><trkpt lat="37.788125" lon="13.9731117"><ele>521.0</ele><time>2026-05-05T14:09:28.178Z</time></trkpt><trkpt lat="37.7883517" lon="13.9730367"><ele>521.0</ele><time>2026-05-05T14:09:29.177Z</time></trkpt><trkpt lat="37.7885733" lon="13.97295"><ele>523.0</ele><time>2026-05-05T14:09:30.177Z</time></trkpt><trkpt lat="37.7887967" lon="13.9728433"><ele>525.0</ele><time>2026-05-05T14:09:31.177Z</time></trkpt><trkpt lat="37.7890117" lon="13.9727383"><ele>525.0</ele><time>2026-05-05T14:09:32.177Z</time></trkpt><trkpt lat="37.7892233" lon="13.972625"><ele>525.0</ele><time>2026-05-05T14:09:33.177Z</time></trkpt><trkpt lat="37.789435" lon="13.9725083"><ele>520.0</ele><time>2026-05-05T14:09:34.177Z</time></trkpt><trkpt lat="37.789645" lon="13.972385"><ele>515.0</ele><time>2026-05-05T14:09:35.177Z</time></trkpt><trkpt lat="37.78985" lon="13.9722667"><ele>515.0</ele><time>2026-05-05T14:09:36.178Z</time></trkpt><trkpt lat="37.7900533" lon="13.9721583"><ele>515.0</ele><time>2026-05-05T14:09:37.177Z</time></trkpt><trkpt lat="37.79025" lon="13.9720517"><ele>515.0</ele><time>2026-05-05T14:09:38.177Z</time></trkpt><trkpt lat="37.79045" lon="13.971945"><ele>515.0</ele><time>2026-05-05T14:09:39.177Z</time></trkpt><trkpt lat="37.79064" lon="13.9718417"><ele>515.0</ele><time>2026-05-05T14:09:40.177Z</time></trkpt><trkpt lat="37.7908417" lon="13.9717283"><ele>515.0</ele><time>2026-05-05T14:09:41.178Z</time></trkpt><trkpt lat="37.7910333" lon="13.97161"><ele>515.0</ele><time>2026-05-05T14:09:42.177Z</time></trkpt><trkpt lat="37.7912333" lon="13.9715"><ele>515.0</ele><time>2026-05-05T14:09:43.178Z</time></trkpt><trkpt lat="37.79143" lon="13.9713783"><ele>515.0</ele><time>2026-05-05T14:09:44.178Z</time></trkpt><trkpt lat="37.7916417" lon="13.971265"><ele>514.5</ele><time>2026-05-05T14:09:45.177Z</time></trkpt><trkpt lat="37.7918467" lon="13.97114"><ele>514.0</ele><time>2026-05-05T14:09:46.177Z</time></trkpt><trkpt lat="37.792065" lon="13.9710133"><ele>514.0</ele><time>2026-05-05T14:09:47.177Z</time></trkpt><trkpt lat="37.792275" lon="13.970885"><ele>514.0</ele><time>2026-05-05T14:09:48.177Z</time></trkpt><trkpt lat="37.792475" lon="13.97074"><ele>506.5</ele><time>2026-05-05T14:09:49.177Z</time></trkpt><trkpt lat="37.7926817" lon="13.9706033"><ele>499.0</ele><time>2026-05-05T14:09:50.177Z</time></trkpt><trkpt lat="37.7928833" lon="13.9704717"><ele>499.0</ele><time>2026-05-05T14:09:51.177Z</time></trkpt><trkpt lat="37.7930867" lon="13.97033"><ele>499.0</ele><time>2026-05-05T14:09:52.177Z</time></trkpt><trkpt lat="37.793285" lon="13.9701767"><ele>499.0</ele><time>2026-05-05T14:09:53.177Z</time></trkpt><trkpt lat="37.7934933" lon="13.9700367"><ele>499.0</ele><time>2026-05-05T14:09:54.177Z</time></trkpt><trkpt lat="37.793695" lon="13.9698917"><ele>498.0</ele><time>2026-05-05T14:09:55.178Z</time></trkpt><trkpt lat="37.7938933" lon="13.96974"><ele>497.0</ele><time>2026-05-05T14:09:56.177Z</time></trkpt><trkpt lat="37.7940817" lon="13.969575"><ele>497.0</ele><time>2026-05-05T14:09:57.178Z</time></trkpt><trkpt lat="37.7942833" lon="13.9694233"><ele>497.0</ele><time>2026-05-05T14:09:58.177Z</time></trkpt><trkpt lat="37.79448" lon="13.969265"><ele>495.5</ele><time>2026-05-05T14:09:59.177Z</time></trkpt><trkpt lat="37.7946733" lon="13.9691033"><ele>494.0</ele><time>2026-05-05T14:10:00.177Z</time></trkpt><trkpt lat="37.794865" lon="13.9689383"><ele>494.0</ele><time>2026-05-05T14:10:01.177Z</time></trkpt><trkpt lat="37.795055" lon="13.9687733"><ele>494.0</ele><time>2026-05-05T14:10:02.177Z</time></trkpt><trkpt lat="37.7952433" lon="13.9686017"><ele>493.5</ele><time>2026-05-05T14:10:03.177Z</time></trkpt><trkpt lat="37.7954267" lon="13.9684283"><ele>493.0</ele><time>2026-05-05T14:10:04.178Z</time></trkpt><trkpt lat="37.7956083" lon="13.9682533"><ele>490.0</ele><time>2026-05-05T14:10:05.177Z</time></trkpt><trkpt lat="37.79579" lon="13.9680717"><ele>487.0</ele><time>2026-05-05T14:10:06.177Z</time></trkpt><trkpt lat="37.7959717" lon="13.9678933"><ele>488.5</ele><time>2026-05-05T14:10:07.177Z</time></trkpt><trkpt lat="37.79616" lon="13.9677117"><ele>490.0</ele><time>2026-05-05T14:10:08.177Z</time></trkpt><trkpt lat="37.7963433" lon="13.967535"><ele>487.5</ele><time>2026-05-05T14:10:09.177Z</time></trkpt><trkpt lat="37.79653" lon="13.96736"><ele>485.0</ele><time>2026-05-05T14:10:10.178Z</time></trkpt><trkpt lat="37.7967133" lon="13.967185"><ele>487.0</ele><time>2026-05-05T14:10:11.178Z</time></trkpt><trkpt lat="37.7968983" lon="13.9670033"><ele>489.0</ele><time>2026-05-05T14:10:12.177Z</time></trkpt><trkpt lat="37.7970833" lon="13.9668267"><ele>486.0</ele><time>2026-05-05T14:10:13.177Z</time></trkpt><trkpt lat="37.7972717" lon="13.96665"><ele>483.0</ele><time>2026-05-05T14:10:14.177Z</time></trkpt><trkpt lat="37.7974667" lon="13.9664867"><ele>483.0</ele><time>2026-05-05T14:10:15.177Z</time></trkpt><trkpt lat="37.797665" lon="13.9663333"><ele>483.0</ele><time>2026-05-05T14:10:16.177Z</time></trkpt><trkpt lat="37.7978683" lon="13.9661917"><ele>483.5</ele><time>2026-05-05T14:10:17.177Z</time></trkpt><trkpt lat="37.7980733" lon="13.9660683"><ele>484.0</ele><time>2026-05-05T14:10:18.177Z</time></trkpt><trkpt lat="37.798285" lon="13.9659567"><ele>485.0</ele><time>2026-05-05T14:10:19.178Z</time></trkpt><trkpt lat="37.7985033" lon="13.96587"><ele>486.0</ele><time>2026-05-05T14:10:20.177Z</time></trkpt><trkpt lat="37.7987233" lon="13.9657867"><ele>481.5</ele><time>2026-05-05T14:10:21.177Z</time></trkpt><trkpt lat="37.7989533" lon="13.9657183"><ele>477.0</ele><time>2026-05-05T14:10:22.177Z</time></trkpt><trkpt lat="37.7991767" lon="13.9656617"><ele>475.0</ele><time>2026-05-05T14:10:23.177Z</time></trkpt><trkpt lat="37.7994083" lon="13.9656267"><ele>473.0</ele><time>2026-05-05T14:10:24.177Z</time></trkpt><trkpt lat="37.799635" lon="13.9656167"><ele>473.0</ele><time>2026-05-05T14:10:25.177Z</time></trkpt><trkpt lat="37.7998667" lon="13.9656167"><ele>473.0</ele><time>2026-05-05T14:10:26.178Z</time></trkpt><trkpt lat="37.8000917" lon="13.9656167"><ele>472.5</ele><time>2026-05-05T14:10:27.177Z</time></trkpt><trkpt lat="37.80033" lon="13.96565"><ele>472.0</ele><time>2026-05-05T14:10:28.177Z</time></trkpt><trkpt lat="37.8005583" lon="13.9656867"><ele>472.0</ele><time>2026-05-05T14:10:29.177Z</time></trkpt><trkpt lat="37.8007783" lon="13.9657317"><ele>472.0</ele><time>2026-05-05T14:10:30.177Z</time></trkpt><trkpt lat="37.8010033" lon="13.9657917"><ele>471.5</ele><time>2026-05-05T14:10:31.177Z</time></trkpt><trkpt lat="37.80123" lon="13.9658783"><ele>471.0</ele><time>2026-05-05T14:10:32.177Z</time></trkpt><trkpt lat="37.8014533" lon="13.9659767"><ele>471.0</ele><time>2026-05-05T14:10:33.177Z</time></trkpt><trkpt lat="37.8016683" lon="13.966095"><ele>471.0</ele><time>2026-05-05T14:10:34.177Z</time></trkpt><trkpt lat="37.8018817" lon="13.96623"><ele>469.0</ele><time>2026-05-05T14:10:35.178Z</time></trkpt><trkpt lat="37.8020867" lon="13.9663683"><ele>467.0</ele><time>2026-05-05T14:10:36.177Z</time></trkpt><trkpt lat="37.8022917" lon="13.96651"><ele>467.0</ele><time>2026-05-05T14:10:37.178Z</time></trkpt><trkpt lat="37.802485" lon="13.966655"><ele>467.0</ele><time>2026-05-05T14:10:38.177Z</time></trkpt><trkpt lat="37.80269" lon="13.96679"><ele>464.0</ele><time>2026-05-05T14:10:39.177Z</time></trkpt><trkpt lat="37.80289" lon="13.9669283"><ele>461.0</ele><time>2026-05-05T14:10:40.177Z</time></trkpt><trkpt lat="37.80309" lon="13.96707"><ele>461.0</ele><time>2026-05-05T14:10:41.177Z</time></trkpt><trkpt lat="37.8032933" lon="13.9672083"><ele>461.0</ele><time>2026-05-05T14:10:42.177Z</time></trkpt><trkpt lat="37.8034983" lon="13.967355"><ele>462.0</ele><time>2026-05-05T14:10:43.177Z</time></trkpt><trkpt lat="37.8037067" lon="13.967495"><ele>463.0</ele><time>2026-05-05T14:10:44.177Z</time></trkpt><trkpt lat="37.803915" lon="13.9676317"><ele>459.5</ele><time>2026-05-05T14:10:45.177Z</time></trkpt><trkpt lat="37.804125" lon="13.96777"><ele>456.0</ele><time>2026-05-05T14:10:46.177Z</time></trkpt><trkpt lat="37.80433" lon="13.9679117"><ele>455.5</ele><time>2026-05-05T14:10:47.177Z</time></trkpt><trkpt lat="37.8045317" lon="13.96805"><ele>455.0</ele><time>2026-05-05T14:10:48.177Z</time></trkpt><trkpt lat="37.8047317" lon="13.9682017"><ele>454.5</ele><time>2026-05-05T14:10:49.177Z</time></trkpt><trkpt lat="37.8049283" lon="13.968365"><ele>454.0</ele><time>2026-05-05T14:10:50.177Z</time></trkpt><trkpt lat="37.8051083" lon="13.9685433"><ele>453.0</ele><time>2026-05-05T14:10:51.177Z</time></trkpt><trkpt lat="37.8052767" lon="13.9687367"><ele>452.0</ele><time>2026-05-05T14:10:52.177Z</time></trkpt><trkpt lat="37.8054467" lon="13.9689417"><ele>452.0</ele><time>2026-05-05T14:10:53.177Z</time></trkpt><trkpt lat="37.805615" lon="13.9691567"><ele>452.0</ele><time>2026-05-05T14:10:54.177Z</time></trkpt><trkpt lat="37.8057783" lon="13.96938"><ele>450.0</ele><time>2026-05-05T14:10:55.177Z</time></trkpt><trkpt lat="37.8059333" lon="13.9696167"><ele>448.0</ele><time>2026-05-05T14:10:56.177Z</time></trkpt><trkpt lat="37.80609" lon="13.9698617"><ele>448.0</ele><time>2026-05-05T14:10:57.177Z</time></trkpt><trkpt lat="37.8062483" lon="13.9701033"><ele>448.0</ele><time>2026-05-05T14:10:58.177Z</time></trkpt><trkpt lat="37.8064033" lon="13.9703517"><ele>448.0</ele><time>2026-05-05T14:10:59.177Z</time></trkpt><trkpt lat="37.806555" lon="13.9706017"><ele>448.0</ele><time>2026-05-05T14:11:00.177Z</time></trkpt><trkpt lat="37.8067083" lon="13.970855"><ele>448.0</ele><time>2026-05-05T14:11:01.178Z</time></trkpt><trkpt lat="37.806865" lon="13.9710967"><ele>448.0</ele><time>2026-05-05T14:11:02.177Z</time></trkpt><trkpt lat="37.807035" lon="13.9713283"><ele>448.0</ele><time>2026-05-05T14:11:03.177Z</time></trkpt><trkpt lat="37.8072117" lon="13.97154"><ele>448.0</ele><time>2026-05-05T14:11:04.177Z</time></trkpt><trkpt lat="37.807395" lon="13.9717367"><ele>446.0</ele><time>2026-05-05T14:11:05.177Z</time></trkpt><trkpt lat="37.8075933" lon="13.971915"><ele>444.0</ele><time>2026-05-05T14:11:06.177Z</time></trkpt><trkpt lat="37.8078" lon="13.9720733"><ele>443.5</ele><time>2026-05-05T14:11:07.177Z</time></trkpt><trkpt lat="37.808025" lon="13.9722133"><ele>443.0</ele><time>2026-05-05T14:11:08.177Z</time></trkpt><trkpt lat="37.808245" lon="13.9723483"><ele>443.0</ele><time>2026-05-05T14:11:09.177Z</time></trkpt><trkpt lat="37.8084767" lon="13.9724667"><ele>443.0</ele><time>2026-05-05T14:11:10.178Z</time></trkpt><trkpt lat="37.808715" lon="13.9725633"><ele>441.0</ele><time>2026-05-05T14:11:11.177Z</time></trkpt><trkpt lat="37.808955" lon="13.9726217"><ele>439.0</ele><time>2026-05-05T14:11:12.178Z</time></trkpt><trkpt lat="37.8091983" lon="13.9726683"><ele>435.5</ele><time>2026-05-05T14:11:13.177Z</time></trkpt><trkpt lat="37.8094467" lon="13.97269"><ele>432.0</ele><time>2026-05-05T14:11:14.177Z</time></trkpt><trkpt lat="37.8096983" lon="13.9727017"><ele>432.0</ele><time>2026-05-05T14:11:15.177Z</time></trkpt><trkpt lat="37.8099467" lon="13.9726883"><ele>432.0</ele><time>2026-05-05T14:11:16.178Z</time></trkpt><trkpt lat="37.8101933" lon="13.9726583"><ele>432.5</ele><time>2026-05-05T14:11:17.177Z</time></trkpt><trkpt lat="37.81044" lon="13.9726"><ele>433.0</ele><time>2026-05-05T14:11:18.177Z</time></trkpt><trkpt lat="37.8106817" lon="13.972525"><ele>432.5</ele><time>2026-05-05T14:11:19.178Z</time></trkpt><trkpt lat="37.8109217" lon="13.9724217"><ele>432.0</ele><time>2026-05-05T14:11:20.177Z</time></trkpt><trkpt lat="37.8111483" lon="13.9723"><ele>431.5</ele><time>2026-05-05T14:11:21.177Z</time></trkpt><trkpt lat="37.8113733" lon="13.9721667"><ele>431.0</ele><time>2026-05-05T14:11:22.178Z</time></trkpt><trkpt lat="37.8115917" lon="13.9720183"><ele>431.0</ele><time>2026-05-05T14:11:23.177Z</time></trkpt><trkpt lat="37.811805" lon="13.9718483"><ele>431.0</ele><time>2026-05-05T14:11:24.177Z</time></trkpt><trkpt lat="37.812005" lon="13.971675"><ele>434.0</ele><time>2026-05-05T14:11:25.177Z</time></trkpt><trkpt lat="37.8122067" lon="13.971495"><ele>437.0</ele><time>2026-05-05T14:11:26.178Z</time></trkpt><trkpt lat="37.8124067" lon="13.9713167"><ele>437.0</ele><time>2026-05-05T14:11:27.178Z</time></trkpt><trkpt lat="37.81261" lon="13.9711433"><ele>437.0</ele><time>2026-05-05T14:11:28.177Z</time></trkpt><trkpt lat="37.8128183" lon="13.970985"><ele>433.5</ele><time>2026-05-05T14:11:29.177Z</time></trkpt><trkpt lat="37.81302" lon="13.97082"><ele>430.0</ele><time>2026-05-05T14:11:30.177Z</time></trkpt><trkpt lat="37.8132267" lon="13.97066"><ele>430.0</ele><time>2026-05-05T14:11:31.177Z</time></trkpt><trkpt lat="37.813435" lon="13.9705083"><ele>430.0</ele><time>2026-05-05T14:11:32.177Z</time></trkpt><trkpt lat="37.8136517" lon="13.9703783"><ele>433.0</ele><time>2026-05-05T14:11:33.177Z</time></trkpt><trkpt lat="37.8138717" lon="13.9702583"><ele>436.0</ele><time>2026-05-05T14:11:34.177Z</time></trkpt><trkpt lat="37.814095" lon="13.9701467"><ele>433.0</ele><time>2026-05-05T14:11:35.177Z</time></trkpt><trkpt lat="37.8143267" lon="13.9700567"><ele>430.0</ele><time>2026-05-05T14:11:36.177Z</time></trkpt><trkpt lat="37.8145617" lon="13.969985"><ele>425.5</ele><time>2026-05-05T14:11:37.177Z</time></trkpt><trkpt lat="37.8147933" lon="13.969925"><ele>421.0</ele><time>2026-05-05T14:11:38.177Z</time></trkpt><trkpt lat="37.815035" lon="13.969885"><ele>420.0</ele><time>2026-05-05T14:11:39.177Z</time></trkpt><trkpt lat="37.81527" lon="13.969855"><ele>419.0</ele><time>2026-05-05T14:11:40.178Z</time></trkpt><trkpt lat="37.8155083" lon="13.9698383"><ele>419.0</ele><time>2026-05-05T14:11:41.177Z</time></trkpt><trkpt lat="37.8157467" lon="13.9698233"><ele>419.0</ele><time>2026-05-05T14:11:42.177Z</time></trkpt><trkpt lat="37.8159867" lon="13.9698233"><ele>418.5</ele><time>2026-05-05T14:11:43.177Z</time></trkpt><trkpt lat="37.8162267" lon="13.9698233"><ele>418.0</ele><time>2026-05-05T14:11:44.177Z</time></trkpt><trkpt lat="37.8164683" lon="13.9698217"><ele>418.0</ele><time>2026-05-05T14:11:45.177Z</time></trkpt><trkpt lat="37.81671" lon="13.96982"><ele>418.0</ele><time>2026-05-05T14:11:46.177Z</time></trkpt><trkpt lat="37.81695" lon="13.969805"><ele>416.0</ele><time>2026-05-05T14:11:47.177Z</time></trkpt><trkpt lat="37.8171883" lon="13.9697983"><ele>414.0</ele><time>2026-05-05T14:11:48.177Z</time></trkpt><trkpt lat="37.8174317" lon="13.969785"><ele>409.0</ele><time>2026-05-05T14:11:49.177Z</time></trkpt><trkpt lat="37.8176717" lon="13.9697683"><ele>404.0</ele><time>2026-05-05T14:11:50.177Z</time></trkpt><trkpt lat="37.8179117" lon="13.9697683"><ele>404.0</ele><time>2026-05-05T14:11:51.177Z</time></trkpt><trkpt lat="37.81816" lon="13.9697583"><ele>404.0</ele><time>2026-05-05T14:11:52.177Z</time></trkpt><trkpt lat="37.8184017" lon="13.9697533"><ele>405.0</ele><time>2026-05-05T14:11:53.177Z</time></trkpt><trkpt lat="37.8186417" lon="13.9697533"><ele>406.0</ele><time>2026-05-05T14:11:54.177Z</time></trkpt><trkpt lat="37.81889" lon="13.9697433"><ele>406.0</ele><time>2026-05-05T14:11:55.177Z</time></trkpt><trkpt lat="37.8191333" lon="13.9697283"><ele>406.0</ele><time>2026-05-05T14:11:56.177Z</time></trkpt><trkpt lat="37.8193717" lon="13.969705"><ele>407.5</ele><time>2026-05-05T14:11:57.177Z</time></trkpt><trkpt lat="37.81961" lon="13.96967"><ele>409.0</ele><time>2026-05-05T14:11:58.177Z</time></trkpt><trkpt lat="37.8198467" lon="13.9696167"><ele>409.0</ele><time>2026-05-05T14:11:59.177Z</time></trkpt><trkpt lat="37.8200783" lon="13.9695483"><ele>409.0</ele><time>2026-05-05T14:12:00.177Z</time></trkpt><trkpt lat="37.8203067" lon="13.96946"><ele>406.0</ele><time>2026-05-05T14:12:01.177Z</time></trkpt><trkpt lat="37.8205283" lon="13.9693567"><ele>403.0</ele><time>2026-05-05T14:12:02.177Z</time></trkpt><trkpt lat="37.8207517" lon="13.9692417"><ele>401.5</ele><time>2026-05-05T14:12:03.177Z</time></trkpt><trkpt lat="37.82097" lon="13.96911"><ele>400.0</ele><time>2026-05-05T14:12:04.177Z</time></trkpt><trkpt lat="37.8211783" lon="13.9689733"><ele>399.33333333333337</ele><time>2026-05-05T14:12:05.177Z</time></trkpt><trkpt lat="37.8213817" lon="13.9688333"><ele>398.66666666666663</ele><time>2026-05-05T14:12:06.177Z</time></trkpt><trkpt lat="37.8215633" lon="13.96871"><ele>398.0</ele><time>2026-05-05T14:12:07.177Z</time></trkpt><trkpt lat="37.8217333" lon="13.9685933"><ele>399.0</ele><time>2026-05-05T14:12:08.177Z</time></trkpt><trkpt lat="37.8218917" lon="13.9684783"><ele>400.0</ele><time>2026-05-05T14:12:09.177Z</time></trkpt><trkpt lat="37.822035" lon="13.9683733"><ele>401.0</ele><time>2026-05-05T14:12:10.177Z</time></trkpt><trkpt lat="37.8221633" lon="13.9682783"><ele>399.5</ele><time>2026-05-05T14:12:11.177Z</time></trkpt><trkpt lat="37.8222783" lon="13.9681967"><ele>398.0</ele><time>2026-05-05T14:12:12.177Z</time></trkpt><trkpt lat="37.8223883" lon="13.9680967"><ele>396.5</ele><time>2026-05-05T14:12:13.177Z</time></trkpt><trkpt lat="37.822505" lon="13.9679833"><ele>395.0</ele><time>2026-05-05T14:12:14.177Z</time></trkpt><trkpt lat="37.8226217" lon="13.9678667"><ele>398.3333333333333</ele><time>2026-05-05T14:12:15.177Z</time></trkpt><trkpt lat="37.8227433" lon="13.9677633"><ele>401.66666666666663</ele><time>2026-05-05T14:12:16.177Z</time></trkpt><trkpt lat="37.8228817" lon="13.9676617"><ele>405.0</ele><time>2026-05-05T14:12:17.177Z</time></trkpt><trkpt lat="37.8230333" lon="13.9675533"><ele>406.66666666666663</ele><time>2026-05-05T14:12:18.177Z</time></trkpt><trkpt lat="37.8231883" lon="13.9674417"><ele>408.3333333333333</ele><time>2026-05-05T14:12:19.178Z</time></trkpt><trkpt lat="37.8233533" lon="13.967325"><ele>410.0</ele><time>2026-05-05T14:12:20.177Z</time></trkpt><trkpt lat="37.82351" lon="13.9671983"><ele>410.0</ele><time>2026-05-05T14:12:21.177Z</time></trkpt><trkpt lat="37.8236783" lon="13.9670767"><ele>410.0</ele><time>2026-05-05T14:12:22.177Z</time></trkpt><trkpt lat="37.8238433" lon="13.96696"><ele>410.0</ele><time>2026-05-05T14:12:23.178Z</time></trkpt><trkpt lat="37.8240133" lon="13.9668417"><ele>410.0</ele><time>2026-05-05T14:12:24.177Z</time></trkpt><trkpt lat="37.8241817" lon="13.96673"><ele>410.0</ele><time>2026-05-05T14:12:25.178Z</time></trkpt><trkpt lat="37.8243617" lon="13.966625"><ele>410.0</ele><time>2026-05-05T14:12:26.177Z</time></trkpt><trkpt lat="37.824545" lon="13.9665217"><ele>405.3333333333333</ele><time>2026-05-05T14:12:27.177Z</time></trkpt><trkpt lat="37.8247333" lon="13.9664183"><ele>400.66666666666663</ele><time>2026-05-05T14:12:28.177Z</time></trkpt><trkpt lat="37.8249233" lon="13.9663183"><ele>396.0</ele><time>2026-05-05T14:12:29.177Z</time></trkpt><trkpt lat="37.8251133" lon="13.9662167"><ele>398.0</ele><time>2026-05-05T14:12:30.177Z</time></trkpt><trkpt lat="37.8253083" lon="13.9661167"><ele>400.0</ele><time>2026-05-05T14:12:31.177Z</time></trkpt><trkpt lat="37.8255033" lon="13.9660133"><ele>402.0</ele><time>2026-05-05T14:12:32.177Z</time></trkpt><trkpt lat="37.8256967" lon="13.9659183"><ele>398.66666666666663</ele><time>2026-05-05T14:12:33.178Z</time></trkpt><trkpt lat="37.82588" lon="13.96582"><ele>395.3333333333333</ele><time>2026-05-05T14:12:34.177Z</time></trkpt><trkpt lat="37.8260683" lon="13.9657267"><ele>392.0</ele><time>2026-05-05T14:12:35.177Z</time></trkpt><trkpt lat="37.8262583" lon="13.9656333"><ele>392.0</ele><time>2026-05-05T14:12:36.177Z</time></trkpt><trkpt lat="37.826455" lon="13.96554"><ele>392.0</ele><time>2026-05-05T14:12:37.177Z</time></trkpt><trkpt lat="37.826645" lon="13.965445"><ele>392.0</ele><time>2026-05-05T14:12:38.177Z</time></trkpt><trkpt lat="37.826835" lon="13.9653383"><ele>392.3333333333333</ele><time>2026-05-05T14:12:39.177Z</time></trkpt><trkpt lat="37.8270183" lon="13.965235"><ele>392.66666666666663</ele><time>2026-05-05T14:12:40.177Z</time></trkpt><trkpt lat="37.8271967" lon="13.9651267"><ele>393.0</ele><time>2026-05-05T14:12:41.178Z</time></trkpt><trkpt lat="37.82737" lon="13.9650083"><ele>393.0</ele><time>2026-05-05T14:12:42.177Z</time></trkpt><trkpt lat="37.8275383" lon="13.9648783"><ele>393.0</ele><time>2026-05-05T14:12:43.177Z</time></trkpt><trkpt lat="37.8277133" lon="13.9647483"><ele>393.0</ele><time>2026-05-05T14:12:44.177Z</time></trkpt><trkpt lat="37.8278833" lon="13.9646117"><ele>394.0</ele><time>2026-05-05T14:12:45.177Z</time></trkpt><trkpt lat="37.82805" lon="13.964475"><ele>395.0</ele><time>2026-05-05T14:12:46.177Z</time></trkpt><trkpt lat="37.8282183" lon="13.9643317"><ele>396.0</ele><time>2026-05-05T14:12:47.177Z</time></trkpt><trkpt lat="37.8283867" lon="13.964185"><ele>394.0</ele><time>2026-05-05T14:12:48.178Z</time></trkpt><trkpt lat="37.82855" lon="13.9640283"><ele>392.0</ele><time>2026-05-05T14:12:49.177Z</time></trkpt><trkpt lat="37.8287133" lon="13.9638717"><ele>390.0</ele><time>2026-05-05T14:12:50.177Z</time></trkpt><trkpt lat="37.8288733" lon="13.9637067"><ele>390.0</ele><time>2026-05-05T14:12:51.177Z</time></trkpt><trkpt lat="37.8290317" lon="13.9635367"><ele>390.0</ele><time>2026-05-05T14:12:52.177Z</time></trkpt><trkpt lat="37.8291867" lon="13.96336"><ele>390.0</ele><time>2026-05-05T14:12:53.177Z</time></trkpt><trkpt lat="37.8293417" lon="13.96318"><ele>391.33333333333337</ele><time>2026-05-05T14:12:54.177Z</time></trkpt><trkpt lat="37.82949" lon="13.96299"><ele>392.6666666666667</ele><time>2026-05-05T14:12:55.178Z</time></trkpt><trkpt lat="37.8296433" lon="13.9627933"><ele>394.0</ele><time>2026-05-05T14:12:56.177Z</time></trkpt><trkpt lat="37.8297917" lon="13.9625867"><ele>391.33333333333337</ele><time>2026-05-05T14:12:57.177Z</time></trkpt><trkpt lat="37.8299383" lon="13.96238"><ele>388.66666666666663</ele><time>2026-05-05T14:12:58.177Z</time></trkpt><trkpt lat="37.8300783" lon="13.9621683"><ele>386.0</ele><time>2026-05-05T14:12:59.177Z</time></trkpt><trkpt lat="37.8302117" lon="13.9619483"><ele>386.0</ele><time>2026-05-05T14:13:00.177Z</time></trkpt><trkpt lat="37.83034" lon="13.9617267"><ele>386.0</ele><time>2026-05-05T14:13:01.177Z</time></trkpt><trkpt lat="37.8304633" lon="13.9615017"><ele>386.0</ele><time>2026-05-05T14:13:02.177Z</time></trkpt><trkpt lat="37.8305833" lon="13.9612667"><ele>383.0</ele><time>2026-05-05T14:13:03.177Z</time></trkpt><trkpt lat="37.830705" lon="13.961025"><ele>380.0</ele><time>2026-05-05T14:13:04.177Z</time></trkpt><trkpt lat="37.8308183" lon="13.9607867"><ele>377.0</ele><time>2026-05-05T14:13:05.177Z</time></trkpt><trkpt lat="37.83093" lon="13.9605467"><ele>374.6666666666667</ele><time>2026-05-05T14:13:06.177Z</time></trkpt><trkpt lat="37.8310333" lon="13.9603033"><ele>372.3333333333333</ele><time>2026-05-05T14:13:07.178Z</time></trkpt><trkpt lat="37.8311317" lon="13.96005"><ele>370.0</ele><time>2026-05-05T14:13:08.177Z</time></trkpt><trkpt lat="37.8312233" lon="13.959795"><ele>369.3333333333333</ele><time>2026-05-05T14:13:09.177Z</time></trkpt><trkpt lat="37.8313133" lon="13.959535"><ele>368.6666666666667</ele><time>2026-05-05T14:13:10.177Z</time></trkpt><trkpt lat="37.8314" lon="13.9592733"><ele>368.0</ele><time>2026-05-05T14:13:11.177Z</time></trkpt><trkpt lat="37.8314817" lon="13.959005"><ele>368.0</ele><time>2026-05-05T14:13:12.177Z</time></trkpt><trkpt lat="37.83156" lon="13.9587367"><ele>368.0</ele><time>2026-05-05T14:13:13.178Z</time></trkpt><trkpt lat="37.8316367" lon="13.9584617"><ele>368.0</ele><time>2026-05-05T14:13:14.177Z</time></trkpt><trkpt lat="37.8317183" lon="13.9581933"><ele>368.0</ele><time>2026-05-05T14:13:15.177Z</time></trkpt><trkpt lat="37.8317967" lon="13.957925"><ele>371.6666666666667</ele><time>2026-05-05T14:13:16.177Z</time></trkpt><trkpt lat="37.831875" lon="13.9576583"><ele>375.3333333333333</ele><time>2026-05-05T14:13:17.177Z</time></trkpt><trkpt lat="37.83195" lon="13.9573917"><ele>379.0</ele><time>2026-05-05T14:13:18.177Z</time></trkpt><trkpt lat="37.83203" lon="13.9571267"><ele>379.0</ele><time>2026-05-05T14:13:19.177Z</time></trkpt><trkpt lat="37.832105" lon="13.95686"><ele>379.0</ele><time>2026-05-05T14:13:20.177Z</time></trkpt><trkpt lat="37.83218" lon="13.956595"><ele>379.0</ele><time>2026-05-05T14:13:21.178Z</time></trkpt><trkpt lat="37.8322583" lon="13.9563383"><ele>374.0</ele><time>2026-05-05T14:13:22.177Z</time></trkpt><trkpt lat="37.832335" lon="13.95607"><ele>369.0</ele><time>2026-05-05T14:13:23.177Z</time></trkpt><trkpt lat="37.8324117" lon="13.9557967"><ele>364.0</ele><time>2026-05-05T14:13:24.178Z</time></trkpt><trkpt lat="37.8324917" lon="13.9555333"><ele>359.0</ele><time>2026-05-05T14:13:25.177Z</time></trkpt><trkpt lat="37.8325683" lon="13.9552583"><ele>361.0</ele><time>2026-05-05T14:13:26.177Z</time></trkpt><trkpt lat="37.83265" lon="13.9549883"><ele>363.0</ele><time>2026-05-05T14:13:27.177Z</time></trkpt><trkpt lat="37.83273" lon="13.95472"><ele>363.0</ele><time>2026-05-05T14:13:28.177Z</time></trkpt><trkpt lat="37.8328117" lon="13.9544567"><ele>363.0</ele><time>2026-05-05T14:13:29.177Z</time></trkpt><trkpt lat="37.8328917" lon="13.9541917"><ele>363.0</ele><time>2026-05-05T14:13:30.177Z</time></trkpt><trkpt lat="37.832975" lon="13.9539267"><ele>361.6666666666667</ele><time>2026-05-05T14:13:31.177Z</time></trkpt><trkpt lat="37.8330467" lon="13.9536567"><ele>360.33333333333337</ele><time>2026-05-05T14:13:32.177Z</time></trkpt><trkpt lat="37.83311" lon="13.95339"><ele>359.0</ele><time>2026-05-05T14:13:33.177Z</time></trkpt><trkpt lat="37.833175" lon="13.9531167"><ele>356.5</ele><time>2026-05-05T14:13:34.178Z</time></trkpt><trkpt lat="37.8332367" lon="13.9528317"><ele>354.0</ele><time>2026-05-05T14:13:35.177Z</time></trkpt><trkpt lat="37.83329" lon="13.952555"><ele>353.0</ele><time>2026-05-05T14:13:36.177Z</time></trkpt><trkpt lat="37.83334" lon="13.9522767"><ele>352.0</ele><time>2026-05-05T14:13:37.177Z</time></trkpt><trkpt lat="37.833385" lon="13.952"><ele>351.0</ele><time>2026-05-05T14:13:38.177Z</time></trkpt><trkpt lat="37.8334283" lon="13.9517083"><ele>350.0</ele><time>2026-05-05T14:13:39.177Z</time></trkpt><trkpt lat="37.83346" lon="13.9514083"><ele>349.0</ele><time>2026-05-05T14:13:40.177Z</time></trkpt><trkpt lat="37.8334917" lon="13.9511117"><ele>349.0</ele><time>2026-05-05T14:13:41.178Z</time></trkpt><trkpt lat="37.8335117" lon="13.9508067"><ele>349.0</ele><time>2026-05-05T14:13:42.177Z</time></trkpt><trkpt lat="37.83352" lon="13.9505067"><ele>349.0</ele><time>2026-05-05T14:13:43.177Z</time></trkpt><trkpt lat="37.8335267" lon="13.9502067"><ele>349.0</ele><time>2026-05-05T14:13:44.177Z</time></trkpt><trkpt lat="37.83353" lon="13.949905"><ele>350.0</ele><time>2026-05-05T14:13:45.178Z</time></trkpt><trkpt lat="37.8335217" lon="13.9496033"><ele>351.0</ele><time>2026-05-05T14:13:46.177Z</time></trkpt><trkpt lat="37.8335133" lon="13.9492933"><ele>348.5</ele><time>2026-05-05T14:13:47.177Z</time></trkpt><trkpt lat="37.8335033" lon="13.9489833"><ele>346.0</ele><time>2026-05-05T14:13:48.177Z</time></trkpt><trkpt lat="37.83349" lon="13.9486783"><ele>344.5</ele><time>2026-05-05T14:13:49.177Z</time></trkpt><trkpt lat="37.8334817" lon="13.9483717"><ele>343.0</ele><time>2026-05-05T14:13:50.177Z</time></trkpt><trkpt lat="37.83348" lon="13.9480617"><ele>343.0</ele><time>2026-05-05T14:13:51.177Z</time></trkpt><trkpt lat="37.8334767" lon="13.947755"><ele>343.0</ele><time>2026-05-05T14:13:52.177Z</time></trkpt><trkpt lat="37.83348" lon="13.94745"><ele>343.5</ele><time>2026-05-05T14:13:53.177Z</time></trkpt><trkpt lat="37.8334917" lon="13.9471433"><ele>344.0</ele><time>2026-05-05T14:13:54.177Z</time></trkpt><trkpt lat="37.8335033" lon="13.9468383"><ele>341.0</ele><time>2026-05-05T14:13:55.177Z</time></trkpt><trkpt lat="37.8335167" lon="13.946535"><ele>338.0</ele><time>2026-05-05T14:13:56.177Z</time></trkpt><trkpt lat="37.8335417" lon="13.946225"><ele>338.0</ele><time>2026-05-05T14:13:57.177Z</time></trkpt><trkpt lat="37.8335733" lon="13.94592"><ele>338.0</ele><time>2026-05-05T14:13:58.177Z</time></trkpt><trkpt lat="37.8336067" lon="13.94562"><ele>335.5</ele><time>2026-05-05T14:13:59.177Z</time></trkpt><trkpt lat="37.833655" lon="13.9453133"><ele>333.0</ele><time>2026-05-05T14:14:00.177Z</time></trkpt><trkpt lat="37.8337083" lon="13.9450117"><ele>331.5</ele><time>2026-05-05T14:14:01.178Z</time></trkpt><trkpt lat="37.8337617" lon="13.9447117"><ele>330.0</ele><time>2026-05-05T14:14:02.177Z</time></trkpt><trkpt lat="37.8338233" lon="13.94441"><ele>330.0</ele><time>2026-05-05T14:14:03.177Z</time></trkpt><trkpt lat="37.833895" lon="13.94412"><ele>330.0</ele><time>2026-05-05T14:14:04.178Z</time></trkpt><trkpt lat="37.8339667" lon="13.9438267"><ele>330.0</ele><time>2026-05-05T14:14:05.177Z</time></trkpt><trkpt lat="37.8340517" lon="13.9435367"><ele>330.0</ele><time>2026-05-05T14:14:06.177Z</time></trkpt><trkpt lat="37.83414" lon="13.9432567"><ele>328.5</ele><time>2026-05-05T14:14:07.177Z</time></trkpt><trkpt lat="37.834235" lon="13.9429867"><ele>327.0</ele><time>2026-05-05T14:14:08.177Z</time></trkpt><trkpt lat="37.8343367" lon="13.94271"><ele>329.5</ele><time>2026-05-05T14:14:09.177Z</time></trkpt><trkpt lat="37.8344433" lon="13.94244"><ele>332.0</ele><time>2026-05-05T14:14:10.177Z</time></trkpt><trkpt lat="37.8345517" lon="13.94217"><ele>332.0</ele><time>2026-05-05T14:14:11.177Z</time></trkpt><trkpt lat="37.8346617" lon="13.9419"><ele>332.0</ele><time>2026-05-05T14:14:12.177Z</time></trkpt><trkpt lat="37.8347667" lon="13.9416317"><ele>327.5</ele><time>2026-05-05T14:14:13.177Z</time></trkpt><trkpt lat="37.834875" lon="13.94137"><ele>323.0</ele><time>2026-05-05T14:14:14.177Z</time></trkpt><trkpt lat="37.8349833" lon="13.9411033"><ele>322.5</ele><time>2026-05-05T14:14:15.177Z</time></trkpt><trkpt lat="37.8350883" lon="13.940835"><ele>322.0</ele><time>2026-05-05T14:14:16.177Z</time></trkpt><trkpt lat="37.8351883" lon="13.94057"><ele>322.0</ele><time>2026-05-05T14:14:17.177Z</time></trkpt><trkpt lat="37.8352883" lon="13.9402967"><ele>322.0</ele><time>2026-05-05T14:14:18.177Z</time></trkpt><trkpt lat="37.8353767" lon="13.9400217"><ele>317.5</ele><time>2026-05-05T14:14:19.177Z</time></trkpt><trkpt lat="37.83545" lon="13.9397367"><ele>313.0</ele><time>2026-05-05T14:14:20.177Z</time></trkpt><trkpt lat="37.835525" lon="13.939445"><ele>312.0</ele><time>2026-05-05T14:14:21.177Z</time></trkpt><trkpt lat="37.8355917" lon="13.9391467"><ele>311.0</ele><time>2026-05-05T14:14:22.177Z</time></trkpt><trkpt lat="37.83565" lon="13.938855"><ele>311.0</ele><time>2026-05-05T14:14:23.178Z</time></trkpt><trkpt lat="37.8357067" lon="13.9385533"><ele>311.0</ele><time>2026-05-05T14:14:24.177Z</time></trkpt><trkpt lat="37.8357383" lon="13.9382617"><ele>311.0</ele><time>2026-05-05T14:14:25.178Z</time></trkpt><trkpt lat="37.83577" lon="13.937965"><ele>311.0</ele><time>2026-05-05T14:14:26.177Z</time></trkpt><trkpt lat="37.8358" lon="13.9376717"><ele>310.33333333333337</ele><time>2026-05-05T14:14:27.178Z</time></trkpt><trkpt lat="37.8358117" lon="13.937395"><ele>309.6666666666667</ele><time>2026-05-05T14:14:28.177Z</time></trkpt><trkpt lat="37.835825" lon="13.9371217"><ele>309.0</ele><time>2026-05-05T14:14:29.177Z</time></trkpt><trkpt lat="37.835835" lon="13.9368533"><ele>307.3333333333333</ele><time>2026-05-05T14:14:30.177Z</time></trkpt><trkpt lat="37.8358383" lon="13.936605"><ele>305.66666666666663</ele><time>2026-05-05T14:14:31.177Z</time></trkpt><trkpt lat="37.8358417" lon="13.9363583"><ele>304.0</ele><time>2026-05-05T14:14:32.177Z</time></trkpt><trkpt lat="37.8358433" lon="13.9361417"><ele>304.0</ele><time>2026-05-05T14:14:33.177Z</time></trkpt><trkpt lat="37.8358433" lon="13.9359317"><ele>304.0</ele><time>2026-05-05T14:14:34.177Z</time></trkpt><trkpt lat="37.8358417" lon="13.93572"><ele>304.0</ele><time>2026-05-05T14:14:35.177Z</time></trkpt><trkpt lat="37.8358417" lon="13.9355217"><ele>303.75</ele><time>2026-05-05T14:14:36.177Z</time></trkpt><trkpt lat="37.8358333" lon="13.93533"><ele>303.5</ele><time>2026-05-05T14:14:37.177Z</time></trkpt><trkpt lat="37.835835" lon="13.9351483"><ele>303.25</ele><time>2026-05-05T14:14:38.177Z</time></trkpt><trkpt lat="37.8358283" lon="13.93497"><ele>303.0</ele><time>2026-05-05T14:14:39.177Z</time></trkpt><trkpt lat="37.83583" lon="13.9347867"><ele>302.5</ele><time>2026-05-05T14:14:40.177Z</time></trkpt><trkpt lat="37.83583" lon="13.934605"><ele>302.0</ele><time>2026-05-05T14:14:41.177Z</time></trkpt><trkpt lat="37.8358417" lon="13.9344217"><ele>301.5</ele><time>2026-05-05T14:14:42.177Z</time></trkpt><trkpt lat="37.835855" lon="13.9342367"><ele>301.0</ele><time>2026-05-05T14:14:43.177Z</time></trkpt><trkpt lat="37.8358683" lon="13.93405"><ele>300.66666666666663</ele><time>2026-05-05T14:14:44.178Z</time></trkpt><trkpt lat="37.835875" lon="13.93386"><ele>300.3333333333333</ele><time>2026-05-05T14:14:45.177Z</time></trkpt><trkpt lat="37.83588" lon="13.9336567"><ele>300.0</ele><time>2026-05-05T14:14:46.177Z</time></trkpt><trkpt lat="37.8358817" lon="13.9334517"><ele>299.0</ele><time>2026-05-05T14:14:47.177Z</time></trkpt><trkpt lat="37.83588" lon="13.9332483"><ele>298.0</ele><time>2026-05-05T14:14:48.177Z</time></trkpt><trkpt lat="37.8358783" lon="13.9330383"><ele>297.0</ele><time>2026-05-05T14:14:49.177Z</time></trkpt><trkpt lat="37.8358817" lon="13.9328283"><ele>297.0</ele><time>2026-05-05T14:14:50.177Z</time></trkpt><trkpt lat="37.8358817" lon="13.9326083"><ele>297.0</ele><time>2026-05-05T14:14:51.178Z</time></trkpt><trkpt lat="37.8358833" lon="13.9323783"><ele>297.0</ele><time>2026-05-05T14:14:52.177Z</time></trkpt><trkpt lat="37.8358883" lon="13.9321467"><ele>296.0</ele><time>2026-05-05T14:14:53.177Z</time></trkpt><trkpt lat="37.835895" lon="13.9319067"><ele>295.0</ele><time>2026-05-05T14:14:54.177Z</time></trkpt><trkpt lat="37.835895" lon="13.931655"><ele>294.0</ele><time>2026-05-05T14:14:55.177Z</time></trkpt><trkpt lat="37.83589" lon="13.931405"><ele>292.3333333333333</ele><time>2026-05-05T14:14:56.178Z</time></trkpt><trkpt lat="37.83589" lon="13.93115"><ele>290.66666666666663</ele><time>2026-05-05T14:14:57.178Z</time></trkpt><trkpt lat="37.8358917" lon="13.9308967"><ele>289.0</ele><time>2026-05-05T14:14:58.177Z</time></trkpt><trkpt lat="37.8359033" lon="13.930635"><ele>286.66666666666663</ele><time>2026-05-05T14:14:59.178Z</time></trkpt><trkpt lat="37.8359133" lon="13.93038"><ele>284.3333333333333</ele><time>2026-05-05T14:15:00.177Z</time></trkpt><trkpt lat="37.835925" lon="13.9301167"><ele>282.0</ele><time>2026-05-05T14:15:01.177Z</time></trkpt><trkpt lat="37.835945" lon="13.9298567"><ele>282.6666666666667</ele><time>2026-05-05T14:15:02.177Z</time></trkpt><trkpt lat="37.83597" lon="13.9295967"><ele>283.33333333333337</ele><time>2026-05-05T14:15:03.177Z</time></trkpt><trkpt lat="37.8360017" lon="13.929335"><ele>284.0</ele><time>2026-05-05T14:15:04.177Z</time></trkpt><trkpt lat="37.836035" lon="13.9290717"><ele>284.0</ele><time>2026-05-05T14:15:05.177Z</time></trkpt><trkpt lat="37.8360767" lon="13.928805"><ele>284.0</ele><time>2026-05-05T14:15:06.177Z</time></trkpt><trkpt lat="37.836115" lon="13.92854"><ele>284.0</ele><time>2026-05-05T14:15:07.177Z</time></trkpt><trkpt lat="37.83616" lon="13.9282833"><ele>281.0</ele><time>2026-05-05T14:15:08.177Z</time></trkpt><trkpt lat="37.8362067" lon="13.9280283"><ele>278.0</ele><time>2026-05-05T14:15:09.177Z</time></trkpt><trkpt lat="37.8362633" lon="13.9277667"><ele>275.0</ele><time>2026-05-05T14:15:10.177Z</time></trkpt><trkpt lat="37.8363233" lon="13.927505"><ele>273.33333333333337</ele><time>2026-05-05T14:15:11.178Z</time></trkpt><trkpt lat="37.8363833" lon="13.9272483"><ele>271.6666666666667</ele><time>2026-05-05T14:15:12.177Z</time></trkpt><trkpt lat="37.8364467" lon="13.9269917"><ele>270.0</ele><time>2026-05-05T14:15:13.177Z</time></trkpt><trkpt lat="37.836515" lon="13.9267367"><ele>270.3333333333333</ele><time>2026-05-05T14:15:14.177Z</time></trkpt><trkpt lat="37.83659" lon="13.92648"><ele>270.66666666666663</ele><time>2026-05-05T14:15:15.177Z</time></trkpt><trkpt lat="37.83667" lon="13.9262283"><ele>271.0</ele><time>2026-05-05T14:15:16.178Z</time></trkpt><trkpt lat="37.8367467" lon="13.9259767"><ele>270.66666666666663</ele><time>2026-05-05T14:15:17.178Z</time></trkpt><trkpt lat="37.836835" lon="13.9257283"><ele>270.3333333333333</ele><time>2026-05-05T14:15:18.177Z</time></trkpt><trkpt lat="37.836925" lon="13.92548"><ele>270.0</ele><time>2026-05-05T14:15:19.177Z</time></trkpt><trkpt lat="37.83702" lon="13.9252367"><ele>268.0</ele><time>2026-05-05T14:15:20.177Z</time></trkpt><trkpt lat="37.8371183" lon="13.924995"><ele>266.0</ele><time>2026-05-05T14:15:21.177Z</time></trkpt><trkpt lat="37.8372233" lon="13.9247567"><ele>264.0</ele><time>2026-05-05T14:15:22.177Z</time></trkpt><trkpt lat="37.83734" lon="13.9245117"><ele>264.0</ele><time>2026-05-05T14:15:23.177Z</time></trkpt><trkpt lat="37.8374583" lon="13.924275"><ele>264.0</ele><time>2026-05-05T14:15:24.177Z</time></trkpt><trkpt lat="37.83758" lon="13.92404"><ele>264.0</ele><time>2026-05-05T14:15:25.177Z</time></trkpt><trkpt lat="37.8377117" lon="13.923805"><ele>263.0</ele><time>2026-05-05T14:15:26.177Z</time></trkpt><trkpt lat="37.8378483" lon="13.9235733"><ele>262.0</ele><time>2026-05-05T14:15:27.177Z</time></trkpt><trkpt lat="37.8379967" lon="13.9233417"><ele>262.0</ele><time>2026-05-05T14:15:28.177Z</time></trkpt><trkpt lat="37.8381483" lon="13.9231217"><ele>262.0</ele><time>2026-05-05T14:15:29.177Z</time></trkpt><trkpt lat="37.8383067" lon="13.9229083"><ele>262.0</ele><time>2026-05-05T14:15:30.177Z</time></trkpt><trkpt lat="37.8384667" lon="13.9227033"><ele>262.0</ele><time>2026-05-05T14:15:31.177Z</time></trkpt><trkpt lat="37.8386367" lon="13.9225017"><ele>261.0</ele><time>2026-05-05T14:15:32.177Z</time></trkpt><trkpt lat="37.8388117" lon="13.9223083"><ele>260.0</ele><time>2026-05-05T14:15:33.177Z</time></trkpt><trkpt lat="37.83899" lon="13.9221167"><ele>260.0</ele><time>2026-05-05T14:15:34.177Z</time></trkpt><trkpt lat="37.8391717" lon="13.92193"><ele>260.0</ele><time>2026-05-05T14:15:35.177Z</time></trkpt><trkpt lat="37.839355" lon="13.9217417"><ele>260.33333333333337</ele><time>2026-05-05T14:15:36.177Z</time></trkpt><trkpt lat="37.8395333" lon="13.9215583"><ele>260.6666666666667</ele><time>2026-05-05T14:15:37.177Z</time></trkpt><trkpt lat="37.8397" lon="13.921385"><ele>261.0</ele><time>2026-05-05T14:15:38.178Z</time></trkpt><trkpt lat="37.839855" lon="13.9212183"><ele>261.0</ele><time>2026-05-05T14:15:39.178Z</time></trkpt><trkpt lat="37.8400033" lon="13.9210617"><ele>261.0</ele><time>2026-05-05T14:15:40.177Z</time></trkpt><trkpt lat="37.84015" lon="13.9209017"><ele>261.0</ele><time>2026-05-05T14:15:41.177Z</time></trkpt><trkpt lat="37.8402967" lon="13.920745"><ele>258.6666666666667</ele><time>2026-05-05T14:15:42.177Z</time></trkpt><trkpt lat="37.8404383" lon="13.9205967"><ele>256.33333333333337</ele><time>2026-05-05T14:15:43.178Z</time></trkpt><trkpt lat="37.8405767" lon="13.9204483"><ele>254.0</ele><time>2026-05-05T14:15:44.177Z</time></trkpt><trkpt lat="37.8407183" lon="13.920305"><ele>254.0</ele><time>2026-05-05T14:15:45.178Z</time></trkpt><trkpt lat="37.8408533" lon="13.92017"><ele>254.0</ele><time>2026-05-05T14:15:46.177Z</time></trkpt><trkpt lat="37.84099" lon="13.9200333"><ele>254.0</ele><time>2026-05-05T14:15:47.177Z</time></trkpt><trkpt lat="37.8411283" lon="13.9198983"><ele>253.0</ele><time>2026-05-05T14:15:48.177Z</time></trkpt><trkpt lat="37.8412633" lon="13.91977"><ele>252.0</ele><time>2026-05-05T14:15:49.177Z</time></trkpt><trkpt lat="37.8413967" lon="13.9196383"><ele>251.0</ele><time>2026-05-05T14:15:50.177Z</time></trkpt><trkpt lat="37.8415317" lon="13.9195067"><ele>251.0</ele><time>2026-05-05T14:15:51.177Z</time></trkpt><trkpt lat="37.8416767" lon="13.9193733"><ele>251.0</ele><time>2026-05-05T14:15:52.177Z</time></trkpt><trkpt lat="37.8418283" lon="13.9192483"><ele>251.0</ele><time>2026-05-05T14:15:53.177Z</time></trkpt><trkpt lat="37.8419817" lon="13.9191183"><ele>249.0</ele><time>2026-05-05T14:15:54.177Z</time></trkpt><trkpt lat="37.8421383" lon="13.9189933"><ele>247.0</ele><time>2026-05-05T14:15:55.177Z</time></trkpt><trkpt lat="37.8422967" lon="13.918865"><ele>245.0</ele><time>2026-05-05T14:15:56.177Z</time></trkpt><trkpt lat="37.8424583" lon="13.9187333"><ele>245.0</ele><time>2026-05-05T14:15:57.177Z</time></trkpt><trkpt lat="37.8426267" lon="13.918595"><ele>245.0</ele><time>2026-05-05T14:15:58.177Z</time></trkpt><trkpt lat="37.8427967" lon="13.91846"><ele>245.0</ele><time>2026-05-05T14:15:59.177Z</time></trkpt><trkpt lat="37.8429683" lon="13.9183233"><ele>244.66666666666669</ele><time>2026-05-05T14:16:00.177Z</time></trkpt><trkpt lat="37.8431433" lon="13.9181833"><ele>244.33333333333331</ele><time>2026-05-05T14:16:01.177Z</time></trkpt><trkpt lat="37.843325" lon="13.9180467"><ele>244.0</ele><time>2026-05-05T14:16:02.177Z</time></trkpt><trkpt lat="37.843505" lon="13.9179083"><ele>245.66666666666666</ele><time>2026-05-05T14:16:03.177Z</time></trkpt><trkpt lat="37.843685" lon="13.9177633"><ele>247.33333333333331</ele><time>2026-05-05T14:16:04.177Z</time></trkpt><trkpt lat="37.8438633" lon="13.9176183"><ele>249.0</ele><time>2026-05-05T14:16:05.177Z</time></trkpt><trkpt lat="37.8440467" lon="13.9174733"><ele>247.33333333333331</ele><time>2026-05-05T14:16:06.178Z</time></trkpt><trkpt lat="37.8442283" lon="13.9173267"><ele>245.66666666666666</ele><time>2026-05-05T14:16:07.177Z</time></trkpt><trkpt lat="37.8444133" lon="13.917185"><ele>244.0</ele><time>2026-05-05T14:16:08.177Z</time></trkpt><trkpt lat="37.8445967" lon="13.9170383"><ele>244.0</ele><time>2026-05-05T14:16:09.177Z</time></trkpt><trkpt lat="37.8447783" lon="13.91689"><ele>244.0</ele><time>2026-05-05T14:16:10.177Z</time></trkpt><trkpt lat="37.8449633" lon="13.9167433"><ele>244.0</ele><time>2026-05-05T14:16:11.177Z</time></trkpt><trkpt lat="37.8451483" lon="13.9166017"><ele>241.0</ele><time>2026-05-05T14:16:12.177Z</time></trkpt><trkpt lat="37.84534" lon="13.91646"><ele>238.0</ele><time>2026-05-05T14:16:13.177Z</time></trkpt><trkpt lat="37.8455317" lon="13.91632"><ele>235.0</ele><time>2026-05-05T14:16:14.177Z</time></trkpt><trkpt lat="37.8457217" lon="13.916185"><ele>235.0</ele><time>2026-05-05T14:16:15.177Z</time></trkpt><trkpt lat="37.845915" lon="13.9160467"><ele>235.0</ele><time>2026-05-05T14:16:16.178Z</time></trkpt><trkpt lat="37.8461167" lon="13.91591"><ele>235.0</ele><time>2026-05-05T14:16:17.177Z</time></trkpt><trkpt lat="37.846315" lon="13.9157767"><ele>235.0</ele><time>2026-05-05T14:16:18.178Z</time></trkpt><trkpt lat="37.8465117" lon="13.9156433"><ele>235.0</ele><time>2026-05-05T14:16:19.177Z</time></trkpt><trkpt lat="37.84671" lon="13.915505"><ele>243.5</ele><time>2026-05-05T14:16:20.177Z</time></trkpt><trkpt lat="37.8469067" lon="13.91537"><ele>252.0</ele><time>2026-05-05T14:16:21.177Z</time></trkpt><trkpt lat="37.8471133" lon="13.9152383"><ele>252.0</ele><time>2026-05-05T14:16:22.177Z</time></trkpt><trkpt lat="37.84732" lon="13.9151083"><ele>252.0</ele><time>2026-05-05T14:16:23.177Z</time></trkpt><trkpt lat="37.84752" lon="13.9149683"><ele>249.5</ele><time>2026-05-05T14:16:24.177Z</time></trkpt><trkpt lat="37.84772" lon="13.914825"><ele>247.0</ele><time>2026-05-05T14:16:25.177Z</time></trkpt><trkpt lat="37.8479233" lon="13.9146833"><ele>247.0</ele><time>2026-05-05T14:16:26.177Z</time></trkpt><trkpt lat="37.8481583" lon="13.9145283"><ele>247.0</ele><time>2026-05-05T14:16:27.177Z</time></trkpt><trkpt lat="37.848385" lon="13.914445"><ele>243.5</ele><time>2026-05-05T14:16:28.177Z</time></trkpt><trkpt lat="37.8485917" lon="13.91427"><ele>240.0</ele><time>2026-05-05T14:16:29.177Z</time></trkpt><trkpt lat="37.848795" lon="13.914095"><ele>235.0</ele><time>2026-05-05T14:16:30.178Z</time></trkpt><trkpt lat="37.8489967" lon="13.913905"><ele>230.0</ele><time>2026-05-05T14:16:31.177Z</time></trkpt><trkpt lat="37.8491917" lon="13.91371"><ele>231.5</ele><time>2026-05-05T14:16:32.177Z</time></trkpt><trkpt lat="37.8493833" lon="13.9135117"><ele>233.0</ele><time>2026-05-05T14:16:33.177Z</time></trkpt><trkpt lat="37.849575" lon="13.913315"><ele>233.0</ele><time>2026-05-05T14:16:34.177Z</time></trkpt><trkpt lat="37.84976" lon="13.913115"><ele>233.0</ele><time>2026-05-05T14:16:35.177Z</time></trkpt><trkpt lat="37.8499383" lon="13.9129217"><ele>233.0</ele><time>2026-05-05T14:16:36.177Z</time></trkpt><trkpt lat="37.8501133" lon="13.9127183"><ele>233.0</ele><time>2026-05-05T14:16:37.177Z</time></trkpt><trkpt lat="37.8502833" lon="13.9125067"><ele>235.0</ele><time>2026-05-05T14:16:38.177Z</time></trkpt><trkpt lat="37.8504483" lon="13.91228"><ele>237.0</ele><time>2026-05-05T14:16:39.177Z</time></trkpt><trkpt lat="37.8506067" lon="13.9120533"><ele>237.0</ele><time>2026-05-05T14:16:40.177Z</time></trkpt><trkpt lat="37.8507617" lon="13.9118217"><ele>237.0</ele><time>2026-05-05T14:16:41.177Z</time></trkpt><trkpt lat="37.85091" lon="13.9115883"><ele>233.5</ele><time>2026-05-05T14:16:42.177Z</time></trkpt><trkpt lat="37.8510533" lon="13.9113467"><ele>230.0</ele><time>2026-05-05T14:16:43.177Z</time></trkpt><trkpt lat="37.8511967" lon="13.9111033"><ele>227.0</ele><time>2026-05-05T14:16:44.177Z</time></trkpt><trkpt lat="37.8513417" lon="13.9108533"><ele>224.0</ele><time>2026-05-05T14:16:45.177Z</time></trkpt><trkpt lat="37.8514883" lon="13.9105983"><ele>224.0</ele><time>2026-05-05T14:16:46.178Z</time></trkpt><trkpt lat="37.8516333" lon="13.9103567"><ele>224.0</ele><time>2026-05-05T14:16:47.177Z</time></trkpt><trkpt lat="37.85178" lon="13.9101117"><ele>226.0</ele><time>2026-05-05T14:16:48.177Z</time></trkpt><trkpt lat="37.8519233" lon="13.9098683"><ele>228.0</ele><time>2026-05-05T14:16:49.177Z</time></trkpt><trkpt lat="37.8520683" lon="13.9096267"><ele>228.0</ele><time>2026-05-05T14:16:50.177Z</time></trkpt><trkpt lat="37.8522133" lon="13.9093867"><ele>228.0</ele><time>2026-05-05T14:16:51.177Z</time></trkpt><trkpt lat="37.852355" lon="13.9091417"><ele>229.5</ele><time>2026-05-05T14:16:52.177Z</time></trkpt><trkpt lat="37.8524917" lon="13.90889"><ele>231.0</ele><time>2026-05-05T14:16:53.177Z</time></trkpt><trkpt lat="37.8526317" lon="13.9086517"><ele>226.5</ele><time>2026-05-05T14:16:54.177Z</time></trkpt><trkpt lat="37.8527733" lon="13.9084067"><ele>222.0</ele><time>2026-05-05T14:16:55.177Z</time></trkpt><trkpt lat="37.8529183" lon="13.9081567"><ele>222.0</ele><time>2026-05-05T14:16:56.177Z</time></trkpt><trkpt lat="37.8530633" lon="13.9079133"><ele>222.0</ele><time>2026-05-05T14:16:57.177Z</time></trkpt><trkpt lat="37.8532133" lon="13.907665"><ele>220.0</ele><time>2026-05-05T14:16:58.177Z</time></trkpt><trkpt lat="37.853355" lon="13.90742"><ele>218.0</ele><time>2026-05-05T14:16:59.177Z</time></trkpt><trkpt lat="37.8534983" lon="13.9071817"><ele>218.0</ele><time>2026-05-05T14:17:00.177Z</time></trkpt><trkpt lat="37.8536467" lon="13.9069317"><ele>218.0</ele><time>2026-05-05T14:17:01.178Z</time></trkpt><trkpt lat="37.8537917" lon="13.9066833"><ele>218.0</ele><time>2026-05-05T14:17:02.178Z</time></trkpt><trkpt lat="37.8539367" lon="13.9064383"><ele>218.0</ele><time>2026-05-05T14:17:03.177Z</time></trkpt><trkpt lat="37.85408" lon="13.9061833"><ele>218.0</ele><time>2026-05-05T14:17:04.177Z</time></trkpt><trkpt lat="37.8542217" lon="13.9059367"><ele>218.0</ele><time>2026-05-05T14:17:05.177Z</time></trkpt><trkpt lat="37.85437" lon="13.9056983"><ele>217.5</ele><time>2026-05-05T14:17:06.177Z</time></trkpt><trkpt lat="37.85452" lon="13.9054467"><ele>217.0</ele><time>2026-05-05T14:17:07.177Z</time></trkpt><trkpt lat="37.85466" lon="13.905205"><ele>213.0</ele><time>2026-05-05T14:17:08.177Z</time></trkpt><trkpt lat="37.8548033" lon="13.904965"><ele>209.0</ele><time>2026-05-05T14:17:09.177Z</time></trkpt><trkpt lat="37.8549517" lon="13.90471"><ele>209.0</ele><time>2026-05-05T14:17:10.177Z</time></trkpt><trkpt lat="37.8550983" lon="13.9044717"><ele>209.0</ele><time>2026-05-05T14:17:11.177Z</time></trkpt><trkpt lat="37.85524" lon="13.9042283"><ele>208.0</ele><time>2026-05-05T14:17:12.177Z</time></trkpt><trkpt lat="37.855385" lon="13.903975"><ele>207.0</ele><time>2026-05-05T14:17:13.177Z</time></trkpt><trkpt lat="37.8555283" lon="13.9037367"><ele>207.0</ele><time>2026-05-05T14:17:14.177Z</time></trkpt><trkpt lat="37.855675" lon="13.9035"><ele>207.0</ele><time>2026-05-05T14:17:15.177Z</time></trkpt><trkpt lat="37.855825" lon="13.90326"><ele>206.0</ele><time>2026-05-05T14:17:16.177Z</time></trkpt><trkpt lat="37.8559817" lon="13.9030217"><ele>205.0</ele><time>2026-05-05T14:17:17.178Z</time></trkpt><trkpt lat="37.8561433" lon="13.9028017"><ele>205.0</ele><time>2026-05-05T14:17:18.177Z</time></trkpt><trkpt lat="37.8563117" lon="13.902585"><ele>205.0</ele><time>2026-05-05T14:17:19.177Z</time></trkpt><trkpt lat="37.8564817" lon="13.902375"><ele>205.0</ele><time>2026-05-05T14:17:20.177Z</time></trkpt><trkpt lat="37.856655" lon="13.9021667"><ele>205.0</ele><time>2026-05-05T14:17:21.178Z</time></trkpt><trkpt lat="37.8568367" lon="13.9019733"><ele>205.0</ele><time>2026-05-05T14:17:22.177Z</time></trkpt><trkpt lat="37.8570267" lon="13.9017833"><ele>205.0</ele><time>2026-05-05T14:17:23.177Z</time></trkpt><trkpt lat="37.8572083" lon="13.9015917"><ele>201.5</ele><time>2026-05-05T14:17:24.178Z</time></trkpt><trkpt lat="37.8574" lon="13.9014033"><ele>198.0</ele><time>2026-05-05T14:17:25.177Z</time></trkpt><trkpt lat="37.8575967" lon="13.90122"><ele>199.5</ele><time>2026-05-05T14:17:26.177Z</time></trkpt><trkpt lat="37.8577967" lon="13.9010483"><ele>201.0</ele><time>2026-05-05T14:17:27.177Z</time></trkpt><trkpt lat="37.857995" lon="13.900875"><ele>197.0</ele><time>2026-05-05T14:17:28.177Z</time></trkpt><trkpt lat="37.858185" lon="13.9007033"><ele>193.0</ele><time>2026-05-05T14:17:29.177Z</time></trkpt><trkpt lat="37.8583783" lon="13.9005217"><ele>196.0</ele><time>2026-05-05T14:17:30.177Z</time></trkpt><trkpt lat="37.8585767" lon="13.9003483"><ele>199.0</ele><time>2026-05-05T14:17:31.177Z</time></trkpt><trkpt lat="37.85877" lon="13.9001783"><ele>194.5</ele><time>2026-05-05T14:17:32.178Z</time></trkpt><trkpt lat="37.858965" lon="13.9000033"><ele>190.0</ele><time>2026-05-05T14:17:33.177Z</time></trkpt><trkpt lat="37.8591583" lon="13.89982"><ele>188.5</ele><time>2026-05-05T14:17:34.177Z</time></trkpt><trkpt lat="37.8593467" lon="13.89963"><ele>187.0</ele><time>2026-05-05T14:17:35.178Z</time></trkpt><trkpt lat="37.8595317" lon="13.8994233"><ele>185.0</ele><time>2026-05-05T14:17:36.177Z</time></trkpt><trkpt lat="37.859705" lon="13.8992"><ele>183.0</ele><time>2026-05-05T14:17:37.177Z</time></trkpt><trkpt lat="37.8598667" lon="13.8989667"><ele>183.0</ele><time>2026-05-05T14:17:38.177Z</time></trkpt><trkpt lat="37.8600233" lon="13.8987217"><ele>183.0</ele><time>2026-05-05T14:17:39.177Z</time></trkpt><trkpt lat="37.8601617" lon="13.8984717"><ele>182.5</ele><time>2026-05-05T14:17:40.178Z</time></trkpt><trkpt lat="37.8602867" lon="13.8982183"><ele>182.0</ele><time>2026-05-05T14:17:41.178Z</time></trkpt><trkpt lat="37.8604033" lon="13.897945"><ele>182.0</ele><time>2026-05-05T14:17:42.177Z</time></trkpt><trkpt lat="37.860505" lon="13.89767"><ele>182.0</ele><time>2026-05-05T14:17:43.177Z</time></trkpt><trkpt lat="37.8605967" lon="13.89739"><ele>181.5</ele><time>2026-05-05T14:17:44.177Z</time></trkpt><trkpt lat="37.860675" lon="13.897105"><ele>181.0</ele><time>2026-05-05T14:17:45.177Z</time></trkpt><trkpt lat="37.8607467" lon="13.8968083"><ele>179.0</ele><time>2026-05-05T14:17:46.177Z</time></trkpt><trkpt lat="37.860815" lon="13.89651"><ele>177.0</ele><time>2026-05-05T14:17:47.178Z</time></trkpt><trkpt lat="37.860865" lon="13.8962067"><ele>179.5</ele><time>2026-05-05T14:17:48.177Z</time></trkpt><trkpt lat="37.8609033" lon="13.8959"><ele>182.0</ele><time>2026-05-05T14:17:49.177Z</time></trkpt><trkpt lat="37.8609317" lon="13.8956017"><ele>198.5</ele><time>2026-05-05T14:17:50.178Z</time></trkpt><trkpt lat="37.8609683" lon="13.8953"><ele>215.0</ele><time>2026-05-05T14:17:51.177Z</time></trkpt><trkpt lat="37.861" lon="13.895"><ele>215.0</ele><time>2026-05-05T14:17:52.177Z</time></trkpt><trkpt lat="37.8610333" lon="13.8946967"><ele>215.0</ele><time>2026-05-05T14:17:53.177Z</time></trkpt><trkpt lat="37.8610633" lon="13.8944017"><ele>209.5</ele><time>2026-05-05T14:17:54.177Z</time></trkpt><trkpt lat="37.8611" lon="13.894105"><ele>204.0</ele><time>2026-05-05T14:17:55.177Z</time></trkpt><trkpt lat="37.861135" lon="13.893805"><ele>204.0</ele><time>2026-05-05T14:17:56.178Z</time></trkpt><trkpt lat="37.8611683" lon="13.893505"><ele>204.0</ele><time>2026-05-05T14:17:57.177Z</time></trkpt><trkpt lat="37.8612" lon="13.8931983"><ele>194.0</ele><time>2026-05-05T14:17:58.178Z</time></trkpt><trkpt lat="37.861235" lon="13.8929"><ele>184.0</ele><time>2026-05-05T14:17:59.177Z</time></trkpt><trkpt lat="37.86128" lon="13.8926067"><ele>174.0</ele><time>2026-05-05T14:18:00.177Z</time></trkpt><trkpt lat="37.86133" lon="13.8923133"><ele>164.0</ele><time>2026-05-05T14:18:01.177Z</time></trkpt><trkpt lat="37.86139" lon="13.8920083"><ele>166.5</ele><time>2026-05-05T14:18:02.177Z</time></trkpt><trkpt lat="37.8614683" lon="13.89172"><ele>169.0</ele><time>2026-05-05T14:18:03.177Z</time></trkpt><trkpt lat="37.8615567" lon="13.89144"><ele>169.0</ele><time>2026-05-05T14:18:04.178Z</time></trkpt><trkpt lat="37.8616567" lon="13.8911667"><ele>169.0</ele><time>2026-05-05T14:18:05.177Z</time></trkpt><trkpt lat="37.861755" lon="13.8908933"><ele>166.5</ele><time>2026-05-05T14:18:06.177Z</time></trkpt><trkpt lat="37.8618667" lon="13.8906117"><ele>164.0</ele><time>2026-05-05T14:18:07.177Z</time></trkpt><trkpt lat="37.8619767" lon="13.8903533"><ele>164.0</ele><time>2026-05-05T14:18:08.177Z</time></trkpt><trkpt lat="37.8620833" lon="13.8900917"><ele>164.0</ele><time>2026-05-05T14:18:09.177Z</time></trkpt><trkpt lat="37.8621983" lon="13.889835"><ele>171.0</ele><time>2026-05-05T14:18:10.177Z</time></trkpt><trkpt lat="37.8623167" lon="13.889585"><ele>178.0</ele><time>2026-05-05T14:18:11.177Z</time></trkpt><trkpt lat="37.8624317" lon="13.8893283"><ele>181.5</ele><time>2026-05-05T14:18:12.177Z</time></trkpt><trkpt lat="37.862555" lon="13.8890733"><ele>185.0</ele><time>2026-05-05T14:18:13.177Z</time></trkpt><trkpt lat="37.862715" lon="13.8888683"><ele>170.0</ele><time>2026-05-05T14:18:14.178Z</time></trkpt><trkpt lat="37.862835" lon="13.8885617"><ele>155.0</ele><time>2026-05-05T14:18:15.177Z</time></trkpt><trkpt lat="37.862965" lon="13.8882817"><ele>155.0</ele><time>2026-05-05T14:18:16.177Z</time></trkpt><trkpt lat="37.86309" lon="13.8880067"><ele>155.0</ele><time>2026-05-05T14:18:17.177Z</time></trkpt><trkpt lat="37.863195" lon="13.8877467"><ele>158.0</ele><time>2026-05-05T14:18:18.177Z</time></trkpt><trkpt lat="37.8632833" lon="13.8874667"><ele>161.0</ele><time>2026-05-05T14:18:19.177Z</time></trkpt><trkpt lat="37.8633667" lon="13.8871767"><ele>161.0</ele><time>2026-05-05T14:18:20.177Z</time></trkpt><trkpt lat="37.8634433" lon="13.8868667"><ele>161.0</ele><time>2026-05-05T14:18:21.177Z</time></trkpt><trkpt lat="37.863505" lon="13.8865617"><ele>172.0</ele><time>2026-05-05T14:18:22.177Z</time></trkpt><trkpt lat="37.8635533" lon="13.8862667"><ele>183.0</ele><time>2026-05-05T14:18:23.177Z</time></trkpt><trkpt lat="37.86358" lon="13.8859667"><ele>180.0</ele><time>2026-05-05T14:18:24.177Z</time></trkpt><trkpt lat="37.8635983" lon="13.8856633"><ele>177.0</ele><time>2026-05-05T14:18:25.177Z</time></trkpt><trkpt lat="37.863615" lon="13.8853567"><ele>179.5</ele><time>2026-05-05T14:18:26.177Z</time></trkpt><trkpt lat="37.8636417" lon="13.8850517"><ele>182.0</ele><time>2026-05-05T14:18:27.177Z</time></trkpt><trkpt lat="37.863675" lon="13.88474"><ele>182.0</ele><time>2026-05-05T14:18:28.177Z</time></trkpt><trkpt lat="37.8637033" lon="13.8844317"><ele>182.0</ele><time>2026-05-05T14:18:29.177Z</time></trkpt><trkpt lat="37.863725" lon="13.88412"><ele>178.5</ele><time>2026-05-05T14:18:30.178Z</time></trkpt><trkpt lat="37.8637283" lon="13.8838133"><ele>175.0</ele><time>2026-05-05T14:18:31.177Z</time></trkpt><trkpt lat="37.8637267" lon="13.8835167"><ele>164.5</ele><time>2026-05-05T14:18:32.177Z</time></trkpt><trkpt lat="37.86371" lon="13.8832117"><ele>154.0</ele><time>2026-05-05T14:18:33.177Z</time></trkpt><trkpt lat="37.86369" lon="13.8829067"><ele>154.0</ele><time>2026-05-05T14:18:34.177Z</time></trkpt><trkpt lat="37.8636583" lon="13.88261"><ele>154.0</ele><time>2026-05-05T14:18:35.177Z</time></trkpt><trkpt lat="37.8636167" lon="13.8823083"><ele>152.0</ele><time>2026-05-05T14:18:36.177Z</time></trkpt><trkpt lat="37.8635633" lon="13.8820017"><ele>150.0</ele><time>2026-05-05T14:18:37.177Z</time></trkpt><trkpt lat="37.8635117" lon="13.881705"><ele>150.0</ele><time>2026-05-05T14:18:38.177Z</time></trkpt><trkpt lat="37.863465" lon="13.8814217"><ele>150.0</ele><time>2026-05-05T14:18:39.177Z</time></trkpt><trkpt lat="37.86343" lon="13.8811217"><ele>149.5</ele><time>2026-05-05T14:18:40.177Z</time></trkpt><trkpt lat="37.8634017" lon="13.8808133"><ele>149.0</ele><time>2026-05-05T14:18:41.177Z</time></trkpt><trkpt lat="37.8633883" lon="13.880505"><ele>149.0</ele><time>2026-05-05T14:18:42.177Z</time></trkpt><trkpt lat="37.8633833" lon="13.88019"><ele>149.0</ele><time>2026-05-05T14:18:43.177Z</time></trkpt><trkpt lat="37.86338" lon="13.87988"><ele>149.0</ele><time>2026-05-05T14:18:44.177Z</time></trkpt><trkpt lat="37.8633883" lon="13.8795883"><ele>149.0</ele><time>2026-05-05T14:18:45.178Z</time></trkpt><trkpt lat="37.8634067" lon="13.879315"><ele>149.0</ele><time>2026-05-05T14:18:46.177Z</time></trkpt><trkpt lat="37.86344" lon="13.87905"><ele>151.33333333333331</ele><time>2026-05-05T14:18:47.178Z</time></trkpt><trkpt lat="37.8634833" lon="13.8787867"><ele>153.66666666666666</ele><time>2026-05-05T14:18:48.177Z</time></trkpt><trkpt lat="37.863535" lon="13.8785317"><ele>156.0</ele><time>2026-05-05T14:18:49.178Z</time></trkpt><trkpt lat="37.8635933" lon="13.8782783"><ele>156.0</ele><time>2026-05-05T14:18:50.177Z</time></trkpt><trkpt lat="37.863655" lon="13.878035"><ele>156.0</ele><time>2026-05-05T14:18:51.177Z</time></trkpt><trkpt lat="37.8637167" lon="13.8777983"><ele>156.0</ele><time>2026-05-05T14:18:52.177Z</time></trkpt><trkpt lat="37.86378" lon="13.877565"><ele>153.66666666666666</ele><time>2026-05-05T14:18:53.177Z</time></trkpt><trkpt lat="37.863835" lon="13.8773367"><ele>151.33333333333331</ele><time>2026-05-05T14:18:54.177Z</time></trkpt><trkpt lat="37.8638883" lon="13.8771167"><ele>149.0</ele><time>2026-05-05T14:18:55.177Z</time></trkpt><trkpt lat="37.86395" lon="13.876895"><ele>148.0</ele><time>2026-05-05T14:18:56.177Z</time></trkpt><trkpt lat="37.8640083" lon="13.8766717"><ele>147.0</ele><time>2026-05-05T14:18:57.177Z</time></trkpt><trkpt lat="37.86407" lon="13.8764483"><ele>146.0</ele><time>2026-05-05T14:18:58.177Z</time></trkpt><trkpt lat="37.8641267" lon="13.87621"><ele>146.0</ele><time>2026-05-05T14:18:59.177Z</time></trkpt><trkpt lat="37.8641867" lon="13.87597"><ele>146.0</ele><time>2026-05-05T14:19:00.177Z</time></trkpt><trkpt lat="37.8642567" lon="13.875725"><ele>146.0</ele><time>2026-05-05T14:19:01.177Z</time></trkpt><trkpt lat="37.8643317" lon="13.8754783"><ele>146.33333333333331</ele><time>2026-05-05T14:19:02.177Z</time></trkpt><trkpt lat="37.8644067" lon="13.8752283"><ele>146.66666666666666</ele><time>2026-05-05T14:19:03.177Z</time></trkpt><trkpt lat="37.8644783" lon="13.87497"><ele>147.0</ele><time>2026-05-05T14:19:04.177Z</time></trkpt><trkpt lat="37.8645517" lon="13.8747067"><ele>147.0</ele><time>2026-05-05T14:19:05.178Z</time></trkpt><trkpt lat="37.8646233" lon="13.8744467"><ele>147.0</ele><time>2026-05-05T14:19:06.178Z</time></trkpt><trkpt lat="37.8646967" lon="13.874195"><ele>147.0</ele><time>2026-05-05T14:19:07.177Z</time></trkpt><trkpt lat="37.8647817" lon="13.8739433"><ele>145.66666666666666</ele><time>2026-05-05T14:19:08.178Z</time></trkpt><trkpt lat="37.8648717" lon="13.8736917"><ele>144.33333333333331</ele><time>2026-05-05T14:19:09.177Z</time></trkpt><trkpt lat="37.8649767" lon="13.873445"><ele>143.0</ele><time>2026-05-05T14:19:10.177Z</time></trkpt><trkpt lat="37.8650833" lon="13.8731967"><ele>143.33333333333331</ele><time>2026-05-05T14:19:11.177Z</time></trkpt><trkpt lat="37.8651933" lon="13.8729517"><ele>143.66666666666666</ele><time>2026-05-05T14:19:12.177Z</time></trkpt><trkpt lat="37.8653" lon="13.8727033"><ele>144.0</ele><time>2026-05-05T14:19:13.177Z</time></trkpt><trkpt lat="37.86541" lon="13.872465"><ele>144.0</ele><time>2026-05-05T14:19:14.177Z</time></trkpt><trkpt lat="37.86552" lon="13.8722233"><ele>144.0</ele><time>2026-05-05T14:19:15.177Z</time></trkpt><trkpt lat="37.8656383" lon="13.871985"><ele>144.0</ele><time>2026-05-05T14:19:16.178Z</time></trkpt><trkpt lat="37.8657517" lon="13.8717467"><ele>142.0</ele><time>2026-05-05T14:19:17.177Z</time></trkpt><trkpt lat="37.865865" lon="13.87151"><ele>140.0</ele><time>2026-05-05T14:19:18.177Z</time></trkpt><trkpt lat="37.8659817" lon="13.8712767"><ele>138.0</ele><time>2026-05-05T14:19:19.177Z</time></trkpt><trkpt lat="37.866095" lon="13.8710383"><ele>142.0</ele><time>2026-05-05T14:19:20.177Z</time></trkpt><trkpt lat="37.8662067" lon="13.8708017"><ele>146.0</ele><time>2026-05-05T14:19:21.177Z</time></trkpt><trkpt lat="37.8663217" lon="13.8705717"><ele>150.0</ele><time>2026-05-05T14:19:22.178Z</time></trkpt><trkpt lat="37.8664417" lon="13.8703333"><ele>146.0</ele><time>2026-05-05T14:19:23.178Z</time></trkpt><trkpt lat="37.86657" lon="13.8701033"><ele>142.0</ele><time>2026-05-05T14:19:24.177Z</time></trkpt><trkpt lat="37.8666967" lon="13.8698733"><ele>138.0</ele><time>2026-05-05T14:19:25.177Z</time></trkpt><trkpt lat="37.86683" lon="13.869655"><ele>141.66666666666666</ele><time>2026-05-05T14:19:26.178Z</time></trkpt><trkpt lat="37.8669683" lon="13.8694533"><ele>145.33333333333331</ele><time>2026-05-05T14:19:27.177Z</time></trkpt><trkpt lat="37.8671117" lon="13.86925"><ele>149.0</ele><time>2026-05-05T14:19:28.177Z</time></trkpt><trkpt lat="37.867255" lon="13.869055"><ele>149.0</ele><time>2026-05-05T14:19:29.177Z</time></trkpt><trkpt lat="37.8674083" lon="13.8688633"><ele>149.0</ele><time>2026-05-05T14:19:30.178Z</time></trkpt><trkpt lat="37.8675633" lon="13.86867"><ele>149.0</ele><time>2026-05-05T14:19:31.177Z</time></trkpt><trkpt lat="37.867715" lon="13.86848"><ele>149.0</ele><time>2026-05-05T14:19:32.177Z</time></trkpt><trkpt lat="37.8678633" lon="13.8682883"><ele>149.0</ele><time>2026-05-05T14:19:33.177Z</time></trkpt><trkpt lat="37.86802" lon="13.8680983"><ele>149.0</ele><time>2026-05-05T14:19:34.177Z</time></trkpt><trkpt lat="37.8681767" lon="13.867905"><ele>149.0</ele><time>2026-05-05T14:19:35.177Z</time></trkpt><trkpt lat="37.868325" lon="13.8677033"><ele>149.0</ele><time>2026-05-05T14:19:36.177Z</time></trkpt><trkpt lat="37.8684683" lon="13.8674983"><ele>149.0</ele><time>2026-05-05T14:19:37.177Z</time></trkpt><trkpt lat="37.868625" lon="13.8672967"><ele>144.0</ele><time>2026-05-05T14:19:38.177Z</time></trkpt><trkpt lat="37.8687933" lon="13.86712"><ele>139.0</ele><time>2026-05-05T14:19:39.177Z</time></trkpt><trkpt lat="37.8689617" lon="13.8669483"><ele>134.0</ele><time>2026-05-05T14:19:40.177Z</time></trkpt><trkpt lat="37.8691383" lon="13.8667883"><ele>128.66666666666666</ele><time>2026-05-05T14:19:41.177Z</time></trkpt><trkpt lat="37.86932" lon="13.866635"><ele>123.33333333333334</ele><time>2026-05-05T14:19:42.178Z</time></trkpt><trkpt lat="37.8695083" lon="13.8664867"><ele>118.0</ele><time>2026-05-05T14:19:43.177Z</time></trkpt><trkpt lat="37.8697" lon="13.8663467"><ele>118.0</ele><time>2026-05-05T14:19:44.177Z</time></trkpt><trkpt lat="37.8699017" lon="13.866215"><ele>118.0</ele><time>2026-05-05T14:19:45.177Z</time></trkpt><trkpt lat="37.8701" lon="13.866095"><ele>118.0</ele><time>2026-05-05T14:19:46.177Z</time></trkpt><trkpt lat="37.8703033" lon="13.86599"><ele>117.0</ele><time>2026-05-05T14:19:47.177Z</time></trkpt><trkpt lat="37.8705117" lon="13.86589"><ele>116.0</ele><time>2026-05-05T14:19:48.177Z</time></trkpt><trkpt lat="37.8707267" lon="13.8658"><ele>115.0</ele><time>2026-05-05T14:19:49.177Z</time></trkpt><trkpt lat="37.87094" lon="13.86572"><ele>115.33333333333334</ele><time>2026-05-05T14:19:50.178Z</time></trkpt><trkpt lat="37.8711583" lon="13.8656633"><ele>115.66666666666666</ele><time>2026-05-05T14:19:51.178Z</time></trkpt><trkpt lat="37.87138" lon="13.865615"><ele>116.0</ele><time>2026-05-05T14:19:52.177Z</time></trkpt><trkpt lat="37.8716067" lon="13.86557"><ele>119.0</ele><time>2026-05-05T14:19:53.177Z</time></trkpt><trkpt lat="37.8718333" lon="13.8655433"><ele>122.0</ele><time>2026-05-05T14:19:54.177Z</time></trkpt><trkpt lat="37.8720633" lon="13.8655283"><ele>122.0</ele><time>2026-05-05T14:19:55.177Z</time></trkpt><trkpt lat="37.8723" lon="13.8655283"><ele>122.0</ele><time>2026-05-05T14:19:56.177Z</time></trkpt><trkpt lat="37.8725367" lon="13.8655433"><ele>125.5</ele><time>2026-05-05T14:19:57.177Z</time></trkpt><trkpt lat="37.872775" lon="13.8655617"><ele>129.0</ele><time>2026-05-05T14:19:58.177Z</time></trkpt><trkpt lat="37.8730017" lon="13.865595"><ele>129.0</ele><time>2026-05-05T14:19:59.177Z</time></trkpt><trkpt lat="37.8732367" lon="13.86563"><ele>129.0</ele><time>2026-05-05T14:20:00.177Z</time></trkpt><trkpt lat="37.8734617" lon="13.8656733"><ele>129.5</ele><time>2026-05-05T14:20:01.177Z</time></trkpt><trkpt lat="37.8736933" lon="13.8657083"><ele>130.0</ele><time>2026-05-05T14:20:02.178Z</time></trkpt><trkpt lat="37.8739183" lon="13.8657433"><ele>130.0</ele><time>2026-05-05T14:20:03.177Z</time></trkpt><trkpt lat="37.8741517" lon="13.86577"><ele>130.0</ele><time>2026-05-05T14:20:04.177Z</time></trkpt><trkpt lat="37.87438" lon="13.8658017"><ele>129.0</ele><time>2026-05-05T14:20:05.177Z</time></trkpt><trkpt lat="37.8746083" lon="13.8658333"><ele>128.0</ele><time>2026-05-05T14:20:06.177Z</time></trkpt><trkpt lat="37.8748417" lon="13.8658633"><ele>128.0</ele><time>2026-05-05T14:20:07.178Z</time></trkpt><trkpt lat="37.8750783" lon="13.86589"><ele>128.0</ele><time>2026-05-05T14:20:08.177Z</time></trkpt><trkpt lat="37.8753133" lon="13.8659183"><ele>128.0</ele><time>2026-05-05T14:20:09.177Z</time></trkpt><trkpt lat="37.8755467" lon="13.8659367"><ele>128.0</ele><time>2026-05-05T14:20:10.177Z</time></trkpt><trkpt lat="37.8757767" lon="13.8659383"><ele>125.0</ele><time>2026-05-05T14:20:11.177Z</time></trkpt><trkpt lat="37.8760083" lon="13.8659367"><ele>122.0</ele><time>2026-05-05T14:20:12.177Z</time></trkpt><trkpt lat="37.8762417" lon="13.8659167"><ele>122.0</ele><time>2026-05-05T14:20:13.177Z</time></trkpt><trkpt lat="37.8764767" lon="13.8658983"><ele>122.0</ele><time>2026-05-05T14:20:14.178Z</time></trkpt><trkpt lat="37.8766983" lon="13.8658717"><ele>118.0</ele><time>2026-05-05T14:20:15.178Z</time></trkpt><trkpt lat="37.87693" lon="13.8658383"><ele>114.0</ele><time>2026-05-05T14:20:16.177Z</time></trkpt><trkpt lat="37.8771617" lon="13.8657967"><ele>114.0</ele><time>2026-05-05T14:20:17.177Z</time></trkpt><trkpt lat="37.877395" lon="13.865745"><ele>114.0</ele><time>2026-05-05T14:20:18.177Z</time></trkpt><trkpt lat="37.8776217" lon="13.86569"><ele>112.0</ele><time>2026-05-05T14:20:19.177Z</time></trkpt><trkpt lat="37.87785" lon="13.865625"><ele>110.0</ele><time>2026-05-05T14:20:20.177Z</time></trkpt><trkpt lat="37.8780783" lon="13.86557"><ele>110.0</ele><time>2026-05-05T14:20:21.177Z</time></trkpt><trkpt lat="37.8783117" lon="13.86551"><ele>110.0</ele><time>2026-05-05T14:20:22.177Z</time></trkpt><trkpt lat="37.8785383" lon="13.8654567"><ele>108.5</ele><time>2026-05-05T14:20:23.177Z</time></trkpt><trkpt lat="37.87877" lon="13.8654133"><ele>107.0</ele><time>2026-05-05T14:20:24.177Z</time></trkpt><trkpt lat="37.879" lon="13.8653617"><ele>107.0</ele><time>2026-05-05T14:20:25.178Z</time></trkpt><trkpt lat="37.8792333" lon="13.865315"><ele>107.0</ele><time>2026-05-05T14:20:26.178Z</time></trkpt><trkpt lat="37.879465" lon="13.8652583"><ele>107.0</ele><time>2026-05-05T14:20:27.177Z</time></trkpt><trkpt lat="37.8796967" lon="13.865205"><ele>107.0</ele><time>2026-05-05T14:20:28.177Z</time></trkpt><trkpt lat="37.8799267" lon="13.8651583"><ele>105.5</ele><time>2026-05-05T14:20:29.177Z</time></trkpt><trkpt lat="37.8801533" lon="13.8651067"><ele>104.0</ele><time>2026-05-05T14:20:30.177Z</time></trkpt><trkpt lat="37.8803767" lon="13.8650517"><ele>104.0</ele><time>2026-05-05T14:20:31.178Z</time></trkpt><trkpt lat="37.8806067" lon="13.865"><ele>104.0</ele><time>2026-05-05T14:20:32.177Z</time></trkpt><trkpt lat="37.8808317" lon="13.8649533"><ele>103.0</ele><time>2026-05-05T14:20:33.177Z</time></trkpt><trkpt lat="37.8810583" lon="13.864905"><ele>102.0</ele><time>2026-05-05T14:20:34.177Z</time></trkpt><trkpt lat="37.881285" lon="13.8648517"><ele>102.0</ele><time>2026-05-05T14:20:35.177Z</time></trkpt><trkpt lat="37.881515" lon="13.8647967"><ele>102.0</ele><time>2026-05-05T14:20:36.177Z</time></trkpt><trkpt lat="37.881735" lon="13.86473"><ele>101.5</ele><time>2026-05-05T14:20:37.177Z</time></trkpt><trkpt lat="37.8819667" lon="13.8646617"><ele>101.0</ele><time>2026-05-05T14:20:38.178Z</time></trkpt><trkpt lat="37.882195" lon="13.8645933"><ele>101.0</ele><time>2026-05-05T14:20:39.177Z</time></trkpt><trkpt lat="37.8824167" lon="13.86452"><ele>101.0</ele><time>2026-05-05T14:20:40.178Z</time></trkpt><trkpt lat="37.88264" lon="13.8644367"><ele>100.5</ele><time>2026-05-05T14:20:41.177Z</time></trkpt><trkpt lat="37.8828617" lon="13.864355"><ele>100.0</ele><time>2026-05-05T14:20:42.177Z</time></trkpt><trkpt lat="37.883085" lon="13.8642783"><ele>100.0</ele><time>2026-05-05T14:20:43.177Z</time></trkpt><trkpt lat="37.8833067" lon="13.8641867"><ele>100.0</ele><time>2026-05-05T14:20:44.177Z</time></trkpt><trkpt lat="37.8835233" lon="13.8641017"><ele>99.0</ele><time>2026-05-05T14:20:45.177Z</time></trkpt><trkpt lat="37.8837383" lon="13.8640083"><ele>98.0</ele><time>2026-05-05T14:20:46.177Z</time></trkpt><trkpt lat="37.8839617" lon="13.86391"><ele>98.0</ele><time>2026-05-05T14:20:47.177Z</time></trkpt><trkpt lat="37.88418" lon="13.86382"><ele>98.0</ele><time>2026-05-05T14:20:48.177Z</time></trkpt><trkpt lat="37.8843967" lon="13.86372"><ele>98.0</ele><time>2026-05-05T14:20:49.177Z</time></trkpt><trkpt lat="37.8846133" lon="13.8636217"><ele>98.0</ele><time>2026-05-05T14:20:50.177Z</time></trkpt><trkpt lat="37.8848283" lon="13.8635283"><ele>98.0</ele><time>2026-05-05T14:20:51.177Z</time></trkpt><trkpt lat="37.8850433" lon="13.8634283"><ele>98.0</ele><time>2026-05-05T14:20:52.177Z</time></trkpt><trkpt lat="37.8852633" lon="13.8633267"><ele>98.0</ele><time>2026-05-05T14:20:53.177Z</time></trkpt><trkpt lat="37.8854817" lon="13.8632283"><ele>98.0</ele><time>2026-05-05T14:20:54.177Z</time></trkpt><trkpt lat="37.8857067" lon="13.8631283"><ele>98.0</ele><time>2026-05-05T14:20:55.177Z</time></trkpt><trkpt lat="37.8859217" lon="13.863035"><ele>98.0</ele><time>2026-05-05T14:20:56.177Z</time></trkpt><trkpt lat="37.8861367" lon="13.8629333"><ele>96.5</ele><time>2026-05-05T14:20:57.177Z</time></trkpt><trkpt lat="37.8863517" lon="13.862835"><ele>95.0</ele><time>2026-05-05T14:20:58.178Z</time></trkpt><trkpt lat="37.886575" lon="13.8627317"><ele>94.5</ele><time>2026-05-05T14:20:59.177Z</time></trkpt><trkpt lat="37.886795" lon="13.8626333"><ele>94.0</ele><time>2026-05-05T14:21:00.177Z</time></trkpt><trkpt lat="37.887015" lon="13.8625383"><ele>96.0</ele><time>2026-05-05T14:21:01.177Z</time></trkpt><trkpt lat="37.887235" lon="13.8624483"><ele>98.0</ele><time>2026-05-05T14:21:02.177Z</time></trkpt><trkpt lat="37.88746" lon="13.86236"><ele>96.5</ele><time>2026-05-05T14:21:03.177Z</time></trkpt><trkpt lat="37.88768" lon="13.8622717"><ele>95.0</ele><time>2026-05-05T14:21:04.177Z</time></trkpt><trkpt lat="37.8879017" lon="13.862185"><ele>95.0</ele><time>2026-05-05T14:21:05.177Z</time></trkpt><trkpt lat="37.8881283" lon="13.8620933"><ele>95.0</ele><time>2026-05-05T14:21:06.177Z</time></trkpt><trkpt lat="37.88835" lon="13.862"><ele>94.5</ele><time>2026-05-05T14:21:07.177Z</time></trkpt><trkpt lat="37.8885717" lon="13.86192"><ele>94.0</ele><time>2026-05-05T14:21:08.177Z</time></trkpt><trkpt lat="37.8887917" lon="13.8618483"><ele>95.0</ele><time>2026-05-05T14:21:09.177Z</time></trkpt><trkpt lat="37.8890183" lon="13.861765"><ele>96.0</ele><time>2026-05-05T14:21:10.177Z</time></trkpt><trkpt lat="37.8892467" lon="13.8616967"><ele>95.5</ele><time>2026-05-05T14:21:11.177Z</time></trkpt><trkpt lat="37.8894667" lon="13.8616233"><ele>95.0</ele><time>2026-05-05T14:21:12.177Z</time></trkpt><trkpt lat="37.8896867" lon="13.86155"><ele>95.0</ele><time>2026-05-05T14:21:13.177Z</time></trkpt><trkpt lat="37.8899067" lon="13.861475"><ele>95.0</ele><time>2026-05-05T14:21:14.178Z</time></trkpt><trkpt lat="37.8901317" lon="13.861405"><ele>94.0</ele><time>2026-05-05T14:21:15.177Z</time></trkpt><trkpt lat="37.8903433" lon="13.86133"><ele>93.0</ele><time>2026-05-05T14:21:16.177Z</time></trkpt><trkpt lat="37.8905633" lon="13.86125"><ele>92.0</ele><time>2026-05-05T14:21:17.177Z</time></trkpt><trkpt lat="37.8907833" lon="13.861165"><ele>90.5</ele><time>2026-05-05T14:21:18.178Z</time></trkpt><trkpt lat="37.8910083" lon="13.861085"><ele>89.0</ele><time>2026-05-05T14:21:19.178Z</time></trkpt><trkpt lat="37.8912367" lon="13.8610017"><ele>89.5</ele><time>2026-05-05T14:21:20.177Z</time></trkpt><trkpt lat="37.891465" lon="13.8609283"><ele>90.0</ele><time>2026-05-05T14:21:21.177Z</time></trkpt><trkpt lat="37.89169" lon="13.860855"><ele>89.0</ele><time>2026-05-05T14:21:22.177Z</time></trkpt><trkpt lat="37.89191" lon="13.8607817"><ele>88.0</ele><time>2026-05-05T14:21:23.177Z</time></trkpt><trkpt lat="37.8921367" lon="13.8607083"><ele>88.0</ele><time>2026-05-05T14:21:24.178Z</time></trkpt><trkpt lat="37.8923567" lon="13.860625"><ele>88.0</ele><time>2026-05-05T14:21:25.178Z</time></trkpt><trkpt lat="37.8925767" lon="13.8605433"><ele>88.0</ele><time>2026-05-05T14:21:26.177Z</time></trkpt><trkpt lat="37.892795" lon="13.860465"><ele>88.0</ele><time>2026-05-05T14:21:27.177Z</time></trkpt><trkpt lat="37.8930183" lon="13.8603817"><ele>88.0</ele><time>2026-05-05T14:21:28.177Z</time></trkpt><trkpt lat="37.8932433" lon="13.8603017"><ele>88.0</ele><time>2026-05-05T14:21:29.177Z</time></trkpt><trkpt lat="37.8934667" lon="13.8602217"><ele>88.0</ele><time>2026-05-05T14:21:30.177Z</time></trkpt><trkpt lat="37.8936883" lon="13.8601467"><ele>88.0</ele><time>2026-05-05T14:21:31.177Z</time></trkpt><trkpt lat="37.893915" lon="13.8600717"><ele>88.0</ele><time>2026-05-05T14:21:32.177Z</time></trkpt><trkpt lat="37.8941367" lon="13.8599967"><ele>88.0</ele><time>2026-05-05T14:21:33.178Z</time></trkpt><trkpt lat="37.89436" lon="13.8599167"><ele>88.5</ele><time>2026-05-05T14:21:34.177Z</time></trkpt><trkpt lat="37.8945883" lon="13.8598383"><ele>89.0</ele><time>2026-05-05T14:21:35.177Z</time></trkpt><trkpt lat="37.8948167" lon="13.8597567"><ele>89.0</ele><time>2026-05-05T14:21:36.178Z</time></trkpt><trkpt lat="37.8950417" lon="13.85967"><ele>89.0</ele><time>2026-05-05T14:21:37.177Z</time></trkpt><trkpt lat="37.895265" lon="13.8595883"><ele>87.5</ele><time>2026-05-05T14:21:38.177Z</time></trkpt><trkpt lat="37.8954883" lon="13.8595167"><ele>86.0</ele><time>2026-05-05T14:21:39.177Z</time></trkpt><trkpt lat="37.89572" lon="13.8594483"><ele>84.5</ele><time>2026-05-05T14:21:40.177Z</time></trkpt><trkpt lat="37.8959633" lon="13.8593733"><ele>83.0</ele><time>2026-05-05T14:21:41.177Z</time></trkpt><trkpt lat="37.896215" lon="13.85929"><ele>86.5</ele><time>2026-05-05T14:21:42.178Z</time></trkpt><trkpt lat="37.896475" lon="13.8592017"><ele>90.0</ele><time>2026-05-05T14:21:43.177Z</time></trkpt><trkpt lat="37.8967467" lon="13.8590967"><ele>87.5</ele><time>2026-05-05T14:21:44.177Z</time></trkpt><trkpt lat="37.897025" lon="13.8589917"><ele>85.0</ele><time>2026-05-05T14:21:45.177Z</time></trkpt><trkpt lat="37.8973" lon="13.858895"><ele>85.0</ele><time>2026-05-05T14:21:46.177Z</time></trkpt><trkpt lat="37.897585" lon="13.8587967"><ele>85.0</ele><time>2026-05-05T14:21:47.177Z</time></trkpt><trkpt lat="37.897865" lon="13.8586933"><ele>84.0</ele><time>2026-05-05T14:21:48.177Z</time></trkpt><trkpt lat="37.89815" lon="13.8585967"><ele>83.0</ele><time>2026-05-05T14:21:49.177Z</time></trkpt><trkpt lat="37.89843" lon="13.8584983"><ele>83.5</ele><time>2026-05-05T14:21:50.177Z</time></trkpt><trkpt lat="37.8987083" lon="13.8584117"><ele>84.0</ele><time>2026-05-05T14:21:51.177Z</time></trkpt><trkpt lat="37.898985" lon="13.8583217"><ele>82.5</ele><time>2026-05-05T14:21:52.177Z</time></trkpt><trkpt lat="37.89926" lon="13.858225"><ele>81.0</ele><time>2026-05-05T14:21:53.177Z</time></trkpt><trkpt lat="37.8995417" lon="13.8581317"><ele>81.0</ele><time>2026-05-05T14:21:54.177Z</time></trkpt><trkpt lat="37.8998217" lon="13.8580317"><ele>81.0</ele><time>2026-05-05T14:21:55.177Z</time></trkpt><trkpt lat="37.900095" lon="13.8579367"><ele>82.0</ele><time>2026-05-05T14:21:56.178Z</time></trkpt><trkpt lat="37.9003633" lon="13.8578367"><ele>83.0</ele><time>2026-05-05T14:21:57.177Z</time></trkpt><trkpt lat="37.9006283" lon="13.8577283"><ele>83.5</ele><time>2026-05-05T14:21:58.177Z</time></trkpt><trkpt lat="37.9008983" lon="13.85761"><ele>84.0</ele><time>2026-05-05T14:21:59.177Z</time></trkpt><trkpt lat="37.90116" lon="13.857485"><ele>84.0</ele><time>2026-05-05T14:22:00.177Z</time></trkpt><trkpt lat="37.9014217" lon="13.8573483"><ele>84.0</ele><time>2026-05-05T14:22:01.177Z</time></trkpt><trkpt lat="37.9016717" lon="13.8572017"><ele>81.5</ele><time>2026-05-05T14:22:02.177Z</time></trkpt><trkpt lat="37.9019267" lon="13.8570517"><ele>79.0</ele><time>2026-05-05T14:22:03.177Z</time></trkpt><trkpt lat="37.902175" lon="13.8569017"><ele>78.5</ele><time>2026-05-05T14:22:04.177Z</time></trkpt><trkpt lat="37.9024217" lon="13.8567467"><ele>78.0</ele><time>2026-05-05T14:22:05.177Z</time></trkpt><trkpt lat="37.9026767" lon="13.8565933"><ele>78.0</ele><time>2026-05-05T14:22:06.177Z</time></trkpt><trkpt lat="37.90293" lon="13.8564383"><ele>78.0</ele><time>2026-05-05T14:22:07.177Z</time></trkpt><trkpt lat="37.9031783" lon="13.85629"><ele>77.5</ele><time>2026-05-05T14:22:08.178Z</time></trkpt><trkpt lat="37.90342" lon="13.8561417"><ele>77.0</ele><time>2026-05-05T14:22:09.177Z</time></trkpt><trkpt lat="37.9036683" lon="13.8559917"><ele>76.5</ele><time>2026-05-05T14:22:10.177Z</time></trkpt><trkpt lat="37.9039217" lon="13.8558383"><ele>76.0</ele><time>2026-05-05T14:22:11.177Z</time></trkpt><trkpt lat="37.9041633" lon="13.8556867"><ele>76.0</ele><time>2026-05-05T14:22:12.177Z</time></trkpt><trkpt lat="37.9044083" lon="13.855535"><ele>76.0</ele><time>2026-05-05T14:22:13.177Z</time></trkpt><trkpt lat="37.90465" lon="13.855395"><ele>76.0</ele><time>2026-05-05T14:22:14.177Z</time></trkpt><trkpt lat="37.90489" lon="13.8552517"><ele>76.0</ele><time>2026-05-05T14:22:15.178Z</time></trkpt><trkpt lat="37.9051333" lon="13.8551167"><ele>75.0</ele><time>2026-05-05T14:22:16.177Z</time></trkpt><trkpt lat="37.9053767" lon="13.8549983"><ele>74.0</ele><time>2026-05-05T14:22:17.177Z</time></trkpt><trkpt lat="37.905635" lon="13.8549"><ele>74.0</ele><time>2026-05-05T14:22:18.177Z</time></trkpt><trkpt lat="37.9058933" lon="13.8548233"><ele>74.0</ele><time>2026-05-05T14:22:19.177Z</time></trkpt><trkpt lat="37.9061533" lon="13.8547567"><ele>74.0</ele><time>2026-05-05T14:22:20.177Z</time></trkpt><trkpt lat="37.9064117" lon="13.8547033"><ele>74.0</ele><time>2026-05-05T14:22:21.177Z</time></trkpt><trkpt lat="37.9066667" lon="13.8546683"><ele>73.5</ele><time>2026-05-05T14:22:22.177Z</time></trkpt><trkpt lat="37.9069217" lon="13.854655"><ele>73.0</ele><time>2026-05-05T14:22:23.177Z</time></trkpt><trkpt lat="37.9071733" lon="13.854655"><ele>73.0</ele><time>2026-05-05T14:22:24.177Z</time></trkpt><trkpt lat="37.9074267" lon="13.8546667"><ele>73.0</ele><time>2026-05-05T14:22:25.178Z</time></trkpt><trkpt lat="37.9076783" lon="13.85469"><ele>76.0</ele><time>2026-05-05T14:22:26.178Z</time></trkpt><trkpt lat="37.9079267" lon="13.8547217"><ele>79.0</ele><time>2026-05-05T14:22:27.177Z</time></trkpt><trkpt lat="37.90817" lon="13.854775"><ele>83.0</ele><time>2026-05-05T14:22:28.177Z</time></trkpt><trkpt lat="37.9084167" lon="13.8548483"><ele>87.0</ele><time>2026-05-05T14:22:29.177Z</time></trkpt><trkpt lat="37.9086583" lon="13.8549333"><ele>87.0</ele><time>2026-05-05T14:22:30.177Z</time></trkpt><trkpt lat="37.9089" lon="13.8550317"><ele>87.0</ele><time>2026-05-05T14:22:31.177Z</time></trkpt><trkpt lat="37.9091417" lon="13.8551367"><ele>83.0</ele><time>2026-05-05T14:22:32.177Z</time></trkpt><trkpt lat="37.9093833" lon="13.8552467"><ele>79.0</ele><time>2026-05-05T14:22:33.177Z</time></trkpt><trkpt lat="37.9096167" lon="13.855365"><ele>79.0</ele><time>2026-05-05T14:22:34.177Z</time></trkpt><trkpt lat="37.9098533" lon="13.85548"><ele>79.0</ele><time>2026-05-05T14:22:35.177Z</time></trkpt><trkpt lat="37.91009" lon="13.855585"><ele>77.5</ele><time>2026-05-05T14:22:36.177Z</time></trkpt><trkpt lat="37.9103117" lon="13.8556917"><ele>76.0</ele><time>2026-05-05T14:22:37.177Z</time></trkpt><trkpt lat="37.9105417" lon="13.8557983"><ele>76.0</ele><time>2026-05-05T14:22:38.177Z</time></trkpt><trkpt lat="37.9107817" lon="13.8559083"><ele>76.0</ele><time>2026-05-05T14:22:39.177Z</time></trkpt><trkpt lat="37.9110167" lon="13.8559967"><ele>73.0</ele><time>2026-05-05T14:22:40.178Z</time></trkpt><trkpt lat="37.9112533" lon="13.8560883"><ele>70.0</ele><time>2026-05-05T14:22:41.177Z</time></trkpt><trkpt lat="37.9114883" lon="13.856165"><ele>70.0</ele><time>2026-05-05T14:22:42.177Z</time></trkpt><trkpt lat="37.911725" lon="13.8562283"><ele>70.0</ele><time>2026-05-05T14:22:43.177Z</time></trkpt><trkpt lat="37.911965" lon="13.8562717"><ele>68.0</ele><time>2026-05-05T14:22:44.177Z</time></trkpt><trkpt lat="37.9122033" lon="13.8563167"><ele>66.0</ele><time>2026-05-05T14:22:45.177Z</time></trkpt><trkpt lat="37.91244" lon="13.856365"><ele>68.5</ele><time>2026-05-05T14:22:46.177Z</time></trkpt><trkpt lat="37.91268" lon="13.85642"><ele>71.0</ele><time>2026-05-05T14:22:47.177Z</time></trkpt><trkpt lat="37.9129183" lon="13.856475"><ele>71.0</ele><time>2026-05-05T14:22:48.177Z</time></trkpt><trkpt lat="37.9131583" lon="13.856525"><ele>71.0</ele><time>2026-05-05T14:22:49.177Z</time></trkpt><trkpt lat="37.9133983" lon="13.8565767"><ele>71.0</ele><time>2026-05-05T14:22:50.177Z</time></trkpt><trkpt lat="37.9136383" lon="13.856625"><ele>71.0</ele><time>2026-05-05T14:22:51.177Z</time></trkpt><trkpt lat="37.9138817" lon="13.85667"><ele>71.0</ele><time>2026-05-05T14:22:52.177Z</time></trkpt><trkpt lat="37.914125" lon="13.85672"><ele>71.0</ele><time>2026-05-05T14:22:53.178Z</time></trkpt><trkpt lat="37.9143733" lon="13.85677"><ele>68.0</ele><time>2026-05-05T14:22:54.177Z</time></trkpt><trkpt lat="37.9146133" lon="13.8568183"><ele>65.0</ele><time>2026-05-05T14:22:55.177Z</time></trkpt><trkpt lat="37.9148583" lon="13.85687"><ele>64.0</ele><time>2026-05-05T14:22:56.177Z</time></trkpt><trkpt lat="37.9151017" lon="13.8569217"><ele>63.0</ele><time>2026-05-05T14:22:57.177Z</time></trkpt><trkpt lat="37.9153433" lon="13.85697"><ele>63.0</ele><time>2026-05-05T14:22:58.177Z</time></trkpt><trkpt lat="37.915595" lon="13.8570167"><ele>63.0</ele><time>2026-05-05T14:22:59.177Z</time></trkpt><trkpt lat="37.9158433" lon="13.857065"><ele>62.0</ele><time>2026-05-05T14:23:00.177Z</time></trkpt><trkpt lat="37.9160933" lon="13.8571067"><ele>61.0</ele><time>2026-05-05T14:23:01.177Z</time></trkpt><trkpt lat="37.9163467" lon="13.8571383"><ele>61.0</ele><time>2026-05-05T14:23:02.177Z</time></trkpt><trkpt lat="37.9166" lon="13.8571583"><ele>61.0</ele><time>2026-05-05T14:23:03.177Z</time></trkpt><trkpt lat="37.9168583" lon="13.8571667"><ele>62.0</ele><time>2026-05-05T14:23:04.178Z</time></trkpt><trkpt lat="37.9171167" lon="13.8571717"><ele>63.0</ele><time>2026-05-05T14:23:05.177Z</time></trkpt><trkpt lat="37.917375" lon="13.8571667"><ele>62.0</ele><time>2026-05-05T14:23:06.177Z</time></trkpt><trkpt lat="37.9176333" lon="13.857145"><ele>61.0</ele><time>2026-05-05T14:23:07.177Z</time></trkpt><trkpt lat="37.9178867" lon="13.857115"><ele>61.0</ele><time>2026-05-05T14:23:08.178Z</time></trkpt><trkpt lat="37.918145" lon="13.8570767"><ele>61.0</ele><time>2026-05-05T14:23:09.177Z</time></trkpt><trkpt lat="37.9183933" lon="13.8570333"><ele>60.5</ele><time>2026-05-05T14:23:10.177Z</time></trkpt><trkpt lat="37.9186433" lon="13.85697"><ele>60.0</ele><time>2026-05-05T14:23:11.177Z</time></trkpt><trkpt lat="37.91889" lon="13.8569083"><ele>60.0</ele><time>2026-05-05T14:23:12.177Z</time></trkpt><trkpt lat="37.91914" lon="13.8568367"><ele>60.0</ele><time>2026-05-05T14:23:13.177Z</time></trkpt><trkpt lat="37.91938" lon="13.8567517"><ele>60.0</ele><time>2026-05-05T14:23:14.177Z</time></trkpt><trkpt lat="37.9196183" lon="13.8566617"><ele>60.0</ele><time>2026-05-05T14:23:15.177Z</time></trkpt><trkpt lat="37.9198633" lon="13.8565667"><ele>59.0</ele><time>2026-05-05T14:23:16.177Z</time></trkpt><trkpt lat="37.9200967" lon="13.8564583"><ele>58.0</ele><time>2026-05-05T14:23:17.177Z</time></trkpt><trkpt lat="37.9203283" lon="13.8563433"><ele>58.0</ele><time>2026-05-05T14:23:18.177Z</time></trkpt><trkpt lat="37.9205633" lon="13.8562167"><ele>58.0</ele><time>2026-05-05T14:23:19.177Z</time></trkpt><trkpt lat="37.9207983" lon="13.856085"><ele>58.0</ele><time>2026-05-05T14:23:20.177Z</time></trkpt><trkpt lat="37.9210233" lon="13.8559567"><ele>58.0</ele><time>2026-05-05T14:23:21.177Z</time></trkpt><trkpt lat="37.9212583" lon="13.855835"><ele>58.0</ele><time>2026-05-05T14:23:22.177Z</time></trkpt><trkpt lat="37.9214917" lon="13.8557133"><ele>58.0</ele><time>2026-05-05T14:23:23.177Z</time></trkpt><trkpt lat="37.9217233" lon="13.8555867"><ele>57.0</ele><time>2026-05-05T14:23:24.177Z</time></trkpt><trkpt lat="37.921955" lon="13.855455"><ele>56.0</ele><time>2026-05-05T14:23:25.177Z</time></trkpt><trkpt lat="37.922195" lon="13.855335"><ele>56.0</ele><time>2026-05-05T14:23:26.177Z</time></trkpt><trkpt lat="37.9224233" lon="13.8552183"><ele>56.0</ele><time>2026-05-05T14:23:27.177Z</time></trkpt><trkpt lat="37.9226633" lon="13.8550983"><ele>55.0</ele><time>2026-05-05T14:23:28.177Z</time></trkpt><trkpt lat="37.9229" lon="13.8549767"><ele>54.0</ele><time>2026-05-05T14:23:29.177Z</time></trkpt><trkpt lat="37.923135" lon="13.854855"><ele>54.0</ele><time>2026-05-05T14:23:30.177Z</time></trkpt><trkpt lat="37.923365" lon="13.8547317"><ele>54.0</ele><time>2026-05-05T14:23:31.178Z</time></trkpt><trkpt lat="37.9236" lon="13.8546067"><ele>54.5</ele><time>2026-05-05T14:23:32.178Z</time></trkpt><trkpt lat="37.9238333" lon="13.85448"><ele>55.0</ele><time>2026-05-05T14:23:33.177Z</time></trkpt><trkpt lat="37.9240683" lon="13.8543567"><ele>55.0</ele><time>2026-05-05T14:23:34.177Z</time></trkpt><trkpt lat="37.9243083" lon="13.854235"><ele>55.0</ele><time>2026-05-05T14:23:35.177Z</time></trkpt><trkpt lat="37.924555" lon="13.8541133"><ele>55.0</ele><time>2026-05-05T14:23:36.177Z</time></trkpt><trkpt lat="37.9248033" lon="13.8539767"><ele>55.0</ele><time>2026-05-05T14:23:37.178Z</time></trkpt><trkpt lat="37.9250483" lon="13.8538483"><ele>55.0</ele><time>2026-05-05T14:23:38.177Z</time></trkpt><trkpt lat="37.9252967" lon="13.8537183"><ele>55.0</ele><time>2026-05-05T14:23:39.177Z</time></trkpt><trkpt lat="37.9255433" lon="13.8535883"><ele>55.0</ele><time>2026-05-05T14:23:40.177Z</time></trkpt><trkpt lat="37.925795" lon="13.853465"><ele>55.0</ele><time>2026-05-05T14:23:41.178Z</time></trkpt><trkpt lat="37.9260467" lon="13.8533433"><ele>53.0</ele><time>2026-05-05T14:23:42.178Z</time></trkpt><trkpt lat="37.926295" lon="13.8532267"><ele>51.0</ele><time>2026-05-05T14:23:43.177Z</time></trkpt><trkpt lat="37.926545" lon="13.853115"><ele>51.0</ele><time>2026-05-05T14:23:44.177Z</time></trkpt><trkpt lat="37.9267983" lon="13.8529883"><ele>51.0</ele><time>2026-05-05T14:23:45.177Z</time></trkpt><trkpt lat="37.9270467" lon="13.85286"><ele>51.0</ele><time>2026-05-05T14:23:46.177Z</time></trkpt><trkpt lat="37.9272917" lon="13.8527333"><ele>51.0</ele><time>2026-05-05T14:23:47.178Z</time></trkpt><trkpt lat="37.9275317" lon="13.8526017"><ele>51.5</ele><time>2026-05-05T14:23:48.177Z</time></trkpt><trkpt lat="37.92778" lon="13.8524733"><ele>52.0</ele><time>2026-05-05T14:23:49.177Z</time></trkpt><trkpt lat="37.9280333" lon="13.8523433"><ele>52.0</ele><time>2026-05-05T14:23:50.177Z</time></trkpt><trkpt lat="37.9282817" lon="13.85222"><ele>52.0</ele><time>2026-05-05T14:23:51.177Z</time></trkpt><trkpt lat="37.9285283" lon="13.852095"><ele>52.0</ele><time>2026-05-05T14:23:52.177Z</time></trkpt><trkpt lat="37.9287683" lon="13.8519633"><ele>52.0</ele><time>2026-05-05T14:23:53.177Z</time></trkpt><trkpt lat="37.9290167" lon="13.85184"><ele>51.5</ele><time>2026-05-05T14:23:54.177Z</time></trkpt><trkpt lat="37.9292683" lon="13.8517117"><ele>51.0</ele><time>2026-05-05T14:23:55.177Z</time></trkpt><trkpt lat="37.929515" lon="13.85159"><ele>51.0</ele><time>2026-05-05T14:23:56.177Z</time></trkpt><trkpt lat="37.9297617" lon="13.85146"><ele>51.0</ele><time>2026-05-05T14:23:57.177Z</time></trkpt><trkpt lat="37.9300083" lon="13.8513317"><ele>50.0</ele><time>2026-05-05T14:23:58.177Z</time></trkpt><trkpt lat="37.930255" lon="13.8511983"><ele>49.0</ele><time>2026-05-05T14:23:59.177Z</time></trkpt><trkpt lat="37.930505" lon="13.8510733"><ele>49.5</ele><time>2026-05-05T14:24:00.177Z</time></trkpt><trkpt lat="37.9307483" lon="13.8509467"><ele>50.0</ele><time>2026-05-05T14:24:01.178Z</time></trkpt><trkpt lat="37.9309933" lon="13.8508167"><ele>49.0</ele><time>2026-05-05T14:24:02.177Z</time></trkpt><trkpt lat="37.93124" lon="13.8506883"><ele>48.0</ele><time>2026-05-05T14:24:03.177Z</time></trkpt><trkpt lat="37.9314867" lon="13.85055"><ele>47.5</ele><time>2026-05-05T14:24:04.177Z</time></trkpt><trkpt lat="37.931725" lon="13.850405"><ele>47.0</ele><time>2026-05-05T14:24:05.178Z</time></trkpt><trkpt lat="37.9319733" lon="13.8502483"><ele>47.0</ele><time>2026-05-05T14:24:06.178Z</time></trkpt><trkpt lat="37.9322233" lon="13.8500767"><ele>47.0</ele><time>2026-05-05T14:24:07.177Z</time></trkpt><trkpt lat="37.93249" lon="13.8498867"><ele>47.0</ele><time>2026-05-05T14:24:08.177Z</time></trkpt><trkpt lat="37.93277" lon="13.8496767"><ele>47.0</ele><time>2026-05-05T14:24:09.177Z</time></trkpt><trkpt lat="37.93305" lon="13.8494567"><ele>47.5</ele><time>2026-05-05T14:24:10.177Z</time></trkpt><trkpt lat="37.9333367" lon="13.849215"><ele>48.0</ele><time>2026-05-05T14:24:11.177Z</time></trkpt><trkpt lat="37.9336167" lon="13.8489617"><ele>47.0</ele><time>2026-05-05T14:24:12.177Z</time></trkpt><trkpt lat="37.9338933" lon="13.8486917"><ele>46.0</ele><time>2026-05-05T14:24:13.177Z</time></trkpt><trkpt lat="37.93417" lon="13.848415"><ele>45.0</ele><time>2026-05-05T14:24:14.177Z</time></trkpt><trkpt lat="37.9344333" lon="13.848135"><ele>44.0</ele><time>2026-05-05T14:24:15.178Z</time></trkpt><trkpt lat="37.9346933" lon="13.8478483"><ele>44.5</ele><time>2026-05-05T14:24:16.177Z</time></trkpt><trkpt lat="37.93495" lon="13.847555"><ele>45.0</ele><time>2026-05-05T14:24:17.177Z</time></trkpt><trkpt lat="37.93521" lon="13.847245"><ele>44.0</ele><time>2026-05-05T14:24:18.177Z</time></trkpt><trkpt lat="37.93547" lon="13.84692"><ele>43.0</ele><time>2026-05-05T14:24:19.177Z</time></trkpt><trkpt lat="37.9357417" lon="13.8465783"><ele>43.0</ele><time>2026-05-05T14:24:20.178Z</time></trkpt><trkpt lat="37.9360167" lon="13.8462167"><ele>43.0</ele><time>2026-05-05T14:24:21.177Z</time></trkpt><trkpt lat="37.9362983" lon="13.8458533"><ele>43.0</ele><time>2026-05-05T14:24:22.177Z</time></trkpt><trkpt lat="37.9365683" lon="13.8455083"><ele>43.0</ele><time>2026-05-05T14:24:23.178Z</time></trkpt><trkpt lat="37.936825" lon="13.84518"><ele>43.0</ele><time>2026-05-05T14:24:24.177Z</time></trkpt><trkpt lat="37.9370783" lon="13.8448567"><ele>43.0</ele><time>2026-05-05T14:24:25.177Z</time></trkpt><trkpt lat="37.9373283" lon="13.8445367"><ele>42.0</ele><time>2026-05-05T14:24:26.177Z</time></trkpt><trkpt lat="37.9375817" lon="13.8442117"><ele>41.0</ele><time>2026-05-05T14:24:27.177Z</time></trkpt><trkpt lat="37.9378483" lon="13.8438883"><ele>41.0</ele><time>2026-05-05T14:24:28.177Z</time></trkpt><trkpt lat="37.9381067" lon="13.8435583"><ele>41.0</ele><time>2026-05-05T14:24:29.177Z</time></trkpt><trkpt lat="37.93837" lon="13.8432433"><ele>40.5</ele><time>2026-05-05T14:24:30.177Z</time></trkpt><trkpt lat="37.93863" lon="13.8429367"><ele>40.0</ele><time>2026-05-05T14:24:31.177Z</time></trkpt><trkpt lat="37.9388867" lon="13.84264"><ele>39.5</ele><time>2026-05-05T14:24:32.177Z</time></trkpt><trkpt lat="37.9391433" lon="13.84235"><ele>39.0</ele><time>2026-05-05T14:24:33.177Z</time></trkpt><trkpt lat="37.9393983" lon="13.8420583"><ele>40.5</ele><time>2026-05-05T14:24:34.177Z</time></trkpt><trkpt lat="37.9396617" lon="13.84176"><ele>42.0</ele><time>2026-05-05T14:24:35.177Z</time></trkpt><trkpt lat="37.9399383" lon="13.8414517"><ele>42.5</ele><time>2026-05-05T14:24:36.177Z</time></trkpt><trkpt lat="37.9402233" lon="13.841135"><ele>43.0</ele><time>2026-05-05T14:24:37.177Z</time></trkpt><trkpt lat="37.9405033" lon="13.8408233"><ele>43.0</ele><time>2026-05-05T14:24:38.177Z</time></trkpt><trkpt lat="37.9407867" lon="13.8405083"><ele>43.0</ele><time>2026-05-05T14:24:39.177Z</time></trkpt><trkpt lat="37.9410783" lon="13.8401983"><ele>41.0</ele><time>2026-05-05T14:24:40.177Z</time></trkpt><trkpt lat="37.941365" lon="13.8398783"><ele>39.0</ele><time>2026-05-05T14:24:41.177Z</time></trkpt><trkpt lat="37.9416467" lon="13.8395667"><ele>38.5</ele><time>2026-05-05T14:24:42.178Z</time></trkpt><trkpt lat="37.9419267" lon="13.8392567"><ele>38.0</ele><time>2026-05-05T14:24:43.177Z</time></trkpt><trkpt lat="37.9422033" lon="13.8389433"><ele>38.0</ele><time>2026-05-05T14:24:44.177Z</time></trkpt><trkpt lat="37.942485" lon="13.83863"><ele>38.0</ele><time>2026-05-05T14:24:45.177Z</time></trkpt><trkpt lat="37.9427583" lon="13.8383233"><ele>36.0</ele><time>2026-05-05T14:24:46.177Z</time></trkpt><trkpt lat="37.9430367" lon="13.83802"><ele>34.0</ele><time>2026-05-05T14:24:47.177Z</time></trkpt><trkpt lat="37.943315" lon="13.837715"><ele>33.5</ele><time>2026-05-05T14:24:48.177Z</time></trkpt><trkpt lat="37.9435883" lon="13.8374083"><ele>33.0</ele><time>2026-05-05T14:24:49.177Z</time></trkpt><trkpt lat="37.9438583" lon="13.8371067"><ele>33.0</ele><time>2026-05-05T14:24:50.177Z</time></trkpt><trkpt lat="37.9441317" lon="13.836805"><ele>33.0</ele><time>2026-05-05T14:24:51.177Z</time></trkpt><trkpt lat="37.9443967" lon="13.8365117"><ele>33.0</ele><time>2026-05-05T14:24:52.177Z</time></trkpt><trkpt lat="37.94466" lon="13.83623"><ele>33.0</ele><time>2026-05-05T14:24:53.177Z</time></trkpt><trkpt lat="37.9449183" lon="13.8359633"><ele>32.0</ele><time>2026-05-05T14:24:54.178Z</time></trkpt><trkpt lat="37.9451883" lon="13.8357033"><ele>31.0</ele><time>2026-05-05T14:24:55.178Z</time></trkpt><trkpt lat="37.9454633" lon="13.83545"><ele>31.0</ele><time>2026-05-05T14:24:56.177Z</time></trkpt><trkpt lat="37.945735" lon="13.83521"><ele>31.0</ele><time>2026-05-05T14:24:57.177Z</time></trkpt><trkpt lat="37.9460033" lon="13.8349817"><ele>30.0</ele><time>2026-05-05T14:24:58.177Z</time></trkpt><trkpt lat="37.9462617" lon="13.8347717"><ele>29.0</ele><time>2026-05-05T14:24:59.177Z</time></trkpt><trkpt lat="37.946505" lon="13.834585"><ele>29.0</ele><time>2026-05-05T14:25:00.177Z</time></trkpt><trkpt lat="37.9467383" lon="13.834415"><ele>29.0</ele><time>2026-05-05T14:25:01.177Z</time></trkpt><trkpt lat="37.9469517" lon="13.8342567"><ele>29.5</ele><time>2026-05-05T14:25:02.177Z</time></trkpt><trkpt lat="37.9471683" lon="13.8341067"><ele>30.0</ele><time>2026-05-05T14:25:03.177Z</time></trkpt><trkpt lat="37.9473867" lon="13.83396"><ele>29.5</ele><time>2026-05-05T14:25:04.177Z</time></trkpt><trkpt lat="37.9476067" lon="13.8338217"><ele>29.0</ele><time>2026-05-05T14:25:05.177Z</time></trkpt><trkpt lat="37.94782" lon="13.8336867"><ele>29.0</ele><time>2026-05-05T14:25:06.177Z</time></trkpt><trkpt lat="37.94803" lon="13.8335517"><ele>29.0</ele><time>2026-05-05T14:25:07.177Z</time></trkpt><trkpt lat="37.9482333" lon="13.8334267"><ele>28.666666666666664</ele><time>2026-05-05T14:25:08.177Z</time></trkpt><trkpt lat="37.9484317" lon="13.8333067"><ele>28.333333333333336</ele><time>2026-05-05T14:25:09.177Z</time></trkpt><trkpt lat="37.9486217" lon="13.833185"><ele>28.0</ele><time>2026-05-05T14:25:10.177Z</time></trkpt><trkpt lat="37.9488083" lon="13.8330667"><ele>28.0</ele><time>2026-05-05T14:25:11.177Z</time></trkpt><trkpt lat="37.9489933" lon="13.8329533"><ele>28.0</ele><time>2026-05-05T14:25:12.177Z</time></trkpt><trkpt lat="37.9491767" lon="13.83284"><ele>28.0</ele><time>2026-05-05T14:25:13.178Z</time></trkpt><trkpt lat="37.9493583" lon="13.8327217"><ele>28.333333333333336</ele><time>2026-05-05T14:25:14.178Z</time></trkpt><trkpt lat="37.9495417" lon="13.832605"><ele>28.666666666666664</ele><time>2026-05-05T14:25:15.177Z</time></trkpt><trkpt lat="37.9497283" lon="13.8324883"><ele>29.0</ele><time>2026-05-05T14:25:16.177Z</time></trkpt><trkpt lat="37.9499133" lon="13.8323667"><ele>28.333333333333332</ele><time>2026-05-05T14:25:17.177Z</time></trkpt><trkpt lat="37.9500983" lon="13.8322433"><ele>27.666666666666664</ele><time>2026-05-05T14:25:18.177Z</time></trkpt><trkpt lat="37.9502833" lon="13.8321283"><ele>27.0</ele><time>2026-05-05T14:25:19.177Z</time></trkpt><trkpt lat="37.950465" lon="13.8320117"><ele>27.0</ele><time>2026-05-05T14:25:20.177Z</time></trkpt><trkpt lat="37.9506483" lon="13.8318917"><ele>27.0</ele><time>2026-05-05T14:25:21.177Z</time></trkpt><trkpt lat="37.9508367" lon="13.8317667"><ele>27.0</ele><time>2026-05-05T14:25:22.177Z</time></trkpt><trkpt lat="37.9510217" lon="13.831645"><ele>27.0</ele><time>2026-05-05T14:25:23.178Z</time></trkpt><trkpt lat="37.951215" lon="13.83152"><ele>27.0</ele><time>2026-05-05T14:25:24.177Z</time></trkpt><trkpt lat="37.9514117" lon="13.8313917"><ele>27.0</ele><time>2026-05-05T14:25:25.177Z</time></trkpt><trkpt lat="37.9516117" lon="13.83126"><ele>26.5</ele><time>2026-05-05T14:25:26.177Z</time></trkpt><trkpt lat="37.9518133" lon="13.8311317"><ele>26.0</ele><time>2026-05-05T14:25:27.177Z</time></trkpt><trkpt lat="37.952015" lon="13.8310017"><ele>26.0</ele><time>2026-05-05T14:25:28.177Z</time></trkpt><trkpt lat="37.95222" lon="13.83087"><ele>26.0</ele><time>2026-05-05T14:25:29.177Z</time></trkpt><trkpt lat="37.9524267" lon="13.8307333"><ele>25.5</ele><time>2026-05-05T14:25:30.177Z</time></trkpt><trkpt lat="37.95264" lon="13.8305933"><ele>25.0</ele><time>2026-05-05T14:25:31.177Z</time></trkpt><trkpt lat="37.952855" lon="13.830455"><ele>25.0</ele><time>2026-05-05T14:25:32.177Z</time></trkpt><trkpt lat="37.9530717" lon="13.830315"><ele>25.0</ele><time>2026-05-05T14:25:33.178Z</time></trkpt><trkpt lat="37.9532883" lon="13.8301733"><ele>24.5</ele><time>2026-05-05T14:25:34.177Z</time></trkpt><trkpt lat="37.953505" lon="13.83003"><ele>24.0</ele><time>2026-05-05T14:25:35.177Z</time></trkpt><trkpt lat="37.95372" lon="13.8298917"><ele>24.0</ele><time>2026-05-05T14:25:36.177Z</time></trkpt><trkpt lat="37.9539317" lon="13.8297483"><ele>24.0</ele><time>2026-05-05T14:25:37.177Z</time></trkpt><trkpt lat="37.9541517" lon="13.8296"><ele>24.0</ele><time>2026-05-05T14:25:38.176Z</time></trkpt><trkpt lat="37.954365" lon="13.82944"><ele>24.0</ele><time>2026-05-05T14:25:39.176Z</time></trkpt><trkpt lat="37.954575" lon="13.8292733"><ele>25.0</ele><time>2026-05-05T14:25:40.176Z</time></trkpt><trkpt lat="37.9547833" lon="13.829105"><ele>26.0</ele><time>2026-05-05T14:25:41.176Z</time></trkpt><trkpt lat="37.9549933" lon="13.8289333"><ele>24.5</ele><time>2026-05-05T14:25:42.176Z</time></trkpt><trkpt lat="37.9551983" lon="13.8287767"><ele>23.0</ele><time>2026-05-05T14:25:43.176Z</time></trkpt><trkpt lat="37.95541" lon="13.8286117"><ele>23.0</ele><time>2026-05-05T14:25:44.176Z</time></trkpt><trkpt lat="37.955615" lon="13.8284533"><ele>23.0</ele><time>2026-05-05T14:25:45.176Z</time></trkpt><trkpt lat="37.9558217" lon="13.8282917"><ele>22.5</ele><time>2026-05-05T14:25:46.177Z</time></trkpt><trkpt lat="37.956025" lon="13.8281283"><ele>22.0</ele><time>2026-05-05T14:25:47.176Z</time></trkpt><trkpt lat="37.9562217" lon="13.8279767"><ele>22.0</ele><time>2026-05-05T14:25:48.176Z</time></trkpt><trkpt lat="37.9564167" lon="13.82784"><ele>22.0</ele><time>2026-05-05T14:25:49.176Z</time></trkpt><trkpt lat="37.9566183" lon="13.8277083"><ele>22.5</ele><time>2026-05-05T14:25:50.177Z</time></trkpt><trkpt lat="37.956825" lon="13.8275967"><ele>23.0</ele><time>2026-05-05T14:25:51.176Z</time></trkpt><trkpt lat="37.9570383" lon="13.8274967"><ele>23.0</ele><time>2026-05-05T14:25:52.176Z</time></trkpt><trkpt lat="37.9572483" lon="13.8273967"><ele>23.0</ele><time>2026-05-05T14:25:53.176Z</time></trkpt><trkpt lat="37.957465" lon="13.8273117"><ele>21.5</ele><time>2026-05-05T14:25:54.176Z</time></trkpt><trkpt lat="37.957685" lon="13.8272417"><ele>20.0</ele><time>2026-05-05T14:25:55.176Z</time></trkpt><trkpt lat="37.9579083" lon="13.8271833"><ele>20.0</ele><time>2026-05-05T14:25:56.176Z</time></trkpt><trkpt lat="37.958135" lon="13.82713"><ele>20.0</ele><time>2026-05-05T14:25:57.176Z</time></trkpt><trkpt lat="37.9583667" lon="13.8270917"><ele>20.0</ele><time>2026-05-05T14:25:58.176Z</time></trkpt><trkpt lat="37.9585933" lon="13.827065"><ele>20.0</ele><time>2026-05-05T14:25:59.177Z</time></trkpt><trkpt lat="37.9588183" lon="13.8270567"><ele>20.0</ele><time>2026-05-05T14:26:00.177Z</time></trkpt><trkpt lat="37.9590417" lon="13.8270617"><ele>20.0</ele><time>2026-05-05T14:26:01.177Z</time></trkpt><trkpt lat="37.9592667" lon="13.8270683"><ele>20.0</ele><time>2026-05-05T14:26:02.176Z</time></trkpt><trkpt lat="37.9594883" lon="13.8270867"><ele>20.0</ele><time>2026-05-05T14:26:03.176Z</time></trkpt><trkpt lat="37.9597083" lon="13.82711"><ele>20.0</ele><time>2026-05-05T14:26:04.177Z</time></trkpt><trkpt lat="37.9599267" lon="13.8271517"><ele>20.0</ele><time>2026-05-05T14:26:05.176Z</time></trkpt><trkpt lat="37.96014" lon="13.8272033"><ele>20.0</ele><time>2026-05-05T14:26:06.177Z</time></trkpt><trkpt lat="37.9603483" lon="13.827275"><ele>20.0</ele><time>2026-05-05T14:26:07.176Z</time></trkpt><trkpt lat="37.96056" lon="13.8273567"><ele>20.0</ele><time>2026-05-05T14:26:08.176Z</time></trkpt><trkpt lat="37.96077" lon="13.8274467"><ele>20.0</ele><time>2026-05-05T14:26:09.176Z</time></trkpt><trkpt lat="37.9609767" lon="13.8275483"><ele>20.0</ele><time>2026-05-05T14:26:10.176Z</time></trkpt><trkpt lat="37.9611783" lon="13.8276583"><ele>20.0</ele><time>2026-05-05T14:26:11.176Z</time></trkpt><trkpt lat="37.961385" lon="13.8277783"><ele>20.0</ele><time>2026-05-05T14:26:12.176Z</time></trkpt><trkpt lat="37.9615817" lon="13.8279133"><ele>20.0</ele><time>2026-05-05T14:26:13.177Z</time></trkpt><trkpt lat="37.961775" lon="13.82805"><ele>20.0</ele><time>2026-05-05T14:26:14.176Z</time></trkpt><trkpt lat="37.9619683" lon="13.8282"><ele>19.666666666666668</ele><time>2026-05-05T14:26:15.176Z</time></trkpt><trkpt lat="37.9621567" lon="13.8283417"><ele>19.333333333333332</ele><time>2026-05-05T14:26:16.176Z</time></trkpt><trkpt lat="37.96234" lon="13.828495"><ele>19.0</ele><time>2026-05-05T14:26:17.176Z</time></trkpt><trkpt lat="37.962525" lon="13.8286417"><ele>18.0</ele><time>2026-05-05T14:26:18.176Z</time></trkpt><trkpt lat="37.962715" lon="13.828795"><ele>17.0</ele><time>2026-05-05T14:26:19.176Z</time></trkpt><trkpt lat="37.9629033" lon="13.82895"><ele>17.0</ele><time>2026-05-05T14:26:20.176Z</time></trkpt><trkpt lat="37.9631033" lon="13.8291067"><ele>17.0</ele><time>2026-05-05T14:26:21.176Z</time></trkpt><trkpt lat="37.9632933" lon="13.82927"><ele>16.5</ele><time>2026-05-05T14:26:22.176Z</time></trkpt><trkpt lat="37.9634933" lon="13.82943"><ele>16.0</ele><time>2026-05-05T14:26:23.176Z</time></trkpt><trkpt lat="37.9636917" lon="13.8295883"><ele>16.0</ele><time>2026-05-05T14:26:24.176Z</time></trkpt><trkpt lat="37.9638883" lon="13.8297383"><ele>16.0</ele><time>2026-05-05T14:26:25.176Z</time></trkpt><trkpt lat="37.9640817" lon="13.8298933"><ele>15.0</ele><time>2026-05-05T14:26:26.176Z</time></trkpt><trkpt lat="37.9642783" lon="13.8300567"><ele>14.0</ele><time>2026-05-05T14:26:27.176Z</time></trkpt><trkpt lat="37.9644817" lon="13.8302267"><ele>16.0</ele><time>2026-05-05T14:26:28.177Z</time></trkpt><trkpt lat="37.9646783" lon="13.8303833"><ele>18.0</ele><time>2026-05-05T14:26:29.176Z</time></trkpt><trkpt lat="37.9648817" lon="13.83055"><ele>17.0</ele><time>2026-05-05T14:26:30.176Z</time></trkpt><trkpt lat="37.9650867" lon="13.83072"><ele>16.0</ele><time>2026-05-05T14:26:31.176Z</time></trkpt><trkpt lat="37.965295" lon="13.8308867"><ele>16.5</ele><time>2026-05-05T14:26:32.176Z</time></trkpt><trkpt lat="37.9655" lon="13.8310433"><ele>17.0</ele><time>2026-05-05T14:26:33.177Z</time></trkpt><trkpt lat="37.965705" lon="13.8312033"><ele>16.5</ele><time>2026-05-05T14:26:34.176Z</time></trkpt><trkpt lat="37.965905" lon="13.831365"><ele>16.0</ele><time>2026-05-05T14:26:35.176Z</time></trkpt><trkpt lat="37.96611" lon="13.8315267"><ele>16.0</ele><time>2026-05-05T14:26:36.176Z</time></trkpt><trkpt lat="37.9663083" lon="13.8316833"><ele>16.0</ele><time>2026-05-05T14:26:37.176Z</time></trkpt><trkpt lat="37.9665133" lon="13.83183"><ele>19.0</ele><time>2026-05-05T14:26:38.176Z</time></trkpt><trkpt lat="37.9667233" lon="13.8319717"><ele>22.0</ele><time>2026-05-05T14:26:39.176Z</time></trkpt><trkpt lat="37.9669317" lon="13.8321067"><ele>22.0</ele><time>2026-05-05T14:26:40.176Z</time></trkpt><trkpt lat="37.9671433" lon="13.8322283"><ele>22.0</ele><time>2026-05-05T14:26:41.176Z</time></trkpt><trkpt lat="37.967365" lon="13.832335"><ele>22.5</ele><time>2026-05-05T14:26:42.176Z</time></trkpt><trkpt lat="37.967595" lon="13.8324333"><ele>23.0</ele><time>2026-05-05T14:26:43.176Z</time></trkpt><trkpt lat="37.96782" lon="13.8325217"><ele>23.0</ele><time>2026-05-05T14:26:44.176Z</time></trkpt><trkpt lat="37.968055" lon="13.8326083"><ele>23.0</ele><time>2026-05-05T14:26:45.176Z</time></trkpt><trkpt lat="37.96829" lon="13.8326767"><ele>21.5</ele><time>2026-05-05T14:26:46.176Z</time></trkpt><trkpt lat="37.9685267" lon="13.8327267"><ele>20.0</ele><time>2026-05-05T14:26:47.177Z</time></trkpt><trkpt lat="37.96876" lon="13.8327883"><ele>20.0</ele><time>2026-05-05T14:26:48.176Z</time></trkpt><trkpt lat="37.9690067" lon="13.832835"><ele>20.0</ele><time>2026-05-05T14:26:49.176Z</time></trkpt><trkpt lat="37.9692483" lon="13.8328783"><ele>20.0</ele><time>2026-05-05T14:26:50.176Z</time></trkpt><trkpt lat="37.96949" lon="13.8329083"><ele>20.0</ele><time>2026-05-05T14:26:51.176Z</time></trkpt><trkpt lat="37.9697267" lon="13.8329167"><ele>20.0</ele><time>2026-05-05T14:26:52.176Z</time></trkpt><trkpt lat="37.9699683" lon="13.83292"><ele>20.0</ele><time>2026-05-05T14:26:53.176Z</time></trkpt><trkpt lat="37.9702117" lon="13.8329183"><ele>20.0</ele><time>2026-05-05T14:26:54.176Z</time></trkpt><trkpt lat="37.9704517" lon="13.8329"><ele>20.0</ele><time>2026-05-05T14:26:55.176Z</time></trkpt><trkpt lat="37.9706933" lon="13.83287"><ele>18.5</ele><time>2026-05-05T14:26:56.176Z</time></trkpt><trkpt lat="37.9709283" lon="13.8328267"><ele>17.0</ele><time>2026-05-05T14:26:57.176Z</time></trkpt><trkpt lat="37.9711617" lon="13.832775"><ele>17.0</ele><time>2026-05-05T14:26:58.176Z</time></trkpt><trkpt lat="37.971395" lon="13.83272"><ele>17.0</ele><time>2026-05-05T14:26:59.176Z</time></trkpt><trkpt lat="37.971635" lon="13.832655"><ele>16.5</ele><time>2026-05-05T14:27:00.176Z</time></trkpt><trkpt lat="37.971885" lon="13.832575"><ele>16.0</ele><time>2026-05-05T14:27:01.176Z</time></trkpt><trkpt lat="37.9721333" lon="13.832475"><ele>16.0</ele><time>2026-05-05T14:27:02.177Z</time></trkpt><trkpt lat="37.97238" lon="13.8323617"><ele>16.0</ele><time>2026-05-05T14:27:03.176Z</time></trkpt><trkpt lat="37.97263" lon="13.8322367"><ele>15.0</ele><time>2026-05-05T14:27:04.176Z</time></trkpt><trkpt lat="37.9728767" lon="13.8321017"><ele>14.0</ele><time>2026-05-05T14:27:05.176Z</time></trkpt><trkpt lat="37.97313" lon="13.8319567"><ele>13.5</ele><time>2026-05-05T14:27:06.176Z</time></trkpt><trkpt lat="37.97338" lon="13.8318167"><ele>13.0</ele><time>2026-05-05T14:27:07.176Z</time></trkpt><trkpt lat="37.9736233" lon="13.83167"><ele>14.0</ele><time>2026-05-05T14:27:08.176Z</time></trkpt><trkpt lat="37.97387" lon="13.8315333"><ele>15.0</ele><time>2026-05-05T14:27:09.176Z</time></trkpt><trkpt lat="37.9741183" lon="13.8313817"><ele>13.5</ele><time>2026-05-05T14:27:10.176Z</time></trkpt><trkpt lat="37.9743667" lon="13.8312383"><ele>12.0</ele><time>2026-05-05T14:27:11.176Z</time></trkpt><trkpt lat="37.97461" lon="13.831105"><ele>11.5</ele><time>2026-05-05T14:27:12.176Z</time></trkpt><trkpt lat="37.9748517" lon="13.8309633"><ele>11.0</ele><time>2026-05-05T14:27:13.176Z</time></trkpt><trkpt lat="37.97509" lon="13.830825"><ele>11.0</ele><time>2026-05-05T14:27:14.176Z</time></trkpt><trkpt lat="37.97533" lon="13.8306867"><ele>11.0</ele><time>2026-05-05T14:27:15.177Z</time></trkpt><trkpt lat="37.9755767" lon="13.830545"><ele>11.0</ele><time>2026-05-05T14:27:16.177Z</time></trkpt><trkpt lat="37.97582" lon="13.83041"><ele>11.0</ele><time>2026-05-05T14:27:17.176Z</time></trkpt><trkpt lat="37.976055" lon="13.8302683"><ele>11.0</ele><time>2026-05-05T14:27:18.176Z</time></trkpt><trkpt lat="37.9762967" lon="13.830125"><ele>11.0</ele><time>2026-05-05T14:27:19.176Z</time></trkpt><trkpt lat="37.976535" lon="13.8299867"><ele>9.5</ele><time>2026-05-05T14:27:20.176Z</time></trkpt><trkpt lat="37.97677" lon="13.8298383"><ele>8.0</ele><time>2026-05-05T14:27:21.176Z</time></trkpt><trkpt lat="37.9770067" lon="13.8296867"><ele>8.0</ele><time>2026-05-05T14:27:22.176Z</time></trkpt><trkpt lat="37.9772367" lon="13.829525"><ele>8.0</ele><time>2026-05-05T14:27:23.176Z</time></trkpt><trkpt lat="37.9774583" lon="13.8293483"><ele>10.0</ele><time>2026-05-05T14:27:24.176Z</time></trkpt><trkpt lat="37.9776767" lon="13.8291667"><ele>12.0</ele><time>2026-05-05T14:27:25.176Z</time></trkpt><trkpt lat="37.9778833" lon="13.8289667"><ele>12.0</ele><time>2026-05-05T14:27:26.176Z</time></trkpt><trkpt lat="37.9780817" lon="13.8287533"><ele>12.0</ele><time>2026-05-05T14:27:27.177Z</time></trkpt><trkpt lat="37.978265" lon="13.8285283"><ele>11.0</ele><time>2026-05-05T14:27:28.176Z</time></trkpt><trkpt lat="37.9784417" lon="13.8282783"><ele>10.0</ele><time>2026-05-05T14:27:29.176Z</time></trkpt><trkpt lat="37.9786017" lon="13.82801"><ele>10.0</ele><time>2026-05-05T14:27:30.176Z</time></trkpt><trkpt lat="37.9787517" lon="13.827735"><ele>10.0</ele><time>2026-05-05T14:27:31.176Z</time></trkpt><trkpt lat="37.97888" lon="13.8274533"><ele>11.0</ele><time>2026-05-05T14:27:32.176Z</time></trkpt><trkpt lat="37.9790033" lon="13.82716"><ele>12.0</ele><time>2026-05-05T14:27:33.176Z</time></trkpt><trkpt lat="37.9791083" lon="13.8268583"><ele>9.5</ele><time>2026-05-05T14:27:34.176Z</time></trkpt><trkpt lat="37.9791983" lon="13.82655"><ele>7.0</ele><time>2026-05-05T14:27:35.176Z</time></trkpt><trkpt lat="37.9792783" lon="13.82623"><ele>7.0</ele><time>2026-05-05T14:27:36.176Z</time></trkpt><trkpt lat="37.979335" lon="13.8259083"><ele>7.0</ele><time>2026-05-05T14:27:37.176Z</time></trkpt><trkpt lat="37.979375" lon="13.8255717"><ele>7.0</ele><time>2026-05-05T14:27:38.177Z</time></trkpt><trkpt lat="37.979395" lon="13.825215"><ele>7.0</ele><time>2026-05-05T14:27:39.176Z</time></trkpt><trkpt lat="37.9794017" lon="13.8248667"><ele>6.5</ele><time>2026-05-05T14:27:40.176Z</time></trkpt><trkpt lat="37.97938" lon="13.8245133"><ele>6.0</ele><time>2026-05-05T14:27:41.176Z</time></trkpt><trkpt lat="37.97934" lon="13.8241517"><ele>6.0</ele><time>2026-05-05T14:27:42.176Z</time></trkpt><trkpt lat="37.9792767" lon="13.8237917"><ele>6.0</ele><time>2026-05-05T14:27:43.176Z</time></trkpt><trkpt lat="37.9792033" lon="13.82343"><ele>6.5</ele><time>2026-05-05T14:27:44.176Z</time></trkpt><trkpt lat="37.97912" lon="13.8230683"><ele>7.0</ele><time>2026-05-05T14:27:45.176Z</time></trkpt><trkpt lat="37.9790283" lon="13.822715"><ele>8.0</ele><time>2026-05-05T14:27:46.176Z</time></trkpt><trkpt lat="37.9789383" lon="13.822365"><ele>9.0</ele><time>2026-05-05T14:27:47.176Z</time></trkpt><trkpt lat="37.9788417" lon="13.8220217"><ele>8.5</ele><time>2026-05-05T14:27:48.176Z</time></trkpt><trkpt lat="37.978745" lon="13.8216767"><ele>8.0</ele><time>2026-05-05T14:27:49.176Z</time></trkpt><trkpt lat="37.978645" lon="13.8213383"><ele>8.0</ele><time>2026-05-05T14:27:50.176Z</time></trkpt><trkpt lat="37.9785417" lon="13.820995"><ele>8.0</ele><time>2026-05-05T14:27:51.176Z</time></trkpt><trkpt lat="37.978445" lon="13.8206517"><ele>8.5</ele><time>2026-05-05T14:27:52.176Z</time></trkpt><trkpt lat="37.9783417" lon="13.8203117"><ele>9.0</ele><time>2026-05-05T14:27:53.177Z</time></trkpt><trkpt lat="37.978245" lon="13.8199683"><ele>8.0</ele><time>2026-05-05T14:27:54.176Z</time></trkpt><trkpt lat="37.9781467" lon="13.8196317"><ele>7.0</ele><time>2026-05-05T14:27:55.176Z</time></trkpt><trkpt lat="37.97805" lon="13.8192983"><ele>7.0</ele><time>2026-05-05T14:27:56.176Z</time></trkpt><trkpt lat="37.977955" lon="13.81896"><ele>7.0</ele><time>2026-05-05T14:27:57.176Z</time></trkpt><trkpt lat="37.9778517" lon="13.818625"><ele>6.5</ele><time>2026-05-05T14:27:58.177Z</time></trkpt><trkpt lat="37.9777567" lon="13.8182933"><ele>6.0</ele><time>2026-05-05T14:27:59.176Z</time></trkpt><trkpt lat="37.9776583" lon="13.8179483"><ele>5.5</ele><time>2026-05-05T14:28:00.176Z</time></trkpt><trkpt lat="37.97756" lon="13.817605"><ele>5.0</ele><time>2026-05-05T14:28:01.177Z</time></trkpt><trkpt lat="37.9774517" lon="13.817245"><ele>5.0</ele><time>2026-05-05T14:28:02.176Z</time></trkpt><trkpt lat="37.9773433" lon="13.8168633"><ele>5.0</ele><time>2026-05-05T14:28:03.176Z</time></trkpt><trkpt lat="37.9772383" lon="13.816475"><ele>5.0</ele><time>2026-05-05T14:28:04.176Z</time></trkpt><trkpt lat="37.9771283" lon="13.8160867"><ele>5.0</ele><time>2026-05-05T14:28:05.176Z</time></trkpt><trkpt lat="37.9770167" lon="13.8157017"><ele>4.5</ele><time>2026-05-05T14:28:06.176Z</time></trkpt><trkpt lat="37.9769117" lon="13.8153233"><ele>4.0</ele><time>2026-05-05T14:28:07.177Z</time></trkpt><trkpt lat="37.9768017" lon="13.8149467"><ele>4.0</ele><time>2026-05-05T14:28:08.176Z</time></trkpt><trkpt lat="37.9767" lon="13.8145733"><ele>4.0</ele><time>2026-05-05T14:28:09.176Z</time></trkpt><trkpt lat="37.976595" lon="13.8142117"><ele>4.5</ele><time>2026-05-05T14:28:10.176Z</time></trkpt><trkpt lat="37.976495" lon="13.8138517"><ele>5.0</ele><time>2026-05-05T14:28:11.176Z</time></trkpt><trkpt lat="37.9763917" lon="13.8134867"><ele>6.0</ele><time>2026-05-05T14:28:12.177Z</time></trkpt><trkpt lat="37.9762883" lon="13.813135"><ele>7.0</ele><time>2026-05-05T14:28:13.176Z</time></trkpt><trkpt lat="37.9761933" lon="13.8127833"><ele>7.0</ele><time>2026-05-05T14:28:14.177Z</time></trkpt><trkpt lat="37.9760883" lon="13.812425"><ele>7.0</ele><time>2026-05-05T14:28:15.176Z</time></trkpt><trkpt lat="37.975985" lon="13.81207"><ele>7.0</ele><time>2026-05-05T14:28:16.176Z</time></trkpt><trkpt lat="37.97588" lon="13.8117217"><ele>7.0</ele><time>2026-05-05T14:28:17.176Z</time></trkpt><trkpt lat="37.9757717" lon="13.81137"><ele>7.0</ele><time>2026-05-05T14:28:18.176Z</time></trkpt><trkpt lat="37.9756617" lon="13.8110117"><ele>7.0</ele><time>2026-05-05T14:28:19.176Z</time></trkpt><trkpt lat="37.975555" lon="13.8106383"><ele>6.5</ele><time>2026-05-05T14:28:20.176Z</time></trkpt><trkpt lat="37.9754483" lon="13.8102733"><ele>6.0</ele><time>2026-05-05T14:28:21.176Z</time></trkpt><trkpt lat="37.975345" lon="13.8099117"><ele>6.0</ele><time>2026-05-05T14:28:22.176Z</time></trkpt><trkpt lat="37.9752483" lon="13.8095583"><ele>6.0</ele><time>2026-05-05T14:28:23.176Z</time></trkpt><trkpt lat="37.9751467" lon="13.8092017"><ele>6.0</ele><time>2026-05-05T14:28:24.176Z</time></trkpt><trkpt lat="37.975045" lon="13.80884"><ele>6.0</ele><time>2026-05-05T14:28:25.176Z</time></trkpt><trkpt lat="37.9749483" lon="13.8084817"><ele>7.5</ele><time>2026-05-05T14:28:26.176Z</time></trkpt><trkpt lat="37.9748533" lon="13.808125"><ele>9.0</ele><time>2026-05-05T14:28:27.176Z</time></trkpt><trkpt lat="37.97475" lon="13.8077767"><ele>9.0</ele><time>2026-05-05T14:28:28.176Z</time></trkpt><trkpt lat="37.9746433" lon="13.807425"><ele>9.0</ele><time>2026-05-05T14:28:29.177Z</time></trkpt><trkpt lat="37.9745433" lon="13.8070767"><ele>8.0</ele><time>2026-05-05T14:28:30.176Z</time></trkpt><trkpt lat="37.974445" lon="13.806735"><ele>7.0</ele><time>2026-05-05T14:28:31.176Z</time></trkpt><trkpt lat="37.974345" lon="13.8063917"><ele>7.0</ele><time>2026-05-05T14:28:32.176Z</time></trkpt><trkpt lat="37.9742467" lon="13.8060467"><ele>7.0</ele><time>2026-05-05T14:28:33.176Z</time></trkpt><trkpt lat="37.9741483" lon="13.8057"><ele>7.0</ele><time>2026-05-05T14:28:34.176Z</time></trkpt><trkpt lat="37.9740483" lon="13.805355"><ele>7.0</ele><time>2026-05-05T14:28:35.177Z</time></trkpt><trkpt lat="37.9739333" lon="13.80498"><ele>7.0</ele><time>2026-05-05T14:28:36.176Z</time></trkpt><trkpt lat="37.97382" lon="13.80458"><ele>7.0</ele><time>2026-05-05T14:28:37.176Z</time></trkpt><trkpt lat="37.9737017" lon="13.804155"><ele>7.0</ele><time>2026-05-05T14:28:38.176Z</time></trkpt><trkpt lat="37.9735733" lon="13.8037117"><ele>7.0</ele><time>2026-05-05T14:28:39.176Z</time></trkpt><trkpt lat="37.9734533" lon="13.803285"><ele>7.0</ele><time>2026-05-05T14:28:40.176Z</time></trkpt><trkpt lat="37.9733383" lon="13.8028867"><ele>7.0</ele><time>2026-05-05T14:28:41.176Z</time></trkpt><trkpt lat="37.97322" lon="13.8024967"><ele>7.0</ele><time>2026-05-05T14:28:42.176Z</time></trkpt><trkpt lat="37.9731183" lon="13.8021167"><ele>7.0</ele><time>2026-05-05T14:28:43.176Z</time></trkpt><trkpt lat="37.97301" lon="13.8017383"><ele>7.0</ele><time>2026-05-05T14:28:44.176Z</time></trkpt><trkpt lat="37.9728983" lon="13.8013683"><ele>7.0</ele><time>2026-05-05T14:28:45.176Z</time></trkpt><trkpt lat="37.9727917" lon="13.8009983"><ele>6.5</ele><time>2026-05-05T14:28:46.176Z</time></trkpt><trkpt lat="37.9726833" lon="13.80062"><ele>6.0</ele><time>2026-05-05T14:28:47.176Z</time></trkpt><trkpt lat="37.972575" lon="13.8002333"><ele>6.0</ele><time>2026-05-05T14:28:48.176Z</time></trkpt><trkpt lat="37.972465" lon="13.7998517"><ele>6.0</ele><time>2026-05-05T14:28:49.176Z</time></trkpt><trkpt lat="37.972355" lon="13.7994717"><ele>6.0</ele><time>2026-05-05T14:28:50.176Z</time></trkpt><trkpt lat="37.97224" lon="13.7990883"><ele>6.0</ele><time>2026-05-05T14:28:51.176Z</time></trkpt><trkpt lat="37.9721283" lon="13.798695"><ele>6.0</ele><time>2026-05-05T14:28:52.176Z</time></trkpt><trkpt lat="37.9720117" lon="13.7983083"><ele>6.0</ele><time>2026-05-05T14:28:53.176Z</time></trkpt><trkpt lat="37.9719017" lon="13.7979183"><ele>6.0</ele><time>2026-05-05T14:28:54.176Z</time></trkpt><trkpt lat="37.97179" lon="13.79753"><ele>6.0</ele><time>2026-05-05T14:28:55.176Z</time></trkpt><trkpt lat="37.97168" lon="13.7971467"><ele>6.5</ele><time>2026-05-05T14:28:56.177Z</time></trkpt><trkpt lat="37.971575" lon="13.7967633"><ele>7.0</ele><time>2026-05-05T14:28:57.176Z</time></trkpt><trkpt lat="37.9714717" lon="13.7963817"><ele>7.0</ele><time>2026-05-05T14:28:58.176Z</time></trkpt><trkpt lat="37.9713717" lon="13.795995"><ele>7.0</ele><time>2026-05-05T14:28:59.176Z</time></trkpt><trkpt lat="37.97127" lon="13.7956217"><ele>7.0</ele><time>2026-05-05T14:29:00.176Z</time></trkpt><trkpt lat="37.9711617" lon="13.7952517"><ele>7.0</ele><time>2026-05-05T14:29:01.176Z</time></trkpt><trkpt lat="37.9710633" lon="13.794885"><ele>7.5</ele><time>2026-05-05T14:29:02.176Z</time></trkpt><trkpt lat="37.97096" lon="13.7945183"><ele>8.0</ele><time>2026-05-05T14:29:03.176Z</time></trkpt><trkpt lat="37.9708567" lon="13.79415"><ele>8.0</ele><time>2026-05-05T14:29:04.177Z</time></trkpt><trkpt lat="37.9707517" lon="13.7937867"><ele>8.0</ele><time>2026-05-05T14:29:05.176Z</time></trkpt><trkpt lat="37.9706433" lon="13.79342"><ele>8.5</ele><time>2026-05-05T14:29:06.176Z</time></trkpt><trkpt lat="37.97054" lon="13.7930567"><ele>9.0</ele><time>2026-05-05T14:29:07.177Z</time></trkpt><trkpt lat="37.970435" lon="13.792695"><ele>7.5</ele><time>2026-05-05T14:29:08.176Z</time></trkpt><trkpt lat="37.9703317" lon="13.7923317"><ele>6.0</ele><time>2026-05-05T14:29:09.176Z</time></trkpt><trkpt lat="37.9702333" lon="13.791975"><ele>6.0</ele><time>2026-05-05T14:29:10.176Z</time></trkpt><trkpt lat="37.970135" lon="13.79161"><ele>6.0</ele><time>2026-05-05T14:29:11.176Z</time></trkpt><trkpt lat="37.970045" lon="13.7912467"><ele>6.0</ele><time>2026-05-05T14:29:12.176Z</time></trkpt><trkpt lat="37.9699467" lon="13.7908817"><ele>6.0</ele><time>2026-05-05T14:29:13.176Z</time></trkpt><trkpt lat="37.96986" lon="13.79052"><ele>6.0</ele><time>2026-05-05T14:29:14.176Z</time></trkpt><trkpt lat="37.9697733" lon="13.7901517"><ele>6.0</ele><time>2026-05-05T14:29:15.176Z</time></trkpt><trkpt lat="37.9696883" lon="13.78978"><ele>6.0</ele><time>2026-05-05T14:29:16.176Z</time></trkpt><trkpt lat="37.96961" lon="13.7894033"><ele>6.0</ele><time>2026-05-05T14:29:17.176Z</time></trkpt><trkpt lat="37.96953" lon="13.78903"><ele>6.0</ele><time>2026-05-05T14:29:18.177Z</time></trkpt><trkpt lat="37.9694483" lon="13.788645"><ele>6.0</ele><time>2026-05-05T14:29:19.176Z</time></trkpt><trkpt lat="37.969375" lon="13.7882733"><ele>6.0</ele><time>2026-05-05T14:29:20.177Z</time></trkpt><trkpt lat="37.9692967" lon="13.7878917"><ele>6.0</ele><time>2026-05-05T14:29:21.176Z</time></trkpt><trkpt lat="37.9692233" lon="13.78751"><ele>6.5</ele><time>2026-05-05T14:29:22.177Z</time></trkpt><trkpt lat="37.969155" lon="13.7871367"><ele>7.0</ele><time>2026-05-05T14:29:23.176Z</time></trkpt><trkpt lat="37.9690967" lon="13.7867667"><ele>7.0</ele><time>2026-05-05T14:29:24.176Z</time></trkpt><trkpt lat="37.969035" lon="13.7863967"><ele>7.0</ele><time>2026-05-05T14:29:25.176Z</time></trkpt><trkpt lat="37.9689833" lon="13.78602"><ele>7.0</ele><time>2026-05-05T14:29:26.176Z</time></trkpt><trkpt lat="37.9689233" lon="13.785655"><ele>7.0</ele><time>2026-05-05T14:29:27.176Z</time></trkpt><trkpt lat="37.9688733" lon="13.7853083"><ele>6.5</ele><time>2026-05-05T14:29:28.176Z</time></trkpt><trkpt lat="37.968825" lon="13.784965"><ele>6.0</ele><time>2026-05-05T14:29:29.176Z</time></trkpt><trkpt lat="37.96877" lon="13.7846117"><ele>6.5</ele><time>2026-05-05T14:29:30.176Z</time></trkpt><trkpt lat="37.9687167" lon="13.7842483"><ele>7.0</ele><time>2026-05-05T14:29:31.176Z</time></trkpt><trkpt lat="37.9686583" lon="13.7838833"><ele>7.0</ele><time>2026-05-05T14:29:32.176Z</time></trkpt><trkpt lat="37.9686033" lon="13.7835133"><ele>7.0</ele><time>2026-05-05T14:29:33.176Z</time></trkpt><trkpt lat="37.9685483" lon="13.7831467"><ele>7.0</ele><time>2026-05-05T14:29:34.176Z</time></trkpt><trkpt lat="37.9684983" lon="13.7827717"><ele>7.0</ele><time>2026-05-05T14:29:35.176Z</time></trkpt><trkpt lat="37.96845" lon="13.782395"><ele>7.0</ele><time>2026-05-05T14:29:36.176Z</time></trkpt><trkpt lat="37.9683983" lon="13.7820217"><ele>7.0</ele><time>2026-05-05T14:29:37.176Z</time></trkpt><trkpt lat="37.968345" lon="13.78165"><ele>7.0</ele><time>2026-05-05T14:29:38.176Z</time></trkpt><trkpt lat="37.9682883" lon="13.7812667"><ele>7.0</ele><time>2026-05-05T14:29:39.176Z</time></trkpt><trkpt lat="37.9682383" lon="13.7808817"><ele>7.5</ele><time>2026-05-05T14:29:40.176Z</time></trkpt><trkpt lat="37.968185" lon="13.7804967"><ele>8.0</ele><time>2026-05-05T14:29:41.176Z</time></trkpt><trkpt lat="37.9681267" lon="13.7801133"><ele>9.0</ele><time>2026-05-05T14:29:42.176Z</time></trkpt><trkpt lat="37.968075" lon="13.7797333"><ele>10.0</ele><time>2026-05-05T14:29:43.176Z</time></trkpt><trkpt lat="37.96802" lon="13.779355"><ele>9.5</ele><time>2026-05-05T14:29:44.176Z</time></trkpt><trkpt lat="37.967965" lon="13.7789667"><ele>9.0</ele><time>2026-05-05T14:29:45.176Z</time></trkpt><trkpt lat="37.9679083" lon="13.7785833"><ele>9.5</ele><time>2026-05-05T14:29:46.176Z</time></trkpt><trkpt lat="37.9678583" lon="13.7781983"><ele>10.0</ele><time>2026-05-05T14:29:47.176Z</time></trkpt><trkpt lat="37.9678083" lon="13.7778083"><ele>9.0</ele><time>2026-05-05T14:29:48.176Z</time></trkpt><trkpt lat="37.9677517" lon="13.7774183"><ele>8.0</ele><time>2026-05-05T14:29:49.176Z</time></trkpt><trkpt lat="37.9677" lon="13.7770267"><ele>8.0</ele><time>2026-05-05T14:29:50.177Z</time></trkpt><trkpt lat="37.9676467" lon="13.7766317"><ele>8.0</ele><time>2026-05-05T14:29:51.176Z</time></trkpt><trkpt lat="37.9675867" lon="13.7762483"><ele>8.5</ele><time>2026-05-05T14:29:52.176Z</time></trkpt><trkpt lat="37.9675333" lon="13.77587"><ele>9.0</ele><time>2026-05-05T14:29:53.176Z</time></trkpt><trkpt lat="37.9674767" lon="13.7754983"><ele>10.0</ele><time>2026-05-05T14:29:54.176Z</time></trkpt><trkpt lat="37.967425" lon="13.7751317"><ele>11.0</ele><time>2026-05-05T14:29:55.177Z</time></trkpt><trkpt lat="37.96737" lon="13.7747667"><ele>11.0</ele><time>2026-05-05T14:29:56.176Z</time></trkpt><trkpt lat="37.9673283" lon="13.7744033"><ele>11.0</ele><time>2026-05-05T14:29:57.176Z</time></trkpt><trkpt lat="37.96728" lon="13.7740533"><ele>10.5</ele><time>2026-05-05T14:29:58.176Z</time></trkpt><trkpt lat="37.96723" lon="13.7736967"><ele>10.0</ele><time>2026-05-05T14:29:59.176Z</time></trkpt><trkpt lat="37.9671767" lon="13.7733383"><ele>10.0</ele><time>2026-05-05T14:30:00.176Z</time></trkpt><trkpt lat="37.9671317" lon="13.7729817"><ele>10.0</ele><time>2026-05-05T14:30:01.176Z</time></trkpt><trkpt lat="37.9670867" lon="13.772625"><ele>9.0</ele><time>2026-05-05T14:30:02.177Z</time></trkpt><trkpt lat="37.96704" lon="13.7722617"><ele>8.0</ele><time>2026-05-05T14:30:03.176Z</time></trkpt><trkpt lat="37.9669933" lon="13.7719017"><ele>7.0</ele><time>2026-05-05T14:30:04.176Z</time></trkpt><trkpt lat="37.9669467" lon="13.7715417"><ele>6.0</ele><time>2026-05-05T14:30:05.177Z</time></trkpt><trkpt lat="37.9669" lon="13.771185"><ele>6.0</ele><time>2026-05-05T14:30:06.177Z</time></trkpt><trkpt lat="37.9668533" lon="13.7708267"><ele>6.0</ele><time>2026-05-05T14:30:07.177Z</time></trkpt><trkpt lat="37.9668067" lon="13.7704667"><ele>5.5</ele><time>2026-05-05T14:30:08.176Z</time></trkpt><trkpt lat="37.96676" lon="13.7701083"><ele>5.0</ele><time>2026-05-05T14:30:09.176Z</time></trkpt><trkpt lat="37.966705" lon="13.7697517"><ele>5.5</ele><time>2026-05-05T14:30:10.176Z</time></trkpt><trkpt lat="37.9666583" lon="13.7694033"><ele>6.0</ele><time>2026-05-05T14:30:11.176Z</time></trkpt><trkpt lat="37.96661" lon="13.7690483"><ele>6.0</ele><time>2026-05-05T14:30:12.176Z</time></trkpt><trkpt lat="37.9665567" lon="13.7686833"><ele>6.0</ele><time>2026-05-05T14:30:13.176Z</time></trkpt><trkpt lat="37.9664983" lon="13.7682933"><ele>8.0</ele><time>2026-05-05T14:30:14.176Z</time></trkpt><trkpt lat="37.966435" lon="13.767885"><ele>10.0</ele><time>2026-05-05T14:30:15.176Z</time></trkpt><trkpt lat="37.9663617" lon="13.7674617"><ele>10.0</ele><time>2026-05-05T14:30:16.176Z</time></trkpt><trkpt lat="37.96628" lon="13.7670183"><ele>10.0</ele><time>2026-05-05T14:30:17.176Z</time></trkpt><trkpt lat="37.9661917" lon="13.7665667"><ele>9.5</ele><time>2026-05-05T14:30:18.176Z</time></trkpt><trkpt lat="37.9660983" lon="13.7661033"><ele>9.0</ele><time>2026-05-05T14:30:19.176Z</time></trkpt><trkpt lat="37.9659933" lon="13.76563"><ele>9.5</ele><time>2026-05-05T14:30:20.176Z</time></trkpt><trkpt lat="37.9658833" lon="13.7651383"><ele>10.0</ele><time>2026-05-05T14:30:21.176Z</time></trkpt><trkpt lat="37.9657617" lon="13.7646383"><ele>12.5</ele><time>2026-05-05T14:30:22.176Z</time></trkpt><trkpt lat="37.9656283" lon="13.7641333"><ele>15.0</ele><time>2026-05-05T14:30:23.176Z</time></trkpt><trkpt lat="37.9654833" lon="13.763635"><ele>15.0</ele><time>2026-05-05T14:30:24.176Z</time></trkpt><trkpt lat="37.965335" lon="13.76313"><ele>15.0</ele><time>2026-05-05T14:30:25.177Z</time></trkpt><trkpt lat="37.9652" lon="13.7626233"><ele>15.0</ele><time>2026-05-05T14:30:26.176Z</time></trkpt><trkpt lat="37.9650733" lon="13.76215"><ele>15.0</ele><time>2026-05-05T14:30:27.176Z</time></trkpt><trkpt lat="37.9649583" lon="13.76169"><ele>20.5</ele><time>2026-05-05T14:30:28.176Z</time></trkpt><trkpt lat="37.964845" lon="13.7612433"><ele>26.0</ele><time>2026-05-05T14:30:29.176Z</time></trkpt><trkpt lat="37.9647383" lon="13.7607983"><ele>26.0</ele><time>2026-05-05T14:30:30.176Z</time></trkpt><trkpt lat="37.9646383" lon="13.7603667"><ele>26.0</ele><time>2026-05-05T14:30:31.176Z</time></trkpt><trkpt lat="37.9645467" lon="13.75994"><ele>26.0</ele><time>2026-05-05T14:30:32.176Z</time></trkpt><trkpt lat="37.9644583" lon="13.7595067"><ele>26.0</ele><time>2026-05-05T14:30:33.176Z</time></trkpt><trkpt lat="37.9643783" lon="13.7590717"><ele>26.0</ele><time>2026-05-05T14:30:34.176Z</time></trkpt><trkpt lat="37.9643" lon="13.7586417"><ele>26.0</ele><time>2026-05-05T14:30:35.176Z</time></trkpt><trkpt lat="37.9642267" lon="13.7582133"><ele>34.5</ele><time>2026-05-05T14:30:36.176Z</time></trkpt><trkpt lat="37.9641633" lon="13.7577883"><ele>43.0</ele><time>2026-05-05T14:30:37.176Z</time></trkpt><trkpt lat="37.964105" lon="13.7573583"><ele>43.0</ele><time>2026-05-05T14:30:38.176Z</time></trkpt><trkpt lat="37.9640533" lon="13.7569317"><ele>43.0</ele><time>2026-05-05T14:30:39.177Z</time></trkpt><trkpt lat="37.9640033" lon="13.7565"><ele>43.5</ele><time>2026-05-05T14:30:40.176Z</time></trkpt><trkpt lat="37.96396" lon="13.7560783"><ele>44.0</ele><time>2026-05-05T14:30:41.176Z</time></trkpt><trkpt lat="37.9639133" lon="13.755655"><ele>44.0</ele><time>2026-05-05T14:30:42.176Z</time></trkpt><trkpt lat="37.96387" lon="13.755225"><ele>44.0</ele><time>2026-05-05T14:30:43.176Z</time></trkpt><trkpt lat="37.9638217" lon="13.7548067"><ele>44.0</ele><time>2026-05-05T14:30:44.176Z</time></trkpt><trkpt lat="37.963775" lon="13.7544017"><ele>44.0</ele><time>2026-05-05T14:30:45.177Z</time></trkpt><trkpt lat="37.963735" lon="13.7539967"><ele>45.5</ele><time>2026-05-05T14:30:46.176Z</time></trkpt><trkpt lat="37.9636967" lon="13.7536017"><ele>47.0</ele><time>2026-05-05T14:30:47.177Z</time></trkpt><trkpt lat="37.9636567" lon="13.7531917"><ele>47.5</ele><time>2026-05-05T14:30:48.176Z</time></trkpt><trkpt lat="37.963615" lon="13.7527983"><ele>48.0</ele><time>2026-05-05T14:30:49.176Z</time></trkpt><trkpt lat="37.9635717" lon="13.75239"><ele>48.0</ele><time>2026-05-05T14:30:50.176Z</time></trkpt><trkpt lat="37.963535" lon="13.7519817"><ele>48.0</ele><time>2026-05-05T14:30:51.176Z</time></trkpt><trkpt lat="37.9635067" lon="13.7515683"><ele>48.5</ele><time>2026-05-05T14:30:52.176Z</time></trkpt><trkpt lat="37.96349" lon="13.75115"><ele>49.0</ele><time>2026-05-05T14:30:53.176Z</time></trkpt><trkpt lat="37.9634767" lon="13.7507333"><ele>50.5</ele><time>2026-05-05T14:30:54.176Z</time></trkpt><trkpt lat="37.9634717" lon="13.7503167"><ele>52.0</ele><time>2026-05-05T14:30:55.176Z</time></trkpt><trkpt lat="37.9634767" lon="13.749895"><ele>52.5</ele><time>2026-05-05T14:30:56.176Z</time></trkpt><trkpt lat="37.9634883" lon="13.7494733"><ele>53.0</ele><time>2026-05-05T14:30:57.176Z</time></trkpt><trkpt lat="37.96351" lon="13.749055"><ele>53.5</ele><time>2026-05-05T14:30:58.176Z</time></trkpt><trkpt lat="37.9635417" lon="13.7486417"><ele>54.0</ele><time>2026-05-05T14:30:59.176Z</time></trkpt><trkpt lat="37.963575" lon="13.7482283"><ele>54.0</ele><time>2026-05-05T14:31:00.176Z</time></trkpt><trkpt lat="37.9636067" lon="13.7478217"><ele>54.0</ele><time>2026-05-05T14:31:01.176Z</time></trkpt><trkpt lat="37.96364" lon="13.74741"><ele>57.0</ele><time>2026-05-05T14:31:02.176Z</time></trkpt><trkpt lat="37.963685" lon="13.7470033"><ele>60.0</ele><time>2026-05-05T14:31:03.176Z</time></trkpt><trkpt lat="37.9637267" lon="13.7465983"><ele>61.5</ele><time>2026-05-05T14:31:04.176Z</time></trkpt><trkpt lat="37.963775" lon="13.7461867"><ele>63.0</ele><time>2026-05-05T14:31:05.176Z</time></trkpt><trkpt lat="37.9638267" lon="13.7457733"><ele>67.0</ele><time>2026-05-05T14:31:06.176Z</time></trkpt><trkpt lat="37.9638833" lon="13.7453617"><ele>71.0</ele><time>2026-05-05T14:31:07.176Z</time></trkpt><trkpt lat="37.9639433" lon="13.7449567"><ele>73.5</ele><time>2026-05-05T14:31:08.176Z</time></trkpt><trkpt lat="37.9639967" lon="13.7445517"><ele>76.0</ele><time>2026-05-05T14:31:09.176Z</time></trkpt><trkpt lat="37.96405" lon="13.74415"><ele>78.5</ele><time>2026-05-05T14:31:10.176Z</time></trkpt><trkpt lat="37.9641067" lon="13.7437433"><ele>81.0</ele><time>2026-05-05T14:31:11.176Z</time></trkpt><trkpt lat="37.9641617" lon="13.74333"><ele>76.0</ele><time>2026-05-05T14:31:12.176Z</time></trkpt><trkpt lat="37.9642133" lon="13.7429217"><ele>71.0</ele><time>2026-05-05T14:31:13.176Z</time></trkpt><trkpt lat="37.9642617" lon="13.7425117"><ele>71.0</ele><time>2026-05-05T14:31:14.176Z</time></trkpt><trkpt lat="37.964315" lon="13.7421017"><ele>71.0</ele><time>2026-05-05T14:31:15.176Z</time></trkpt><trkpt lat="37.964365" lon="13.7416917"><ele>77.0</ele><time>2026-05-05T14:31:16.176Z</time></trkpt><trkpt lat="37.964415" lon="13.7412883"><ele>83.0</ele><time>2026-05-05T14:31:17.176Z</time></trkpt><trkpt lat="37.9644683" lon="13.74088"><ele>89.5</ele><time>2026-05-05T14:31:18.176Z</time></trkpt><trkpt lat="37.96452" lon="13.7404717"><ele>96.0</ele><time>2026-05-05T14:31:19.176Z</time></trkpt><trkpt lat="37.9645633" lon="13.7400633"><ele>99.0</ele><time>2026-05-05T14:31:20.176Z</time></trkpt><trkpt lat="37.9646117" lon="13.73965"><ele>102.0</ele><time>2026-05-05T14:31:21.176Z</time></trkpt><trkpt lat="37.9646583" lon="13.7392383"><ele>103.5</ele><time>2026-05-05T14:31:22.176Z</time></trkpt><trkpt lat="37.9647133" lon="13.7388317"><ele>105.0</ele><time>2026-05-05T14:31:23.177Z</time></trkpt><trkpt lat="37.9647667" lon="13.7384233"><ele>106.0</ele><time>2026-05-05T14:31:24.177Z</time></trkpt><trkpt lat="37.96482" lon="13.738015"><ele>107.0</ele><time>2026-05-05T14:31:25.176Z</time></trkpt><trkpt lat="37.9648667" lon="13.737605"><ele>108.5</ele><time>2026-05-05T14:31:26.176Z</time></trkpt><trkpt lat="37.9649217" lon="13.7372"><ele>110.0</ele><time>2026-05-05T14:31:27.176Z</time></trkpt><trkpt lat="37.9649733" lon="13.73679"><ele>110.0</ele><time>2026-05-05T14:31:28.176Z</time></trkpt><trkpt lat="37.9650283" lon="13.7363783"><ele>110.0</ele><time>2026-05-05T14:31:29.177Z</time></trkpt><trkpt lat="37.9650833" lon="13.7359717"><ele>107.5</ele><time>2026-05-05T14:31:30.176Z</time></trkpt><trkpt lat="37.9651383" lon="13.73556"><ele>105.0</ele><time>2026-05-05T14:31:31.176Z</time></trkpt><trkpt lat="37.9651883" lon="13.73515"><ele>104.5</ele><time>2026-05-05T14:31:32.176Z</time></trkpt><trkpt lat="37.9652483" lon="13.734745"><ele>104.0</ele><time>2026-05-05T14:31:33.177Z</time></trkpt><trkpt lat="37.9653033" lon="13.7343367"><ele>104.0</ele><time>2026-05-05T14:31:34.177Z</time></trkpt><trkpt lat="37.9653583" lon="13.7339267"><ele>104.0</ele><time>2026-05-05T14:31:35.176Z</time></trkpt><trkpt lat="37.9654167" lon="13.73352"><ele>103.5</ele><time>2026-05-05T14:31:36.176Z</time></trkpt><trkpt lat="37.9654767" lon="13.733115"><ele>103.0</ele><time>2026-05-05T14:31:37.176Z</time></trkpt><trkpt lat="37.9655383" lon="13.7327183"><ele>104.0</ele><time>2026-05-05T14:31:38.176Z</time></trkpt><trkpt lat="37.9655933" lon="13.73235"><ele>105.0</ele><time>2026-05-05T14:31:39.176Z</time></trkpt><trkpt lat="37.9656483" lon="13.732"><ele>108.0</ele><time>2026-05-05T14:31:40.176Z</time></trkpt><trkpt lat="37.965695" lon="13.7316617"><ele>111.0</ele><time>2026-05-05T14:31:41.176Z</time></trkpt><trkpt lat="37.9657417" lon="13.7313417"><ele>111.0</ele><time>2026-05-05T14:31:42.176Z</time></trkpt><trkpt lat="37.965785" lon="13.7310283"><ele>111.0</ele><time>2026-05-05T14:31:43.176Z</time></trkpt><trkpt lat="37.9658283" lon="13.7307317"><ele>108.33333333333334</ele><time>2026-05-05T14:31:44.176Z</time></trkpt><trkpt lat="37.9658717" lon="13.7304517"><ele>105.66666666666667</ele><time>2026-05-05T14:31:45.176Z</time></trkpt><trkpt lat="37.9659133" lon="13.7301833"><ele>103.0</ele><time>2026-05-05T14:31:46.176Z</time></trkpt><trkpt lat="37.9659467" lon="13.7299233"><ele>103.0</ele><time>2026-05-05T14:31:47.176Z</time></trkpt><trkpt lat="37.9659783" lon="13.7296817"><ele>103.0</ele><time>2026-05-05T14:31:48.176Z</time></trkpt><trkpt lat="37.9660117" lon="13.72943"><ele>103.0</ele><time>2026-05-05T14:31:49.176Z</time></trkpt><trkpt lat="37.966045" lon="13.7291833"><ele>104.0</ele><time>2026-05-05T14:31:50.176Z</time></trkpt><trkpt lat="37.9660817" lon="13.728935"><ele>105.0</ele><time>2026-05-05T14:31:51.176Z</time></trkpt><trkpt lat="37.96612" lon="13.7286833"><ele>106.0</ele><time>2026-05-05T14:31:52.176Z</time></trkpt><trkpt lat="37.96616" lon="13.7284383"><ele>107.0</ele><time>2026-05-05T14:31:53.176Z</time></trkpt><trkpt lat="37.96619" lon="13.7282033"><ele>108.0</ele><time>2026-05-05T14:31:54.176Z</time></trkpt><trkpt lat="37.9662233" lon="13.727965"><ele>109.0</ele><time>2026-05-05T14:31:55.176Z</time></trkpt><trkpt lat="37.9662517" lon="13.7277483"><ele>109.33333333333334</ele><time>2026-05-05T14:31:56.176Z</time></trkpt><trkpt lat="37.966285" lon="13.7275417"><ele>109.66666666666666</ele><time>2026-05-05T14:31:57.176Z</time></trkpt><trkpt lat="37.9663167" lon="13.72735"><ele>110.0</ele><time>2026-05-05T14:31:58.176Z</time></trkpt><trkpt lat="37.96636" lon="13.7271883"><ele>110.0</ele><time>2026-05-05T14:31:59.176Z</time></trkpt><trkpt lat="37.9664017" lon="13.727035"><ele>110.0</ele><time>2026-05-05T14:32:00.176Z</time></trkpt><trkpt lat="37.9664417" lon="13.726895"><ele>110.0</ele><time>2026-05-05T14:32:01.176Z</time></trkpt><trkpt lat="37.96648" lon="13.726765"><ele>110.0</ele><time>2026-05-05T14:32:02.176Z</time></trkpt><trkpt lat="37.9665183" lon="13.7266483"><ele>109.66666666666666</ele><time>2026-05-05T14:32:03.176Z</time></trkpt><trkpt lat="37.9665467" lon="13.7265267"><ele>109.33333333333333</ele><time>2026-05-05T14:32:04.176Z</time></trkpt><trkpt lat="37.9665767" lon="13.7264217"><ele>109.0</ele><time>2026-05-05T14:32:05.176Z</time></trkpt><trkpt lat="37.96662" lon="13.726335"><ele>108.66666666666666</ele><time>2026-05-05T14:32:06.176Z</time></trkpt><trkpt lat="37.9666717" lon="13.726265"><ele>108.33333333333333</ele><time>2026-05-05T14:32:07.176Z</time></trkpt><trkpt lat="37.9667217" lon="13.72621"><ele>108.0</ele><time>2026-05-05T14:32:08.176Z</time></trkpt><trkpt lat="37.9668333" lon="13.726145"><ele>106.4</ele><time>2026-05-05T14:32:10.177Z</time></trkpt><trkpt lat="37.9669167" lon="13.726055"><ele>104.80000000000001</ele><time>2026-05-05T14:32:12.176Z</time></trkpt><trkpt lat="37.966955" lon="13.7259167"><ele>103.2</ele><time>2026-05-05T14:32:14.177Z</time></trkpt><trkpt lat="37.9669717" lon="13.7257917"><ele>101.6</ele><time>2026-05-05T14:32:16.176Z</time></trkpt><trkpt lat="37.9670133" lon="13.7257217"><ele>100.0</ele><time>2026-05-05T14:32:18.176Z</time></trkpt><trkpt lat="37.9669817" lon="13.7256467"><ele>100.0</ele><time>2026-05-05T15:19:26.176Z</time></trkpt><trkpt lat="37.9669167" lon="13.7255883"><ele>100.0</ele><time>2026-05-05T15:19:28.176Z</time></trkpt><trkpt lat="37.9668317" lon="13.7256467"><ele>100.0</ele><time>2026-05-05T15:19:30.177Z</time></trkpt><trkpt lat="37.9667833" lon="13.72577"><ele>100.0</ele><time>2026-05-05T15:19:32.176Z</time></trkpt><trkpt lat="37.9667667" lon="13.7259083"><ele>100.0</ele><time>2026-05-05T15:19:34.176Z</time></trkpt><trkpt lat="37.9667283" lon="13.7260317"><ele>100.0</ele><time>2026-05-05T15:19:36.176Z</time></trkpt><trkpt lat="37.966665" lon="13.726075"><ele>100.0</ele><time>2026-05-05T15:19:38.177Z</time></trkpt><trkpt lat="37.9666167" lon="13.7260083"><ele>100.0</ele><time>2026-05-05T15:19:40.177Z</time></trkpt><trkpt lat="37.9666267" lon="13.7258533"><ele>100.0</ele><time>2026-05-05T15:19:42.176Z</time></trkpt><trkpt lat="37.9666517" lon="13.7257017"><ele>100.0</ele><time>2026-05-05T15:19:44.177Z</time></trkpt><trkpt lat="37.9667117" lon="13.7255933"><ele>100.00000000000001</ele><time>2026-05-05T15:19:46.177Z</time></trkpt><trkpt lat="37.96678" lon="13.7255367"><ele>100.0</ele><time>2026-05-05T15:19:48.177Z</time></trkpt><trkpt lat="37.9668417" lon="13.7255017"><ele>100.0</ele><time>2026-05-05T15:19:50.177Z</time></trkpt><trkpt lat="37.96691" lon="13.7254667"><ele>100.0</ele><time>2026-05-05T15:19:52.176Z</time></trkpt><trkpt lat="37.966975" lon="13.7253933"><ele>100.00000000000001</ele><time>2026-05-05T15:19:55.176Z</time></trkpt><trkpt lat="37.9670117" lon="13.7252517"><ele>100.0</ele><time>2026-05-05T15:22:51.175Z</time></trkpt><trkpt lat="37.9669983" lon="13.7251483"><ele>99.66666666666667</ele><time>2026-05-05T15:22:53.175Z</time></trkpt><trkpt lat="37.9669533" lon="13.7250183"><ele>99.33333333333334</ele><time>2026-05-05T15:22:55.175Z</time></trkpt><trkpt lat="37.9669117" lon="13.72495"><ele>99.0</ele><time>2026-05-05T15:22:56.175Z</time></trkpt><trkpt lat="37.9668567" lon="13.72483"><ele>98.66666666666666</ele><time>2026-05-05T15:22:58.175Z</time></trkpt><trkpt lat="37.96684" lon="13.7247483"><ele>98.33333333333333</ele><time>2026-05-05T15:22:59.175Z</time></trkpt><trkpt lat="37.9668267" lon="13.72466"><ele>98.0</ele><time>2026-05-05T15:23:00.175Z</time></trkpt><trkpt lat="37.9668133" lon="13.7245683"><ele>98.0</ele><time>2026-05-05T15:23:01.175Z</time></trkpt><trkpt lat="37.9668117" lon="13.7244683"><ele>98.0</ele><time>2026-05-05T15:23:02.175Z</time></trkpt><trkpt lat="37.9668133" lon="13.7243783"><ele>98.0</ele><time>2026-05-05T15:23:03.175Z</time></trkpt><trkpt lat="37.9668117" lon="13.7242967"><ele>98.0</ele><time>2026-05-05T15:23:04.175Z</time></trkpt><trkpt lat="37.9667983" lon="13.7242133"><ele>98.0</ele><time>2026-05-05T15:23:05.175Z</time></trkpt><trkpt lat="37.96678" lon="13.72413"><ele>98.0</ele><time>2026-05-05T15:23:06.175Z</time></trkpt><trkpt lat="37.9667617" lon="13.7240433"><ele>98.0</ele><time>2026-05-05T15:23:07.175Z</time></trkpt><trkpt lat="37.966755" lon="13.723945"><ele>97.4</ele><time>2026-05-05T15:23:08.176Z</time></trkpt><trkpt lat="37.9667533" lon="13.723845"><ele>96.80000000000001</ele><time>2026-05-05T15:23:09.175Z</time></trkpt><trkpt lat="37.96676" lon="13.72373"><ele>96.2</ele><time>2026-05-05T15:23:10.175Z</time></trkpt><trkpt lat="37.9667783" lon="13.7236"><ele>95.6</ele><time>2026-05-05T15:23:11.175Z</time></trkpt><trkpt lat="37.9668033" lon="13.7234633"><ele>95.0</ele><time>2026-05-05T15:23:12.175Z</time></trkpt><trkpt lat="37.9668233" lon="13.7233117"><ele>94.25</ele><time>2026-05-05T15:23:13.176Z</time></trkpt><trkpt lat="37.96684" lon="13.72315"><ele>93.5</ele><time>2026-05-05T15:23:14.175Z</time></trkpt><trkpt lat="37.9668583" lon="13.72297"><ele>92.75</ele><time>2026-05-05T15:23:15.175Z</time></trkpt><trkpt lat="37.9668867" lon="13.722785"><ele>92.0</ele><time>2026-05-05T15:23:16.175Z</time></trkpt><trkpt lat="37.9669083" lon="13.7226017"><ele>92.0</ele><time>2026-05-05T15:23:17.175Z</time></trkpt><trkpt lat="37.9669317" lon="13.72241"><ele>92.0</ele><time>2026-05-05T15:23:18.175Z</time></trkpt><trkpt lat="37.9669583" lon="13.7222233"><ele>92.0</ele><time>2026-05-05T15:23:19.175Z</time></trkpt><trkpt lat="37.9669817" lon="13.7220183"><ele>95.0</ele><time>2026-05-05T15:23:20.175Z</time></trkpt><trkpt lat="37.967005" lon="13.721815"><ele>98.0</ele><time>2026-05-05T15:23:21.175Z</time></trkpt><trkpt lat="37.9670333" lon="13.7215983"><ele>101.0</ele><time>2026-05-05T15:23:22.175Z</time></trkpt><trkpt lat="37.96706" lon="13.7213917"><ele>101.0</ele><time>2026-05-05T15:23:23.175Z</time></trkpt><trkpt lat="37.9670967" lon="13.72117"><ele>101.0</ele><time>2026-05-05T15:23:24.175Z</time></trkpt><trkpt lat="37.9671317" lon="13.720935"><ele>101.0</ele><time>2026-05-05T15:23:25.175Z</time></trkpt><trkpt lat="37.9671683" lon="13.72071"><ele>100.33333333333333</ele><time>2026-05-05T15:23:26.175Z</time></trkpt><trkpt lat="37.967205" lon="13.720475"><ele>99.66666666666666</ele><time>2026-05-05T15:23:27.175Z</time></trkpt><trkpt lat="37.96725" lon="13.72024"><ele>99.0</ele><time>2026-05-05T15:23:28.175Z</time></trkpt><trkpt lat="37.96729" lon="13.7199917"><ele>99.0</ele><time>2026-05-05T15:23:29.176Z</time></trkpt><trkpt lat="37.9673367" lon="13.7197467"><ele>99.0</ele><time>2026-05-05T15:23:30.175Z</time></trkpt><trkpt lat="37.9673933" lon="13.719505"><ele>99.0</ele><time>2026-05-05T15:23:31.176Z</time></trkpt><trkpt lat="37.967465" lon="13.7192717"><ele>93.66666666666667</ele><time>2026-05-05T15:23:32.175Z</time></trkpt><trkpt lat="37.9675383" lon="13.71903"><ele>88.33333333333334</ele><time>2026-05-05T15:23:33.175Z</time></trkpt><trkpt lat="37.9676133" lon="13.71879"><ele>83.0</ele><time>2026-05-05T15:23:34.175Z</time></trkpt><trkpt lat="37.96769" lon="13.7185483"><ele>79.33333333333334</ele><time>2026-05-05T15:23:35.176Z</time></trkpt><trkpt lat="37.9677817" lon="13.7183083"><ele>75.66666666666667</ele><time>2026-05-05T15:23:36.175Z</time></trkpt><trkpt lat="37.967875" lon="13.7180683"><ele>72.0</ele><time>2026-05-05T15:23:37.175Z</time></trkpt><trkpt lat="37.9679733" lon="13.71782"><ele>71.66666666666667</ele><time>2026-05-05T15:23:38.175Z</time></trkpt><trkpt lat="37.9680767" lon="13.7175733"><ele>71.33333333333334</ele><time>2026-05-05T15:23:39.176Z</time></trkpt><trkpt lat="37.96819" lon="13.7173367"><ele>71.0</ele><time>2026-05-05T15:23:40.175Z</time></trkpt><trkpt lat="37.9683067" lon="13.7170983"><ele>73.0</ele><time>2026-05-05T15:23:41.175Z</time></trkpt><trkpt lat="37.9684333" lon="13.7168567"><ele>75.0</ele><time>2026-05-05T15:23:42.175Z</time></trkpt><trkpt lat="37.968555" lon="13.7166133"><ele>75.0</ele><time>2026-05-05T15:23:43.175Z</time></trkpt><trkpt lat="37.9686767" lon="13.7163767"><ele>75.0</ele><time>2026-05-05T15:23:44.176Z</time></trkpt><trkpt lat="37.9688117" lon="13.7161483"><ele>75.0</ele><time>2026-05-05T15:23:45.175Z</time></trkpt><trkpt lat="37.968955" lon="13.7159233"><ele>79.0</ele><time>2026-05-05T15:23:46.176Z</time></trkpt><trkpt lat="37.969095" lon="13.7157033"><ele>83.0</ele><time>2026-05-05T15:23:47.176Z</time></trkpt><trkpt lat="37.9692417" lon="13.7154817"><ele>83.0</ele><time>2026-05-05T15:23:48.175Z</time></trkpt><trkpt lat="37.9693883" lon="13.7152683"><ele>83.0</ele><time>2026-05-05T15:23:49.175Z</time></trkpt><trkpt lat="37.9695267" lon="13.7150467"><ele>83.0</ele><time>2026-05-05T15:23:50.175Z</time></trkpt><trkpt lat="37.9696717" lon="13.7148283"><ele>83.0</ele><time>2026-05-05T15:23:51.175Z</time></trkpt><trkpt lat="37.9698167" lon="13.7146067"><ele>83.0</ele><time>2026-05-05T15:23:52.175Z</time></trkpt><trkpt lat="37.9699517" lon="13.7143833"><ele>83.0</ele><time>2026-05-05T15:23:53.175Z</time></trkpt><trkpt lat="37.9700967" lon="13.7141767"><ele>79.0</ele><time>2026-05-05T15:23:54.176Z</time></trkpt><trkpt lat="37.9702417" lon="13.71396"><ele>75.0</ele><time>2026-05-05T15:23:55.175Z</time></trkpt><trkpt lat="37.9703883" lon="13.7137417"><ele>76.66666666666667</ele><time>2026-05-05T15:23:56.176Z</time></trkpt><trkpt lat="37.9705333" lon="13.7135217"><ele>78.33333333333334</ele><time>2026-05-05T15:23:57.175Z</time></trkpt><trkpt lat="37.9706717" lon="13.7133033"><ele>80.0</ele><time>2026-05-05T15:23:58.176Z</time></trkpt><trkpt lat="37.9708183" lon="13.7130883"><ele>80.33333333333334</ele><time>2026-05-05T15:23:59.175Z</time></trkpt><trkpt lat="37.9709683" lon="13.7128767"><ele>80.66666666666667</ele><time>2026-05-05T15:24:00.175Z</time></trkpt><trkpt lat="37.9711133" lon="13.712665"><ele>81.0</ele><time>2026-05-05T15:24:01.175Z</time></trkpt><trkpt lat="37.9712617" lon="13.7124533"><ele>81.0</ele><time>2026-05-05T15:24:02.175Z</time></trkpt><trkpt lat="37.971405" lon="13.712235"><ele>81.0</ele><time>2026-05-05T15:24:03.175Z</time></trkpt><trkpt lat="37.971555" lon="13.712015"><ele>81.5</ele><time>2026-05-05T15:24:04.176Z</time></trkpt><trkpt lat="37.9717017" lon="13.7118"><ele>82.0</ele><time>2026-05-05T15:24:05.175Z</time></trkpt><trkpt lat="37.9718467" lon="13.7115733"><ele>82.0</ele><time>2026-05-05T15:24:06.175Z</time></trkpt><trkpt lat="37.9719883" lon="13.7113567"><ele>82.0</ele><time>2026-05-05T15:24:07.175Z</time></trkpt><trkpt lat="37.972135" lon="13.711145"><ele>82.0</ele><time>2026-05-05T15:24:08.175Z</time></trkpt><trkpt lat="37.9722767" lon="13.71093"><ele>84.5</ele><time>2026-05-05T15:24:09.175Z</time></trkpt><trkpt lat="37.972425" lon="13.7107133"><ele>87.0</ele><time>2026-05-05T15:24:10.175Z</time></trkpt><trkpt lat="37.972575" lon="13.7104967"><ele>86.0</ele><time>2026-05-05T15:24:11.175Z</time></trkpt><trkpt lat="37.9727233" lon="13.71027"><ele>85.0</ele><time>2026-05-05T15:24:12.176Z</time></trkpt><trkpt lat="37.9728633" lon="13.71004"><ele>85.0</ele><time>2026-05-05T15:24:13.175Z</time></trkpt><trkpt lat="37.973005" lon="13.709815"><ele>85.0</ele><time>2026-05-05T15:24:14.175Z</time></trkpt><trkpt lat="37.9731433" lon="13.709585"><ele>83.5</ele><time>2026-05-05T15:24:15.175Z</time></trkpt><trkpt lat="37.9732883" lon="13.709355"><ele>82.0</ele><time>2026-05-05T15:24:16.175Z</time></trkpt><trkpt lat="37.9734233" lon="13.7091117"><ele>82.0</ele><time>2026-05-05T15:24:17.175Z</time></trkpt><trkpt lat="37.9735417" lon="13.7088633"><ele>82.0</ele><time>2026-05-05T15:24:18.175Z</time></trkpt><trkpt lat="37.97367" lon="13.7086183"><ele>85.0</ele><time>2026-05-05T15:24:19.175Z</time></trkpt><trkpt lat="37.97379" lon="13.70837"><ele>88.0</ele><time>2026-05-05T15:24:20.175Z</time></trkpt><trkpt lat="37.9739033" lon="13.7081083"><ele>88.0</ele><time>2026-05-05T15:24:21.175Z</time></trkpt><trkpt lat="37.9740183" lon="13.7078533"><ele>88.0</ele><time>2026-05-05T15:24:22.175Z</time></trkpt><trkpt lat="37.97413" lon="13.7075933"><ele>79.5</ele><time>2026-05-05T15:24:23.175Z</time></trkpt><trkpt lat="37.9742367" lon="13.7073283"><ele>71.0</ele><time>2026-05-05T15:24:24.175Z</time></trkpt><trkpt lat="37.9743417" lon="13.7070633"><ele>76.0</ele><time>2026-05-05T15:24:25.175Z</time></trkpt><trkpt lat="37.9744383" lon="13.7067967"><ele>81.0</ele><time>2026-05-05T15:24:26.175Z</time></trkpt><trkpt lat="37.9745283" lon="13.7065267"><ele>81.0</ele><time>2026-05-05T15:24:27.175Z</time></trkpt><trkpt lat="37.974605" lon="13.7062517"><ele>81.0</ele><time>2026-05-05T15:24:28.175Z</time></trkpt><trkpt lat="37.9746883" lon="13.70598"><ele>83.0</ele><time>2026-05-05T15:24:29.175Z</time></trkpt><trkpt lat="37.974765" lon="13.705705"><ele>85.0</ele><time>2026-05-05T15:24:30.175Z</time></trkpt><trkpt lat="37.97484" lon="13.7054317"><ele>86.0</ele><time>2026-05-05T15:24:31.175Z</time></trkpt><trkpt lat="37.9749133" lon="13.7051483"><ele>87.0</ele><time>2026-05-05T15:24:32.175Z</time></trkpt><trkpt lat="37.974985" lon="13.7048767"><ele>85.0</ele><time>2026-05-05T15:24:33.175Z</time></trkpt><trkpt lat="37.9750517" lon="13.7045967"><ele>83.0</ele><time>2026-05-05T15:24:34.175Z</time></trkpt><trkpt lat="37.9751183" lon="13.70431"><ele>83.0</ele><time>2026-05-05T15:24:35.175Z</time></trkpt><trkpt lat="37.9751733" lon="13.7040217"><ele>83.0</ele><time>2026-05-05T15:24:36.175Z</time></trkpt><trkpt lat="37.9752217" lon="13.703735"><ele>81.5</ele><time>2026-05-05T15:24:37.175Z</time></trkpt><trkpt lat="37.9752633" lon="13.70345"><ele>80.0</ele><time>2026-05-05T15:24:38.175Z</time></trkpt><trkpt lat="37.9753133" lon="13.7031717"><ele>80.0</ele><time>2026-05-05T15:24:39.175Z</time></trkpt><trkpt lat="37.9753517" lon="13.7028817"><ele>80.0</ele><time>2026-05-05T15:24:40.175Z</time></trkpt><trkpt lat="37.9753867" lon="13.7025883"><ele>77.5</ele><time>2026-05-05T15:24:41.175Z</time></trkpt><trkpt lat="37.9754167" lon="13.702295"><ele>75.0</ele><time>2026-05-05T15:24:42.175Z</time></trkpt><trkpt lat="37.9754417" lon="13.702005"><ele>74.5</ele><time>2026-05-05T15:24:43.175Z</time></trkpt><trkpt lat="37.975465" lon="13.7016983"><ele>74.0</ele><time>2026-05-05T15:24:44.175Z</time></trkpt><trkpt lat="37.97548" lon="13.7014017"><ele>74.0</ele><time>2026-05-05T15:24:45.175Z</time></trkpt><trkpt lat="37.9754867" lon="13.7011117"><ele>74.0</ele><time>2026-05-05T15:24:46.175Z</time></trkpt><trkpt lat="37.9754917" lon="13.70082"><ele>76.5</ele><time>2026-05-05T15:24:47.175Z</time></trkpt><trkpt lat="37.9754883" lon="13.7005317"><ele>79.0</ele><time>2026-05-05T15:24:48.175Z</time></trkpt><trkpt lat="37.9754817" lon="13.7002333"><ele>82.5</ele><time>2026-05-05T15:24:49.175Z</time></trkpt><trkpt lat="37.9754783" lon="13.6999417"><ele>86.0</ele><time>2026-05-05T15:24:50.175Z</time></trkpt><trkpt lat="37.9754683" lon="13.6996433"><ele>84.0</ele><time>2026-05-05T15:24:51.175Z</time></trkpt><trkpt lat="37.9754567" lon="13.6993567"><ele>82.0</ele><time>2026-05-05T15:24:52.175Z</time></trkpt><trkpt lat="37.97543" lon="13.6990667"><ele>82.0</ele><time>2026-05-05T15:24:53.176Z</time></trkpt><trkpt lat="37.9754083" lon="13.6987667"><ele>82.0</ele><time>2026-05-05T15:24:54.175Z</time></trkpt><trkpt lat="37.9753717" lon="13.6984717"><ele>78.0</ele><time>2026-05-05T15:24:55.175Z</time></trkpt><trkpt lat="37.9753367" lon="13.6981733"><ele>74.0</ele><time>2026-05-05T15:24:56.175Z</time></trkpt><trkpt lat="37.97529" lon="13.6978917"><ele>72.5</ele><time>2026-05-05T15:24:57.175Z</time></trkpt><trkpt lat="37.9752517" lon="13.6976033"><ele>71.0</ele><time>2026-05-05T15:24:58.175Z</time></trkpt><trkpt lat="37.9752067" lon="13.6973067"><ele>71.0</ele><time>2026-05-05T15:24:59.175Z</time></trkpt><trkpt lat="37.9751567" lon="13.69702"><ele>71.0</ele><time>2026-05-05T15:25:00.175Z</time></trkpt><trkpt lat="37.975105" lon="13.6967383"><ele>71.5</ele><time>2026-05-05T15:25:01.175Z</time></trkpt><trkpt lat="37.9750483" lon="13.69646"><ele>72.0</ele><time>2026-05-05T15:25:02.176Z</time></trkpt><trkpt lat="37.9749867" lon="13.69618"><ele>78.0</ele><time>2026-05-05T15:25:03.175Z</time></trkpt><trkpt lat="37.9749183" lon="13.6959033"><ele>84.0</ele><time>2026-05-05T15:25:04.175Z</time></trkpt><trkpt lat="37.9748467" lon="13.6956233"><ele>84.0</ele><time>2026-05-05T15:25:05.175Z</time></trkpt><trkpt lat="37.9747717" lon="13.6953483"><ele>84.0</ele><time>2026-05-05T15:25:06.175Z</time></trkpt><trkpt lat="37.9746967" lon="13.695075"><ele>80.5</ele><time>2026-05-05T15:25:07.175Z</time></trkpt><trkpt lat="37.9746183" lon="13.6947933"><ele>77.0</ele><time>2026-05-05T15:25:08.175Z</time></trkpt><trkpt lat="37.9745467" lon="13.6945217"><ele>72.5</ele><time>2026-05-05T15:25:09.175Z</time></trkpt><trkpt lat="37.97447" lon="13.6942383"><ele>68.0</ele><time>2026-05-05T15:25:10.176Z</time></trkpt><trkpt lat="37.9743933" lon="13.6939617"><ele>68.0</ele><time>2026-05-05T15:25:11.175Z</time></trkpt><trkpt lat="37.97431" lon="13.69368"><ele>68.0</ele><time>2026-05-05T15:25:12.175Z</time></trkpt><trkpt lat="37.9742333" lon="13.6934017"><ele>68.0</ele><time>2026-05-05T15:25:13.176Z</time></trkpt><trkpt lat="37.9741617" lon="13.6931233"><ele>68.0</ele><time>2026-05-05T15:25:14.175Z</time></trkpt><trkpt lat="37.97409" lon="13.6928467"><ele>69.5</ele><time>2026-05-05T15:25:15.175Z</time></trkpt><trkpt lat="37.9740217" lon="13.6925733"><ele>71.0</ele><time>2026-05-05T15:25:16.176Z</time></trkpt><trkpt lat="37.9739533" lon="13.6922917"><ele>71.0</ele><time>2026-05-05T15:25:17.175Z</time></trkpt><trkpt lat="37.9738917" lon="13.6920067"><ele>71.0</ele><time>2026-05-05T15:25:18.175Z</time></trkpt><trkpt lat="37.9738367" lon="13.6917233"><ele>72.5</ele><time>2026-05-05T15:25:19.175Z</time></trkpt><trkpt lat="37.9737883" lon="13.6914367"><ele>74.0</ele><time>2026-05-05T15:25:20.175Z</time></trkpt><trkpt lat="37.9737367" lon="13.691155"><ele>72.5</ele><time>2026-05-05T15:25:21.175Z</time></trkpt><trkpt lat="37.9736983" lon="13.6908667"><ele>71.0</ele><time>2026-05-05T15:25:22.175Z</time></trkpt><trkpt lat="37.973655" lon="13.69058"><ele>71.0</ele><time>2026-05-05T15:25:23.175Z</time></trkpt><trkpt lat="37.9736267" lon="13.69029"><ele>71.0</ele><time>2026-05-05T15:25:24.175Z</time></trkpt><trkpt lat="37.973605" lon="13.6899983"><ele>71.0</ele><time>2026-05-05T15:25:25.175Z</time></trkpt><trkpt lat="37.9735867" lon="13.6896983"><ele>71.0</ele><time>2026-05-05T15:25:26.175Z</time></trkpt><trkpt lat="37.97357" lon="13.689405"><ele>71.0</ele><time>2026-05-05T15:25:27.175Z</time></trkpt><trkpt lat="37.9735633" lon="13.6891083"><ele>71.0</ele><time>2026-05-05T15:25:28.175Z</time></trkpt><trkpt lat="37.9735683" lon="13.6888233"><ele>69.0</ele><time>2026-05-05T15:25:29.175Z</time></trkpt><trkpt lat="37.973575" lon="13.68853"><ele>67.0</ele><time>2026-05-05T15:25:30.175Z</time></trkpt><trkpt lat="37.9735833" lon="13.6882417"><ele>67.0</ele><time>2026-05-05T15:25:31.175Z</time></trkpt><trkpt lat="37.9735983" lon="13.68795"><ele>67.0</ele><time>2026-05-05T15:25:32.175Z</time></trkpt><trkpt lat="37.9736367" lon="13.6876633"><ele>67.0</ele><time>2026-05-05T15:25:33.175Z</time></trkpt><trkpt lat="37.9736633" lon="13.6873717"><ele>67.0</ele><time>2026-05-05T15:25:34.175Z</time></trkpt><trkpt lat="37.973705" lon="13.687085"><ele>70.5</ele><time>2026-05-05T15:25:35.175Z</time></trkpt><trkpt lat="37.9737633" lon="13.6868067"><ele>74.0</ele><time>2026-05-05T15:25:36.175Z</time></trkpt><trkpt lat="37.9738317" lon="13.6865317"><ele>74.0</ele><time>2026-05-05T15:25:37.175Z</time></trkpt><trkpt lat="37.9739117" lon="13.6862567"><ele>74.0</ele><time>2026-05-05T15:25:38.175Z</time></trkpt><trkpt lat="37.974" lon="13.6859817"><ele>82.0</ele><time>2026-05-05T15:25:39.175Z</time></trkpt><trkpt lat="37.9740933" lon="13.685715"><ele>90.0</ele><time>2026-05-05T15:25:40.175Z</time></trkpt><trkpt lat="37.974175" lon="13.685455"><ele>94.0</ele><time>2026-05-05T15:25:41.175Z</time></trkpt><trkpt lat="37.9742583" lon="13.685175"><ele>98.0</ele><time>2026-05-05T15:25:42.175Z</time></trkpt><trkpt lat="37.9743467" lon="13.6848933"><ele>98.0</ele><time>2026-05-05T15:25:43.175Z</time></trkpt><trkpt lat="37.9744333" lon="13.6846067"><ele>98.0</ele><time>2026-05-05T15:25:44.175Z</time></trkpt><trkpt lat="37.97452" lon="13.6843183"><ele>99.0</ele><time>2026-05-05T15:25:45.175Z</time></trkpt><trkpt lat="37.9746067" lon="13.6840333"><ele>100.0</ele><time>2026-05-05T15:25:46.175Z</time></trkpt><trkpt lat="37.9746917" lon="13.6837467"><ele>83.0</ele><time>2026-05-05T15:25:47.175Z</time></trkpt><trkpt lat="37.975205" lon="13.6818017"><ele>83.0</ele><time>2026-05-05T15:25:54.176Z</time></trkpt><trkpt lat="37.9753417" lon="13.6815717"><ele>83.0</ele><time>2026-05-05T15:25:55.177Z</time></trkpt><trkpt lat="37.9754667" lon="13.6813467"><ele>83.0</ele><time>2026-05-05T15:25:56.176Z</time></trkpt><trkpt lat="37.97558" lon="13.6811"><ele>86.5</ele><time>2026-05-05T15:25:57.176Z</time></trkpt><trkpt lat="37.975695" lon="13.680855"><ele>90.0</ele><time>2026-05-05T15:25:58.176Z</time></trkpt><trkpt lat="37.9758183" lon="13.6806067"><ele>80.5</ele><time>2026-05-05T15:25:59.177Z</time></trkpt><trkpt lat="37.97594" lon="13.6803633"><ele>71.0</ele><time>2026-05-05T15:26:00.176Z</time></trkpt><trkpt lat="37.9760583" lon="13.6801083"><ele>71.0</ele><time>2026-05-05T15:26:01.177Z</time></trkpt><trkpt lat="37.9761767" lon="13.679855"><ele>71.0</ele><time>2026-05-05T15:26:02.176Z</time></trkpt><trkpt lat="37.9762933" lon="13.6796033"><ele>78.0</ele><time>2026-05-05T15:26:03.176Z</time></trkpt><trkpt lat="37.97641" lon="13.6793533"><ele>85.0</ele><time>2026-05-05T15:26:04.176Z</time></trkpt><trkpt lat="37.97652" lon="13.6790933"><ele>85.0</ele><time>2026-05-05T15:26:05.176Z</time></trkpt><trkpt lat="37.976635" lon="13.67884"><ele>85.0</ele><time>2026-05-05T15:26:06.177Z</time></trkpt><trkpt lat="37.9767517" lon="13.6785883"><ele>85.5</ele><time>2026-05-05T15:26:07.176Z</time></trkpt><trkpt lat="37.9768633" lon="13.6783367"><ele>86.0</ele><time>2026-05-05T15:26:08.176Z</time></trkpt><trkpt lat="37.9769783" lon="13.6780767"><ele>86.0</ele><time>2026-05-05T15:26:09.176Z</time></trkpt><trkpt lat="37.9770933" lon="13.6778217"><ele>86.0</ele><time>2026-05-05T15:26:10.176Z</time></trkpt><trkpt lat="37.9772083" lon="13.6775717"><ele>92.5</ele><time>2026-05-05T15:26:11.177Z</time></trkpt><trkpt lat="37.977325" lon="13.677315"><ele>99.0</ele><time>2026-05-05T15:26:12.176Z</time></trkpt><trkpt lat="37.97744" lon="13.67707"><ele>92.0</ele><time>2026-05-05T15:26:13.176Z</time></trkpt><trkpt lat="37.97756" lon="13.6768217"><ele>85.0</ele><time>2026-05-05T15:26:14.176Z</time></trkpt><trkpt lat="37.9776717" lon="13.676565"><ele>85.0</ele><time>2026-05-05T15:26:15.177Z</time></trkpt><trkpt lat="37.9777917" lon="13.6763083"><ele>85.0</ele><time>2026-05-05T15:26:16.177Z</time></trkpt><trkpt lat="37.9779067" lon="13.6760533"><ele>88.5</ele><time>2026-05-05T15:26:17.177Z</time></trkpt><trkpt lat="37.9780267" lon="13.6758017"><ele>92.0</ele><time>2026-05-05T15:26:18.176Z</time></trkpt><trkpt lat="37.9781433" lon="13.6755467"><ele>92.0</ele><time>2026-05-05T15:26:19.176Z</time></trkpt><trkpt lat="37.97826" lon="13.6752867"><ele>92.0</ele><time>2026-05-05T15:26:20.177Z</time></trkpt><trkpt lat="37.978375" lon="13.6750267"><ele>93.5</ele><time>2026-05-05T15:26:21.176Z</time></trkpt><trkpt lat="37.978495" lon="13.6747783"><ele>95.0</ele><time>2026-05-05T15:26:22.176Z</time></trkpt><trkpt lat="37.97861" lon="13.6745283"><ele>91.0</ele><time>2026-05-05T15:26:23.176Z</time></trkpt><trkpt lat="37.9787283" lon="13.6742717"><ele>87.0</ele><time>2026-05-05T15:26:24.176Z</time></trkpt><trkpt lat="37.97884" lon="13.674015"><ele>87.0</ele><time>2026-05-05T15:26:25.176Z</time></trkpt><trkpt lat="37.9789583" lon="13.67376"><ele>87.0</ele><time>2026-05-05T15:26:26.176Z</time></trkpt><trkpt lat="37.979075" lon="13.6735067"><ele>58.0</ele><time>2026-05-05T15:26:27.176Z</time></trkpt><trkpt lat="37.9791917" lon="13.673255"><ele>29.0</ele><time>2026-05-05T15:26:28.176Z</time></trkpt><trkpt lat="37.979305" lon="13.6730033"><ele>34.5</ele><time>2026-05-05T15:26:29.176Z</time></trkpt><trkpt lat="37.97942" lon="13.6727483"><ele>40.0</ele><time>2026-05-05T15:26:30.177Z</time></trkpt><trkpt lat="37.979535" lon="13.6724967"><ele>40.0</ele><time>2026-05-05T15:26:31.176Z</time></trkpt><trkpt lat="37.9796533" lon="13.67225"><ele>40.0</ele><time>2026-05-05T15:26:32.176Z</time></trkpt><trkpt lat="37.9797667" lon="13.6719983"><ele>60.0</ele><time>2026-05-05T15:26:33.177Z</time></trkpt><trkpt lat="37.9798867" lon="13.671745"><ele>80.0</ele><time>2026-05-05T15:26:34.176Z</time></trkpt><trkpt lat="37.980005" lon="13.6714917"><ele>79.0</ele><time>2026-05-05T15:26:35.176Z</time></trkpt><trkpt lat="37.9801133" lon="13.671235"><ele>78.0</ele><time>2026-05-05T15:26:36.176Z</time></trkpt><trkpt lat="37.9802283" lon="13.67098"><ele>78.0</ele><time>2026-05-05T15:26:37.176Z</time></trkpt><trkpt lat="37.980345" lon="13.67072"><ele>78.0</ele><time>2026-05-05T15:26:38.177Z</time></trkpt><trkpt lat="37.9804583" lon="13.67047"><ele>87.5</ele><time>2026-05-05T15:26:39.176Z</time></trkpt><trkpt lat="37.980575" lon="13.67022"><ele>97.0</ele><time>2026-05-05T15:26:40.176Z</time></trkpt><trkpt lat="37.9806967" lon="13.6699733"><ele>97.0</ele><time>2026-05-05T15:26:41.176Z</time></trkpt><trkpt lat="37.980815" lon="13.6697183"><ele>97.0</ele><time>2026-05-05T15:26:42.176Z</time></trkpt><trkpt lat="37.980935" lon="13.669465"><ele>104.5</ele><time>2026-05-05T15:26:43.176Z</time></trkpt><trkpt lat="37.9810483" lon="13.6692067"><ele>112.0</ele><time>2026-05-05T15:26:44.176Z</time></trkpt><trkpt lat="37.9811567" lon="13.66895"><ele>112.0</ele><time>2026-05-05T15:26:45.177Z</time></trkpt><trkpt lat="37.9812667" lon="13.6686933"><ele>112.0</ele><time>2026-05-05T15:26:46.176Z</time></trkpt><trkpt lat="37.981375" lon="13.6684367"><ele>118.5</ele><time>2026-05-05T15:26:47.176Z</time></trkpt><trkpt lat="37.9814817" lon="13.6681817"><ele>125.0</ele><time>2026-05-05T15:26:48.176Z</time></trkpt><trkpt lat="37.981595" lon="13.6679217"><ele>124.5</ele><time>2026-05-05T15:26:49.176Z</time></trkpt><trkpt lat="37.9816967" lon="13.6676517"><ele>124.0</ele><time>2026-05-05T15:26:50.176Z</time></trkpt><trkpt lat="37.9817867" lon="13.6673817"><ele>124.0</ele><time>2026-05-05T15:26:51.176Z</time></trkpt><trkpt lat="37.9818783" lon="13.667115"><ele>124.0</ele><time>2026-05-05T15:26:52.177Z</time></trkpt><trkpt lat="37.9819617" lon="13.6668433"><ele>124.0</ele><time>2026-05-05T15:26:53.177Z</time></trkpt><trkpt lat="37.98204" lon="13.666565"><ele>124.0</ele><time>2026-05-05T15:26:54.176Z</time></trkpt><trkpt lat="37.9821133" lon="13.6662867"><ele>125.0</ele><time>2026-05-05T15:26:55.176Z</time></trkpt><trkpt lat="37.9822" lon="13.6660133"><ele>126.0</ele><time>2026-05-05T15:26:56.177Z</time></trkpt><trkpt lat="37.9822633" lon="13.665725"><ele>126.0</ele><time>2026-05-05T15:26:57.176Z</time></trkpt><trkpt lat="37.9823267" lon="13.6654417"><ele>126.0</ele><time>2026-05-05T15:26:58.176Z</time></trkpt><trkpt lat="37.9823883" lon="13.6651583"><ele>128.0</ele><time>2026-05-05T15:26:59.177Z</time></trkpt><trkpt lat="37.98245" lon="13.6648817"><ele>130.0</ele><time>2026-05-05T15:27:00.176Z</time></trkpt><trkpt lat="37.982515" lon="13.6646017"><ele>126.5</ele><time>2026-05-05T15:27:01.176Z</time></trkpt><trkpt lat="37.9825783" lon="13.6643233"><ele>123.0</ele><time>2026-05-05T15:27:02.176Z</time></trkpt><trkpt lat="37.982645" lon="13.6640467"><ele>123.0</ele><time>2026-05-05T15:27:03.176Z</time></trkpt><trkpt lat="37.98271" lon="13.663765"><ele>123.0</ele><time>2026-05-05T15:27:04.177Z</time></trkpt><trkpt lat="37.9827783" lon="13.6634817"><ele>124.0</ele><time>2026-05-05T15:27:05.176Z</time></trkpt><trkpt lat="37.982835" lon="13.6632"><ele>125.0</ele><time>2026-05-05T15:27:06.177Z</time></trkpt><trkpt lat="37.9828917" lon="13.662915"><ele>127.0</ele><time>2026-05-05T15:27:07.176Z</time></trkpt><trkpt lat="37.9829517" lon="13.6626367"><ele>129.0</ele><time>2026-05-05T15:27:08.176Z</time></trkpt><trkpt lat="37.9830167" lon="13.66237"><ele>131.0</ele><time>2026-05-05T15:27:09.176Z</time></trkpt><trkpt lat="37.9830833" lon="13.6620933"><ele>133.33333333333331</ele><time>2026-05-05T15:27:10.176Z</time></trkpt><trkpt lat="37.9831567" lon="13.6618233"><ele>135.66666666666666</ele><time>2026-05-05T15:27:11.176Z</time></trkpt><trkpt lat="37.9832317" lon="13.6615567"><ele>138.0</ele><time>2026-05-05T15:27:12.176Z</time></trkpt><trkpt lat="37.9833183" lon="13.661295"><ele>131.5</ele><time>2026-05-05T15:27:13.176Z</time></trkpt><trkpt lat="37.9834133" lon="13.661035"><ele>125.0</ele><time>2026-05-05T15:27:14.176Z</time></trkpt><trkpt lat="37.9835067" lon="13.660775"><ele>125.0</ele><time>2026-05-05T15:27:15.176Z</time></trkpt><trkpt lat="37.9836183" lon="13.66052"><ele>125.0</ele><time>2026-05-05T15:27:16.176Z</time></trkpt><trkpt lat="37.9837333" lon="13.6602667"><ele>129.0</ele><time>2026-05-05T15:27:17.176Z</time></trkpt><trkpt lat="37.9838483" lon="13.660015"><ele>133.0</ele><time>2026-05-05T15:27:18.177Z</time></trkpt><trkpt lat="37.9839683" lon="13.6597617"><ele>133.0</ele><time>2026-05-05T15:27:19.176Z</time></trkpt><trkpt lat="37.9840983" lon="13.6595267"><ele>133.0</ele><time>2026-05-05T15:27:20.176Z</time></trkpt><trkpt lat="37.98423" lon="13.6593033"><ele>133.0</ele><time>2026-05-05T15:27:21.176Z</time></trkpt><trkpt lat="37.984365" lon="13.659075"><ele>130.0</ele><time>2026-05-05T15:27:22.176Z</time></trkpt><trkpt lat="37.984505" lon="13.6588467"><ele>127.0</ele><time>2026-05-05T15:27:23.177Z</time></trkpt><trkpt lat="37.9846483" lon="13.658625"><ele>128.0</ele><time>2026-05-05T15:27:24.176Z</time></trkpt><trkpt lat="37.984795" lon="13.6584117"><ele>129.0</ele><time>2026-05-05T15:27:25.176Z</time></trkpt><trkpt lat="37.984945" lon="13.658205"><ele>130.0</ele><time>2026-05-05T15:27:26.176Z</time></trkpt><trkpt lat="37.9851033" lon="13.6579983"><ele>125.0</ele><time>2026-05-05T15:27:27.176Z</time></trkpt><trkpt lat="37.9852683" lon="13.657795"><ele>120.0</ele><time>2026-05-05T15:27:28.176Z</time></trkpt><trkpt lat="37.9854367" lon="13.6576083"><ele>120.0</ele><time>2026-05-05T15:27:29.177Z</time></trkpt><trkpt lat="37.9856117" lon="13.6574217"><ele>120.0</ele><time>2026-05-05T15:27:30.176Z</time></trkpt><trkpt lat="37.985785" lon="13.6572383"><ele>117.5</ele><time>2026-05-05T15:27:31.176Z</time></trkpt><trkpt lat="37.9859633" lon="13.6570583"><ele>115.0</ele><time>2026-05-05T15:27:32.176Z</time></trkpt><trkpt lat="37.98614" lon="13.6568817"><ele>115.0</ele><time>2026-05-05T15:27:33.177Z</time></trkpt><trkpt lat="37.9863233" lon="13.6567167"><ele>115.0</ele><time>2026-05-05T15:27:34.176Z</time></trkpt><trkpt lat="37.9865083" lon="13.6565533"><ele>109.5</ele><time>2026-05-05T15:27:35.176Z</time></trkpt><trkpt lat="37.9867017" lon="13.6563967"><ele>104.0</ele><time>2026-05-05T15:27:36.176Z</time></trkpt><trkpt lat="37.986895" lon="13.6562467"><ele>113.5</ele><time>2026-05-05T15:27:37.177Z</time></trkpt><trkpt lat="37.9870917" lon="13.6561083"><ele>123.0</ele><time>2026-05-05T15:27:38.176Z</time></trkpt><trkpt lat="37.9872933" lon="13.6559767"><ele>123.0</ele><time>2026-05-05T15:27:39.176Z</time></trkpt><trkpt lat="37.9874967" lon="13.6558483"><ele>123.0</ele><time>2026-05-05T15:27:40.176Z</time></trkpt><trkpt lat="37.9877" lon="13.6557167"><ele>115.5</ele><time>2026-05-05T15:27:41.176Z</time></trkpt><trkpt lat="37.9879067" lon="13.655595"><ele>108.0</ele><time>2026-05-05T15:27:42.176Z</time></trkpt><trkpt lat="37.98812" lon="13.65549"><ele>108.0</ele><time>2026-05-05T15:27:43.176Z</time></trkpt><trkpt lat="37.98834" lon="13.65539"><ele>108.0</ele><time>2026-05-05T15:27:44.176Z</time></trkpt><trkpt lat="37.9885667" lon="13.6552933"><ele>114.0</ele><time>2026-05-05T15:27:45.177Z</time></trkpt><trkpt lat="37.988795" lon="13.6551967"><ele>120.0</ele><time>2026-05-05T15:27:46.176Z</time></trkpt><trkpt lat="37.9890233" lon="13.655105"><ele>115.0</ele><time>2026-05-05T15:27:47.176Z</time></trkpt><trkpt lat="37.98926" lon="13.655015"><ele>110.0</ele><time>2026-05-05T15:27:48.177Z</time></trkpt><trkpt lat="37.9894883" lon="13.6549083"><ele>110.0</ele><time>2026-05-05T15:27:49.176Z</time></trkpt><trkpt lat="37.9897167" lon="13.6548033"><ele>110.0</ele><time>2026-05-05T15:27:50.176Z</time></trkpt><trkpt lat="37.9899467" lon="13.6546933"><ele>105.0</ele><time>2026-05-05T15:27:51.176Z</time></trkpt><trkpt lat="37.9901733" lon="13.6545767"><ele>100.0</ele><time>2026-05-05T15:27:52.176Z</time></trkpt><trkpt lat="37.9903933" lon="13.65442"><ele>98.5</ele><time>2026-05-05T15:27:53.176Z</time></trkpt><trkpt lat="37.990615" lon="13.6542567"><ele>97.0</ele><time>2026-05-05T15:27:54.177Z</time></trkpt><trkpt lat="37.9908467" lon="13.6540933"><ele>97.0</ele><time>2026-05-05T15:27:55.176Z</time></trkpt><trkpt lat="37.99108" lon="13.6539267"><ele>97.0</ele><time>2026-05-05T15:27:56.176Z</time></trkpt><trkpt lat="37.9920133" lon="13.6531217"><ele>95.0</ele><time>2026-05-05T15:28:00.175Z</time></trkpt><trkpt lat="37.992235" lon="13.6528467"><ele>93.0</ele><time>2026-05-05T15:28:01.175Z</time></trkpt><trkpt lat="37.9924667" lon="13.6526183"><ele>100.5</ele><time>2026-05-05T15:28:02.175Z</time></trkpt><trkpt lat="37.9926967" lon="13.6523983"><ele>108.0</ele><time>2026-05-05T15:28:03.176Z</time></trkpt><trkpt lat="37.9929367" lon="13.6521917"><ele>108.0</ele><time>2026-05-05T15:28:04.175Z</time></trkpt><trkpt lat="37.993165" lon="13.651975"><ele>108.0</ele><time>2026-05-05T15:28:05.176Z</time></trkpt><trkpt lat="37.993395" lon="13.6517583"><ele>79.0</ele><time>2026-05-05T15:28:06.175Z</time></trkpt><trkpt lat="37.9946933" lon="13.6502933"><ele>81.0</ele><time>2026-05-05T15:28:12.175Z</time></trkpt><trkpt lat="37.9947233" lon="13.6499133"><ele>83.0</ele><time>2026-05-05T15:28:13.175Z</time></trkpt><trkpt lat="37.9948383" lon="13.64962"><ele>81.0</ele><time>2026-05-05T15:28:14.175Z</time></trkpt><trkpt lat="37.994995" lon="13.649345"><ele>79.0</ele><time>2026-05-05T15:28:15.175Z</time></trkpt><trkpt lat="37.9951533" lon="13.6490817"><ele>79.0</ele><time>2026-05-05T15:28:16.176Z</time></trkpt><trkpt lat="37.9953233" lon="13.6488183"><ele>79.0</ele><time>2026-05-05T15:28:17.176Z</time></trkpt><trkpt lat="37.9954883" lon="13.6485467"><ele>84.5</ele><time>2026-05-05T15:28:18.176Z</time></trkpt><trkpt lat="37.99566" lon="13.64828"><ele>90.0</ele><time>2026-05-05T15:28:19.175Z</time></trkpt><trkpt lat="37.9958383" lon="13.64801"><ele>100.0</ele><time>2026-05-05T15:28:20.175Z</time></trkpt><trkpt lat="37.99603" lon="13.6477533"><ele>110.0</ele><time>2026-05-05T15:28:21.175Z</time></trkpt><trkpt lat="37.9962117" lon="13.6475017"><ele>110.0</ele><time>2026-05-05T15:28:22.175Z</time></trkpt><trkpt lat="37.9963983" lon="13.6472367"><ele>110.0</ele><time>2026-05-05T15:28:23.175Z</time></trkpt><trkpt lat="37.9965867" lon="13.64697"><ele>98.0</ele><time>2026-05-05T15:28:24.175Z</time></trkpt><trkpt lat="37.996775" lon="13.646705"><ele>86.0</ele><time>2026-05-05T15:28:25.175Z</time></trkpt><trkpt lat="37.998005" lon="13.6450633"><ele>81.0</ele><time>2026-05-05T15:28:31.176Z</time></trkpt><trkpt lat="37.9980583" lon="13.6446617"><ele>76.0</ele><time>2026-05-05T15:28:32.176Z</time></trkpt><trkpt lat="37.998175" lon="13.6443117"><ele>76.0</ele><time>2026-05-05T15:28:33.177Z</time></trkpt><trkpt lat="37.9983217" lon="13.6439617"><ele>76.0</ele><time>2026-05-05T15:28:34.176Z</time></trkpt><trkpt lat="37.9984533" lon="13.6436217"><ele>62.5</ele><time>2026-05-05T15:28:35.176Z</time></trkpt><trkpt lat="37.99857" lon="13.643285"><ele>49.0</ele><time>2026-05-05T15:28:36.176Z</time></trkpt><trkpt lat="37.9986767" lon="13.64295"><ele>51.5</ele><time>2026-05-05T15:28:37.176Z</time></trkpt><trkpt lat="37.99876" lon="13.64261"><ele>54.0</ele><time>2026-05-05T15:28:38.176Z</time></trkpt><trkpt lat="37.9988283" lon="13.64226"><ele>55.5</ele><time>2026-05-05T15:28:39.176Z</time></trkpt><trkpt lat="37.9989" lon="13.641905"><ele>57.0</ele><time>2026-05-05T15:28:40.177Z</time></trkpt><trkpt lat="37.9989617" lon="13.6415633"><ele>57.0</ele><time>2026-05-05T15:28:41.176Z</time></trkpt><trkpt lat="37.9990083" lon="13.64122"><ele>57.0</ele><time>2026-05-05T15:28:42.176Z</time></trkpt><trkpt lat="37.9990517" lon="13.640875"><ele>60.5</ele><time>2026-05-05T15:28:43.176Z</time></trkpt><trkpt lat="37.9991033" lon="13.640535"><ele>64.0</ele><time>2026-05-05T15:28:44.177Z</time></trkpt><trkpt lat="37.9991467" lon="13.64018"><ele>53.0</ele><time>2026-05-05T15:28:45.176Z</time></trkpt><trkpt lat="37.9991967" lon="13.6398333"><ele>42.0</ele><time>2026-05-05T15:28:46.176Z</time></trkpt><trkpt lat="37.999255" lon="13.6394783"><ele>41.5</ele><time>2026-05-05T15:28:47.176Z</time></trkpt><trkpt lat="37.9993167" lon="13.63914"><ele>41.0</ele><time>2026-05-05T15:28:48.176Z</time></trkpt><trkpt lat="37.9994033" lon="13.63881"><ele>42.0</ele><time>2026-05-05T15:28:49.177Z</time></trkpt><trkpt lat="37.99949" lon="13.6384717"><ele>43.0</ele><time>2026-05-05T15:28:50.176Z</time></trkpt><trkpt lat="37.99958" lon="13.6381417"><ele>43.0</ele><time>2026-05-05T15:28:51.176Z</time></trkpt><trkpt lat="37.9996883" lon="13.6378167"><ele>43.0</ele><time>2026-05-05T15:28:52.176Z</time></trkpt><trkpt lat="37.9998" lon="13.6375017"><ele>44.5</ele><time>2026-05-05T15:28:53.176Z</time></trkpt><trkpt lat="37.999925" lon="13.6371833"><ele>46.0</ele><time>2026-05-05T15:28:54.176Z</time></trkpt><trkpt lat="38.0000583" lon="13.6368783"><ele>46.5</ele><time>2026-05-05T15:28:55.176Z</time></trkpt><trkpt lat="38.0001933" lon="13.6365667"><ele>47.0</ele><time>2026-05-05T15:28:56.177Z</time></trkpt><trkpt lat="38.0003433" lon="13.63627"><ele>47.5</ele><time>2026-05-05T15:28:57.176Z</time></trkpt><trkpt lat="38.0004917" lon="13.635975"><ele>48.0</ele><time>2026-05-05T15:28:58.176Z</time></trkpt><trkpt lat="38.0006517" lon="13.6356817"><ele>48.0</ele><time>2026-05-05T15:28:59.176Z</time></trkpt><trkpt lat="38.0008017" lon="13.6353867"><ele>48.0</ele><time>2026-05-05T15:29:00.177Z</time></trkpt><trkpt lat="38.0009617" lon="13.6351"><ele>46.0</ele><time>2026-05-05T15:29:01.177Z</time></trkpt><trkpt lat="38.0011283" lon="13.6348183"><ele>44.0</ele><time>2026-05-05T15:29:02.177Z</time></trkpt><trkpt lat="38.0012867" lon="13.6345283"><ele>41.5</ele><time>2026-05-05T15:29:03.176Z</time></trkpt><trkpt lat="38.0014417" lon="13.6342283"><ele>39.0</ele><time>2026-05-05T15:29:04.177Z</time></trkpt><trkpt lat="38.0015883" lon="13.6339417"><ele>37.5</ele><time>2026-05-05T15:29:05.176Z</time></trkpt><trkpt lat="38.0017333" lon="13.63364"><ele>36.0</ele><time>2026-05-05T15:29:06.176Z</time></trkpt><trkpt lat="38.00187" lon="13.6333333"><ele>36.0</ele><time>2026-05-05T15:29:07.176Z</time></trkpt><trkpt lat="38.002" lon="13.6330233"><ele>36.0</ele><time>2026-05-05T15:29:08.176Z</time></trkpt><trkpt lat="38.0021117" lon="13.632705"><ele>36.0</ele><time>2026-05-05T15:29:09.176Z</time></trkpt><trkpt lat="38.0022233" lon="13.632385"><ele>36.0</ele><time>2026-05-05T15:29:10.176Z</time></trkpt><trkpt lat="38.0023283" lon="13.6320567"><ele>38.0</ele><time>2026-05-05T15:29:11.176Z</time></trkpt><trkpt lat="38.0024367" lon="13.6317267"><ele>40.0</ele><time>2026-05-05T15:29:12.176Z</time></trkpt><trkpt lat="38.0025417" lon="13.6313967"><ele>43.0</ele><time>2026-05-05T15:29:13.176Z</time></trkpt><trkpt lat="38.00265" lon="13.631065"><ele>46.0</ele><time>2026-05-05T15:29:14.176Z</time></trkpt><trkpt lat="38.0027583" lon="13.63075"><ele>46.0</ele><time>2026-05-05T15:29:15.176Z</time></trkpt><trkpt lat="38.0028633" lon="13.63042"><ele>46.0</ele><time>2026-05-05T15:29:16.176Z</time></trkpt><trkpt lat="38.0029683" lon="13.63009"><ele>48.0</ele><time>2026-05-05T15:29:17.176Z</time></trkpt><trkpt lat="38.003075" lon="13.6297583"><ele>50.0</ele><time>2026-05-05T15:29:18.176Z</time></trkpt><trkpt lat="38.0031833" lon="13.6294383"><ele>51.0</ele><time>2026-05-05T15:29:19.176Z</time></trkpt><trkpt lat="38.0032917" lon="13.6291167"><ele>52.0</ele><time>2026-05-05T15:29:20.176Z</time></trkpt><trkpt lat="38.0034" lon="13.6287883"><ele>44.0</ele><time>2026-05-05T15:29:21.176Z</time></trkpt><trkpt lat="38.0035133" lon="13.62846"><ele>36.0</ele><time>2026-05-05T15:29:22.176Z</time></trkpt><trkpt lat="38.0036233" lon="13.6281333"><ele>36.0</ele><time>2026-05-05T15:29:23.176Z</time></trkpt><trkpt lat="38.00373" lon="13.627815"><ele>36.0</ele><time>2026-05-05T15:29:24.176Z</time></trkpt><trkpt lat="38.0038317" lon="13.62748"><ele>36.0</ele><time>2026-05-05T15:29:25.176Z</time></trkpt><trkpt lat="38.0039367" lon="13.6271583"><ele>36.0</ele><time>2026-05-05T15:29:26.176Z</time></trkpt><trkpt lat="38.004045" lon="13.626845"><ele>38.5</ele><time>2026-05-05T15:29:27.176Z</time></trkpt><trkpt lat="38.004155" lon="13.6265133"><ele>41.0</ele><time>2026-05-05T15:29:28.177Z</time></trkpt><trkpt lat="38.0042633" lon="13.6261883"><ele>37.5</ele><time>2026-05-05T15:29:29.176Z</time></trkpt><trkpt lat="38.0043683" lon="13.6258617"><ele>34.0</ele><time>2026-05-05T15:29:30.176Z</time></trkpt><trkpt lat="38.004475" lon="13.6255333"><ele>34.5</ele><time>2026-05-05T15:29:31.176Z</time></trkpt><trkpt lat="38.004585" lon="13.6252167"><ele>35.0</ele><time>2026-05-05T15:29:32.176Z</time></trkpt><trkpt lat="38.0046917" lon="13.6248917"><ele>35.0</ele><time>2026-05-05T15:29:33.177Z</time></trkpt><trkpt lat="38.0048033" lon="13.6245667"><ele>35.0</ele><time>2026-05-05T15:29:34.176Z</time></trkpt><trkpt lat="38.0049033" lon="13.6242367"><ele>30.5</ele><time>2026-05-05T15:29:35.176Z</time></trkpt><trkpt lat="38.0050083" lon="13.6239067"><ele>26.0</ele><time>2026-05-05T15:29:36.176Z</time></trkpt><trkpt lat="38.005115" lon="13.62358"><ele>26.0</ele><time>2026-05-05T15:29:37.176Z</time></trkpt><trkpt lat="38.0052333" lon="13.6232567"><ele>26.0</ele><time>2026-05-05T15:29:38.176Z</time></trkpt><trkpt lat="38.0053617" lon="13.6229467"><ele>28.5</ele><time>2026-05-05T15:29:39.176Z</time></trkpt><trkpt lat="38.0054933" lon="13.62263"><ele>31.0</ele><time>2026-05-05T15:29:40.176Z</time></trkpt><trkpt lat="38.0056333" lon="13.6223283"><ele>31.0</ele><time>2026-05-05T15:29:41.176Z</time></trkpt><trkpt lat="38.0057883" lon="13.6220367"><ele>31.0</ele><time>2026-05-05T15:29:42.176Z</time></trkpt><trkpt lat="38.005945" lon="13.6217533"><ele>31.0</ele><time>2026-05-05T15:29:43.176Z</time></trkpt><trkpt lat="38.006105" lon="13.6214667"><ele>31.0</ele><time>2026-05-05T15:29:44.176Z</time></trkpt><trkpt lat="38.006285" lon="13.6211933"><ele>33.5</ele><time>2026-05-05T15:29:45.176Z</time></trkpt><trkpt lat="38.0064567" lon="13.6209217"><ele>36.0</ele><time>2026-05-05T15:29:46.177Z</time></trkpt><trkpt lat="38.006635" lon="13.6206517"><ele>34.5</ele><time>2026-05-05T15:29:47.176Z</time></trkpt><trkpt lat="38.0068183" lon="13.6203767"><ele>33.0</ele><time>2026-05-05T15:29:48.176Z</time></trkpt><trkpt lat="38.0069933" lon="13.6201017"><ele>33.0</ele><time>2026-05-05T15:29:49.177Z</time></trkpt><trkpt lat="38.0071717" lon="13.61983"><ele>33.0</ele><time>2026-05-05T15:29:50.176Z</time></trkpt><trkpt lat="38.0073433" lon="13.61955"><ele>31.5</ele><time>2026-05-05T15:29:51.177Z</time></trkpt><trkpt lat="38.00752" lon="13.6192883"><ele>30.0</ele><time>2026-05-05T15:29:52.176Z</time></trkpt><trkpt lat="38.0076917" lon="13.6190217"><ele>30.0</ele><time>2026-05-05T15:29:53.176Z</time></trkpt><trkpt lat="38.0078667" lon="13.618745"><ele>30.0</ele><time>2026-05-05T15:29:54.177Z</time></trkpt><trkpt lat="38.00804" lon="13.618465"><ele>30.0</ele><time>2026-05-05T15:29:55.176Z</time></trkpt><trkpt lat="38.008215" lon="13.6181917"><ele>30.0</ele><time>2026-05-05T15:29:56.176Z</time></trkpt><trkpt lat="38.008385" lon="13.6179167"><ele>31.5</ele><time>2026-05-05T15:29:57.176Z</time></trkpt><trkpt lat="38.0085583" lon="13.61764"><ele>33.0</ele><time>2026-05-05T15:29:58.177Z</time></trkpt><trkpt lat="38.0087317" lon="13.6173683"><ele>33.0</ele><time>2026-05-05T15:29:59.176Z</time></trkpt><trkpt lat="38.0089083" lon="13.617095"><ele>33.0</ele><time>2026-05-05T15:30:00.177Z</time></trkpt><trkpt lat="38.0090833" lon="13.61682"><ele>37.0</ele><time>2026-05-05T15:30:01.176Z</time></trkpt><trkpt lat="38.0092567" lon="13.6165433"><ele>41.0</ele><time>2026-05-05T15:30:02.177Z</time></trkpt><trkpt lat="38.0094333" lon="13.61627"><ele>45.5</ele><time>2026-05-05T15:30:03.176Z</time></trkpt><trkpt lat="38.0096067" lon="13.6159933"><ele>50.0</ele><time>2026-05-05T15:30:04.176Z</time></trkpt><trkpt lat="38.0097767" lon="13.615715"><ele>50.0</ele><time>2026-05-05T15:30:05.176Z</time></trkpt><trkpt lat="38.0099467" lon="13.6154333"><ele>50.0</ele><time>2026-05-05T15:30:06.176Z</time></trkpt><trkpt lat="38.0101183" lon="13.6151533"><ele>50.5</ele><time>2026-05-05T15:30:07.176Z</time></trkpt><trkpt lat="38.0102917" lon="13.61488"><ele>51.0</ele><time>2026-05-05T15:30:08.176Z</time></trkpt><trkpt lat="38.01047" lon="13.614615"><ele>53.0</ele><time>2026-05-05T15:30:09.176Z</time></trkpt><trkpt lat="38.0106417" lon="13.614335"><ele>55.0</ele><time>2026-05-05T15:30:10.176Z</time></trkpt><trkpt lat="38.0108183" lon="13.6140617"><ele>53.0</ele><time>2026-05-05T15:30:11.176Z</time></trkpt><trkpt lat="38.0109883" lon="13.6137917"><ele>51.0</ele><time>2026-05-05T15:30:12.176Z</time></trkpt><trkpt lat="38.0111533" lon="13.61353"><ele>51.0</ele><time>2026-05-05T15:30:13.176Z</time></trkpt><trkpt lat="38.011315" lon="13.61328"><ele>51.0</ele><time>2026-05-05T15:30:14.176Z</time></trkpt><trkpt lat="38.0114767" lon="13.61303"><ele>53.5</ele><time>2026-05-05T15:30:15.176Z</time></trkpt><trkpt lat="38.011625" lon="13.6127783"><ele>56.0</ele><time>2026-05-05T15:30:16.176Z</time></trkpt><trkpt lat="38.0117867" lon="13.6125217"><ele>58.5</ele><time>2026-05-05T15:30:17.176Z</time></trkpt><trkpt lat="38.0119533" lon="13.61227"><ele>61.0</ele><time>2026-05-05T15:30:18.177Z</time></trkpt><trkpt lat="38.0121033" lon="13.61202"><ele>64.5</ele><time>2026-05-05T15:30:19.177Z</time></trkpt><trkpt lat="38.0122617" lon="13.6117733"><ele>68.0</ele><time>2026-05-05T15:30:20.176Z</time></trkpt><trkpt lat="38.012415" lon="13.6115217"><ele>67.0</ele><time>2026-05-05T15:30:21.176Z</time></trkpt><trkpt lat="38.0125717" lon="13.6112733"><ele>66.0</ele><time>2026-05-05T15:30:22.176Z</time></trkpt><trkpt lat="38.0127267" lon="13.611025"><ele>66.0</ele><time>2026-05-05T15:30:23.176Z</time></trkpt><trkpt lat="38.01288" lon="13.6107767"><ele>66.0</ele><time>2026-05-05T15:30:24.177Z</time></trkpt><trkpt lat="38.0130367" lon="13.61053"><ele>68.5</ele><time>2026-05-05T15:30:25.176Z</time></trkpt><trkpt lat="38.01319" lon="13.610275"><ele>71.0</ele><time>2026-05-05T15:30:26.176Z</time></trkpt><trkpt lat="38.0133433" lon="13.6100233"><ele>66.0</ele><time>2026-05-05T15:30:27.176Z</time></trkpt><trkpt lat="38.0134983" lon="13.6097733"><ele>61.0</ele><time>2026-05-05T15:30:28.177Z</time></trkpt><trkpt lat="38.013655" lon="13.6095233"><ele>62.5</ele><time>2026-05-05T15:30:29.176Z</time></trkpt><trkpt lat="38.0138133" lon="13.6092767"><ele>64.0</ele><time>2026-05-05T15:30:30.176Z</time></trkpt><trkpt lat="38.0139667" lon="13.6090317"><ele>64.0</ele><time>2026-05-05T15:30:31.177Z</time></trkpt><trkpt lat="38.0141183" lon="13.60879"><ele>64.0</ele><time>2026-05-05T15:30:32.176Z</time></trkpt><trkpt lat="38.0142867" lon="13.6085483"><ele>69.0</ele><time>2026-05-05T15:30:33.176Z</time></trkpt><trkpt lat="38.0144533" lon="13.6083033"><ele>74.0</ele><time>2026-05-05T15:30:34.176Z</time></trkpt><trkpt lat="38.014625" lon="13.6080617"><ele>74.0</ele><time>2026-05-05T15:30:35.177Z</time></trkpt><trkpt lat="38.014805" lon="13.6078283"><ele>74.0</ele><time>2026-05-05T15:30:36.176Z</time></trkpt><trkpt lat="38.0149833" lon="13.6075883"><ele>75.5</ele><time>2026-05-05T15:30:37.176Z</time></trkpt><trkpt lat="38.0151617" lon="13.60735"><ele>77.0</ele><time>2026-05-05T15:30:38.176Z</time></trkpt><trkpt lat="38.0153483" lon="13.60712"><ele>78.5</ele><time>2026-05-05T15:30:39.176Z</time></trkpt><trkpt lat="38.01553" lon="13.6068817"><ele>80.0</ele><time>2026-05-05T15:30:40.176Z</time></trkpt><trkpt lat="38.015715" lon="13.6066417"><ele>78.0</ele><time>2026-05-05T15:30:41.176Z</time></trkpt><trkpt lat="38.0159017" lon="13.60641"><ele>76.0</ele><time>2026-05-05T15:30:42.176Z</time></trkpt><trkpt lat="38.0160817" lon="13.60618"><ele>79.0</ele><time>2026-05-05T15:30:43.176Z</time></trkpt><trkpt lat="38.0162683" lon="13.60596"><ele>82.0</ele><time>2026-05-05T15:30:44.177Z</time></trkpt><trkpt lat="38.0164483" lon="13.6057267"><ele>82.0</ele><time>2026-05-05T15:30:45.176Z</time></trkpt><trkpt lat="38.016625" lon="13.6054983"><ele>82.0</ele><time>2026-05-05T15:30:46.177Z</time></trkpt><trkpt lat="38.0168" lon="13.6052717"><ele>80.5</ele><time>2026-05-05T15:30:47.176Z</time></trkpt><trkpt lat="38.01697" lon="13.60504"><ele>79.0</ele><time>2026-05-05T15:30:48.176Z</time></trkpt><trkpt lat="38.01714" lon="13.6048117"><ele>79.0</ele><time>2026-05-05T15:30:49.176Z</time></trkpt><trkpt lat="38.01732" lon="13.6045967"><ele>79.0</ele><time>2026-05-05T15:30:50.177Z</time></trkpt><trkpt lat="38.0174917" lon="13.6043633"><ele>79.5</ele><time>2026-05-05T15:30:51.176Z</time></trkpt><trkpt lat="38.0176633" lon="13.6041367"><ele>80.0</ele><time>2026-05-05T15:30:52.176Z</time></trkpt><trkpt lat="38.0178267" lon="13.6039067"><ele>80.0</ele><time>2026-05-05T15:30:53.176Z</time></trkpt><trkpt lat="38.0179967" lon="13.6036817"><ele>80.0</ele><time>2026-05-05T15:30:54.176Z</time></trkpt><trkpt lat="38.0181683" lon="13.6034567"><ele>82.0</ele><time>2026-05-05T15:30:55.176Z</time></trkpt><trkpt lat="38.0183317" lon="13.6032233"><ele>84.0</ele><time>2026-05-05T15:30:56.176Z</time></trkpt><trkpt lat="38.0184933" lon="13.602995"><ele>87.0</ele><time>2026-05-05T15:30:57.177Z</time></trkpt><trkpt lat="38.018655" lon="13.6027533"><ele>90.0</ele><time>2026-05-05T15:30:58.176Z</time></trkpt><trkpt lat="38.018805" lon="13.6025033"><ele>90.0</ele><time>2026-05-05T15:30:59.176Z</time></trkpt><trkpt lat="38.01895" lon="13.6022467"><ele>90.0</ele><time>2026-05-05T15:31:00.176Z</time></trkpt><trkpt lat="38.0190883" lon="13.6019783"><ele>94.0</ele><time>2026-05-05T15:31:01.176Z</time></trkpt><trkpt lat="38.0192283" lon="13.6017133"><ele>98.0</ele><time>2026-05-05T15:31:02.176Z</time></trkpt><trkpt lat="38.0193617" lon="13.60143"><ele>102.5</ele><time>2026-05-05T15:31:03.176Z</time></trkpt><trkpt lat="38.0194883" lon="13.6011517"><ele>107.0</ele><time>2026-05-05T15:31:04.176Z</time></trkpt><trkpt lat="38.0196067" lon="13.600865"><ele>107.0</ele><time>2026-05-05T15:31:05.176Z</time></trkpt><trkpt lat="38.0197117" lon="13.6005683"><ele>107.0</ele><time>2026-05-05T15:31:06.176Z</time></trkpt><trkpt lat="38.019815" lon="13.6002733"><ele>109.5</ele><time>2026-05-05T15:31:07.176Z</time></trkpt><trkpt lat="38.019915" lon="13.5999783"><ele>112.0</ele><time>2026-05-05T15:31:08.176Z</time></trkpt><trkpt lat="38.02001" lon="13.5996767"><ele>108.0</ele><time>2026-05-05T15:31:09.177Z</time></trkpt><trkpt lat="38.0200967" lon="13.59937"><ele>104.0</ele><time>2026-05-05T15:31:10.176Z</time></trkpt><trkpt lat="38.0201817" lon="13.59906"><ele>104.0</ele><time>2026-05-05T15:31:11.176Z</time></trkpt><trkpt lat="38.0202583" lon="13.598745"><ele>104.0</ele><time>2026-05-05T15:31:12.176Z</time></trkpt><trkpt lat="38.0203267" lon="13.5984233"><ele>105.0</ele><time>2026-05-05T15:31:13.176Z</time></trkpt><trkpt lat="38.0203883" lon="13.5981017"><ele>106.0</ele><time>2026-05-05T15:31:14.176Z</time></trkpt><trkpt lat="38.0204383" lon="13.5977783"><ele>106.0</ele><time>2026-05-05T15:31:15.176Z</time></trkpt><trkpt lat="38.02049" lon="13.5974533"><ele>106.0</ele><time>2026-05-05T15:31:16.176Z</time></trkpt><trkpt lat="38.02053" lon="13.5971267"><ele>103.5</ele><time>2026-05-05T15:31:17.176Z</time></trkpt><trkpt lat="38.02056" lon="13.5967967"><ele>101.0</ele><time>2026-05-05T15:31:18.176Z</time></trkpt><trkpt lat="38.02059" lon="13.5964717"><ele>98.5</ele><time>2026-05-05T15:31:19.176Z</time></trkpt><trkpt lat="38.0206183" lon="13.5961417"><ele>96.0</ele><time>2026-05-05T15:31:20.177Z</time></trkpt><trkpt lat="38.0206483" lon="13.5958133"><ele>96.0</ele><time>2026-05-05T15:31:21.176Z</time></trkpt><trkpt lat="38.020675" lon="13.595475"><ele>96.0</ele><time>2026-05-05T15:31:22.176Z</time></trkpt><trkpt lat="38.0207133" lon="13.595145"><ele>104.0</ele><time>2026-05-05T15:31:23.176Z</time></trkpt><trkpt lat="38.0207533" lon="13.5948117"><ele>112.0</ele><time>2026-05-05T15:31:24.176Z</time></trkpt><trkpt lat="38.0207833" lon="13.59448"><ele>114.0</ele><time>2026-05-05T15:31:25.176Z</time></trkpt><trkpt lat="38.0208217" lon="13.594135"><ele>116.0</ele><time>2026-05-05T15:31:26.176Z</time></trkpt><trkpt lat="38.020865" lon="13.5938"><ele>115.5</ele><time>2026-05-05T15:31:27.177Z</time></trkpt><trkpt lat="38.0209033" lon="13.5934567"><ele>115.0</ele><time>2026-05-05T15:31:28.176Z</time></trkpt><trkpt lat="38.02096" lon="13.59313"><ele>114.5</ele><time>2026-05-05T15:31:29.176Z</time></trkpt><trkpt lat="38.0210183" lon="13.5927967"><ele>114.0</ele><time>2026-05-05T15:31:30.176Z</time></trkpt><trkpt lat="38.0210817" lon="13.59246"><ele>114.0</ele><time>2026-05-05T15:31:31.176Z</time></trkpt><trkpt lat="38.0211567" lon="13.5921317"><ele>114.0</ele><time>2026-05-05T15:31:32.177Z</time></trkpt><trkpt lat="38.0212383" lon="13.59181"><ele>113.0</ele><time>2026-05-05T15:31:33.176Z</time></trkpt><trkpt lat="38.0213267" lon="13.5914933"><ele>112.0</ele><time>2026-05-05T15:31:34.176Z</time></trkpt><trkpt lat="38.0214233" lon="13.5911817"><ele>112.0</ele><time>2026-05-05T15:31:35.176Z</time></trkpt><trkpt lat="38.0215267" lon="13.590865"><ele>112.0</ele><time>2026-05-05T15:31:36.176Z</time></trkpt><trkpt lat="38.02164" lon="13.5905583"><ele>105.0</ele><time>2026-05-05T15:31:37.176Z</time></trkpt><trkpt lat="38.0217633" lon="13.590265"><ele>98.0</ele><time>2026-05-05T15:31:38.176Z</time></trkpt><trkpt lat="38.0218933" lon="13.589975"><ele>98.0</ele><time>2026-05-05T15:31:39.176Z</time></trkpt><trkpt lat="38.022035" lon="13.5896867"><ele>98.0</ele><time>2026-05-05T15:31:40.176Z</time></trkpt><trkpt lat="38.0221817" lon="13.5893983"><ele>95.0</ele><time>2026-05-05T15:31:41.176Z</time></trkpt><trkpt lat="38.02233" lon="13.5891183"><ele>92.0</ele><time>2026-05-05T15:31:42.177Z</time></trkpt><trkpt lat="38.02248" lon="13.5888383"><ele>93.5</ele><time>2026-05-05T15:31:43.176Z</time></trkpt><trkpt lat="38.022625" lon="13.5885583"><ele>95.0</ele><time>2026-05-05T15:31:44.176Z</time></trkpt><trkpt lat="38.0227717" lon="13.5882767"><ele>95.0</ele><time>2026-05-05T15:31:45.176Z</time></trkpt><trkpt lat="38.022915" lon="13.587995"><ele>95.0</ele><time>2026-05-05T15:31:46.176Z</time></trkpt><trkpt lat="38.02306" lon="13.5877167"><ele>96.0</ele><time>2026-05-05T15:31:47.176Z</time></trkpt><trkpt lat="38.0232083" lon="13.587435"><ele>97.0</ele><time>2026-05-05T15:31:48.176Z</time></trkpt><trkpt lat="38.0233567" lon="13.58715"><ele>99.0</ele><time>2026-05-05T15:31:49.176Z</time></trkpt><trkpt lat="38.0235083" lon="13.5868583"><ele>101.0</ele><time>2026-05-05T15:31:50.176Z</time></trkpt><trkpt lat="38.0236583" lon="13.586555"><ele>101.0</ele><time>2026-05-05T15:31:51.176Z</time></trkpt><trkpt lat="38.02381" lon="13.5862483"><ele>101.0</ele><time>2026-05-05T15:31:52.176Z</time></trkpt><trkpt lat="38.023965" lon="13.5859383"><ele>103.0</ele><time>2026-05-05T15:31:53.176Z</time></trkpt><trkpt lat="38.0241267" lon="13.5856317"><ele>105.0</ele><time>2026-05-05T15:31:54.176Z</time></trkpt><trkpt lat="38.0242933" lon="13.585325"><ele>106.5</ele><time>2026-05-05T15:31:55.176Z</time></trkpt><trkpt lat="38.02446" lon="13.58502"><ele>108.0</ele><time>2026-05-05T15:31:56.176Z</time></trkpt><trkpt lat="38.0246183" lon="13.5847167"><ele>109.0</ele><time>2026-05-05T15:31:57.176Z</time></trkpt><trkpt lat="38.0247783" lon="13.5844183"><ele>110.0</ele><time>2026-05-05T15:31:58.176Z</time></trkpt><trkpt lat="38.0249367" lon="13.584115"><ele>107.5</ele><time>2026-05-05T15:31:59.176Z</time></trkpt><trkpt lat="38.0251017" lon="13.5838083"><ele>105.0</ele><time>2026-05-05T15:32:00.176Z</time></trkpt><trkpt lat="38.0252567" lon="13.5835133"><ele>104.5</ele><time>2026-05-05T15:32:01.176Z</time></trkpt><trkpt lat="38.0254067" lon="13.583225"><ele>104.0</ele><time>2026-05-05T15:32:02.176Z</time></trkpt><trkpt lat="38.025565" lon="13.5829283"><ele>104.5</ele><time>2026-05-05T15:32:03.177Z</time></trkpt><trkpt lat="38.0257183" lon="13.5826217"><ele>105.0</ele><time>2026-05-05T15:32:04.176Z</time></trkpt><trkpt lat="38.0258717" lon="13.5823183"><ele>102.0</ele><time>2026-05-05T15:32:05.176Z</time></trkpt><trkpt lat="38.0260317" lon="13.5820167"><ele>99.0</ele><time>2026-05-05T15:32:06.176Z</time></trkpt><trkpt lat="38.0261867" lon="13.58171"><ele>98.5</ele><time>2026-05-05T15:32:07.176Z</time></trkpt><trkpt lat="38.0263483" lon="13.5814117"><ele>98.0</ele><time>2026-05-05T15:32:08.176Z</time></trkpt><trkpt lat="38.0265067" lon="13.5811117"><ele>95.5</ele><time>2026-05-05T15:32:09.176Z</time></trkpt><trkpt lat="38.026665" lon="13.58081"><ele>93.0</ele><time>2026-05-05T15:32:10.176Z</time></trkpt><trkpt lat="38.0268233" lon="13.5805067"><ele>92.5</ele><time>2026-05-05T15:32:11.176Z</time></trkpt><trkpt lat="38.026985" lon="13.5802033"><ele>92.0</ele><time>2026-05-05T15:32:12.176Z</time></trkpt><trkpt lat="38.027145" lon="13.5799017"><ele>92.0</ele><time>2026-05-05T15:32:13.177Z</time></trkpt><trkpt lat="38.027305" lon="13.5795933"><ele>92.0</ele><time>2026-05-05T15:32:14.176Z</time></trkpt><trkpt lat="38.027465" lon="13.5792883"><ele>89.5</ele><time>2026-05-05T15:32:15.177Z</time></trkpt><trkpt lat="38.027625" lon="13.578975"><ele>87.0</ele><time>2026-05-05T15:32:16.176Z</time></trkpt><trkpt lat="38.0277967" lon="13.5786633"><ele>87.0</ele><time>2026-05-05T15:32:17.176Z</time></trkpt><trkpt lat="38.0279667" lon="13.57835"><ele>87.0</ele><time>2026-05-05T15:32:18.176Z</time></trkpt><trkpt lat="38.0281333" lon="13.578035"><ele>88.0</ele><time>2026-05-05T15:32:19.176Z</time></trkpt><trkpt lat="38.028305" lon="13.5777117"><ele>89.0</ele><time>2026-05-05T15:32:20.176Z</time></trkpt><trkpt lat="38.0284767" lon="13.5773933"><ele>86.5</ele><time>2026-05-05T15:32:21.176Z</time></trkpt><trkpt lat="38.0286417" lon="13.5770683"><ele>84.0</ele><time>2026-05-05T15:32:22.176Z</time></trkpt><trkpt lat="38.02881" lon="13.5767517"><ele>84.0</ele><time>2026-05-05T15:32:23.176Z</time></trkpt><trkpt lat="38.028975" lon="13.576425"><ele>84.0</ele><time>2026-05-05T15:32:24.176Z</time></trkpt><trkpt lat="38.02914" lon="13.5761067"><ele>82.0</ele><time>2026-05-05T15:32:25.176Z</time></trkpt><trkpt lat="38.02931" lon="13.575795"><ele>80.0</ele><time>2026-05-05T15:32:26.176Z</time></trkpt><trkpt lat="38.02948" lon="13.5754817"><ele>81.5</ele><time>2026-05-05T15:32:27.176Z</time></trkpt><trkpt lat="38.029645" lon="13.5751667"><ele>83.0</ele><time>2026-05-05T15:32:28.176Z</time></trkpt><trkpt lat="38.0298133" lon="13.5748583"><ele>83.0</ele><time>2026-05-05T15:32:29.177Z</time></trkpt><trkpt lat="38.0299733" lon="13.5745417"><ele>83.0</ele><time>2026-05-05T15:32:30.176Z</time></trkpt><trkpt lat="38.03014" lon="13.5742317"><ele>81.0</ele><time>2026-05-05T15:32:31.176Z</time></trkpt><trkpt lat="38.0303033" lon="13.5739183"><ele>79.0</ele><time>2026-05-05T15:32:32.176Z</time></trkpt><trkpt lat="38.030465" lon="13.5736067"><ele>78.5</ele><time>2026-05-05T15:32:33.177Z</time></trkpt><trkpt lat="38.0306333" lon="13.5732917"><ele>78.0</ele><time>2026-05-05T15:32:34.176Z</time></trkpt><trkpt lat="38.0307983" lon="13.5729717"><ele>75.5</ele><time>2026-05-05T15:32:35.176Z</time></trkpt><trkpt lat="38.0309667" lon="13.5726517"><ele>73.0</ele><time>2026-05-05T15:32:36.176Z</time></trkpt><trkpt lat="38.03114" lon="13.5723383"><ele>75.0</ele><time>2026-05-05T15:32:37.176Z</time></trkpt><trkpt lat="38.0313083" lon="13.572015"><ele>77.0</ele><time>2026-05-05T15:32:38.176Z</time></trkpt><trkpt lat="38.03148" lon="13.5716967"><ele>77.5</ele><time>2026-05-05T15:32:39.176Z</time></trkpt><trkpt lat="38.0316567" lon="13.5713733"><ele>78.0</ele><time>2026-05-05T15:32:40.176Z</time></trkpt><trkpt lat="38.0318233" lon="13.571055"><ele>78.0</ele><time>2026-05-05T15:32:41.176Z</time></trkpt><trkpt lat="38.0319867" lon="13.5707383"><ele>78.0</ele><time>2026-05-05T15:32:42.176Z</time></trkpt><trkpt lat="38.0321517" lon="13.57042"><ele>78.0</ele><time>2026-05-05T15:32:43.176Z</time></trkpt><trkpt lat="38.0323183" lon="13.5701033"><ele>78.0</ele><time>2026-05-05T15:32:44.177Z</time></trkpt><trkpt lat="38.0324883" lon="13.569795"><ele>77.0</ele><time>2026-05-05T15:32:45.176Z</time></trkpt><trkpt lat="38.032655" lon="13.569485"><ele>76.0</ele><time>2026-05-05T15:32:46.176Z</time></trkpt><trkpt lat="38.032825" lon="13.5691817"><ele>76.0</ele><time>2026-05-05T15:32:47.176Z</time></trkpt><trkpt lat="38.0329867" lon="13.5688817"><ele>76.0</ele><time>2026-05-05T15:32:48.176Z</time></trkpt><trkpt lat="38.0331483" lon="13.56857"><ele>74.0</ele><time>2026-05-05T15:32:49.176Z</time></trkpt><trkpt lat="38.03331" lon="13.5682683"><ele>72.0</ele><time>2026-05-05T15:32:50.176Z</time></trkpt><trkpt lat="38.0334733" lon="13.5679683"><ele>73.0</ele><time>2026-05-05T15:32:51.177Z</time></trkpt><trkpt lat="38.0336267" lon="13.5676633"><ele>74.0</ele><time>2026-05-05T15:32:52.176Z</time></trkpt><trkpt lat="38.033785" lon="13.5673633"><ele>74.0</ele><time>2026-05-05T15:32:53.176Z</time></trkpt><trkpt lat="38.0339367" lon="13.567065"><ele>74.0</ele><time>2026-05-05T15:32:54.176Z</time></trkpt><trkpt lat="38.034095" lon="13.566775"><ele>73.5</ele><time>2026-05-05T15:32:55.177Z</time></trkpt><trkpt lat="38.0342617" lon="13.5664883"><ele>73.0</ele><time>2026-05-05T15:32:56.176Z</time></trkpt><trkpt lat="38.0344283" lon="13.5661983"><ele>73.0</ele><time>2026-05-05T15:32:57.176Z</time></trkpt><trkpt lat="38.0346117" lon="13.56591"><ele>73.0</ele><time>2026-05-05T15:32:58.176Z</time></trkpt><trkpt lat="38.034805" lon="13.5656367"><ele>72.5</ele><time>2026-05-05T15:32:59.176Z</time></trkpt><trkpt lat="38.035005" lon="13.56537"><ele>72.0</ele><time>2026-05-05T15:33:00.176Z</time></trkpt><trkpt lat="38.03522" lon="13.5651133"><ele>72.0</ele><time>2026-05-05T15:33:01.177Z</time></trkpt><trkpt lat="38.035435" lon="13.5648567"><ele>72.0</ele><time>2026-05-05T15:33:02.177Z</time></trkpt><trkpt lat="38.0356583" lon="13.5646167"><ele>70.0</ele><time>2026-05-05T15:33:03.176Z</time></trkpt><trkpt lat="38.0358883" lon="13.5643833"><ele>68.0</ele><time>2026-05-05T15:33:04.176Z</time></trkpt><trkpt lat="38.0361317" lon="13.564165"><ele>68.0</ele><time>2026-05-05T15:33:05.176Z</time></trkpt><trkpt lat="38.0363783" lon="13.563955"><ele>68.0</ele><time>2026-05-05T15:33:06.176Z</time></trkpt><trkpt lat="38.0366267" lon="13.5637583"><ele>63.5</ele><time>2026-05-05T15:33:07.176Z</time></trkpt><trkpt lat="38.03688" lon="13.5635733"><ele>59.0</ele><time>2026-05-05T15:33:08.176Z</time></trkpt><trkpt lat="38.0371367" lon="13.5633917"><ele>59.0</ele><time>2026-05-05T15:33:09.176Z</time></trkpt><trkpt lat="38.0373917" lon="13.563215"><ele>59.0</ele><time>2026-05-05T15:33:10.176Z</time></trkpt><trkpt lat="38.037645" lon="13.5630283"><ele>44.5</ele><time>2026-05-05T15:33:11.176Z</time></trkpt><trkpt lat="38.0379" lon="13.5628367"><ele>30.0</ele><time>2026-05-05T15:33:12.176Z</time></trkpt><trkpt lat="38.0381517" lon="13.5626483"><ele>29.0</ele><time>2026-05-05T15:33:13.176Z</time></trkpt><trkpt lat="38.0384017" lon="13.5624533"><ele>28.0</ele><time>2026-05-05T15:33:14.176Z</time></trkpt><trkpt lat="38.0386333" lon="13.56225"><ele>28.0</ele><time>2026-05-05T15:33:15.176Z</time></trkpt><trkpt lat="38.0388667" lon="13.5620383"><ele>28.0</ele><time>2026-05-05T15:33:16.176Z</time></trkpt><trkpt lat="38.0390983" lon="13.5618267"><ele>39.5</ele><time>2026-05-05T15:33:17.176Z</time></trkpt><trkpt lat="38.0393167" lon="13.5616033"><ele>51.0</ele><time>2026-05-05T15:33:18.176Z</time></trkpt><trkpt lat="38.0395317" lon="13.5613767"><ele>50.5</ele><time>2026-05-05T15:33:19.176Z</time></trkpt><trkpt lat="38.039755" lon="13.5611517"><ele>50.0</ele><time>2026-05-05T15:33:20.176Z</time></trkpt><trkpt lat="38.0399667" lon="13.5609067"><ele>50.0</ele><time>2026-05-05T15:33:21.176Z</time></trkpt><trkpt lat="38.04018" lon="13.5606633"><ele>50.0</ele><time>2026-05-05T15:33:22.176Z</time></trkpt><trkpt lat="38.0403917" lon="13.5604117"><ele>52.5</ele><time>2026-05-05T15:33:23.176Z</time></trkpt><trkpt lat="38.0405933" lon="13.560155"><ele>55.0</ele><time>2026-05-05T15:33:24.177Z</time></trkpt><trkpt lat="38.0407933" lon="13.559885"><ele>47.0</ele><time>2026-05-05T15:33:25.176Z</time></trkpt><trkpt lat="38.0409983" lon="13.5596067"><ele>39.0</ele><time>2026-05-05T15:33:26.177Z</time></trkpt><trkpt lat="38.0412" lon="13.5593283"><ele>39.0</ele><time>2026-05-05T15:33:27.176Z</time></trkpt><trkpt lat="38.041395" lon="13.5590367"><ele>39.0</ele><time>2026-05-05T15:33:28.176Z</time></trkpt><trkpt lat="38.0415917" lon="13.5587367"><ele>43.0</ele><time>2026-05-05T15:33:29.176Z</time></trkpt><trkpt lat="38.0417883" lon="13.558435"><ele>47.0</ele><time>2026-05-05T15:33:30.176Z</time></trkpt><trkpt lat="38.04197" lon="13.5581167"><ele>51.5</ele><time>2026-05-05T15:33:31.176Z</time></trkpt><trkpt lat="38.04216" lon="13.5578117"><ele>56.0</ele><time>2026-05-05T15:33:32.177Z</time></trkpt><trkpt lat="38.0423533" lon="13.55752"><ele>44.0</ele><time>2026-05-05T15:33:33.176Z</time></trkpt><trkpt lat="38.04254" lon="13.5572183"><ele>32.0</ele><time>2026-05-05T15:33:34.176Z</time></trkpt><trkpt lat="38.042725" lon="13.5569317"><ele>32.0</ele><time>2026-05-05T15:33:35.177Z</time></trkpt><trkpt lat="38.0429067" lon="13.5566467"><ele>32.0</ele><time>2026-05-05T15:33:36.176Z</time></trkpt><trkpt lat="38.043095" lon="13.5563767"><ele>30.0</ele><time>2026-05-05T15:33:37.176Z</time></trkpt><trkpt lat="38.0432883" lon="13.5561217"><ele>28.0</ele><time>2026-05-05T15:33:38.177Z</time></trkpt><trkpt lat="38.0434867" lon="13.555875"><ele>28.0</ele><time>2026-05-05T15:33:39.176Z</time></trkpt><trkpt lat="38.0436867" lon="13.5556333"><ele>28.0</ele><time>2026-05-05T15:33:40.176Z</time></trkpt><trkpt lat="38.0438867" lon="13.5553933"><ele>26.5</ele><time>2026-05-05T15:33:41.177Z</time></trkpt><trkpt lat="38.0440867" lon="13.5551483"><ele>25.0</ele><time>2026-05-05T15:33:42.176Z</time></trkpt><trkpt lat="38.0442883" lon="13.5549133"><ele>25.0</ele><time>2026-05-05T15:33:43.176Z</time></trkpt><trkpt lat="38.04449" lon="13.5546733"><ele>25.0</ele><time>2026-05-05T15:33:44.176Z</time></trkpt><trkpt lat="38.0446917" lon="13.5544267"><ele>27.5</ele><time>2026-05-05T15:33:45.176Z</time></trkpt><trkpt lat="38.0448933" lon="13.55418"><ele>30.0</ele><time>2026-05-05T15:33:46.177Z</time></trkpt><trkpt lat="38.045095" lon="13.55393"><ele>27.0</ele><time>2026-05-05T15:33:47.176Z</time></trkpt><trkpt lat="38.0453" lon="13.553675"><ele>24.0</ele><time>2026-05-05T15:33:48.176Z</time></trkpt><trkpt lat="38.0455017" lon="13.5534167"><ele>24.0</ele><time>2026-05-05T15:33:49.176Z</time></trkpt><trkpt lat="38.0457117" lon="13.5531667"><ele>24.0</ele><time>2026-05-05T15:33:50.176Z</time></trkpt><trkpt lat="38.04592" lon="13.5529167"><ele>23.5</ele><time>2026-05-05T15:33:51.177Z</time></trkpt><trkpt lat="38.046125" lon="13.55267"><ele>23.0</ele><time>2026-05-05T15:33:52.176Z</time></trkpt><trkpt lat="38.046325" lon="13.5524267"><ele>23.0</ele><time>2026-05-05T15:33:53.176Z</time></trkpt><trkpt lat="38.046525" lon="13.5521767"><ele>23.0</ele><time>2026-05-05T15:33:54.176Z</time></trkpt><trkpt lat="38.0467283" lon="13.5519333"><ele>22.0</ele><time>2026-05-05T15:33:55.176Z</time></trkpt><trkpt lat="38.0469283" lon="13.55169"><ele>21.0</ele><time>2026-05-05T15:33:56.176Z</time></trkpt><trkpt lat="38.0471217" lon="13.551455"><ele>21.0</ele><time>2026-05-05T15:33:57.176Z</time></trkpt><trkpt lat="38.0473133" lon="13.5512233"><ele>21.0</ele><time>2026-05-05T15:33:58.176Z</time></trkpt><trkpt lat="38.0475" lon="13.55099"><ele>20.0</ele><time>2026-05-05T15:33:59.176Z</time></trkpt><trkpt lat="38.0476867" lon="13.5507583"><ele>19.0</ele><time>2026-05-05T15:34:00.176Z</time></trkpt><trkpt lat="38.0478833" lon="13.5505283"><ele>31.0</ele><time>2026-05-05T15:34:01.177Z</time></trkpt><trkpt lat="38.0480633" lon="13.5502917"><ele>43.0</ele><time>2026-05-05T15:34:02.176Z</time></trkpt><trkpt lat="38.0482533" lon="13.5500567"><ele>31.5</ele><time>2026-05-05T15:34:03.176Z</time></trkpt><trkpt lat="38.04843" lon="13.5498133"><ele>20.0</ele><time>2026-05-05T15:34:04.176Z</time></trkpt><trkpt lat="38.0486017" lon="13.5495667"><ele>21.5</ele><time>2026-05-05T15:34:05.176Z</time></trkpt><trkpt lat="38.0487683" lon="13.549315"><ele>23.0</ele><time>2026-05-05T15:34:06.176Z</time></trkpt><trkpt lat="38.0489233" lon="13.5490583"><ele>23.0</ele><time>2026-05-05T15:34:07.176Z</time></trkpt><trkpt lat="38.0490783" lon="13.5488017"><ele>23.0</ele><time>2026-05-05T15:34:08.176Z</time></trkpt><trkpt lat="38.0492433" lon="13.5485533"><ele>18.0</ele><time>2026-05-05T15:34:09.176Z</time></trkpt><trkpt lat="38.0494033" lon="13.5482967"><ele>13.0</ele><time>2026-05-05T15:34:10.177Z</time></trkpt><trkpt lat="38.0495783" lon="13.54805"><ele>11.5</ele><time>2026-05-05T15:34:11.176Z</time></trkpt><trkpt lat="38.04975" lon="13.5477917"><ele>10.0</ele><time>2026-05-05T15:34:12.176Z</time></trkpt><trkpt lat="38.0499217" lon="13.5475333"><ele>12.0</ele><time>2026-05-05T15:34:13.176Z</time></trkpt><trkpt lat="38.0500917" lon="13.5472733"><ele>14.0</ele><time>2026-05-05T15:34:14.176Z</time></trkpt><trkpt lat="38.0502633" lon="13.5470117"><ele>15.0</ele><time>2026-05-05T15:34:15.176Z</time></trkpt><trkpt lat="38.0504467" lon="13.5467583"><ele>16.0</ele><time>2026-05-05T15:34:16.176Z</time></trkpt><trkpt lat="38.050615" lon="13.5465033"><ele>16.0</ele><time>2026-05-05T15:34:17.176Z</time></trkpt><trkpt lat="38.0507833" lon="13.5462383"><ele>16.0</ele><time>2026-05-05T15:34:18.176Z</time></trkpt><trkpt lat="38.0509567" lon="13.5459833"><ele>29.0</ele><time>2026-05-05T15:34:19.176Z</time></trkpt><trkpt lat="38.0511283" lon="13.5457267"><ele>42.0</ele><time>2026-05-05T15:34:20.176Z</time></trkpt><trkpt lat="38.0513" lon="13.5454683"><ele>38.5</ele><time>2026-05-05T15:34:21.176Z</time></trkpt><trkpt lat="38.05148" lon="13.54521"><ele>35.0</ele><time>2026-05-05T15:34:22.176Z</time></trkpt><trkpt lat="38.05165" lon="13.544945"><ele>35.0</ele><time>2026-05-05T15:34:23.176Z</time></trkpt><trkpt lat="38.05182" lon="13.54468"><ele>35.0</ele><time>2026-05-05T15:34:24.176Z</time></trkpt><trkpt lat="38.0520033" lon="13.544425"><ele>42.0</ele><time>2026-05-05T15:34:25.176Z</time></trkpt><trkpt lat="38.05218" lon="13.5441567"><ele>49.0</ele><time>2026-05-05T15:34:26.176Z</time></trkpt><trkpt lat="38.0523567" lon="13.5438833"><ele>40.0</ele><time>2026-05-05T15:34:27.177Z</time></trkpt><trkpt lat="38.0525283" lon="13.5436117"><ele>31.0</ele><time>2026-05-05T15:34:28.176Z</time></trkpt><trkpt lat="38.05271" lon="13.54334"><ele>31.0</ele><time>2026-05-05T15:34:29.176Z</time></trkpt><trkpt lat="38.0528817" lon="13.5430683"><ele>31.0</ele><time>2026-05-05T15:34:30.176Z</time></trkpt><trkpt lat="38.053055" lon="13.5427933"><ele>31.5</ele><time>2026-05-05T15:34:31.176Z</time></trkpt><trkpt lat="38.0532383" lon="13.5425217"><ele>32.0</ele><time>2026-05-05T15:34:32.176Z</time></trkpt><trkpt lat="38.0534183" lon="13.5422533"><ele>42.5</ele><time>2026-05-05T15:34:33.176Z</time></trkpt><trkpt lat="38.0536017" lon="13.5419817"><ele>53.0</ele><time>2026-05-05T15:34:34.176Z</time></trkpt><trkpt lat="38.05379" lon="13.5417183"><ele>53.0</ele><time>2026-05-05T15:34:35.176Z</time></trkpt><trkpt lat="38.0539617" lon="13.5414433"><ele>53.0</ele><time>2026-05-05T15:34:36.176Z</time></trkpt><trkpt lat="38.0541333" lon="13.541175"><ele>44.5</ele><time>2026-05-05T15:34:37.176Z</time></trkpt><trkpt lat="38.0543017" lon="13.54091"><ele>36.0</ele><time>2026-05-05T15:34:38.176Z</time></trkpt><trkpt lat="38.05448" lon="13.54066"><ele>36.0</ele><time>2026-05-05T15:34:39.177Z</time></trkpt><trkpt lat="38.0546483" lon="13.5403967"><ele>36.0</ele><time>2026-05-05T15:34:40.177Z</time></trkpt><trkpt lat="38.0548133" lon="13.5401533"><ele>43.0</ele><time>2026-05-05T15:34:41.176Z</time></trkpt><trkpt lat="38.054975" lon="13.539915"><ele>50.0</ele><time>2026-05-05T15:34:42.176Z</time></trkpt><trkpt lat="38.0551267" lon="13.5396817"><ele>50.333333333333336</ele><time>2026-05-05T15:34:43.176Z</time></trkpt><trkpt lat="38.0552717" lon="13.5394717"><ele>50.66666666666667</ele><time>2026-05-05T15:34:44.176Z</time></trkpt><trkpt lat="38.055405" lon="13.5392683"><ele>51.0</ele><time>2026-05-05T15:34:45.176Z</time></trkpt><trkpt lat="38.05553" lon="13.5390767"><ele>51.0</ele><time>2026-05-05T15:34:46.176Z</time></trkpt><trkpt lat="38.05565" lon="13.5388917"><ele>51.0</ele><time>2026-05-05T15:34:47.176Z</time></trkpt><trkpt lat="38.055765" lon="13.5387033"><ele>51.0</ele><time>2026-05-05T15:34:48.176Z</time></trkpt><trkpt lat="38.0558883" lon="13.5385083"><ele>54.66666666666667</ele><time>2026-05-05T15:34:49.176Z</time></trkpt><trkpt lat="38.0560183" lon="13.53829"><ele>58.333333333333336</ele><time>2026-05-05T15:34:50.177Z</time></trkpt><trkpt lat="38.0561533" lon="13.5380683"><ele>62.0</ele><time>2026-05-05T15:34:51.176Z</time></trkpt><trkpt lat="38.0562933" lon="13.5378533"><ele>62.0</ele><time>2026-05-05T15:34:52.176Z</time></trkpt><trkpt lat="38.0564417" lon="13.5376567"><ele>62.0</ele><time>2026-05-05T15:34:53.176Z</time></trkpt><trkpt lat="38.056575" lon="13.5374467"><ele>62.0</ele><time>2026-05-05T15:34:54.176Z</time></trkpt><trkpt lat="38.0567017" lon="13.5372267"><ele>64.5</ele><time>2026-05-05T15:34:55.176Z</time></trkpt><trkpt lat="38.05683" lon="13.5369983"><ele>67.0</ele><time>2026-05-05T15:34:56.177Z</time></trkpt><trkpt lat="38.0569617" lon="13.5367567"><ele>67.0</ele><time>2026-05-05T15:34:57.176Z</time></trkpt><trkpt lat="38.0570883" lon="13.5365"><ele>67.0</ele><time>2026-05-05T15:34:58.176Z</time></trkpt><trkpt lat="38.0572167" lon="13.536245"><ele>67.5</ele><time>2026-05-05T15:34:59.176Z</time></trkpt><trkpt lat="38.0573333" lon="13.5359767"><ele>68.0</ele><time>2026-05-05T15:35:00.176Z</time></trkpt><trkpt lat="38.0574483" lon="13.5357033"><ele>68.5</ele><time>2026-05-05T15:35:01.176Z</time></trkpt><trkpt lat="38.0575617" lon="13.5354333"><ele>69.0</ele><time>2026-05-05T15:35:02.176Z</time></trkpt><trkpt lat="38.0576633" lon="13.5351567"><ele>69.0</ele><time>2026-05-05T15:35:03.176Z</time></trkpt><trkpt lat="38.057765" lon="13.5348767"><ele>69.0</ele><time>2026-05-05T15:35:04.176Z</time></trkpt><trkpt lat="38.0578717" lon="13.5345917"><ele>69.0</ele><time>2026-05-05T15:35:05.176Z</time></trkpt><trkpt lat="38.057975" lon="13.5343033"><ele>69.0</ele><time>2026-05-05T15:35:06.176Z</time></trkpt><trkpt lat="38.058075" lon="13.5340167"><ele>68.0</ele><time>2026-05-05T15:35:07.176Z</time></trkpt><trkpt lat="38.0581783" lon="13.53372"><ele>67.0</ele><time>2026-05-05T15:35:08.176Z</time></trkpt><trkpt lat="38.05829" lon="13.533425"><ele>65.5</ele><time>2026-05-05T15:35:09.176Z</time></trkpt><trkpt lat="38.0583983" lon="13.5331367"><ele>64.0</ele><time>2026-05-05T15:35:10.176Z</time></trkpt><trkpt lat="38.0585167" lon="13.5328467"><ele>64.0</ele><time>2026-05-05T15:35:11.176Z</time></trkpt><trkpt lat="38.0586317" lon="13.5325467"><ele>64.0</ele><time>2026-05-05T15:35:12.176Z</time></trkpt><trkpt lat="38.0587367" lon="13.5322517"><ele>62.0</ele><time>2026-05-05T15:35:13.176Z</time></trkpt><trkpt lat="38.0588483" lon="13.5319417"><ele>60.0</ele><time>2026-05-05T15:35:14.176Z</time></trkpt><trkpt lat="38.0589567" lon="13.53164"><ele>60.0</ele><time>2026-05-05T15:35:15.176Z</time></trkpt><trkpt lat="38.0590783" lon="13.5313483"><ele>60.0</ele><time>2026-05-05T15:35:16.176Z</time></trkpt><trkpt lat="38.0591883" lon="13.5310317"><ele>50.5</ele><time>2026-05-05T15:35:17.176Z</time></trkpt><trkpt lat="38.0592983" lon="13.5307167"><ele>41.0</ele><time>2026-05-05T15:35:18.176Z</time></trkpt><trkpt lat="38.0594067" lon="13.5304067"><ele>40.0</ele><time>2026-05-05T15:35:19.176Z</time></trkpt><trkpt lat="38.0595217" lon="13.5300867"><ele>39.0</ele><time>2026-05-05T15:35:20.176Z</time></trkpt><trkpt lat="38.0596267" lon="13.5297733"><ele>42.5</ele><time>2026-05-05T15:35:21.176Z</time></trkpt><trkpt lat="38.05974" lon="13.5294467"><ele>46.0</ele><time>2026-05-05T15:35:22.176Z</time></trkpt><trkpt lat="38.059855" lon="13.5291233"><ele>53.0</ele><time>2026-05-05T15:35:23.176Z</time></trkpt><trkpt lat="38.05997" lon="13.5288"><ele>60.0</ele><time>2026-05-05T15:35:24.176Z</time></trkpt><trkpt lat="38.0600783" lon="13.528485"><ele>62.5</ele><time>2026-05-05T15:35:25.176Z</time></trkpt><trkpt lat="38.0601917" lon="13.5281717"><ele>65.0</ele><time>2026-05-05T15:35:26.176Z</time></trkpt><trkpt lat="38.0603" lon="13.52786"><ele>65.0</ele><time>2026-05-05T15:35:27.176Z</time></trkpt><trkpt lat="38.060395" lon="13.52753"><ele>65.0</ele><time>2026-05-05T15:35:28.176Z</time></trkpt><trkpt lat="38.0604817" lon="13.527185"><ele>66.0</ele><time>2026-05-05T15:35:29.176Z</time></trkpt><trkpt lat="38.0605533" lon="13.5268333"><ele>67.0</ele><time>2026-05-05T15:35:30.176Z</time></trkpt><trkpt lat="38.060605" lon="13.526475"><ele>68.0</ele><time>2026-05-05T15:35:31.176Z</time></trkpt><trkpt lat="38.0606433" lon="13.526115"><ele>69.0</ele><time>2026-05-05T15:35:32.176Z</time></trkpt><trkpt lat="38.060665" lon="13.5257583"><ele>69.0</ele><time>2026-05-05T15:35:33.176Z</time></trkpt><trkpt lat="38.0606767" lon="13.5254067"><ele>69.0</ele><time>2026-05-05T15:35:34.177Z</time></trkpt><trkpt lat="38.0606683" lon="13.5250433"><ele>70.0</ele><time>2026-05-05T15:35:35.176Z</time></trkpt><trkpt lat="38.0606483" lon="13.5246783"><ele>71.0</ele><time>2026-05-05T15:35:36.176Z</time></trkpt><trkpt lat="38.06061" lon="13.524315"><ele>71.0</ele><time>2026-05-05T15:35:37.176Z</time></trkpt><trkpt lat="38.060575" lon="13.5239617"><ele>71.0</ele><time>2026-05-05T15:35:38.176Z</time></trkpt><trkpt lat="38.0605317" lon="13.523605"><ele>73.5</ele><time>2026-05-05T15:35:39.176Z</time></trkpt><trkpt lat="38.0604883" lon="13.5232467"><ele>76.0</ele><time>2026-05-05T15:35:40.176Z</time></trkpt><trkpt lat="38.0604317" lon="13.522885"><ele>78.0</ele><time>2026-05-05T15:35:41.176Z</time></trkpt><trkpt lat="38.06038" lon="13.5225267"><ele>80.0</ele><time>2026-05-05T15:35:42.176Z</time></trkpt><trkpt lat="38.060335" lon="13.5221683"><ele>81.0</ele><time>2026-05-05T15:35:43.177Z</time></trkpt><trkpt lat="38.0602917" lon="13.5218183"><ele>82.0</ele><time>2026-05-05T15:35:44.176Z</time></trkpt><trkpt lat="38.060255" lon="13.5214717"><ele>85.0</ele><time>2026-05-05T15:35:45.176Z</time></trkpt><trkpt lat="38.0602233" lon="13.5211383"><ele>88.0</ele><time>2026-05-05T15:35:46.176Z</time></trkpt><trkpt lat="38.0601983" lon="13.5208033"><ele>88.0</ele><time>2026-05-05T15:35:47.176Z</time></trkpt><trkpt lat="38.0601883" lon="13.5204717"><ele>88.0</ele><time>2026-05-05T15:35:48.176Z</time></trkpt><trkpt lat="38.06018" lon="13.520125"><ele>88.0</ele><time>2026-05-05T15:35:49.176Z</time></trkpt><trkpt lat="38.060195" lon="13.519785"><ele>88.0</ele><time>2026-05-05T15:35:50.177Z</time></trkpt><trkpt lat="38.060225" lon="13.5194483"><ele>86.0</ele><time>2026-05-05T15:35:51.176Z</time></trkpt><trkpt lat="38.0602667" lon="13.5191233"><ele>84.0</ele><time>2026-05-05T15:35:52.176Z</time></trkpt><trkpt lat="38.0603133" lon="13.5188183"><ele>81.0</ele><time>2026-05-05T15:35:53.176Z</time></trkpt><trkpt lat="38.0603783" lon="13.5185217"><ele>78.0</ele><time>2026-05-05T15:35:54.176Z</time></trkpt><trkpt lat="38.0604467" lon="13.518225"><ele>78.0</ele><time>2026-05-05T15:35:55.176Z</time></trkpt><trkpt lat="38.06052" lon="13.5179367"><ele>78.0</ele><time>2026-05-05T15:35:56.176Z</time></trkpt><trkpt lat="38.0605983" lon="13.517645"><ele>76.0</ele><time>2026-05-05T15:35:57.176Z</time></trkpt><trkpt lat="38.0606917" lon="13.51736"><ele>74.0</ele><time>2026-05-05T15:35:58.176Z</time></trkpt><trkpt lat="38.0607917" lon="13.5170817"><ele>78.5</ele><time>2026-05-05T15:35:59.177Z</time></trkpt><trkpt lat="38.0609" lon="13.5168117"><ele>83.0</ele><time>2026-05-05T15:36:00.176Z</time></trkpt><trkpt lat="38.0610217" lon="13.5165417"><ele>83.0</ele><time>2026-05-05T15:36:01.176Z</time></trkpt><trkpt lat="38.0611517" lon="13.5162817"><ele>83.0</ele><time>2026-05-05T15:36:02.177Z</time></trkpt><trkpt lat="38.0612917" lon="13.5160333"><ele>88.0</ele><time>2026-05-05T15:36:03.176Z</time></trkpt><trkpt lat="38.0614417" lon="13.5157783"><ele>93.0</ele><time>2026-05-05T15:36:04.176Z</time></trkpt><trkpt lat="38.0616067" lon="13.51553"><ele>99.5</ele><time>2026-05-05T15:36:05.176Z</time></trkpt><trkpt lat="38.0617817" lon="13.5152833"><ele>106.0</ele><time>2026-05-05T15:36:06.176Z</time></trkpt><trkpt lat="38.061965" lon="13.51505"><ele>106.0</ele><time>2026-05-05T15:36:07.176Z</time></trkpt><trkpt lat="38.0621517" lon="13.5148117"><ele>106.0</ele><time>2026-05-05T15:36:08.176Z</time></trkpt><trkpt lat="38.06235" lon="13.514595"><ele>101.0</ele><time>2026-05-05T15:36:09.176Z</time></trkpt><trkpt lat="38.0625483" lon="13.5143767"><ele>96.0</ele><time>2026-05-05T15:36:10.176Z</time></trkpt><trkpt lat="38.0627333" lon="13.5141433"><ele>96.0</ele><time>2026-05-05T15:36:11.176Z</time></trkpt><trkpt lat="38.062925" lon="13.5139117"><ele>96.0</ele><time>2026-05-05T15:36:12.176Z</time></trkpt><trkpt lat="38.06312" lon="13.5136783"><ele>98.5</ele><time>2026-05-05T15:36:13.176Z</time></trkpt><trkpt lat="38.0633267" lon="13.5134433"><ele>101.0</ele><time>2026-05-05T15:36:14.176Z</time></trkpt><trkpt lat="38.0635367" lon="13.513215"><ele>101.0</ele><time>2026-05-05T15:36:15.177Z</time></trkpt><trkpt lat="38.0637467" lon="13.5129767"><ele>101.0</ele><time>2026-05-05T15:36:16.176Z</time></trkpt><trkpt lat="38.0639517" lon="13.5127283"><ele>105.0</ele><time>2026-05-05T15:36:17.176Z</time></trkpt><trkpt lat="38.06416" lon="13.5124817"><ele>109.0</ele><time>2026-05-05T15:36:18.176Z</time></trkpt><trkpt lat="38.06437" lon="13.5122333"><ele>112.0</ele><time>2026-05-05T15:36:19.176Z</time></trkpt><trkpt lat="38.0645717" lon="13.5119833"><ele>115.0</ele><time>2026-05-05T15:36:20.176Z</time></trkpt><trkpt lat="38.064775" lon="13.5117283"><ele>114.5</ele><time>2026-05-05T15:36:21.176Z</time></trkpt><trkpt lat="38.0649733" lon="13.511465"><ele>114.0</ele><time>2026-05-05T15:36:22.176Z</time></trkpt><trkpt lat="38.0651817" lon="13.511215"><ele>116.0</ele><time>2026-05-05T15:36:23.176Z</time></trkpt><trkpt lat="38.06539" lon="13.5109667"><ele>118.0</ele><time>2026-05-05T15:36:24.176Z</time></trkpt><trkpt lat="38.0656033" lon="13.510715"><ele>118.0</ele><time>2026-05-05T15:36:25.176Z</time></trkpt><trkpt lat="38.0658133" lon="13.51046"><ele>118.0</ele><time>2026-05-05T15:36:26.177Z</time></trkpt><trkpt lat="38.0660167" lon="13.5102017"><ele>118.0</ele><time>2026-05-05T15:36:27.176Z</time></trkpt><trkpt lat="38.066235" lon="13.5099567"><ele>118.0</ele><time>2026-05-05T15:36:28.177Z</time></trkpt><trkpt lat="38.066445" lon="13.509705"><ele>117.5</ele><time>2026-05-05T15:36:29.176Z</time></trkpt><trkpt lat="38.0666617" lon="13.509465"><ele>117.0</ele><time>2026-05-05T15:36:30.176Z</time></trkpt><trkpt lat="38.0668717" lon="13.509215"><ele>117.0</ele><time>2026-05-05T15:36:31.176Z</time></trkpt><trkpt lat="38.0670817" lon="13.5089633"><ele>117.0</ele><time>2026-05-05T15:36:32.176Z</time></trkpt><trkpt lat="38.0672817" lon="13.5087217"><ele>116.0</ele><time>2026-05-05T15:36:33.176Z</time></trkpt><trkpt lat="38.067495" lon="13.5084717"><ele>115.0</ele><time>2026-05-05T15:36:34.176Z</time></trkpt><trkpt lat="38.0676983" lon="13.5082183"><ele>115.0</ele><time>2026-05-05T15:36:35.176Z</time></trkpt><trkpt lat="38.067905" lon="13.5079617"><ele>115.0</ele><time>2026-05-05T15:36:36.176Z</time></trkpt><trkpt lat="38.068115" lon="13.50771"><ele>115.0</ele><time>2026-05-05T15:36:37.176Z</time></trkpt><trkpt lat="38.0683183" lon="13.5074567"><ele>115.0</ele><time>2026-05-05T15:36:38.176Z</time></trkpt><trkpt lat="38.068525" lon="13.5072067"><ele>116.0</ele><time>2026-05-05T15:36:39.176Z</time></trkpt><trkpt lat="38.0687317" lon="13.50695"><ele>117.0</ele><time>2026-05-05T15:36:40.176Z</time></trkpt><trkpt lat="38.068945" lon="13.5066983"><ele>116.0</ele><time>2026-05-05T15:36:41.176Z</time></trkpt><trkpt lat="38.0691483" lon="13.50644"><ele>115.0</ele><time>2026-05-05T15:36:42.176Z</time></trkpt><trkpt lat="38.06936" lon="13.5061883"><ele>115.0</ele><time>2026-05-05T15:36:43.176Z</time></trkpt><trkpt lat="38.0695733" lon="13.5059417"><ele>115.0</ele><time>2026-05-05T15:36:44.176Z</time></trkpt><trkpt lat="38.0697783" lon="13.5056867"><ele>113.5</ele><time>2026-05-05T15:36:45.176Z</time></trkpt><trkpt lat="38.06999" lon="13.5054367"><ele>112.0</ele><time>2026-05-05T15:36:46.176Z</time></trkpt><trkpt lat="38.0702033" lon="13.5051817"><ele>110.5</ele><time>2026-05-05T15:36:47.176Z</time></trkpt><trkpt lat="38.0704117" lon="13.50493"><ele>109.0</ele><time>2026-05-05T15:36:48.176Z</time></trkpt><trkpt lat="38.0706233" lon="13.5046867"><ele>106.5</ele><time>2026-05-05T15:36:49.176Z</time></trkpt><trkpt lat="38.0708333" lon="13.5044317"><ele>104.0</ele><time>2026-05-05T15:36:50.176Z</time></trkpt><trkpt lat="38.0710467" lon="13.5041883"><ele>104.0</ele><time>2026-05-05T15:36:51.176Z</time></trkpt><trkpt lat="38.0712567" lon="13.50393"><ele>104.0</ele><time>2026-05-05T15:36:52.176Z</time></trkpt><trkpt lat="38.0714733" lon="13.5036833"><ele>103.5</ele><time>2026-05-05T15:36:53.176Z</time></trkpt><trkpt lat="38.071685" lon="13.5034317"><ele>103.0</ele><time>2026-05-05T15:36:54.176Z</time></trkpt><trkpt lat="38.07189" lon="13.5031767"><ele>103.0</ele><time>2026-05-05T15:36:55.176Z</time></trkpt><trkpt lat="38.07209" lon="13.5029267"><ele>103.0</ele><time>2026-05-05T15:36:56.176Z</time></trkpt><trkpt lat="38.072285" lon="13.502675"><ele>102.5</ele><time>2026-05-05T15:36:57.177Z</time></trkpt><trkpt lat="38.07248" lon="13.5024233"><ele>102.0</ele><time>2026-05-05T15:36:58.176Z</time></trkpt><trkpt lat="38.072665" lon="13.5021633"><ele>102.5</ele><time>2026-05-05T15:36:59.176Z</time></trkpt><trkpt lat="38.0728383" lon="13.50188"><ele>103.0</ele><time>2026-05-05T15:37:00.176Z</time></trkpt><trkpt lat="38.073" lon="13.5015883"><ele>103.0</ele><time>2026-05-05T15:37:01.177Z</time></trkpt><trkpt lat="38.0731667" lon="13.5012967"><ele>103.0</ele><time>2026-05-05T15:37:02.176Z</time></trkpt><trkpt lat="38.0733333" lon="13.5010033"><ele>100.0</ele><time>2026-05-05T15:37:03.176Z</time></trkpt><trkpt lat="38.0735017" lon="13.5007167"><ele>97.0</ele><time>2026-05-05T15:37:04.176Z</time></trkpt><trkpt lat="38.073665" lon="13.500425"><ele>97.5</ele><time>2026-05-05T15:37:05.176Z</time></trkpt><trkpt lat="38.0738317" lon="13.5001333"><ele>98.0</ele><time>2026-05-05T15:37:06.176Z</time></trkpt><trkpt lat="38.0739933" lon="13.49984"><ele>95.0</ele><time>2026-05-05T15:37:07.176Z</time></trkpt><trkpt lat="38.0741583" lon="13.499555"><ele>92.0</ele><time>2026-05-05T15:37:08.177Z</time></trkpt><trkpt lat="38.0743267" lon="13.499275"><ele>92.0</ele><time>2026-05-05T15:37:09.176Z</time></trkpt><trkpt lat="38.074495" lon="13.4989883"><ele>92.0</ele><time>2026-05-05T15:37:10.176Z</time></trkpt><trkpt lat="38.0746667" lon="13.4987083"><ele>91.5</ele><time>2026-05-05T15:37:11.176Z</time></trkpt><trkpt lat="38.0748317" lon="13.4984217"><ele>91.0</ele><time>2026-05-05T15:37:12.176Z</time></trkpt><trkpt lat="38.0749967" lon="13.4981367"><ele>89.5</ele><time>2026-05-05T15:37:13.176Z</time></trkpt><trkpt lat="38.0751617" lon="13.4978533"><ele>88.0</ele><time>2026-05-05T15:37:14.176Z</time></trkpt><trkpt lat="38.0753267" lon="13.49758"><ele>88.0</ele><time>2026-05-05T15:37:15.176Z</time></trkpt><trkpt lat="38.0754933" lon="13.497315"><ele>88.0</ele><time>2026-05-05T15:37:16.176Z</time></trkpt><trkpt lat="38.0756517" lon="13.4970517"><ele>87.0</ele><time>2026-05-05T15:37:17.176Z</time></trkpt><trkpt lat="38.0758083" lon="13.49678"><ele>86.0</ele><time>2026-05-05T15:37:18.176Z</time></trkpt><trkpt lat="38.0759683" lon="13.496505"><ele>85.0</ele><time>2026-05-05T15:37:19.176Z</time></trkpt><trkpt lat="38.0761233" lon="13.49623"><ele>84.0</ele><time>2026-05-05T15:37:20.176Z</time></trkpt><trkpt lat="38.076295" lon="13.4959533"><ele>84.0</ele><time>2026-05-05T15:37:21.176Z</time></trkpt><trkpt lat="38.0764617" lon="13.4956717"><ele>84.0</ele><time>2026-05-05T15:37:22.176Z</time></trkpt><trkpt lat="38.076625" lon="13.4953783"><ele>82.0</ele><time>2026-05-05T15:37:23.176Z</time></trkpt><trkpt lat="38.076775" lon="13.4950833"><ele>80.0</ele><time>2026-05-05T15:37:24.176Z</time></trkpt><trkpt lat="38.0769083" lon="13.494785"><ele>81.5</ele><time>2026-05-05T15:37:25.176Z</time></trkpt><trkpt lat="38.0770433" lon="13.4944783"><ele>83.0</ele><time>2026-05-05T15:37:26.176Z</time></trkpt><trkpt lat="38.07716" lon="13.49417"><ele>83.0</ele><time>2026-05-05T15:37:27.176Z</time></trkpt><trkpt lat="38.0772767" lon="13.4938433"><ele>83.0</ele><time>2026-05-05T15:37:28.176Z</time></trkpt><trkpt lat="38.0773833" lon="13.49353"><ele>81.0</ele><time>2026-05-05T15:37:29.176Z</time></trkpt><trkpt lat="38.07749" lon="13.493215"><ele>79.0</ele><time>2026-05-05T15:37:30.176Z</time></trkpt><trkpt lat="38.0776083" lon="13.4929067"><ele>83.5</ele><time>2026-05-05T15:37:31.176Z</time></trkpt><trkpt lat="38.077715" lon="13.4925933"><ele>88.0</ele><time>2026-05-05T15:37:32.176Z</time></trkpt><trkpt lat="38.077835" lon="13.4922783"><ele>96.5</ele><time>2026-05-05T15:37:33.176Z</time></trkpt><trkpt lat="38.0779567" lon="13.4919633"><ele>105.0</ele><time>2026-05-05T15:37:34.176Z</time></trkpt><trkpt lat="38.0780767" lon="13.49164"><ele>105.0</ele><time>2026-05-05T15:37:35.176Z</time></trkpt><trkpt lat="38.0781933" lon="13.4913217"><ele>105.0</ele><time>2026-05-05T15:37:36.176Z</time></trkpt><trkpt lat="38.0783033" lon="13.4910117"><ele>98.5</ele><time>2026-05-05T15:37:37.176Z</time></trkpt><trkpt lat="38.0784283" lon="13.4907067"><ele>92.0</ele><time>2026-05-05T15:37:38.176Z</time></trkpt><trkpt lat="38.078545" lon="13.4903933"><ele>92.0</ele><time>2026-05-05T15:37:39.176Z</time></trkpt><trkpt lat="38.0786633" lon="13.490075"><ele>92.0</ele><time>2026-05-05T15:37:40.176Z</time></trkpt><trkpt lat="38.0787783" lon="13.4897367"><ele>94.5</ele><time>2026-05-05T15:37:41.176Z</time></trkpt><trkpt lat="38.078885" lon="13.4894033"><ele>97.0</ele><time>2026-05-05T15:37:42.176Z</time></trkpt><trkpt lat="38.0789967" lon="13.4890733"><ele>86.5</ele><time>2026-05-05T15:37:43.176Z</time></trkpt><trkpt lat="38.0791067" lon="13.4887383"><ele>76.0</ele><time>2026-05-05T15:37:44.176Z</time></trkpt><trkpt lat="38.0792" lon="13.4883967"><ele>76.0</ele><time>2026-05-05T15:37:45.176Z</time></trkpt><trkpt lat="38.0792917" lon="13.4880567"><ele>76.0</ele><time>2026-05-05T15:37:46.176Z</time></trkpt><trkpt lat="38.0793733" lon="13.487705"><ele>74.0</ele><time>2026-05-05T15:37:47.176Z</time></trkpt><trkpt lat="38.0794333" lon="13.487355"><ele>72.0</ele><time>2026-05-05T15:37:48.176Z</time></trkpt><trkpt lat="38.0794933" lon="13.4870017"><ele>69.0</ele><time>2026-05-05T15:37:49.176Z</time></trkpt><trkpt lat="38.0795433" lon="13.4866483"><ele>66.0</ele><time>2026-05-05T15:37:50.176Z</time></trkpt><trkpt lat="38.0795967" lon="13.486295"><ele>66.5</ele><time>2026-05-05T15:37:51.176Z</time></trkpt><trkpt lat="38.0796467" lon="13.48594"><ele>67.0</ele><time>2026-05-05T15:37:52.176Z</time></trkpt><trkpt lat="38.07969" lon="13.48558"><ele>67.0</ele><time>2026-05-05T15:37:53.176Z</time></trkpt><trkpt lat="38.0797317" lon="13.4852217"><ele>67.0</ele><time>2026-05-05T15:37:54.176Z</time></trkpt><trkpt lat="38.0797883" lon="13.4848783"><ele>68.0</ele><time>2026-05-05T15:37:55.176Z</time></trkpt><trkpt lat="38.07984" lon="13.4845333"><ele>69.0</ele><time>2026-05-05T15:37:56.176Z</time></trkpt><trkpt lat="38.0798817" lon="13.48418"><ele>69.0</ele><time>2026-05-05T15:37:57.176Z</time></trkpt><trkpt lat="38.079925" lon="13.4838317"><ele>69.0</ele><time>2026-05-05T15:37:58.177Z</time></trkpt><trkpt lat="38.0799733" lon="13.4834817"><ele>69.0</ele><time>2026-05-05T15:37:59.177Z</time></trkpt><trkpt lat="38.080025" lon="13.4831283"><ele>69.0</ele><time>2026-05-05T15:38:00.176Z</time></trkpt><trkpt lat="38.0800717" lon="13.4827783"><ele>69.0</ele><time>2026-05-05T15:38:01.176Z</time></trkpt><trkpt lat="38.08012" lon="13.4824333"><ele>69.0</ele><time>2026-05-05T15:38:02.176Z</time></trkpt><trkpt lat="38.0801683" lon="13.4820783"><ele>69.0</ele><time>2026-05-05T15:38:03.176Z</time></trkpt><trkpt lat="38.0802183" lon="13.4817383"><ele>69.0</ele><time>2026-05-05T15:38:04.176Z</time></trkpt><trkpt lat="38.080275" lon="13.481395"><ele>69.0</ele><time>2026-05-05T15:38:05.176Z</time></trkpt><trkpt lat="38.0803217" lon="13.4810433"><ele>69.0</ele><time>2026-05-05T15:38:06.176Z</time></trkpt><trkpt lat="38.0803633" lon="13.4806883"><ele>68.0</ele><time>2026-05-05T15:38:07.177Z</time></trkpt><trkpt lat="38.080415" lon="13.4803417"><ele>67.0</ele><time>2026-05-05T15:38:08.176Z</time></trkpt><trkpt lat="38.08046" lon="13.4799967"><ele>67.0</ele><time>2026-05-05T15:38:09.176Z</time></trkpt><trkpt lat="38.0805067" lon="13.479635"><ele>67.0</ele><time>2026-05-05T15:38:10.176Z</time></trkpt><trkpt lat="38.0805567" lon="13.4792833"><ele>66.5</ele><time>2026-05-05T15:38:11.176Z</time></trkpt><trkpt lat="38.080605" lon="13.478925"><ele>66.0</ele><time>2026-05-05T15:38:12.176Z</time></trkpt><trkpt lat="38.0806583" lon="13.47857"><ele>65.0</ele><time>2026-05-05T15:38:13.176Z</time></trkpt><trkpt lat="38.0807033" lon="13.4782167"><ele>64.0</ele><time>2026-05-05T15:38:14.176Z</time></trkpt><trkpt lat="38.080745" lon="13.4778467"><ele>58.0</ele><time>2026-05-05T15:38:15.176Z</time></trkpt><trkpt lat="38.08079" lon="13.4774833"><ele>52.0</ele><time>2026-05-05T15:38:16.176Z</time></trkpt><trkpt lat="38.0808417" lon="13.477125"><ele>43.0</ele><time>2026-05-05T15:38:17.176Z</time></trkpt><trkpt lat="38.0808883" lon="13.4767633"><ele>34.0</ele><time>2026-05-05T15:38:18.176Z</time></trkpt><trkpt lat="38.0809383" lon="13.4764067"><ele>31.5</ele><time>2026-05-05T15:38:19.176Z</time></trkpt><trkpt lat="38.0809883" lon="13.4760483"><ele>29.0</ele><time>2026-05-05T15:38:20.176Z</time></trkpt><trkpt lat="38.0810383" lon="13.475685"><ele>30.0</ele><time>2026-05-05T15:38:21.176Z</time></trkpt><trkpt lat="38.08109" lon="13.475325"><ele>31.0</ele><time>2026-05-05T15:38:22.177Z</time></trkpt><trkpt lat="38.08114" lon="13.4749733"><ele>31.0</ele><time>2026-05-05T15:38:23.176Z</time></trkpt><trkpt lat="38.0811933" lon="13.4746133"><ele>31.0</ele><time>2026-05-05T15:38:24.176Z</time></trkpt><trkpt lat="38.0812483" lon="13.47426"><ele>38.5</ele><time>2026-05-05T15:38:25.177Z</time></trkpt><trkpt lat="38.0813" lon="13.4738983"><ele>46.0</ele><time>2026-05-05T15:38:26.176Z</time></trkpt><trkpt lat="38.0813467" lon="13.4735367"><ele>50.5</ele><time>2026-05-05T15:38:27.176Z</time></trkpt><trkpt lat="38.0813983" lon="13.47318"><ele>55.0</ele><time>2026-05-05T15:38:28.177Z</time></trkpt><trkpt lat="38.0814467" lon="13.4728167"><ele>55.0</ele><time>2026-05-05T15:38:29.176Z</time></trkpt><trkpt lat="38.081505" lon="13.4724633"><ele>55.0</ele><time>2026-05-05T15:38:30.176Z</time></trkpt><trkpt lat="38.081555" lon="13.4721017"><ele>53.5</ele><time>2026-05-05T15:38:31.177Z</time></trkpt><trkpt lat="38.0816067" lon="13.47174"><ele>52.0</ele><time>2026-05-05T15:38:32.177Z</time></trkpt><trkpt lat="38.0816517" lon="13.4713833"><ele>52.5</ele><time>2026-05-05T15:38:33.176Z</time></trkpt><trkpt lat="38.08169" lon="13.4710167"><ele>53.0</ele><time>2026-05-05T15:38:34.176Z</time></trkpt><trkpt lat="38.081725" lon="13.47066"><ele>53.0</ele><time>2026-05-05T15:38:35.176Z</time></trkpt><trkpt lat="38.0817483" lon="13.4702917"><ele>53.0</ele><time>2026-05-05T15:38:36.176Z</time></trkpt><trkpt lat="38.0817667" lon="13.4699283"><ele>52.0</ele><time>2026-05-05T15:38:37.176Z</time></trkpt><trkpt lat="38.08178" lon="13.4695633"><ele>51.0</ele><time>2026-05-05T15:38:38.176Z</time></trkpt><trkpt lat="38.0818017" lon="13.4692033"><ele>51.0</ele><time>2026-05-05T15:38:39.176Z</time></trkpt><trkpt lat="38.0818167" lon="13.4688333"><ele>51.0</ele><time>2026-05-05T15:38:40.176Z</time></trkpt><trkpt lat="38.0818367" lon="13.4684683"><ele>51.0</ele><time>2026-05-05T15:38:41.176Z</time></trkpt><trkpt lat="38.08186" lon="13.4681033"><ele>51.0</ele><time>2026-05-05T15:38:42.176Z</time></trkpt><trkpt lat="38.0818817" lon="13.4677367"><ele>49.5</ele><time>2026-05-05T15:38:43.176Z</time></trkpt><trkpt lat="38.0819017" lon="13.4673633"><ele>48.0</ele><time>2026-05-05T15:38:44.176Z</time></trkpt><trkpt lat="38.0819233" lon="13.4670033"><ele>47.5</ele><time>2026-05-05T15:38:45.176Z</time></trkpt><trkpt lat="38.0819433" lon="13.4666383"><ele>47.0</ele><time>2026-05-05T15:38:46.176Z</time></trkpt><trkpt lat="38.081965" lon="13.4662767"><ele>46.5</ele><time>2026-05-05T15:38:47.177Z</time></trkpt><trkpt lat="38.0819833" lon="13.465915"><ele>46.0</ele><time>2026-05-05T15:38:48.176Z</time></trkpt><trkpt lat="38.0820083" lon="13.465555"><ele>45.5</ele><time>2026-05-05T15:38:49.176Z</time></trkpt><trkpt lat="38.0820333" lon="13.4651933"><ele>45.0</ele><time>2026-05-05T15:38:50.177Z</time></trkpt><trkpt lat="38.0820517" lon="13.4648167"><ele>46.0</ele><time>2026-05-05T15:38:51.176Z</time></trkpt><trkpt lat="38.0820733" lon="13.4644533"><ele>47.0</ele><time>2026-05-05T15:38:52.176Z</time></trkpt><trkpt lat="38.0820983" lon="13.4640833"><ele>46.5</ele><time>2026-05-05T15:38:53.176Z</time></trkpt><trkpt lat="38.0821167" lon="13.46372"><ele>46.0</ele><time>2026-05-05T15:38:54.176Z</time></trkpt><trkpt lat="38.0821333" lon="13.4633617"><ele>46.0</ele><time>2026-05-05T15:38:55.176Z</time></trkpt><trkpt lat="38.08215" lon="13.4629967"><ele>46.0</ele><time>2026-05-05T15:38:56.176Z</time></trkpt><trkpt lat="38.0821683" lon="13.4626317"><ele>45.5</ele><time>2026-05-05T15:38:57.176Z</time></trkpt><trkpt lat="38.082185" lon="13.4622683"><ele>45.0</ele><time>2026-05-05T15:38:58.176Z</time></trkpt><trkpt lat="38.0822133" lon="13.46191"><ele>44.5</ele><time>2026-05-05T15:38:59.176Z</time></trkpt><trkpt lat="38.082235" lon="13.46154"><ele>44.0</ele><time>2026-05-05T15:39:00.176Z</time></trkpt><trkpt lat="38.0822617" lon="13.46118"><ele>44.0</ele><time>2026-05-05T15:39:01.176Z</time></trkpt><trkpt lat="38.082285" lon="13.4608183"><ele>44.0</ele><time>2026-05-05T15:39:02.176Z</time></trkpt><trkpt lat="38.0823067" lon="13.4604533"><ele>43.0</ele><time>2026-05-05T15:39:03.176Z</time></trkpt><trkpt lat="38.08233" lon="13.4600917"><ele>42.0</ele><time>2026-05-05T15:39:04.176Z</time></trkpt><trkpt lat="38.082365" lon="13.45973"><ele>42.5</ele><time>2026-05-05T15:39:05.176Z</time></trkpt><trkpt lat="38.0824067" lon="13.4593667"><ele>43.0</ele><time>2026-05-05T15:39:06.176Z</time></trkpt><trkpt lat="38.0824433" lon="13.4590033"><ele>41.0</ele><time>2026-05-05T15:39:07.176Z</time></trkpt><trkpt lat="38.0824867" lon="13.458645"><ele>39.0</ele><time>2026-05-05T15:39:08.176Z</time></trkpt><trkpt lat="38.0825383" lon="13.4582917"><ele>39.0</ele><time>2026-05-05T15:39:09.176Z</time></trkpt><trkpt lat="38.0825817" lon="13.4579633"><ele>39.0</ele><time>2026-05-05T15:39:10.177Z</time></trkpt><trkpt lat="38.0826183" lon="13.4576317"><ele>38.5</ele><time>2026-05-05T15:39:11.177Z</time></trkpt><trkpt lat="38.0826567" lon="13.4573067"><ele>38.0</ele><time>2026-05-05T15:39:12.176Z</time></trkpt><trkpt lat="38.0826967" lon="13.4569783"><ele>37.0</ele><time>2026-05-05T15:39:13.176Z</time></trkpt><trkpt lat="38.08273" lon="13.4566433"><ele>36.0</ele><time>2026-05-05T15:39:14.177Z</time></trkpt><trkpt lat="38.0827717" lon="13.4563283"><ele>36.0</ele><time>2026-05-05T15:39:15.176Z</time></trkpt><trkpt lat="38.0828117" lon="13.4560083"><ele>36.0</ele><time>2026-05-05T15:39:16.176Z</time></trkpt><trkpt lat="38.0828433" lon="13.4556883"><ele>36.5</ele><time>2026-05-05T15:39:17.176Z</time></trkpt><trkpt lat="38.0828783" lon="13.4553633"><ele>37.0</ele><time>2026-05-05T15:39:18.177Z</time></trkpt><trkpt lat="38.0829183" lon="13.45505"><ele>37.0</ele><time>2026-05-05T15:39:19.176Z</time></trkpt><trkpt lat="38.0829533" lon="13.4547267"><ele>37.0</ele><time>2026-05-05T15:39:20.176Z</time></trkpt><trkpt lat="38.0829917" lon="13.454395"><ele>37.0</ele><time>2026-05-05T15:39:21.177Z</time></trkpt><trkpt lat="38.083035" lon="13.45408"><ele>37.0</ele><time>2026-05-05T15:39:22.177Z</time></trkpt><trkpt lat="38.0830733" lon="13.4537533"><ele>37.0</ele><time>2026-05-05T15:39:23.177Z</time></trkpt><trkpt lat="38.08311" lon="13.4534233"><ele>37.0</ele><time>2026-05-05T15:39:24.176Z</time></trkpt><trkpt lat="38.0831483" lon="13.4530917"><ele>36.0</ele><time>2026-05-05T15:39:25.176Z</time></trkpt><trkpt lat="38.0831883" lon="13.452755"><ele>35.0</ele><time>2026-05-05T15:39:26.176Z</time></trkpt><trkpt lat="38.0832283" lon="13.4524233"><ele>34.5</ele><time>2026-05-05T15:39:27.176Z</time></trkpt><trkpt lat="38.08327" lon="13.4520817"><ele>34.0</ele><time>2026-05-05T15:39:28.176Z</time></trkpt><trkpt lat="38.0833133" lon="13.451755"><ele>34.0</ele><time>2026-05-05T15:39:29.176Z</time></trkpt><trkpt lat="38.0833417" lon="13.4514167"><ele>34.0</ele><time>2026-05-05T15:39:30.176Z</time></trkpt><trkpt lat="38.0833833" lon="13.4510883"><ele>34.0</ele><time>2026-05-05T15:39:31.176Z</time></trkpt><trkpt lat="38.0834167" lon="13.4507517"><ele>34.0</ele><time>2026-05-05T15:39:32.176Z</time></trkpt><trkpt lat="38.083445" lon="13.4504167"><ele>34.0</ele><time>2026-05-05T15:39:33.176Z</time></trkpt><trkpt lat="38.083465" lon="13.4500817"><ele>34.0</ele><time>2026-05-05T15:39:34.176Z</time></trkpt><trkpt lat="38.0834817" lon="13.44974"><ele>33.5</ele><time>2026-05-05T15:39:35.176Z</time></trkpt><trkpt lat="38.0834733" lon="13.4493917"><ele>33.0</ele><time>2026-05-05T15:39:36.176Z</time></trkpt><trkpt lat="38.083465" lon="13.4490517"><ele>33.5</ele><time>2026-05-05T15:39:37.176Z</time></trkpt><trkpt lat="38.083445" lon="13.4487233"><ele>34.0</ele><time>2026-05-05T15:39:38.176Z</time></trkpt><trkpt lat="38.0834267" lon="13.448385"><ele>34.0</ele><time>2026-05-05T15:39:39.176Z</time></trkpt><trkpt lat="38.08341" lon="13.4480517"><ele>34.0</ele><time>2026-05-05T15:39:40.176Z</time></trkpt><trkpt lat="38.08339" lon="13.4477133"><ele>34.5</ele><time>2026-05-05T15:39:41.176Z</time></trkpt><trkpt lat="38.0833683" lon="13.44738"><ele>35.0</ele><time>2026-05-05T15:39:42.176Z</time></trkpt><trkpt lat="38.083345" lon="13.4470383"><ele>35.0</ele><time>2026-05-05T15:39:43.176Z</time></trkpt><trkpt lat="38.0833183" lon="13.4466883"><ele>35.0</ele><time>2026-05-05T15:39:44.176Z</time></trkpt><trkpt lat="38.0832983" lon="13.44635"><ele>34.0</ele><time>2026-05-05T15:39:45.176Z</time></trkpt><trkpt lat="38.083275" lon="13.446005"><ele>33.0</ele><time>2026-05-05T15:39:46.177Z</time></trkpt><trkpt lat="38.0832517" lon="13.4456583"><ele>32.5</ele><time>2026-05-05T15:39:47.176Z</time></trkpt><trkpt lat="38.0832267" lon="13.4453083"><ele>32.0</ele><time>2026-05-05T15:39:48.176Z</time></trkpt><trkpt lat="38.0832033" lon="13.4449583"><ele>32.0</ele><time>2026-05-05T15:39:49.176Z</time></trkpt><trkpt lat="38.0831833" lon="13.4446167"><ele>32.0</ele><time>2026-05-05T15:39:50.176Z</time></trkpt><trkpt lat="38.0831583" lon="13.4442683"><ele>32.0</ele><time>2026-05-05T15:39:51.176Z</time></trkpt><trkpt lat="38.0831383" lon="13.44392"><ele>32.0</ele><time>2026-05-05T15:39:52.177Z</time></trkpt><trkpt lat="38.0831167" lon="13.4435717"><ele>32.5</ele><time>2026-05-05T15:39:53.176Z</time></trkpt><trkpt lat="38.083105" lon="13.4432317"><ele>33.0</ele><time>2026-05-05T15:39:54.177Z</time></trkpt><trkpt lat="38.0830917" lon="13.4428833"><ele>33.0</ele><time>2026-05-05T15:39:55.176Z</time></trkpt><trkpt lat="38.083085" lon="13.4425517"><ele>33.0</ele><time>2026-05-05T15:39:56.176Z</time></trkpt><trkpt lat="38.083075" lon="13.4422133"><ele>34.0</ele><time>2026-05-05T15:39:57.176Z</time></trkpt><trkpt lat="38.0830633" lon="13.44188"><ele>35.0</ele><time>2026-05-05T15:39:58.176Z</time></trkpt><trkpt lat="38.0830783" lon="13.44155"><ele>35.0</ele><time>2026-05-05T15:39:59.177Z</time></trkpt><trkpt lat="38.0831033" lon="13.44123"><ele>35.0</ele><time>2026-05-05T15:40:00.176Z</time></trkpt><trkpt lat="38.08315" lon="13.440905"><ele>35.0</ele><time>2026-05-05T15:40:01.176Z</time></trkpt><trkpt lat="38.0832233" lon="13.44059"><ele>35.0</ele><time>2026-05-05T15:40:02.177Z</time></trkpt><trkpt lat="38.0833" lon="13.4402817"><ele>33.5</ele><time>2026-05-05T15:40:03.176Z</time></trkpt><trkpt lat="38.0833833" lon="13.439975"><ele>32.0</ele><time>2026-05-05T15:40:04.176Z</time></trkpt><trkpt lat="38.083485" lon="13.4396833"><ele>34.0</ele><time>2026-05-05T15:40:05.176Z</time></trkpt><trkpt lat="38.0835867" lon="13.4393767"><ele>36.0</ele><time>2026-05-05T15:40:06.176Z</time></trkpt><trkpt lat="38.08369" lon="13.43908"><ele>35.0</ele><time>2026-05-05T15:40:07.176Z</time></trkpt><trkpt lat="38.0837883" lon="13.4387733"><ele>34.0</ele><time>2026-05-05T15:40:08.177Z</time></trkpt><trkpt lat="38.0838867" lon="13.43847"><ele>34.0</ele><time>2026-05-05T15:40:09.176Z</time></trkpt><trkpt lat="38.0839783" lon="13.4381667"><ele>34.0</ele><time>2026-05-05T15:40:10.176Z</time></trkpt><trkpt lat="38.0840683" lon="13.4378683"><ele>35.5</ele><time>2026-05-05T15:40:11.176Z</time></trkpt><trkpt lat="38.084165" lon="13.4375833"><ele>37.0</ele><time>2026-05-05T15:40:12.176Z</time></trkpt><trkpt lat="38.0842733" lon="13.4373067"><ele>36.0</ele><time>2026-05-05T15:40:13.176Z</time></trkpt><trkpt lat="38.08439" lon="13.43704"><ele>35.0</ele><time>2026-05-05T15:40:14.176Z</time></trkpt><trkpt lat="38.0845333" lon="13.4367917"><ele>35.0</ele><time>2026-05-05T15:40:15.176Z</time></trkpt><trkpt lat="38.0846867" lon="13.4365433"><ele>35.0</ele><time>2026-05-05T15:40:16.176Z</time></trkpt><trkpt lat="38.0848533" lon="13.4363083"><ele>34.5</ele><time>2026-05-05T15:40:17.176Z</time></trkpt><trkpt lat="38.0850167" lon="13.4360983"><ele>34.0</ele><time>2026-05-05T15:40:18.176Z</time></trkpt><trkpt lat="38.0851833" lon="13.4359033"><ele>34.0</ele><time>2026-05-05T15:40:19.176Z</time></trkpt><trkpt lat="38.0853383" lon="13.4357083"><ele>34.0</ele><time>2026-05-05T15:40:20.176Z</time></trkpt><trkpt lat="38.0854967" lon="13.4355217"><ele>34.0</ele><time>2026-05-05T15:40:21.176Z</time></trkpt><trkpt lat="38.0856367" lon="13.435325"><ele>34.0</ele><time>2026-05-05T15:40:22.176Z</time></trkpt><trkpt lat="38.0857683" lon="13.4351017"><ele>34.0</ele><time>2026-05-05T15:40:23.176Z</time></trkpt><trkpt lat="38.085885" lon="13.4348767"><ele>34.0</ele><time>2026-05-05T15:40:24.177Z</time></trkpt><trkpt lat="38.0859767" lon="13.4346283"><ele>35.0</ele><time>2026-05-05T15:40:25.176Z</time></trkpt><trkpt lat="38.0860417" lon="13.4343767"><ele>36.0</ele><time>2026-05-05T15:40:26.176Z</time></trkpt><trkpt lat="38.0860767" lon="13.4340933"><ele>37.0</ele><time>2026-05-05T15:40:27.177Z</time></trkpt><trkpt lat="38.086105" lon="13.43382"><ele>37.66666666666667</ele><time>2026-05-05T15:40:28.176Z</time></trkpt><trkpt lat="38.0861233" lon="13.43354"><ele>38.333333333333336</ele><time>2026-05-05T15:40:29.176Z</time></trkpt><trkpt lat="38.0861283" lon="13.43328"><ele>39.0</ele><time>2026-05-05T15:40:30.176Z</time></trkpt><trkpt lat="38.0861283" lon="13.4330117"><ele>38.333333333333336</ele><time>2026-05-05T15:40:31.177Z</time></trkpt><trkpt lat="38.0861433" lon="13.4327483"><ele>37.66666666666667</ele><time>2026-05-05T15:40:32.177Z</time></trkpt><trkpt lat="38.08614" lon="13.43248"><ele>37.0</ele><time>2026-05-05T15:40:33.176Z</time></trkpt><trkpt lat="38.0861317" lon="13.4322083"><ele>36.0</ele><time>2026-05-05T15:40:34.176Z</time></trkpt><trkpt lat="38.0861233" lon="13.4319367"><ele>35.0</ele><time>2026-05-05T15:40:35.176Z</time></trkpt><trkpt lat="38.08611" lon="13.431655"><ele>34.0</ele><time>2026-05-05T15:40:36.176Z</time></trkpt><trkpt lat="38.0861067" lon="13.43137"><ele>34.0</ele><time>2026-05-05T15:40:37.176Z</time></trkpt><trkpt lat="38.0860967" lon="13.43108"><ele>34.0</ele><time>2026-05-05T15:40:38.176Z</time></trkpt><trkpt lat="38.0860883" lon="13.4307883"><ele>34.0</ele><time>2026-05-05T15:40:39.176Z</time></trkpt><trkpt lat="38.0860867" lon="13.4304917"><ele>34.0</ele><time>2026-05-05T15:40:40.177Z</time></trkpt><trkpt lat="38.0860783" lon="13.4301983"><ele>33.5</ele><time>2026-05-05T15:40:41.176Z</time></trkpt><trkpt lat="38.0860667" lon="13.4299017"><ele>33.0</ele><time>2026-05-05T15:40:42.176Z</time></trkpt><trkpt lat="38.086055" lon="13.42961"><ele>34.0</ele><time>2026-05-05T15:40:43.176Z</time></trkpt><trkpt lat="38.0860433" lon="13.4293167"><ele>35.0</ele><time>2026-05-05T15:40:44.176Z</time></trkpt><trkpt lat="38.086035" lon="13.429025"><ele>33.5</ele><time>2026-05-05T15:40:45.176Z</time></trkpt><trkpt lat="38.0860367" lon="13.4287333"><ele>32.0</ele><time>2026-05-05T15:40:46.176Z</time></trkpt><trkpt lat="38.0860317" lon="13.4284467"><ele>32.0</ele><time>2026-05-05T15:40:47.176Z</time></trkpt><trkpt lat="38.0860233" lon="13.4281483"><ele>32.0</ele><time>2026-05-05T15:40:48.176Z</time></trkpt><trkpt lat="38.0860167" lon="13.4278533"><ele>31.0</ele><time>2026-05-05T15:40:49.176Z</time></trkpt><trkpt lat="38.08602" lon="13.4275633"><ele>30.0</ele><time>2026-05-05T15:40:50.176Z</time></trkpt><trkpt lat="38.0860133" lon="13.4272633"><ele>28.5</ele><time>2026-05-05T15:40:51.176Z</time></trkpt><trkpt lat="38.08601" lon="13.4269633"><ele>27.0</ele><time>2026-05-05T15:40:52.176Z</time></trkpt><trkpt lat="38.0860067" lon="13.4266667"><ele>27.0</ele><time>2026-05-05T15:40:53.177Z</time></trkpt><trkpt lat="38.086015" lon="13.4263717"><ele>27.0</ele><time>2026-05-05T15:40:54.176Z</time></trkpt><trkpt lat="38.0860033" lon="13.42607"><ele>27.0</ele><time>2026-05-05T15:40:55.176Z</time></trkpt><trkpt lat="38.0859917" lon="13.42577"><ele>27.0</ele><time>2026-05-05T15:40:56.177Z</time></trkpt><trkpt lat="38.0859967" lon="13.4254717"><ele>27.0</ele><time>2026-05-05T15:40:57.176Z</time></trkpt><trkpt lat="38.0859967" lon="13.4251717"><ele>27.0</ele><time>2026-05-05T15:40:58.176Z</time></trkpt><trkpt lat="38.085995" lon="13.4248617"><ele>28.0</ele><time>2026-05-05T15:40:59.176Z</time></trkpt><trkpt lat="38.0860017" lon="13.42455"><ele>29.0</ele><time>2026-05-05T15:41:00.176Z</time></trkpt><trkpt lat="38.086005" lon="13.4242383"><ele>29.0</ele><time>2026-05-05T15:41:01.176Z</time></trkpt><trkpt lat="38.0860017" lon="13.423925"><ele>29.0</ele><time>2026-05-05T15:41:02.177Z</time></trkpt><trkpt lat="38.0859983" lon="13.42361"><ele>29.5</ele><time>2026-05-05T15:41:03.176Z</time></trkpt><trkpt lat="38.086" lon="13.423295"><ele>30.0</ele><time>2026-05-05T15:41:04.176Z</time></trkpt><trkpt lat="38.086" lon="13.4229817"><ele>30.0</ele><time>2026-05-05T15:41:05.176Z</time></trkpt><trkpt lat="38.0860033" lon="13.4226767"><ele>30.0</ele><time>2026-05-05T15:41:06.176Z</time></trkpt><trkpt lat="38.0860017" lon="13.422375"><ele>29.5</ele><time>2026-05-05T15:41:07.176Z</time></trkpt><trkpt lat="38.0860017" lon="13.4220667"><ele>29.0</ele><time>2026-05-05T15:41:08.177Z</time></trkpt><trkpt lat="38.0859933" lon="13.421765"><ele>29.0</ele><time>2026-05-05T15:41:09.177Z</time></trkpt><trkpt lat="38.0859917" lon="13.4214617"><ele>29.0</ele><time>2026-05-05T15:41:10.176Z</time></trkpt><trkpt lat="38.0859917" lon="13.4211717"><ele>29.5</ele><time>2026-05-05T15:41:11.176Z</time></trkpt><trkpt lat="38.085985" lon="13.4208833"><ele>30.0</ele><time>2026-05-05T15:41:12.176Z</time></trkpt><trkpt lat="38.0859833" lon="13.4205933"><ele>29.666666666666664</ele><time>2026-05-05T15:41:13.176Z</time></trkpt><trkpt lat="38.0859767" lon="13.4203133"><ele>29.333333333333332</ele><time>2026-05-05T15:41:14.176Z</time></trkpt><trkpt lat="38.0859733" lon="13.4200317"><ele>29.0</ele><time>2026-05-05T15:41:15.176Z</time></trkpt><trkpt lat="38.08597" lon="13.4197383"><ele>29.5</ele><time>2026-05-05T15:41:16.177Z</time></trkpt><trkpt lat="38.0859667" lon="13.419445"><ele>30.0</ele><time>2026-05-05T15:41:17.176Z</time></trkpt><trkpt lat="38.0859617" lon="13.41916"><ele>30.0</ele><time>2026-05-05T15:41:18.177Z</time></trkpt><trkpt lat="38.0859617" lon="13.418865"><ele>30.0</ele><time>2026-05-05T15:41:19.177Z</time></trkpt><trkpt lat="38.085955" lon="13.4185617"><ele>30.5</ele><time>2026-05-05T15:41:20.176Z</time></trkpt><trkpt lat="38.08595" lon="13.4182683"><ele>31.0</ele><time>2026-05-05T15:41:21.176Z</time></trkpt><trkpt lat="38.0859417" lon="13.4179667"><ele>31.0</ele><time>2026-05-05T15:41:22.176Z</time></trkpt><trkpt lat="38.0859367" lon="13.417665"><ele>31.0</ele><time>2026-05-05T15:41:23.176Z</time></trkpt><trkpt lat="38.0859417" lon="13.417365"><ele>30.5</ele><time>2026-05-05T15:41:24.176Z</time></trkpt><trkpt lat="38.0859333" lon="13.4170617"><ele>30.0</ele><time>2026-05-05T15:41:25.176Z</time></trkpt><trkpt lat="38.0859317" lon="13.4167617"><ele>30.0</ele><time>2026-05-05T15:41:26.176Z</time></trkpt><trkpt lat="38.08593" lon="13.4164583"><ele>30.0</ele><time>2026-05-05T15:41:27.177Z</time></trkpt><trkpt lat="38.085925" lon="13.4161533"><ele>31.0</ele><time>2026-05-05T15:41:28.176Z</time></trkpt><trkpt lat="38.0859183" lon="13.4158467"><ele>32.0</ele><time>2026-05-05T15:41:29.176Z</time></trkpt><trkpt lat="38.0859167" lon="13.4155517"><ele>32.0</ele><time>2026-05-05T15:41:30.177Z</time></trkpt><trkpt lat="38.0859133" lon="13.4152617"><ele>32.0</ele><time>2026-05-05T15:41:31.176Z</time></trkpt><trkpt lat="38.0859117" lon="13.4149817"><ele>32.0</ele><time>2026-05-05T15:41:32.177Z</time></trkpt><trkpt lat="38.08592" lon="13.4147"><ele>31.666666666666664</ele><time>2026-05-05T15:41:33.176Z</time></trkpt><trkpt lat="38.085915" lon="13.4144167"><ele>31.333333333333336</ele><time>2026-05-05T15:41:34.177Z</time></trkpt><trkpt lat="38.0859167" lon="13.414135"><ele>31.0</ele><time>2026-05-05T15:41:35.176Z</time></trkpt><trkpt lat="38.0859133" lon="13.4138417"><ele>31.0</ele><time>2026-05-05T15:41:36.176Z</time></trkpt><trkpt lat="38.0859083" lon="13.4135533"><ele>31.0</ele><time>2026-05-05T15:41:37.177Z</time></trkpt><trkpt lat="38.0859033" lon="13.41326"><ele>31.0</ele><time>2026-05-05T15:41:38.176Z</time></trkpt><trkpt lat="38.0859083" lon="13.4129717"><ele>31.0</ele><time>2026-05-05T15:41:39.176Z</time></trkpt><trkpt lat="38.0859167" lon="13.4126817"><ele>31.0</ele><time>2026-05-05T15:41:40.176Z</time></trkpt><trkpt lat="38.085935" lon="13.41239"><ele>31.0</ele><time>2026-05-05T15:41:41.176Z</time></trkpt><trkpt lat="38.0859533" lon="13.4120983"><ele>31.0</ele><time>2026-05-05T15:41:42.176Z</time></trkpt><trkpt lat="38.0859733" lon="13.4117983"><ele>31.0</ele><time>2026-05-05T15:41:43.177Z</time></trkpt><trkpt lat="38.086" lon="13.4114983"><ele>30.0</ele><time>2026-05-05T15:41:44.176Z</time></trkpt><trkpt lat="38.0860283" lon="13.4112017"><ele>29.0</ele><time>2026-05-05T15:41:45.176Z</time></trkpt><trkpt lat="38.0860483" lon="13.4109"><ele>29.0</ele><time>2026-05-05T15:41:46.176Z</time></trkpt><trkpt lat="38.0860783" lon="13.41061"><ele>29.0</ele><time>2026-05-05T15:41:47.177Z</time></trkpt><trkpt lat="38.0861033" lon="13.4103133"><ele>29.5</ele><time>2026-05-05T15:41:48.177Z</time></trkpt><trkpt lat="38.0861283" lon="13.410015"><ele>30.0</ele><time>2026-05-05T15:41:49.176Z</time></trkpt><trkpt lat="38.0861533" lon="13.4097167"><ele>31.0</ele><time>2026-05-05T15:41:50.176Z</time></trkpt><trkpt lat="38.0861767" lon="13.4094167"><ele>32.0</ele><time>2026-05-05T15:41:51.176Z</time></trkpt><trkpt lat="38.0862017" lon="13.4091183"><ele>31.5</ele><time>2026-05-05T15:41:52.176Z</time></trkpt><trkpt lat="38.0862217" lon="13.40881"><ele>31.0</ele><time>2026-05-05T15:41:53.176Z</time></trkpt><trkpt lat="38.0862533" lon="13.4085033"><ele>31.0</ele><time>2026-05-05T15:41:54.176Z</time></trkpt><trkpt lat="38.0862767" lon="13.408195"><ele>31.0</ele><time>2026-05-05T15:41:55.176Z</time></trkpt><trkpt lat="38.0863067" lon="13.40789"><ele>31.0</ele><time>2026-05-05T15:41:56.176Z</time></trkpt><trkpt lat="38.08633" lon="13.407585"><ele>31.0</ele><time>2026-05-05T15:41:57.176Z</time></trkpt><trkpt lat="38.0863567" lon="13.407285"><ele>31.0</ele><time>2026-05-05T15:41:58.176Z</time></trkpt><trkpt lat="38.086385" lon="13.40698"><ele>31.0</ele><time>2026-05-05T15:41:59.176Z</time></trkpt><trkpt lat="38.0864167" lon="13.4066667"><ele>31.0</ele><time>2026-05-05T15:42:00.176Z</time></trkpt><trkpt lat="38.0864467" lon="13.4063567"><ele>31.0</ele><time>2026-05-05T15:42:01.176Z</time></trkpt><trkpt lat="38.0864667" lon="13.4060417"><ele>30.5</ele><time>2026-05-05T15:42:02.176Z</time></trkpt><trkpt lat="38.0865017" lon="13.405735"><ele>30.0</ele><time>2026-05-05T15:42:03.176Z</time></trkpt><trkpt lat="38.0865333" lon="13.4054267"><ele>31.0</ele><time>2026-05-05T15:42:04.176Z</time></trkpt><trkpt lat="38.0865583" lon="13.4051117"><ele>32.0</ele><time>2026-05-05T15:42:05.176Z</time></trkpt><trkpt lat="38.0865783" lon="13.4048133"><ele>31.5</ele><time>2026-05-05T15:42:06.176Z</time></trkpt><trkpt lat="38.0866033" lon="13.4045033"><ele>31.0</ele><time>2026-05-05T15:42:07.176Z</time></trkpt><trkpt lat="38.086635" lon="13.4041983"><ele>31.0</ele><time>2026-05-05T15:42:08.176Z</time></trkpt><trkpt lat="38.0866567" lon="13.403895"><ele>31.0</ele><time>2026-05-05T15:42:09.176Z</time></trkpt><trkpt lat="38.0866783" lon="13.403605"><ele>31.0</ele><time>2026-05-05T15:42:10.176Z</time></trkpt><trkpt lat="38.086705" lon="13.4033133"><ele>31.0</ele><time>2026-05-05T15:42:11.176Z</time></trkpt><trkpt lat="38.086735" lon="13.4030317"><ele>31.333333333333336</ele><time>2026-05-05T15:42:12.176Z</time></trkpt><trkpt lat="38.0867583" lon="13.4027433"><ele>31.666666666666664</ele><time>2026-05-05T15:42:13.176Z</time></trkpt><trkpt lat="38.0867783" lon="13.4024667"><ele>32.0</ele><time>2026-05-05T15:42:14.176Z</time></trkpt><trkpt lat="38.0868067" lon="13.4021933"><ele>32.0</ele><time>2026-05-05T15:42:15.176Z</time></trkpt><trkpt lat="38.086835" lon="13.4019117"><ele>32.0</ele><time>2026-05-05T15:42:16.177Z</time></trkpt><trkpt lat="38.0868517" lon="13.40163"><ele>32.0</ele><time>2026-05-05T15:42:17.176Z</time></trkpt><trkpt lat="38.0868767" lon="13.401355"><ele>31.333333333333332</ele><time>2026-05-05T15:42:18.177Z</time></trkpt><trkpt lat="38.0869" lon="13.401075"><ele>30.666666666666664</ele><time>2026-05-05T15:42:19.176Z</time></trkpt><trkpt lat="38.086925" lon="13.4007883"><ele>30.0</ele><time>2026-05-05T15:42:20.177Z</time></trkpt><trkpt lat="38.0869517" lon="13.4004917"><ele>30.0</ele><time>2026-05-05T15:42:21.176Z</time></trkpt><trkpt lat="38.0869783" lon="13.4002033"><ele>30.0</ele><time>2026-05-05T15:42:22.177Z</time></trkpt><trkpt lat="38.0870067" lon="13.3999117"><ele>30.0</ele><time>2026-05-05T15:42:23.176Z</time></trkpt><trkpt lat="38.0870333" lon="13.399615"><ele>30.0</ele><time>2026-05-05T15:42:24.176Z</time></trkpt><trkpt lat="38.0870533" lon="13.399315"><ele>30.0</ele><time>2026-05-05T15:42:25.177Z</time></trkpt><trkpt lat="38.0870767" lon="13.3990233"><ele>30.0</ele><time>2026-05-05T15:42:26.176Z</time></trkpt><trkpt lat="38.0871033" lon="13.3987433"><ele>30.333333333333336</ele><time>2026-05-05T15:42:27.176Z</time></trkpt><trkpt lat="38.0871283" lon="13.398475"><ele>30.666666666666668</ele><time>2026-05-05T15:42:28.176Z</time></trkpt><trkpt lat="38.087155" lon="13.398215"><ele>31.0</ele><time>2026-05-05T15:42:29.176Z</time></trkpt><trkpt lat="38.0871733" lon="13.397955"><ele>32.0</ele><time>2026-05-05T15:42:30.176Z</time></trkpt><trkpt lat="38.0871917" lon="13.397695"><ele>33.0</ele><time>2026-05-05T15:42:31.176Z</time></trkpt><trkpt lat="38.087215" lon="13.3974367"><ele>34.0</ele><time>2026-05-05T15:42:32.176Z</time></trkpt><trkpt lat="38.0872383" lon="13.3971833"><ele>33.66666666666667</ele><time>2026-05-05T15:42:33.177Z</time></trkpt><trkpt lat="38.0872517" lon="13.3969267"><ele>33.333333333333336</ele><time>2026-05-05T15:42:34.176Z</time></trkpt><trkpt lat="38.0872767" lon="13.39668"><ele>33.0</ele><time>2026-05-05T15:42:35.176Z</time></trkpt><trkpt lat="38.0873017" lon="13.39643"><ele>32.666666666666664</ele><time>2026-05-05T15:42:36.176Z</time></trkpt><trkpt lat="38.087325" lon="13.396185"><ele>32.33333333333333</ele><time>2026-05-05T15:42:37.176Z</time></trkpt><trkpt lat="38.0873467" lon="13.3959483"><ele>32.0</ele><time>2026-05-05T15:42:38.176Z</time></trkpt><trkpt lat="38.08737" lon="13.3957083"><ele>31.666666666666664</ele><time>2026-05-05T15:42:39.176Z</time></trkpt><trkpt lat="38.08739" lon="13.3954667"><ele>31.333333333333336</ele><time>2026-05-05T15:42:40.176Z</time></trkpt><trkpt lat="38.0874067" lon="13.3952283"><ele>31.0</ele><time>2026-05-05T15:42:41.176Z</time></trkpt><trkpt lat="38.0874233" lon="13.39499"><ele>31.0</ele><time>2026-05-05T15:42:42.176Z</time></trkpt><trkpt lat="38.0874483" lon="13.3947567"><ele>31.0</ele><time>2026-05-05T15:42:43.176Z</time></trkpt><trkpt lat="38.0874767" lon="13.394525"><ele>31.0</ele><time>2026-05-05T15:42:44.176Z</time></trkpt><trkpt lat="38.0875033" lon="13.3942933"><ele>31.0</ele><time>2026-05-05T15:42:45.177Z</time></trkpt><trkpt lat="38.0875333" lon="13.3940567"><ele>31.0</ele><time>2026-05-05T15:42:46.176Z</time></trkpt><trkpt lat="38.08757" lon="13.3938233"><ele>31.0</ele><time>2026-05-05T15:42:47.176Z</time></trkpt><trkpt lat="38.0876033" lon="13.393595"><ele>31.0</ele><time>2026-05-05T15:42:48.176Z</time></trkpt><trkpt lat="38.0876383" lon="13.3933717"><ele>31.0</ele><time>2026-05-05T15:42:49.176Z</time></trkpt><trkpt lat="38.0876783" lon="13.3931517"><ele>31.0</ele><time>2026-05-05T15:42:50.176Z</time></trkpt><trkpt lat="38.0877167" lon="13.39294"><ele>31.0</ele><time>2026-05-05T15:42:51.176Z</time></trkpt><trkpt lat="38.0877617" lon="13.39272"><ele>31.0</ele><time>2026-05-05T15:42:52.177Z</time></trkpt><trkpt lat="38.087815" lon="13.3924983"><ele>31.0</ele><time>2026-05-05T15:42:53.176Z</time></trkpt><trkpt lat="38.087865" lon="13.39227"><ele>30.333333333333336</ele><time>2026-05-05T15:42:54.176Z</time></trkpt><trkpt lat="38.0879117" lon="13.3920483"><ele>29.666666666666664</ele><time>2026-05-05T15:42:55.177Z</time></trkpt><trkpt lat="38.0879567" lon="13.3918233"><ele>29.0</ele><time>2026-05-05T15:42:56.176Z</time></trkpt><trkpt lat="38.0880083" lon="13.391605"><ele>29.0</ele><time>2026-05-05T15:42:57.176Z</time></trkpt><trkpt lat="38.088045" lon="13.3913967"><ele>29.0</ele><time>2026-05-05T15:42:58.176Z</time></trkpt><trkpt lat="38.0880833" lon="13.39119"><ele>29.0</ele><time>2026-05-05T15:42:59.176Z</time></trkpt><trkpt lat="38.08813" lon="13.39099"><ele>29.666666666666664</ele><time>2026-05-05T15:43:00.176Z</time></trkpt><trkpt lat="38.088165" lon="13.3907933"><ele>30.333333333333336</ele><time>2026-05-05T15:43:01.176Z</time></trkpt><trkpt lat="38.088215" lon="13.3906017"><ele>31.0</ele><time>2026-05-05T15:43:02.176Z</time></trkpt><trkpt lat="38.0882467" lon="13.39041"><ele>29.666666666666668</ele><time>2026-05-05T15:43:03.176Z</time></trkpt><trkpt lat="38.0882933" lon="13.3902133"><ele>28.333333333333336</ele><time>2026-05-05T15:43:04.176Z</time></trkpt><trkpt lat="38.0883317" lon="13.3900117"><ele>27.0</ele><time>2026-05-05T15:43:05.176Z</time></trkpt><trkpt lat="38.0883767" lon="13.389795"><ele>28.0</ele><time>2026-05-05T15:43:06.176Z</time></trkpt><trkpt lat="38.0884133" lon="13.3895783"><ele>29.0</ele><time>2026-05-05T15:43:07.176Z</time></trkpt><trkpt lat="38.0884633" lon="13.3893667"><ele>30.0</ele><time>2026-05-05T15:43:08.176Z</time></trkpt><trkpt lat="38.08851" lon="13.38915"><ele>30.0</ele><time>2026-05-05T15:43:09.176Z</time></trkpt><trkpt lat="38.0885533" lon="13.388945"><ele>30.0</ele><time>2026-05-05T15:43:10.176Z</time></trkpt><trkpt lat="38.0886033" lon="13.3887433"><ele>30.0</ele><time>2026-05-05T15:43:11.176Z</time></trkpt><trkpt lat="38.0886367" lon="13.3885333"><ele>32.666666666666664</ele><time>2026-05-05T15:43:12.176Z</time></trkpt><trkpt lat="38.088685" lon="13.388325"><ele>35.33333333333333</ele><time>2026-05-05T15:43:13.176Z</time></trkpt><trkpt lat="38.0887283" lon="13.3881167"><ele>38.0</ele><time>2026-05-05T15:43:14.176Z</time></trkpt><trkpt lat="38.0887767" lon="13.387895"><ele>39.0</ele><time>2026-05-05T15:43:15.176Z</time></trkpt><trkpt lat="38.0888183" lon="13.3876683"><ele>40.0</ele><time>2026-05-05T15:43:16.176Z</time></trkpt><trkpt lat="38.08887" lon="13.38744"><ele>41.0</ele><time>2026-05-05T15:43:17.176Z</time></trkpt><trkpt lat="38.0889217" lon="13.3872133"><ele>39.666666666666664</ele><time>2026-05-05T15:43:18.176Z</time></trkpt><trkpt lat="38.08897" lon="13.38698"><ele>38.333333333333336</ele><time>2026-05-05T15:43:19.176Z</time></trkpt><trkpt lat="38.08903" lon="13.38675"><ele>37.0</ele><time>2026-05-05T15:43:20.176Z</time></trkpt><trkpt lat="38.0890833" lon="13.3865317"><ele>34.333333333333336</ele><time>2026-05-05T15:43:21.176Z</time></trkpt><trkpt lat="38.089145" lon="13.3863183"><ele>31.666666666666664</ele><time>2026-05-05T15:43:22.176Z</time></trkpt><trkpt lat="38.0892033" lon="13.3861183"><ele>29.0</ele><time>2026-05-05T15:43:23.176Z</time></trkpt><trkpt lat="38.0892717" lon="13.38593"><ele>29.0</ele><time>2026-05-05T15:43:24.176Z</time></trkpt><trkpt lat="38.0893367" lon="13.3857433"><ele>29.0</ele><time>2026-05-05T15:43:25.176Z</time></trkpt><trkpt lat="38.089405" lon="13.3855633"><ele>29.0</ele><time>2026-05-05T15:43:26.176Z</time></trkpt><trkpt lat="38.08947" lon="13.38539"><ele>28.75</ele><time>2026-05-05T15:43:27.176Z</time></trkpt><trkpt lat="38.0895283" lon="13.3852267"><ele>28.5</ele><time>2026-05-05T15:43:28.176Z</time></trkpt><trkpt lat="38.08958" lon="13.3850617"><ele>28.25</ele><time>2026-05-05T15:43:29.176Z</time></trkpt><trkpt lat="38.089645" lon="13.3849"><ele>28.0</ele><time>2026-05-05T15:43:30.176Z</time></trkpt><trkpt lat="38.0897117" lon="13.3847333"><ele>28.75</ele><time>2026-05-05T15:43:31.176Z</time></trkpt><trkpt lat="38.0897767" lon="13.384555"><ele>29.5</ele><time>2026-05-05T15:43:32.176Z</time></trkpt><trkpt lat="38.0898333" lon="13.3843917"><ele>30.25</ele><time>2026-05-05T15:43:33.176Z</time></trkpt><trkpt lat="38.0898983" lon="13.3842267"><ele>31.0</ele><time>2026-05-05T15:43:34.176Z</time></trkpt><trkpt lat="38.089965" lon="13.3840567"><ele>31.5</ele><time>2026-05-05T15:43:35.176Z</time></trkpt><trkpt lat="38.090025" lon="13.3838917"><ele>32.0</ele><time>2026-05-05T15:43:36.176Z</time></trkpt><trkpt lat="38.090085" lon="13.383725"><ele>32.5</ele><time>2026-05-05T15:43:37.176Z</time></trkpt><trkpt lat="38.0901483" lon="13.38357"><ele>33.0</ele><time>2026-05-05T15:43:38.176Z</time></trkpt><trkpt lat="38.09021" lon="13.3834183"><ele>33.25</ele><time>2026-05-05T15:43:39.176Z</time></trkpt><trkpt lat="38.0902683" lon="13.383265"><ele>33.5</ele><time>2026-05-05T15:43:40.176Z</time></trkpt><trkpt lat="38.0903283" lon="13.383115"><ele>33.75</ele><time>2026-05-05T15:43:41.177Z</time></trkpt><trkpt lat="38.0903867" lon="13.3829633"><ele>34.0</ele><time>2026-05-05T15:43:42.176Z</time></trkpt><trkpt lat="38.09044" lon="13.382815"><ele>34.25</ele><time>2026-05-05T15:43:43.176Z</time></trkpt><trkpt lat="38.0904883" lon="13.382675"><ele>34.5</ele><time>2026-05-05T15:43:44.176Z</time></trkpt><trkpt lat="38.090535" lon="13.382535"><ele>34.75</ele><time>2026-05-05T15:43:45.176Z</time></trkpt><trkpt lat="38.0905883" lon="13.3823967"><ele>35.0</ele><time>2026-05-05T15:43:46.176Z</time></trkpt><trkpt lat="38.0906383" lon="13.3822533"><ele>35.0</ele><time>2026-05-05T15:43:47.176Z</time></trkpt><trkpt lat="38.0906883" lon="13.3821083"><ele>35.0</ele><time>2026-05-05T15:43:48.176Z</time></trkpt><trkpt lat="38.0907367" lon="13.38197"><ele>35.0</ele><time>2026-05-05T15:43:49.176Z</time></trkpt><trkpt lat="38.090785" lon="13.3818233"><ele>35.0</ele><time>2026-05-05T15:43:50.176Z</time></trkpt><trkpt lat="38.0908283" lon="13.3816733"><ele>35.0</ele><time>2026-05-05T15:43:51.176Z</time></trkpt><trkpt lat="38.0908717" lon="13.381515"><ele>35.0</ele><time>2026-05-05T15:43:52.176Z</time></trkpt><trkpt lat="38.0909117" lon="13.3813617"><ele>35.0</ele><time>2026-05-05T15:43:53.177Z</time></trkpt><trkpt lat="38.0909467" lon="13.3812117"><ele>35.0</ele><time>2026-05-05T15:43:54.176Z</time></trkpt><trkpt lat="38.09098" lon="13.3810633"><ele>35.0</ele><time>2026-05-05T15:43:55.176Z</time></trkpt><trkpt lat="38.0910033" lon="13.3809133"><ele>35.0</ele><time>2026-05-05T15:43:56.176Z</time></trkpt><trkpt lat="38.0910283" lon="13.3807633"><ele>35.0</ele><time>2026-05-05T15:43:57.176Z</time></trkpt><trkpt lat="38.0910467" lon="13.3806183"><ele>35.0</ele><time>2026-05-05T15:43:58.176Z</time></trkpt><trkpt lat="38.0910683" lon="13.3804783"><ele>35.4</ele><time>2026-05-05T15:43:59.176Z</time></trkpt><trkpt lat="38.0910867" lon="13.38035"><ele>35.8</ele><time>2026-05-05T15:44:00.177Z</time></trkpt><trkpt lat="38.0911017" lon="13.3802333"><ele>36.2</ele><time>2026-05-05T15:44:01.176Z</time></trkpt><trkpt lat="38.0911167" lon="13.38011"><ele>36.6</ele><time>2026-05-05T15:44:02.176Z</time></trkpt><trkpt lat="38.0911333" lon="13.3799967"><ele>37.0</ele><time>2026-05-05T15:44:03.176Z</time></trkpt><trkpt lat="38.0911517" lon="13.379875"><ele>37.0</ele><time>2026-05-05T15:44:04.176Z</time></trkpt><trkpt lat="38.0911667" lon="13.3797167"><ele>37.0</ele><time>2026-05-05T15:44:05.176Z</time></trkpt><trkpt lat="38.0911833" lon="13.3795433"><ele>37.0</ele><time>2026-05-05T15:44:06.176Z</time></trkpt><trkpt lat="38.0911867" lon="13.3793683"><ele>37.0</ele><time>2026-05-05T15:44:07.176Z</time></trkpt><trkpt lat="38.0911967" lon="13.3792067"><ele>37.66666666666667</ele><time>2026-05-05T15:44:08.176Z</time></trkpt><trkpt lat="38.0912083" lon="13.379015"><ele>38.333333333333336</ele><time>2026-05-05T15:44:09.176Z</time></trkpt><trkpt lat="38.0912083" lon="13.378805"><ele>39.0</ele><time>2026-05-05T15:44:10.176Z</time></trkpt><trkpt lat="38.091215" lon="13.3786033"><ele>39.25</ele><time>2026-05-05T15:44:11.176Z</time></trkpt><trkpt lat="38.0912233" lon="13.378425"><ele>39.5</ele><time>2026-05-05T15:44:12.176Z</time></trkpt><trkpt lat="38.0912233" lon="13.37825"><ele>39.75</ele><time>2026-05-05T15:44:13.176Z</time></trkpt><trkpt lat="38.0912267" lon="13.3780933"><ele>40.0</ele><time>2026-05-05T15:44:14.176Z</time></trkpt><trkpt lat="38.0912317" lon="13.3779483"><ele>40.0</ele><time>2026-05-05T15:44:15.176Z</time></trkpt><trkpt lat="38.0912267" lon="13.3778033"><ele>40.0</ele><time>2026-05-05T15:44:16.177Z</time></trkpt><trkpt lat="38.09123" lon="13.377675"><ele>40.0</ele><time>2026-05-05T15:44:17.176Z</time></trkpt><trkpt lat="38.0912517" lon="13.37756"><ele>40.0</ele><time>2026-05-05T15:44:18.176Z</time></trkpt><trkpt lat="38.091285" lon="13.37745"><ele>40.0</ele><time>2026-05-05T15:44:19.176Z</time></trkpt><trkpt lat="38.091345" lon="13.3773617"><ele>40.0</ele><time>2026-05-05T15:44:20.177Z</time></trkpt><trkpt lat="38.0914283" lon="13.377295"><ele>40.0</ele><time>2026-05-05T15:44:21.176Z</time></trkpt><trkpt lat="38.0915233" lon="13.3772383"><ele>40.0</ele><time>2026-05-05T15:44:22.176Z</time></trkpt><trkpt lat="38.0916083" lon="13.3771883"><ele>40.0</ele><time>2026-05-05T15:44:23.176Z</time></trkpt><trkpt lat="38.091695" lon="13.3771417"><ele>40.0</ele><time>2026-05-05T15:44:24.176Z</time></trkpt><trkpt lat="38.09177" lon="13.3770883"><ele>40.4</ele><time>2026-05-05T15:44:25.176Z</time></trkpt><trkpt lat="38.0918467" lon="13.3770367"><ele>40.8</ele><time>2026-05-05T15:44:26.176Z</time></trkpt><trkpt lat="38.0919233" lon="13.37698"><ele>41.2</ele><time>2026-05-05T15:44:27.177Z</time></trkpt><trkpt lat="38.0920033" lon="13.376905"><ele>41.6</ele><time>2026-05-05T15:44:28.176Z</time></trkpt><trkpt lat="38.0920833" lon="13.3768283"><ele>42.0</ele><time>2026-05-05T15:44:29.176Z</time></trkpt><trkpt lat="38.0921583" lon="13.3767467"><ele>42.0</ele><time>2026-05-05T15:44:30.176Z</time></trkpt><trkpt lat="38.0922367" lon="13.37668"><ele>42.0</ele><time>2026-05-05T15:44:31.176Z</time></trkpt><trkpt lat="38.0923183" lon="13.3766317"><ele>42.0</ele><time>2026-05-05T15:44:32.176Z</time></trkpt><trkpt lat="38.0924" lon="13.376595"><ele>42.0</ele><time>2026-05-05T15:44:33.176Z</time></trkpt><trkpt lat="38.0924817" lon="13.3765533"><ele>42.0</ele><time>2026-05-05T15:44:34.176Z</time></trkpt><trkpt lat="38.0925667" lon="13.3765217"><ele>42.0</ele><time>2026-05-05T15:44:35.176Z</time></trkpt><trkpt lat="38.0926417" lon="13.3764667"><ele>41.666666666666664</ele><time>2026-05-05T15:44:36.177Z</time></trkpt><trkpt lat="38.0927117" lon="13.3764167"><ele>41.333333333333336</ele><time>2026-05-05T15:44:37.176Z</time></trkpt><trkpt lat="38.0927817" lon="13.3763767"><ele>41.0</ele><time>2026-05-05T15:44:38.176Z</time></trkpt><trkpt lat="38.0928583" lon="13.37633"><ele>40.66666666666667</ele><time>2026-05-05T15:44:39.176Z</time></trkpt><trkpt lat="38.0929367" lon="13.3762867"><ele>40.333333333333336</ele><time>2026-05-05T15:44:40.176Z</time></trkpt><trkpt lat="38.0930083" lon="13.3762417"><ele>40.0</ele><time>2026-05-05T15:44:41.177Z</time></trkpt><trkpt lat="38.09308" lon="13.3761967"><ele>40.0</ele><time>2026-05-05T15:44:42.176Z</time></trkpt><trkpt lat="38.0931417" lon="13.376145"><ele>40.0</ele><time>2026-05-05T15:44:43.176Z</time></trkpt><trkpt lat="38.09321" lon="13.3760933"><ele>40.0</ele><time>2026-05-05T15:44:44.177Z</time></trkpt><trkpt lat="38.0932767" lon="13.3760467"><ele>40.0</ele><time>2026-05-05T15:44:45.175Z</time></trkpt><trkpt lat="38.0933417" lon="13.376"><ele>40.0</ele><time>2026-05-05T15:44:46.176Z</time></trkpt><trkpt lat="38.0933983" lon="13.3759467"><ele>40.0</ele><time>2026-05-05T15:44:47.176Z</time></trkpt><trkpt lat="38.093465" lon="13.3759033"><ele>39.5</ele><time>2026-05-05T15:44:48.176Z</time></trkpt><trkpt lat="38.0935333" lon="13.3758583"><ele>39.0</ele><time>2026-05-05T15:44:49.176Z</time></trkpt><trkpt lat="38.093605" lon="13.3758067"><ele>38.5</ele><time>2026-05-05T15:44:50.176Z</time></trkpt><trkpt lat="38.0936867" lon="13.3757517"><ele>38.0</ele><time>2026-05-05T15:44:51.176Z</time></trkpt><trkpt lat="38.0937667" lon="13.3756933"><ele>37.5</ele><time>2026-05-05T15:44:52.176Z</time></trkpt><trkpt lat="38.093845" lon="13.3756383"><ele>37.0</ele><time>2026-05-05T15:44:53.176Z</time></trkpt><trkpt lat="38.0939267" lon="13.37558"><ele>37.0</ele><time>2026-05-05T15:44:54.176Z</time></trkpt><trkpt lat="38.0940083" lon="13.3755233"><ele>37.0</ele><time>2026-05-05T15:44:55.176Z</time></trkpt><trkpt lat="38.09411" lon="13.3754617"><ele>37.0</ele><time>2026-05-05T15:44:56.176Z</time></trkpt><trkpt lat="38.0942033" lon="13.3753983"><ele>37.0</ele><time>2026-05-05T15:44:57.176Z</time></trkpt><trkpt lat="38.0943033" lon="13.37534"><ele>37.0</ele><time>2026-05-05T15:44:58.176Z</time></trkpt><trkpt lat="38.0944017" lon="13.375275"><ele>37.0</ele><time>2026-05-05T15:44:59.176Z</time></trkpt><trkpt lat="38.0944933" lon="13.375215"><ele>37.0</ele><time>2026-05-05T15:45:00.177Z</time></trkpt><trkpt lat="38.0945917" lon="13.37515"><ele>37.0</ele><time>2026-05-05T15:45:01.176Z</time></trkpt><trkpt lat="38.09469" lon="13.3750833"><ele>37.0</ele><time>2026-05-05T15:45:02.176Z</time></trkpt><trkpt lat="38.0948" lon="13.3750283"><ele>37.0</ele><time>2026-05-05T15:45:03.176Z</time></trkpt><trkpt lat="38.0948983" lon="13.374955"><ele>37.25</ele><time>2026-05-05T15:45:04.176Z</time></trkpt><trkpt lat="38.0950067" lon="13.37488"><ele>37.5</ele><time>2026-05-05T15:45:05.177Z</time></trkpt><trkpt lat="38.0951133" lon="13.3748083"><ele>37.75</ele><time>2026-05-05T15:45:06.176Z</time></trkpt><trkpt lat="38.0952217" lon="13.37475"><ele>38.0</ele><time>2026-05-05T15:45:07.176Z</time></trkpt><trkpt lat="38.09532" lon="13.3746883"><ele>38.0</ele><time>2026-05-05T15:45:08.176Z</time></trkpt><trkpt lat="38.0954267" lon="13.3746233"><ele>38.0</ele><time>2026-05-05T15:45:09.176Z</time></trkpt><trkpt lat="38.095515" lon="13.374555"><ele>38.0</ele><time>2026-05-05T15:45:10.177Z</time></trkpt><trkpt lat="38.0956233" lon="13.3744917"><ele>38.0</ele><time>2026-05-05T15:45:11.176Z</time></trkpt><trkpt lat="38.095735" lon="13.37444"><ele>37.75</ele><time>2026-05-05T15:45:12.176Z</time></trkpt><trkpt lat="38.0958517" lon="13.3743867"><ele>37.5</ele><time>2026-05-05T15:45:13.176Z</time></trkpt><trkpt lat="38.0959667" lon="13.3743133"><ele>37.25</ele><time>2026-05-05T15:45:14.176Z</time></trkpt><trkpt lat="38.0960767" lon="13.3742433"><ele>37.0</ele><time>2026-05-05T15:45:15.176Z</time></trkpt><trkpt lat="38.0962" lon="13.374175"><ele>37.0</ele><time>2026-05-05T15:45:16.176Z</time></trkpt><trkpt lat="38.09629" lon="13.3740883"><ele>37.0</ele><time>2026-05-05T15:45:17.176Z</time></trkpt><trkpt lat="38.0963933" lon="13.374015"><ele>37.0</ele><time>2026-05-05T15:45:18.176Z</time></trkpt><trkpt lat="38.09649" lon="13.3739533"><ele>37.0</ele><time>2026-05-05T15:45:19.176Z</time></trkpt><trkpt lat="38.0965867" lon="13.3738933"><ele>37.0</ele><time>2026-05-05T15:45:20.176Z</time></trkpt><trkpt lat="38.096685" lon="13.3738317"><ele>36.800000000000004</ele><time>2026-05-05T15:45:21.177Z</time></trkpt><trkpt lat="38.0967833" lon="13.37376"><ele>36.6</ele><time>2026-05-05T15:45:22.177Z</time></trkpt><trkpt lat="38.0968783" lon="13.3736917"><ele>36.400000000000006</ele><time>2026-05-05T15:45:23.177Z</time></trkpt><trkpt lat="38.096965" lon="13.3736367"><ele>36.2</ele><time>2026-05-05T15:45:24.177Z</time></trkpt><trkpt lat="38.0970583" lon="13.37358"><ele>36.0</ele><time>2026-05-05T15:45:25.176Z</time></trkpt><trkpt lat="38.09714" lon="13.37352"><ele>36.0</ele><time>2026-05-05T15:45:26.176Z</time></trkpt><trkpt lat="38.09723" lon="13.3734717"><ele>36.0</ele><time>2026-05-05T15:45:27.176Z</time></trkpt><trkpt lat="38.0973017" lon="13.3734283"><ele>36.0</ele><time>2026-05-05T15:45:28.176Z</time></trkpt><trkpt lat="38.0973733" lon="13.3733883"><ele>36.0</ele><time>2026-05-05T15:45:29.176Z</time></trkpt><trkpt lat="38.0974467" lon="13.373355"><ele>36.0</ele><time>2026-05-05T15:45:30.176Z</time></trkpt><trkpt lat="38.09751" lon="13.3733133"><ele>36.0</ele><time>2026-05-05T15:45:31.176Z</time></trkpt><trkpt lat="38.0975767" lon="13.37328"><ele>35.833333333333336</ele><time>2026-05-05T15:45:32.176Z</time></trkpt><trkpt lat="38.09767" lon="13.3732217"><ele>35.666666666666664</ele><time>2026-05-05T15:45:34.177Z</time></trkpt><trkpt lat="38.0977367" lon="13.3731883"><ele>35.5</ele><time>2026-05-05T15:45:36.176Z</time></trkpt><trkpt lat="38.0978267" lon="13.373135"><ele>35.33333333333333</ele><time>2026-05-05T15:45:38.176Z</time></trkpt><trkpt lat="38.0978867" lon="13.37309"><ele>35.166666666666664</ele><time>2026-05-05T15:45:39.176Z</time></trkpt><trkpt lat="38.0979467" lon="13.373045"><ele>35.0</ele><time>2026-05-05T15:45:40.176Z</time></trkpt><trkpt lat="38.0980017" lon="13.3730033"><ele>35.0</ele><time>2026-05-05T15:45:41.176Z</time></trkpt><trkpt lat="38.0981067" lon="13.3729317"><ele>35.0</ele><time>2026-05-05T15:45:43.176Z</time></trkpt><trkpt lat="38.09819" lon="13.372865"><ele>35.0</ele><time>2026-05-05T15:45:45.176Z</time></trkpt><trkpt lat="38.098265" lon="13.3728"><ele>35.0</ele><time>2026-05-05T15:45:47.176Z</time></trkpt><trkpt lat="38.0983333" lon="13.3727433"><ele>35.0</ele><time>2026-05-05T15:45:49.176Z</time></trkpt><trkpt lat="38.0984033" lon="13.3727067"><ele>34.83333333333333</ele><time>2026-05-05T15:45:51.176Z</time></trkpt><trkpt lat="38.0984833" lon="13.3726767"><ele>34.666666666666664</ele><time>2026-05-05T15:45:54.176Z</time></trkpt><trkpt lat="38.0985517" lon="13.3726317"><ele>34.5</ele><time>2026-05-05T15:45:57.176Z</time></trkpt><trkpt lat="38.0986133" lon="13.3725917"><ele>34.333333333333336</ele><time>2026-05-05T15:46:00.177Z</time></trkpt><trkpt lat="38.09867" lon="13.372555"><ele>34.16666666666667</ele><time>2026-05-05T15:46:02.176Z</time></trkpt><trkpt lat="38.0987383" lon="13.3725183"><ele>34.0</ele><time>2026-05-05T15:46:04.177Z</time></trkpt><trkpt lat="38.0988133" lon="13.3724717"><ele>34.0</ele><time>2026-05-05T15:46:06.176Z</time></trkpt><trkpt lat="38.09889" lon="13.3724067"><ele>34.0</ele><time>2026-05-05T15:46:08.177Z</time></trkpt><trkpt lat="38.0989783" lon="13.3723467"><ele>34.0</ele><time>2026-05-05T15:46:10.176Z</time></trkpt><trkpt lat="38.09907" lon="13.372295"><ele>34.0</ele><time>2026-05-05T15:46:12.176Z</time></trkpt><trkpt lat="38.0991717" lon="13.372275"><ele>34.0</ele><time>2026-05-05T15:46:14.176Z</time></trkpt><trkpt lat="38.09925" lon="13.372265"><ele>33.5</ele><time>2026-05-05T15:46:17.176Z</time></trkpt><trkpt lat="38.0993383" lon="13.3723217"><ele>33.0</ele><time>2026-05-05T15:46:20.176Z</time></trkpt><trkpt lat="38.0993933" lon="13.3723867"><ele>32.5</ele><time>2026-05-05T15:46:22.176Z</time></trkpt><trkpt lat="38.09945" lon="13.3724533"><ele>32.0</ele><time>2026-05-05T15:46:24.176Z</time></trkpt><trkpt lat="38.0994967" lon="13.37252"><ele>31.500000000000004</ele><time>2026-05-05T15:46:27.176Z</time></trkpt><trkpt lat="38.09955" lon="13.3725733"><ele>31.0</ele><time>2026-05-05T15:46:30.176Z</time></trkpt><trkpt lat="38.099625" lon="13.3726533"><ele>31.0</ele><time>2026-05-05T15:46:33.177Z</time></trkpt><trkpt lat="38.09969" lon="13.3727417"><ele>31.0</ele><time>2026-05-05T15:46:35.176Z</time></trkpt><trkpt lat="38.0997733" lon="13.3728633"><ele>31.0</ele><time>2026-05-05T15:46:37.176Z</time></trkpt><trkpt lat="38.0998667" lon="13.3729517"><ele>31.0</ele><time>2026-05-05T15:46:39.176Z</time></trkpt><trkpt lat="38.0999633" lon="13.3730183"><ele>31.0</ele><time>2026-05-05T15:46:41.176Z</time></trkpt><trkpt lat="38.10002" lon="13.373055"><ele>30.714285714285715</ele><time>2026-05-05T15:46:42.177Z</time></trkpt><trkpt lat="38.100085" lon="13.3730867"><ele>30.42857142857143</ele><time>2026-05-05T15:46:43.176Z</time></trkpt><trkpt lat="38.10015" lon="13.3731217"><ele>30.142857142857146</ele><time>2026-05-05T15:46:44.176Z</time></trkpt><trkpt lat="38.1002133" lon="13.37315"><ele>29.85714285714286</ele><time>2026-05-05T15:46:45.176Z</time></trkpt><trkpt lat="38.1002733" lon="13.37318"><ele>29.571428571428573</ele><time>2026-05-05T15:46:46.177Z</time></trkpt><trkpt lat="38.10034" lon="13.3732133"><ele>29.285714285714292</ele><time>2026-05-05T15:46:47.176Z</time></trkpt><trkpt lat="38.1004133" lon="13.3732417"><ele>29.000000000000004</ele><time>2026-05-05T15:46:48.176Z</time></trkpt><trkpt lat="38.1004883" lon="13.3732667"><ele>28.999999999999996</ele><time>2026-05-05T15:46:49.176Z</time></trkpt><trkpt lat="38.100555" lon="13.373295"><ele>29.0</ele><time>2026-05-05T15:46:50.176Z</time></trkpt><trkpt lat="38.100625" lon="13.3733317"><ele>29.0</ele><time>2026-05-05T15:46:51.176Z</time></trkpt><trkpt lat="38.1006983" lon="13.3733667"><ele>29.0</ele><time>2026-05-05T15:46:52.176Z</time></trkpt><trkpt lat="38.1007667" lon="13.3733983"><ele>28.999999999999996</ele><time>2026-05-05T15:46:53.176Z</time></trkpt><trkpt lat="38.10083" lon="13.3734233"><ele>29.0</ele><time>2026-05-05T15:46:54.177Z</time></trkpt><trkpt lat="38.10093" lon="13.373455"><ele>28.0</ele><time>2026-05-05T15:46:56.176Z</time></trkpt><trkpt lat="38.1010217" lon="13.37346"><ele>27.0</ele><time>2026-05-05T15:46:58.176Z</time></trkpt><trkpt lat="38.1011317" lon="13.3734783"><ele>26.0</ele><time>2026-05-05T15:47:00.176Z</time></trkpt><trkpt lat="38.101205" lon="13.3734967"><ele>25.0</ele><time>2026-05-05T15:47:01.176Z</time></trkpt><trkpt lat="38.1012917" lon="13.3735217"><ele>24.0</ele><time>2026-05-05T15:47:02.176Z</time></trkpt><trkpt lat="38.1013917" lon="13.3735517"><ele>24.0</ele><time>2026-05-05T15:47:03.176Z</time></trkpt><trkpt lat="38.1014883" lon="13.3735783"><ele>24.0</ele><time>2026-05-05T15:47:04.177Z</time></trkpt><trkpt lat="38.1015817" lon="13.373605"><ele>24.0</ele><time>2026-05-05T15:47:05.177Z</time></trkpt><trkpt lat="38.1016933" lon="13.3736833"><ele>24.0</ele><time>2026-05-05T15:47:06.176Z</time></trkpt><trkpt lat="38.1017817" lon="13.37369"><ele>24.0</ele><time>2026-05-05T15:47:07.176Z</time></trkpt><trkpt lat="38.1018567" lon="13.3736983"><ele>23.833333333333332</ele><time>2026-05-05T15:47:08.176Z</time></trkpt><trkpt lat="38.101945" lon="13.373715"><ele>23.666666666666668</ele><time>2026-05-05T15:47:09.176Z</time></trkpt><trkpt lat="38.1020267" lon="13.3737383"><ele>23.5</ele><time>2026-05-05T15:47:10.177Z</time></trkpt><trkpt lat="38.1021083" lon="13.373765"><ele>23.333333333333336</ele><time>2026-05-05T15:47:11.176Z</time></trkpt><trkpt lat="38.102195" lon="13.37378"><ele>23.166666666666668</ele><time>2026-05-05T15:47:12.176Z</time></trkpt><trkpt lat="38.1022833" lon="13.373825"><ele>23.0</ele><time>2026-05-05T15:47:13.176Z</time></trkpt><trkpt lat="38.1023683" lon="13.3738733"><ele>22.5</ele><time>2026-05-05T15:47:14.176Z</time></trkpt><trkpt lat="38.1024467" lon="13.3739183"><ele>22.0</ele><time>2026-05-05T15:47:15.176Z</time></trkpt><trkpt lat="38.102525" lon="13.3739517"><ele>21.5</ele><time>2026-05-05T15:47:16.176Z</time></trkpt><trkpt lat="38.102605" lon="13.3739767"><ele>21.0</ele><time>2026-05-05T15:47:17.176Z</time></trkpt><trkpt lat="38.102695" lon="13.374"><ele>20.5</ele><time>2026-05-05T15:47:18.176Z</time></trkpt><trkpt lat="38.1027833" lon="13.3740133"><ele>20.0</ele><time>2026-05-05T15:47:19.176Z</time></trkpt><trkpt lat="38.1028717" lon="13.3740383"><ele>20.0</ele><time>2026-05-05T15:47:20.176Z</time></trkpt><trkpt lat="38.1029467" lon="13.3740583"><ele>20.0</ele><time>2026-05-05T15:47:21.176Z</time></trkpt><trkpt lat="38.1030483" lon="13.374065"><ele>20.0</ele><time>2026-05-05T15:47:22.176Z</time></trkpt><trkpt lat="38.10311" lon="13.3740833"><ele>20.0</ele><time>2026-05-05T15:47:23.176Z</time></trkpt><trkpt lat="38.1031833" lon="13.37411"><ele>20.0</ele><time>2026-05-05T15:47:24.176Z</time></trkpt><trkpt lat="38.10324" lon="13.374145"><ele>20.0</ele><time>2026-05-05T15:47:25.176Z</time></trkpt><trkpt lat="38.1033033" lon="13.3741583"><ele>20.0</ele><time>2026-05-05T15:47:26.177Z</time></trkpt><trkpt lat="38.103415" lon="13.374215"><ele>19.333333333333336</ele><time>2026-05-05T15:47:28.176Z</time></trkpt><trkpt lat="38.1034767" lon="13.3742367"><ele>18.666666666666668</ele><time>2026-05-05T15:47:29.176Z</time></trkpt><trkpt lat="38.1035483" lon="13.3742483"><ele>18.0</ele><time>2026-05-05T15:47:30.176Z</time></trkpt><trkpt lat="38.1036417" lon="13.3743067"><ele>17.333333333333332</ele><time>2026-05-05T15:47:31.177Z</time></trkpt><trkpt lat="38.1037233" lon="13.3743633"><ele>16.666666666666664</ele><time>2026-05-05T15:47:32.176Z</time></trkpt><trkpt lat="38.1038033" lon="13.3743917"><ele>16.0</ele><time>2026-05-05T15:47:33.176Z</time></trkpt><trkpt lat="38.1038733" lon="13.3743983"><ele>16.0</ele><time>2026-05-05T15:47:34.176Z</time></trkpt><trkpt lat="38.1039867" lon="13.37444"><ele>16.0</ele><time>2026-05-05T15:47:36.176Z</time></trkpt><trkpt lat="38.104095" lon="13.3744683"><ele>16.0</ele><time>2026-05-05T15:47:38.177Z</time></trkpt><trkpt lat="38.104195" lon="13.3744717"><ele>16.0</ele><time>2026-05-05T15:47:40.176Z</time></trkpt><trkpt lat="38.1043017" lon="13.3745"><ele>16.0</ele><time>2026-05-05T15:47:41.177Z</time></trkpt><trkpt lat="38.1043733" lon="13.3744617"><ele>15.999999999999998</ele><time>2026-05-05T15:47:42.176Z</time></trkpt><trkpt lat="38.1044367" lon="13.3744833"><ele>16.0</ele><time>2026-05-05T15:47:44.176Z</time></trkpt><trkpt lat="38.1044833" lon="13.374595"><ele>16.0</ele><time>2026-05-05T15:47:45.176Z</time></trkpt><trkpt lat="38.10455" lon="13.37461"><ele>16.0</ele><time>2026-05-05T15:47:47.176Z</time></trkpt><trkpt lat="38.1046133" lon="13.3746417"><ele>15.999999999999998</ele><time>2026-05-05T15:47:49.176Z</time></trkpt><trkpt lat="38.10465" lon="13.3747783"><ele>16.0</ele><time>2026-05-05T15:47:52.176Z</time></trkpt><trkpt lat="38.10465" lon="13.374865"><ele>16.0</ele><time>2026-05-05T15:47:53.176Z</time></trkpt><trkpt lat="38.10465" lon="13.374975"><ele>16.0</ele><time>2026-05-05T15:47:54.176Z</time></trkpt><trkpt lat="38.1046383" lon="13.3751033"><ele>16.0</ele><time>2026-05-05T15:47:55.176Z</time></trkpt><trkpt lat="38.10463" lon="13.3752517"><ele>16.0</ele><time>2026-05-05T15:47:56.176Z</time></trkpt><trkpt lat="38.1046167" lon="13.3754033"><ele>16.0</ele><time>2026-05-05T15:47:57.177Z</time></trkpt><trkpt lat="38.1045967" lon="13.3755433"><ele>15.666666666666666</ele><time>2026-05-05T15:47:58.176Z</time></trkpt><trkpt lat="38.1045817" lon="13.37566"><ele>15.333333333333332</ele><time>2026-05-05T15:47:59.176Z</time></trkpt><trkpt lat="38.1045617" lon="13.3757533"><ele>15.0</ele><time>2026-05-05T15:48:00.176Z</time></trkpt><trkpt lat="38.10454" lon="13.3758317"><ele>14.666666666666668</ele><time>2026-05-05T15:48:01.176Z</time></trkpt><trkpt lat="38.1045017" lon="13.375985"><ele>14.333333333333334</ele><time>2026-05-05T15:48:03.176Z</time></trkpt><trkpt lat="38.10448" lon="13.3760667"><ele>14.0</ele><time>2026-05-05T15:48:04.176Z</time></trkpt><trkpt lat="38.1044617" lon="13.3761433"><ele>14.0</ele><time>2026-05-05T15:48:05.176Z</time></trkpt><trkpt lat="38.10442" lon="13.37626"><ele>13.999999999999998</ele><time>2026-05-05T15:48:07.176Z</time></trkpt><trkpt lat="38.1043667" lon="13.3763767"><ele>13.999999999999998</ele><time>2026-05-05T15:48:09.176Z</time></trkpt><trkpt lat="38.1043117" lon="13.37649"><ele>14.0</ele><time>2026-05-05T15:48:11.176Z</time></trkpt><trkpt lat="38.1042417" lon="13.3765967"><ele>14.0</ele><time>2026-05-05T15:48:13.176Z</time></trkpt><trkpt lat="38.1041767" lon="13.3767133"><ele>13.833333333333334</ele><time>2026-05-05T15:48:15.176Z</time></trkpt><trkpt lat="38.1041333" lon="13.3768083"><ele>13.666666666666668</ele><time>2026-05-05T15:48:17.176Z</time></trkpt><trkpt lat="38.1040817" lon="13.3768883"><ele>13.5</ele><time>2026-05-05T15:48:19.177Z</time></trkpt><trkpt lat="38.104055" lon="13.376965"><ele>13.333333333333332</ele><time>2026-05-05T15:48:21.176Z</time></trkpt><trkpt lat="38.1040133" lon="13.3770667"><ele>13.166666666666666</ele><time>2026-05-05T15:48:24.176Z</time></trkpt><trkpt lat="38.1039783" lon="13.3771617"><ele>13.0</ele><time>2026-05-05T15:49:09.176Z</time></trkpt><trkpt lat="38.1039333" lon="13.3772767"><ele>13.166666666666666</ele><time>2026-05-05T15:49:11.176Z</time></trkpt><trkpt lat="38.1039517" lon="13.3774117"><ele>13.333333333333332</ele><time>2026-05-05T15:49:13.176Z</time></trkpt><trkpt lat="38.1039983" lon="13.3774717"><ele>13.5</ele><time>2026-05-05T15:49:15.177Z</time></trkpt><trkpt lat="38.1041167" lon="13.37747"><ele>13.666666666666668</ele><time>2026-05-05T15:49:17.176Z</time></trkpt><trkpt lat="38.1041833" lon="13.3774383"><ele>13.833333333333334</ele><time>2026-05-05T15:49:18.176Z</time></trkpt><trkpt lat="38.104255" lon="13.3773983"><ele>14.0</ele><time>2026-05-05T15:49:19.177Z</time></trkpt><trkpt lat="38.1043283" lon="13.37733"><ele>14.0</ele><time>2026-05-05T15:49:20.176Z</time></trkpt><trkpt lat="38.1043967" lon="13.3772283"><ele>14.0</ele><time>2026-05-05T15:49:21.176Z</time></trkpt><trkpt lat="38.104475" lon="13.3771183"><ele>14.0</ele><time>2026-05-05T15:49:22.176Z</time></trkpt><trkpt lat="38.1045483" lon="13.37698"><ele>14.0</ele><time>2026-05-05T15:49:23.176Z</time></trkpt><trkpt lat="38.10462" lon="13.37684"><ele>13.75</ele><time>2026-05-05T15:49:24.177Z</time></trkpt><trkpt lat="38.1046983" lon="13.37672"><ele>13.5</ele><time>2026-05-05T15:49:25.176Z</time></trkpt><trkpt lat="38.1047733" lon="13.3765933"><ele>13.25</ele><time>2026-05-05T15:49:26.176Z</time></trkpt><trkpt lat="38.1048533" lon="13.37646"><ele>13.0</ele><time>2026-05-05T15:49:27.176Z</time></trkpt><trkpt lat="38.104935" lon="13.376335"><ele>12.8</ele><time>2026-05-05T15:49:28.176Z</time></trkpt><trkpt lat="38.1050083" lon="13.37622"><ele>12.600000000000001</ele><time>2026-05-05T15:49:29.176Z</time></trkpt><trkpt lat="38.10508" lon="13.376105"><ele>12.399999999999999</ele><time>2026-05-05T15:49:30.176Z</time></trkpt><trkpt lat="38.10514" lon="13.376"><ele>12.2</ele><time>2026-05-05T15:49:31.176Z</time></trkpt><trkpt lat="38.1051933" lon="13.3759"><ele>12.0</ele><time>2026-05-05T15:49:32.176Z</time></trkpt><trkpt lat="38.105245" lon="13.3758133"><ele>12.0</ele><time>2026-05-05T15:49:33.176Z</time></trkpt><trkpt lat="38.10529" lon="13.3757433"><ele>12.0</ele><time>2026-05-05T15:49:34.176Z</time></trkpt><trkpt lat="38.1053483" lon="13.3756583"><ele>12.0</ele><time>2026-05-05T15:49:36.176Z</time></trkpt><trkpt lat="38.105395" lon="13.37557"><ele>12.0</ele><time>2026-05-05T15:49:53.176Z</time></trkpt><trkpt lat="38.1054483" lon="13.3754667"><ele>12.0</ele><time>2026-05-05T15:49:55.176Z</time></trkpt><trkpt lat="38.1055133" lon="13.3753683"><ele>12.0</ele><time>2026-05-05T15:49:57.176Z</time></trkpt><trkpt lat="38.10559" lon="13.375255"><ele>12.0</ele><time>2026-05-05T15:49:59.177Z</time></trkpt><trkpt lat="38.1056383" lon="13.37519"><ele>12.0</ele><time>2026-05-05T15:50:00.176Z</time></trkpt><trkpt lat="38.1056933" lon="13.375125"><ele>12.0</ele><time>2026-05-05T15:50:01.176Z</time></trkpt><trkpt lat="38.1057517" lon="13.375055"><ele>12.0</ele><time>2026-05-05T15:50:02.176Z</time></trkpt><trkpt lat="38.105815" lon="13.3749867"><ele>12.0</ele><time>2026-05-05T15:50:03.177Z</time></trkpt><trkpt lat="38.1058833" lon="13.3749183"><ele>12.0</ele><time>2026-05-05T15:50:04.176Z</time></trkpt><trkpt lat="38.1059533" lon="13.3748467"><ele>12.0</ele><time>2026-05-05T15:50:05.176Z</time></trkpt><trkpt lat="38.1060133" lon="13.37477"><ele>12.0</ele><time>2026-05-05T15:50:06.176Z</time></trkpt><trkpt lat="38.1060683" lon="13.3746817"><ele>12.0</ele><time>2026-05-05T15:50:07.177Z</time></trkpt><trkpt lat="38.1061283" lon="13.3745833"><ele>12.0</ele><time>2026-05-05T15:50:08.176Z</time></trkpt><trkpt lat="38.1061817" lon="13.3744867"><ele>12.0</ele><time>2026-05-05T15:50:09.176Z</time></trkpt><trkpt lat="38.10624" lon="13.3743933"><ele>11.833333333333334</ele><time>2026-05-05T15:50:10.177Z</time></trkpt><trkpt lat="38.1062867" lon="13.3743017"><ele>11.666666666666666</ele><time>2026-05-05T15:50:11.176Z</time></trkpt><trkpt lat="38.1063367" lon="13.3742167"><ele>11.5</ele><time>2026-05-05T15:50:12.176Z</time></trkpt><trkpt lat="38.1063933" lon="13.37413"><ele>11.333333333333332</ele><time>2026-05-05T15:50:13.176Z</time></trkpt><trkpt lat="38.1064483" lon="13.37404"><ele>11.166666666666666</ele><time>2026-05-05T15:50:14.176Z</time></trkpt><trkpt lat="38.1065033" lon="13.3739567"><ele>11.0</ele><time>2026-05-05T15:50:15.176Z</time></trkpt><trkpt lat="38.1065517" lon="13.373875"><ele>11.714285714285715</ele><time>2026-05-05T15:50:16.176Z</time></trkpt><trkpt lat="38.1065967" lon="13.373805"><ele>12.428571428571427</ele><time>2026-05-05T15:50:17.176Z</time></trkpt><trkpt lat="38.1066467" lon="13.3737433"><ele>13.142857142857142</ele><time>2026-05-05T15:50:18.176Z</time></trkpt><trkpt lat="38.1067067" lon="13.3737033"><ele>13.857142857142858</ele><time>2026-05-05T15:50:19.176Z</time></trkpt><trkpt lat="38.1067733" lon="13.37369"><ele>14.57142857142857</ele><time>2026-05-05T15:50:20.176Z</time></trkpt><trkpt lat="38.10685" lon="13.3737033"><ele>15.285714285714285</ele><time>2026-05-05T15:50:21.176Z</time></trkpt><trkpt lat="38.10694" lon="13.37373"><ele>16.0</ele><time>2026-05-05T15:50:22.176Z</time></trkpt><trkpt lat="38.107035" lon="13.3737533"><ele>15.999999999999998</ele><time>2026-05-05T15:50:23.176Z</time></trkpt><trkpt lat="38.1071267" lon="13.37377"><ele>16.0</ele><time>2026-05-05T15:50:24.176Z</time></trkpt><trkpt lat="38.1072117" lon="13.37379"><ele>16.0</ele><time>2026-05-05T15:50:25.176Z</time></trkpt><trkpt lat="38.1072883" lon="13.37381"><ele>16.0</ele><time>2026-05-05T15:50:26.176Z</time></trkpt><trkpt lat="38.107355" lon="13.3738183"><ele>15.999999999999998</ele><time>2026-05-05T15:50:27.177Z</time></trkpt><trkpt lat="38.1074233" lon="13.373845"><ele>16.0</ele><time>2026-05-05T15:50:28.176Z</time></trkpt><trkpt lat="38.1075" lon="13.37389"><ele>15.25</ele><time>2026-05-05T15:50:29.176Z</time></trkpt><trkpt lat="38.1075933" lon="13.3739383"><ele>14.5</ele><time>2026-05-05T15:50:30.176Z</time></trkpt><trkpt lat="38.1076983" lon="13.3740067"><ele>13.75</ele><time>2026-05-05T15:50:31.176Z</time></trkpt><trkpt lat="38.1078083" lon="13.3740833"><ele>13.0</ele><time>2026-05-05T15:50:32.177Z</time></trkpt><trkpt lat="38.10791" lon="13.3741617"><ele>13.0</ele><time>2026-05-05T15:50:33.177Z</time></trkpt><trkpt lat="38.1080083" lon="13.3742267"><ele>13.0</ele><time>2026-05-05T15:50:34.176Z</time></trkpt><trkpt lat="38.1081133" lon="13.374305"><ele>13.0</ele><time>2026-05-05T15:50:35.176Z</time></trkpt><trkpt lat="38.1082217" lon="13.3743817"><ele>13.0</ele><time>2026-05-05T15:50:36.176Z</time></trkpt><trkpt lat="38.10833" lon="13.3744683"><ele>13.25</ele><time>2026-05-05T15:50:37.176Z</time></trkpt><trkpt lat="38.1084333" lon="13.3745617"><ele>13.5</ele><time>2026-05-05T15:50:38.176Z</time></trkpt><trkpt lat="38.1085483" lon="13.37464"><ele>13.75</ele><time>2026-05-05T15:50:39.176Z</time></trkpt><trkpt lat="38.108665" lon="13.374725"><ele>14.0</ele><time>2026-05-05T15:50:40.176Z</time></trkpt><trkpt lat="38.1087883" lon="13.3748183"><ele>13.666666666666668</ele><time>2026-05-05T15:50:41.176Z</time></trkpt><trkpt lat="38.10892" lon="13.3749217"><ele>13.333333333333332</ele><time>2026-05-05T15:50:42.176Z</time></trkpt><trkpt lat="38.10905" lon="13.3750133"><ele>13.0</ele><time>2026-05-05T15:50:43.177Z</time></trkpt><trkpt lat="38.1091817" lon="13.375105"><ele>13.0</ele><time>2026-05-05T15:50:44.176Z</time></trkpt><trkpt lat="38.109315" lon="13.3752033"><ele>13.0</ele><time>2026-05-05T15:50:45.176Z</time></trkpt><trkpt lat="38.109435" lon="13.3752983"><ele>13.0</ele><time>2026-05-05T15:50:46.176Z</time></trkpt><trkpt lat="38.1095617" lon="13.3753933"><ele>13.0</ele><time>2026-05-05T15:50:47.176Z</time></trkpt><trkpt lat="38.109695" lon="13.37549"><ele>13.0</ele><time>2026-05-05T15:50:48.176Z</time></trkpt><trkpt lat="38.1098267" lon="13.3755867"><ele>13.0</ele><time>2026-05-05T15:50:49.176Z</time></trkpt><trkpt lat="38.1099583" lon="13.37568"><ele>13.0</ele><time>2026-05-05T15:50:50.176Z</time></trkpt><trkpt lat="38.110085" lon="13.37578"><ele>13.0</ele><time>2026-05-05T15:50:51.176Z</time></trkpt><trkpt lat="38.110205" lon="13.3758683"><ele>13.0</ele><time>2026-05-05T15:50:52.177Z</time></trkpt><trkpt lat="38.110325" lon="13.375955"><ele>13.0</ele><time>2026-05-05T15:50:53.176Z</time></trkpt><trkpt lat="38.1104533" lon="13.3760367"><ele>13.0</ele><time>2026-05-05T15:50:54.176Z</time></trkpt><trkpt lat="38.1105617" lon="13.3761233"><ele>13.0</ele><time>2026-05-05T15:50:55.176Z</time></trkpt><trkpt lat="38.1106767" lon="13.3762217"><ele>13.0</ele><time>2026-05-05T15:50:56.176Z</time></trkpt><trkpt lat="38.1107983" lon="13.3763083"><ele>13.0</ele><time>2026-05-05T15:50:57.176Z</time></trkpt><trkpt lat="38.1109" lon="13.3763933"><ele>13.0</ele><time>2026-05-05T15:50:58.176Z</time></trkpt><trkpt lat="38.11101" lon="13.3764717"><ele>12.5</ele><time>2026-05-05T15:50:59.176Z</time></trkpt><trkpt lat="38.1111217" lon="13.3765517"><ele>12.0</ele><time>2026-05-05T15:51:00.176Z</time></trkpt><trkpt lat="38.1112267" lon="13.3766233"><ele>11.5</ele><time>2026-05-05T15:51:01.176Z</time></trkpt><trkpt lat="38.1113233" lon="13.3766833"><ele>11.0</ele><time>2026-05-05T15:51:02.176Z</time></trkpt><trkpt lat="38.1114183" lon="13.3767417"><ele>11.0</ele><time>2026-05-05T15:51:03.177Z</time></trkpt><trkpt lat="38.1115183" lon="13.376795"><ele>11.0</ele><time>2026-05-05T15:51:04.176Z</time></trkpt><trkpt lat="38.1116017" lon="13.376835"><ele>11.0</ele><time>2026-05-05T15:51:05.176Z</time></trkpt><trkpt lat="38.1116867" lon="13.37687"><ele>11.0</ele><time>2026-05-05T15:51:06.176Z</time></trkpt><trkpt lat="38.1117683" lon="13.3769017"><ele>11.0</ele><time>2026-05-05T15:51:07.176Z</time></trkpt><trkpt lat="38.1118433" lon="13.37693"><ele>11.0</ele><time>2026-05-05T15:51:08.176Z</time></trkpt><trkpt lat="38.11192" lon="13.3769517"><ele>11.0</ele><time>2026-05-05T15:51:09.176Z</time></trkpt><trkpt lat="38.1119933" lon="13.37697"><ele>11.0</ele><time>2026-05-05T15:51:10.176Z</time></trkpt><trkpt lat="38.1121183" lon="13.3770083"><ele>11.0</ele><time>2026-05-05T15:51:12.176Z</time></trkpt><trkpt lat="38.112175" lon="13.3770517"><ele>11.0</ele><time>2026-05-05T15:51:13.176Z</time></trkpt><trkpt lat="38.1122317" lon="13.37712"><ele>11.0</ele><time>2026-05-05T15:51:14.177Z</time></trkpt><trkpt lat="38.11228" lon="13.3771917"><ele>10.857142857142858</ele><time>2026-05-05T15:51:15.176Z</time></trkpt><trkpt lat="38.1123317" lon="13.377255"><ele>10.714285714285714</ele><time>2026-05-05T15:51:16.176Z</time></trkpt><trkpt lat="38.1123817" lon="13.377315"><ele>10.571428571428571</ele><time>2026-05-05T15:51:17.176Z</time></trkpt><trkpt lat="38.1124283" lon="13.3773717"><ele>10.428571428571429</ele><time>2026-05-05T15:51:18.176Z</time></trkpt><trkpt lat="38.1124767" lon="13.3774233"><ele>10.285714285714286</ele><time>2026-05-05T15:51:19.176Z</time></trkpt><trkpt lat="38.1125533" lon="13.377505"><ele>10.142857142857142</ele><time>2026-05-05T15:51:21.176Z</time></trkpt><trkpt lat="38.1126117" lon="13.377535"><ele>10.0</ele><time>2026-05-05T15:51:23.177Z</time></trkpt><trkpt lat="38.112695" lon="13.3776033"><ele>10.0</ele><time>2026-05-05T15:51:25.176Z</time></trkpt><trkpt lat="38.1127833" lon="13.3776967"><ele>10.0</ele><time>2026-05-05T15:51:27.176Z</time></trkpt><trkpt lat="38.1128483" lon="13.3777633"><ele>10.0</ele><time>2026-05-05T15:51:29.177Z</time></trkpt><trkpt lat="38.1128933" lon="13.3778217"><ele>10.0</ele><time>2026-05-05T15:51:33.176Z</time></trkpt><trkpt lat="38.11296" lon="13.3779"><ele>10.0</ele><time>2026-05-05T15:51:41.176Z</time></trkpt><trkpt lat="38.113025" lon="13.377935"><ele>10.0</ele><time>2026-05-05T15:51:45.176Z</time></trkpt><trkpt lat="38.1131467" lon="13.3778867"><ele>10.0</ele><time>2026-05-05T15:51:47.176Z</time></trkpt><trkpt lat="38.1132333" lon="13.3778333"><ele>10.0</ele><time>2026-05-05T15:51:48.176Z</time></trkpt><trkpt lat="38.1133283" lon="13.37777"><ele>10.0</ele><time>2026-05-05T15:51:49.176Z</time></trkpt><trkpt lat="38.1133983" lon="13.3777083"><ele>10.0</ele><time>2026-05-05T15:51:50.176Z</time></trkpt><trkpt lat="38.1134583" lon="13.3776717"><ele>10.0</ele><time>2026-05-05T15:51:51.176Z</time></trkpt><trkpt lat="38.1135183" lon="13.377615"><ele>10.0</ele><time>2026-05-05T15:51:53.176Z</time></trkpt><trkpt lat="38.11357" lon="13.3775683"><ele>9.4</ele><time>2026-05-05T15:51:56.176Z</time></trkpt><trkpt lat="38.1136283" lon="13.3775217"><ele>8.8</ele><time>2026-05-05T15:51:58.176Z</time></trkpt><trkpt lat="38.1137433" lon="13.3774433"><ele>8.2</ele><time>2026-05-05T15:52:00.176Z</time></trkpt><trkpt lat="38.113815" lon="13.3773933"><ele>7.6</ele><time>2026-05-05T15:52:01.176Z</time></trkpt><trkpt lat="38.1138917" lon="13.3773333"><ele>7.0</ele><time>2026-05-05T15:52:02.176Z</time></trkpt><trkpt lat="38.11397" lon="13.37727"><ele>7.0</ele><time>2026-05-05T15:52:03.176Z</time></trkpt><trkpt lat="38.1140517" lon="13.3772067"><ele>6.999999999999999</ele><time>2026-05-05T15:52:04.176Z</time></trkpt><trkpt lat="38.11414" lon="13.377145"><ele>6.999999999999999</ele><time>2026-05-05T15:52:05.177Z</time></trkpt><trkpt lat="38.114225" lon="13.3770767"><ele>7.0</ele><time>2026-05-05T15:52:06.176Z</time></trkpt><trkpt lat="38.1143133" lon="13.3770017"><ele>7.0</ele><time>2026-05-05T15:52:07.177Z</time></trkpt><trkpt lat="38.1144033" lon="13.376935"><ele>7.3999999999999995</ele><time>2026-05-05T15:52:08.176Z</time></trkpt><trkpt lat="38.114495" lon="13.3768667"><ele>7.799999999999999</ele><time>2026-05-05T15:52:09.176Z</time></trkpt><trkpt lat="38.1145967" lon="13.3767967"><ele>8.2</ele><time>2026-05-05T15:52:10.176Z</time></trkpt><trkpt lat="38.1146933" lon="13.3767283"><ele>8.6</ele><time>2026-05-05T15:52:11.176Z</time></trkpt><trkpt lat="38.11479" lon="13.3766567"><ele>9.0</ele><time>2026-05-05T15:52:12.176Z</time></trkpt><trkpt lat="38.1148867" lon="13.3765833"><ele>8.8</ele><time>2026-05-05T15:52:13.176Z</time></trkpt><trkpt lat="38.11498" lon="13.3765167"><ele>8.600000000000001</ele><time>2026-05-05T15:52:14.176Z</time></trkpt><trkpt lat="38.1150633" lon="13.376455"><ele>8.4</ele><time>2026-05-05T15:52:15.176Z</time></trkpt><trkpt lat="38.1151467" lon="13.3763883"><ele>8.200000000000001</ele><time>2026-05-05T15:52:16.176Z</time></trkpt><trkpt lat="38.11523" lon="13.3763133"><ele>8.0</ele><time>2026-05-05T15:52:17.176Z</time></trkpt><trkpt lat="38.1153083" lon="13.376225"><ele>8.0</ele><time>2026-05-05T15:52:18.176Z</time></trkpt><trkpt lat="38.1153833" lon="13.3761283"><ele>8.0</ele><time>2026-05-05T15:52:19.176Z</time></trkpt><trkpt lat="38.115455" lon="13.3760217"><ele>8.0</ele><time>2026-05-05T15:52:20.176Z</time></trkpt><trkpt lat="38.1155233" lon="13.3759133"><ele>8.0</ele><time>2026-05-05T15:52:21.176Z</time></trkpt><trkpt lat="38.115585" lon="13.3758133"><ele>8.0</ele><time>2026-05-05T15:52:22.176Z</time></trkpt><trkpt lat="38.11565" lon="13.3757117"><ele>8.0</ele><time>2026-05-05T15:52:23.176Z</time></trkpt><trkpt lat="38.1157183" lon="13.375615"><ele>8.0</ele><time>2026-05-05T15:52:24.176Z</time></trkpt><trkpt lat="38.1157833" lon="13.3755183"><ele>8.0</ele><time>2026-05-05T15:52:25.176Z</time></trkpt><trkpt lat="38.1158467" lon="13.3754167"><ele>8.0</ele><time>2026-05-05T15:52:26.176Z</time></trkpt><trkpt lat="38.1159067" lon="13.3753167"><ele>8.0</ele><time>2026-05-05T15:52:27.176Z</time></trkpt><trkpt lat="38.1159683" lon="13.3752217"><ele>7.800000000000001</ele><time>2026-05-05T15:52:28.177Z</time></trkpt><trkpt lat="38.1160333" lon="13.375125"><ele>7.6000000000000005</ele><time>2026-05-05T15:52:29.176Z</time></trkpt><trkpt lat="38.116095" lon="13.3750367"><ele>7.3999999999999995</ele><time>2026-05-05T15:52:30.176Z</time></trkpt><trkpt lat="38.1161517" lon="13.3749483"><ele>7.199999999999999</ele><time>2026-05-05T15:52:31.176Z</time></trkpt><trkpt lat="38.11621" lon="13.3748617"><ele>7.0</ele><time>2026-05-05T15:52:32.176Z</time></trkpt><trkpt lat="38.11627" lon="13.374775"><ele>7.000000000000001</ele><time>2026-05-05T15:52:33.176Z</time></trkpt><trkpt lat="38.1163233" lon="13.3746967"><ele>7.0</ele><time>2026-05-05T15:52:34.176Z</time></trkpt><trkpt lat="38.1163767" lon="13.3746267"><ele>7.0</ele><time>2026-05-05T15:52:35.177Z</time></trkpt><trkpt lat="38.1164233" lon="13.37456"><ele>7.0</ele><time>2026-05-05T15:52:36.176Z</time></trkpt><trkpt lat="38.1164683" lon="13.3745"><ele>7.000000000000001</ele><time>2026-05-05T15:52:37.176Z</time></trkpt><trkpt lat="38.1165417" lon="13.37439"><ele>7.0</ele><time>2026-05-05T15:52:39.176Z</time></trkpt><trkpt lat="38.116605" lon="13.3743033"><ele>6.6</ele><time>2026-05-05T15:52:41.176Z</time></trkpt><trkpt lat="38.1166533" lon="13.37425"><ele>6.199999999999999</ele><time>2026-05-05T15:52:43.176Z</time></trkpt><trkpt lat="38.1167417" lon="13.3741433"><ele>5.8</ele><time>2026-05-05T15:52:54.176Z</time></trkpt><trkpt lat="38.116815" lon="13.37406"><ele>5.4</ele><time>2026-05-05T15:52:55.177Z</time></trkpt><trkpt lat="38.1168967" lon="13.3739617"><ele>5.0</ele><time>2026-05-05T15:52:56.176Z</time></trkpt><trkpt lat="38.1169917" lon="13.3738533"><ele>6.25</ele><time>2026-05-05T15:52:57.176Z</time></trkpt><trkpt lat="38.117085" lon="13.3737517"><ele>7.5</ele><time>2026-05-05T15:52:58.176Z</time></trkpt><trkpt lat="38.1171833" lon="13.3736533"><ele>8.75</ele><time>2026-05-05T15:52:59.176Z</time></trkpt><trkpt lat="38.1172817" lon="13.3735567"><ele>10.0</ele><time>2026-05-05T15:53:00.177Z</time></trkpt><trkpt lat="38.1173817" lon="13.3734633"><ele>9.0</ele><time>2026-05-05T15:53:01.176Z</time></trkpt><trkpt lat="38.1174817" lon="13.3733667"><ele>8.0</ele><time>2026-05-05T15:53:02.176Z</time></trkpt><trkpt lat="38.1175817" lon="13.3732717"><ele>7.0</ele><time>2026-05-05T15:53:03.176Z</time></trkpt><trkpt lat="38.1176867" lon="13.3731783"><ele>6.0</ele><time>2026-05-05T15:53:04.176Z</time></trkpt><trkpt lat="38.1177967" lon="13.3730917"><ele>7.5</ele><time>2026-05-05T15:53:05.176Z</time></trkpt><trkpt lat="38.1179033" lon="13.3730033"><ele>9.0</ele><time>2026-05-05T15:53:06.176Z</time></trkpt><trkpt lat="38.11801" lon="13.372915"><ele>10.5</ele><time>2026-05-05T15:53:07.176Z</time></trkpt><trkpt lat="38.11812" lon="13.3728333"><ele>12.0</ele><time>2026-05-05T15:53:08.176Z</time></trkpt><trkpt lat="38.1182233" lon="13.3727533"><ele>11.0</ele><time>2026-05-05T15:53:09.176Z</time></trkpt><trkpt lat="38.11833" lon="13.3726683"><ele>10.0</ele><time>2026-05-05T15:53:10.176Z</time></trkpt><trkpt lat="38.1184367" lon="13.372585"><ele>9.0</ele><time>2026-05-05T15:53:11.177Z</time></trkpt><trkpt lat="38.1185417" lon="13.3725067"><ele>8.0</ele><time>2026-05-05T15:53:12.176Z</time></trkpt><trkpt lat="38.1186483" lon="13.3724217"><ele>8.0</ele><time>2026-05-05T15:53:13.177Z</time></trkpt><trkpt lat="38.1187633" lon="13.37235"><ele>8.0</ele><time>2026-05-05T15:53:14.176Z</time></trkpt><trkpt lat="38.1188733" lon="13.3722767"><ele>8.0</ele><time>2026-05-05T15:53:15.176Z</time></trkpt><trkpt lat="38.1189833" lon="13.3721967"><ele>8.0</ele><time>2026-05-05T15:53:16.176Z</time></trkpt><trkpt lat="38.1190867" lon="13.37212"><ele>8.4</ele><time>2026-05-05T15:53:17.176Z</time></trkpt><trkpt lat="38.119185" lon="13.3720533"><ele>8.8</ele><time>2026-05-05T15:53:18.176Z</time></trkpt><trkpt lat="38.1192783" lon="13.3719917"><ele>9.2</ele><time>2026-05-05T15:53:19.176Z</time></trkpt><trkpt lat="38.11937" lon="13.371925"><ele>9.6</ele><time>2026-05-05T15:53:20.176Z</time></trkpt><trkpt lat="38.1194583" lon="13.37186"><ele>10.0</ele><time>2026-05-05T15:53:21.176Z</time></trkpt><trkpt lat="38.1195467" lon="13.3718033"><ele>10.0</ele><time>2026-05-05T15:53:22.176Z</time></trkpt><trkpt lat="38.1196167" lon="13.3717433"><ele>10.0</ele><time>2026-05-05T15:53:23.176Z</time></trkpt><trkpt lat="38.1196833" lon="13.371695"><ele>10.0</ele><time>2026-05-05T15:53:24.177Z</time></trkpt><trkpt lat="38.1197467" lon="13.37165"><ele>10.0</ele><time>2026-05-05T15:53:25.176Z</time></trkpt><trkpt lat="38.119805" lon="13.371605"><ele>10.0</ele><time>2026-05-05T15:53:26.176Z</time></trkpt><trkpt lat="38.1198667" lon="13.371565"><ele>10.0</ele><time>2026-05-05T15:53:27.176Z</time></trkpt><trkpt lat="38.1199233" lon="13.37152"><ele>10.0</ele><time>2026-05-05T15:53:28.176Z</time></trkpt><trkpt lat="38.1200283" lon="13.3714233"><ele>9.571428571428571</ele><time>2026-05-05T15:53:30.177Z</time></trkpt><trkpt lat="38.12008" lon="13.3713567"><ele>9.142857142857142</ele><time>2026-05-05T15:53:31.176Z</time></trkpt><trkpt lat="38.1201133" lon="13.3712767"><ele>8.714285714285715</ele><time>2026-05-05T15:53:32.176Z</time></trkpt><trkpt lat="38.12015" lon="13.3711933"><ele>8.285714285714285</ele><time>2026-05-05T15:53:33.176Z</time></trkpt><trkpt lat="38.1201733" lon="13.371105"><ele>7.857142857142858</ele><time>2026-05-05T15:53:34.177Z</time></trkpt><trkpt lat="38.1201817" lon="13.3710133"><ele>7.428571428571429</ele><time>2026-05-05T15:53:35.176Z</time></trkpt><trkpt lat="38.1201817" lon="13.370915"><ele>7.0</ele><time>2026-05-05T15:53:36.176Z</time></trkpt><trkpt lat="38.120175" lon="13.3708117"><ele>7.000000000000001</ele><time>2026-05-05T15:53:37.176Z</time></trkpt><trkpt lat="38.1201467" lon="13.3707183"><ele>7.0</ele><time>2026-05-05T15:53:38.176Z</time></trkpt><trkpt lat="38.1201167" lon="13.3706283"><ele>7.0</ele><time>2026-05-05T15:53:39.176Z</time></trkpt><trkpt lat="38.1200817" lon="13.37054"><ele>7.0</ele><time>2026-05-05T15:53:40.176Z</time></trkpt><trkpt lat="38.120045" lon="13.3704533"><ele>7.000000000000001</ele><time>2026-05-05T15:53:41.176Z</time></trkpt><trkpt lat="38.1200083" lon="13.3703667"><ele>7.0</ele><time>2026-05-05T15:53:42.176Z</time></trkpt><trkpt lat="38.1199667" lon="13.3702733"><ele>6.833333333333334</ele><time>2026-05-05T15:53:43.176Z</time></trkpt><trkpt lat="38.119925" lon="13.370185"><ele>6.666666666666667</ele><time>2026-05-05T15:53:44.176Z</time></trkpt><trkpt lat="38.1198883" lon="13.3700917"><ele>6.5</ele><time>2026-05-05T15:53:45.176Z</time></trkpt><trkpt lat="38.119855" lon="13.3699933"><ele>6.333333333333334</ele><time>2026-05-05T15:53:46.176Z</time></trkpt><trkpt lat="38.1198217" lon="13.36991"><ele>6.166666666666667</ele><time>2026-05-05T15:53:47.176Z</time></trkpt><trkpt lat="38.1197867" lon="13.3698283"><ele>6.0</ele><time>2026-05-05T15:53:48.176Z</time></trkpt><trkpt lat="38.11974" lon="13.3696717"><ele>6.8</ele><time>2026-05-05T15:53:51.176Z</time></trkpt><trkpt lat="38.119675" lon="13.3695533"><ele>7.6</ele><time>2026-05-05T15:53:53.176Z</time></trkpt><trkpt lat="38.11961" lon="13.3694183"><ele>8.4</ele><time>2026-05-05T15:53:55.176Z</time></trkpt><trkpt lat="38.1195433" lon="13.3692917"><ele>9.2</ele><time>2026-05-05T15:53:57.176Z</time></trkpt><trkpt lat="38.1194983" lon="13.3692217"><ele>10.0</ele><time>2026-05-05T15:53:58.176Z</time></trkpt><trkpt lat="38.1194467" lon="13.3691517"><ele>10.0</ele><time>2026-05-05T15:53:59.176Z</time></trkpt><trkpt lat="38.1193967" lon="13.3690767"><ele>10.0</ele><time>2026-05-05T15:54:00.176Z</time></trkpt><trkpt lat="38.1193467" lon="13.3690033"><ele>10.0</ele><time>2026-05-05T15:54:01.177Z</time></trkpt><trkpt lat="38.1192917" lon="13.36893"><ele>10.0</ele><time>2026-05-05T15:54:02.177Z</time></trkpt><trkpt lat="38.1192383" lon="13.3688583"><ele>10.0</ele><time>2026-05-05T15:54:03.176Z</time></trkpt><trkpt lat="38.119185" lon="13.36879"><ele>10.0</ele><time>2026-05-05T15:54:04.176Z</time></trkpt><trkpt lat="38.1191317" lon="13.3687183"><ele>10.0</ele><time>2026-05-05T15:54:05.176Z</time></trkpt><trkpt lat="38.1190783" lon="13.3686367"><ele>10.0</ele><time>2026-05-05T15:54:06.177Z</time></trkpt><trkpt lat="38.119025" lon="13.3685567"><ele>10.0</ele><time>2026-05-05T15:54:07.176Z</time></trkpt><trkpt lat="38.1189817" lon="13.368465"><ele>10.0</ele><time>2026-05-05T15:54:08.176Z</time></trkpt><trkpt lat="38.1189417" lon="13.368385"><ele>10.0</ele><time>2026-05-05T15:54:09.176Z</time></trkpt><trkpt lat="38.1189033" lon="13.3683017"><ele>10.0</ele><time>2026-05-05T15:54:10.176Z</time></trkpt><trkpt lat="38.1188667" lon="13.3682083"><ele>10.0</ele><time>2026-05-05T15:54:11.176Z</time></trkpt><trkpt lat="38.1188367" lon="13.3681183"><ele>10.0</ele><time>2026-05-05T15:54:12.176Z</time></trkpt><trkpt lat="38.118805" lon="13.3680267"><ele>10.0</ele><time>2026-05-05T15:54:13.176Z</time></trkpt><trkpt lat="38.1187867" lon="13.3679333"><ele>10.0</ele><time>2026-05-05T15:54:14.176Z</time></trkpt><trkpt lat="38.118775" lon="13.3678367"><ele>10.0</ele><time>2026-05-05T15:54:15.176Z</time></trkpt><trkpt lat="38.118785" lon="13.3677383"><ele>10.0</ele><time>2026-05-05T15:54:16.177Z</time></trkpt><trkpt lat="38.1188" lon="13.3676467"><ele>10.0</ele><time>2026-05-05T15:54:17.176Z</time></trkpt><trkpt lat="38.1188233" lon="13.3675517"><ele>10.0</ele><time>2026-05-05T15:54:18.176Z</time></trkpt><trkpt lat="38.118845" lon="13.367465"><ele>10.0</ele><time>2026-05-05T15:54:19.177Z</time></trkpt><trkpt lat="38.1188717" lon="13.36739"><ele>10.0</ele><time>2026-05-05T15:54:20.176Z</time></trkpt><trkpt lat="38.1189033" lon="13.367315"><ele>10.0</ele><time>2026-05-05T15:54:21.176Z</time></trkpt><trkpt lat="38.1189767" lon="13.3672"><ele>10.0</ele><time>2026-05-05T15:54:23.176Z</time></trkpt><trkpt lat="38.11905" lon="13.3671417"><ele>9.666666666666668</ele><time>2026-05-05T15:54:25.176Z</time></trkpt><trkpt lat="38.1191183" lon="13.3670817"><ele>9.333333333333334</ele><time>2026-05-05T15:54:28.176Z</time></trkpt><trkpt lat="38.1191717" lon="13.3670367"><ele>9.0</ele><time>2026-05-05T15:54:30.176Z</time></trkpt><trkpt lat="38.1192417" lon="13.3669733"><ele>8.666666666666666</ele><time>2026-05-05T15:54:33.177Z</time></trkpt><trkpt lat="38.1193183" lon="13.3669017"><ele>8.333333333333332</ele><time>2026-05-05T15:54:52.176Z</time></trkpt><trkpt lat="38.1193783" lon="13.3668583"><ele>8.0</ele><time>2026-05-05T15:54:53.177Z</time></trkpt><trkpt lat="38.1194617" lon="13.3668067"><ele>8.0</ele><time>2026-05-05T15:54:54.176Z</time></trkpt><trkpt lat="38.1195633" lon="13.366755"><ele>8.0</ele><time>2026-05-05T15:54:55.176Z</time></trkpt><trkpt lat="38.1196867" lon="13.3667167"><ele>8.0</ele><time>2026-05-05T15:54:56.176Z</time></trkpt><trkpt lat="38.1198233" lon="13.3666917"><ele>8.0</ele><time>2026-05-05T15:54:57.176Z</time></trkpt><trkpt lat="38.1199567" lon="13.3666617"><ele>8.25</ele><time>2026-05-05T15:54:58.177Z</time></trkpt><trkpt lat="38.1200817" lon="13.366635"><ele>8.5</ele><time>2026-05-05T15:54:59.176Z</time></trkpt><trkpt lat="38.1202033" lon="13.3666"><ele>8.75</ele><time>2026-05-05T15:55:00.176Z</time></trkpt><trkpt lat="38.1203167" lon="13.3665567"><ele>9.0</ele><time>2026-05-05T15:55:01.177Z</time></trkpt><trkpt lat="38.12044" lon="13.3665183"><ele>9.0</ele><time>2026-05-05T15:55:02.176Z</time></trkpt><trkpt lat="38.1205633" lon="13.366465"><ele>9.0</ele><time>2026-05-05T15:55:03.176Z</time></trkpt><trkpt lat="38.1206833" lon="13.3663967"><ele>9.0</ele><time>2026-05-05T15:55:04.176Z</time></trkpt><trkpt lat="38.120805" lon="13.3663383"><ele>9.0</ele><time>2026-05-05T15:55:05.176Z</time></trkpt><trkpt lat="38.1209333" lon="13.3662683"><ele>9.25</ele><time>2026-05-05T15:55:06.176Z</time></trkpt><trkpt lat="38.1210533" lon="13.366205"><ele>9.5</ele><time>2026-05-05T15:55:07.176Z</time></trkpt><trkpt lat="38.1211717" lon="13.366135"><ele>9.75</ele><time>2026-05-05T15:55:08.176Z</time></trkpt><trkpt lat="38.1212917" lon="13.3660617"><ele>10.0</ele><time>2026-05-05T15:55:09.176Z</time></trkpt><trkpt lat="38.1214083" lon="13.3659917"><ele>10.0</ele><time>2026-05-05T15:55:10.176Z</time></trkpt><trkpt lat="38.1215317" lon="13.3659283"><ele>10.0</ele><time>2026-05-05T15:55:11.176Z</time></trkpt><trkpt lat="38.1216533" lon="13.36586"><ele>10.0</ele><time>2026-05-05T15:55:12.177Z</time></trkpt><trkpt lat="38.12177" lon="13.365805"><ele>10.0</ele><time>2026-05-05T15:55:13.176Z</time></trkpt><trkpt lat="38.1218917" lon="13.365735"><ele>10.25</ele><time>2026-05-05T15:55:14.176Z</time></trkpt><trkpt lat="38.122005" lon="13.3656617"><ele>10.5</ele><time>2026-05-05T15:55:15.176Z</time></trkpt><trkpt lat="38.1221117" lon="13.3655917"><ele>10.75</ele><time>2026-05-05T15:55:16.176Z</time></trkpt><trkpt lat="38.12222" lon="13.36552"><ele>11.0</ele><time>2026-05-05T15:55:17.176Z</time></trkpt><trkpt lat="38.122325" lon="13.36546"><ele>10.8</ele><time>2026-05-05T15:55:18.177Z</time></trkpt><trkpt lat="38.122425" lon="13.3654"><ele>10.600000000000001</ele><time>2026-05-05T15:55:19.176Z</time></trkpt><trkpt lat="38.1225217" lon="13.3653333"><ele>10.4</ele><time>2026-05-05T15:55:20.176Z</time></trkpt><trkpt lat="38.1226167" lon="13.36528"><ele>10.2</ele><time>2026-05-05T15:55:21.177Z</time></trkpt><trkpt lat="38.122715" lon="13.3652267"><ele>10.0</ele><time>2026-05-05T15:55:22.176Z</time></trkpt><trkpt lat="38.1228067" lon="13.3651683"><ele>10.0</ele><time>2026-05-05T15:55:23.176Z</time></trkpt><trkpt lat="38.1228917" lon="13.3651117"><ele>10.0</ele><time>2026-05-05T15:55:24.176Z</time></trkpt><trkpt lat="38.1229733" lon="13.3650583"><ele>10.0</ele><time>2026-05-05T15:55:25.176Z</time></trkpt><trkpt lat="38.1230483" lon="13.3650133"><ele>10.0</ele><time>2026-05-05T15:55:26.176Z</time></trkpt><trkpt lat="38.1231217" lon="13.3649683"><ele>10.0</ele><time>2026-05-05T15:55:27.176Z</time></trkpt><trkpt lat="38.1231817" lon="13.3649267"><ele>10.0</ele><time>2026-05-05T15:55:28.176Z</time></trkpt><trkpt lat="38.1232367" lon="13.3648767"><ele>10.6</ele><time>2026-05-05T15:55:29.176Z</time></trkpt><trkpt lat="38.1233017" lon="13.3647633"><ele>11.2</ele><time>2026-05-05T15:55:31.176Z</time></trkpt><trkpt lat="38.1233183" lon="13.3646317"><ele>11.8</ele><time>2026-05-05T15:55:33.177Z</time></trkpt><trkpt lat="38.1232767" lon="13.3645367"><ele>12.4</ele><time>2026-05-05T15:55:35.176Z</time></trkpt><trkpt lat="38.123205" lon="13.364455"><ele>13.0</ele><time>2026-05-05T15:55:37.176Z</time></trkpt><trkpt lat="38.1231483" lon="13.3644183"><ele>12.999999999999998</ele><time>2026-05-05T15:55:39.176Z</time></trkpt><trkpt lat="38.1230617" lon="13.3643783"><ele>13.0</ele><time>2026-05-05T15:55:45.177Z</time></trkpt><trkpt lat="38.1229833" lon="13.364345"><ele>13.0</ele><time>2026-05-05T15:55:47.176Z</time></trkpt><trkpt lat="38.1229067" lon="13.36432"><ele>13.0</ele><time>2026-05-05T15:55:50.176Z</time></trkpt><trkpt lat="38.1228417" lon="13.36428"><ele>12.999999999999998</ele><time>2026-05-05T15:55:53.176Z</time></trkpt><trkpt lat="38.1227733" lon="13.3642117"><ele>13.0</ele><time>2026-05-05T15:55:56.176Z</time></trkpt><trkpt lat="38.1227333" lon="13.3641433"><ele>13.0</ele><time>2026-05-05T15:55:58.176Z</time></trkpt><trkpt lat="38.12271" lon="13.3640433"><ele>13.0</ele><time>2026-05-05T15:56:01.176Z</time></trkpt><trkpt lat="38.1228033" lon="13.3639883"><ele>13.0</ele><time>2026-05-05T15:56:04.176Z</time></trkpt><trkpt lat="38.1229017" lon="13.3639683"><ele>13.0</ele><time>2026-05-05T15:56:06.176Z</time></trkpt><trkpt lat="38.12299" lon="13.3639583"><ele>13.0</ele><time>2026-05-05T15:56:08.177Z</time></trkpt><trkpt lat="38.1230667" lon="13.363955"><ele>13.0</ele><time>2026-05-05T15:56:10.176Z</time></trkpt><trkpt lat="38.12313" lon="13.3639417"><ele>13.0</ele><time>2026-05-05T15:56:12.176Z</time></trkpt><trkpt lat="38.1232133" lon="13.363905"><ele>13.0</ele><time>2026-05-05T15:56:15.177Z</time></trkpt><trkpt lat="38.123275" lon="13.3638883"><ele>13.0</ele><time>2026-05-05T15:56:18.176Z</time></trkpt><trkpt lat="38.1232117" lon="13.3638267"><ele>13.0</ele><time>2026-05-05T15:56:30.175Z</time></trkpt><trkpt lat="38.1231467" lon="13.3638367"><ele>13.0</ele><time>2026-05-05T15:56:32.175Z</time></trkpt><trkpt lat="38.1230717" lon="13.3638667"><ele>13.0</ele><time>2026-05-05T15:56:35.175Z</time></trkpt><trkpt lat="38.12315" lon="13.3637633"><ele>14.166666666666666</ele><time>2026-05-05T16:20:15.176Z</time></trkpt><trkpt lat="38.1231683" lon="13.36384"><ele>15.333333333333332</ele><time>2026-05-05T16:25:56.176Z</time></trkpt><trkpt lat="38.1232517" lon="13.3638067"><ele>16.5</ele><time>2026-05-05T16:25:59.177Z</time></trkpt><trkpt lat="38.1233117" lon="13.36378"><ele>17.666666666666668</ele><time>2026-05-05T16:26:02.176Z</time></trkpt><trkpt lat="38.1233833" lon="13.3638517"><ele>18.833333333333336</ele><time>2026-05-05T16:26:15.176Z</time></trkpt><trkpt lat="38.12347" lon="13.3638383"><ele>20.0</ele><time>2026-05-05T16:26:17.176Z</time></trkpt><trkpt lat="38.123575" lon="13.3638283"><ele>20.166666666666668</ele><time>2026-05-05T16:26:19.176Z</time></trkpt><trkpt lat="38.123665" lon="13.36382"><ele>20.333333333333336</ele><time>2026-05-05T16:26:21.176Z</time></trkpt><trkpt lat="38.12373" lon="13.36382"><ele>20.5</ele><time>2026-05-05T16:26:34.176Z</time></trkpt><trkpt lat="38.1237267" lon="13.36373"><ele>20.666666666666668</ele><time>2026-05-05T16:26:36.177Z</time></trkpt><trkpt lat="38.1237167" lon="13.3636217"><ele>20.833333333333332</ele><time>2026-05-05T16:26:38.177Z</time></trkpt><trkpt lat="38.123695" lon="13.3635183"><ele>21.0</ele><time>2026-05-05T16:27:02.177Z</time></trkpt><trkpt lat="38.1236517" lon="13.3633967"><ele>21.0</ele><time>2026-05-05T16:27:05.176Z</time></trkpt><trkpt lat="38.1235817" lon="13.36326"><ele>21.0</ele><time>2026-05-05T16:27:07.176Z</time></trkpt><trkpt lat="38.123545" lon="13.3631933"><ele>21.0</ele><time>2026-05-05T16:27:08.176Z</time></trkpt><trkpt lat="38.12349" lon="13.36307"><ele>21.0</ele><time>2026-05-05T16:27:10.176Z</time></trkpt><trkpt lat="38.1233983" lon="13.3629783"><ele>21.0</ele><time>2026-05-05T16:27:20.176Z</time></trkpt><trkpt lat="38.1232917" lon="13.36303"><ele>20.8</ele><time>2026-05-05T16:27:22.176Z</time></trkpt><trkpt lat="38.1232217" lon="13.3630533"><ele>20.6</ele><time>2026-05-05T16:27:23.177Z</time></trkpt><trkpt lat="38.1230983" lon="13.3631033"><ele>20.4</ele><time>2026-05-05T16:27:24.176Z</time></trkpt><trkpt lat="38.1229983" lon="13.3631333"><ele>20.2</ele><time>2026-05-05T16:27:25.176Z</time></trkpt><trkpt lat="38.122915" lon="13.3631517"><ele>20.0</ele><time>2026-05-05T16:27:26.176Z</time></trkpt><trkpt lat="38.122845" lon="13.3631683"><ele>20.0</ele><time>2026-05-05T16:27:27.176Z</time></trkpt><trkpt lat="38.1227833" lon="13.363185"><ele>20.0</ele><time>2026-05-05T16:27:28.176Z</time></trkpt><trkpt lat="38.12267" lon="13.3631817"><ele>20.0</ele><time>2026-05-05T16:27:30.176Z</time></trkpt><trkpt lat="38.122585" lon="13.3631633"><ele>20.0</ele><time>2026-05-05T16:27:32.176Z</time></trkpt><trkpt lat="38.1225167" lon="13.36319"><ele>20.0</ele><time>2026-05-05T16:27:44.176Z</time></trkpt><trkpt lat="38.1225067" lon="13.3633017"><ele>20.0</ele><time>2026-05-05T16:27:46.176Z</time></trkpt><trkpt lat="38.122535" lon="13.3634633"><ele>20.0</ele><time>2026-05-05T16:27:48.176Z</time></trkpt><trkpt lat="38.1225517" lon="13.363555"><ele>20.0</ele><time>2026-05-05T16:27:49.176Z</time></trkpt><trkpt lat="38.122575" lon="13.3636533"><ele>20.0</ele><time>2026-05-05T16:27:50.176Z</time></trkpt><trkpt lat="38.1225933" lon="13.36375"><ele>20.0</ele><time>2026-05-05T16:27:51.176Z</time></trkpt><trkpt lat="38.1226083" lon="13.3638567"><ele>20.0</ele><time>2026-05-05T16:27:52.176Z</time></trkpt><trkpt lat="38.1226067" lon="13.36396"><ele>20.0</ele><time>2026-05-05T16:27:53.176Z</time></trkpt><trkpt lat="38.1226" lon="13.3640533"><ele>18.833333333333336</ele><time>2026-05-05T16:27:54.176Z</time></trkpt><trkpt lat="38.122585" lon="13.364135"><ele>17.666666666666668</ele><time>2026-05-05T16:27:55.176Z</time></trkpt><trkpt lat="38.1225417" lon="13.3642917"><ele>16.5</ele><time>2026-05-05T16:27:57.176Z</time></trkpt><trkpt lat="38.1225233" lon="13.3643833"><ele>15.333333333333332</ele><time>2026-05-05T16:27:58.176Z</time></trkpt><trkpt lat="38.1225067" lon="13.3644683"><ele>14.166666666666666</ele><time>2026-05-05T16:27:59.176Z</time></trkpt><trkpt lat="38.1224883" lon="13.3645483"><ele>13.0</ele><time>2026-05-05T16:28:00.176Z</time></trkpt><trkpt lat="38.12247" lon="13.36463"><ele>12.833333333333332</ele><time>2026-05-05T16:28:01.176Z</time></trkpt><trkpt lat="38.1224533" lon="13.3647117"><ele>12.666666666666666</ele><time>2026-05-05T16:28:02.176Z</time></trkpt><trkpt lat="38.1224267" lon="13.3648683"><ele>12.5</ele><time>2026-05-05T16:28:04.177Z</time></trkpt><trkpt lat="38.1224083" lon="13.3649533"><ele>12.333333333333332</ele><time>2026-05-05T16:28:05.176Z</time></trkpt><trkpt lat="38.1223783" lon="13.3650267"><ele>12.166666666666666</ele><time>2026-05-05T16:28:06.176Z</time></trkpt><trkpt lat="38.1223383" lon="13.36509"><ele>12.0</ele><time>2026-05-05T16:28:07.176Z</time></trkpt><trkpt lat="38.12229" lon="13.3651483"><ele>11.999999999999998</ele><time>2026-05-05T16:28:08.176Z</time></trkpt><trkpt lat="38.1222283" lon="13.36519"><ele>12.0</ele><time>2026-05-05T16:28:09.176Z</time></trkpt><trkpt lat="38.12216" lon="13.365225"><ele>12.0</ele><time>2026-05-05T16:28:10.176Z</time></trkpt><trkpt lat="38.1220933" lon="13.3652683"><ele>12.0</ele><time>2026-05-05T16:28:11.177Z</time></trkpt><trkpt lat="38.1220267" lon="13.3653117"><ele>12.0</ele><time>2026-05-05T16:28:12.177Z</time></trkpt><trkpt lat="38.1219583" lon="13.36535"><ele>11.999999999999998</ele><time>2026-05-05T16:28:13.176Z</time></trkpt><trkpt lat="38.1218883" lon="13.3653917"><ele>12.0</ele><time>2026-05-05T16:28:14.176Z</time></trkpt><trkpt lat="38.1218217" lon="13.3654283"><ele>12.0</ele><time>2026-05-05T16:28:15.177Z</time></trkpt><trkpt lat="38.1217567" lon="13.365475"><ele>12.0</ele><time>2026-05-05T16:28:16.176Z</time></trkpt><trkpt lat="38.1216933" lon="13.3655167"><ele>12.0</ele><time>2026-05-05T16:28:17.177Z</time></trkpt><trkpt lat="38.121635" lon="13.3655617"><ele>12.0</ele><time>2026-05-05T16:28:18.176Z</time></trkpt><trkpt lat="38.1215767" lon="13.3655983"><ele>12.0</ele><time>2026-05-05T16:28:19.176Z</time></trkpt><trkpt lat="38.121475" lon="13.3656583"><ele>12.0</ele><time>2026-05-05T16:28:21.177Z</time></trkpt><trkpt lat="38.1214033" lon="13.3657017"><ele>11.666666666666666</ele><time>2026-05-05T16:28:23.177Z</time></trkpt><trkpt lat="38.121345" lon="13.36575"><ele>11.333333333333334</ele><time>2026-05-05T16:28:26.176Z</time></trkpt><trkpt lat="38.121275" lon="13.3657917"><ele>11.0</ele><time>2026-05-05T16:28:28.176Z</time></trkpt><trkpt lat="38.12119" lon="13.3658383"><ele>10.666666666666668</ele><time>2026-05-05T16:28:30.176Z</time></trkpt><trkpt lat="38.1211217" lon="13.36588"><ele>10.333333333333334</ele><time>2026-05-05T16:28:32.177Z</time></trkpt><trkpt lat="38.1210467" lon="13.3659183"><ele>10.0</ele><time>2026-05-05T16:28:52.176Z</time></trkpt><trkpt lat="38.120955" lon="13.36598"><ele>10.0</ele><time>2026-05-05T16:28:54.176Z</time></trkpt><trkpt lat="38.12086" lon="13.366045"><ele>10.0</ele><time>2026-05-05T16:28:56.176Z</time></trkpt><trkpt lat="38.1207883" lon="13.3660867"><ele>10.0</ele><time>2026-05-05T16:28:58.176Z</time></trkpt><trkpt lat="38.120725" lon="13.3661383"><ele>10.0</ele><time>2026-05-05T16:29:01.176Z</time></trkpt><trkpt lat="38.1206683" lon="13.3661733"><ele>10.0</ele><time>2026-05-05T16:29:06.176Z</time></trkpt><trkpt lat="38.1206017" lon="13.3662183"><ele>10.0</ele><time>2026-05-05T16:29:11.176Z</time></trkpt><trkpt lat="38.12054" lon="13.3662583"><ele>9.857142857142858</ele><time>2026-05-05T16:29:15.176Z</time></trkpt><trkpt lat="38.1204733" lon="13.3662967"><ele>9.714285714285715</ele><time>2026-05-05T16:29:19.177Z</time></trkpt><trkpt lat="38.1204183" lon="13.3663417"><ele>9.571428571428573</ele><time>2026-05-05T16:29:25.176Z</time></trkpt><trkpt lat="38.1203583" lon="13.3663933"><ele>9.428571428571429</ele><time>2026-05-05T16:29:30.176Z</time></trkpt><trkpt lat="38.1202983" lon="13.3664267"><ele>9.285714285714286</ele><time>2026-05-05T16:29:33.177Z</time></trkpt><trkpt lat="38.1202317" lon="13.3664483"><ele>9.142857142857144</ele><time>2026-05-05T16:29:36.176Z</time></trkpt><trkpt lat="38.12016" lon="13.36646"><ele>9.0</ele><time>2026-05-05T16:29:41.176Z</time></trkpt><trkpt lat="38.1200783" lon="13.36647"><ele>9.000000000000002</ele><time>2026-05-05T16:29:45.176Z</time></trkpt><trkpt lat="38.120005" lon="13.3664917"><ele>9.0</ele><time>2026-05-05T16:29:47.176Z</time></trkpt><trkpt lat="38.1199383" lon="13.3665033"><ele>9.0</ele><time>2026-05-05T16:29:49.176Z</time></trkpt><trkpt lat="38.1198633" lon="13.36652"><ele>9.0</ele><time>2026-05-05T16:29:51.176Z</time></trkpt><trkpt lat="38.1198" lon="13.366535"><ele>9.0</ele><time>2026-05-05T16:29:53.176Z</time></trkpt><trkpt lat="38.119735" lon="13.36655"><ele>9.000000000000002</ele><time>2026-05-05T16:29:56.176Z</time></trkpt><trkpt lat="38.1196717" lon="13.3665733"><ele>9.0</ele><time>2026-05-05T16:30:01.176Z</time></trkpt><trkpt lat="38.1195417" lon="13.3666217"><ele>8.833333333333334</ele><time>2026-05-05T16:30:26.177Z</time></trkpt><trkpt lat="38.1194617" lon="13.3666417"><ele>8.666666666666666</ele><time>2026-05-05T16:30:29.176Z</time></trkpt><trkpt lat="38.119395" lon="13.3666667"><ele>8.5</ele><time>2026-05-05T16:30:31.176Z</time></trkpt><trkpt lat="38.119305" lon="13.3667267"><ele>8.333333333333332</ele><time>2026-05-05T16:30:33.176Z</time></trkpt><trkpt lat="38.11924" lon="13.3667667"><ele>8.166666666666666</ele><time>2026-05-05T16:30:34.176Z</time></trkpt><trkpt lat="38.1191683" lon="13.36683"><ele>8.0</ele><time>2026-05-05T16:30:35.177Z</time></trkpt><trkpt lat="38.119105" lon="13.3668967"><ele>8.4</ele><time>2026-05-05T16:30:36.176Z</time></trkpt><trkpt lat="38.1190517" lon="13.3669517"><ele>8.8</ele><time>2026-05-05T16:30:37.177Z</time></trkpt><trkpt lat="38.1189967" lon="13.3670083"><ele>9.2</ele><time>2026-05-05T16:30:38.176Z</time></trkpt><trkpt lat="38.1189467" lon="13.3670667"><ele>9.6</ele><time>2026-05-05T16:30:39.176Z</time></trkpt><trkpt lat="38.1188583" lon="13.36718"><ele>10.0</ele><time>2026-05-05T16:30:41.176Z</time></trkpt><trkpt lat="38.1187867" lon="13.36731"><ele>10.0</ele><time>2026-05-05T16:30:43.176Z</time></trkpt><trkpt lat="38.1187517" lon="13.3673867"><ele>10.0</ele><time>2026-05-05T16:30:44.176Z</time></trkpt><trkpt lat="38.1187083" lon="13.36753"><ele>10.0</ele><time>2026-05-05T16:30:46.176Z</time></trkpt><trkpt lat="38.1186833" lon="13.36767"><ele>10.0</ele><time>2026-05-05T16:30:48.176Z</time></trkpt><trkpt lat="38.1186783" lon="13.3678"><ele>10.0</ele><time>2026-05-05T16:30:50.176Z</time></trkpt><trkpt lat="38.118685" lon="13.36789"><ele>10.0</ele><time>2026-05-05T16:30:52.176Z</time></trkpt><trkpt lat="38.1186817" lon="13.3679717"><ele>10.0</ele><time>2026-05-05T16:30:57.176Z</time></trkpt><trkpt lat="38.1186617" lon="13.3680517"><ele>10.0</ele><time>2026-05-05T16:31:25.176Z</time></trkpt><trkpt lat="38.1186833" lon="13.3681867"><ele>10.0</ele><time>2026-05-05T16:31:29.176Z</time></trkpt><trkpt lat="38.118725" lon="13.3683133"><ele>10.0</ele><time>2026-05-05T16:31:31.176Z</time></trkpt><trkpt lat="38.11878" lon="13.3684267"><ele>10.0</ele><time>2026-05-05T16:31:33.176Z</time></trkpt><trkpt lat="38.1188333" lon="13.368535"><ele>10.0</ele><time>2026-05-05T16:31:35.176Z</time></trkpt><trkpt lat="38.1188917" lon="13.368655"><ele>10.0</ele><time>2026-05-05T16:31:37.176Z</time></trkpt><trkpt lat="38.1189583" lon="13.36877"><ele>10.0</ele><time>2026-05-05T16:31:39.176Z</time></trkpt><trkpt lat="38.1190267" lon="13.368895"><ele>10.0</ele><time>2026-05-05T16:31:41.176Z</time></trkpt><trkpt lat="38.1191033" lon="13.3690167"><ele>10.0</ele><time>2026-05-05T16:31:43.176Z</time></trkpt><trkpt lat="38.1191483" lon="13.3690833"><ele>10.0</ele><time>2026-05-05T16:31:44.176Z</time></trkpt><trkpt lat="38.11921" lon="13.3691417"><ele>10.0</ele><time>2026-05-05T16:31:45.176Z</time></trkpt><trkpt lat="38.1192633" lon="13.3692067"><ele>10.0</ele><time>2026-05-05T16:31:46.176Z</time></trkpt><trkpt lat="38.1193167" lon="13.3692733"><ele>10.0</ele><time>2026-05-05T16:31:47.176Z</time></trkpt><trkpt lat="38.1193783" lon="13.36934"><ele>10.0</ele><time>2026-05-05T16:31:48.177Z</time></trkpt><trkpt lat="38.1194317" lon="13.3694117"><ele>10.0</ele><time>2026-05-05T16:31:49.177Z</time></trkpt><trkpt lat="38.119475" lon="13.3694933"><ele>10.0</ele><time>2026-05-05T16:31:50.176Z</time></trkpt><trkpt lat="38.1195167" lon="13.3695833"><ele>10.0</ele><time>2026-05-05T16:31:51.176Z</time></trkpt><trkpt lat="38.1195533" lon="13.36968"><ele>10.0</ele><time>2026-05-05T16:31:52.176Z</time></trkpt><trkpt lat="38.1195883" lon="13.369775"><ele>10.0</ele><time>2026-05-05T16:31:53.176Z</time></trkpt><trkpt lat="38.1196267" lon="13.3698633"><ele>10.0</ele><time>2026-05-05T16:31:54.176Z</time></trkpt><trkpt lat="38.11967" lon="13.36995"><ele>11.166666666666668</ele><time>2026-05-05T16:31:55.176Z</time></trkpt><trkpt lat="38.1197067" lon="13.3700433"><ele>12.333333333333334</ele><time>2026-05-05T16:31:56.176Z</time></trkpt><trkpt lat="38.1197467" lon="13.3701333"><ele>13.5</ele><time>2026-05-05T16:31:57.176Z</time></trkpt><trkpt lat="38.1197867" lon="13.3702267"><ele>14.666666666666668</ele><time>2026-05-05T16:31:58.177Z</time></trkpt><trkpt lat="38.1198183" lon="13.3703267"><ele>15.833333333333334</ele><time>2026-05-05T16:31:59.176Z</time></trkpt><trkpt lat="38.11985" lon="13.3704217"><ele>17.0</ele><time>2026-05-05T16:32:00.176Z</time></trkpt><trkpt lat="38.11989" lon="13.370515"><ele>15.333333333333334</ele><time>2026-05-05T16:32:01.176Z</time></trkpt><trkpt lat="38.1199333" lon="13.370605"><ele>13.666666666666668</ele><time>2026-05-05T16:32:02.176Z</time></trkpt><trkpt lat="38.1199683" lon="13.3707033"><ele>12.0</ele><time>2026-05-05T16:32:03.177Z</time></trkpt><trkpt lat="38.120015" lon="13.370795"><ele>10.333333333333334</ele><time>2026-05-05T16:32:04.176Z</time></trkpt><trkpt lat="38.1200333" lon="13.3708883"><ele>8.666666666666668</ele><time>2026-05-05T16:32:05.176Z</time></trkpt><trkpt lat="38.1200283" lon="13.3709867"><ele>7.0</ele><time>2026-05-05T16:32:06.176Z</time></trkpt><trkpt lat="38.1200133" lon="13.371095"><ele>7.0</ele><time>2026-05-05T16:32:07.176Z</time></trkpt><trkpt lat="38.11998" lon="13.37118"><ele>7.0</ele><time>2026-05-05T16:32:08.176Z</time></trkpt><trkpt lat="38.1199267" lon="13.37125"><ele>7.0</ele><time>2026-05-05T16:32:09.177Z</time></trkpt><trkpt lat="38.1198667" lon="13.3712967"><ele>7.0</ele><time>2026-05-05T16:32:10.176Z</time></trkpt><trkpt lat="38.1198" lon="13.3713433"><ele>7.0</ele><time>2026-05-05T16:32:11.176Z</time></trkpt><trkpt lat="38.119745" lon="13.3713933"><ele>7.0</ele><time>2026-05-05T16:32:12.176Z</time></trkpt><trkpt lat="38.119685" lon="13.37143"><ele>7.0</ele><time>2026-05-05T16:32:13.176Z</time></trkpt><trkpt lat="38.1196317" lon="13.3714733"><ele>7.6</ele><time>2026-05-05T16:32:14.176Z</time></trkpt><trkpt lat="38.1195383" lon="13.3715533"><ele>8.2</ele><time>2026-05-05T16:32:16.176Z</time></trkpt><trkpt lat="38.1194433" lon="13.3716233"><ele>8.8</ele><time>2026-05-05T16:32:18.176Z</time></trkpt><trkpt lat="38.1193467" lon="13.371685"><ele>9.4</ele><time>2026-05-05T16:32:20.176Z</time></trkpt><trkpt lat="38.1192517" lon="13.371755"><ele>10.0</ele><time>2026-05-05T16:32:22.176Z</time></trkpt><trkpt lat="38.1191617" lon="13.3718283"><ele>10.0</ele><time>2026-05-05T16:32:24.176Z</time></trkpt><trkpt lat="38.11908" lon="13.37189"><ele>10.0</ele><time>2026-05-05T16:32:26.176Z</time></trkpt><trkpt lat="38.1190083" lon="13.3719283"><ele>10.0</ele><time>2026-05-05T16:32:28.176Z</time></trkpt><trkpt lat="38.1189433" lon="13.3719733"><ele>10.0</ele><time>2026-05-05T16:32:31.176Z</time></trkpt><trkpt lat="38.11886" lon="13.372035"><ele>10.0</ele><time>2026-05-05T16:32:35.176Z</time></trkpt><trkpt lat="38.1187617" lon="13.3721067"><ele>9.6</ele><time>2026-05-05T16:32:37.176Z</time></trkpt><trkpt lat="38.1186983" lon="13.3721583"><ele>9.2</ele><time>2026-05-05T16:32:38.176Z</time></trkpt><trkpt lat="38.1186183" lon="13.3722083"><ele>8.8</ele><time>2026-05-05T16:32:39.176Z</time></trkpt><trkpt lat="38.1185283" lon="13.3722767"><ele>8.4</ele><time>2026-05-05T16:32:40.176Z</time></trkpt><trkpt lat="38.1184217" lon="13.3723417"><ele>8.0</ele><time>2026-05-05T16:32:41.176Z</time></trkpt><trkpt lat="38.1183233" lon="13.372415"><ele>8.8</ele><time>2026-05-05T16:32:42.177Z</time></trkpt><trkpt lat="38.11823" lon="13.3724767"><ele>9.600000000000001</ele><time>2026-05-05T16:32:43.177Z</time></trkpt><trkpt lat="38.1181467" lon="13.3725333"><ele>10.399999999999999</ele><time>2026-05-05T16:32:44.177Z</time></trkpt><trkpt lat="38.118065" lon="13.3726"><ele>11.2</ele><time>2026-05-05T16:32:45.176Z</time></trkpt><trkpt lat="38.1179867" lon="13.3726667"><ele>12.0</ele><time>2026-05-05T16:32:46.176Z</time></trkpt><trkpt lat="38.1179083" lon="13.3727333"><ele>12.0</ele><time>2026-05-05T16:32:47.177Z</time></trkpt><trkpt lat="38.1178317" lon="13.3727883"><ele>12.0</ele><time>2026-05-05T16:32:48.176Z</time></trkpt><trkpt lat="38.1177583" lon="13.3728583"><ele>12.0</ele><time>2026-05-05T16:32:49.176Z</time></trkpt><trkpt lat="38.11768" lon="13.37293"><ele>12.0</ele><time>2026-05-05T16:32:50.176Z</time></trkpt><trkpt lat="38.1176033" lon="13.3729917"><ele>12.0</ele><time>2026-05-05T16:32:51.176Z</time></trkpt><trkpt lat="38.11753" lon="13.3730433"><ele>11.666666666666666</ele><time>2026-05-05T16:32:52.176Z</time></trkpt><trkpt lat="38.117465" lon="13.3731033"><ele>11.333333333333334</ele><time>2026-05-05T16:32:53.176Z</time></trkpt><trkpt lat="38.1174033" lon="13.3731667"><ele>11.0</ele><time>2026-05-05T16:32:54.176Z</time></trkpt><trkpt lat="38.11734" lon="13.37323"><ele>10.666666666666668</ele><time>2026-05-05T16:32:55.176Z</time></trkpt><trkpt lat="38.1172767" lon="13.3732933"><ele>10.333333333333334</ele><time>2026-05-05T16:32:56.177Z</time></trkpt><trkpt lat="38.11722" lon="13.3733567"><ele>10.0</ele><time>2026-05-05T16:32:57.176Z</time></trkpt><trkpt lat="38.1171633" lon="13.3734183"><ele>10.0</ele><time>2026-05-05T16:32:58.177Z</time></trkpt><trkpt lat="38.1171067" lon="13.3734767"><ele>10.0</ele><time>2026-05-05T16:32:59.176Z</time></trkpt><trkpt lat="38.117055" lon="13.3735383"><ele>10.0</ele><time>2026-05-05T16:33:00.176Z</time></trkpt><trkpt lat="38.1170083" lon="13.3735933"><ele>10.0</ele><time>2026-05-05T16:33:01.176Z</time></trkpt><trkpt lat="38.1169267" lon="13.37366"><ele>10.0</ele><time>2026-05-05T16:33:03.176Z</time></trkpt><trkpt lat="38.1168417" lon="13.3737367"><ele>10.0</ele><time>2026-05-05T16:33:05.176Z</time></trkpt><trkpt lat="38.1167883" lon="13.3738033"><ele>10.0</ele><time>2026-05-05T16:33:08.176Z</time></trkpt><trkpt lat="38.11672" lon="13.3738767"><ele>10.0</ele><time>2026-05-05T16:33:24.176Z</time></trkpt><trkpt lat="38.1166667" lon="13.3739583"><ele>10.0</ele><time>2026-05-05T16:33:25.176Z</time></trkpt><trkpt lat="38.1165967" lon="13.37405"><ele>10.0</ele><time>2026-05-05T16:33:26.176Z</time></trkpt><trkpt lat="38.116505" lon="13.3741633"><ele>10.0</ele><time>2026-05-05T16:33:27.176Z</time></trkpt><trkpt lat="38.11641" lon="13.3742917"><ele>10.0</ele><time>2026-05-05T16:33:28.176Z</time></trkpt><trkpt lat="38.1163117" lon="13.374435"><ele>10.0</ele><time>2026-05-05T16:33:29.177Z</time></trkpt><trkpt lat="38.116225" lon="13.3745733"><ele>10.0</ele><time>2026-05-05T16:33:30.176Z</time></trkpt><trkpt lat="38.11614" lon="13.3747183"><ele>10.0</ele><time>2026-05-05T16:33:31.176Z</time></trkpt><trkpt lat="38.1160533" lon="13.3748433"><ele>10.0</ele><time>2026-05-05T16:33:32.177Z</time></trkpt><trkpt lat="38.1159667" lon="13.3749783"><ele>10.0</ele><time>2026-05-05T16:33:33.176Z</time></trkpt><trkpt lat="38.1158783" lon="13.3751"><ele>10.0</ele><time>2026-05-05T16:33:34.176Z</time></trkpt><trkpt lat="38.1157983" lon="13.37522"><ele>10.0</ele><time>2026-05-05T16:33:35.176Z</time></trkpt><trkpt lat="38.1157217" lon="13.37533"><ele>10.0</ele><time>2026-05-05T16:33:36.177Z</time></trkpt><trkpt lat="38.1156467" lon="13.37544"><ele>10.0</ele><time>2026-05-05T16:33:37.176Z</time></trkpt><trkpt lat="38.1155767" lon="13.3755483"><ele>10.0</ele><time>2026-05-05T16:33:38.176Z</time></trkpt><trkpt lat="38.1155133" lon="13.3756467"><ele>10.0</ele><time>2026-05-05T16:33:39.177Z</time></trkpt><trkpt lat="38.1154483" lon="13.3757417"><ele>10.0</ele><time>2026-05-05T16:33:40.176Z</time></trkpt><trkpt lat="38.1153883" lon="13.37583"><ele>9.6</ele><time>2026-05-05T16:33:41.176Z</time></trkpt><trkpt lat="38.1153367" lon="13.3759"><ele>9.2</ele><time>2026-05-05T16:33:42.176Z</time></trkpt><trkpt lat="38.1152817" lon="13.37596"><ele>8.8</ele><time>2026-05-05T16:33:43.176Z</time></trkpt><trkpt lat="38.11518" lon="13.37602"><ele>8.4</ele><time>2026-05-05T16:33:45.176Z</time></trkpt><trkpt lat="38.1150883" lon="13.37597"><ele>8.0</ele><time>2026-05-05T16:33:47.176Z</time></trkpt><trkpt lat="38.11502" lon="13.3758383"><ele>8.0</ele><time>2026-05-05T16:33:49.176Z</time></trkpt><trkpt lat="38.1149883" lon="13.3757367"><ele>8.0</ele><time>2026-05-05T16:33:50.177Z</time></trkpt><trkpt lat="38.114945" lon="13.3756267"><ele>8.0</ele><time>2026-05-05T16:33:51.176Z</time></trkpt><trkpt lat="38.1148933" lon="13.3755117"><ele>8.0</ele><time>2026-05-05T16:33:52.176Z</time></trkpt><trkpt lat="38.114835" lon="13.3754083"><ele>8.0</ele><time>2026-05-05T16:33:53.176Z</time></trkpt><trkpt lat="38.1147917" lon="13.3753117"><ele>8.5</ele><time>2026-05-05T16:33:54.176Z</time></trkpt><trkpt lat="38.1147517" lon="13.3752083"><ele>9.0</ele><time>2026-05-05T16:33:55.176Z</time></trkpt><trkpt lat="38.1147117" lon="13.37511"><ele>9.5</ele><time>2026-05-05T16:33:56.176Z</time></trkpt><trkpt lat="38.1146733" lon="13.37501"><ele>10.0</ele><time>2026-05-05T16:33:57.177Z</time></trkpt><trkpt lat="38.1146267" lon="13.37491"><ele>10.5</ele><time>2026-05-05T16:33:58.176Z</time></trkpt><trkpt lat="38.1145817" lon="13.3748083"><ele>11.0</ele><time>2026-05-05T16:33:59.176Z</time></trkpt><trkpt lat="38.11453" lon="13.3747017"><ele>12.166666666666666</ele><time>2026-05-05T16:34:00.176Z</time></trkpt><trkpt lat="38.1144867" lon="13.3746"><ele>13.333333333333332</ele><time>2026-05-05T16:34:01.176Z</time></trkpt><trkpt lat="38.1144333" lon="13.3745083"><ele>14.5</ele><time>2026-05-05T16:34:02.176Z</time></trkpt><trkpt lat="38.1143933" lon="13.3744217"><ele>15.666666666666666</ele><time>2026-05-05T16:34:03.176Z</time></trkpt><trkpt lat="38.114355" lon="13.37433"><ele>16.833333333333332</ele><time>2026-05-05T16:34:04.176Z</time></trkpt><trkpt lat="38.1143117" lon="13.374235"><ele>18.0</ele><time>2026-05-05T16:34:05.176Z</time></trkpt><trkpt lat="38.114275" lon="13.374145"><ele>18.0</ele><time>2026-05-05T16:34:06.176Z</time></trkpt><trkpt lat="38.114235" lon="13.3740617"><ele>18.0</ele><time>2026-05-05T16:34:07.177Z</time></trkpt><trkpt lat="38.1141983" lon="13.373975"><ele>18.0</ele><time>2026-05-05T16:34:08.176Z</time></trkpt><trkpt lat="38.1141567" lon="13.373885"><ele>18.0</ele><time>2026-05-05T16:34:09.176Z</time></trkpt><trkpt lat="38.114115" lon="13.3737883"><ele>18.0</ele><time>2026-05-05T16:34:10.176Z</time></trkpt><trkpt lat="38.1140717" lon="13.3736883"><ele>18.0</ele><time>2026-05-05T16:34:11.176Z</time></trkpt><trkpt lat="38.1140283" lon="13.37359"><ele>18.0</ele><time>2026-05-05T16:34:12.176Z</time></trkpt><trkpt lat="38.1139833" lon="13.3734933"><ele>18.0</ele><time>2026-05-05T16:34:13.176Z</time></trkpt><trkpt lat="38.1139483" lon="13.37339"><ele>18.0</ele><time>2026-05-05T16:34:14.176Z</time></trkpt><trkpt lat="38.1139117" lon="13.37329"><ele>18.0</ele><time>2026-05-05T16:34:15.176Z</time></trkpt><trkpt lat="38.113865" lon="13.3731933"><ele>18.0</ele><time>2026-05-05T16:34:16.176Z</time></trkpt><trkpt lat="38.1138117" lon="13.3730967"><ele>18.0</ele><time>2026-05-05T16:34:17.176Z</time></trkpt><trkpt lat="38.113755" lon="13.373"><ele>18.0</ele><time>2026-05-05T16:34:18.176Z</time></trkpt><trkpt lat="38.1137083" lon="13.3729117"><ele>18.0</ele><time>2026-05-05T16:34:19.176Z</time></trkpt><trkpt lat="38.1136667" lon="13.372815"><ele>18.0</ele><time>2026-05-05T16:34:20.177Z</time></trkpt><trkpt lat="38.113625" lon="13.3727267"><ele>18.0</ele><time>2026-05-05T16:34:21.176Z</time></trkpt><trkpt lat="38.1135867" lon="13.37262"><ele>18.0</ele><time>2026-05-05T16:34:22.176Z</time></trkpt><trkpt lat="38.1135417" lon="13.37253"><ele>18.0</ele><time>2026-05-05T16:34:23.177Z</time></trkpt><trkpt lat="38.1134983" lon="13.3724467"><ele>18.0</ele><time>2026-05-05T16:34:24.177Z</time></trkpt><trkpt lat="38.1134533" lon="13.3723533"><ele>18.0</ele><time>2026-05-05T16:34:25.176Z</time></trkpt><trkpt lat="38.1134117" lon="13.372255"><ele>18.0</ele><time>2026-05-05T16:34:26.176Z</time></trkpt><trkpt lat="38.1133617" lon="13.3721567"><ele>18.0</ele><time>2026-05-05T16:34:27.176Z</time></trkpt><trkpt lat="38.113315" lon="13.3720483"><ele>18.0</ele><time>2026-05-05T16:34:28.176Z</time></trkpt><trkpt lat="38.1132767" lon="13.3719317"><ele>18.5</ele><time>2026-05-05T16:34:29.176Z</time></trkpt><trkpt lat="38.1132267" lon="13.3718317"><ele>19.0</ele><time>2026-05-05T16:34:30.176Z</time></trkpt><trkpt lat="38.1131833" lon="13.371745"><ele>19.5</ele><time>2026-05-05T16:34:31.176Z</time></trkpt><trkpt lat="38.1131417" lon="13.37166"><ele>20.0</ele><time>2026-05-05T16:34:32.176Z</time></trkpt><trkpt lat="38.1131067" lon="13.3715833"><ele>20.5</ele><time>2026-05-05T16:34:33.176Z</time></trkpt><trkpt lat="38.113075" lon="13.3715067"><ele>21.0</ele><time>2026-05-05T16:34:34.177Z</time></trkpt><trkpt lat="38.113045" lon="13.3714317"><ele>21.0</ele><time>2026-05-05T16:34:35.176Z</time></trkpt><trkpt lat="38.113" lon="13.3713233"><ele>21.0</ele><time>2026-05-05T16:34:37.177Z</time></trkpt><trkpt lat="38.112965" lon="13.371255"><ele>21.0</ele><time>2026-05-05T16:34:39.176Z</time></trkpt><trkpt lat="38.1128933" lon="13.37121"><ele>21.0</ele><time>2026-05-05T16:34:42.176Z</time></trkpt><trkpt lat="38.1128183" lon="13.3712317"><ele>21.0</ele><time>2026-05-05T16:34:45.176Z</time></trkpt><trkpt lat="38.1127133" lon="13.3713167"><ele>21.0</ele><time>2026-05-05T16:35:51.176Z</time></trkpt><trkpt lat="38.1126419" lon="13.3715135"><ele>21.0</ele><time>2026-05-05T16:48:21.835Z</time></trkpt><trkpt lat="38.1125663" lon="13.3715133"><ele>21.0</ele><time>2026-05-05T16:48:27.986Z</time></trkpt><trkpt lat="38.1123767" lon="13.3716017"><ele>21.0</ele><time>2026-05-05T16:50:34.178Z</time></trkpt><trkpt lat="38.1125067" lon="13.3715817"><ele>21.0</ele><time>2026-05-05T16:50:36.178Z</time></trkpt><trkpt lat="38.1125367" lon="13.3716733"><ele>21.0</ele><time>2026-05-05T16:50:41.178Z</time></trkpt><trkpt lat="38.1124817" lon="13.371775"><ele>21.0</ele><time>2026-05-05T16:51:12.178Z</time></trkpt><trkpt lat="38.1125633" lon="13.3717183"><ele>21.0</ele><time>2026-05-05T17:07:25.178Z</time></trkpt><trkpt lat="38.11249" lon="13.3717467"><ele>21.0</ele><time>2026-05-05T18:28:50.281Z</time></trkpt><trkpt lat="38.112395" lon="13.3718217"><ele>21.0</ele><time>2026-05-05T18:28:54.006Z</time></trkpt><trkpt lat="38.1125917" lon="13.3718217"><ele>21.0</ele><time>2026-05-05T18:28:56.006Z</time></trkpt><trkpt lat="38.1124617" lon="13.371735"><ele>21.0</ele><time>2026-05-05T18:29:00.006Z</time></trkpt><trkpt lat="38.1126517" lon="13.371785"><ele>21.0</ele><time>2026-05-05T18:35:13.855Z</time></trkpt><trkpt lat="38.1125217" lon="13.37171"><ele>21.0</ele><time>2026-05-05T18:35:15.856Z</time></trkpt><trkpt lat="38.1123533" lon="13.37179"><ele>21.0</ele><time>2026-05-05T18:35:19.855Z</time></trkpt><trkpt lat="38.112415" lon="13.37177"><ele>21.0</ele><time>2026-05-05T18:35:29.177Z</time></trkpt><trkpt lat="38.1124" lon="13.37186"><ele>21.0</ele><time>2026-05-05T18:39:00.177Z</time></trkpt><trkpt lat="38.112495" lon="13.3718117"><ele>21.0</ele><time>2026-05-05T18:40:34.177Z</time></trkpt><trkpt lat="38.1125417" lon="13.3716617"><ele>21.0</ele><time>2026-05-05T19:05:51.176Z</time></trkpt><trkpt lat="38.112465" lon="13.371725"><ele>21.0</ele><time>2026-05-05T19:06:21.176Z</time></trkpt><trkpt lat="38.1125867" lon="13.3717267"><ele>21.0</ele><time>2026-05-05T19:16:59.175Z</time></trkpt><trkpt lat="38.1124817" lon="13.3717583"><ele>21.0</ele><time>2026-05-05T19:18:25.176Z</time></trkpt><trkpt lat="38.1124617" lon="13.3719117"><ele>21.0</ele><time>2026-05-05T19:20:21.174Z</time></trkpt><trkpt lat="38.112495" lon="13.37182"><ele>21.0</ele><time>2026-05-05T19:20:42.175Z</time></trkpt><trkpt lat="38.11252" lon="13.3717433"><ele>21.0</ele><time>2026-05-05T19:21:37.174Z</time></trkpt><trkpt lat="38.1124833" lon="13.3718567"><ele>21.0</ele><time>2026-05-05T19:36:24.174Z</time></trkpt><trkpt lat="38.1125733" lon="13.3717767"><ele>21.0</ele><time>2026-05-05T19:37:48.173Z</time></trkpt><trkpt lat="38.11255" lon="13.371695"><ele>21.0</ele><time>2026-05-05T19:38:19.174Z</time></trkpt><trkpt lat="38.1125067" lon="13.371755"><ele>21.0</ele><time>2026-05-05T19:40:51.172Z</time></trkpt><trkpt lat="38.1124483" lon="13.3717983"><ele>21.0</ele><time>2026-05-05T19:41:02.172Z</time></trkpt><trkpt lat="38.1125133" lon="13.3717933"><ele>21.0</ele><time>2026-05-05T19:46:49.172Z</time></trkpt><trkpt lat="38.112575" lon="13.3716983"><ele>21.0</ele><time>2026-05-05T19:46:50.173Z</time></trkpt><trkpt lat="38.112525" lon="13.3717533"><ele>21.0</ele><time>2026-05-05T19:56:19.171Z</time></trkpt><trkpt lat="38.112435" lon="13.371805"><ele>21.0</ele><time>2026-05-05T20:01:57.17Z</time></trkpt><trkpt lat="38.1123867" lon="13.3719017"><ele>21.0</ele><time>2026-05-05T20:02:25.17Z</time></trkpt><trkpt lat="38.11244" lon="13.3717917"><ele>21.0</ele><time>2026-05-05T20:03:02.171Z</time></trkpt><trkpt lat="38.1124917" lon="13.3716733"><ele>21.0</ele><time>2026-05-05T20:04:16.17Z</time></trkpt><trkpt lat="38.1125233" lon="13.3717783"><ele>21.0</ele><time>2026-05-05T20:05:52.17Z</time></trkpt><trkpt lat="38.1124617" lon="13.3717517"><ele>21.0</ele><time>2026-05-05T20:08:10.17Z</time></trkpt><trkpt lat="38.11239" lon="13.3718517"><ele>21.0</ele><time>2026-05-05T20:10:01.169Z</time></trkpt><trkpt lat="38.1124383" lon="13.37176"><ele>21.0</ele><time>2026-05-05T20:10:38.169Z</time></trkpt><trkpt lat="38.1125283" lon="13.37176"><ele>21.0</ele><time>2026-05-05T20:15:42.169Z</time></trkpt><trkpt lat="38.1125917" lon="13.37176"><ele>21.0</ele><time>2026-05-05T20:16:53.168Z</time></trkpt><trkpt lat="38.112585" lon="13.3716683"><ele>21.0</ele><time>2026-05-05T20:17:55.168Z</time></trkpt><trkpt lat="38.11249" lon="13.3717417"><ele>21.0</ele><time>2026-05-05T20:22:52.168Z</time></trkpt><trkpt lat="38.112575" lon="13.37171"><ele>21.0</ele><time>2026-05-05T20:28:13.167Z</time></trkpt><trkpt lat="38.1124967" lon="13.3717717"><ele>21.0</ele><time>2026-05-05T20:32:25.167Z</time></trkpt><trkpt lat="38.1125367" lon="13.371705"><ele>21.0</ele><time>2026-05-05T20:55:39.164Z</time></trkpt><trkpt lat="38.1125033" lon="13.3717733"><ele>21.0</ele><time>2026-05-05T20:56:36.163Z</time></trkpt><trkpt lat="38.11254" lon="13.37167"><ele>21.0</ele><time>2026-05-05T21:17:41.161Z</time></trkpt><trkpt lat="38.1125283" lon="13.3717733"><ele>21.0</ele><time>2026-05-05T21:21:27.16Z</time></trkpt><trkpt lat="38.11245" lon="13.3718317"><ele>21.0</ele><time>2026-05-05T21:37:44.158Z</time></trkpt><trkpt lat="38.112525" lon="13.3717317"><ele>21.0</ele><time>2026-05-05T21:39:02.158Z</time></trkpt><trkpt lat="38.1125033" lon="13.37161"><ele>21.0</ele><time>2026-05-05T21:45:17.158Z</time></trkpt><trkpt lat="38.1124717" lon="13.37171"><ele>21.0</ele><time>2026-05-05T21:46:02.157Z</time></trkpt><trkpt lat="38.1126083" lon="13.3716617"><ele>21.0</ele><time>2026-05-05T21:47:20.157Z</time></trkpt><trkpt lat="38.11259" lon="13.3715767"><ele>21.0</ele><time>2026-05-05T21:47:40.158Z</time></trkpt><trkpt lat="38.1125133" lon="13.371655"><ele>21.0</ele><time>2026-05-05T21:49:35.157Z</time></trkpt><trkpt lat="38.1126133" lon="13.3716967"><ele>21.0</ele><time>2026-05-05T21:51:48.157Z</time></trkpt><trkpt lat="38.1125883" lon="13.371775"><ele>21.0</ele><time>2026-05-05T21:52:01.156Z</time></trkpt><trkpt lat="38.1125133" lon="13.3717067"><ele>21.0</ele><time>2026-05-05T21:52:35.156Z</time></trkpt><trkpt lat="38.112485" lon="13.3718067"><ele>21.0</ele><time>2026-05-05T21:57:39.156Z</time></trkpt><trkpt lat="38.112445" lon="13.3719017"><ele>21.0</ele><time>2026-05-05T21:58:00.157Z</time></trkpt><trkpt lat="38.1124217" lon="13.3718267"><ele>21.0</ele><time>2026-05-05T21:59:48.156Z</time></trkpt><trkpt lat="38.1124867" lon="13.3719083"><ele>21.0</ele><time>2026-05-05T22:01:52.155Z</time></trkpt><trkpt lat="38.1125333" lon="13.3717683"><ele>21.0</ele><time>2026-05-05T22:03:25.155Z</time></trkpt><trkpt lat="38.1124517" lon="13.371805"><ele>21.0</ele><time>2026-05-05T22:04:59.155Z</time></trkpt><trkpt lat="38.1125383" lon="13.3717917"><ele>21.0</ele><time>2026-05-05T22:07:38.156Z</time></trkpt><trkpt lat="38.1125417" lon="13.3717117"><ele>21.0</ele><time>2026-05-05T22:07:50.155Z</time></trkpt><trkpt lat="38.1125" lon="13.3716517"><ele>21.0</ele><time>2026-05-05T22:10:21.154Z</time></trkpt><trkpt lat="38.1124283" lon="13.3716183"><ele>21.0</ele><time>2026-05-05T22:12:35.154Z</time></trkpt><trkpt lat="38.11238" lon="13.3717233"><ele>21.0</ele><time>2026-05-05T22:12:51.154Z</time></trkpt><trkpt lat="38.112375" lon="13.3718383"><ele>21.0</ele><time>2026-05-05T22:13:05.154Z</time></trkpt><trkpt lat="38.11244" lon="13.3718333"><ele>21.0</ele><time>2026-05-05T22:13:13.154Z</time></trkpt><trkpt lat="38.11251" lon="13.3718283"><ele>21.0</ele><time>2026-05-05T22:13:19.154Z</time></trkpt><trkpt lat="38.1124533" lon="13.371865"><ele>21.0</ele><time>2026-05-05T22:14:16.154Z</time></trkpt><trkpt lat="38.1124517" lon="13.3717783"><ele>21.0</ele><time>2026-05-05T22:15:14.154Z</time></trkpt><trkpt lat="38.1124733" lon="13.3716833"><ele>21.0</ele><time>2026-05-05T22:16:43.153Z</time></trkpt><trkpt lat="38.1124517" lon="13.3717633"><ele>21.0</ele><time>2026-05-05T22:19:52.153Z</time></trkpt><trkpt lat="38.112395" lon="13.371805"><ele>21.0</ele><time>2026-05-05T22:22:00.153Z</time></trkpt><trkpt lat="38.1125017" lon="13.37191"><ele>21.0</ele><time>2026-05-05T22:30:50.152Z</time></trkpt><trkpt lat="38.1124117" lon="13.371885"><ele>21.0</ele><time>2026-05-05T22:31:23.153Z</time></trkpt><trkpt lat="38.1124867" lon="13.371825"><ele>21.0</ele><time>2026-05-05T22:32:41.151Z</time></trkpt><trkpt lat="38.1124833" lon="13.3717433"><ele>21.0</ele><time>2026-05-05T22:34:43.151Z</time></trkpt><trkpt lat="38.11242" lon="13.3717517"><ele>21.0</ele><time>2026-05-05T22:34:51.151Z</time></trkpt><trkpt lat="38.1123933" lon="13.3718283"><ele>21.0</ele><time>2026-05-05T22:35:02.151Z</time></trkpt><trkpt lat="38.1124533" lon="13.37186"><ele>21.0</ele><time>2026-05-05T22:37:21.152Z</time></trkpt><trkpt lat="38.11239" lon="13.3718267"><ele>21.0</ele><time>2026-05-05T22:43:36.15Z</time></trkpt><trkpt lat="38.1125217" lon="13.37182"><ele>21.0</ele><time>2026-05-05T22:44:49.151Z</time></trkpt><trkpt lat="38.1124533" lon="13.3717533"><ele>21.0</ele><time>2026-05-05T22:45:35.15Z</time></trkpt><trkpt lat="38.1125467" lon="13.3717333"><ele>21.0</ele><time>2026-05-05T22:51:12.149Z</time></trkpt><trkpt lat="38.1124883" lon="13.3718017"><ele>21.0</ele><time>2026-05-05T22:57:46.148Z</time></trkpt><trkpt lat="38.1124267" lon="13.37182"><ele>21.0</ele><time>2026-05-05T22:58:00.148Z</time></trkpt><trkpt lat="38.1124883" lon="13.3717733"><ele>21.0</ele><time>2026-05-05T23:00:01.148Z</time></trkpt><trkpt lat="38.112525" lon="13.3716867"><ele>21.0</ele><time>2026-05-05T23:02:19.148Z</time></trkpt><trkpt lat="38.1125433" lon="13.37178"><ele>21.0</ele><time>2026-05-05T23:03:58.147Z</time></trkpt><trkpt lat="38.1126033" lon="13.37175"><ele>21.0</ele><time>2026-05-05T23:04:51.147Z</time></trkpt><trkpt lat="38.1125883" lon="13.371635"><ele>21.0</ele><time>2026-05-05T23:05:57.147Z</time></trkpt><trkpt lat="38.1125517" lon="13.371715"><ele>21.0</ele><time>2026-05-05T23:06:42.112Z</time></trkpt><trkpt lat="38.112435" lon="13.37172"><ele>21.0</ele><time>2026-05-05T23:14:36.146Z</time></trkpt><trkpt lat="38.1125767" lon="13.3717383"><ele>21.0</ele><time>2026-05-05T23:16:40.146Z</time></trkpt><trkpt lat="38.1125" lon="13.3717717"><ele>21.0</ele><time>2026-05-05T23:17:43.146Z</time></trkpt><trkpt lat="38.1125633" lon="13.3717"><ele>21.0</ele><time>2026-05-05T23:18:53.146Z</time></trkpt><trkpt lat="38.1124683" lon="13.3717333"><ele>21.0</ele><time>2026-05-05T23:23:13.145Z</time></trkpt><trkpt lat="38.1125333" lon="13.3716817"><ele>21.0</ele><time>2026-05-05T23:25:03.145Z</time></trkpt><trkpt lat="38.1125867" lon="13.371735"><ele>21.0</ele><time>2026-05-05T23:35:07.144Z</time></trkpt><trkpt lat="38.1124683" lon="13.3718317"><ele>21.0</ele><time>2026-05-05T23:37:00.143Z</time></trkpt><trkpt lat="38.1125267" lon="13.37179"><ele>21.0</ele><time>2026-05-05T23:37:23.143Z</time></trkpt><trkpt lat="38.1126033" lon="13.3717033"><ele>21.0</ele><time>2026-05-05T23:38:07.143Z</time></trkpt><trkpt lat="38.11254" lon="13.3717067"><ele>21.0</ele><time>2026-05-05T23:39:04.144Z</time></trkpt><trkpt lat="38.1124933" lon="13.3717717"><ele>21.0</ele><time>2026-05-05T23:42:46.143Z</time></trkpt><trkpt lat="38.1124783" lon="13.3718683"><ele>21.0</ele><time>2026-05-05T23:43:44.142Z</time></trkpt><trkpt lat="38.1125433" lon="13.37187"><ele>21.0</ele><time>2026-05-05T23:44:15.142Z</time></trkpt><trkpt lat="38.1125133" lon="13.37179"><ele>21.0</ele><time>2026-05-05T23:46:13.142Z</time></trkpt><trkpt lat="38.1124483" lon="13.3718283"><ele>21.0</ele><time>2026-05-05T23:55:31.141Z</time></trkpt><trkpt lat="38.112505" lon="13.37173"><ele>21.0</ele><time>2026-05-05T23:56:13.142Z</time></trkpt><trkpt lat="38.1124933" lon="13.3718367"><ele>21.0</ele><time>2026-05-06T00:26:11.137Z</time></trkpt><trkpt lat="38.1125417" lon="13.3717517"><ele>21.0</ele><time>2026-05-06T00:26:42.137Z</time></trkpt><trkpt lat="38.1125267" lon="13.3716717"><ele>21.0</ele><time>2026-05-06T00:27:08.137Z</time></trkpt><trkpt lat="38.1124983" lon="13.3717467"><ele>21.0</ele><time>2026-05-06T00:27:47.137Z</time></trkpt><trkpt lat="38.1125533" lon="13.3716667"><ele>21.0</ele><time>2026-05-06T01:10:10.132Z</time></trkpt><trkpt lat="38.112485" lon="13.3717317"><ele>21.0</ele><time>2026-05-06T01:18:40.131Z</time></trkpt><trkpt lat="38.11246" lon="13.37182"><ele>21.0</ele><time>2026-05-06T02:10:00.124Z</time></trkpt><trkpt lat="38.11252" lon="13.3717683"><ele>21.0</ele><time>2026-05-06T02:12:31.124Z</time></trkpt><trkpt lat="38.11243" lon="13.3717917"><ele>21.0</ele><time>2026-05-06T02:14:12.124Z</time></trkpt><trkpt lat="38.1124917" lon="13.3717017"><ele>21.0</ele><time>2026-05-06T02:15:31.123Z</time></trkpt><trkpt lat="38.112475" lon="13.3718117"><ele>21.0</ele><time>2026-05-06T02:16:34.123Z</time></trkpt><trkpt lat="38.1125217" lon="13.371715"><ele>21.0</ele><time>2026-05-06T02:17:55.123Z</time></trkpt><trkpt lat="38.11256" lon="13.371615"><ele>21.0</ele><time>2026-05-06T02:19:54.123Z</time></trkpt><trkpt lat="38.1125017" lon="13.3716967"><ele>21.0</ele><time>2026-05-06T02:20:21.123Z</time></trkpt><trkpt lat="38.1124683" lon="13.3718083"><ele>21.0</ele><time>2026-05-06T02:55:27.119Z</time></trkpt><trkpt lat="38.112545" lon="13.3717083"><ele>21.0</ele><time>2026-05-06T03:10:26.117Z</time></trkpt><trkpt lat="38.1124933" lon="13.371805"><ele>21.0</ele><time>2026-05-06T03:26:50.115Z</time></trkpt><trkpt lat="38.112415" lon="13.3718067"><ele>21.0</ele><time>2026-05-06T03:35:33.114Z</time></trkpt><trkpt lat="38.11248" lon="13.3717767"><ele>21.0</ele><time>2026-05-06T03:42:17.113Z</time></trkpt><trkpt lat="38.1125667" lon="13.371775"><ele>21.0</ele><time>2026-05-06T03:46:44.112Z</time></trkpt></trkseg></trk></gpx>